<?xml version="1.0" encoding="UTF-8" standalone="no" ?>
<gpx xmlns="http://www.topografix.com/GPX/1/1" xmlns:xsi="http://www.w3.org/2001/XMLSchema-instance" xsi:schemaLocation="http://www.topografix.com/GPX/1/1 http://www.topografix.com/GPX/1/1/gpx.xsd" version="1.1" creator="VisuGPX - https://www.visugpx.com">
  <metadata>
    <name>Soultz-Haut-Rhin Cyclisme</name>
  </metadata>
  <trk>
    <name><![CDATA[Soultz-Haut-Rhin Cyclisme]]></name>
    <trkseg>
      <trkpt lat="47.87571" lon="7.19125">
        <ele>399.20001220703</ele>
        <time>2020-05-31T06:19:17.000Z</time>
      </trkpt>
      <trkpt lat="47.8757" lon="7.19115">
        <ele>399.20001220703</ele>
        <time>2020-05-31T06:19:20.000Z</time>
      </trkpt>
      <trkpt lat="47.8757" lon="7.19111">
        <ele>395.79998779297</ele>
        <time>2020-05-31T06:19:21.000Z</time>
      </trkpt>
      <trkpt lat="47.87571" lon="7.19108">
        <ele>397</ele>
        <time>2020-05-31T06:19:22.000Z</time>
      </trkpt>
      <trkpt lat="47.87571" lon="7.19105">
        <ele>397.39999389648</ele>
        <time>2020-05-31T06:19:23.000Z</time>
      </trkpt>
      <trkpt lat="47.87572" lon="7.19102">
        <ele>398</ele>
        <time>2020-05-31T06:19:24.000Z</time>
      </trkpt>
      <trkpt lat="47.87572" lon="7.19099">
        <ele>398.39999389648</ele>
        <time>2020-05-31T06:19:25.000Z</time>
      </trkpt>
      <trkpt lat="47.87573" lon="7.19097">
        <ele>399</ele>
        <time>2020-05-31T06:19:26.000Z</time>
      </trkpt>
      <trkpt lat="47.87575" lon="7.19095">
        <ele>399.39999389648</ele>
        <time>2020-05-31T06:19:27.000Z</time>
      </trkpt>
      <trkpt lat="47.87577" lon="7.19091">
        <ele>400.20001220703</ele>
        <time>2020-05-31T06:19:29.000Z</time>
      </trkpt>
      <trkpt lat="47.87578" lon="7.19089">
        <ele>400.79998779297</ele>
        <time>2020-05-31T06:19:30.000Z</time>
      </trkpt>
      <trkpt lat="47.87579" lon="7.19086">
        <ele>401.39999389648</ele>
        <time>2020-05-31T06:19:31.000Z</time>
      </trkpt>
      <trkpt lat="47.8758" lon="7.19085">
        <ele>402.20001220703</ele>
        <time>2020-05-31T06:19:32.000Z</time>
      </trkpt>
      <trkpt lat="47.87581" lon="7.19083">
        <ele>402.79998779297</ele>
        <time>2020-05-31T06:19:33.000Z</time>
      </trkpt>
      <trkpt lat="47.87583" lon="7.1908">
        <ele>402.79998779297</ele>
        <time>2020-05-31T06:19:36.000Z</time>
      </trkpt>
      <trkpt lat="47.87584" lon="7.1908">
        <ele>402.79998779297</ele>
        <time>2020-05-31T06:19:38.000Z</time>
      </trkpt>
      <trkpt lat="47.87601" lon="7.19056">
        <ele>402.79998779297</ele>
        <time>2020-05-31T06:20:24.000Z</time>
      </trkpt>
      <trkpt lat="47.87603" lon="7.19051">
        <ele>402.79998779297</ele>
        <time>2020-05-31T06:20:27.000Z</time>
      </trkpt>
      <trkpt lat="47.87605" lon="7.19041">
        <ele>402.79998779297</ele>
        <time>2020-05-31T06:20:31.000Z</time>
      </trkpt>
      <trkpt lat="47.87606" lon="7.19031">
        <ele>402.79998779297</ele>
        <time>2020-05-31T06:20:34.000Z</time>
      </trkpt>
      <trkpt lat="47.87607" lon="7.19029">
        <ele>403.20001220703</ele>
        <time>2020-05-31T06:20:35.000Z</time>
      </trkpt>
      <trkpt lat="47.87607" lon="7.19026">
        <ele>403.60000610352</ele>
        <time>2020-05-31T06:20:36.000Z</time>
      </trkpt>
      <trkpt lat="47.87608" lon="7.19022">
        <ele>404</ele>
        <time>2020-05-31T06:20:37.000Z</time>
      </trkpt>
      <trkpt lat="47.87609" lon="7.19019">
        <ele>404.39999389648</ele>
        <time>2020-05-31T06:20:38.000Z</time>
      </trkpt>
      <trkpt lat="47.87609" lon="7.19016">
        <ele>404.79998779297</ele>
        <time>2020-05-31T06:20:39.000Z</time>
      </trkpt>
      <trkpt lat="47.87609" lon="7.19014">
        <ele>404.79998779297</ele>
        <time>2020-05-31T06:20:40.000Z</time>
      </trkpt>
      <trkpt lat="47.87619" lon="7.18983">
        <ele>405.20001220703</ele>
        <time>2020-05-31T06:20:46.000Z</time>
      </trkpt>
      <trkpt lat="47.87621" lon="7.18978">
        <ele>405.60000610352</ele>
        <time>2020-05-31T06:20:47.000Z</time>
      </trkpt>
      <trkpt lat="47.87621" lon="7.18974">
        <ele>406</ele>
        <time>2020-05-31T06:20:48.000Z</time>
      </trkpt>
      <trkpt lat="47.8762" lon="7.18973">
        <ele>406.39999389648</ele>
        <time>2020-05-31T06:20:49.000Z</time>
      </trkpt>
      <trkpt lat="47.8762" lon="7.18971">
        <ele>406.79998779297</ele>
        <time>2020-05-31T06:20:50.000Z</time>
      </trkpt>
      <trkpt lat="47.87633" lon="7.18952">
        <ele>406.79998779297</ele>
        <time>2020-05-31T06:20:54.000Z</time>
      </trkpt>
      <trkpt lat="47.87637" lon="7.18945">
        <ele>407.39999389648</ele>
        <time>2020-05-31T06:20:57.000Z</time>
      </trkpt>
      <trkpt lat="47.87639" lon="7.18941">
        <ele>407.79998779297</ele>
        <time>2020-05-31T06:20:58.000Z</time>
      </trkpt>
      <trkpt lat="47.87639" lon="7.18939">
        <ele>408.60000610352</ele>
        <time>2020-05-31T06:20:59.000Z</time>
      </trkpt>
      <trkpt lat="47.8764" lon="7.18934">
        <ele>409</ele>
        <time>2020-05-31T06:21:00.000Z</time>
      </trkpt>
      <trkpt lat="47.87641" lon="7.18931">
        <ele>409</ele>
        <time>2020-05-31T06:21:01.000Z</time>
      </trkpt>
      <trkpt lat="47.87642" lon="7.18923">
        <ele>409.39999389648</ele>
        <time>2020-05-31T06:21:06.000Z</time>
      </trkpt>
      <trkpt lat="47.87645" lon="7.18918">
        <ele>409.79998779297</ele>
        <time>2020-05-31T06:21:07.000Z</time>
      </trkpt>
      <trkpt lat="47.87649" lon="7.18913">
        <ele>410.20001220703</ele>
        <time>2020-05-31T06:21:08.000Z</time>
      </trkpt>
      <trkpt lat="47.87649" lon="7.18911">
        <ele>410.60000610352</ele>
        <time>2020-05-31T06:21:09.000Z</time>
      </trkpt>
      <trkpt lat="47.8765" lon="7.18908">
        <ele>411</ele>
        <time>2020-05-31T06:21:10.000Z</time>
      </trkpt>
      <trkpt lat="47.87665" lon="7.18882">
        <ele>411.39999389648</ele>
        <time>2020-05-31T06:21:16.000Z</time>
      </trkpt>
      <trkpt lat="47.87666" lon="7.18878">
        <ele>411.79998779297</ele>
        <time>2020-05-31T06:21:17.000Z</time>
      </trkpt>
      <trkpt lat="47.87667" lon="7.18875">
        <ele>412.39999389648</ele>
        <time>2020-05-31T06:21:18.000Z</time>
      </trkpt>
      <trkpt lat="47.87668" lon="7.18872">
        <ele>412.79998779297</ele>
        <time>2020-05-31T06:21:19.000Z</time>
      </trkpt>
      <trkpt lat="47.87668" lon="7.1887">
        <ele>413.20001220703</ele>
        <time>2020-05-31T06:21:20.000Z</time>
      </trkpt>
      <trkpt lat="47.87674" lon="7.18853">
        <ele>413.60000610352</ele>
        <time>2020-05-31T06:21:25.000Z</time>
      </trkpt>
      <trkpt lat="47.87674" lon="7.1885">
        <ele>414</ele>
        <time>2020-05-31T06:21:26.000Z</time>
      </trkpt>
      <trkpt lat="47.87675" lon="7.18846">
        <ele>414.39999389648</ele>
        <time>2020-05-31T06:21:27.000Z</time>
      </trkpt>
      <trkpt lat="47.87675" lon="7.18843">
        <ele>414.79998779297</ele>
        <time>2020-05-31T06:21:28.000Z</time>
      </trkpt>
      <trkpt lat="47.87676" lon="7.18839">
        <ele>415.39999389648</ele>
        <time>2020-05-31T06:21:29.000Z</time>
      </trkpt>
      <trkpt lat="47.87677" lon="7.18831">
        <ele>415.39999389648</ele>
        <time>2020-05-31T06:21:31.000Z</time>
      </trkpt>
      <trkpt lat="47.87679" lon="7.18821">
        <ele>415.79998779297</ele>
        <time>2020-05-31T06:21:33.000Z</time>
      </trkpt>
      <trkpt lat="47.87679" lon="7.18817">
        <ele>416.20001220703</ele>
        <time>2020-05-31T06:21:34.000Z</time>
      </trkpt>
      <trkpt lat="47.8768" lon="7.18814">
        <ele>416.60000610352</ele>
        <time>2020-05-31T06:21:35.000Z</time>
      </trkpt>
      <trkpt lat="47.87681" lon="7.18811">
        <ele>417</ele>
        <time>2020-05-31T06:21:36.000Z</time>
      </trkpt>
      <trkpt lat="47.87682" lon="7.18808">
        <ele>417.39999389648</ele>
        <time>2020-05-31T06:21:37.000Z</time>
      </trkpt>
      <trkpt lat="47.87682" lon="7.18806">
        <ele>417.39999389648</ele>
        <time>2020-05-31T06:21:38.000Z</time>
      </trkpt>
      <trkpt lat="47.87682" lon="7.18802">
        <ele>417.39999389648</ele>
        <time>2020-05-31T06:21:39.000Z</time>
      </trkpt>
      <trkpt lat="47.87683" lon="7.18795">
        <ele>417.79998779297</ele>
        <time>2020-05-31T06:21:41.000Z</time>
      </trkpt>
      <trkpt lat="47.87684" lon="7.18791">
        <ele>418.20001220703</ele>
        <time>2020-05-31T06:21:42.000Z</time>
      </trkpt>
      <trkpt lat="47.87685" lon="7.18788">
        <ele>418.60000610352</ele>
        <time>2020-05-31T06:21:43.000Z</time>
      </trkpt>
      <trkpt lat="47.87686" lon="7.18785">
        <ele>419</ele>
        <time>2020-05-31T06:21:44.000Z</time>
      </trkpt>
      <trkpt lat="47.87688" lon="7.18778">
        <ele>419.39999389648</ele>
        <time>2020-05-31T06:21:45.000Z</time>
      </trkpt>
      <trkpt lat="47.87692" lon="7.18762">
        <ele>420.39999389648</ele>
        <time>2020-05-31T06:21:48.000Z</time>
      </trkpt>
      <trkpt lat="47.87695" lon="7.18757">
        <ele>420.79998779297</ele>
        <time>2020-05-31T06:21:49.000Z</time>
      </trkpt>
      <trkpt lat="47.87701" lon="7.18749">
        <ele>421.20001220703</ele>
        <time>2020-05-31T06:21:50.000Z</time>
      </trkpt>
      <trkpt lat="47.87704" lon="7.18744">
        <ele>421.60000610352</ele>
        <time>2020-05-31T06:21:51.000Z</time>
      </trkpt>
      <trkpt lat="47.87706" lon="7.1873">
        <ele>422</ele>
        <time>2020-05-31T06:21:55.000Z</time>
      </trkpt>
      <trkpt lat="47.87707" lon="7.18726">
        <ele>422.39999389648</ele>
        <time>2020-05-31T06:21:56.000Z</time>
      </trkpt>
      <trkpt lat="47.87707" lon="7.18723">
        <ele>422.79998779297</ele>
        <time>2020-05-31T06:21:57.000Z</time>
      </trkpt>
      <trkpt lat="47.87708" lon="7.1872">
        <ele>423.20001220703</ele>
        <time>2020-05-31T06:21:58.000Z</time>
      </trkpt>
      <trkpt lat="47.87708" lon="7.18718">
        <ele>423.60000610352</ele>
        <time>2020-05-31T06:21:59.000Z</time>
      </trkpt>
      <trkpt lat="47.87709" lon="7.18707">
        <ele>424</ele>
        <time>2020-05-31T06:22:02.000Z</time>
      </trkpt>
      <trkpt lat="47.87709" lon="7.18704">
        <ele>424.39999389648</ele>
        <time>2020-05-31T06:22:03.000Z</time>
      </trkpt>
      <trkpt lat="47.87709" lon="7.18701">
        <ele>424.79998779297</ele>
        <time>2020-05-31T06:22:04.000Z</time>
      </trkpt>
      <trkpt lat="47.8771" lon="7.18698">
        <ele>425.20001220703</ele>
        <time>2020-05-31T06:22:05.000Z</time>
      </trkpt>
      <trkpt lat="47.8771" lon="7.18696">
        <ele>425.79998779297</ele>
        <time>2020-05-31T06:22:06.000Z</time>
      </trkpt>
      <trkpt lat="47.87712" lon="7.18687">
        <ele>426.20001220703</ele>
        <time>2020-05-31T06:22:09.000Z</time>
      </trkpt>
      <trkpt lat="47.87713" lon="7.18684">
        <ele>426.60000610352</ele>
        <time>2020-05-31T06:22:10.000Z</time>
      </trkpt>
      <trkpt lat="47.87714" lon="7.18681">
        <ele>427.20001220703</ele>
        <time>2020-05-31T06:22:11.000Z</time>
      </trkpt>
      <trkpt lat="47.87714" lon="7.18678">
        <ele>427.60000610352</ele>
        <time>2020-05-31T06:22:12.000Z</time>
      </trkpt>
      <trkpt lat="47.87715" lon="7.18676">
        <ele>428</ele>
        <time>2020-05-31T06:22:13.000Z</time>
      </trkpt>
      <trkpt lat="47.87716" lon="7.18673">
        <ele>428.39999389648</ele>
        <time>2020-05-31T06:22:14.000Z</time>
      </trkpt>
      <trkpt lat="47.87716" lon="7.1867">
        <ele>428.79998779297</ele>
        <time>2020-05-31T06:22:15.000Z</time>
      </trkpt>
      <trkpt lat="47.87717" lon="7.18666">
        <ele>429.20001220703</ele>
        <time>2020-05-31T06:22:16.000Z</time>
      </trkpt>
      <trkpt lat="47.87717" lon="7.18663">
        <ele>429.60000610352</ele>
        <time>2020-05-31T06:22:17.000Z</time>
      </trkpt>
      <trkpt lat="47.87717" lon="7.1866">
        <ele>430</ele>
        <time>2020-05-31T06:22:18.000Z</time>
      </trkpt>
      <trkpt lat="47.87717" lon="7.18655">
        <ele>430.60000610352</ele>
        <time>2020-05-31T06:22:20.000Z</time>
      </trkpt>
      <trkpt lat="47.87717" lon="7.18651">
        <ele>431</ele>
        <time>2020-05-31T06:22:21.000Z</time>
      </trkpt>
      <trkpt lat="47.87718" lon="7.18647">
        <ele>431.39999389648</ele>
        <time>2020-05-31T06:22:22.000Z</time>
      </trkpt>
      <trkpt lat="47.87719" lon="7.18644">
        <ele>432</ele>
        <time>2020-05-31T06:22:23.000Z</time>
      </trkpt>
      <trkpt lat="47.87719" lon="7.18642">
        <ele>432.39999389648</ele>
        <time>2020-05-31T06:22:24.000Z</time>
      </trkpt>
      <trkpt lat="47.8772" lon="7.18639">
        <ele>432.39999389648</ele>
        <time>2020-05-31T06:22:25.000Z</time>
      </trkpt>
      <trkpt lat="47.87722" lon="7.18634">
        <ele>432.79998779297</ele>
        <time>2020-05-31T06:22:27.000Z</time>
      </trkpt>
      <trkpt lat="47.87723" lon="7.18632">
        <ele>433.20001220703</ele>
        <time>2020-05-31T06:22:28.000Z</time>
      </trkpt>
      <trkpt lat="47.87724" lon="7.18629">
        <ele>433.60000610352</ele>
        <time>2020-05-31T06:22:29.000Z</time>
      </trkpt>
      <trkpt lat="47.87725" lon="7.18626">
        <ele>434</ele>
        <time>2020-05-31T06:22:30.000Z</time>
      </trkpt>
      <trkpt lat="47.87726" lon="7.18623">
        <ele>434.39999389648</ele>
        <time>2020-05-31T06:22:31.000Z</time>
      </trkpt>
      <trkpt lat="47.87726" lon="7.18621">
        <ele>435</ele>
        <time>2020-05-31T06:22:32.000Z</time>
      </trkpt>
      <trkpt lat="47.87727" lon="7.18618">
        <ele>435.39999389648</ele>
        <time>2020-05-31T06:22:33.000Z</time>
      </trkpt>
      <trkpt lat="47.87727" lon="7.18616">
        <ele>435.79998779297</ele>
        <time>2020-05-31T06:22:34.000Z</time>
      </trkpt>
      <trkpt lat="47.87727" lon="7.18614">
        <ele>436.20001220703</ele>
        <time>2020-05-31T06:22:35.000Z</time>
      </trkpt>
      <trkpt lat="47.87728" lon="7.18611">
        <ele>436.60000610352</ele>
        <time>2020-05-31T06:22:36.000Z</time>
      </trkpt>
      <trkpt lat="47.87729" lon="7.18609">
        <ele>436.60000610352</ele>
        <time>2020-05-31T06:22:37.000Z</time>
      </trkpt>
      <trkpt lat="47.8773" lon="7.18607">
        <ele>437.39999389648</ele>
        <time>2020-05-31T06:22:38.000Z</time>
      </trkpt>
      <trkpt lat="47.8773" lon="7.18605">
        <ele>437.79998779297</ele>
        <time>2020-05-31T06:22:39.000Z</time>
      </trkpt>
      <trkpt lat="47.87731" lon="7.18603">
        <ele>438.39999389648</ele>
        <time>2020-05-31T06:22:40.000Z</time>
      </trkpt>
      <trkpt lat="47.87732" lon="7.18601">
        <ele>438.79998779297</ele>
        <time>2020-05-31T06:22:41.000Z</time>
      </trkpt>
      <trkpt lat="47.87733" lon="7.18597">
        <ele>439.20001220703</ele>
        <time>2020-05-31T06:22:44.000Z</time>
      </trkpt>
      <trkpt lat="47.87733" lon="7.18594">
        <ele>439.60000610352</ele>
        <time>2020-05-31T06:22:45.000Z</time>
      </trkpt>
      <trkpt lat="47.87734" lon="7.18592">
        <ele>440.20001220703</ele>
        <time>2020-05-31T06:22:46.000Z</time>
      </trkpt>
      <trkpt lat="47.87735" lon="7.18589">
        <ele>440.60000610352</ele>
        <time>2020-05-31T06:22:47.000Z</time>
      </trkpt>
      <trkpt lat="47.87736" lon="7.18588">
        <ele>441</ele>
        <time>2020-05-31T06:22:48.000Z</time>
      </trkpt>
      <trkpt lat="47.87737" lon="7.18586">
        <ele>441.39999389648</ele>
        <time>2020-05-31T06:22:49.000Z</time>
      </trkpt>
      <trkpt lat="47.87738" lon="7.18584">
        <ele>441.79998779297</ele>
        <time>2020-05-31T06:22:50.000Z</time>
      </trkpt>
      <trkpt lat="47.87739" lon="7.18582">
        <ele>442.20001220703</ele>
        <time>2020-05-31T06:22:51.000Z</time>
      </trkpt>
      <trkpt lat="47.8774" lon="7.1858">
        <ele>442.60000610352</ele>
        <time>2020-05-31T06:22:52.000Z</time>
      </trkpt>
      <trkpt lat="47.87741" lon="7.18577">
        <ele>443</ele>
        <time>2020-05-31T06:22:53.000Z</time>
      </trkpt>
      <trkpt lat="47.87744" lon="7.1857">
        <ele>443.60000610352</ele>
        <time>2020-05-31T06:22:56.000Z</time>
      </trkpt>
      <trkpt lat="47.87745" lon="7.18568">
        <ele>444</ele>
        <time>2020-05-31T06:22:57.000Z</time>
      </trkpt>
      <trkpt lat="47.87746" lon="7.18566">
        <ele>444.39999389648</ele>
        <time>2020-05-31T06:22:58.000Z</time>
      </trkpt>
      <trkpt lat="47.87747" lon="7.18563">
        <ele>445</ele>
        <time>2020-05-31T06:22:59.000Z</time>
      </trkpt>
      <trkpt lat="47.87748" lon="7.18562">
        <ele>445.39999389648</ele>
        <time>2020-05-31T06:23:00.000Z</time>
      </trkpt>
      <trkpt lat="47.87749" lon="7.18559">
        <ele>446.39999389648</ele>
        <time>2020-05-31T06:23:02.000Z</time>
      </trkpt>
      <trkpt lat="47.8775" lon="7.18556">
        <ele>446.79998779297</ele>
        <time>2020-05-31T06:23:03.000Z</time>
      </trkpt>
      <trkpt lat="47.87751" lon="7.18554">
        <ele>447.20001220703</ele>
        <time>2020-05-31T06:23:04.000Z</time>
      </trkpt>
      <trkpt lat="47.87751" lon="7.18553">
        <ele>447.79998779297</ele>
        <time>2020-05-31T06:23:05.000Z</time>
      </trkpt>
      <trkpt lat="47.87752" lon="7.18549">
        <ele>448.20001220703</ele>
        <time>2020-05-31T06:23:07.000Z</time>
      </trkpt>
      <trkpt lat="47.87753" lon="7.18547">
        <ele>448.60000610352</ele>
        <time>2020-05-31T06:23:08.000Z</time>
      </trkpt>
      <trkpt lat="47.87754" lon="7.18546">
        <ele>449</ele>
        <time>2020-05-31T06:23:09.000Z</time>
      </trkpt>
      <trkpt lat="47.87755" lon="7.18544">
        <ele>449.39999389648</ele>
        <time>2020-05-31T06:23:10.000Z</time>
      </trkpt>
      <trkpt lat="47.87755" lon="7.18542">
        <ele>449.79998779297</ele>
        <time>2020-05-31T06:23:11.000Z</time>
      </trkpt>
      <trkpt lat="47.87757" lon="7.18538">
        <ele>450.20001220703</ele>
        <time>2020-05-31T06:23:13.000Z</time>
      </trkpt>
      <trkpt lat="47.87758" lon="7.18535">
        <ele>450.60000610352</ele>
        <time>2020-05-31T06:23:14.000Z</time>
      </trkpt>
      <trkpt lat="47.87759" lon="7.18533">
        <ele>451</ele>
        <time>2020-05-31T06:23:15.000Z</time>
      </trkpt>
      <trkpt lat="47.87759" lon="7.18529">
        <ele>451.39999389648</ele>
        <time>2020-05-31T06:23:16.000Z</time>
      </trkpt>
      <trkpt lat="47.8776" lon="7.18527">
        <ele>451.79998779297</ele>
        <time>2020-05-31T06:23:17.000Z</time>
      </trkpt>
      <trkpt lat="47.87762" lon="7.18522">
        <ele>452.39999389648</ele>
        <time>2020-05-31T06:23:19.000Z</time>
      </trkpt>
      <trkpt lat="47.87763" lon="7.1852">
        <ele>452.79998779297</ele>
        <time>2020-05-31T06:23:20.000Z</time>
      </trkpt>
      <trkpt lat="47.87764" lon="7.18518">
        <ele>453.20001220703</ele>
        <time>2020-05-31T06:23:21.000Z</time>
      </trkpt>
      <trkpt lat="47.87765" lon="7.18515">
        <ele>453.60000610352</ele>
        <time>2020-05-31T06:23:22.000Z</time>
      </trkpt>
      <trkpt lat="47.87765" lon="7.18513">
        <ele>454</ele>
        <time>2020-05-31T06:23:23.000Z</time>
      </trkpt>
      <trkpt lat="47.87767" lon="7.18509">
        <ele>454.39999389648</ele>
        <time>2020-05-31T06:23:25.000Z</time>
      </trkpt>
      <trkpt lat="47.87768" lon="7.18507">
        <ele>455</ele>
        <time>2020-05-31T06:23:26.000Z</time>
      </trkpt>
      <trkpt lat="47.87769" lon="7.18505">
        <ele>455.79998779297</ele>
        <time>2020-05-31T06:23:27.000Z</time>
      </trkpt>
      <trkpt lat="47.8777" lon="7.18502">
        <ele>456.39999389648</ele>
        <time>2020-05-31T06:23:28.000Z</time>
      </trkpt>
      <trkpt lat="47.87772" lon="7.18498">
        <ele>456.79998779297</ele>
        <time>2020-05-31T06:23:30.000Z</time>
      </trkpt>
      <trkpt lat="47.87773" lon="7.18496">
        <ele>457.20001220703</ele>
        <time>2020-05-31T06:23:31.000Z</time>
      </trkpt>
      <trkpt lat="47.87774" lon="7.18495">
        <ele>457.79998779297</ele>
        <time>2020-05-31T06:23:32.000Z</time>
      </trkpt>
      <trkpt lat="47.87775" lon="7.18493">
        <ele>458.20001220703</ele>
        <time>2020-05-31T06:23:33.000Z</time>
      </trkpt>
      <trkpt lat="47.87777" lon="7.18491">
        <ele>458.60000610352</ele>
        <time>2020-05-31T06:23:34.000Z</time>
      </trkpt>
      <trkpt lat="47.87779" lon="7.18486">
        <ele>459</ele>
        <time>2020-05-31T06:23:36.000Z</time>
      </trkpt>
      <trkpt lat="47.87779" lon="7.18484">
        <ele>459.60000610352</ele>
        <time>2020-05-31T06:23:37.000Z</time>
      </trkpt>
      <trkpt lat="47.8778" lon="7.18482">
        <ele>460</ele>
        <time>2020-05-31T06:23:38.000Z</time>
      </trkpt>
      <trkpt lat="47.87782" lon="7.1848">
        <ele>460.39999389648</ele>
        <time>2020-05-31T06:23:39.000Z</time>
      </trkpt>
      <trkpt lat="47.87782" lon="7.18478">
        <ele>460.79998779297</ele>
        <time>2020-05-31T06:23:40.000Z</time>
      </trkpt>
      <trkpt lat="47.87786" lon="7.18469">
        <ele>461.39999389648</ele>
        <time>2020-05-31T06:23:44.000Z</time>
      </trkpt>
      <trkpt lat="47.87786" lon="7.18467">
        <ele>461.79998779297</ele>
        <time>2020-05-31T06:23:45.000Z</time>
      </trkpt>
      <trkpt lat="47.87786" lon="7.18466">
        <ele>462.39999389648</ele>
        <time>2020-05-31T06:23:46.000Z</time>
      </trkpt>
      <trkpt lat="47.87787" lon="7.18464">
        <ele>462.79998779297</ele>
        <time>2020-05-31T06:23:47.000Z</time>
      </trkpt>
      <trkpt lat="47.87787" lon="7.18462">
        <ele>463.20001220703</ele>
        <time>2020-05-31T06:23:48.000Z</time>
      </trkpt>
      <trkpt lat="47.87788" lon="7.18458">
        <ele>463.60000610352</ele>
        <time>2020-05-31T06:23:50.000Z</time>
      </trkpt>
      <trkpt lat="47.87789" lon="7.18455">
        <ele>464</ele>
        <time>2020-05-31T06:23:51.000Z</time>
      </trkpt>
      <trkpt lat="47.8779" lon="7.18452">
        <ele>465</ele>
        <time>2020-05-31T06:23:52.000Z</time>
      </trkpt>
      <trkpt lat="47.87791" lon="7.18449">
        <ele>465.39999389648</ele>
        <time>2020-05-31T06:23:53.000Z</time>
      </trkpt>
      <trkpt lat="47.87796" lon="7.18437">
        <ele>465.79998779297</ele>
        <time>2020-05-31T06:23:58.000Z</time>
      </trkpt>
      <trkpt lat="47.87797" lon="7.18433">
        <ele>466.20001220703</ele>
        <time>2020-05-31T06:23:59.000Z</time>
      </trkpt>
      <trkpt lat="47.87798" lon="7.1843">
        <ele>466.60000610352</ele>
        <time>2020-05-31T06:24:00.000Z</time>
      </trkpt>
      <trkpt lat="47.87798" lon="7.18428">
        <ele>467</ele>
        <time>2020-05-31T06:24:01.000Z</time>
      </trkpt>
      <trkpt lat="47.87799" lon="7.18426">
        <ele>467.60000610352</ele>
        <time>2020-05-31T06:24:02.000Z</time>
      </trkpt>
      <trkpt lat="47.87803" lon="7.18417">
        <ele>467.60000610352</ele>
        <time>2020-05-31T06:24:06.000Z</time>
      </trkpt>
      <trkpt lat="47.87809" lon="7.18401">
        <ele>468</ele>
        <time>2020-05-31T06:24:13.000Z</time>
      </trkpt>
      <trkpt lat="47.8781" lon="7.18398">
        <ele>468.39999389648</ele>
        <time>2020-05-31T06:24:14.000Z</time>
      </trkpt>
      <trkpt lat="47.87811" lon="7.18396">
        <ele>468.79998779297</ele>
        <time>2020-05-31T06:24:15.000Z</time>
      </trkpt>
      <trkpt lat="47.87812" lon="7.18393">
        <ele>469.20001220703</ele>
        <time>2020-05-31T06:24:16.000Z</time>
      </trkpt>
      <trkpt lat="47.87812" lon="7.18391">
        <ele>469.60000610352</ele>
        <time>2020-05-31T06:24:17.000Z</time>
      </trkpt>
      <trkpt lat="47.87814" lon="7.18383">
        <ele>469.60000610352</ele>
        <time>2020-05-31T06:24:20.000Z</time>
      </trkpt>
      <trkpt lat="47.87818" lon="7.18367">
        <ele>470</ele>
        <time>2020-05-31T06:24:26.000Z</time>
      </trkpt>
      <trkpt lat="47.87819" lon="7.18364">
        <ele>470.39999389648</ele>
        <time>2020-05-31T06:24:27.000Z</time>
      </trkpt>
      <trkpt lat="47.87819" lon="7.18361">
        <ele>470.79998779297</ele>
        <time>2020-05-31T06:24:28.000Z</time>
      </trkpt>
      <trkpt lat="47.87819" lon="7.18358">
        <ele>471.20001220703</ele>
        <time>2020-05-31T06:24:29.000Z</time>
      </trkpt>
      <trkpt lat="47.8782" lon="7.18356">
        <ele>471.60000610352</ele>
        <time>2020-05-31T06:24:30.000Z</time>
      </trkpt>
      <trkpt lat="47.8782" lon="7.18339">
        <ele>471.60000610352</ele>
        <time>2020-05-31T06:24:36.000Z</time>
      </trkpt>
      <trkpt lat="47.87821" lon="7.18333">
        <ele>472</ele>
        <time>2020-05-31T06:24:39.000Z</time>
      </trkpt>
      <trkpt lat="47.8782" lon="7.1833">
        <ele>472.39999389648</ele>
        <time>2020-05-31T06:24:40.000Z</time>
      </trkpt>
      <trkpt lat="47.87821" lon="7.18326">
        <ele>472.79998779297</ele>
        <time>2020-05-31T06:24:41.000Z</time>
      </trkpt>
      <trkpt lat="47.8782" lon="7.18323">
        <ele>473.79998779297</ele>
        <time>2020-05-31T06:24:42.000Z</time>
      </trkpt>
      <trkpt lat="47.87818" lon="7.18302">
        <ele>473.79998779297</ele>
        <time>2020-05-31T06:24:48.000Z</time>
      </trkpt>
      <trkpt lat="47.87817" lon="7.18285">
        <ele>473.79998779297</ele>
        <time>2020-05-31T06:24:53.000Z</time>
      </trkpt>
      <trkpt lat="47.87816" lon="7.18274">
        <ele>473.79998779297</ele>
        <time>2020-05-31T06:24:56.000Z</time>
      </trkpt>
      <trkpt lat="47.87811" lon="7.18252">
        <ele>473.79998779297</ele>
        <time>2020-05-31T06:25:03.000Z</time>
      </trkpt>
      <trkpt lat="47.87811" lon="7.18246">
        <ele>474.20001220703</ele>
        <time>2020-05-31T06:25:05.000Z</time>
      </trkpt>
      <trkpt lat="47.8781" lon="7.18243">
        <ele>475</ele>
        <time>2020-05-31T06:25:06.000Z</time>
      </trkpt>
      <trkpt lat="47.8781" lon="7.18241">
        <ele>475.60000610352</ele>
        <time>2020-05-31T06:25:07.000Z</time>
      </trkpt>
      <trkpt lat="47.8781" lon="7.18238">
        <ele>476</ele>
        <time>2020-05-31T06:25:08.000Z</time>
      </trkpt>
      <trkpt lat="47.8781" lon="7.18233">
        <ele>476</ele>
        <time>2020-05-31T06:25:10.000Z</time>
      </trkpt>
      <trkpt lat="47.87808" lon="7.18216">
        <ele>476.39999389648</ele>
        <time>2020-05-31T06:25:16.000Z</time>
      </trkpt>
      <trkpt lat="47.87808" lon="7.18213">
        <ele>476.79998779297</ele>
        <time>2020-05-31T06:25:17.000Z</time>
      </trkpt>
      <trkpt lat="47.87808" lon="7.1821">
        <ele>477.20001220703</ele>
        <time>2020-05-31T06:25:18.000Z</time>
      </trkpt>
      <trkpt lat="47.87807" lon="7.18207">
        <ele>477.60000610352</ele>
        <time>2020-05-31T06:25:19.000Z</time>
      </trkpt>
      <trkpt lat="47.87807" lon="7.18204">
        <ele>478.20001220703</ele>
        <time>2020-05-31T06:25:20.000Z</time>
      </trkpt>
      <trkpt lat="47.87808" lon="7.18185">
        <ele>478.20001220703</ele>
        <time>2020-05-31T06:25:25.000Z</time>
      </trkpt>
      <trkpt lat="47.87811" lon="7.18163">
        <ele>478.20001220703</ele>
        <time>2020-05-31T06:25:31.000Z</time>
      </trkpt>
      <trkpt lat="47.87819" lon="7.18145">
        <ele>478.20001220703</ele>
        <time>2020-05-31T06:25:37.000Z</time>
      </trkpt>
      <trkpt lat="47.87824" lon="7.18126">
        <ele>478.20001220703</ele>
        <time>2020-05-31T06:25:43.000Z</time>
      </trkpt>
      <trkpt lat="47.87825" lon="7.18123">
        <ele>478.60000610352</ele>
        <time>2020-05-31T06:25:44.000Z</time>
      </trkpt>
      <trkpt lat="47.87825" lon="7.1812">
        <ele>479</ele>
        <time>2020-05-31T06:25:45.000Z</time>
      </trkpt>
      <trkpt lat="47.87826" lon="7.18117">
        <ele>479.39999389648</ele>
        <time>2020-05-31T06:25:46.000Z</time>
      </trkpt>
      <trkpt lat="47.87827" lon="7.18114">
        <ele>479.79998779297</ele>
        <time>2020-05-31T06:25:47.000Z</time>
      </trkpt>
      <trkpt lat="47.87828" lon="7.18111">
        <ele>480.20001220703</ele>
        <time>2020-05-31T06:25:48.000Z</time>
      </trkpt>
      <trkpt lat="47.87829" lon="7.18106">
        <ele>480.20001220703</ele>
        <time>2020-05-31T06:25:50.000Z</time>
      </trkpt>
      <trkpt lat="47.87834" lon="7.18087">
        <ele>481.20001220703</ele>
        <time>2020-05-31T06:25:56.000Z</time>
      </trkpt>
      <trkpt lat="47.87835" lon="7.18085">
        <ele>481.60000610352</ele>
        <time>2020-05-31T06:25:57.000Z</time>
      </trkpt>
      <trkpt lat="47.87835" lon="7.18082">
        <ele>482</ele>
        <time>2020-05-31T06:25:58.000Z</time>
      </trkpt>
      <trkpt lat="47.87836" lon="7.1808">
        <ele>482.39999389648</ele>
        <time>2020-05-31T06:25:59.000Z</time>
      </trkpt>
      <trkpt lat="47.87841" lon="7.18067">
        <ele>482.79998779297</ele>
        <time>2020-05-31T06:26:04.000Z</time>
      </trkpt>
      <trkpt lat="47.87842" lon="7.18064">
        <ele>483.20001220703</ele>
        <time>2020-05-31T06:26:05.000Z</time>
      </trkpt>
      <trkpt lat="47.87842" lon="7.18061">
        <ele>483.60000610352</ele>
        <time>2020-05-31T06:26:06.000Z</time>
      </trkpt>
      <trkpt lat="47.87843" lon="7.18058">
        <ele>484</ele>
        <time>2020-05-31T06:26:07.000Z</time>
      </trkpt>
      <trkpt lat="47.87844" lon="7.18055">
        <ele>484.39999389648</ele>
        <time>2020-05-31T06:26:08.000Z</time>
      </trkpt>
      <trkpt lat="47.87845" lon="7.18044">
        <ele>484.39999389648</ele>
        <time>2020-05-31T06:26:11.000Z</time>
      </trkpt>
      <trkpt lat="47.87846" lon="7.18041">
        <ele>484.79998779297</ele>
        <time>2020-05-31T06:26:12.000Z</time>
      </trkpt>
      <trkpt lat="47.87847" lon="7.18036">
        <ele>485.39999389648</ele>
        <time>2020-05-31T06:26:13.000Z</time>
      </trkpt>
      <trkpt lat="47.87848" lon="7.18032">
        <ele>485.79998779297</ele>
        <time>2020-05-31T06:26:14.000Z</time>
      </trkpt>
      <trkpt lat="47.87849" lon="7.18029">
        <ele>486.20001220703</ele>
        <time>2020-05-31T06:26:15.000Z</time>
      </trkpt>
      <trkpt lat="47.87849" lon="7.18023">
        <ele>486.60000610352</ele>
        <time>2020-05-31T06:26:16.000Z</time>
      </trkpt>
      <trkpt lat="47.87848" lon="7.18015">
        <ele>486.60000610352</ele>
        <time>2020-05-31T06:26:18.000Z</time>
      </trkpt>
      <trkpt lat="47.87848" lon="7.18011">
        <ele>487.20001220703</ele>
        <time>2020-05-31T06:26:19.000Z</time>
      </trkpt>
      <trkpt lat="47.87848" lon="7.18008">
        <ele>488</ele>
        <time>2020-05-31T06:26:20.000Z</time>
      </trkpt>
      <trkpt lat="47.87848" lon="7.18006">
        <ele>488.39999389648</ele>
        <time>2020-05-31T06:26:21.000Z</time>
      </trkpt>
      <trkpt lat="47.87848" lon="7.18003">
        <ele>488.79998779297</ele>
        <time>2020-05-31T06:26:22.000Z</time>
      </trkpt>
      <trkpt lat="47.87848" lon="7.18">
        <ele>488.79998779297</ele>
        <time>2020-05-31T06:26:23.000Z</time>
      </trkpt>
      <trkpt lat="47.87848" lon="7.17993">
        <ele>489.20001220703</ele>
        <time>2020-05-31T06:26:26.000Z</time>
      </trkpt>
      <trkpt lat="47.87848" lon="7.1799">
        <ele>489.79998779297</ele>
        <time>2020-05-31T06:26:27.000Z</time>
      </trkpt>
      <trkpt lat="47.87848" lon="7.17987">
        <ele>490.20001220703</ele>
        <time>2020-05-31T06:26:28.000Z</time>
      </trkpt>
      <trkpt lat="47.87848" lon="7.17985">
        <ele>490.60000610352</ele>
        <time>2020-05-31T06:26:29.000Z</time>
      </trkpt>
      <trkpt lat="47.87847" lon="7.17982">
        <ele>491</ele>
        <time>2020-05-31T06:26:30.000Z</time>
      </trkpt>
      <trkpt lat="47.87847" lon="7.1797">
        <ele>491.39999389648</ele>
        <time>2020-05-31T06:26:35.000Z</time>
      </trkpt>
      <trkpt lat="47.87847" lon="7.17968">
        <ele>491.79998779297</ele>
        <time>2020-05-31T06:26:36.000Z</time>
      </trkpt>
      <trkpt lat="47.87847" lon="7.17966">
        <ele>492.20001220703</ele>
        <time>2020-05-31T06:26:37.000Z</time>
      </trkpt>
      <trkpt lat="47.87847" lon="7.17965">
        <ele>492.60000610352</ele>
        <time>2020-05-31T06:26:38.000Z</time>
      </trkpt>
      <trkpt lat="47.87847" lon="7.17962">
        <ele>493</ele>
        <time>2020-05-31T06:26:39.000Z</time>
      </trkpt>
      <trkpt lat="47.87848" lon="7.17954">
        <ele>493</ele>
        <time>2020-05-31T06:26:42.000Z</time>
      </trkpt>
      <trkpt lat="47.87848" lon="7.17939">
        <ele>493.39999389648</ele>
        <time>2020-05-31T06:26:48.000Z</time>
      </trkpt>
      <trkpt lat="47.87848" lon="7.17937">
        <ele>493.79998779297</ele>
        <time>2020-05-31T06:26:49.000Z</time>
      </trkpt>
      <trkpt lat="47.87848" lon="7.17935">
        <ele>494.20001220703</ele>
        <time>2020-05-31T06:26:50.000Z</time>
      </trkpt>
      <trkpt lat="47.87849" lon="7.17932">
        <ele>494.60000610352</ele>
        <time>2020-05-31T06:26:51.000Z</time>
      </trkpt>
      <trkpt lat="47.87849" lon="7.17929">
        <ele>495</ele>
        <time>2020-05-31T06:26:52.000Z</time>
      </trkpt>
      <trkpt lat="47.87849" lon="7.17919">
        <ele>495</ele>
        <time>2020-05-31T06:26:55.000Z</time>
      </trkpt>
      <trkpt lat="47.87849" lon="7.17902">
        <ele>495.39999389648</ele>
        <time>2020-05-31T06:27:01.000Z</time>
      </trkpt>
      <trkpt lat="47.87849" lon="7.17901">
        <ele>495.79998779297</ele>
        <time>2020-05-31T06:27:02.000Z</time>
      </trkpt>
      <trkpt lat="47.8785" lon="7.17899">
        <ele>496.39999389648</ele>
        <time>2020-05-31T06:27:03.000Z</time>
      </trkpt>
      <trkpt lat="47.8785" lon="7.17897">
        <ele>496.79998779297</ele>
        <time>2020-05-31T06:27:04.000Z</time>
      </trkpt>
      <trkpt lat="47.8785" lon="7.17895">
        <ele>497.20001220703</ele>
        <time>2020-05-31T06:27:05.000Z</time>
      </trkpt>
      <trkpt lat="47.8785" lon="7.17887">
        <ele>497.20001220703</ele>
        <time>2020-05-31T06:27:09.000Z</time>
      </trkpt>
      <trkpt lat="47.8785" lon="7.17885">
        <ele>498</ele>
        <time>2020-05-31T06:27:10.000Z</time>
      </trkpt>
      <trkpt lat="47.8785" lon="7.17884">
        <ele>498.39999389648</ele>
        <time>2020-05-31T06:27:11.000Z</time>
      </trkpt>
      <trkpt lat="47.8785" lon="7.17882">
        <ele>498.79998779297</ele>
        <time>2020-05-31T06:27:12.000Z</time>
      </trkpt>
      <trkpt lat="47.8785" lon="7.1788">
        <ele>499.39999389648</ele>
        <time>2020-05-31T06:27:13.000Z</time>
      </trkpt>
      <trkpt lat="47.8785" lon="7.17872">
        <ele>499.39999389648</ele>
        <time>2020-05-31T06:27:16.000Z</time>
      </trkpt>
      <trkpt lat="47.8785" lon="7.17859">
        <ele>499.79998779297</ele>
        <time>2020-05-31T06:27:21.000Z</time>
      </trkpt>
      <trkpt lat="47.8785" lon="7.17856">
        <ele>500.20001220703</ele>
        <time>2020-05-31T06:27:22.000Z</time>
      </trkpt>
      <trkpt lat="47.8785" lon="7.17854">
        <ele>500.60000610352</ele>
        <time>2020-05-31T06:27:23.000Z</time>
      </trkpt>
      <trkpt lat="47.87849" lon="7.1785">
        <ele>501</ele>
        <time>2020-05-31T06:27:24.000Z</time>
      </trkpt>
      <trkpt lat="47.87849" lon="7.17847">
        <ele>501.39999389648</ele>
        <time>2020-05-31T06:27:25.000Z</time>
      </trkpt>
      <trkpt lat="47.87849" lon="7.17835">
        <ele>501.39999389648</ele>
        <time>2020-05-31T06:27:29.000Z</time>
      </trkpt>
      <trkpt lat="47.87849" lon="7.17833">
        <ele>501.79998779297</ele>
        <time>2020-05-31T06:27:30.000Z</time>
      </trkpt>
      <trkpt lat="47.87848" lon="7.17832">
        <ele>502.20001220703</ele>
        <time>2020-05-31T06:27:31.000Z</time>
      </trkpt>
      <trkpt lat="47.87848" lon="7.1783">
        <ele>502.79998779297</ele>
        <time>2020-05-31T06:27:32.000Z</time>
      </trkpt>
      <trkpt lat="47.87848" lon="7.17828">
        <ele>503.20001220703</ele>
        <time>2020-05-31T06:27:33.000Z</time>
      </trkpt>
      <trkpt lat="47.87848" lon="7.17825">
        <ele>503.60000610352</ele>
        <time>2020-05-31T06:27:34.000Z</time>
      </trkpt>
      <trkpt lat="47.87848" lon="7.17823">
        <ele>503.60000610352</ele>
        <time>2020-05-31T06:27:35.000Z</time>
      </trkpt>
      <trkpt lat="47.87846" lon="7.17816">
        <ele>503.60000610352</ele>
        <time>2020-05-31T06:27:37.000Z</time>
      </trkpt>
      <trkpt lat="47.87845" lon="7.1781">
        <ele>504</ele>
        <time>2020-05-31T06:27:39.000Z</time>
      </trkpt>
      <trkpt lat="47.87844" lon="7.17806">
        <ele>504.39999389648</ele>
        <time>2020-05-31T06:27:40.000Z</time>
      </trkpt>
      <trkpt lat="47.87843" lon="7.17803">
        <ele>504.79998779297</ele>
        <time>2020-05-31T06:27:41.000Z</time>
      </trkpt>
      <trkpt lat="47.87843" lon="7.178">
        <ele>505.20001220703</ele>
        <time>2020-05-31T06:27:42.000Z</time>
      </trkpt>
      <trkpt lat="47.87843" lon="7.17798">
        <ele>505.79998779297</ele>
        <time>2020-05-31T06:27:43.000Z</time>
      </trkpt>
      <trkpt lat="47.87843" lon="7.17789">
        <ele>505.79998779297</ele>
        <time>2020-05-31T06:27:47.000Z</time>
      </trkpt>
      <trkpt lat="47.87843" lon="7.17785">
        <ele>506.20001220703</ele>
        <time>2020-05-31T06:27:49.000Z</time>
      </trkpt>
      <trkpt lat="47.87843" lon="7.17782">
        <ele>506.60000610352</ele>
        <time>2020-05-31T06:27:50.000Z</time>
      </trkpt>
      <trkpt lat="47.87843" lon="7.17781">
        <ele>507</ele>
        <time>2020-05-31T06:27:51.000Z</time>
      </trkpt>
      <trkpt lat="47.87843" lon="7.17779">
        <ele>507.39999389648</ele>
        <time>2020-05-31T06:27:52.000Z</time>
      </trkpt>
      <trkpt lat="47.87843" lon="7.17777">
        <ele>508</ele>
        <time>2020-05-31T06:27:53.000Z</time>
      </trkpt>
      <trkpt lat="47.87843" lon="7.17775">
        <ele>508</ele>
        <time>2020-05-31T06:27:54.000Z</time>
      </trkpt>
      <trkpt lat="47.87845" lon="7.17768">
        <ele>508.39999389648</ele>
        <time>2020-05-31T06:27:57.000Z</time>
      </trkpt>
      <trkpt lat="47.87846" lon="7.17766">
        <ele>508.79998779297</ele>
        <time>2020-05-31T06:27:58.000Z</time>
      </trkpt>
      <trkpt lat="47.87846" lon="7.17763">
        <ele>509.60000610352</ele>
        <time>2020-05-31T06:27:59.000Z</time>
      </trkpt>
      <trkpt lat="47.87847" lon="7.17762">
        <ele>510</ele>
        <time>2020-05-31T06:28:00.000Z</time>
      </trkpt>
      <trkpt lat="47.87847" lon="7.1776">
        <ele>510</ele>
        <time>2020-05-31T06:28:01.000Z</time>
      </trkpt>
      <trkpt lat="47.87847" lon="7.17756">
        <ele>510.39999389648</ele>
        <time>2020-05-31T06:28:04.000Z</time>
      </trkpt>
      <trkpt lat="47.87847" lon="7.17754">
        <ele>511</ele>
        <time>2020-05-31T06:28:05.000Z</time>
      </trkpt>
      <trkpt lat="47.87848" lon="7.17753">
        <ele>511.39999389648</ele>
        <time>2020-05-31T06:28:06.000Z</time>
      </trkpt>
      <trkpt lat="47.87848" lon="7.17751">
        <ele>511.79998779297</ele>
        <time>2020-05-31T06:28:07.000Z</time>
      </trkpt>
      <trkpt lat="47.87848" lon="7.1775">
        <ele>512.20001220703</ele>
        <time>2020-05-31T06:28:08.000Z</time>
      </trkpt>
      <trkpt lat="47.87848" lon="7.17744">
        <ele>512.59997558594</ele>
        <time>2020-05-31T06:28:12.000Z</time>
      </trkpt>
      <trkpt lat="47.87848" lon="7.17742">
        <ele>513</ele>
        <time>2020-05-31T06:28:13.000Z</time>
      </trkpt>
      <trkpt lat="47.87848" lon="7.1774">
        <ele>513.59997558594</ele>
        <time>2020-05-31T06:28:14.000Z</time>
      </trkpt>
      <trkpt lat="47.87848" lon="7.17737">
        <ele>514</ele>
        <time>2020-05-31T06:28:15.000Z</time>
      </trkpt>
      <trkpt lat="47.87848" lon="7.17735">
        <ele>514.40002441406</ele>
        <time>2020-05-31T06:28:16.000Z</time>
      </trkpt>
      <trkpt lat="47.87848" lon="7.17724">
        <ele>514.79998779297</ele>
        <time>2020-05-31T06:28:20.000Z</time>
      </trkpt>
      <trkpt lat="47.87848" lon="7.17721">
        <ele>515.20001220703</ele>
        <time>2020-05-31T06:28:21.000Z</time>
      </trkpt>
      <trkpt lat="47.87848" lon="7.17719">
        <ele>515.59997558594</ele>
        <time>2020-05-31T06:28:22.000Z</time>
      </trkpt>
      <trkpt lat="47.87847" lon="7.17718">
        <ele>516</ele>
        <time>2020-05-31T06:28:23.000Z</time>
      </trkpt>
      <trkpt lat="47.87847" lon="7.17716">
        <ele>516.59997558594</ele>
        <time>2020-05-31T06:28:24.000Z</time>
      </trkpt>
      <trkpt lat="47.87847" lon="7.17709">
        <ele>517</ele>
        <time>2020-05-31T06:28:28.000Z</time>
      </trkpt>
      <trkpt lat="47.87847" lon="7.17707">
        <ele>517.40002441406</ele>
        <time>2020-05-31T06:28:29.000Z</time>
      </trkpt>
      <trkpt lat="47.87847" lon="7.17706">
        <ele>517.79998779297</ele>
        <time>2020-05-31T06:28:30.000Z</time>
      </trkpt>
      <trkpt lat="47.87847" lon="7.17704">
        <ele>518.20001220703</ele>
        <time>2020-05-31T06:28:31.000Z</time>
      </trkpt>
      <trkpt lat="47.87847" lon="7.17701">
        <ele>518.59997558594</ele>
        <time>2020-05-31T06:28:32.000Z</time>
      </trkpt>
      <trkpt lat="47.87846" lon="7.17694">
        <ele>518.59997558594</ele>
        <time>2020-05-31T06:28:35.000Z</time>
      </trkpt>
      <trkpt lat="47.87846" lon="7.17688">
        <ele>519</ele>
        <time>2020-05-31T06:28:37.000Z</time>
      </trkpt>
      <trkpt lat="47.87846" lon="7.17686">
        <ele>519.40002441406</ele>
        <time>2020-05-31T06:28:38.000Z</time>
      </trkpt>
      <trkpt lat="47.87846" lon="7.17684">
        <ele>519.79998779297</ele>
        <time>2020-05-31T06:28:39.000Z</time>
      </trkpt>
      <trkpt lat="47.87846" lon="7.17683">
        <ele>520.40002441406</ele>
        <time>2020-05-31T06:28:40.000Z</time>
      </trkpt>
      <trkpt lat="47.87846" lon="7.17681">
        <ele>520.79998779297</ele>
        <time>2020-05-31T06:28:41.000Z</time>
      </trkpt>
      <trkpt lat="47.87846" lon="7.17679">
        <ele>520.79998779297</ele>
        <time>2020-05-31T06:28:42.000Z</time>
      </trkpt>
      <trkpt lat="47.87846" lon="7.1767">
        <ele>521.20001220703</ele>
        <time>2020-05-31T06:28:46.000Z</time>
      </trkpt>
      <trkpt lat="47.87846" lon="7.17669">
        <ele>521.59997558594</ele>
        <time>2020-05-31T06:28:47.000Z</time>
      </trkpt>
      <trkpt lat="47.87845" lon="7.17667">
        <ele>522.40002441406</ele>
        <time>2020-05-31T06:28:48.000Z</time>
      </trkpt>
      <trkpt lat="47.87844" lon="7.17665">
        <ele>522.79998779297</ele>
        <time>2020-05-31T06:28:49.000Z</time>
      </trkpt>
      <trkpt lat="47.87844" lon="7.17663">
        <ele>522.79998779297</ele>
        <time>2020-05-31T06:28:50.000Z</time>
      </trkpt>
      <trkpt lat="47.87841" lon="7.17656">
        <ele>523.20001220703</ele>
        <time>2020-05-31T06:28:55.000Z</time>
      </trkpt>
      <trkpt lat="47.87841" lon="7.17653">
        <ele>523.59997558594</ele>
        <time>2020-05-31T06:28:56.000Z</time>
      </trkpt>
      <trkpt lat="47.87841" lon="7.17651">
        <ele>524</ele>
        <time>2020-05-31T06:28:57.000Z</time>
      </trkpt>
      <trkpt lat="47.87841" lon="7.17644">
        <ele>525</ele>
        <time>2020-05-31T06:29:00.000Z</time>
      </trkpt>
      <trkpt lat="47.87841" lon="7.17625">
        <ele>525</ele>
        <time>2020-05-31T06:29:07.000Z</time>
      </trkpt>
      <trkpt lat="47.8784" lon="7.1761">
        <ele>525.40002441406</ele>
        <time>2020-05-31T06:29:13.000Z</time>
      </trkpt>
      <trkpt lat="47.87839" lon="7.17607">
        <ele>525.79998779297</ele>
        <time>2020-05-31T06:29:14.000Z</time>
      </trkpt>
      <trkpt lat="47.87839" lon="7.17605">
        <ele>526.20001220703</ele>
        <time>2020-05-31T06:29:15.000Z</time>
      </trkpt>
      <trkpt lat="47.87839" lon="7.17604">
        <ele>526.59997558594</ele>
        <time>2020-05-31T06:29:16.000Z</time>
      </trkpt>
      <trkpt lat="47.87839" lon="7.17601">
        <ele>527.20001220703</ele>
        <time>2020-05-31T06:29:17.000Z</time>
      </trkpt>
      <trkpt lat="47.87838" lon="7.17595">
        <ele>527.20001220703</ele>
        <time>2020-05-31T06:29:20.000Z</time>
      </trkpt>
      <trkpt lat="47.87834" lon="7.17581">
        <ele>527.20001220703</ele>
        <time>2020-05-31T06:29:26.000Z</time>
      </trkpt>
      <trkpt lat="47.87826" lon="7.17557">
        <ele>527.20001220703</ele>
        <time>2020-05-31T06:29:33.000Z</time>
      </trkpt>
      <trkpt lat="47.87819" lon="7.1753">
        <ele>527.20001220703</ele>
        <time>2020-05-31T06:29:40.000Z</time>
      </trkpt>
      <trkpt lat="47.87817" lon="7.17515">
        <ele>527.20001220703</ele>
        <time>2020-05-31T06:29:46.000Z</time>
      </trkpt>
      <trkpt lat="47.87815" lon="7.17497">
        <ele>527.20001220703</ele>
        <time>2020-05-31T06:29:51.000Z</time>
      </trkpt>
      <trkpt lat="47.87812" lon="7.17478">
        <ele>527.20001220703</ele>
        <time>2020-05-31T06:29:57.000Z</time>
      </trkpt>
      <trkpt lat="47.87806" lon="7.17465">
        <ele>528</ele>
        <time>2020-05-31T06:30:02.000Z</time>
      </trkpt>
      <trkpt lat="47.87805" lon="7.17463">
        <ele>528.40002441406</ele>
        <time>2020-05-31T06:30:03.000Z</time>
      </trkpt>
      <trkpt lat="47.87804" lon="7.17459">
        <ele>528.79998779297</ele>
        <time>2020-05-31T06:30:04.000Z</time>
      </trkpt>
      <trkpt lat="47.87803" lon="7.17457">
        <ele>529.20001220703</ele>
        <time>2020-05-31T06:30:05.000Z</time>
      </trkpt>
      <trkpt lat="47.87795" lon="7.1744">
        <ele>529.20001220703</ele>
        <time>2020-05-31T06:30:11.000Z</time>
      </trkpt>
      <trkpt lat="47.87794" lon="7.17436">
        <ele>529.59997558594</ele>
        <time>2020-05-31T06:30:13.000Z</time>
      </trkpt>
      <trkpt lat="47.87793" lon="7.17434">
        <ele>530</ele>
        <time>2020-05-31T06:30:14.000Z</time>
      </trkpt>
      <trkpt lat="47.87793" lon="7.17432">
        <ele>530.40002441406</ele>
        <time>2020-05-31T06:30:15.000Z</time>
      </trkpt>
      <trkpt lat="47.87793" lon="7.17429">
        <ele>530.79998779297</ele>
        <time>2020-05-31T06:30:16.000Z</time>
      </trkpt>
      <trkpt lat="47.87794" lon="7.17427">
        <ele>531.20001220703</ele>
        <time>2020-05-31T06:30:17.000Z</time>
      </trkpt>
      <trkpt lat="47.87797" lon="7.17412">
        <ele>531.20001220703</ele>
        <time>2020-05-31T06:30:23.000Z</time>
      </trkpt>
      <trkpt lat="47.87798" lon="7.17406">
        <ele>531.59997558594</ele>
        <time>2020-05-31T06:30:25.000Z</time>
      </trkpt>
      <trkpt lat="47.87799" lon="7.17403">
        <ele>532</ele>
        <time>2020-05-31T06:30:26.000Z</time>
      </trkpt>
      <trkpt lat="47.87799" lon="7.174">
        <ele>532.79998779297</ele>
        <time>2020-05-31T06:30:27.000Z</time>
      </trkpt>
      <trkpt lat="47.878" lon="7.17397">
        <ele>533.20001220703</ele>
        <time>2020-05-31T06:30:28.000Z</time>
      </trkpt>
      <trkpt lat="47.87802" lon="7.17391">
        <ele>533.20001220703</ele>
        <time>2020-05-31T06:30:30.000Z</time>
      </trkpt>
      <trkpt lat="47.87804" lon="7.17385">
        <ele>533.79998779297</ele>
        <time>2020-05-31T06:30:33.000Z</time>
      </trkpt>
      <trkpt lat="47.87805" lon="7.17383">
        <ele>534.20001220703</ele>
        <time>2020-05-31T06:30:34.000Z</time>
      </trkpt>
      <trkpt lat="47.87805" lon="7.17381">
        <ele>534.59997558594</ele>
        <time>2020-05-31T06:30:35.000Z</time>
      </trkpt>
      <trkpt lat="47.87806" lon="7.17379">
        <ele>535</ele>
        <time>2020-05-31T06:30:36.000Z</time>
      </trkpt>
      <trkpt lat="47.87807" lon="7.17377">
        <ele>535.40002441406</ele>
        <time>2020-05-31T06:30:37.000Z</time>
      </trkpt>
      <trkpt lat="47.8781" lon="7.17369">
        <ele>535.79998779297</ele>
        <time>2020-05-31T06:30:40.000Z</time>
      </trkpt>
      <trkpt lat="47.87811" lon="7.17367">
        <ele>536.20001220703</ele>
        <time>2020-05-31T06:30:41.000Z</time>
      </trkpt>
      <trkpt lat="47.87812" lon="7.17365">
        <ele>536.79998779297</ele>
        <time>2020-05-31T06:30:42.000Z</time>
      </trkpt>
      <trkpt lat="47.87813" lon="7.17363">
        <ele>537.20001220703</ele>
        <time>2020-05-31T06:30:43.000Z</time>
      </trkpt>
      <trkpt lat="47.87815" lon="7.17361">
        <ele>537.59997558594</ele>
        <time>2020-05-31T06:30:44.000Z</time>
      </trkpt>
      <trkpt lat="47.87816" lon="7.17359">
        <ele>537.59997558594</ele>
        <time>2020-05-31T06:30:45.000Z</time>
      </trkpt>
      <trkpt lat="47.8782" lon="7.17352">
        <ele>538</ele>
        <time>2020-05-31T06:30:48.000Z</time>
      </trkpt>
      <trkpt lat="47.87821" lon="7.17349">
        <ele>538.40002441406</ele>
        <time>2020-05-31T06:30:49.000Z</time>
      </trkpt>
      <trkpt lat="47.87822" lon="7.17347">
        <ele>538.79998779297</ele>
        <time>2020-05-31T06:30:50.000Z</time>
      </trkpt>
      <trkpt lat="47.87823" lon="7.17346">
        <ele>539.20001220703</ele>
        <time>2020-05-31T06:30:51.000Z</time>
      </trkpt>
      <trkpt lat="47.87825" lon="7.17344">
        <ele>539.59997558594</ele>
        <time>2020-05-31T06:30:52.000Z</time>
      </trkpt>
      <trkpt lat="47.87826" lon="7.17342">
        <ele>539.59997558594</ele>
        <time>2020-05-31T06:30:53.000Z</time>
      </trkpt>
      <trkpt lat="47.87829" lon="7.17336">
        <ele>540</ele>
        <time>2020-05-31T06:30:56.000Z</time>
      </trkpt>
      <trkpt lat="47.8783" lon="7.17334">
        <ele>540.59997558594</ele>
        <time>2020-05-31T06:30:57.000Z</time>
      </trkpt>
      <trkpt lat="47.87831" lon="7.17332">
        <ele>541</ele>
        <time>2020-05-31T06:30:58.000Z</time>
      </trkpt>
      <trkpt lat="47.87832" lon="7.1733">
        <ele>541.40002441406</ele>
        <time>2020-05-31T06:30:59.000Z</time>
      </trkpt>
      <trkpt lat="47.87833" lon="7.17327">
        <ele>541.79998779297</ele>
        <time>2020-05-31T06:31:00.000Z</time>
      </trkpt>
      <trkpt lat="47.87835" lon="7.17318">
        <ele>541.79998779297</ele>
        <time>2020-05-31T06:31:03.000Z</time>
      </trkpt>
      <trkpt lat="47.87836" lon="7.17313">
        <ele>542.20001220703</ele>
        <time>2020-05-31T06:31:05.000Z</time>
      </trkpt>
      <trkpt lat="47.87837" lon="7.17309">
        <ele>542.59997558594</ele>
        <time>2020-05-31T06:31:06.000Z</time>
      </trkpt>
      <trkpt lat="47.87837" lon="7.17305">
        <ele>543</ele>
        <time>2020-05-31T06:31:07.000Z</time>
      </trkpt>
      <trkpt lat="47.87837" lon="7.17302">
        <ele>543.59997558594</ele>
        <time>2020-05-31T06:31:08.000Z</time>
      </trkpt>
      <trkpt lat="47.87837" lon="7.17299">
        <ele>544</ele>
        <time>2020-05-31T06:31:09.000Z</time>
      </trkpt>
      <trkpt lat="47.87837" lon="7.17289">
        <ele>544.40002441406</ele>
        <time>2020-05-31T06:31:13.000Z</time>
      </trkpt>
      <trkpt lat="47.87837" lon="7.17288">
        <ele>544.79998779297</ele>
        <time>2020-05-31T06:31:14.000Z</time>
      </trkpt>
      <trkpt lat="47.87837" lon="7.17287">
        <ele>545.20001220703</ele>
        <time>2020-05-31T06:31:15.000Z</time>
      </trkpt>
      <trkpt lat="47.87837" lon="7.17285">
        <ele>546.20001220703</ele>
        <time>2020-05-31T06:34:06.000Z</time>
      </trkpt>
      <trkpt lat="47.87836" lon="7.17271">
        <ele>546.20001220703</ele>
        <time>2020-05-31T06:34:12.000Z</time>
      </trkpt>
      <trkpt lat="47.87836" lon="7.17269">
        <ele>546.20001220703</ele>
        <time>2020-05-31T06:34:13.000Z</time>
      </trkpt>
      <trkpt lat="47.87836" lon="7.17267">
        <ele>546.79998779297</ele>
        <time>2020-05-31T06:34:14.000Z</time>
      </trkpt>
      <trkpt lat="47.87836" lon="7.17265">
        <ele>547.20001220703</ele>
        <time>2020-05-31T06:34:15.000Z</time>
      </trkpt>
      <trkpt lat="47.87835" lon="7.17264">
        <ele>547.59997558594</ele>
        <time>2020-05-31T06:34:16.000Z</time>
      </trkpt>
      <trkpt lat="47.87835" lon="7.17262">
        <ele>548</ele>
        <time>2020-05-31T06:34:17.000Z</time>
      </trkpt>
      <trkpt lat="47.87835" lon="7.1726">
        <ele>548.59997558594</ele>
        <time>2020-05-31T06:34:18.000Z</time>
      </trkpt>
      <trkpt lat="47.87834" lon="7.17248">
        <ele>549</ele>
        <time>2020-05-31T06:34:23.000Z</time>
      </trkpt>
      <trkpt lat="47.87833" lon="7.17245">
        <ele>549.40002441406</ele>
        <time>2020-05-31T06:34:24.000Z</time>
      </trkpt>
      <trkpt lat="47.87833" lon="7.17242">
        <ele>549.79998779297</ele>
        <time>2020-05-31T06:34:25.000Z</time>
      </trkpt>
      <trkpt lat="47.87833" lon="7.1724">
        <ele>550.20001220703</ele>
        <time>2020-05-31T06:34:26.000Z</time>
      </trkpt>
      <trkpt lat="47.87833" lon="7.17238">
        <ele>550.59997558594</ele>
        <time>2020-05-31T06:34:27.000Z</time>
      </trkpt>
      <trkpt lat="47.87834" lon="7.17231">
        <ele>550.59997558594</ele>
        <time>2020-05-31T06:34:31.000Z</time>
      </trkpt>
      <trkpt lat="47.87835" lon="7.17229">
        <ele>551.20001220703</ele>
        <time>2020-05-31T06:34:32.000Z</time>
      </trkpt>
      <trkpt lat="47.87836" lon="7.17227">
        <ele>551.59997558594</ele>
        <time>2020-05-31T06:34:33.000Z</time>
      </trkpt>
      <trkpt lat="47.87836" lon="7.17225">
        <ele>552</ele>
        <time>2020-05-31T06:34:34.000Z</time>
      </trkpt>
      <trkpt lat="47.87837" lon="7.17222">
        <ele>552.79998779297</ele>
        <time>2020-05-31T06:34:35.000Z</time>
      </trkpt>
      <trkpt lat="47.87839" lon="7.17214">
        <ele>552.79998779297</ele>
        <time>2020-05-31T06:34:38.000Z</time>
      </trkpt>
      <trkpt lat="47.87841" lon="7.17208">
        <ele>553.20001220703</ele>
        <time>2020-05-31T06:34:40.000Z</time>
      </trkpt>
      <trkpt lat="47.87842" lon="7.17206">
        <ele>553.59997558594</ele>
        <time>2020-05-31T06:34:41.000Z</time>
      </trkpt>
      <trkpt lat="47.87842" lon="7.17202">
        <ele>554</ele>
        <time>2020-05-31T06:34:42.000Z</time>
      </trkpt>
      <trkpt lat="47.87842" lon="7.17198">
        <ele>554.40002441406</ele>
        <time>2020-05-31T06:34:43.000Z</time>
      </trkpt>
      <trkpt lat="47.87842" lon="7.17196">
        <ele>555</ele>
        <time>2020-05-31T06:34:44.000Z</time>
      </trkpt>
      <trkpt lat="47.87843" lon="7.17182">
        <ele>555</ele>
        <time>2020-05-31T06:34:49.000Z</time>
      </trkpt>
      <trkpt lat="47.87842" lon="7.17179">
        <ele>555.40002441406</ele>
        <time>2020-05-31T06:34:50.000Z</time>
      </trkpt>
      <trkpt lat="47.87842" lon="7.17176">
        <ele>555.79998779297</ele>
        <time>2020-05-31T06:34:51.000Z</time>
      </trkpt>
      <trkpt lat="47.87842" lon="7.17173">
        <ele>556.20001220703</ele>
        <time>2020-05-31T06:34:52.000Z</time>
      </trkpt>
      <trkpt lat="47.87841" lon="7.1717">
        <ele>556.59997558594</ele>
        <time>2020-05-31T06:34:53.000Z</time>
      </trkpt>
      <trkpt lat="47.87841" lon="7.17166">
        <ele>557</ele>
        <time>2020-05-31T06:34:54.000Z</time>
      </trkpt>
      <trkpt lat="47.87841" lon="7.17164">
        <ele>557</ele>
        <time>2020-05-31T06:34:55.000Z</time>
      </trkpt>
      <trkpt lat="47.8784" lon="7.17153">
        <ele>557.40002441406</ele>
        <time>2020-05-31T06:34:59.000Z</time>
      </trkpt>
      <trkpt lat="47.87839" lon="7.1715">
        <ele>558.20001220703</ele>
        <time>2020-05-31T06:35:00.000Z</time>
      </trkpt>
      <trkpt lat="47.87839" lon="7.17148">
        <ele>558.59997558594</ele>
        <time>2020-05-31T06:35:01.000Z</time>
      </trkpt>
      <trkpt lat="47.87838" lon="7.17145">
        <ele>559</ele>
        <time>2020-05-31T06:35:02.000Z</time>
      </trkpt>
      <trkpt lat="47.87838" lon="7.17142">
        <ele>559</ele>
        <time>2020-05-31T06:35:03.000Z</time>
      </trkpt>
      <trkpt lat="47.87835" lon="7.17131">
        <ele>559.40002441406</ele>
        <time>2020-05-31T06:35:07.000Z</time>
      </trkpt>
      <trkpt lat="47.87835" lon="7.17128">
        <ele>560</ele>
        <time>2020-05-31T06:35:08.000Z</time>
      </trkpt>
      <trkpt lat="47.87834" lon="7.17125">
        <ele>560.40002441406</ele>
        <time>2020-05-31T06:35:09.000Z</time>
      </trkpt>
      <trkpt lat="47.87834" lon="7.17122">
        <ele>560.79998779297</ele>
        <time>2020-05-31T06:35:10.000Z</time>
      </trkpt>
      <trkpt lat="47.87834" lon="7.17119">
        <ele>561.20001220703</ele>
        <time>2020-05-31T06:35:11.000Z</time>
      </trkpt>
      <trkpt lat="47.87832" lon="7.17106">
        <ele>561.59997558594</ele>
        <time>2020-05-31T06:35:15.000Z</time>
      </trkpt>
      <trkpt lat="47.87831" lon="7.17103">
        <ele>562.20001220703</ele>
        <time>2020-05-31T06:35:16.000Z</time>
      </trkpt>
      <trkpt lat="47.8783" lon="7.171">
        <ele>562.59997558594</ele>
        <time>2020-05-31T06:35:17.000Z</time>
      </trkpt>
      <trkpt lat="47.87829" lon="7.17097">
        <ele>563</ele>
        <time>2020-05-31T06:35:18.000Z</time>
      </trkpt>
      <trkpt lat="47.87829" lon="7.17094">
        <ele>563.40002441406</ele>
        <time>2020-05-31T06:35:19.000Z</time>
      </trkpt>
      <trkpt lat="47.87828" lon="7.17082">
        <ele>563.40002441406</ele>
        <time>2020-05-31T06:35:23.000Z</time>
      </trkpt>
      <trkpt lat="47.87827" lon="7.1708">
        <ele>563.79998779297</ele>
        <time>2020-05-31T06:35:24.000Z</time>
      </trkpt>
      <trkpt lat="47.87827" lon="7.17077">
        <ele>564.79998779297</ele>
        <time>2020-05-31T06:35:25.000Z</time>
      </trkpt>
      <trkpt lat="47.87827" lon="7.17074">
        <ele>565.20001220703</ele>
        <time>2020-05-31T06:35:26.000Z</time>
      </trkpt>
      <trkpt lat="47.87826" lon="7.17072">
        <ele>565.59997558594</ele>
        <time>2020-05-31T06:35:27.000Z</time>
      </trkpt>
      <trkpt lat="47.87823" lon="7.17061">
        <ele>565.59997558594</ele>
        <time>2020-05-31T06:35:31.000Z</time>
      </trkpt>
      <trkpt lat="47.87821" lon="7.17055">
        <ele>566</ele>
        <time>2020-05-31T06:35:33.000Z</time>
      </trkpt>
      <trkpt lat="47.8782" lon="7.17053">
        <ele>566.40002441406</ele>
        <time>2020-05-31T06:35:34.000Z</time>
      </trkpt>
      <trkpt lat="47.87819" lon="7.17051">
        <ele>566.79998779297</ele>
        <time>2020-05-31T06:35:35.000Z</time>
      </trkpt>
      <trkpt lat="47.87818" lon="7.17049">
        <ele>567.20001220703</ele>
        <time>2020-05-31T06:35:36.000Z</time>
      </trkpt>
      <trkpt lat="47.87817" lon="7.17047">
        <ele>567.59997558594</ele>
        <time>2020-05-31T06:35:37.000Z</time>
      </trkpt>
      <trkpt lat="47.87813" lon="7.17039">
        <ele>568.20001220703</ele>
        <time>2020-05-31T06:35:41.000Z</time>
      </trkpt>
      <trkpt lat="47.87812" lon="7.17037">
        <ele>568.59997558594</ele>
        <time>2020-05-31T06:35:42.000Z</time>
      </trkpt>
      <trkpt lat="47.87811" lon="7.17035">
        <ele>569</ele>
        <time>2020-05-31T06:35:43.000Z</time>
      </trkpt>
      <trkpt lat="47.87809" lon="7.17034">
        <ele>569.40002441406</ele>
        <time>2020-05-31T06:35:44.000Z</time>
      </trkpt>
      <trkpt lat="47.87808" lon="7.17033">
        <ele>569.79998779297</ele>
        <time>2020-05-31T06:35:45.000Z</time>
      </trkpt>
      <trkpt lat="47.87802" lon="7.17025">
        <ele>570.20001220703</ele>
        <time>2020-05-31T06:35:49.000Z</time>
      </trkpt>
      <trkpt lat="47.87801" lon="7.17024">
        <ele>570.59997558594</ele>
        <time>2020-05-31T06:35:50.000Z</time>
      </trkpt>
      <trkpt lat="47.87799" lon="7.17022">
        <ele>571.20001220703</ele>
        <time>2020-05-31T06:35:51.000Z</time>
      </trkpt>
      <trkpt lat="47.87798" lon="7.1702">
        <ele>571.59997558594</ele>
        <time>2020-05-31T06:35:52.000Z</time>
      </trkpt>
      <trkpt lat="47.87796" lon="7.17018">
        <ele>572</ele>
        <time>2020-05-31T06:35:53.000Z</time>
      </trkpt>
      <trkpt lat="47.87786" lon="7.17009">
        <ele>572.40002441406</ele>
        <time>2020-05-31T06:35:58.000Z</time>
      </trkpt>
      <trkpt lat="47.87785" lon="7.17008">
        <ele>572.79998779297</ele>
        <time>2020-05-31T06:35:59.000Z</time>
      </trkpt>
      <trkpt lat="47.87783" lon="7.17008">
        <ele>573.20001220703</ele>
        <time>2020-05-31T06:36:00.000Z</time>
      </trkpt>
      <trkpt lat="47.87781" lon="7.17007">
        <ele>573.59997558594</ele>
        <time>2020-05-31T06:36:01.000Z</time>
      </trkpt>
      <trkpt lat="47.87779" lon="7.17006">
        <ele>574</ele>
        <time>2020-05-31T06:36:02.000Z</time>
      </trkpt>
      <trkpt lat="47.87775" lon="7.17003">
        <ele>574</ele>
        <time>2020-05-31T06:36:04.000Z</time>
      </trkpt>
      <trkpt lat="47.87773" lon="7.16999">
        <ele>574</ele>
        <time>2020-05-31T06:36:06.000Z</time>
      </trkpt>
      <trkpt lat="47.87772" lon="7.16994">
        <ele>574.40002441406</ele>
        <time>2020-05-31T06:36:08.000Z</time>
      </trkpt>
      <trkpt lat="47.8777" lon="7.16992">
        <ele>575</ele>
        <time>2020-05-31T06:36:09.000Z</time>
      </trkpt>
      <trkpt lat="47.87769" lon="7.1699">
        <ele>575.40002441406</ele>
        <time>2020-05-31T06:36:10.000Z</time>
      </trkpt>
      <trkpt lat="47.87768" lon="7.16988">
        <ele>575.79998779297</ele>
        <time>2020-05-31T06:36:11.000Z</time>
      </trkpt>
      <trkpt lat="47.87767" lon="7.16985">
        <ele>576.20001220703</ele>
        <time>2020-05-31T06:36:12.000Z</time>
      </trkpt>
      <trkpt lat="47.87758" lon="7.16973">
        <ele>576.59997558594</ele>
        <time>2020-05-31T06:36:18.000Z</time>
      </trkpt>
      <trkpt lat="47.87758" lon="7.16973">
        <ele>577.20001220703</ele>
        <time>2020-05-31T06:36:19.000Z</time>
      </trkpt>
      <trkpt lat="47.87757" lon="7.16972">
        <ele>577.59997558594</ele>
        <time>2020-05-31T06:36:20.000Z</time>
      </trkpt>
      <trkpt lat="47.87751" lon="7.16959">
        <ele>578.40002441406</ele>
        <time>2020-05-31T06:36:48.000Z</time>
      </trkpt>
      <trkpt lat="47.87749" lon="7.16954">
        <ele>578.40002441406</ele>
        <time>2020-05-31T06:36:50.000Z</time>
      </trkpt>
      <trkpt lat="47.87746" lon="7.16939">
        <ele>578.40002441406</ele>
        <time>2020-05-31T06:36:56.000Z</time>
      </trkpt>
      <trkpt lat="47.87745" lon="7.16936">
        <ele>578.79998779297</ele>
        <time>2020-05-31T06:36:57.000Z</time>
      </trkpt>
      <trkpt lat="47.87745" lon="7.16934">
        <ele>579.20001220703</ele>
        <time>2020-05-31T06:36:58.000Z</time>
      </trkpt>
      <trkpt lat="47.87745" lon="7.16931">
        <ele>579.59997558594</ele>
        <time>2020-05-31T06:36:59.000Z</time>
      </trkpt>
      <trkpt lat="47.87744" lon="7.16929">
        <ele>580</ele>
        <time>2020-05-31T06:37:00.000Z</time>
      </trkpt>
      <trkpt lat="47.87743" lon="7.16927">
        <ele>580.40002441406</ele>
        <time>2020-05-31T06:37:01.000Z</time>
      </trkpt>
      <trkpt lat="47.87743" lon="7.16923">
        <ele>580.40002441406</ele>
        <time>2020-05-31T06:37:02.000Z</time>
      </trkpt>
      <trkpt lat="47.87738" lon="7.16908">
        <ele>581</ele>
        <time>2020-05-31T06:37:09.000Z</time>
      </trkpt>
      <trkpt lat="47.87737" lon="7.16906">
        <ele>581.40002441406</ele>
        <time>2020-05-31T06:37:10.000Z</time>
      </trkpt>
      <trkpt lat="47.87737" lon="7.16904">
        <ele>581.79998779297</ele>
        <time>2020-05-31T06:37:11.000Z</time>
      </trkpt>
      <trkpt lat="47.87736" lon="7.16901">
        <ele>582.20001220703</ele>
        <time>2020-05-31T06:37:12.000Z</time>
      </trkpt>
      <trkpt lat="47.87736" lon="7.16899">
        <ele>582.59997558594</ele>
        <time>2020-05-31T06:37:13.000Z</time>
      </trkpt>
      <trkpt lat="47.87734" lon="7.16893">
        <ele>582.59997558594</ele>
        <time>2020-05-31T06:37:15.000Z</time>
      </trkpt>
      <trkpt lat="47.87733" lon="7.16875">
        <ele>582.59997558594</ele>
        <time>2020-05-31T06:37:22.000Z</time>
      </trkpt>
      <trkpt lat="47.87732" lon="7.16872">
        <ele>583</ele>
        <time>2020-05-31T06:37:23.000Z</time>
      </trkpt>
      <trkpt lat="47.87732" lon="7.16869">
        <ele>583.40002441406</ele>
        <time>2020-05-31T06:37:24.000Z</time>
      </trkpt>
      <trkpt lat="47.87732" lon="7.16867">
        <ele>583.79998779297</ele>
        <time>2020-05-31T06:37:25.000Z</time>
      </trkpt>
      <trkpt lat="47.87731" lon="7.16864">
        <ele>584.20001220703</ele>
        <time>2020-05-31T06:37:26.000Z</time>
      </trkpt>
      <trkpt lat="47.87731" lon="7.16861">
        <ele>584.59997558594</ele>
        <time>2020-05-31T06:37:27.000Z</time>
      </trkpt>
      <trkpt lat="47.87731" lon="7.16856">
        <ele>584.59997558594</ele>
        <time>2020-05-31T06:37:29.000Z</time>
      </trkpt>
      <trkpt lat="47.8773" lon="7.16837">
        <ele>585</ele>
        <time>2020-05-31T06:37:36.000Z</time>
      </trkpt>
      <trkpt lat="47.87729" lon="7.16835">
        <ele>585.40002441406</ele>
        <time>2020-05-31T06:37:37.000Z</time>
      </trkpt>
      <trkpt lat="47.87729" lon="7.16832">
        <ele>586</ele>
        <time>2020-05-31T06:37:38.000Z</time>
      </trkpt>
      <trkpt lat="47.87728" lon="7.1683">
        <ele>586.40002441406</ele>
        <time>2020-05-31T06:37:39.000Z</time>
      </trkpt>
      <trkpt lat="47.87728" lon="7.16827">
        <ele>586.79998779297</ele>
        <time>2020-05-31T06:37:40.000Z</time>
      </trkpt>
      <trkpt lat="47.87726" lon="7.16818">
        <ele>586.79998779297</ele>
        <time>2020-05-31T06:37:43.000Z</time>
      </trkpt>
      <trkpt lat="47.87725" lon="7.168">
        <ele>586.79998779297</ele>
        <time>2020-05-31T06:37:49.000Z</time>
      </trkpt>
      <trkpt lat="47.87724" lon="7.16797">
        <ele>587.20001220703</ele>
        <time>2020-05-31T06:37:50.000Z</time>
      </trkpt>
      <trkpt lat="47.87724" lon="7.16794">
        <ele>587.59997558594</ele>
        <time>2020-05-31T06:37:51.000Z</time>
      </trkpt>
      <trkpt lat="47.87723" lon="7.16791">
        <ele>588.59997558594</ele>
        <time>2020-05-31T06:37:52.000Z</time>
      </trkpt>
      <trkpt lat="47.87722" lon="7.16788">
        <ele>589</ele>
        <time>2020-05-31T06:37:53.000Z</time>
      </trkpt>
      <trkpt lat="47.87721" lon="7.16776">
        <ele>589</ele>
        <time>2020-05-31T06:37:57.000Z</time>
      </trkpt>
      <trkpt lat="47.87719" lon="7.16765">
        <ele>589.40002441406</ele>
        <time>2020-05-31T06:38:01.000Z</time>
      </trkpt>
      <trkpt lat="47.87719" lon="7.16762">
        <ele>589.79998779297</ele>
        <time>2020-05-31T06:38:02.000Z</time>
      </trkpt>
      <trkpt lat="47.87719" lon="7.16759">
        <ele>590.20001220703</ele>
        <time>2020-05-31T06:38:03.000Z</time>
      </trkpt>
      <trkpt lat="47.87719" lon="7.16755">
        <ele>590.59997558594</ele>
        <time>2020-05-31T06:38:04.000Z</time>
      </trkpt>
      <trkpt lat="47.87718" lon="7.16751">
        <ele>591</ele>
        <time>2020-05-31T06:38:05.000Z</time>
      </trkpt>
      <trkpt lat="47.87718" lon="7.1674">
        <ele>591</ele>
        <time>2020-05-31T06:38:08.000Z</time>
      </trkpt>
      <trkpt lat="47.87718" lon="7.16727">
        <ele>591</ele>
        <time>2020-05-31T06:38:13.000Z</time>
      </trkpt>
      <trkpt lat="47.87718" lon="7.16724">
        <ele>591.40002441406</ele>
        <time>2020-05-31T06:38:14.000Z</time>
      </trkpt>
      <trkpt lat="47.87718" lon="7.16721">
        <ele>591.79998779297</ele>
        <time>2020-05-31T06:38:15.000Z</time>
      </trkpt>
      <trkpt lat="47.87719" lon="7.16719">
        <ele>592.40002441406</ele>
        <time>2020-05-31T06:38:16.000Z</time>
      </trkpt>
      <trkpt lat="47.87719" lon="7.16717">
        <ele>593.20001220703</ele>
        <time>2020-05-31T06:38:17.000Z</time>
      </trkpt>
      <trkpt lat="47.87719" lon="7.16712">
        <ele>593.20001220703</ele>
        <time>2020-05-31T06:38:19.000Z</time>
      </trkpt>
      <trkpt lat="47.87723" lon="7.16694">
        <ele>593.20001220703</ele>
        <time>2020-05-31T06:38:26.000Z</time>
      </trkpt>
      <trkpt lat="47.87723" lon="7.16692">
        <ele>593.59997558594</ele>
        <time>2020-05-31T06:38:27.000Z</time>
      </trkpt>
      <trkpt lat="47.87724" lon="7.16689">
        <ele>594</ele>
        <time>2020-05-31T06:38:28.000Z</time>
      </trkpt>
      <trkpt lat="47.87725" lon="7.16686">
        <ele>594.40002441406</ele>
        <time>2020-05-31T06:38:29.000Z</time>
      </trkpt>
      <trkpt lat="47.87726" lon="7.16683">
        <ele>594.79998779297</ele>
        <time>2020-05-31T06:38:30.000Z</time>
      </trkpt>
      <trkpt lat="47.87727" lon="7.16681">
        <ele>595.20001220703</ele>
        <time>2020-05-31T06:38:31.000Z</time>
      </trkpt>
      <trkpt lat="47.87727" lon="7.16678">
        <ele>595.20001220703</ele>
        <time>2020-05-31T06:38:32.000Z</time>
      </trkpt>
      <trkpt lat="47.87732" lon="7.16663">
        <ele>595.59997558594</ele>
        <time>2020-05-31T06:38:38.000Z</time>
      </trkpt>
      <trkpt lat="47.87733" lon="7.16661">
        <ele>596</ele>
        <time>2020-05-31T06:38:39.000Z</time>
      </trkpt>
      <trkpt lat="47.87734" lon="7.16658">
        <ele>596.40002441406</ele>
        <time>2020-05-31T06:38:40.000Z</time>
      </trkpt>
      <trkpt lat="47.87734" lon="7.16655">
        <ele>597.40002441406</ele>
        <time>2020-05-31T06:38:41.000Z</time>
      </trkpt>
      <trkpt lat="47.87736" lon="7.16649">
        <ele>597.40002441406</ele>
        <time>2020-05-31T06:38:44.000Z</time>
      </trkpt>
      <trkpt lat="47.87738" lon="7.16642">
        <ele>597.79998779297</ele>
        <time>2020-05-31T06:38:47.000Z</time>
      </trkpt>
      <trkpt lat="47.87738" lon="7.1664">
        <ele>598.20001220703</ele>
        <time>2020-05-31T06:38:48.000Z</time>
      </trkpt>
      <trkpt lat="47.87738" lon="7.16637">
        <ele>598.59997558594</ele>
        <time>2020-05-31T06:38:49.000Z</time>
      </trkpt>
      <trkpt lat="47.87739" lon="7.16633">
        <ele>599</ele>
        <time>2020-05-31T06:38:50.000Z</time>
      </trkpt>
      <trkpt lat="47.87738" lon="7.16628">
        <ele>599.40002441406</ele>
        <time>2020-05-31T06:38:51.000Z</time>
      </trkpt>
      <trkpt lat="47.8774" lon="7.16609">
        <ele>599.79998779297</ele>
        <time>2020-05-31T06:38:57.000Z</time>
      </trkpt>
      <trkpt lat="47.87741" lon="7.16606">
        <ele>600.20001220703</ele>
        <time>2020-05-31T06:38:58.000Z</time>
      </trkpt>
      <trkpt lat="47.87743" lon="7.16602">
        <ele>600.59997558594</ele>
        <time>2020-05-31T06:38:59.000Z</time>
      </trkpt>
      <trkpt lat="47.87744" lon="7.16599">
        <ele>601</ele>
        <time>2020-05-31T06:39:00.000Z</time>
      </trkpt>
      <trkpt lat="47.87745" lon="7.16596">
        <ele>601.40002441406</ele>
        <time>2020-05-31T06:39:01.000Z</time>
      </trkpt>
      <trkpt lat="47.8775" lon="7.16584">
        <ele>601.40002441406</ele>
        <time>2020-05-31T06:39:05.000Z</time>
      </trkpt>
      <trkpt lat="47.87752" lon="7.16578">
        <ele>601.79998779297</ele>
        <time>2020-05-31T06:39:07.000Z</time>
      </trkpt>
      <trkpt lat="47.87753" lon="7.16576">
        <ele>602.20001220703</ele>
        <time>2020-05-31T06:39:08.000Z</time>
      </trkpt>
      <trkpt lat="47.87754" lon="7.16572">
        <ele>602.59997558594</ele>
        <time>2020-05-31T06:39:09.000Z</time>
      </trkpt>
      <trkpt lat="47.87755" lon="7.1657">
        <ele>603</ele>
        <time>2020-05-31T06:39:10.000Z</time>
      </trkpt>
      <trkpt lat="47.87756" lon="7.16568">
        <ele>603.40002441406</ele>
        <time>2020-05-31T06:39:11.000Z</time>
      </trkpt>
      <trkpt lat="47.87756" lon="7.16566">
        <ele>603.40002441406</ele>
        <time>2020-05-31T06:39:12.000Z</time>
      </trkpt>
      <trkpt lat="47.8776" lon="7.16554">
        <ele>603.79998779297</ele>
        <time>2020-05-31T06:39:16.000Z</time>
      </trkpt>
      <trkpt lat="47.87761" lon="7.16552">
        <ele>604.20001220703</ele>
        <time>2020-05-31T06:39:17.000Z</time>
      </trkpt>
      <trkpt lat="47.87762" lon="7.16549">
        <ele>604.59997558594</ele>
        <time>2020-05-31T06:39:18.000Z</time>
      </trkpt>
      <trkpt lat="47.87762" lon="7.16546">
        <ele>605.20001220703</ele>
        <time>2020-05-31T06:39:19.000Z</time>
      </trkpt>
      <trkpt lat="47.87763" lon="7.16542">
        <ele>605.59997558594</ele>
        <time>2020-05-31T06:39:20.000Z</time>
      </trkpt>
      <trkpt lat="47.87771" lon="7.16527">
        <ele>605.59997558594</ele>
        <time>2020-05-31T06:39:25.000Z</time>
      </trkpt>
      <trkpt lat="47.87772" lon="7.16524">
        <ele>606</ele>
        <time>2020-05-31T06:39:26.000Z</time>
      </trkpt>
      <trkpt lat="47.87773" lon="7.16522">
        <ele>606.40002441406</ele>
        <time>2020-05-31T06:39:27.000Z</time>
      </trkpt>
      <trkpt lat="47.87774" lon="7.1652">
        <ele>606.79998779297</ele>
        <time>2020-05-31T06:39:28.000Z</time>
      </trkpt>
      <trkpt lat="47.87776" lon="7.16519">
        <ele>607.20001220703</ele>
        <time>2020-05-31T06:39:29.000Z</time>
      </trkpt>
      <trkpt lat="47.87777" lon="7.16517">
        <ele>607.79998779297</ele>
        <time>2020-05-31T06:39:30.000Z</time>
      </trkpt>
      <trkpt lat="47.87778" lon="7.16516">
        <ele>607.79998779297</ele>
        <time>2020-05-31T06:39:31.000Z</time>
      </trkpt>
      <trkpt lat="47.87785" lon="7.16513">
        <ele>608.20001220703</ele>
        <time>2020-05-31T06:39:35.000Z</time>
      </trkpt>
      <trkpt lat="47.87787" lon="7.16513">
        <ele>608.59997558594</ele>
        <time>2020-05-31T06:39:36.000Z</time>
      </trkpt>
      <trkpt lat="47.87789" lon="7.16512">
        <ele>609</ele>
        <time>2020-05-31T06:39:37.000Z</time>
      </trkpt>
      <trkpt lat="47.87791" lon="7.1651">
        <ele>609.40002441406</ele>
        <time>2020-05-31T06:39:38.000Z</time>
      </trkpt>
      <trkpt lat="47.87794" lon="7.16509">
        <ele>609.79998779297</ele>
        <time>2020-05-31T06:39:39.000Z</time>
      </trkpt>
      <trkpt lat="47.87802" lon="7.16502">
        <ele>609.79998779297</ele>
        <time>2020-05-31T06:39:43.000Z</time>
      </trkpt>
      <trkpt lat="47.87807" lon="7.16491">
        <ele>610.40002441406</ele>
        <time>2020-05-31T06:39:47.000Z</time>
      </trkpt>
      <trkpt lat="47.87809" lon="7.16488">
        <ele>610.79998779297</ele>
        <time>2020-05-31T06:39:48.000Z</time>
      </trkpt>
      <trkpt lat="47.87809" lon="7.16486">
        <ele>611.20001220703</ele>
        <time>2020-05-31T06:39:49.000Z</time>
      </trkpt>
      <trkpt lat="47.8781" lon="7.16483">
        <ele>611.59997558594</ele>
        <time>2020-05-31T06:39:50.000Z</time>
      </trkpt>
      <trkpt lat="47.8781" lon="7.1648">
        <ele>612</ele>
        <time>2020-05-31T06:39:51.000Z</time>
      </trkpt>
      <trkpt lat="47.87813" lon="7.16464">
        <ele>612</ele>
        <time>2020-05-31T06:39:56.000Z</time>
      </trkpt>
      <trkpt lat="47.87815" lon="7.16457">
        <ele>612.40002441406</ele>
        <time>2020-05-31T06:39:58.000Z</time>
      </trkpt>
      <trkpt lat="47.87817" lon="7.16454">
        <ele>612.79998779297</ele>
        <time>2020-05-31T06:39:59.000Z</time>
      </trkpt>
      <trkpt lat="47.87818" lon="7.16452">
        <ele>613.20001220703</ele>
        <time>2020-05-31T06:40:00.000Z</time>
      </trkpt>
      <trkpt lat="47.87819" lon="7.16448">
        <ele>613.59997558594</ele>
        <time>2020-05-31T06:40:01.000Z</time>
      </trkpt>
      <trkpt lat="47.8782" lon="7.16447">
        <ele>614</ele>
        <time>2020-05-31T06:40:02.000Z</time>
      </trkpt>
      <trkpt lat="47.8783" lon="7.16432">
        <ele>614</ele>
        <time>2020-05-31T06:40:08.000Z</time>
      </trkpt>
      <trkpt lat="47.87835" lon="7.16426">
        <ele>614.40002441406</ele>
        <time>2020-05-31T06:40:11.000Z</time>
      </trkpt>
      <trkpt lat="47.87837" lon="7.16423">
        <ele>615</ele>
        <time>2020-05-31T06:40:12.000Z</time>
      </trkpt>
      <trkpt lat="47.87839" lon="7.1642">
        <ele>615.40002441406</ele>
        <time>2020-05-31T06:40:13.000Z</time>
      </trkpt>
      <trkpt lat="47.8784" lon="7.16417">
        <ele>615.79998779297</ele>
        <time>2020-05-31T06:40:14.000Z</time>
      </trkpt>
      <trkpt lat="47.87842" lon="7.16415">
        <ele>616.40002441406</ele>
        <time>2020-05-31T06:40:15.000Z</time>
      </trkpt>
      <trkpt lat="47.87849" lon="7.16403">
        <ele>616.40002441406</ele>
        <time>2020-05-31T06:40:20.000Z</time>
      </trkpt>
      <trkpt lat="47.87854" lon="7.16391">
        <ele>616.79998779297</ele>
        <time>2020-05-31T06:40:24.000Z</time>
      </trkpt>
      <trkpt lat="47.87855" lon="7.16388">
        <ele>617.20001220703</ele>
        <time>2020-05-31T06:40:25.000Z</time>
      </trkpt>
      <trkpt lat="47.87855" lon="7.16386">
        <ele>617.59997558594</ele>
        <time>2020-05-31T06:40:26.000Z</time>
      </trkpt>
      <trkpt lat="47.87856" lon="7.16383">
        <ele>618</ele>
        <time>2020-05-31T06:40:27.000Z</time>
      </trkpt>
      <trkpt lat="47.87857" lon="7.1638">
        <ele>618.40002441406</ele>
        <time>2020-05-31T06:40:28.000Z</time>
      </trkpt>
      <trkpt lat="47.87861" lon="7.16371">
        <ele>618.40002441406</ele>
        <time>2020-05-31T06:40:32.000Z</time>
      </trkpt>
      <trkpt lat="47.87868" lon="7.16361">
        <ele>618.40002441406</ele>
        <time>2020-05-31T06:40:37.000Z</time>
      </trkpt>
      <trkpt lat="47.87882" lon="7.16344">
        <ele>618.79998779297</ele>
        <time>2020-05-31T06:40:44.000Z</time>
      </trkpt>
      <trkpt lat="47.87883" lon="7.16342">
        <ele>619.20001220703</ele>
        <time>2020-05-31T06:40:45.000Z</time>
      </trkpt>
      <trkpt lat="47.87885" lon="7.16339">
        <ele>619.59997558594</ele>
        <time>2020-05-31T06:40:46.000Z</time>
      </trkpt>
      <trkpt lat="47.87885" lon="7.16335">
        <ele>620</ele>
        <time>2020-05-31T06:40:47.000Z</time>
      </trkpt>
      <trkpt lat="47.87885" lon="7.16333">
        <ele>620.40002441406</ele>
        <time>2020-05-31T06:40:48.000Z</time>
      </trkpt>
      <trkpt lat="47.87887" lon="7.16325">
        <ele>620.40002441406</ele>
        <time>2020-05-31T06:40:50.000Z</time>
      </trkpt>
      <trkpt lat="47.87892" lon="7.16304">
        <ele>620.79998779297</ele>
        <time>2020-05-31T06:40:55.000Z</time>
      </trkpt>
      <trkpt lat="47.87893" lon="7.16302">
        <ele>621.20001220703</ele>
        <time>2020-05-31T06:40:56.000Z</time>
      </trkpt>
      <trkpt lat="47.87895" lon="7.163">
        <ele>621.59997558594</ele>
        <time>2020-05-31T06:40:57.000Z</time>
      </trkpt>
      <trkpt lat="47.87898" lon="7.163">
        <ele>622</ele>
        <time>2020-05-31T06:40:58.000Z</time>
      </trkpt>
      <trkpt lat="47.87899" lon="7.16299">
        <ele>622.40002441406</ele>
        <time>2020-05-31T06:40:59.000Z</time>
      </trkpt>
      <trkpt lat="47.87901" lon="7.163">
        <ele>622.40002441406</ele>
        <time>2020-05-31T06:41:00.000Z</time>
      </trkpt>
      <trkpt lat="47.87902" lon="7.16302">
        <ele>622.40002441406</ele>
        <time>2020-05-31T06:41:01.000Z</time>
      </trkpt>
      <trkpt lat="47.87906" lon="7.16316">
        <ele>622.40002441406</ele>
        <time>2020-05-31T06:41:06.000Z</time>
      </trkpt>
      <trkpt lat="47.87905" lon="7.16325">
        <ele>622.79998779297</ele>
        <time>2020-05-31T06:41:09.000Z</time>
      </trkpt>
      <trkpt lat="47.87904" lon="7.16328">
        <ele>623.20001220703</ele>
        <time>2020-05-31T06:41:10.000Z</time>
      </trkpt>
      <trkpt lat="47.87903" lon="7.16331">
        <ele>623.79998779297</ele>
        <time>2020-05-31T06:41:11.000Z</time>
      </trkpt>
      <trkpt lat="47.87902" lon="7.16333">
        <ele>624.20001220703</ele>
        <time>2020-05-31T06:41:12.000Z</time>
      </trkpt>
      <trkpt lat="47.879" lon="7.16334">
        <ele>624.59997558594</ele>
        <time>2020-05-31T06:41:13.000Z</time>
      </trkpt>
      <trkpt lat="47.87895" lon="7.16356">
        <ele>624.59997558594</ele>
        <time>2020-05-31T06:41:18.000Z</time>
      </trkpt>
      <trkpt lat="47.8789" lon="7.16367">
        <ele>625</ele>
        <time>2020-05-31T06:41:22.000Z</time>
      </trkpt>
      <trkpt lat="47.87886" lon="7.16371">
        <ele>625.40002441406</ele>
        <time>2020-05-31T06:41:23.000Z</time>
      </trkpt>
      <trkpt lat="47.87884" lon="7.16374">
        <ele>625.79998779297</ele>
        <time>2020-05-31T06:41:24.000Z</time>
      </trkpt>
      <trkpt lat="47.87882" lon="7.16377">
        <ele>626.20001220703</ele>
        <time>2020-05-31T06:41:25.000Z</time>
      </trkpt>
      <trkpt lat="47.87881" lon="7.16379">
        <ele>626.59997558594</ele>
        <time>2020-05-31T06:41:26.000Z</time>
      </trkpt>
      <trkpt lat="47.87872" lon="7.16402">
        <ele>626.59997558594</ele>
        <time>2020-05-31T06:41:31.000Z</time>
      </trkpt>
      <trkpt lat="47.87859" lon="7.16438">
        <ele>626.59997558594</ele>
        <time>2020-05-31T06:41:39.000Z</time>
      </trkpt>
      <trkpt lat="47.87845" lon="7.16474">
        <ele>627</ele>
        <time>2020-05-31T06:41:47.000Z</time>
      </trkpt>
      <trkpt lat="47.87843" lon="7.16478">
        <ele>627.40002441406</ele>
        <time>2020-05-31T06:41:48.000Z</time>
      </trkpt>
      <trkpt lat="47.87841" lon="7.16481">
        <ele>627.79998779297</ele>
        <time>2020-05-31T06:41:49.000Z</time>
      </trkpt>
      <trkpt lat="47.87839" lon="7.16485">
        <ele>627.59997558594</ele>
        <time>2020-05-31T06:41:50.000Z</time>
      </trkpt>
      <trkpt lat="47.87838" lon="7.16488">
        <ele>627.40002441406</ele>
        <time>2020-05-31T06:41:51.000Z</time>
      </trkpt>
      <trkpt lat="47.87836" lon="7.16492">
        <ele>627</ele>
        <time>2020-05-31T06:41:52.000Z</time>
      </trkpt>
      <trkpt lat="47.87835" lon="7.16499">
        <ele>627.40002441406</ele>
        <time>2020-05-31T06:41:53.000Z</time>
      </trkpt>
      <trkpt lat="47.87834" lon="7.16503">
        <ele>628</ele>
        <time>2020-05-31T06:41:54.000Z</time>
      </trkpt>
      <trkpt lat="47.87834" lon="7.16509">
        <ele>628.40002441406</ele>
        <time>2020-05-31T06:41:55.000Z</time>
      </trkpt>
      <trkpt lat="47.87834" lon="7.16514">
        <ele>628.79998779297</ele>
        <time>2020-05-31T06:41:56.000Z</time>
      </trkpt>
      <trkpt lat="47.87834" lon="7.1652">
        <ele>629.20001220703</ele>
        <time>2020-05-31T06:41:57.000Z</time>
      </trkpt>
      <trkpt lat="47.8783" lon="7.16537">
        <ele>629.20001220703</ele>
        <time>2020-05-31T06:42:01.000Z</time>
      </trkpt>
      <trkpt lat="47.8782" lon="7.16558">
        <ele>629.20001220703</ele>
        <time>2020-05-31T06:42:06.000Z</time>
      </trkpt>
      <trkpt lat="47.87813" lon="7.16582">
        <ele>629.59997558594</ele>
        <time>2020-05-31T06:42:11.000Z</time>
      </trkpt>
      <trkpt lat="47.87813" lon="7.16587">
        <ele>630</ele>
        <time>2020-05-31T06:42:12.000Z</time>
      </trkpt>
      <trkpt lat="47.87812" lon="7.16592">
        <ele>630.59997558594</ele>
        <time>2020-05-31T06:42:13.000Z</time>
      </trkpt>
      <trkpt lat="47.87812" lon="7.16597">
        <ele>631</ele>
        <time>2020-05-31T06:42:14.000Z</time>
      </trkpt>
      <trkpt lat="47.87812" lon="7.16602">
        <ele>631.40002441406</ele>
        <time>2020-05-31T06:42:15.000Z</time>
      </trkpt>
      <trkpt lat="47.8781" lon="7.16624">
        <ele>631.40002441406</ele>
        <time>2020-05-31T06:42:19.000Z</time>
      </trkpt>
      <trkpt lat="47.87811" lon="7.16653">
        <ele>631.40002441406</ele>
        <time>2020-05-31T06:42:25.000Z</time>
      </trkpt>
      <trkpt lat="47.87813" lon="7.16672">
        <ele>631.79998779297</ele>
        <time>2020-05-31T06:42:29.000Z</time>
      </trkpt>
      <trkpt lat="47.87814" lon="7.16676">
        <ele>632.20001220703</ele>
        <time>2020-05-31T06:42:30.000Z</time>
      </trkpt>
      <trkpt lat="47.87814" lon="7.1668">
        <ele>632.59997558594</ele>
        <time>2020-05-31T06:42:31.000Z</time>
      </trkpt>
      <trkpt lat="47.87815" lon="7.16684">
        <ele>633.20001220703</ele>
        <time>2020-05-31T06:42:32.000Z</time>
      </trkpt>
      <trkpt lat="47.87815" lon="7.16689">
        <ele>633.59997558594</ele>
        <time>2020-05-31T06:42:33.000Z</time>
      </trkpt>
      <trkpt lat="47.87819" lon="7.16713">
        <ele>633.59997558594</ele>
        <time>2020-05-31T06:42:38.000Z</time>
      </trkpt>
      <trkpt lat="47.87824" lon="7.1674">
        <ele>633.59997558594</ele>
        <time>2020-05-31T06:42:44.000Z</time>
      </trkpt>
      <trkpt lat="47.87827" lon="7.16768">
        <ele>633.59997558594</ele>
        <time>2020-05-31T06:42:50.000Z</time>
      </trkpt>
      <trkpt lat="47.87829" lon="7.1678">
        <ele>633.59997558594</ele>
        <time>2020-05-31T06:42:53.000Z</time>
      </trkpt>
      <trkpt lat="47.87833" lon="7.16795">
        <ele>633.59997558594</ele>
        <time>2020-05-31T06:42:57.000Z</time>
      </trkpt>
      <trkpt lat="47.8784" lon="7.16819">
        <ele>634</ele>
        <time>2020-05-31T06:43:02.000Z</time>
      </trkpt>
      <trkpt lat="47.87841" lon="7.16823">
        <ele>634.40002441406</ele>
        <time>2020-05-31T06:43:03.000Z</time>
      </trkpt>
      <trkpt lat="47.87842" lon="7.16827">
        <ele>634.79998779297</ele>
        <time>2020-05-31T06:43:04.000Z</time>
      </trkpt>
      <trkpt lat="47.87843" lon="7.16832">
        <ele>635.20001220703</ele>
        <time>2020-05-31T06:43:05.000Z</time>
      </trkpt>
      <trkpt lat="47.87844" lon="7.16835">
        <ele>635.59997558594</ele>
        <time>2020-05-31T06:43:06.000Z</time>
      </trkpt>
      <trkpt lat="47.8785" lon="7.16844">
        <ele>635.59997558594</ele>
        <time>2020-05-31T06:43:09.000Z</time>
      </trkpt>
      <trkpt lat="47.87855" lon="7.1684">
        <ele>635.59997558594</ele>
        <time>2020-05-31T06:43:13.000Z</time>
      </trkpt>
      <trkpt lat="47.87857" lon="7.16835">
        <ele>636</ele>
        <time>2020-05-31T06:43:15.000Z</time>
      </trkpt>
      <trkpt lat="47.87857" lon="7.16832">
        <ele>636.40002441406</ele>
        <time>2020-05-31T06:43:16.000Z</time>
      </trkpt>
      <trkpt lat="47.87858" lon="7.16829">
        <ele>636.79998779297</ele>
        <time>2020-05-31T06:43:17.000Z</time>
      </trkpt>
      <trkpt lat="47.87858" lon="7.16826">
        <ele>637.20001220703</ele>
        <time>2020-05-31T06:43:18.000Z</time>
      </trkpt>
      <trkpt lat="47.87857" lon="7.16824">
        <ele>637.79998779297</ele>
        <time>2020-05-31T06:43:19.000Z</time>
      </trkpt>
      <trkpt lat="47.87857" lon="7.16809">
        <ele>638.20001220703</ele>
        <time>2020-05-31T06:43:25.000Z</time>
      </trkpt>
      <trkpt lat="47.87856" lon="7.16806">
        <ele>638.59997558594</ele>
        <time>2020-05-31T06:43:26.000Z</time>
      </trkpt>
      <trkpt lat="47.87856" lon="7.16803">
        <ele>639</ele>
        <time>2020-05-31T06:43:27.000Z</time>
      </trkpt>
      <trkpt lat="47.87856" lon="7.16801">
        <ele>639.40002441406</ele>
        <time>2020-05-31T06:43:28.000Z</time>
      </trkpt>
      <trkpt lat="47.87855" lon="7.16799">
        <ele>639.79998779297</ele>
        <time>2020-05-31T06:43:29.000Z</time>
      </trkpt>
      <trkpt lat="47.87856" lon="7.16789">
        <ele>640.20001220703</ele>
        <time>2020-05-31T06:43:33.000Z</time>
      </trkpt>
      <trkpt lat="47.87856" lon="7.16787">
        <ele>640.79998779297</ele>
        <time>2020-05-31T06:43:34.000Z</time>
      </trkpt>
      <trkpt lat="47.87856" lon="7.16784">
        <ele>641.20001220703</ele>
        <time>2020-05-31T06:43:35.000Z</time>
      </trkpt>
      <trkpt lat="47.87856" lon="7.16782">
        <ele>642</ele>
        <time>2020-05-31T06:43:36.000Z</time>
      </trkpt>
      <trkpt lat="47.87856" lon="7.16768">
        <ele>642.40002441406</ele>
        <time>2020-05-31T06:43:41.000Z</time>
      </trkpt>
      <trkpt lat="47.87856" lon="7.16766">
        <ele>642.79998779297</ele>
        <time>2020-05-31T06:43:42.000Z</time>
      </trkpt>
      <trkpt lat="47.87856" lon="7.16763">
        <ele>643.20001220703</ele>
        <time>2020-05-31T06:43:43.000Z</time>
      </trkpt>
      <trkpt lat="47.87855" lon="7.1676">
        <ele>643.79998779297</ele>
        <time>2020-05-31T06:43:44.000Z</time>
      </trkpt>
      <trkpt lat="47.87855" lon="7.16758">
        <ele>644.20001220703</ele>
        <time>2020-05-31T06:43:45.000Z</time>
      </trkpt>
      <trkpt lat="47.87855" lon="7.16745">
        <ele>644.20001220703</ele>
        <time>2020-05-31T06:43:50.000Z</time>
      </trkpt>
      <trkpt lat="47.87855" lon="7.16741">
        <ele>644.59997558594</ele>
        <time>2020-05-31T06:43:52.000Z</time>
      </trkpt>
      <trkpt lat="47.87855" lon="7.16739">
        <ele>645</ele>
        <time>2020-05-31T06:43:53.000Z</time>
      </trkpt>
      <trkpt lat="47.87854" lon="7.16737">
        <ele>645.40002441406</ele>
        <time>2020-05-31T06:43:54.000Z</time>
      </trkpt>
      <trkpt lat="47.87854" lon="7.16735">
        <ele>646</ele>
        <time>2020-05-31T06:43:55.000Z</time>
      </trkpt>
      <trkpt lat="47.87854" lon="7.16733">
        <ele>646.40002441406</ele>
        <time>2020-05-31T06:43:56.000Z</time>
      </trkpt>
      <trkpt lat="47.87854" lon="7.16731">
        <ele>646.40002441406</ele>
        <time>2020-05-31T06:43:57.000Z</time>
      </trkpt>
      <trkpt lat="47.87854" lon="7.16725">
        <ele>646.79998779297</ele>
        <time>2020-05-31T06:44:00.000Z</time>
      </trkpt>
      <trkpt lat="47.87854" lon="7.16723">
        <ele>647.59997558594</ele>
        <time>2020-05-31T06:44:01.000Z</time>
      </trkpt>
      <trkpt lat="47.87853" lon="7.16721">
        <ele>648</ele>
        <time>2020-05-31T06:44:02.000Z</time>
      </trkpt>
      <trkpt lat="47.87853" lon="7.16719">
        <ele>648.40002441406</ele>
        <time>2020-05-31T06:44:03.000Z</time>
      </trkpt>
      <trkpt lat="47.87852" lon="7.16716">
        <ele>648.40002441406</ele>
        <time>2020-05-31T06:44:05.000Z</time>
      </trkpt>
      <trkpt lat="47.87852" lon="7.16712">
        <ele>648.79998779297</ele>
        <time>2020-05-31T06:44:08.000Z</time>
      </trkpt>
      <trkpt lat="47.87853" lon="7.16712">
        <ele>649.20001220703</ele>
        <time>2020-05-31T06:44:09.000Z</time>
      </trkpt>
      <trkpt lat="47.87854" lon="7.16713">
        <ele>649.59997558594</ele>
        <time>2020-05-31T06:44:10.000Z</time>
      </trkpt>
      <trkpt lat="47.87855" lon="7.16715">
        <ele>650.20001220703</ele>
        <time>2020-05-31T06:44:11.000Z</time>
      </trkpt>
      <trkpt lat="47.87856" lon="7.16718">
        <ele>650.59997558594</ele>
        <time>2020-05-31T06:44:12.000Z</time>
      </trkpt>
      <trkpt lat="47.87857" lon="7.1672">
        <ele>650.59997558594</ele>
        <time>2020-05-31T06:44:13.000Z</time>
      </trkpt>
      <trkpt lat="47.87861" lon="7.16728">
        <ele>650.59997558594</ele>
        <time>2020-05-31T06:44:17.000Z</time>
      </trkpt>
      <trkpt lat="47.87867" lon="7.16738">
        <ele>651</ele>
        <time>2020-05-31T06:44:23.000Z</time>
      </trkpt>
      <trkpt lat="47.87868" lon="7.16741">
        <ele>651.40002441406</ele>
        <time>2020-05-31T06:44:24.000Z</time>
      </trkpt>
      <trkpt lat="47.87869" lon="7.16744">
        <ele>652.20001220703</ele>
        <time>2020-05-31T06:44:25.000Z</time>
      </trkpt>
      <trkpt lat="47.8787" lon="7.16746">
        <ele>652.59997558594</ele>
        <time>2020-05-31T06:44:26.000Z</time>
      </trkpt>
      <trkpt lat="47.87874" lon="7.16754">
        <ele>653</ele>
        <time>2020-05-31T06:44:30.000Z</time>
      </trkpt>
      <trkpt lat="47.87875" lon="7.16756">
        <ele>653.40002441406</ele>
        <time>2020-05-31T06:44:31.000Z</time>
      </trkpt>
      <trkpt lat="47.87876" lon="7.16758">
        <ele>653.79998779297</ele>
        <time>2020-05-31T06:44:32.000Z</time>
      </trkpt>
      <trkpt lat="47.87877" lon="7.1676">
        <ele>654.40002441406</ele>
        <time>2020-05-31T06:44:33.000Z</time>
      </trkpt>
      <trkpt lat="47.87878" lon="7.16762">
        <ele>654.79998779297</ele>
        <time>2020-05-31T06:44:34.000Z</time>
      </trkpt>
      <trkpt lat="47.87882" lon="7.16769">
        <ele>654.79998779297</ele>
        <time>2020-05-31T06:44:37.000Z</time>
      </trkpt>
      <trkpt lat="47.87884" lon="7.16776">
        <ele>655.20001220703</ele>
        <time>2020-05-31T06:44:40.000Z</time>
      </trkpt>
      <trkpt lat="47.87884" lon="7.16778">
        <ele>655.59997558594</ele>
        <time>2020-05-31T06:44:41.000Z</time>
      </trkpt>
      <trkpt lat="47.87885" lon="7.1678">
        <ele>656</ele>
        <time>2020-05-31T06:44:42.000Z</time>
      </trkpt>
      <trkpt lat="47.87886" lon="7.16782">
        <ele>656.40002441406</ele>
        <time>2020-05-31T06:44:43.000Z</time>
      </trkpt>
      <trkpt lat="47.87887" lon="7.16784">
        <ele>656.79998779297</ele>
        <time>2020-05-31T06:44:44.000Z</time>
      </trkpt>
      <trkpt lat="47.87897" lon="7.16799">
        <ele>656.79998779297</ele>
        <time>2020-05-31T06:44:51.000Z</time>
      </trkpt>
      <trkpt lat="47.87902" lon="7.16807">
        <ele>657.20001220703</ele>
        <time>2020-05-31T06:44:55.000Z</time>
      </trkpt>
      <trkpt lat="47.87904" lon="7.16809">
        <ele>657.79998779297</ele>
        <time>2020-05-31T06:44:56.000Z</time>
      </trkpt>
      <trkpt lat="47.87905" lon="7.16811">
        <ele>658.20001220703</ele>
        <time>2020-05-31T06:44:57.000Z</time>
      </trkpt>
      <trkpt lat="47.87907" lon="7.16813">
        <ele>658.59997558594</ele>
        <time>2020-05-31T06:44:58.000Z</time>
      </trkpt>
      <trkpt lat="47.87908" lon="7.16815">
        <ele>659</ele>
        <time>2020-05-31T06:44:59.000Z</time>
      </trkpt>
      <trkpt lat="47.87917" lon="7.16824">
        <ele>659</ele>
        <time>2020-05-31T06:45:05.000Z</time>
      </trkpt>
      <trkpt lat="47.87918" lon="7.16826">
        <ele>659.40002441406</ele>
        <time>2020-05-31T06:45:06.000Z</time>
      </trkpt>
      <trkpt lat="47.87919" lon="7.16827">
        <ele>659.79998779297</ele>
        <time>2020-05-31T06:45:07.000Z</time>
      </trkpt>
      <trkpt lat="47.8792" lon="7.16829">
        <ele>660.40002441406</ele>
        <time>2020-05-31T06:45:08.000Z</time>
      </trkpt>
      <trkpt lat="47.87921" lon="7.16831">
        <ele>660.79998779297</ele>
        <time>2020-05-31T06:45:09.000Z</time>
      </trkpt>
      <trkpt lat="47.87922" lon="7.16833">
        <ele>661.20001220703</ele>
        <time>2020-05-31T06:45:10.000Z</time>
      </trkpt>
      <trkpt lat="47.87926" lon="7.16839">
        <ele>661.59997558594</ele>
        <time>2020-05-31T06:45:13.000Z</time>
      </trkpt>
      <trkpt lat="47.87927" lon="7.1684">
        <ele>662</ele>
        <time>2020-05-31T06:45:14.000Z</time>
      </trkpt>
      <trkpt lat="47.87929" lon="7.16842">
        <ele>662.40002441406</ele>
        <time>2020-05-31T06:45:15.000Z</time>
      </trkpt>
      <trkpt lat="47.8793" lon="7.16844">
        <ele>662.79998779297</ele>
        <time>2020-05-31T06:45:16.000Z</time>
      </trkpt>
      <trkpt lat="47.87932" lon="7.16845">
        <ele>663.20001220703</ele>
        <time>2020-05-31T06:45:17.000Z</time>
      </trkpt>
      <trkpt lat="47.87934" lon="7.16846">
        <ele>663.20001220703</ele>
        <time>2020-05-31T06:45:18.000Z</time>
      </trkpt>
      <trkpt lat="47.87936" lon="7.1685">
        <ele>663.20001220703</ele>
        <time>2020-05-31T06:45:20.000Z</time>
      </trkpt>
      <trkpt lat="47.87937" lon="7.16852">
        <ele>663.20001220703</ele>
        <time>2020-05-31T06:45:21.000Z</time>
      </trkpt>
      <trkpt lat="47.87941" lon="7.16854">
        <ele>663.79998779297</ele>
        <time>2020-05-31T06:45:23.000Z</time>
      </trkpt>
      <trkpt lat="47.87942" lon="7.16854">
        <ele>664.20001220703</ele>
        <time>2020-05-31T06:45:24.000Z</time>
      </trkpt>
      <trkpt lat="47.87943" lon="7.16855">
        <ele>664.59997558594</ele>
        <time>2020-05-31T06:45:25.000Z</time>
      </trkpt>
      <trkpt lat="47.87944" lon="7.16857">
        <ele>665</ele>
        <time>2020-05-31T06:45:26.000Z</time>
      </trkpt>
      <trkpt lat="47.87946" lon="7.16858">
        <ele>665.40002441406</ele>
        <time>2020-05-31T06:45:27.000Z</time>
      </trkpt>
      <trkpt lat="47.8795" lon="7.16863">
        <ele>665.40002441406</ele>
        <time>2020-05-31T06:45:30.000Z</time>
      </trkpt>
      <trkpt lat="47.87952" lon="7.16865">
        <ele>665.79998779297</ele>
        <time>2020-05-31T06:45:31.000Z</time>
      </trkpt>
      <trkpt lat="47.87954" lon="7.16866">
        <ele>666.20001220703</ele>
        <time>2020-05-31T06:45:32.000Z</time>
      </trkpt>
      <trkpt lat="47.87955" lon="7.16868">
        <ele>666.79998779297</ele>
        <time>2020-05-31T06:45:33.000Z</time>
      </trkpt>
      <trkpt lat="47.87957" lon="7.1687">
        <ele>667.20001220703</ele>
        <time>2020-05-31T06:45:34.000Z</time>
      </trkpt>
      <trkpt lat="47.87958" lon="7.16871">
        <ele>667.59997558594</ele>
        <time>2020-05-31T06:45:35.000Z</time>
      </trkpt>
      <trkpt lat="47.8796" lon="7.16873">
        <ele>667.59997558594</ele>
        <time>2020-05-31T06:45:37.000Z</time>
      </trkpt>
      <trkpt lat="47.87963" lon="7.16874">
        <ele>668</ele>
        <time>2020-05-31T06:45:39.000Z</time>
      </trkpt>
      <trkpt lat="47.87965" lon="7.16874">
        <ele>668.40002441406</ele>
        <time>2020-05-31T06:45:40.000Z</time>
      </trkpt>
      <trkpt lat="47.87966" lon="7.16874">
        <ele>668.79998779297</ele>
        <time>2020-05-31T06:45:41.000Z</time>
      </trkpt>
      <trkpt lat="47.87967" lon="7.16875">
        <ele>669.59997558594</ele>
        <time>2020-05-31T06:45:42.000Z</time>
      </trkpt>
      <trkpt lat="47.87968" lon="7.16875">
        <ele>669.59997558594</ele>
        <time>2020-05-31T06:45:43.000Z</time>
      </trkpt>
      <trkpt lat="47.8797" lon="7.16878">
        <ele>669.59997558594</ele>
        <time>2020-05-31T06:45:45.000Z</time>
      </trkpt>
      <trkpt lat="47.87971" lon="7.1688">
        <ele>670</ele>
        <time>2020-05-31T06:45:46.000Z</time>
      </trkpt>
      <trkpt lat="47.87973" lon="7.16881">
        <ele>670.40002441406</ele>
        <time>2020-05-31T06:45:47.000Z</time>
      </trkpt>
      <trkpt lat="47.87975" lon="7.16883">
        <ele>670.79998779297</ele>
        <time>2020-05-31T06:45:48.000Z</time>
      </trkpt>
      <trkpt lat="47.87977" lon="7.16884">
        <ele>671.20001220703</ele>
        <time>2020-05-31T06:45:49.000Z</time>
      </trkpt>
      <trkpt lat="47.87979" lon="7.16885">
        <ele>671.59997558594</ele>
        <time>2020-05-31T06:45:50.000Z</time>
      </trkpt>
      <trkpt lat="47.87982" lon="7.16885">
        <ele>672.20001220703</ele>
        <time>2020-05-31T06:45:52.000Z</time>
      </trkpt>
      <trkpt lat="47.87983" lon="7.16885">
        <ele>672.59997558594</ele>
        <time>2020-05-31T06:45:53.000Z</time>
      </trkpt>
      <trkpt lat="47.87984" lon="7.16886">
        <ele>673</ele>
        <time>2020-05-31T06:45:54.000Z</time>
      </trkpt>
      <trkpt lat="47.87985" lon="7.16888">
        <ele>673.59997558594</ele>
        <time>2020-05-31T06:45:55.000Z</time>
      </trkpt>
      <trkpt lat="47.87987" lon="7.16889">
        <ele>674</ele>
        <time>2020-05-31T06:45:56.000Z</time>
      </trkpt>
      <trkpt lat="47.8799" lon="7.1689">
        <ele>674.40002441406</ele>
        <time>2020-05-31T06:45:58.000Z</time>
      </trkpt>
      <trkpt lat="47.87992" lon="7.16889">
        <ele>675</ele>
        <time>2020-05-31T06:45:59.000Z</time>
      </trkpt>
      <trkpt lat="47.87993" lon="7.16888">
        <ele>675.40002441406</ele>
        <time>2020-05-31T06:46:00.000Z</time>
      </trkpt>
      <trkpt lat="47.87994" lon="7.16888">
        <ele>675.79998779297</ele>
        <time>2020-05-31T06:46:01.000Z</time>
      </trkpt>
      <trkpt lat="47.87996" lon="7.16888">
        <ele>676.20001220703</ele>
        <time>2020-05-31T06:46:02.000Z</time>
      </trkpt>
      <trkpt lat="47.87997" lon="7.16888">
        <ele>676.79998779297</ele>
        <time>2020-05-31T06:46:03.000Z</time>
      </trkpt>
      <trkpt lat="47.87998" lon="7.16887">
        <ele>677.20001220703</ele>
        <time>2020-05-31T06:46:04.000Z</time>
      </trkpt>
      <trkpt lat="47.87999" lon="7.16887">
        <ele>677.59997558594</ele>
        <time>2020-05-31T06:46:05.000Z</time>
      </trkpt>
      <trkpt lat="47.88001" lon="7.16886">
        <ele>678.40002441406</ele>
        <time>2020-05-31T06:46:06.000Z</time>
      </trkpt>
      <trkpt lat="47.88002" lon="7.16886">
        <ele>678.79998779297</ele>
        <time>2020-05-31T06:46:07.000Z</time>
      </trkpt>
      <trkpt lat="47.88003" lon="7.16886">
        <ele>679.40002441406</ele>
        <time>2020-05-31T06:46:08.000Z</time>
      </trkpt>
      <trkpt lat="47.88005" lon="7.16886">
        <ele>679.79998779297</ele>
        <time>2020-05-31T06:46:09.000Z</time>
      </trkpt>
      <trkpt lat="47.88006" lon="7.16886">
        <ele>680.20001220703</ele>
        <time>2020-05-31T06:46:10.000Z</time>
      </trkpt>
      <trkpt lat="47.88007" lon="7.16886">
        <ele>680.59997558594</ele>
        <time>2020-05-31T06:46:11.000Z</time>
      </trkpt>
      <trkpt lat="47.88009" lon="7.16888">
        <ele>681</ele>
        <time>2020-05-31T06:46:13.000Z</time>
      </trkpt>
      <trkpt lat="47.8801" lon="7.16888">
        <ele>681.59997558594</ele>
        <time>2020-05-31T06:46:14.000Z</time>
      </trkpt>
      <trkpt lat="47.88012" lon="7.16889">
        <ele>682</ele>
        <time>2020-05-31T06:46:15.000Z</time>
      </trkpt>
      <trkpt lat="47.88013" lon="7.1689">
        <ele>682.40002441406</ele>
        <time>2020-05-31T06:46:16.000Z</time>
      </trkpt>
      <trkpt lat="47.88015" lon="7.16889">
        <ele>682.79998779297</ele>
        <time>2020-05-31T06:46:17.000Z</time>
      </trkpt>
      <trkpt lat="47.88018" lon="7.1689">
        <ele>683.40002441406</ele>
        <time>2020-05-31T06:46:19.000Z</time>
      </trkpt>
      <trkpt lat="47.8802" lon="7.16891">
        <ele>683.79998779297</ele>
        <time>2020-05-31T06:46:20.000Z</time>
      </trkpt>
      <trkpt lat="47.88021" lon="7.16891">
        <ele>684.20001220703</ele>
        <time>2020-05-31T06:46:21.000Z</time>
      </trkpt>
      <trkpt lat="47.88023" lon="7.16892">
        <ele>684.59997558594</ele>
        <time>2020-05-31T06:46:22.000Z</time>
      </trkpt>
      <trkpt lat="47.88025" lon="7.16892">
        <ele>685</ele>
        <time>2020-05-31T06:46:23.000Z</time>
      </trkpt>
      <trkpt lat="47.8803" lon="7.16893">
        <ele>685.40002441406</ele>
        <time>2020-05-31T06:46:26.000Z</time>
      </trkpt>
      <trkpt lat="47.88033" lon="7.16893">
        <ele>685.79998779297</ele>
        <time>2020-05-31T06:46:27.000Z</time>
      </trkpt>
      <trkpt lat="47.88035" lon="7.16893">
        <ele>686.20001220703</ele>
        <time>2020-05-31T06:46:28.000Z</time>
      </trkpt>
      <trkpt lat="47.88036" lon="7.16894">
        <ele>686.59997558594</ele>
        <time>2020-05-31T06:46:29.000Z</time>
      </trkpt>
      <trkpt lat="47.88037" lon="7.16895">
        <ele>687</ele>
        <time>2020-05-31T06:46:30.000Z</time>
      </trkpt>
      <trkpt lat="47.88044" lon="7.169">
        <ele>687.40002441406</ele>
        <time>2020-05-31T06:46:35.000Z</time>
      </trkpt>
      <trkpt lat="47.88046" lon="7.16901">
        <ele>688</ele>
        <time>2020-05-31T06:46:36.000Z</time>
      </trkpt>
      <trkpt lat="47.88047" lon="7.16902">
        <ele>688.40002441406</ele>
        <time>2020-05-31T06:46:37.000Z</time>
      </trkpt>
      <trkpt lat="47.88049" lon="7.16903">
        <ele>688.79998779297</ele>
        <time>2020-05-31T06:46:38.000Z</time>
      </trkpt>
      <trkpt lat="47.8805" lon="7.16904">
        <ele>689.20001220703</ele>
        <time>2020-05-31T06:46:39.000Z</time>
      </trkpt>
      <trkpt lat="47.88059" lon="7.16908">
        <ele>689.20001220703</ele>
        <time>2020-05-31T06:46:44.000Z</time>
      </trkpt>
      <trkpt lat="47.88064" lon="7.16908">
        <ele>689.59997558594</ele>
        <time>2020-05-31T06:46:47.000Z</time>
      </trkpt>
      <trkpt lat="47.88066" lon="7.16909">
        <ele>690</ele>
        <time>2020-05-31T06:46:48.000Z</time>
      </trkpt>
      <trkpt lat="47.88067" lon="7.16909">
        <ele>690.40002441406</ele>
        <time>2020-05-31T06:46:49.000Z</time>
      </trkpt>
      <trkpt lat="47.88069" lon="7.1691">
        <ele>690.79998779297</ele>
        <time>2020-05-31T06:46:50.000Z</time>
      </trkpt>
      <trkpt lat="47.88073" lon="7.16911">
        <ele>691.20001220703</ele>
        <time>2020-05-31T06:46:51.000Z</time>
      </trkpt>
      <trkpt lat="47.88084" lon="7.16913">
        <ele>691.59997558594</ele>
        <time>2020-05-31T06:46:55.000Z</time>
      </trkpt>
      <trkpt lat="47.88086" lon="7.16913">
        <ele>692.40002441406</ele>
        <time>2020-05-31T06:46:56.000Z</time>
      </trkpt>
      <trkpt lat="47.88089" lon="7.16913">
        <ele>693</ele>
        <time>2020-05-31T06:46:57.000Z</time>
      </trkpt>
      <trkpt lat="47.88092" lon="7.16914">
        <ele>693.40002441406</ele>
        <time>2020-05-31T06:46:58.000Z</time>
      </trkpt>
      <trkpt lat="47.88097" lon="7.16916">
        <ele>693.79998779297</ele>
        <time>2020-05-31T06:47:00.000Z</time>
      </trkpt>
      <trkpt lat="47.88099" lon="7.16916">
        <ele>694.20001220703</ele>
        <time>2020-05-31T06:47:01.000Z</time>
      </trkpt>
      <trkpt lat="47.88101" lon="7.16917">
        <ele>694.59997558594</ele>
        <time>2020-05-31T06:47:02.000Z</time>
      </trkpt>
      <trkpt lat="47.88103" lon="7.16917">
        <ele>695</ele>
        <time>2020-05-31T06:47:03.000Z</time>
      </trkpt>
      <trkpt lat="47.88105" lon="7.16918">
        <ele>695.40002441406</ele>
        <time>2020-05-31T06:47:04.000Z</time>
      </trkpt>
      <trkpt lat="47.88108" lon="7.16919">
        <ele>695.79998779297</ele>
        <time>2020-05-31T06:47:06.000Z</time>
      </trkpt>
      <trkpt lat="47.8811" lon="7.16919">
        <ele>696.40002441406</ele>
        <time>2020-05-31T06:47:07.000Z</time>
      </trkpt>
      <trkpt lat="47.88111" lon="7.1692">
        <ele>696.79998779297</ele>
        <time>2020-05-31T06:47:08.000Z</time>
      </trkpt>
      <trkpt lat="47.88113" lon="7.1692">
        <ele>697.20001220703</ele>
        <time>2020-05-31T06:47:09.000Z</time>
      </trkpt>
      <trkpt lat="47.88115" lon="7.16921">
        <ele>697.59997558594</ele>
        <time>2020-05-31T06:47:10.000Z</time>
      </trkpt>
      <trkpt lat="47.8812" lon="7.16922">
        <ele>698</ele>
        <time>2020-05-31T06:47:13.000Z</time>
      </trkpt>
      <trkpt lat="47.88122" lon="7.16922">
        <ele>698.59997558594</ele>
        <time>2020-05-31T06:47:14.000Z</time>
      </trkpt>
      <trkpt lat="47.88124" lon="7.16922">
        <ele>699</ele>
        <time>2020-05-31T06:47:15.000Z</time>
      </trkpt>
      <trkpt lat="47.88126" lon="7.16922">
        <ele>699.40002441406</ele>
        <time>2020-05-31T06:47:16.000Z</time>
      </trkpt>
      <trkpt lat="47.88128" lon="7.16923">
        <ele>699.79998779297</ele>
        <time>2020-05-31T06:47:17.000Z</time>
      </trkpt>
      <trkpt lat="47.88132" lon="7.16924">
        <ele>700.79998779297</ele>
        <time>2020-05-31T06:47:20.000Z</time>
      </trkpt>
      <trkpt lat="47.88134" lon="7.16924">
        <ele>701.20001220703</ele>
        <time>2020-05-31T06:47:21.000Z</time>
      </trkpt>
      <trkpt lat="47.88135" lon="7.16924">
        <ele>701.59997558594</ele>
        <time>2020-05-31T06:47:22.000Z</time>
      </trkpt>
      <trkpt lat="47.88137" lon="7.16925">
        <ele>702</ele>
        <time>2020-05-31T06:47:23.000Z</time>
      </trkpt>
      <trkpt lat="47.8814" lon="7.16926">
        <ele>702.40002441406</ele>
        <time>2020-05-31T06:47:25.000Z</time>
      </trkpt>
      <trkpt lat="47.88141" lon="7.16926">
        <ele>702.79998779297</ele>
        <time>2020-05-31T06:47:26.000Z</time>
      </trkpt>
      <trkpt lat="47.88144" lon="7.16926">
        <ele>703.20001220703</ele>
        <time>2020-05-31T06:47:27.000Z</time>
      </trkpt>
      <trkpt lat="47.88145" lon="7.16927">
        <ele>703.59997558594</ele>
        <time>2020-05-31T06:47:28.000Z</time>
      </trkpt>
      <trkpt lat="47.88147" lon="7.16928">
        <ele>704</ele>
        <time>2020-05-31T06:47:29.000Z</time>
      </trkpt>
      <trkpt lat="47.88151" lon="7.16929">
        <ele>704</ele>
        <time>2020-05-31T06:47:31.000Z</time>
      </trkpt>
      <trkpt lat="47.88154" lon="7.16931">
        <ele>704.40002441406</ele>
        <time>2020-05-31T06:47:33.000Z</time>
      </trkpt>
      <trkpt lat="47.88156" lon="7.16932">
        <ele>704.79998779297</ele>
        <time>2020-05-31T06:47:34.000Z</time>
      </trkpt>
      <trkpt lat="47.88158" lon="7.16933">
        <ele>705.40002441406</ele>
        <time>2020-05-31T06:47:35.000Z</time>
      </trkpt>
      <trkpt lat="47.8816" lon="7.16933">
        <ele>705.79998779297</ele>
        <time>2020-05-31T06:47:36.000Z</time>
      </trkpt>
      <trkpt lat="47.88162" lon="7.16934">
        <ele>706.20001220703</ele>
        <time>2020-05-31T06:47:37.000Z</time>
      </trkpt>
      <trkpt lat="47.88165" lon="7.16935">
        <ele>706.20001220703</ele>
        <time>2020-05-31T06:47:38.000Z</time>
      </trkpt>
      <trkpt lat="47.8817" lon="7.16935">
        <ele>706.59997558594</ele>
        <time>2020-05-31T06:47:40.000Z</time>
      </trkpt>
      <trkpt lat="47.88172" lon="7.16936">
        <ele>707.20001220703</ele>
        <time>2020-05-31T06:47:41.000Z</time>
      </trkpt>
      <trkpt lat="47.88174" lon="7.16936">
        <ele>707.59997558594</ele>
        <time>2020-05-31T06:47:42.000Z</time>
      </trkpt>
      <trkpt lat="47.88176" lon="7.16936">
        <ele>708</ele>
        <time>2020-05-31T06:47:43.000Z</time>
      </trkpt>
      <trkpt lat="47.88178" lon="7.16937">
        <ele>708.40002441406</ele>
        <time>2020-05-31T06:47:44.000Z</time>
      </trkpt>
      <trkpt lat="47.88186" lon="7.16939">
        <ele>708.79998779297</ele>
        <time>2020-05-31T06:47:49.000Z</time>
      </trkpt>
      <trkpt lat="47.88188" lon="7.16939">
        <ele>709.40002441406</ele>
        <time>2020-05-31T06:47:50.000Z</time>
      </trkpt>
      <trkpt lat="47.88191" lon="7.1694">
        <ele>709.79998779297</ele>
        <time>2020-05-31T06:47:51.000Z</time>
      </trkpt>
      <trkpt lat="47.88193" lon="7.1694">
        <ele>710.20001220703</ele>
        <time>2020-05-31T06:47:52.000Z</time>
      </trkpt>
      <trkpt lat="47.88195" lon="7.16939">
        <ele>710.59997558594</ele>
        <time>2020-05-31T06:47:53.000Z</time>
      </trkpt>
      <trkpt lat="47.88204" lon="7.16936">
        <ele>710.59997558594</ele>
        <time>2020-05-31T06:47:57.000Z</time>
      </trkpt>
      <trkpt lat="47.88209" lon="7.16932">
        <ele>711</ele>
        <time>2020-05-31T06:48:00.000Z</time>
      </trkpt>
      <trkpt lat="47.88211" lon="7.1693">
        <ele>711.40002441406</ele>
        <time>2020-05-31T06:48:01.000Z</time>
      </trkpt>
      <trkpt lat="47.88213" lon="7.16929">
        <ele>712</ele>
        <time>2020-05-31T06:48:02.000Z</time>
      </trkpt>
      <trkpt lat="47.88214" lon="7.16927">
        <ele>712.40002441406</ele>
        <time>2020-05-31T06:48:03.000Z</time>
      </trkpt>
      <trkpt lat="47.88215" lon="7.16926">
        <ele>712.79998779297</ele>
        <time>2020-05-31T06:48:04.000Z</time>
      </trkpt>
      <trkpt lat="47.88217" lon="7.16925">
        <ele>712.79998779297</ele>
        <time>2020-05-31T06:49:25.000Z</time>
      </trkpt>
      <trkpt lat="47.88224" lon="7.16923">
        <ele>712.79998779297</ele>
        <time>2020-05-31T06:49:28.000Z</time>
      </trkpt>
      <trkpt lat="47.88239" lon="7.16908">
        <ele>712.79998779297</ele>
        <time>2020-05-31T06:49:32.000Z</time>
      </trkpt>
      <trkpt lat="47.88255" lon="7.16875">
        <ele>712.79998779297</ele>
        <time>2020-05-31T06:49:40.000Z</time>
      </trkpt>
      <trkpt lat="47.88262" lon="7.16861">
        <ele>712.79998779297</ele>
        <time>2020-05-31T06:49:45.000Z</time>
      </trkpt>
      <trkpt lat="47.8827" lon="7.16842">
        <ele>712.79998779297</ele>
        <time>2020-05-31T06:49:51.000Z</time>
      </trkpt>
      <trkpt lat="47.88281" lon="7.16827">
        <ele>712.79998779297</ele>
        <time>2020-05-31T06:49:56.000Z</time>
      </trkpt>
      <trkpt lat="47.88284" lon="7.16825">
        <ele>713.20001220703</ele>
        <time>2020-05-31T06:49:57.000Z</time>
      </trkpt>
      <trkpt lat="47.88286" lon="7.16823">
        <ele>713.59997558594</ele>
        <time>2020-05-31T06:49:58.000Z</time>
      </trkpt>
      <trkpt lat="47.88289" lon="7.16821">
        <ele>714</ele>
        <time>2020-05-31T06:49:59.000Z</time>
      </trkpt>
      <trkpt lat="47.88291" lon="7.16819">
        <ele>714.40002441406</ele>
        <time>2020-05-31T06:50:00.000Z</time>
      </trkpt>
      <trkpt lat="47.88294" lon="7.16818">
        <ele>715</ele>
        <time>2020-05-31T06:50:01.000Z</time>
      </trkpt>
      <trkpt lat="47.88296" lon="7.16816">
        <ele>715</ele>
        <time>2020-05-31T06:50:02.000Z</time>
      </trkpt>
      <trkpt lat="47.88312" lon="7.16801">
        <ele>715</ele>
        <time>2020-05-31T06:50:08.000Z</time>
      </trkpt>
      <trkpt lat="47.8834" lon="7.1679">
        <ele>715</ele>
        <time>2020-05-31T06:50:15.000Z</time>
      </trkpt>
      <trkpt lat="47.88362" lon="7.16785">
        <ele>715</ele>
        <time>2020-05-31T06:50:20.000Z</time>
      </trkpt>
      <trkpt lat="47.88371" lon="7.16783">
        <ele>715</ele>
        <time>2020-05-31T06:50:22.000Z</time>
      </trkpt>
      <trkpt lat="47.88376" lon="7.1678">
        <ele>715</ele>
        <time>2020-05-31T06:50:23.000Z</time>
      </trkpt>
      <trkpt lat="47.8839" lon="7.16777">
        <ele>715</ele>
        <time>2020-05-31T06:50:26.000Z</time>
      </trkpt>
      <trkpt lat="47.884" lon="7.16777">
        <ele>715</ele>
        <time>2020-05-31T06:50:28.000Z</time>
      </trkpt>
      <trkpt lat="47.88418" lon="7.16777">
        <ele>715</ele>
        <time>2020-05-31T06:50:32.000Z</time>
      </trkpt>
      <trkpt lat="47.88456" lon="7.16775">
        <ele>715</ele>
        <time>2020-05-31T06:50:39.000Z</time>
      </trkpt>
      <trkpt lat="47.88471" lon="7.16779">
        <ele>715</ele>
        <time>2020-05-31T06:50:43.000Z</time>
      </trkpt>
      <trkpt lat="47.88498" lon="7.16789">
        <ele>715</ele>
        <time>2020-05-31T06:50:50.000Z</time>
      </trkpt>
      <trkpt lat="47.88519" lon="7.16809">
        <ele>715</ele>
        <time>2020-05-31T06:50:55.000Z</time>
      </trkpt>
      <trkpt lat="47.88523" lon="7.16814">
        <ele>715</ele>
        <time>2020-05-31T06:50:56.000Z</time>
      </trkpt>
      <trkpt lat="47.88548" lon="7.16847">
        <ele>715</ele>
        <time>2020-05-31T06:51:03.000Z</time>
      </trkpt>
      <trkpt lat="47.88566" lon="7.16873">
        <ele>715</ele>
        <time>2020-05-31T06:51:09.000Z</time>
      </trkpt>
      <trkpt lat="47.88589" lon="7.169">
        <ele>715</ele>
        <time>2020-05-31T06:51:16.000Z</time>
      </trkpt>
      <trkpt lat="47.88604" lon="7.16913">
        <ele>715</ele>
        <time>2020-05-31T06:51:20.000Z</time>
      </trkpt>
      <trkpt lat="47.88616" lon="7.16922">
        <ele>715</ele>
        <time>2020-05-31T06:51:23.000Z</time>
      </trkpt>
      <trkpt lat="47.8862" lon="7.16926">
        <ele>714.40002441406</ele>
        <time>2020-05-31T06:51:24.000Z</time>
      </trkpt>
      <trkpt lat="47.88625" lon="7.1693">
        <ele>714</ele>
        <time>2020-05-31T06:51:25.000Z</time>
      </trkpt>
      <trkpt lat="47.88629" lon="7.16935">
        <ele>713.59997558594</ele>
        <time>2020-05-31T06:51:26.000Z</time>
      </trkpt>
      <trkpt lat="47.88633" lon="7.1694">
        <ele>713.20001220703</ele>
        <time>2020-05-31T06:51:27.000Z</time>
      </trkpt>
      <trkpt lat="47.88637" lon="7.16945">
        <ele>712.79998779297</ele>
        <time>2020-05-31T06:51:28.000Z</time>
      </trkpt>
      <trkpt lat="47.88644" lon="7.16953">
        <ele>712.79998779297</ele>
        <time>2020-05-31T06:51:30.000Z</time>
      </trkpt>
      <trkpt lat="47.88666" lon="7.16979">
        <ele>712.79998779297</ele>
        <time>2020-05-31T06:51:37.000Z</time>
      </trkpt>
      <trkpt lat="47.88679" lon="7.16983">
        <ele>712.79998779297</ele>
        <time>2020-05-31T06:51:41.000Z</time>
      </trkpt>
      <trkpt lat="47.88692" lon="7.16967">
        <ele>712.79998779297</ele>
        <time>2020-05-31T06:51:46.000Z</time>
      </trkpt>
      <trkpt lat="47.88701" lon="7.16931">
        <ele>712.79998779297</ele>
        <time>2020-05-31T06:51:52.000Z</time>
      </trkpt>
      <trkpt lat="47.88706" lon="7.1692">
        <ele>712.79998779297</ele>
        <time>2020-05-31T06:51:54.000Z</time>
      </trkpt>
      <trkpt lat="47.88714" lon="7.16897">
        <ele>712.79998779297</ele>
        <time>2020-05-31T06:51:58.000Z</time>
      </trkpt>
      <trkpt lat="47.88729" lon="7.16864">
        <ele>712.79998779297</ele>
        <time>2020-05-31T06:52:04.000Z</time>
      </trkpt>
      <trkpt lat="47.88736" lon="7.16845">
        <ele>712.79998779297</ele>
        <time>2020-05-31T06:52:07.000Z</time>
      </trkpt>
      <trkpt lat="47.8874" lon="7.16825">
        <ele>712.79998779297</ele>
        <time>2020-05-31T06:52:10.000Z</time>
      </trkpt>
      <trkpt lat="47.88739" lon="7.1681">
        <ele>712.79998779297</ele>
        <time>2020-05-31T06:52:12.000Z</time>
      </trkpt>
      <trkpt lat="47.88738" lon="7.16802">
        <ele>712.79998779297</ele>
        <time>2020-05-31T06:52:13.000Z</time>
      </trkpt>
      <trkpt lat="47.88738" lon="7.16787">
        <ele>712.79998779297</ele>
        <time>2020-05-31T06:52:15.000Z</time>
      </trkpt>
      <trkpt lat="47.88737" lon="7.16739">
        <ele>712.79998779297</ele>
        <time>2020-05-31T06:52:22.000Z</time>
      </trkpt>
      <trkpt lat="47.88732" lon="7.16687">
        <ele>712.79998779297</ele>
        <time>2020-05-31T06:52:29.000Z</time>
      </trkpt>
      <trkpt lat="47.88731" lon="7.1668">
        <ele>712.79998779297</ele>
        <time>2020-05-31T06:52:30.000Z</time>
      </trkpt>
      <trkpt lat="47.88728" lon="7.16654">
        <ele>712.79998779297</ele>
        <time>2020-05-31T06:52:34.000Z</time>
      </trkpt>
      <trkpt lat="47.8873" lon="7.16602">
        <ele>712.79998779297</ele>
        <time>2020-05-31T06:52:42.000Z</time>
      </trkpt>
      <trkpt lat="47.8873" lon="7.16552">
        <ele>712.79998779297</ele>
        <time>2020-05-31T06:52:49.000Z</time>
      </trkpt>
      <trkpt lat="47.88735" lon="7.16498">
        <ele>712.79998779297</ele>
        <time>2020-05-31T06:52:56.000Z</time>
      </trkpt>
      <trkpt lat="47.8874" lon="7.16439">
        <ele>712.79998779297</ele>
        <time>2020-05-31T06:53:03.000Z</time>
      </trkpt>
      <trkpt lat="47.88744" lon="7.16387">
        <ele>712.79998779297</ele>
        <time>2020-05-31T06:53:09.000Z</time>
      </trkpt>
      <trkpt lat="47.88747" lon="7.16344">
        <ele>712.79998779297</ele>
        <time>2020-05-31T06:53:14.000Z</time>
      </trkpt>
      <trkpt lat="47.88747" lon="7.16328">
        <ele>712.79998779297</ele>
        <time>2020-05-31T06:53:16.000Z</time>
      </trkpt>
      <trkpt lat="47.88743" lon="7.16296">
        <ele>712.79998779297</ele>
        <time>2020-05-31T06:53:20.000Z</time>
      </trkpt>
      <trkpt lat="47.88736" lon="7.1624">
        <ele>712.79998779297</ele>
        <time>2020-05-31T06:53:27.000Z</time>
      </trkpt>
      <trkpt lat="47.88732" lon="7.16202">
        <ele>712.79998779297</ele>
        <time>2020-05-31T06:53:32.000Z</time>
      </trkpt>
      <trkpt lat="47.88727" lon="7.16177">
        <ele>712.79998779297</ele>
        <time>2020-05-31T06:53:36.000Z</time>
      </trkpt>
      <trkpt lat="47.88727" lon="7.16171">
        <ele>712.79998779297</ele>
        <time>2020-05-31T06:53:37.000Z</time>
      </trkpt>
      <trkpt lat="47.88727" lon="7.1614">
        <ele>712.79998779297</ele>
        <time>2020-05-31T06:53:42.000Z</time>
      </trkpt>
      <trkpt lat="47.88721" lon="7.1612">
        <ele>712.79998779297</ele>
        <time>2020-05-31T06:53:46.000Z</time>
      </trkpt>
      <trkpt lat="47.88719" lon="7.16117">
        <ele>712.79998779297</ele>
        <time>2020-05-31T06:53:47.000Z</time>
      </trkpt>
      <trkpt lat="47.88714" lon="7.16093">
        <ele>713.40002441406</ele>
        <time>2020-05-31T06:53:53.000Z</time>
      </trkpt>
      <trkpt lat="47.88714" lon="7.16089">
        <ele>713.79998779297</ele>
        <time>2020-05-31T06:53:54.000Z</time>
      </trkpt>
      <trkpt lat="47.88712" lon="7.16084">
        <ele>714.20001220703</ele>
        <time>2020-05-31T06:53:55.000Z</time>
      </trkpt>
      <trkpt lat="47.8871" lon="7.16081">
        <ele>715</ele>
        <time>2020-05-31T06:53:56.000Z</time>
      </trkpt>
      <trkpt lat="47.88703" lon="7.16069">
        <ele>715</ele>
        <time>2020-05-31T06:53:59.000Z</time>
      </trkpt>
      <trkpt lat="47.88689" lon="7.16042">
        <ele>715.59997558594</ele>
        <time>2020-05-31T06:54:06.000Z</time>
      </trkpt>
      <trkpt lat="47.88686" lon="7.16038">
        <ele>716</ele>
        <time>2020-05-31T06:54:07.000Z</time>
      </trkpt>
      <trkpt lat="47.88684" lon="7.16035">
        <ele>716.40002441406</ele>
        <time>2020-05-31T06:54:08.000Z</time>
      </trkpt>
      <trkpt lat="47.88682" lon="7.16031">
        <ele>716.79998779297</ele>
        <time>2020-05-31T06:54:09.000Z</time>
      </trkpt>
      <trkpt lat="47.8868" lon="7.16028">
        <ele>717.20001220703</ele>
        <time>2020-05-31T06:54:10.000Z</time>
      </trkpt>
      <trkpt lat="47.88679" lon="7.16024">
        <ele>717.20001220703</ele>
        <time>2020-05-31T06:54:11.000Z</time>
      </trkpt>
      <trkpt lat="47.88671" lon="7.16008">
        <ele>717.79998779297</ele>
        <time>2020-05-31T06:54:15.000Z</time>
      </trkpt>
      <trkpt lat="47.88669" lon="7.16004">
        <ele>718.20001220703</ele>
        <time>2020-05-31T06:54:16.000Z</time>
      </trkpt>
      <trkpt lat="47.88668" lon="7.15999">
        <ele>718.59997558594</ele>
        <time>2020-05-31T06:54:17.000Z</time>
      </trkpt>
      <trkpt lat="47.88666" lon="7.15995">
        <ele>719</ele>
        <time>2020-05-31T06:54:18.000Z</time>
      </trkpt>
      <trkpt lat="47.88663" lon="7.15991">
        <ele>719.40002441406</ele>
        <time>2020-05-31T06:54:19.000Z</time>
      </trkpt>
      <trkpt lat="47.88656" lon="7.15976">
        <ele>720</ele>
        <time>2020-05-31T06:54:23.000Z</time>
      </trkpt>
      <trkpt lat="47.88655" lon="7.15973">
        <ele>720.40002441406</ele>
        <time>2020-05-31T06:54:24.000Z</time>
      </trkpt>
      <trkpt lat="47.88654" lon="7.1597">
        <ele>720.79998779297</ele>
        <time>2020-05-31T06:54:25.000Z</time>
      </trkpt>
      <trkpt lat="47.88653" lon="7.15966">
        <ele>721.40002441406</ele>
        <time>2020-05-31T06:54:26.000Z</time>
      </trkpt>
      <trkpt lat="47.88651" lon="7.15963">
        <ele>721.79998779297</ele>
        <time>2020-05-31T06:54:27.000Z</time>
      </trkpt>
      <trkpt lat="47.88649" lon="7.1596">
        <ele>722.20001220703</ele>
        <time>2020-05-31T06:54:28.000Z</time>
      </trkpt>
      <trkpt lat="47.88647" lon="7.15957">
        <ele>722.59997558594</ele>
        <time>2020-05-31T06:54:29.000Z</time>
      </trkpt>
      <trkpt lat="47.88645" lon="7.15954">
        <ele>723</ele>
        <time>2020-05-31T06:54:30.000Z</time>
      </trkpt>
      <trkpt lat="47.88643" lon="7.1595">
        <ele>723.40002441406</ele>
        <time>2020-05-31T06:54:31.000Z</time>
      </trkpt>
      <trkpt lat="47.88641" lon="7.15947">
        <ele>724</ele>
        <time>2020-05-31T06:54:32.000Z</time>
      </trkpt>
      <trkpt lat="47.88639" lon="7.15943">
        <ele>724.59997558594</ele>
        <time>2020-05-31T06:54:33.000Z</time>
      </trkpt>
      <trkpt lat="47.88638" lon="7.15939">
        <ele>725</ele>
        <time>2020-05-31T06:54:34.000Z</time>
      </trkpt>
      <trkpt lat="47.88636" lon="7.15936">
        <ele>725.59997558594</ele>
        <time>2020-05-31T06:54:35.000Z</time>
      </trkpt>
      <trkpt lat="47.88635" lon="7.15933">
        <ele>726.20001220703</ele>
        <time>2020-05-31T06:54:36.000Z</time>
      </trkpt>
      <trkpt lat="47.88634" lon="7.1593">
        <ele>726.59997558594</ele>
        <time>2020-05-31T06:54:37.000Z</time>
      </trkpt>
      <trkpt lat="47.88634" lon="7.15926">
        <ele>727</ele>
        <time>2020-05-31T06:54:38.000Z</time>
      </trkpt>
      <trkpt lat="47.88633" lon="7.15923">
        <ele>727.59997558594</ele>
        <time>2020-05-31T06:54:39.000Z</time>
      </trkpt>
      <trkpt lat="47.88632" lon="7.1592">
        <ele>728</ele>
        <time>2020-05-31T06:54:40.000Z</time>
      </trkpt>
      <trkpt lat="47.88631" lon="7.15916">
        <ele>728.59997558594</ele>
        <time>2020-05-31T06:54:41.000Z</time>
      </trkpt>
      <trkpt lat="47.8863" lon="7.15909">
        <ele>729</ele>
        <time>2020-05-31T06:54:43.000Z</time>
      </trkpt>
      <trkpt lat="47.88629" lon="7.15906">
        <ele>729.40002441406</ele>
        <time>2020-05-31T06:54:44.000Z</time>
      </trkpt>
      <trkpt lat="47.88628" lon="7.15902">
        <ele>730.20001220703</ele>
        <time>2020-05-31T06:54:45.000Z</time>
      </trkpt>
      <trkpt lat="47.88629" lon="7.15898">
        <ele>730.79998779297</ele>
        <time>2020-05-31T06:54:46.000Z</time>
      </trkpt>
      <trkpt lat="47.88628" lon="7.15894">
        <ele>730.79998779297</ele>
        <time>2020-05-31T06:54:47.000Z</time>
      </trkpt>
      <trkpt lat="47.88626" lon="7.15881">
        <ele>731.20001220703</ele>
        <time>2020-05-31T06:54:51.000Z</time>
      </trkpt>
      <trkpt lat="47.88625" lon="7.15878">
        <ele>731.59997558594</ele>
        <time>2020-05-31T06:54:52.000Z</time>
      </trkpt>
      <trkpt lat="47.88624" lon="7.15875">
        <ele>732</ele>
        <time>2020-05-31T06:54:53.000Z</time>
      </trkpt>
      <trkpt lat="47.88623" lon="7.15873">
        <ele>732.40002441406</ele>
        <time>2020-05-31T06:54:54.000Z</time>
      </trkpt>
      <trkpt lat="47.88622" lon="7.1587">
        <ele>732.79998779297</ele>
        <time>2020-05-31T06:54:55.000Z</time>
      </trkpt>
      <trkpt lat="47.88619" lon="7.15863">
        <ele>733.20001220703</ele>
        <time>2020-05-31T06:54:58.000Z</time>
      </trkpt>
      <trkpt lat="47.88617" lon="7.15861">
        <ele>733.59997558594</ele>
        <time>2020-05-31T06:54:59.000Z</time>
      </trkpt>
      <trkpt lat="47.88616" lon="7.15859">
        <ele>734</ele>
        <time>2020-05-31T06:55:00.000Z</time>
      </trkpt>
      <trkpt lat="47.88615" lon="7.15855">
        <ele>734.40002441406</ele>
        <time>2020-05-31T06:55:01.000Z</time>
      </trkpt>
      <trkpt lat="47.88613" lon="7.15853">
        <ele>734.79998779297</ele>
        <time>2020-05-31T06:55:02.000Z</time>
      </trkpt>
      <trkpt lat="47.88608" lon="7.15848">
        <ele>734.79998779297</ele>
        <time>2020-05-31T06:55:05.000Z</time>
      </trkpt>
      <trkpt lat="47.88607" lon="7.15847">
        <ele>735.40002441406</ele>
        <time>2020-05-31T06:55:06.000Z</time>
      </trkpt>
      <trkpt lat="47.88605" lon="7.15846">
        <ele>735.79998779297</ele>
        <time>2020-05-31T06:55:07.000Z</time>
      </trkpt>
      <trkpt lat="47.88603" lon="7.15845">
        <ele>736.20001220703</ele>
        <time>2020-05-31T06:55:08.000Z</time>
      </trkpt>
      <trkpt lat="47.88602" lon="7.15844">
        <ele>736.79998779297</ele>
        <time>2020-05-31T06:55:09.000Z</time>
      </trkpt>
      <trkpt lat="47.886" lon="7.15842">
        <ele>737.20001220703</ele>
        <time>2020-05-31T06:55:10.000Z</time>
      </trkpt>
      <trkpt lat="47.88598" lon="7.15841">
        <ele>738</ele>
        <time>2020-05-31T06:55:11.000Z</time>
      </trkpt>
      <trkpt lat="47.88596" lon="7.1584">
        <ele>738.40002441406</ele>
        <time>2020-05-31T06:55:12.000Z</time>
      </trkpt>
      <trkpt lat="47.88593" lon="7.15838">
        <ele>738.79998779297</ele>
        <time>2020-05-31T06:55:13.000Z</time>
      </trkpt>
      <trkpt lat="47.88591" lon="7.15836">
        <ele>739.40002441406</ele>
        <time>2020-05-31T06:55:14.000Z</time>
      </trkpt>
      <trkpt lat="47.88589" lon="7.15835">
        <ele>739.79998779297</ele>
        <time>2020-05-31T06:55:15.000Z</time>
      </trkpt>
      <trkpt lat="47.88587" lon="7.15834">
        <ele>740.20001220703</ele>
        <time>2020-05-31T06:55:16.000Z</time>
      </trkpt>
      <trkpt lat="47.88585" lon="7.15832">
        <ele>740.59997558594</ele>
        <time>2020-05-31T06:55:17.000Z</time>
      </trkpt>
      <trkpt lat="47.88583" lon="7.1583">
        <ele>741</ele>
        <time>2020-05-31T06:55:18.000Z</time>
      </trkpt>
      <trkpt lat="47.88581" lon="7.15829">
        <ele>741.40002441406</ele>
        <time>2020-05-31T06:55:19.000Z</time>
      </trkpt>
      <trkpt lat="47.8858" lon="7.15827">
        <ele>741.79998779297</ele>
        <time>2020-05-31T06:55:20.000Z</time>
      </trkpt>
      <trkpt lat="47.88578" lon="7.15825">
        <ele>742.20001220703</ele>
        <time>2020-05-31T06:55:21.000Z</time>
      </trkpt>
      <trkpt lat="47.88577" lon="7.15823">
        <ele>742.59997558594</ele>
        <time>2020-05-31T06:55:22.000Z</time>
      </trkpt>
      <trkpt lat="47.88576" lon="7.15821">
        <ele>743</ele>
        <time>2020-05-31T06:55:23.000Z</time>
      </trkpt>
      <trkpt lat="47.88574" lon="7.15818">
        <ele>743.40002441406</ele>
        <time>2020-05-31T06:55:24.000Z</time>
      </trkpt>
      <trkpt lat="47.88572" lon="7.15812">
        <ele>743.79998779297</ele>
        <time>2020-05-31T06:55:26.000Z</time>
      </trkpt>
      <trkpt lat="47.88572" lon="7.15809">
        <ele>744.20001220703</ele>
        <time>2020-05-31T06:55:27.000Z</time>
      </trkpt>
      <trkpt lat="47.88572" lon="7.15806">
        <ele>744.59997558594</ele>
        <time>2020-05-31T06:55:28.000Z</time>
      </trkpt>
      <trkpt lat="47.88573" lon="7.15803">
        <ele>745.20001220703</ele>
        <time>2020-05-31T06:55:29.000Z</time>
      </trkpt>
      <trkpt lat="47.88573" lon="7.158">
        <ele>745.59997558594</ele>
        <time>2020-05-31T06:55:30.000Z</time>
      </trkpt>
      <trkpt lat="47.88574" lon="7.1578">
        <ele>746.40002441406</ele>
        <time>2020-05-31T06:55:36.000Z</time>
      </trkpt>
      <trkpt lat="47.88574" lon="7.15777">
        <ele>746.79998779297</ele>
        <time>2020-05-31T06:55:37.000Z</time>
      </trkpt>
      <trkpt lat="47.88574" lon="7.15774">
        <ele>747.20001220703</ele>
        <time>2020-05-31T06:55:38.000Z</time>
      </trkpt>
      <trkpt lat="47.88574" lon="7.15771">
        <ele>747.59997558594</ele>
        <time>2020-05-31T06:55:39.000Z</time>
      </trkpt>
      <trkpt lat="47.88573" lon="7.15768">
        <ele>747.59997558594</ele>
        <time>2020-05-31T06:55:41.000Z</time>
      </trkpt>
      <trkpt lat="47.88575" lon="7.15759">
        <ele>748</ele>
        <time>2020-05-31T06:55:44.000Z</time>
      </trkpt>
      <trkpt lat="47.88575" lon="7.15756">
        <ele>748.59997558594</ele>
        <time>2020-05-31T06:55:45.000Z</time>
      </trkpt>
      <trkpt lat="47.88575" lon="7.15753">
        <ele>749</ele>
        <time>2020-05-31T06:55:46.000Z</time>
      </trkpt>
      <trkpt lat="47.88575" lon="7.15749">
        <ele>749.40002441406</ele>
        <time>2020-05-31T06:55:47.000Z</time>
      </trkpt>
      <trkpt lat="47.88575" lon="7.15745">
        <ele>749.79998779297</ele>
        <time>2020-05-31T06:55:48.000Z</time>
      </trkpt>
      <trkpt lat="47.88575" lon="7.15742">
        <ele>749.79998779297</ele>
        <time>2020-05-31T06:55:49.000Z</time>
      </trkpt>
      <trkpt lat="47.88575" lon="7.1573">
        <ele>750.20001220703</ele>
        <time>2020-05-31T06:55:52.000Z</time>
      </trkpt>
      <trkpt lat="47.88575" lon="7.15727">
        <ele>750.79998779297</ele>
        <time>2020-05-31T06:55:53.000Z</time>
      </trkpt>
      <trkpt lat="47.88575" lon="7.15724">
        <ele>751.20001220703</ele>
        <time>2020-05-31T06:55:54.000Z</time>
      </trkpt>
      <trkpt lat="47.88574" lon="7.15721">
        <ele>751.59997558594</ele>
        <time>2020-05-31T06:55:55.000Z</time>
      </trkpt>
      <trkpt lat="47.88574" lon="7.15718">
        <ele>752</ele>
        <time>2020-05-31T06:55:56.000Z</time>
      </trkpt>
      <trkpt lat="47.88572" lon="7.15706">
        <ele>753</ele>
        <time>2020-05-31T06:56:00.000Z</time>
      </trkpt>
      <trkpt lat="47.88571" lon="7.15703">
        <ele>753.40002441406</ele>
        <time>2020-05-31T06:56:01.000Z</time>
      </trkpt>
      <trkpt lat="47.8857" lon="7.15701">
        <ele>753.79998779297</ele>
        <time>2020-05-31T06:56:02.000Z</time>
      </trkpt>
      <trkpt lat="47.8857" lon="7.15697">
        <ele>754.40002441406</ele>
        <time>2020-05-31T06:56:03.000Z</time>
      </trkpt>
      <trkpt lat="47.88569" lon="7.1569">
        <ele>754.79998779297</ele>
        <time>2020-05-31T06:56:06.000Z</time>
      </trkpt>
      <trkpt lat="47.88568" lon="7.15688">
        <ele>755.20001220703</ele>
        <time>2020-05-31T06:56:07.000Z</time>
      </trkpt>
      <trkpt lat="47.88568" lon="7.15686">
        <ele>755.59997558594</ele>
        <time>2020-05-31T06:56:08.000Z</time>
      </trkpt>
      <trkpt lat="47.88568" lon="7.15683">
        <ele>756.20001220703</ele>
        <time>2020-05-31T06:56:09.000Z</time>
      </trkpt>
      <trkpt lat="47.88568" lon="7.15681">
        <ele>756.59997558594</ele>
        <time>2020-05-31T06:56:10.000Z</time>
      </trkpt>
      <trkpt lat="47.88568" lon="7.15679">
        <ele>757</ele>
        <time>2020-05-31T06:56:11.000Z</time>
      </trkpt>
      <trkpt lat="47.88567" lon="7.15676">
        <ele>757.40002441406</ele>
        <time>2020-05-31T06:56:12.000Z</time>
      </trkpt>
      <trkpt lat="47.88566" lon="7.15673">
        <ele>757.79998779297</ele>
        <time>2020-05-31T06:56:13.000Z</time>
      </trkpt>
      <trkpt lat="47.88566" lon="7.15671">
        <ele>758.20001220703</ele>
        <time>2020-05-31T06:56:14.000Z</time>
      </trkpt>
      <trkpt lat="47.88566" lon="7.15667">
        <ele>758.59997558594</ele>
        <time>2020-05-31T06:56:15.000Z</time>
      </trkpt>
      <trkpt lat="47.88567" lon="7.15662">
        <ele>759</ele>
        <time>2020-05-31T06:56:17.000Z</time>
      </trkpt>
      <trkpt lat="47.88567" lon="7.15659">
        <ele>759.59997558594</ele>
        <time>2020-05-31T06:56:18.000Z</time>
      </trkpt>
      <trkpt lat="47.88567" lon="7.15656">
        <ele>760</ele>
        <time>2020-05-31T06:56:19.000Z</time>
      </trkpt>
      <trkpt lat="47.88566" lon="7.15653">
        <ele>760.40002441406</ele>
        <time>2020-05-31T06:56:20.000Z</time>
      </trkpt>
      <trkpt lat="47.88566" lon="7.1565">
        <ele>760.79998779297</ele>
        <time>2020-05-31T06:56:21.000Z</time>
      </trkpt>
      <trkpt lat="47.88565" lon="7.15643">
        <ele>761.20001220703</ele>
        <time>2020-05-31T06:56:23.000Z</time>
      </trkpt>
      <trkpt lat="47.88565" lon="7.15641">
        <ele>761.59997558594</ele>
        <time>2020-05-31T06:56:24.000Z</time>
      </trkpt>
      <trkpt lat="47.88565" lon="7.15638">
        <ele>762.40002441406</ele>
        <time>2020-05-31T06:56:25.000Z</time>
      </trkpt>
      <trkpt lat="47.88564" lon="7.15634">
        <ele>762.79998779297</ele>
        <time>2020-05-31T06:56:26.000Z</time>
      </trkpt>
      <trkpt lat="47.88562" lon="7.15629">
        <ele>762.79998779297</ele>
        <time>2020-05-31T06:56:28.000Z</time>
      </trkpt>
      <trkpt lat="47.88561" lon="7.15626">
        <ele>762.79998779297</ele>
        <time>2020-05-31T06:56:29.000Z</time>
      </trkpt>
      <trkpt lat="47.88559" lon="7.15612">
        <ele>763.20001220703</ele>
        <time>2020-05-31T06:56:34.000Z</time>
      </trkpt>
      <trkpt lat="47.88559" lon="7.15609">
        <ele>763.59997558594</ele>
        <time>2020-05-31T06:56:35.000Z</time>
      </trkpt>
      <trkpt lat="47.88558" lon="7.15606">
        <ele>764.20001220703</ele>
        <time>2020-05-31T06:56:36.000Z</time>
      </trkpt>
      <trkpt lat="47.88558" lon="7.15603">
        <ele>764.59997558594</ele>
        <time>2020-05-31T06:56:37.000Z</time>
      </trkpt>
      <trkpt lat="47.88557" lon="7.156">
        <ele>765</ele>
        <time>2020-05-31T06:56:38.000Z</time>
      </trkpt>
      <trkpt lat="47.88557" lon="7.15594">
        <ele>765</ele>
        <time>2020-05-31T06:56:40.000Z</time>
      </trkpt>
      <trkpt lat="47.88554" lon="7.15581">
        <ele>765</ele>
        <time>2020-05-31T06:56:45.000Z</time>
      </trkpt>
      <trkpt lat="47.88553" lon="7.15578">
        <ele>765</ele>
        <time>2020-05-31T06:56:46.000Z</time>
      </trkpt>
      <trkpt lat="47.88552" lon="7.15564">
        <ele>765</ele>
        <time>2020-05-31T06:56:50.000Z</time>
      </trkpt>
      <trkpt lat="47.88551" lon="7.1556">
        <ele>765.40002441406</ele>
        <time>2020-05-31T06:56:51.000Z</time>
      </trkpt>
      <trkpt lat="47.88551" lon="7.15556">
        <ele>765.79998779297</ele>
        <time>2020-05-31T06:56:52.000Z</time>
      </trkpt>
      <trkpt lat="47.8855" lon="7.15553">
        <ele>766.20001220703</ele>
        <time>2020-05-31T06:56:53.000Z</time>
      </trkpt>
      <trkpt lat="47.8855" lon="7.1555">
        <ele>766.79998779297</ele>
        <time>2020-05-31T06:56:54.000Z</time>
      </trkpt>
      <trkpt lat="47.88549" lon="7.15546">
        <ele>767.20001220703</ele>
        <time>2020-05-31T06:56:55.000Z</time>
      </trkpt>
      <trkpt lat="47.88547" lon="7.15531">
        <ele>767.59997558594</ele>
        <time>2020-05-31T06:57:00.000Z</time>
      </trkpt>
      <trkpt lat="47.88547" lon="7.15528">
        <ele>768</ele>
        <time>2020-05-31T06:57:01.000Z</time>
      </trkpt>
      <trkpt lat="47.88547" lon="7.15526">
        <ele>768.40002441406</ele>
        <time>2020-05-31T06:57:02.000Z</time>
      </trkpt>
      <trkpt lat="47.88548" lon="7.15524">
        <ele>769</ele>
        <time>2020-05-31T06:57:03.000Z</time>
      </trkpt>
      <trkpt lat="47.88548" lon="7.15522">
        <ele>769.40002441406</ele>
        <time>2020-05-31T06:57:04.000Z</time>
      </trkpt>
      <trkpt lat="47.88549" lon="7.15515">
        <ele>769.79998779297</ele>
        <time>2020-05-31T06:57:07.000Z</time>
      </trkpt>
      <trkpt lat="47.8855" lon="7.15511">
        <ele>770.20001220703</ele>
        <time>2020-05-31T06:57:08.000Z</time>
      </trkpt>
      <trkpt lat="47.88551" lon="7.15508">
        <ele>770.59997558594</ele>
        <time>2020-05-31T06:57:09.000Z</time>
      </trkpt>
      <trkpt lat="47.88552" lon="7.15505">
        <ele>771.20001220703</ele>
        <time>2020-05-31T06:57:10.000Z</time>
      </trkpt>
      <trkpt lat="47.88553" lon="7.15503">
        <ele>771.59997558594</ele>
        <time>2020-05-31T06:57:11.000Z</time>
      </trkpt>
      <trkpt lat="47.88554" lon="7.15498">
        <ele>772</ele>
        <time>2020-05-31T06:57:13.000Z</time>
      </trkpt>
      <trkpt lat="47.88555" lon="7.15496">
        <ele>772.40002441406</ele>
        <time>2020-05-31T06:57:14.000Z</time>
      </trkpt>
      <trkpt lat="47.88556" lon="7.15494">
        <ele>773.20001220703</ele>
        <time>2020-05-31T06:57:15.000Z</time>
      </trkpt>
      <trkpt lat="47.88557" lon="7.15492">
        <ele>773.59997558594</ele>
        <time>2020-05-31T06:57:16.000Z</time>
      </trkpt>
      <trkpt lat="47.88559" lon="7.15488">
        <ele>774</ele>
        <time>2020-05-31T06:57:18.000Z</time>
      </trkpt>
      <trkpt lat="47.8856" lon="7.15486">
        <ele>774.40002441406</ele>
        <time>2020-05-31T06:57:19.000Z</time>
      </trkpt>
      <trkpt lat="47.88561" lon="7.15484">
        <ele>775</ele>
        <time>2020-05-31T06:57:20.000Z</time>
      </trkpt>
      <trkpt lat="47.88562" lon="7.15482">
        <ele>775.40002441406</ele>
        <time>2020-05-31T06:57:21.000Z</time>
      </trkpt>
      <trkpt lat="47.88563" lon="7.1548">
        <ele>775.79998779297</ele>
        <time>2020-05-31T06:57:22.000Z</time>
      </trkpt>
      <trkpt lat="47.88564" lon="7.15478">
        <ele>776.20001220703</ele>
        <time>2020-05-31T06:57:23.000Z</time>
      </trkpt>
      <trkpt lat="47.88565" lon="7.15477">
        <ele>776.59997558594</ele>
        <time>2020-05-31T06:57:24.000Z</time>
      </trkpt>
      <trkpt lat="47.88566" lon="7.15475">
        <ele>777.20001220703</ele>
        <time>2020-05-31T06:57:25.000Z</time>
      </trkpt>
      <trkpt lat="47.88567" lon="7.15473">
        <ele>777.59997558594</ele>
        <time>2020-05-31T06:57:26.000Z</time>
      </trkpt>
      <trkpt lat="47.88567" lon="7.15471">
        <ele>778</ele>
        <time>2020-05-31T06:57:27.000Z</time>
      </trkpt>
      <trkpt lat="47.88568" lon="7.15469">
        <ele>778.40002441406</ele>
        <time>2020-05-31T06:57:28.000Z</time>
      </trkpt>
      <trkpt lat="47.88568" lon="7.15467">
        <ele>778.79998779297</ele>
        <time>2020-05-31T06:57:29.000Z</time>
      </trkpt>
      <trkpt lat="47.88569" lon="7.15464">
        <ele>779.20001220703</ele>
        <time>2020-05-31T06:57:30.000Z</time>
      </trkpt>
      <trkpt lat="47.88569" lon="7.15462">
        <ele>779.59997558594</ele>
        <time>2020-05-31T06:57:31.000Z</time>
      </trkpt>
      <trkpt lat="47.8857" lon="7.1546">
        <ele>780</ele>
        <time>2020-05-31T06:57:32.000Z</time>
      </trkpt>
      <trkpt lat="47.8857" lon="7.15457">
        <ele>780.59997558594</ele>
        <time>2020-05-31T06:57:33.000Z</time>
      </trkpt>
      <trkpt lat="47.8857" lon="7.15454">
        <ele>781</ele>
        <time>2020-05-31T06:57:34.000Z</time>
      </trkpt>
      <trkpt lat="47.8857" lon="7.15451">
        <ele>781.59997558594</ele>
        <time>2020-05-31T06:57:35.000Z</time>
      </trkpt>
      <trkpt lat="47.8857" lon="7.15449">
        <ele>782</ele>
        <time>2020-05-31T06:57:36.000Z</time>
      </trkpt>
      <trkpt lat="47.8857" lon="7.15445">
        <ele>782.59997558594</ele>
        <time>2020-05-31T06:57:38.000Z</time>
      </trkpt>
      <trkpt lat="47.8857" lon="7.15443">
        <ele>783</ele>
        <time>2020-05-31T06:57:39.000Z</time>
      </trkpt>
      <trkpt lat="47.8857" lon="7.15441">
        <ele>784</ele>
        <time>2020-05-31T06:57:40.000Z</time>
      </trkpt>
      <trkpt lat="47.88571" lon="7.15439">
        <ele>784.59997558594</ele>
        <time>2020-05-31T06:57:41.000Z</time>
      </trkpt>
      <trkpt lat="47.88572" lon="7.15437">
        <ele>785</ele>
        <time>2020-05-31T06:57:42.000Z</time>
      </trkpt>
      <trkpt lat="47.88572" lon="7.15435">
        <ele>785.40002441406</ele>
        <time>2020-05-31T06:57:43.000Z</time>
      </trkpt>
      <trkpt lat="47.88572" lon="7.15433">
        <ele>785.79998779297</ele>
        <time>2020-05-31T06:57:44.000Z</time>
      </trkpt>
      <trkpt lat="47.88573" lon="7.1543">
        <ele>786.20001220703</ele>
        <time>2020-05-31T06:57:45.000Z</time>
      </trkpt>
      <trkpt lat="47.88573" lon="7.15427">
        <ele>786.79998779297</ele>
        <time>2020-05-31T06:57:46.000Z</time>
      </trkpt>
      <trkpt lat="47.88574" lon="7.15424">
        <ele>787.20001220703</ele>
        <time>2020-05-31T06:57:47.000Z</time>
      </trkpt>
      <trkpt lat="47.88574" lon="7.15422">
        <ele>787.59997558594</ele>
        <time>2020-05-31T06:57:48.000Z</time>
      </trkpt>
      <trkpt lat="47.88574" lon="7.1542">
        <ele>788</ele>
        <time>2020-05-31T06:57:49.000Z</time>
      </trkpt>
      <trkpt lat="47.88574" lon="7.15417">
        <ele>788.40002441406</ele>
        <time>2020-05-31T06:57:50.000Z</time>
      </trkpt>
      <trkpt lat="47.88575" lon="7.15415">
        <ele>788.79998779297</ele>
        <time>2020-05-31T06:57:51.000Z</time>
      </trkpt>
      <trkpt lat="47.88575" lon="7.15414">
        <ele>789.20001220703</ele>
        <time>2020-05-31T06:57:52.000Z</time>
      </trkpt>
      <trkpt lat="47.88576" lon="7.15411">
        <ele>789.79998779297</ele>
        <time>2020-05-31T06:57:53.000Z</time>
      </trkpt>
      <trkpt lat="47.88577" lon="7.15408">
        <ele>790.20001220703</ele>
        <time>2020-05-31T06:57:54.000Z</time>
      </trkpt>
      <trkpt lat="47.88577" lon="7.15405">
        <ele>790.59997558594</ele>
        <time>2020-05-31T06:57:55.000Z</time>
      </trkpt>
      <trkpt lat="47.88577" lon="7.15402">
        <ele>791</ele>
        <time>2020-05-31T06:57:56.000Z</time>
      </trkpt>
      <trkpt lat="47.88578" lon="7.15399">
        <ele>791.40002441406</ele>
        <time>2020-05-31T06:57:57.000Z</time>
      </trkpt>
      <trkpt lat="47.88578" lon="7.15396">
        <ele>792</ele>
        <time>2020-05-31T06:57:58.000Z</time>
      </trkpt>
      <trkpt lat="47.88579" lon="7.15394">
        <ele>792.40002441406</ele>
        <time>2020-05-31T06:57:59.000Z</time>
      </trkpt>
      <trkpt lat="47.8858" lon="7.15392">
        <ele>792.79998779297</ele>
        <time>2020-05-31T06:58:00.000Z</time>
      </trkpt>
      <trkpt lat="47.88581" lon="7.1539">
        <ele>793.20001220703</ele>
        <time>2020-05-31T06:58:01.000Z</time>
      </trkpt>
      <trkpt lat="47.88582" lon="7.15389">
        <ele>793.59997558594</ele>
        <time>2020-05-31T06:58:02.000Z</time>
      </trkpt>
      <trkpt lat="47.88583" lon="7.15387">
        <ele>794</ele>
        <time>2020-05-31T06:58:03.000Z</time>
      </trkpt>
      <trkpt lat="47.88585" lon="7.15384">
        <ele>794.79998779297</ele>
        <time>2020-05-31T06:58:04.000Z</time>
      </trkpt>
      <trkpt lat="47.88586" lon="7.15383">
        <ele>795.20001220703</ele>
        <time>2020-05-31T06:58:05.000Z</time>
      </trkpt>
      <trkpt lat="47.88587" lon="7.15378">
        <ele>795.79998779297</ele>
        <time>2020-05-31T06:58:07.000Z</time>
      </trkpt>
      <trkpt lat="47.88587" lon="7.15376">
        <ele>796.20001220703</ele>
        <time>2020-05-31T06:58:08.000Z</time>
      </trkpt>
      <trkpt lat="47.88588" lon="7.15373">
        <ele>796.59997558594</ele>
        <time>2020-05-31T06:58:09.000Z</time>
      </trkpt>
      <trkpt lat="47.88589" lon="7.1537">
        <ele>797.20001220703</ele>
        <time>2020-05-31T06:58:10.000Z</time>
      </trkpt>
      <trkpt lat="47.88589" lon="7.15369">
        <ele>797.59997558594</ele>
        <time>2020-05-31T06:58:11.000Z</time>
      </trkpt>
      <trkpt lat="47.88592" lon="7.15361">
        <ele>798</ele>
        <time>2020-05-31T06:58:14.000Z</time>
      </trkpt>
      <trkpt lat="47.88593" lon="7.15358">
        <ele>798.40002441406</ele>
        <time>2020-05-31T06:58:15.000Z</time>
      </trkpt>
      <trkpt lat="47.88594" lon="7.15356">
        <ele>798.79998779297</ele>
        <time>2020-05-31T06:58:16.000Z</time>
      </trkpt>
      <trkpt lat="47.88595" lon="7.15354">
        <ele>799.20001220703</ele>
        <time>2020-05-31T06:58:17.000Z</time>
      </trkpt>
      <trkpt lat="47.88596" lon="7.15352">
        <ele>799.79998779297</ele>
        <time>2020-05-31T06:58:18.000Z</time>
      </trkpt>
      <trkpt lat="47.88597" lon="7.15346">
        <ele>800.20001220703</ele>
        <time>2020-05-31T06:58:21.000Z</time>
      </trkpt>
      <trkpt lat="47.88597" lon="7.15344">
        <ele>800.59997558594</ele>
        <time>2020-05-31T06:58:22.000Z</time>
      </trkpt>
      <trkpt lat="47.88598" lon="7.15341">
        <ele>801</ele>
        <time>2020-05-31T06:58:23.000Z</time>
      </trkpt>
      <trkpt lat="47.88598" lon="7.15339">
        <ele>801.59997558594</ele>
        <time>2020-05-31T06:58:24.000Z</time>
      </trkpt>
      <trkpt lat="47.88598" lon="7.15337">
        <ele>802</ele>
        <time>2020-05-31T06:58:25.000Z</time>
      </trkpt>
      <trkpt lat="47.88599" lon="7.15329">
        <ele>802.40002441406</ele>
        <time>2020-05-31T06:58:28.000Z</time>
      </trkpt>
      <trkpt lat="47.88599" lon="7.15326">
        <ele>803.20001220703</ele>
        <time>2020-05-31T06:58:29.000Z</time>
      </trkpt>
      <trkpt lat="47.88599" lon="7.15324">
        <ele>803.59997558594</ele>
        <time>2020-05-31T06:58:30.000Z</time>
      </trkpt>
      <trkpt lat="47.88599" lon="7.15322">
        <ele>804</ele>
        <time>2020-05-31T06:58:31.000Z</time>
      </trkpt>
      <trkpt lat="47.88598" lon="7.15315">
        <ele>804.40002441406</ele>
        <time>2020-05-31T06:58:35.000Z</time>
      </trkpt>
      <trkpt lat="47.88599" lon="7.15311">
        <ele>804.79998779297</ele>
        <time>2020-05-31T06:58:36.000Z</time>
      </trkpt>
      <trkpt lat="47.886" lon="7.15307">
        <ele>805.40002441406</ele>
        <time>2020-05-31T06:58:37.000Z</time>
      </trkpt>
      <trkpt lat="47.88601" lon="7.15304">
        <ele>805.79998779297</ele>
        <time>2020-05-31T06:58:38.000Z</time>
      </trkpt>
      <trkpt lat="47.88601" lon="7.15301">
        <ele>806.20001220703</ele>
        <time>2020-05-31T06:58:39.000Z</time>
      </trkpt>
      <trkpt lat="47.88603" lon="7.15291">
        <ele>806.20001220703</ele>
        <time>2020-05-31T06:58:42.000Z</time>
      </trkpt>
      <trkpt lat="47.88604" lon="7.15288">
        <ele>806.59997558594</ele>
        <time>2020-05-31T06:58:43.000Z</time>
      </trkpt>
      <trkpt lat="47.88604" lon="7.15285">
        <ele>807</ele>
        <time>2020-05-31T06:58:44.000Z</time>
      </trkpt>
      <trkpt lat="47.88604" lon="7.15283">
        <ele>807.40002441406</ele>
        <time>2020-05-31T06:58:45.000Z</time>
      </trkpt>
      <trkpt lat="47.88605" lon="7.1528">
        <ele>808</ele>
        <time>2020-05-31T06:58:46.000Z</time>
      </trkpt>
      <trkpt lat="47.88605" lon="7.15276">
        <ele>808.40002441406</ele>
        <time>2020-05-31T06:58:47.000Z</time>
      </trkpt>
      <trkpt lat="47.88605" lon="7.15274">
        <ele>808.40002441406</ele>
        <time>2020-05-31T06:58:48.000Z</time>
      </trkpt>
      <trkpt lat="47.88605" lon="7.15271">
        <ele>808.40002441406</ele>
        <time>2020-05-31T06:58:49.000Z</time>
      </trkpt>
      <trkpt lat="47.88603" lon="7.15264">
        <ele>809.20001220703</ele>
        <time>2020-05-31T06:58:52.000Z</time>
      </trkpt>
      <trkpt lat="47.88602" lon="7.15262">
        <ele>809.59997558594</ele>
        <time>2020-05-31T06:58:53.000Z</time>
      </trkpt>
      <trkpt lat="47.88602" lon="7.1526">
        <ele>810</ele>
        <time>2020-05-31T06:58:54.000Z</time>
      </trkpt>
      <trkpt lat="47.88602" lon="7.15258">
        <ele>810.59997558594</ele>
        <time>2020-05-31T06:58:55.000Z</time>
      </trkpt>
      <trkpt lat="47.88601" lon="7.15247">
        <ele>810.59997558594</ele>
        <time>2020-05-31T06:59:00.000Z</time>
      </trkpt>
      <trkpt lat="47.88601" lon="7.15245">
        <ele>811</ele>
        <time>2020-05-31T06:59:01.000Z</time>
      </trkpt>
      <trkpt lat="47.88601" lon="7.15242">
        <ele>811.40002441406</ele>
        <time>2020-05-31T06:59:02.000Z</time>
      </trkpt>
      <trkpt lat="47.886" lon="7.1524">
        <ele>811.79998779297</ele>
        <time>2020-05-31T06:59:03.000Z</time>
      </trkpt>
      <trkpt lat="47.88599" lon="7.15238">
        <ele>812.20001220703</ele>
        <time>2020-05-31T06:59:04.000Z</time>
      </trkpt>
      <trkpt lat="47.88599" lon="7.15237">
        <ele>812.59997558594</ele>
        <time>2020-05-31T06:59:05.000Z</time>
      </trkpt>
      <trkpt lat="47.88599" lon="7.15235">
        <ele>812.59997558594</ele>
        <time>2020-05-31T06:59:06.000Z</time>
      </trkpt>
      <trkpt lat="47.88598" lon="7.15231">
        <ele>812.59997558594</ele>
        <time>2020-05-31T06:59:09.000Z</time>
      </trkpt>
      <trkpt lat="47.88599" lon="7.15223">
        <ele>812.59997558594</ele>
        <time>2020-05-31T07:01:49.000Z</time>
      </trkpt>
      <trkpt lat="47.886" lon="7.1522">
        <ele>812.59997558594</ele>
        <time>2020-05-31T07:01:50.000Z</time>
      </trkpt>
      <trkpt lat="47.88604" lon="7.152">
        <ele>812.59997558594</ele>
        <time>2020-05-31T07:01:57.000Z</time>
      </trkpt>
      <trkpt lat="47.88605" lon="7.15181">
        <ele>813</ele>
        <time>2020-05-31T07:02:03.000Z</time>
      </trkpt>
      <trkpt lat="47.88605" lon="7.15179">
        <ele>813.40002441406</ele>
        <time>2020-05-31T07:02:04.000Z</time>
      </trkpt>
      <trkpt lat="47.88605" lon="7.15176">
        <ele>814</ele>
        <time>2020-05-31T07:02:05.000Z</time>
      </trkpt>
      <trkpt lat="47.88605" lon="7.15173">
        <ele>814.40002441406</ele>
        <time>2020-05-31T07:02:06.000Z</time>
      </trkpt>
      <trkpt lat="47.88604" lon="7.15171">
        <ele>814.79998779297</ele>
        <time>2020-05-31T07:02:07.000Z</time>
      </trkpt>
      <trkpt lat="47.88604" lon="7.15168">
        <ele>814.79998779297</ele>
        <time>2020-05-31T07:02:08.000Z</time>
      </trkpt>
      <trkpt lat="47.88604" lon="7.15166">
        <ele>815.20001220703</ele>
        <time>2020-05-31T07:02:09.000Z</time>
      </trkpt>
      <trkpt lat="47.88604" lon="7.15164">
        <ele>816</ele>
        <time>2020-05-31T07:02:10.000Z</time>
      </trkpt>
      <trkpt lat="47.88604" lon="7.15162">
        <ele>816.40002441406</ele>
        <time>2020-05-31T07:02:11.000Z</time>
      </trkpt>
      <trkpt lat="47.88604" lon="7.15159">
        <ele>816.79998779297</ele>
        <time>2020-05-31T07:02:12.000Z</time>
      </trkpt>
      <trkpt lat="47.88605" lon="7.15155">
        <ele>817.20001220703</ele>
        <time>2020-05-31T07:02:14.000Z</time>
      </trkpt>
      <trkpt lat="47.88605" lon="7.15153">
        <ele>817.59997558594</ele>
        <time>2020-05-31T07:02:15.000Z</time>
      </trkpt>
      <trkpt lat="47.88605" lon="7.15151">
        <ele>818</ele>
        <time>2020-05-31T07:02:16.000Z</time>
      </trkpt>
      <trkpt lat="47.88605" lon="7.15148">
        <ele>818.40002441406</ele>
        <time>2020-05-31T07:02:17.000Z</time>
      </trkpt>
      <trkpt lat="47.88605" lon="7.15146">
        <ele>819</ele>
        <time>2020-05-31T07:02:18.000Z</time>
      </trkpt>
      <trkpt lat="47.88604" lon="7.15142">
        <ele>819</ele>
        <time>2020-05-31T07:02:20.000Z</time>
      </trkpt>
      <trkpt lat="47.88605" lon="7.15136">
        <ele>819.40002441406</ele>
        <time>2020-05-31T07:02:22.000Z</time>
      </trkpt>
      <trkpt lat="47.88606" lon="7.15133">
        <ele>819.79998779297</ele>
        <time>2020-05-31T07:02:23.000Z</time>
      </trkpt>
      <trkpt lat="47.88606" lon="7.15131">
        <ele>820.20001220703</ele>
        <time>2020-05-31T07:02:24.000Z</time>
      </trkpt>
      <trkpt lat="47.88607" lon="7.15128">
        <ele>820.59997558594</ele>
        <time>2020-05-31T07:02:25.000Z</time>
      </trkpt>
      <trkpt lat="47.88607" lon="7.15125">
        <ele>821</ele>
        <time>2020-05-31T07:02:26.000Z</time>
      </trkpt>
      <trkpt lat="47.88607" lon="7.15104">
        <ele>821.40002441406</ele>
        <time>2020-05-31T07:02:31.000Z</time>
      </trkpt>
      <trkpt lat="47.88609" lon="7.151">
        <ele>822</ele>
        <time>2020-05-31T07:02:32.000Z</time>
      </trkpt>
      <trkpt lat="47.8861" lon="7.15096">
        <ele>822.40002441406</ele>
        <time>2020-05-31T07:02:33.000Z</time>
      </trkpt>
      <trkpt lat="47.88611" lon="7.15093">
        <ele>822.79998779297</ele>
        <time>2020-05-31T07:02:34.000Z</time>
      </trkpt>
      <trkpt lat="47.88612" lon="7.15089">
        <ele>823.59997558594</ele>
        <time>2020-05-31T07:02:35.000Z</time>
      </trkpt>
      <trkpt lat="47.88613" lon="7.15087">
        <ele>824.20001220703</ele>
        <time>2020-05-31T07:02:36.000Z</time>
      </trkpt>
      <trkpt lat="47.88613" lon="7.15085">
        <ele>824.59997558594</ele>
        <time>2020-05-31T07:02:37.000Z</time>
      </trkpt>
      <trkpt lat="47.88614" lon="7.15082">
        <ele>825.20001220703</ele>
        <time>2020-05-31T07:02:38.000Z</time>
      </trkpt>
      <trkpt lat="47.88615" lon="7.15079">
        <ele>825.79998779297</ele>
        <time>2020-05-31T07:02:39.000Z</time>
      </trkpt>
      <trkpt lat="47.88615" lon="7.15075">
        <ele>826.40002441406</ele>
        <time>2020-05-31T07:02:40.000Z</time>
      </trkpt>
      <trkpt lat="47.88615" lon="7.15071">
        <ele>827</ele>
        <time>2020-05-31T07:02:41.000Z</time>
      </trkpt>
      <trkpt lat="47.88616" lon="7.15068">
        <ele>827.59997558594</ele>
        <time>2020-05-31T07:02:42.000Z</time>
      </trkpt>
      <trkpt lat="47.88616" lon="7.15064">
        <ele>828.40002441406</ele>
        <time>2020-05-31T07:02:43.000Z</time>
      </trkpt>
      <trkpt lat="47.88617" lon="7.15059">
        <ele>829</ele>
        <time>2020-05-31T07:02:44.000Z</time>
      </trkpt>
      <trkpt lat="47.88616" lon="7.15056">
        <ele>829.79998779297</ele>
        <time>2020-05-31T07:02:45.000Z</time>
      </trkpt>
      <trkpt lat="47.88615" lon="7.15051">
        <ele>830.40002441406</ele>
        <time>2020-05-31T07:02:46.000Z</time>
      </trkpt>
      <trkpt lat="47.88616" lon="7.15049">
        <ele>830.79998779297</ele>
        <time>2020-05-31T07:02:47.000Z</time>
      </trkpt>
      <trkpt lat="47.88616" lon="7.15048">
        <ele>831.40002441406</ele>
        <time>2020-05-31T07:02:48.000Z</time>
      </trkpt>
      <trkpt lat="47.88616" lon="7.15045">
        <ele>832</ele>
        <time>2020-05-31T07:02:49.000Z</time>
      </trkpt>
      <trkpt lat="47.88616" lon="7.15044">
        <ele>832.59997558594</ele>
        <time>2020-05-31T07:02:50.000Z</time>
      </trkpt>
      <trkpt lat="47.88617" lon="7.15041">
        <ele>833</ele>
        <time>2020-05-31T07:02:52.000Z</time>
      </trkpt>
      <trkpt lat="47.88617" lon="7.15038">
        <ele>833.40002441406</ele>
        <time>2020-05-31T07:02:53.000Z</time>
      </trkpt>
      <trkpt lat="47.88617" lon="7.15035">
        <ele>833.79998779297</ele>
        <time>2020-05-31T07:02:54.000Z</time>
      </trkpt>
      <trkpt lat="47.88617" lon="7.15032">
        <ele>834.40002441406</ele>
        <time>2020-05-31T07:02:55.000Z</time>
      </trkpt>
      <trkpt lat="47.88617" lon="7.15029">
        <ele>834.79998779297</ele>
        <time>2020-05-31T07:02:56.000Z</time>
      </trkpt>
      <trkpt lat="47.88615" lon="7.15015">
        <ele>835.20001220703</ele>
        <time>2020-05-31T07:03:00.000Z</time>
      </trkpt>
      <trkpt lat="47.88615" lon="7.15012">
        <ele>835.59997558594</ele>
        <time>2020-05-31T07:03:01.000Z</time>
      </trkpt>
      <trkpt lat="47.88615" lon="7.15009">
        <ele>836</ele>
        <time>2020-05-31T07:03:02.000Z</time>
      </trkpt>
      <trkpt lat="47.88615" lon="7.15006">
        <ele>836.40002441406</ele>
        <time>2020-05-31T07:03:03.000Z</time>
      </trkpt>
      <trkpt lat="47.88614" lon="7.15002">
        <ele>836.79998779297</ele>
        <time>2020-05-31T07:03:04.000Z</time>
      </trkpt>
      <trkpt lat="47.88612" lon="7.14992">
        <ele>836.79998779297</ele>
        <time>2020-05-31T07:03:07.000Z</time>
      </trkpt>
      <trkpt lat="47.88612" lon="7.14977">
        <ele>837.40002441406</ele>
        <time>2020-05-31T07:03:11.000Z</time>
      </trkpt>
      <trkpt lat="47.88612" lon="7.14974">
        <ele>837.79998779297</ele>
        <time>2020-05-31T07:03:12.000Z</time>
      </trkpt>
      <trkpt lat="47.88611" lon="7.14971">
        <ele>838.20001220703</ele>
        <time>2020-05-31T07:03:13.000Z</time>
      </trkpt>
      <trkpt lat="47.88611" lon="7.14968">
        <ele>838.59997558594</ele>
        <time>2020-05-31T07:03:14.000Z</time>
      </trkpt>
      <trkpt lat="47.8861" lon="7.14965">
        <ele>839</ele>
        <time>2020-05-31T07:03:15.000Z</time>
      </trkpt>
      <trkpt lat="47.8861" lon="7.14959">
        <ele>839</ele>
        <time>2020-05-31T07:03:17.000Z</time>
      </trkpt>
      <trkpt lat="47.8861" lon="7.14957">
        <ele>839</ele>
        <time>2020-05-31T07:03:18.000Z</time>
      </trkpt>
      <trkpt lat="47.88611" lon="7.14952">
        <ele>839.40002441406</ele>
        <time>2020-05-31T07:03:20.000Z</time>
      </trkpt>
      <trkpt lat="47.88611" lon="7.14949">
        <ele>840</ele>
        <time>2020-05-31T07:03:21.000Z</time>
      </trkpt>
      <trkpt lat="47.8861" lon="7.14946">
        <ele>840.40002441406</ele>
        <time>2020-05-31T07:03:22.000Z</time>
      </trkpt>
      <trkpt lat="47.8861" lon="7.14943">
        <ele>840.79998779297</ele>
        <time>2020-05-31T07:03:23.000Z</time>
      </trkpt>
      <trkpt lat="47.8861" lon="7.1494">
        <ele>841.20001220703</ele>
        <time>2020-05-31T07:03:24.000Z</time>
      </trkpt>
      <trkpt lat="47.8861" lon="7.14937">
        <ele>841.59997558594</ele>
        <time>2020-05-31T07:03:25.000Z</time>
      </trkpt>
      <trkpt lat="47.8861" lon="7.14934">
        <ele>842.20001220703</ele>
        <time>2020-05-31T07:03:26.000Z</time>
      </trkpt>
      <trkpt lat="47.8861" lon="7.14931">
        <ele>842.59997558594</ele>
        <time>2020-05-31T07:03:27.000Z</time>
      </trkpt>
      <trkpt lat="47.8861" lon="7.14928">
        <ele>843</ele>
        <time>2020-05-31T07:03:28.000Z</time>
      </trkpt>
      <trkpt lat="47.8861" lon="7.14926">
        <ele>843.40002441406</ele>
        <time>2020-05-31T07:03:29.000Z</time>
      </trkpt>
      <trkpt lat="47.88612" lon="7.14923">
        <ele>843.40002441406</ele>
        <time>2020-05-31T07:03:31.000Z</time>
      </trkpt>
      <trkpt lat="47.88616" lon="7.14917">
        <ele>843.79998779297</ele>
        <time>2020-05-31T07:03:34.000Z</time>
      </trkpt>
      <trkpt lat="47.88617" lon="7.14915">
        <ele>844.20001220703</ele>
        <time>2020-05-31T07:03:35.000Z</time>
      </trkpt>
      <trkpt lat="47.88618" lon="7.14913">
        <ele>844.59997558594</ele>
        <time>2020-05-31T07:03:36.000Z</time>
      </trkpt>
      <trkpt lat="47.8862" lon="7.14912">
        <ele>845.20001220703</ele>
        <time>2020-05-31T07:03:37.000Z</time>
      </trkpt>
      <trkpt lat="47.88621" lon="7.1491">
        <ele>845.59997558594</ele>
        <time>2020-05-31T07:03:38.000Z</time>
      </trkpt>
      <trkpt lat="47.88628" lon="7.14902">
        <ele>846</ele>
        <time>2020-05-31T07:03:43.000Z</time>
      </trkpt>
      <trkpt lat="47.8863" lon="7.14901">
        <ele>846.40002441406</ele>
        <time>2020-05-31T07:03:44.000Z</time>
      </trkpt>
      <trkpt lat="47.88631" lon="7.149">
        <ele>846.79998779297</ele>
        <time>2020-05-31T07:03:45.000Z</time>
      </trkpt>
      <trkpt lat="47.88633" lon="7.14899">
        <ele>847.40002441406</ele>
        <time>2020-05-31T07:03:46.000Z</time>
      </trkpt>
      <trkpt lat="47.88634" lon="7.14898">
        <ele>847.79998779297</ele>
        <time>2020-05-31T07:03:47.000Z</time>
      </trkpt>
      <trkpt lat="47.88636" lon="7.14897">
        <ele>848.20001220703</ele>
        <time>2020-05-31T07:03:49.000Z</time>
      </trkpt>
      <trkpt lat="47.88637" lon="7.14896">
        <ele>848.59997558594</ele>
        <time>2020-05-31T07:03:50.000Z</time>
      </trkpt>
      <trkpt lat="47.88638" lon="7.14896">
        <ele>849</ele>
        <time>2020-05-31T07:03:51.000Z</time>
      </trkpt>
      <trkpt lat="47.88639" lon="7.14895">
        <ele>849.40002441406</ele>
        <time>2020-05-31T07:03:52.000Z</time>
      </trkpt>
      <trkpt lat="47.8864" lon="7.14894">
        <ele>849.79998779297</ele>
        <time>2020-05-31T07:03:53.000Z</time>
      </trkpt>
      <trkpt lat="47.88645" lon="7.14892">
        <ele>850.20001220703</ele>
        <time>2020-05-31T07:03:57.000Z</time>
      </trkpt>
      <trkpt lat="47.88646" lon="7.14891">
        <ele>850.59997558594</ele>
        <time>2020-05-31T07:03:58.000Z</time>
      </trkpt>
      <trkpt lat="47.88646" lon="7.14891">
        <ele>851.20001220703</ele>
        <time>2020-05-31T07:03:59.000Z</time>
      </trkpt>
      <trkpt lat="47.88647" lon="7.1489">
        <ele>851.59997558594</ele>
        <time>2020-05-31T07:04:00.000Z</time>
      </trkpt>
      <trkpt lat="47.88648" lon="7.14889">
        <ele>852</ele>
        <time>2020-05-31T07:04:01.000Z</time>
      </trkpt>
      <trkpt lat="47.88653" lon="7.14889">
        <ele>852.40002441406</ele>
        <time>2020-05-31T07:04:05.000Z</time>
      </trkpt>
      <trkpt lat="47.88655" lon="7.14889">
        <ele>852.79998779297</ele>
        <time>2020-05-31T07:04:06.000Z</time>
      </trkpt>
      <trkpt lat="47.88655" lon="7.14887">
        <ele>853.20001220703</ele>
        <time>2020-05-31T07:04:07.000Z</time>
      </trkpt>
      <trkpt lat="47.8866" lon="7.14884">
        <ele>854.20001220703</ele>
        <time>2020-05-31T07:04:11.000Z</time>
      </trkpt>
      <trkpt lat="47.88662" lon="7.14882">
        <ele>854.20001220703</ele>
        <time>2020-05-31T07:04:12.000Z</time>
      </trkpt>
      <trkpt lat="47.88664" lon="7.14873">
        <ele>854.59997558594</ele>
        <time>2020-05-31T07:04:15.000Z</time>
      </trkpt>
      <trkpt lat="47.88664" lon="7.1487">
        <ele>855</ele>
        <time>2020-05-31T07:04:16.000Z</time>
      </trkpt>
      <trkpt lat="47.88664" lon="7.14868">
        <ele>855.40002441406</ele>
        <time>2020-05-31T07:04:17.000Z</time>
      </trkpt>
      <trkpt lat="47.88664" lon="7.14865">
        <ele>855.79998779297</ele>
        <time>2020-05-31T07:04:18.000Z</time>
      </trkpt>
      <trkpt lat="47.88664" lon="7.14863">
        <ele>856.20001220703</ele>
        <time>2020-05-31T07:04:19.000Z</time>
      </trkpt>
      <trkpt lat="47.88667" lon="7.14853">
        <ele>856.79998779297</ele>
        <time>2020-05-31T07:04:23.000Z</time>
      </trkpt>
      <trkpt lat="47.88668" lon="7.14851">
        <ele>857.20001220703</ele>
        <time>2020-05-31T07:04:24.000Z</time>
      </trkpt>
      <trkpt lat="47.88671" lon="7.14849">
        <ele>857.59997558594</ele>
        <time>2020-05-31T07:04:25.000Z</time>
      </trkpt>
      <trkpt lat="47.88673" lon="7.14848">
        <ele>858.20001220703</ele>
        <time>2020-05-31T07:04:26.000Z</time>
      </trkpt>
      <trkpt lat="47.88675" lon="7.14845">
        <ele>858.59997558594</ele>
        <time>2020-05-31T07:04:27.000Z</time>
      </trkpt>
      <trkpt lat="47.8868" lon="7.14841">
        <ele>859</ele>
        <time>2020-05-31T07:04:29.000Z</time>
      </trkpt>
      <trkpt lat="47.88681" lon="7.1484">
        <ele>859.40002441406</ele>
        <time>2020-05-31T07:04:30.000Z</time>
      </trkpt>
      <trkpt lat="47.88681" lon="7.1484">
        <ele>859.79998779297</ele>
        <time>2020-05-31T07:04:31.000Z</time>
      </trkpt>
      <trkpt lat="47.88683" lon="7.14842">
        <ele>860.20001220703</ele>
        <time>2020-05-31T07:04:32.000Z</time>
      </trkpt>
      <trkpt lat="47.88684" lon="7.14844">
        <ele>860.79998779297</ele>
        <time>2020-05-31T07:04:33.000Z</time>
      </trkpt>
      <trkpt lat="47.88685" lon="7.14846">
        <ele>861.20001220703</ele>
        <time>2020-05-31T07:04:34.000Z</time>
      </trkpt>
      <trkpt lat="47.88686" lon="7.14848">
        <ele>861.79998779297</ele>
        <time>2020-05-31T07:04:35.000Z</time>
      </trkpt>
      <trkpt lat="47.88687" lon="7.1485">
        <ele>862.20001220703</ele>
        <time>2020-05-31T07:04:36.000Z</time>
      </trkpt>
      <trkpt lat="47.88688" lon="7.14852">
        <ele>862.79998779297</ele>
        <time>2020-05-31T07:04:37.000Z</time>
      </trkpt>
      <trkpt lat="47.88689" lon="7.14853">
        <ele>863.20001220703</ele>
        <time>2020-05-31T07:04:38.000Z</time>
      </trkpt>
      <trkpt lat="47.8869" lon="7.14854">
        <ele>864</ele>
        <time>2020-05-31T07:04:39.000Z</time>
      </trkpt>
      <trkpt lat="47.88692" lon="7.14856">
        <ele>864.40002441406</ele>
        <time>2020-05-31T07:04:40.000Z</time>
      </trkpt>
      <trkpt lat="47.88694" lon="7.14856">
        <ele>865</ele>
        <time>2020-05-31T07:04:41.000Z</time>
      </trkpt>
      <trkpt lat="47.88695" lon="7.14857">
        <ele>865</ele>
        <time>2020-05-31T07:04:42.000Z</time>
      </trkpt>
      <trkpt lat="47.88699" lon="7.14859">
        <ele>865.40002441406</ele>
        <time>2020-05-31T07:04:44.000Z</time>
      </trkpt>
      <trkpt lat="47.88701" lon="7.1486">
        <ele>865.79998779297</ele>
        <time>2020-05-31T07:04:45.000Z</time>
      </trkpt>
      <trkpt lat="47.88702" lon="7.14861">
        <ele>866.20001220703</ele>
        <time>2020-05-31T07:04:46.000Z</time>
      </trkpt>
      <trkpt lat="47.88704" lon="7.14862">
        <ele>866.79998779297</ele>
        <time>2020-05-31T07:04:47.000Z</time>
      </trkpt>
      <trkpt lat="47.88705" lon="7.14864">
        <ele>867.20001220703</ele>
        <time>2020-05-31T07:04:48.000Z</time>
      </trkpt>
      <trkpt lat="47.88707" lon="7.14866">
        <ele>867.59997558594</ele>
        <time>2020-05-31T07:04:50.000Z</time>
      </trkpt>
      <trkpt lat="47.88708" lon="7.14868">
        <ele>868</ele>
        <time>2020-05-31T07:04:51.000Z</time>
      </trkpt>
      <trkpt lat="47.88709" lon="7.14869">
        <ele>868.40002441406</ele>
        <time>2020-05-31T07:04:52.000Z</time>
      </trkpt>
      <trkpt lat="47.88711" lon="7.14871">
        <ele>868.79998779297</ele>
        <time>2020-05-31T07:04:53.000Z</time>
      </trkpt>
      <trkpt lat="47.88712" lon="7.14872">
        <ele>869.20001220703</ele>
        <time>2020-05-31T07:04:54.000Z</time>
      </trkpt>
      <trkpt lat="47.88713" lon="7.14874">
        <ele>869.20001220703</ele>
        <time>2020-05-31T07:04:55.000Z</time>
      </trkpt>
      <trkpt lat="47.88716" lon="7.14876">
        <ele>869.59997558594</ele>
        <time>2020-05-31T07:04:57.000Z</time>
      </trkpt>
      <trkpt lat="47.88718" lon="7.14878">
        <ele>870</ele>
        <time>2020-05-31T07:04:58.000Z</time>
      </trkpt>
      <trkpt lat="47.8872" lon="7.14879">
        <ele>870.40002441406</ele>
        <time>2020-05-31T07:04:59.000Z</time>
      </trkpt>
      <trkpt lat="47.88721" lon="7.14881">
        <ele>870.79998779297</ele>
        <time>2020-05-31T07:05:00.000Z</time>
      </trkpt>
      <trkpt lat="47.88723" lon="7.14882">
        <ele>871.20001220703</ele>
        <time>2020-05-31T07:05:01.000Z</time>
      </trkpt>
      <trkpt lat="47.88729" lon="7.14884">
        <ele>871.79998779297</ele>
        <time>2020-05-31T07:05:04.000Z</time>
      </trkpt>
      <trkpt lat="47.8873" lon="7.14885">
        <ele>872.20001220703</ele>
        <time>2020-05-31T07:05:05.000Z</time>
      </trkpt>
      <trkpt lat="47.88731" lon="7.14886">
        <ele>872.59997558594</ele>
        <time>2020-05-31T07:05:06.000Z</time>
      </trkpt>
      <trkpt lat="47.88732" lon="7.14887">
        <ele>873</ele>
        <time>2020-05-31T07:05:07.000Z</time>
      </trkpt>
      <trkpt lat="47.88734" lon="7.14889">
        <ele>873.40002441406</ele>
        <time>2020-05-31T07:05:08.000Z</time>
      </trkpt>
      <trkpt lat="47.8874" lon="7.14889">
        <ele>873.79998779297</ele>
        <time>2020-05-31T07:05:11.000Z</time>
      </trkpt>
      <trkpt lat="47.88742" lon="7.1489">
        <ele>874.40002441406</ele>
        <time>2020-05-31T07:05:12.000Z</time>
      </trkpt>
      <trkpt lat="47.88744" lon="7.14891">
        <ele>874.79998779297</ele>
        <time>2020-05-31T07:05:13.000Z</time>
      </trkpt>
      <trkpt lat="47.88744" lon="7.14893">
        <ele>875.20001220703</ele>
        <time>2020-05-31T07:05:14.000Z</time>
      </trkpt>
      <trkpt lat="47.88744" lon="7.14896">
        <ele>875.59997558594</ele>
        <time>2020-05-31T07:05:15.000Z</time>
      </trkpt>
      <trkpt lat="47.88746" lon="7.14903">
        <ele>875.59997558594</ele>
        <time>2020-05-31T07:05:17.000Z</time>
      </trkpt>
      <trkpt lat="47.8875" lon="7.14911">
        <ele>876</ele>
        <time>2020-05-31T07:05:21.000Z</time>
      </trkpt>
      <trkpt lat="47.88752" lon="7.14912">
        <ele>876.40002441406</ele>
        <time>2020-05-31T07:05:22.000Z</time>
      </trkpt>
      <trkpt lat="47.88754" lon="7.14913">
        <ele>876.79998779297</ele>
        <time>2020-05-31T07:05:23.000Z</time>
      </trkpt>
      <trkpt lat="47.88757" lon="7.14915">
        <ele>877.20001220703</ele>
        <time>2020-05-31T07:05:24.000Z</time>
      </trkpt>
      <trkpt lat="47.88761" lon="7.14918">
        <ele>877.59997558594</ele>
        <time>2020-05-31T07:05:25.000Z</time>
      </trkpt>
      <trkpt lat="47.88766" lon="7.14923">
        <ele>877.59997558594</ele>
        <time>2020-05-31T07:05:27.000Z</time>
      </trkpt>
      <trkpt lat="47.88769" lon="7.14928">
        <ele>878</ele>
        <time>2020-05-31T07:05:29.000Z</time>
      </trkpt>
      <trkpt lat="47.8877" lon="7.14931">
        <ele>878.40002441406</ele>
        <time>2020-05-31T07:05:30.000Z</time>
      </trkpt>
      <trkpt lat="47.88772" lon="7.14933">
        <ele>879</ele>
        <time>2020-05-31T07:05:31.000Z</time>
      </trkpt>
      <trkpt lat="47.88773" lon="7.14936">
        <ele>879.40002441406</ele>
        <time>2020-05-31T07:05:32.000Z</time>
      </trkpt>
      <trkpt lat="47.88775" lon="7.14938">
        <ele>879.79998779297</ele>
        <time>2020-05-31T07:05:33.000Z</time>
      </trkpt>
      <trkpt lat="47.88776" lon="7.14939">
        <ele>879.79998779297</ele>
        <time>2020-05-31T07:05:34.000Z</time>
      </trkpt>
      <trkpt lat="47.88781" lon="7.14945">
        <ele>880.20001220703</ele>
        <time>2020-05-31T07:05:37.000Z</time>
      </trkpt>
      <trkpt lat="47.88783" lon="7.14948">
        <ele>880.59997558594</ele>
        <time>2020-05-31T07:05:38.000Z</time>
      </trkpt>
      <trkpt lat="47.88785" lon="7.1495">
        <ele>881</ele>
        <time>2020-05-31T07:05:39.000Z</time>
      </trkpt>
      <trkpt lat="47.88787" lon="7.14951">
        <ele>881.59997558594</ele>
        <time>2020-05-31T07:05:40.000Z</time>
      </trkpt>
      <trkpt lat="47.88788" lon="7.14951">
        <ele>882</ele>
        <time>2020-05-31T07:05:41.000Z</time>
      </trkpt>
      <trkpt lat="47.88789" lon="7.14949">
        <ele>882</ele>
        <time>2020-05-31T07:05:42.000Z</time>
      </trkpt>
      <trkpt lat="47.8879" lon="7.14947">
        <ele>882.40002441406</ele>
        <time>2020-05-31T07:05:43.000Z</time>
      </trkpt>
      <trkpt lat="47.88791" lon="7.14945">
        <ele>882.79998779297</ele>
        <time>2020-05-31T07:05:44.000Z</time>
      </trkpt>
      <trkpt lat="47.88791" lon="7.14942">
        <ele>883.20001220703</ele>
        <time>2020-05-31T07:05:45.000Z</time>
      </trkpt>
      <trkpt lat="47.88792" lon="7.14939">
        <ele>883.59997558594</ele>
        <time>2020-05-31T07:05:46.000Z</time>
      </trkpt>
      <trkpt lat="47.88792" lon="7.14937">
        <ele>884</ele>
        <time>2020-05-31T07:05:47.000Z</time>
      </trkpt>
      <trkpt lat="47.88789" lon="7.14925">
        <ele>884</ele>
        <time>2020-05-31T07:05:51.000Z</time>
      </trkpt>
      <trkpt lat="47.88788" lon="7.14919">
        <ele>884.40002441406</ele>
        <time>2020-05-31T07:05:53.000Z</time>
      </trkpt>
      <trkpt lat="47.88788" lon="7.14916">
        <ele>884.79998779297</ele>
        <time>2020-05-31T07:05:54.000Z</time>
      </trkpt>
      <trkpt lat="47.88787" lon="7.14914">
        <ele>885.40002441406</ele>
        <time>2020-05-31T07:05:55.000Z</time>
      </trkpt>
      <trkpt lat="47.88787" lon="7.14911">
        <ele>885.79998779297</ele>
        <time>2020-05-31T07:05:56.000Z</time>
      </trkpt>
      <trkpt lat="47.88788" lon="7.14907">
        <ele>886.20001220703</ele>
        <time>2020-05-31T07:05:57.000Z</time>
      </trkpt>
      <trkpt lat="47.88789" lon="7.14901">
        <ele>886.20001220703</ele>
        <time>2020-05-31T07:05:59.000Z</time>
      </trkpt>
      <trkpt lat="47.88789" lon="7.14893">
        <ele>886.20001220703</ele>
        <time>2020-05-31T07:06:02.000Z</time>
      </trkpt>
      <trkpt lat="47.88789" lon="7.1489">
        <ele>886.59997558594</ele>
        <time>2020-05-31T07:06:03.000Z</time>
      </trkpt>
      <trkpt lat="47.88789" lon="7.14887">
        <ele>887.20001220703</ele>
        <time>2020-05-31T07:06:04.000Z</time>
      </trkpt>
      <trkpt lat="47.88789" lon="7.14884">
        <ele>887.59997558594</ele>
        <time>2020-05-31T07:06:05.000Z</time>
      </trkpt>
      <trkpt lat="47.88789" lon="7.14881">
        <ele>888</ele>
        <time>2020-05-31T07:06:06.000Z</time>
      </trkpt>
      <trkpt lat="47.88788" lon="7.14878">
        <ele>888.40002441406</ele>
        <time>2020-05-31T07:06:07.000Z</time>
      </trkpt>
      <trkpt lat="47.88787" lon="7.14871">
        <ele>888.40002441406</ele>
        <time>2020-05-31T07:06:10.000Z</time>
      </trkpt>
      <trkpt lat="47.88786" lon="7.14862">
        <ele>889</ele>
        <time>2020-05-31T07:06:13.000Z</time>
      </trkpt>
      <trkpt lat="47.88785" lon="7.14859">
        <ele>889.40002441406</ele>
        <time>2020-05-31T07:06:14.000Z</time>
      </trkpt>
      <trkpt lat="47.88784" lon="7.14855">
        <ele>889.79998779297</ele>
        <time>2020-05-31T07:06:15.000Z</time>
      </trkpt>
      <trkpt lat="47.88784" lon="7.14853">
        <ele>890.59997558594</ele>
        <time>2020-05-31T07:06:16.000Z</time>
      </trkpt>
      <trkpt lat="47.88783" lon="7.1485">
        <ele>890.59997558594</ele>
        <time>2020-05-31T07:06:17.000Z</time>
      </trkpt>
      <trkpt lat="47.88781" lon="7.1484">
        <ele>891</ele>
        <time>2020-05-31T07:06:21.000Z</time>
      </trkpt>
      <trkpt lat="47.88781" lon="7.14838">
        <ele>891.40002441406</ele>
        <time>2020-05-31T07:06:22.000Z</time>
      </trkpt>
      <trkpt lat="47.88781" lon="7.14835">
        <ele>891.79998779297</ele>
        <time>2020-05-31T07:06:23.000Z</time>
      </trkpt>
      <trkpt lat="47.8878" lon="7.14832">
        <ele>892.40002441406</ele>
        <time>2020-05-31T07:06:24.000Z</time>
      </trkpt>
      <trkpt lat="47.88779" lon="7.14829">
        <ele>892.79998779297</ele>
        <time>2020-05-31T07:06:25.000Z</time>
      </trkpt>
      <trkpt lat="47.88775" lon="7.14815">
        <ele>893.20001220703</ele>
        <time>2020-05-31T07:06:30.000Z</time>
      </trkpt>
      <trkpt lat="47.88775" lon="7.14813">
        <ele>893.59997558594</ele>
        <time>2020-05-31T07:06:31.000Z</time>
      </trkpt>
      <trkpt lat="47.88774" lon="7.1481">
        <ele>894</ele>
        <time>2020-05-31T07:06:32.000Z</time>
      </trkpt>
      <trkpt lat="47.88773" lon="7.14808">
        <ele>894.40002441406</ele>
        <time>2020-05-31T07:06:33.000Z</time>
      </trkpt>
      <trkpt lat="47.88773" lon="7.14806">
        <ele>894.79998779297</ele>
        <time>2020-05-31T07:06:34.000Z</time>
      </trkpt>
      <trkpt lat="47.88771" lon="7.14798">
        <ele>894.79998779297</ele>
        <time>2020-05-31T07:06:37.000Z</time>
      </trkpt>
      <trkpt lat="47.88771" lon="7.14796">
        <ele>895.20001220703</ele>
        <time>2020-05-31T07:06:38.000Z</time>
      </trkpt>
      <trkpt lat="47.8877" lon="7.14793">
        <ele>895.59997558594</ele>
        <time>2020-05-31T07:06:39.000Z</time>
      </trkpt>
      <trkpt lat="47.8877" lon="7.1479">
        <ele>896</ele>
        <time>2020-05-31T07:06:40.000Z</time>
      </trkpt>
      <trkpt lat="47.8877" lon="7.14787">
        <ele>896.79998779297</ele>
        <time>2020-05-31T07:06:41.000Z</time>
      </trkpt>
      <trkpt lat="47.88769" lon="7.14782">
        <ele>896.79998779297</ele>
        <time>2020-05-31T07:06:43.000Z</time>
      </trkpt>
      <trkpt lat="47.88768" lon="7.14777">
        <ele>897.40002441406</ele>
        <time>2020-05-31T07:06:45.000Z</time>
      </trkpt>
      <trkpt lat="47.88767" lon="7.14775">
        <ele>897.79998779297</ele>
        <time>2020-05-31T07:06:46.000Z</time>
      </trkpt>
      <trkpt lat="47.88766" lon="7.14772">
        <ele>898.20001220703</ele>
        <time>2020-05-31T07:06:47.000Z</time>
      </trkpt>
      <trkpt lat="47.88765" lon="7.1477">
        <ele>898.59997558594</ele>
        <time>2020-05-31T07:06:48.000Z</time>
      </trkpt>
      <trkpt lat="47.88765" lon="7.14768">
        <ele>899</ele>
        <time>2020-05-31T07:06:49.000Z</time>
      </trkpt>
      <trkpt lat="47.88763" lon="7.14762">
        <ele>899</ele>
        <time>2020-05-31T07:06:51.000Z</time>
      </trkpt>
      <trkpt lat="47.8876" lon="7.14747">
        <ele>899.40002441406</ele>
        <time>2020-05-31T07:06:56.000Z</time>
      </trkpt>
      <trkpt lat="47.88759" lon="7.14744">
        <ele>899.79998779297</ele>
        <time>2020-05-31T07:06:57.000Z</time>
      </trkpt>
      <trkpt lat="47.88759" lon="7.14741">
        <ele>900.20001220703</ele>
        <time>2020-05-31T07:06:58.000Z</time>
      </trkpt>
      <trkpt lat="47.88758" lon="7.14739">
        <ele>900.59997558594</ele>
        <time>2020-05-31T07:06:59.000Z</time>
      </trkpt>
      <trkpt lat="47.88756" lon="7.14736">
        <ele>901</ele>
        <time>2020-05-31T07:07:00.000Z</time>
      </trkpt>
      <trkpt lat="47.88756" lon="7.14733">
        <ele>901.40002441406</ele>
        <time>2020-05-31T07:07:01.000Z</time>
      </trkpt>
      <trkpt lat="47.88755" lon="7.14729">
        <ele>902</ele>
        <time>2020-05-31T07:07:02.000Z</time>
      </trkpt>
      <trkpt lat="47.88754" lon="7.14726">
        <ele>902.40002441406</ele>
        <time>2020-05-31T07:07:03.000Z</time>
      </trkpt>
      <trkpt lat="47.88753" lon="7.14724">
        <ele>902.79998779297</ele>
        <time>2020-05-31T07:07:04.000Z</time>
      </trkpt>
      <trkpt lat="47.88752" lon="7.14721">
        <ele>903.20001220703</ele>
        <time>2020-05-31T07:07:05.000Z</time>
      </trkpt>
      <trkpt lat="47.88751" lon="7.14713">
        <ele>903.59997558594</ele>
        <time>2020-05-31T07:07:08.000Z</time>
      </trkpt>
      <trkpt lat="47.88751" lon="7.14709">
        <ele>904</ele>
        <time>2020-05-31T07:07:09.000Z</time>
      </trkpt>
      <trkpt lat="47.88751" lon="7.14706">
        <ele>904.40002441406</ele>
        <time>2020-05-31T07:07:10.000Z</time>
      </trkpt>
      <trkpt lat="47.8875" lon="7.14703">
        <ele>905</ele>
        <time>2020-05-31T07:07:11.000Z</time>
      </trkpt>
      <trkpt lat="47.8875" lon="7.14701">
        <ele>905.40002441406</ele>
        <time>2020-05-31T07:07:12.000Z</time>
      </trkpt>
      <trkpt lat="47.88748" lon="7.14688">
        <ele>905.79998779297</ele>
        <time>2020-05-31T07:07:17.000Z</time>
      </trkpt>
      <trkpt lat="47.88748" lon="7.14686">
        <ele>906.20001220703</ele>
        <time>2020-05-31T07:07:18.000Z</time>
      </trkpt>
      <trkpt lat="47.88748" lon="7.14683">
        <ele>906.59997558594</ele>
        <time>2020-05-31T07:07:19.000Z</time>
      </trkpt>
      <trkpt lat="47.88747" lon="7.14681">
        <ele>907</ele>
        <time>2020-05-31T07:07:20.000Z</time>
      </trkpt>
      <trkpt lat="47.88747" lon="7.1468">
        <ele>907.40002441406</ele>
        <time>2020-05-31T07:07:21.000Z</time>
      </trkpt>
      <trkpt lat="47.88745" lon="7.14676">
        <ele>907.40002441406</ele>
        <time>2020-05-31T07:07:23.000Z</time>
      </trkpt>
      <trkpt lat="47.88744" lon="7.14673">
        <ele>907.40002441406</ele>
        <time>2020-05-31T07:07:24.000Z</time>
      </trkpt>
      <trkpt lat="47.88744" lon="7.14667">
        <ele>907.79998779297</ele>
        <time>2020-05-31T07:07:26.000Z</time>
      </trkpt>
      <trkpt lat="47.88744" lon="7.14664">
        <ele>908.20001220703</ele>
        <time>2020-05-31T07:07:27.000Z</time>
      </trkpt>
      <trkpt lat="47.88744" lon="7.14662">
        <ele>908.79998779297</ele>
        <time>2020-05-31T07:07:28.000Z</time>
      </trkpt>
      <trkpt lat="47.88743" lon="7.1466">
        <ele>909.20001220703</ele>
        <time>2020-05-31T07:07:29.000Z</time>
      </trkpt>
      <trkpt lat="47.88742" lon="7.14657">
        <ele>909.59997558594</ele>
        <time>2020-05-31T07:07:30.000Z</time>
      </trkpt>
      <trkpt lat="47.88742" lon="7.14649">
        <ele>910</ele>
        <time>2020-05-31T07:07:33.000Z</time>
      </trkpt>
      <trkpt lat="47.88742" lon="7.14646">
        <ele>910.59997558594</ele>
        <time>2020-05-31T07:07:34.000Z</time>
      </trkpt>
      <trkpt lat="47.88742" lon="7.14642">
        <ele>911</ele>
        <time>2020-05-31T07:07:35.000Z</time>
      </trkpt>
      <trkpt lat="47.88741" lon="7.14639">
        <ele>911.40002441406</ele>
        <time>2020-05-31T07:07:36.000Z</time>
      </trkpt>
      <trkpt lat="47.88741" lon="7.14636">
        <ele>912</ele>
        <time>2020-05-31T07:07:37.000Z</time>
      </trkpt>
      <trkpt lat="47.88735" lon="7.14616">
        <ele>912.40002441406</ele>
        <time>2020-05-31T07:07:42.000Z</time>
      </trkpt>
      <trkpt lat="47.88734" lon="7.14613">
        <ele>912.79998779297</ele>
        <time>2020-05-31T07:07:43.000Z</time>
      </trkpt>
      <trkpt lat="47.88734" lon="7.14609">
        <ele>913.20001220703</ele>
        <time>2020-05-31T07:07:44.000Z</time>
      </trkpt>
      <trkpt lat="47.88733" lon="7.14606">
        <ele>913.59997558594</ele>
        <time>2020-05-31T07:07:45.000Z</time>
      </trkpt>
      <trkpt lat="47.88732" lon="7.14603">
        <ele>914</ele>
        <time>2020-05-31T07:07:46.000Z</time>
      </trkpt>
      <trkpt lat="47.88731" lon="7.14594">
        <ele>914.40002441406</ele>
        <time>2020-05-31T07:07:49.000Z</time>
      </trkpt>
      <trkpt lat="47.8873" lon="7.1459">
        <ele>914.79998779297</ele>
        <time>2020-05-31T07:07:50.000Z</time>
      </trkpt>
      <trkpt lat="47.8873" lon="7.14588">
        <ele>915.40002441406</ele>
        <time>2020-05-31T07:07:51.000Z</time>
      </trkpt>
      <trkpt lat="47.8873" lon="7.14585">
        <ele>915.79998779297</ele>
        <time>2020-05-31T07:07:52.000Z</time>
      </trkpt>
      <trkpt lat="47.88729" lon="7.14582">
        <ele>916.20001220703</ele>
        <time>2020-05-31T07:07:53.000Z</time>
      </trkpt>
      <trkpt lat="47.88729" lon="7.14572">
        <ele>916.59997558594</ele>
        <time>2020-05-31T07:07:57.000Z</time>
      </trkpt>
      <trkpt lat="47.88729" lon="7.1457">
        <ele>917</ele>
        <time>2020-05-31T07:07:58.000Z</time>
      </trkpt>
      <trkpt lat="47.88729" lon="7.14568">
        <ele>917.40002441406</ele>
        <time>2020-05-31T07:07:59.000Z</time>
      </trkpt>
      <trkpt lat="47.88729" lon="7.14565">
        <ele>917.79998779297</ele>
        <time>2020-05-31T07:08:00.000Z</time>
      </trkpt>
      <trkpt lat="47.88729" lon="7.14563">
        <ele>918.20001220703</ele>
        <time>2020-05-31T07:08:01.000Z</time>
      </trkpt>
      <trkpt lat="47.88729" lon="7.14554">
        <ele>918.59997558594</ele>
        <time>2020-05-31T07:08:04.000Z</time>
      </trkpt>
      <trkpt lat="47.88729" lon="7.14551">
        <ele>919</ele>
        <time>2020-05-31T07:08:05.000Z</time>
      </trkpt>
      <trkpt lat="47.88728" lon="7.14547">
        <ele>919.40002441406</ele>
        <time>2020-05-31T07:08:06.000Z</time>
      </trkpt>
      <trkpt lat="47.88727" lon="7.14545">
        <ele>920</ele>
        <time>2020-05-31T07:08:07.000Z</time>
      </trkpt>
      <trkpt lat="47.88725" lon="7.14541">
        <ele>920.40002441406</ele>
        <time>2020-05-31T07:08:08.000Z</time>
      </trkpt>
      <trkpt lat="47.88724" lon="7.14536">
        <ele>920.40002441406</ele>
        <time>2020-05-31T07:08:10.000Z</time>
      </trkpt>
      <trkpt lat="47.88724" lon="7.14531">
        <ele>920.79998779297</ele>
        <time>2020-05-31T07:08:12.000Z</time>
      </trkpt>
      <trkpt lat="47.88724" lon="7.14527">
        <ele>921.20001220703</ele>
        <time>2020-05-31T07:08:13.000Z</time>
      </trkpt>
      <trkpt lat="47.88724" lon="7.14523">
        <ele>921.79998779297</ele>
        <time>2020-05-31T07:08:14.000Z</time>
      </trkpt>
      <trkpt lat="47.88724" lon="7.1452">
        <ele>922.20001220703</ele>
        <time>2020-05-31T07:08:15.000Z</time>
      </trkpt>
      <trkpt lat="47.88723" lon="7.14516">
        <ele>922.59997558594</ele>
        <time>2020-05-31T07:08:16.000Z</time>
      </trkpt>
      <trkpt lat="47.88723" lon="7.14506">
        <ele>923.20001220703</ele>
        <time>2020-05-31T07:08:19.000Z</time>
      </trkpt>
      <trkpt lat="47.88724" lon="7.14503">
        <ele>924.20001220703</ele>
        <time>2020-05-31T07:08:20.000Z</time>
      </trkpt>
      <trkpt lat="47.88724" lon="7.145">
        <ele>924.59997558594</ele>
        <time>2020-05-31T07:08:21.000Z</time>
      </trkpt>
      <trkpt lat="47.88723" lon="7.14497">
        <ele>925</ele>
        <time>2020-05-31T07:08:22.000Z</time>
      </trkpt>
      <trkpt lat="47.88722" lon="7.14491">
        <ele>925</ele>
        <time>2020-05-31T07:08:24.000Z</time>
      </trkpt>
      <trkpt lat="47.88722" lon="7.14488">
        <ele>925.40002441406</ele>
        <time>2020-05-31T07:08:25.000Z</time>
      </trkpt>
      <trkpt lat="47.88721" lon="7.14486">
        <ele>925.79998779297</ele>
        <time>2020-05-31T07:08:26.000Z</time>
      </trkpt>
      <trkpt lat="47.88721" lon="7.14483">
        <ele>926.40002441406</ele>
        <time>2020-05-31T07:08:27.000Z</time>
      </trkpt>
      <trkpt lat="47.8872" lon="7.1448">
        <ele>926.79998779297</ele>
        <time>2020-05-31T07:08:28.000Z</time>
      </trkpt>
      <trkpt lat="47.8872" lon="7.14476">
        <ele>927.20001220703</ele>
        <time>2020-05-31T07:08:29.000Z</time>
      </trkpt>
      <trkpt lat="47.88719" lon="7.14472">
        <ele>927.20001220703</ele>
        <time>2020-05-31T07:08:31.000Z</time>
      </trkpt>
      <trkpt lat="47.88719" lon="7.14469">
        <ele>927.59997558594</ele>
        <time>2020-05-31T07:08:32.000Z</time>
      </trkpt>
      <trkpt lat="47.8872" lon="7.14467">
        <ele>928</ele>
        <time>2020-05-31T07:08:33.000Z</time>
      </trkpt>
      <trkpt lat="47.8872" lon="7.14465">
        <ele>928.40002441406</ele>
        <time>2020-05-31T07:08:34.000Z</time>
      </trkpt>
      <trkpt lat="47.8872" lon="7.14463">
        <ele>928.79998779297</ele>
        <time>2020-05-31T07:08:35.000Z</time>
      </trkpt>
      <trkpt lat="47.88721" lon="7.14461">
        <ele>929.20001220703</ele>
        <time>2020-05-31T07:08:36.000Z</time>
      </trkpt>
      <trkpt lat="47.88722" lon="7.14456">
        <ele>929.20001220703</ele>
        <time>2020-05-31T07:08:38.000Z</time>
      </trkpt>
      <trkpt lat="47.88722" lon="7.14453">
        <ele>929.79998779297</ele>
        <time>2020-05-31T07:08:40.000Z</time>
      </trkpt>
      <trkpt lat="47.88723" lon="7.1445">
        <ele>930.20001220703</ele>
        <time>2020-05-31T07:08:41.000Z</time>
      </trkpt>
      <trkpt lat="47.88723" lon="7.14446">
        <ele>930.59997558594</ele>
        <time>2020-05-31T07:08:42.000Z</time>
      </trkpt>
      <trkpt lat="47.88724" lon="7.14443">
        <ele>931</ele>
        <time>2020-05-31T07:08:43.000Z</time>
      </trkpt>
      <trkpt lat="47.88724" lon="7.1444">
        <ele>931.59997558594</ele>
        <time>2020-05-31T07:08:44.000Z</time>
      </trkpt>
      <trkpt lat="47.88724" lon="7.14438">
        <ele>932</ele>
        <time>2020-05-31T07:08:45.000Z</time>
      </trkpt>
      <trkpt lat="47.88724" lon="7.14435">
        <ele>932.40002441406</ele>
        <time>2020-05-31T07:08:46.000Z</time>
      </trkpt>
      <trkpt lat="47.88725" lon="7.14434">
        <ele>932.79998779297</ele>
        <time>2020-05-31T07:08:47.000Z</time>
      </trkpt>
      <trkpt lat="47.88726" lon="7.14431">
        <ele>933.20001220703</ele>
        <time>2020-05-31T07:08:48.000Z</time>
      </trkpt>
      <trkpt lat="47.88727" lon="7.1443">
        <ele>933.59997558594</ele>
        <time>2020-05-31T07:08:49.000Z</time>
      </trkpt>
      <trkpt lat="47.88727" lon="7.14429">
        <ele>934.20001220703</ele>
        <time>2020-05-31T07:08:50.000Z</time>
      </trkpt>
      <trkpt lat="47.88727" lon="7.14427">
        <ele>934.59997558594</ele>
        <time>2020-05-31T07:08:51.000Z</time>
      </trkpt>
      <trkpt lat="47.88727" lon="7.14425">
        <ele>935</ele>
        <time>2020-05-31T07:08:52.000Z</time>
      </trkpt>
      <trkpt lat="47.88728" lon="7.14422">
        <ele>935.40002441406</ele>
        <time>2020-05-31T07:08:53.000Z</time>
      </trkpt>
      <trkpt lat="47.88728" lon="7.1442">
        <ele>936</ele>
        <time>2020-05-31T07:08:54.000Z</time>
      </trkpt>
      <trkpt lat="47.88729" lon="7.14412">
        <ele>936.40002441406</ele>
        <time>2020-05-31T07:08:56.000Z</time>
      </trkpt>
      <trkpt lat="47.8873" lon="7.14409">
        <ele>936.79998779297</ele>
        <time>2020-05-31T07:08:57.000Z</time>
      </trkpt>
      <trkpt lat="47.88731" lon="7.14407">
        <ele>937.20001220703</ele>
        <time>2020-05-31T07:08:58.000Z</time>
      </trkpt>
      <trkpt lat="47.88732" lon="7.14404">
        <ele>937.59997558594</ele>
        <time>2020-05-31T07:08:59.000Z</time>
      </trkpt>
      <trkpt lat="47.88733" lon="7.14402">
        <ele>938.20001220703</ele>
        <time>2020-05-31T07:09:00.000Z</time>
      </trkpt>
      <trkpt lat="47.88734" lon="7.14397">
        <ele>938.20001220703</ele>
        <time>2020-05-31T07:09:02.000Z</time>
      </trkpt>
      <trkpt lat="47.88735" lon="7.14391">
        <ele>938.59997558594</ele>
        <time>2020-05-31T07:09:04.000Z</time>
      </trkpt>
      <trkpt lat="47.88736" lon="7.14388">
        <ele>939</ele>
        <time>2020-05-31T07:09:05.000Z</time>
      </trkpt>
      <trkpt lat="47.88736" lon="7.14386">
        <ele>939.59997558594</ele>
        <time>2020-05-31T07:09:06.000Z</time>
      </trkpt>
      <trkpt lat="47.88737" lon="7.14383">
        <ele>940</ele>
        <time>2020-05-31T07:09:07.000Z</time>
      </trkpt>
      <trkpt lat="47.88739" lon="7.14379">
        <ele>940.40002441406</ele>
        <time>2020-05-31T07:09:08.000Z</time>
      </trkpt>
      <trkpt lat="47.8874" lon="7.14375">
        <ele>940.79998779297</ele>
        <time>2020-05-31T07:09:09.000Z</time>
      </trkpt>
      <trkpt lat="47.88741" lon="7.14371">
        <ele>941.20001220703</ele>
        <time>2020-05-31T07:09:10.000Z</time>
      </trkpt>
      <trkpt lat="47.88742" lon="7.14368">
        <ele>941.59997558594</ele>
        <time>2020-05-31T07:09:11.000Z</time>
      </trkpt>
      <trkpt lat="47.88743" lon="7.14366">
        <ele>942</ele>
        <time>2020-05-31T07:09:12.000Z</time>
      </trkpt>
      <trkpt lat="47.88743" lon="7.14364">
        <ele>942.40002441406</ele>
        <time>2020-05-31T07:09:13.000Z</time>
      </trkpt>
      <trkpt lat="47.88744" lon="7.14361">
        <ele>942.79998779297</ele>
        <time>2020-05-31T07:09:14.000Z</time>
      </trkpt>
      <trkpt lat="47.88745" lon="7.14358">
        <ele>943.20001220703</ele>
        <time>2020-05-31T07:09:15.000Z</time>
      </trkpt>
      <trkpt lat="47.88746" lon="7.14355">
        <ele>943.59997558594</ele>
        <time>2020-05-31T07:09:16.000Z</time>
      </trkpt>
      <trkpt lat="47.88747" lon="7.14351">
        <ele>944</ele>
        <time>2020-05-31T07:09:17.000Z</time>
      </trkpt>
      <trkpt lat="47.88747" lon="7.14348">
        <ele>944.40002441406</ele>
        <time>2020-05-31T07:09:18.000Z</time>
      </trkpt>
      <trkpt lat="47.8875" lon="7.1434">
        <ele>944.40002441406</ele>
        <time>2020-05-31T07:09:21.000Z</time>
      </trkpt>
      <trkpt lat="47.8875" lon="7.14338">
        <ele>944.79998779297</ele>
        <time>2020-05-31T07:09:22.000Z</time>
      </trkpt>
      <trkpt lat="47.8875" lon="7.14335">
        <ele>945.20001220703</ele>
        <time>2020-05-31T07:09:23.000Z</time>
      </trkpt>
      <trkpt lat="47.88751" lon="7.14334">
        <ele>945.59997558594</ele>
        <time>2020-05-31T07:09:24.000Z</time>
      </trkpt>
      <trkpt lat="47.88751" lon="7.14333">
        <ele>946</ele>
        <time>2020-05-31T07:09:25.000Z</time>
      </trkpt>
      <trkpt lat="47.88751" lon="7.1433">
        <ele>946.40002441406</ele>
        <time>2020-05-31T07:09:26.000Z</time>
      </trkpt>
      <trkpt lat="47.88754" lon="7.14321">
        <ele>946.40002441406</ele>
        <time>2020-05-31T07:09:29.000Z</time>
      </trkpt>
      <trkpt lat="47.88757" lon="7.14314">
        <ele>947</ele>
        <time>2020-05-31T07:09:31.000Z</time>
      </trkpt>
      <trkpt lat="47.88757" lon="7.14311">
        <ele>947.40002441406</ele>
        <time>2020-05-31T07:09:32.000Z</time>
      </trkpt>
      <trkpt lat="47.88758" lon="7.14308">
        <ele>947.79998779297</ele>
        <time>2020-05-31T07:09:33.000Z</time>
      </trkpt>
      <trkpt lat="47.88758" lon="7.14304">
        <ele>948.59997558594</ele>
        <time>2020-05-31T07:09:34.000Z</time>
      </trkpt>
      <trkpt lat="47.88759" lon="7.14292">
        <ele>948.59997558594</ele>
        <time>2020-05-31T07:09:38.000Z</time>
      </trkpt>
      <trkpt lat="47.8876" lon="7.1429">
        <ele>949</ele>
        <time>2020-05-31T07:09:39.000Z</time>
      </trkpt>
      <trkpt lat="47.88761" lon="7.14286">
        <ele>949.59997558594</ele>
        <time>2020-05-31T07:09:40.000Z</time>
      </trkpt>
      <trkpt lat="47.88762" lon="7.14284">
        <ele>950</ele>
        <time>2020-05-31T07:09:41.000Z</time>
      </trkpt>
      <trkpt lat="47.88762" lon="7.14282">
        <ele>950.40002441406</ele>
        <time>2020-05-31T07:09:42.000Z</time>
      </trkpt>
      <trkpt lat="47.88763" lon="7.1428">
        <ele>950.79998779297</ele>
        <time>2020-05-31T07:09:43.000Z</time>
      </trkpt>
      <trkpt lat="47.88763" lon="7.14278">
        <ele>950.79998779297</ele>
        <time>2020-05-31T07:09:44.000Z</time>
      </trkpt>
      <trkpt lat="47.88758" lon="7.14257">
        <ele>951.20001220703</ele>
        <time>2020-05-31T07:09:49.000Z</time>
      </trkpt>
      <trkpt lat="47.88757" lon="7.14252">
        <ele>951.79998779297</ele>
        <time>2020-05-31T07:09:50.000Z</time>
      </trkpt>
      <trkpt lat="47.88756" lon="7.14249">
        <ele>952.20001220703</ele>
        <time>2020-05-31T07:09:51.000Z</time>
      </trkpt>
      <trkpt lat="47.88755" lon="7.14244">
        <ele>952.79998779297</ele>
        <time>2020-05-31T07:09:52.000Z</time>
      </trkpt>
      <trkpt lat="47.88754" lon="7.14241">
        <ele>953.20001220703</ele>
        <time>2020-05-31T07:09:53.000Z</time>
      </trkpt>
      <trkpt lat="47.88754" lon="7.14235">
        <ele>953.20001220703</ele>
        <time>2020-05-31T07:09:55.000Z</time>
      </trkpt>
      <trkpt lat="47.88753" lon="7.14232">
        <ele>953.59997558594</ele>
        <time>2020-05-31T07:09:56.000Z</time>
      </trkpt>
      <trkpt lat="47.88753" lon="7.1423">
        <ele>954</ele>
        <time>2020-05-31T07:09:57.000Z</time>
      </trkpt>
      <trkpt lat="47.88753" lon="7.14227">
        <ele>955</ele>
        <time>2020-05-31T07:09:58.000Z</time>
      </trkpt>
      <trkpt lat="47.88752" lon="7.14224">
        <ele>955.40002441406</ele>
        <time>2020-05-31T07:09:59.000Z</time>
      </trkpt>
      <trkpt lat="47.88751" lon="7.14221">
        <ele>955.40002441406</ele>
        <time>2020-05-31T07:10:00.000Z</time>
      </trkpt>
      <trkpt lat="47.88749" lon="7.14212">
        <ele>955.40002441406</ele>
        <time>2020-05-31T07:10:06.000Z</time>
      </trkpt>
      <trkpt lat="47.8875" lon="7.14212">
        <ele>955.40002441406</ele>
        <time>2020-05-31T07:13:26.000Z</time>
      </trkpt>
      <trkpt lat="47.88751" lon="7.14206">
        <ele>955.40002441406</ele>
        <time>2020-05-31T07:13:28.000Z</time>
      </trkpt>
      <trkpt lat="47.88752" lon="7.14197">
        <ele>955.79998779297</ele>
        <time>2020-05-31T07:13:31.000Z</time>
      </trkpt>
      <trkpt lat="47.88751" lon="7.14194">
        <ele>956.20001220703</ele>
        <time>2020-05-31T07:13:32.000Z</time>
      </trkpt>
      <trkpt lat="47.88752" lon="7.1419">
        <ele>956.59997558594</ele>
        <time>2020-05-31T07:13:33.000Z</time>
      </trkpt>
      <trkpt lat="47.88752" lon="7.14186">
        <ele>957.20001220703</ele>
        <time>2020-05-31T07:13:34.000Z</time>
      </trkpt>
      <trkpt lat="47.88753" lon="7.14184">
        <ele>957.59997558594</ele>
        <time>2020-05-31T07:13:35.000Z</time>
      </trkpt>
      <trkpt lat="47.88756" lon="7.14165">
        <ele>957.59997558594</ele>
        <time>2020-05-31T07:13:40.000Z</time>
      </trkpt>
      <trkpt lat="47.88766" lon="7.14141">
        <ele>957.59997558594</ele>
        <time>2020-05-31T07:13:46.000Z</time>
      </trkpt>
      <trkpt lat="47.88772" lon="7.14112">
        <ele>957.59997558594</ele>
        <time>2020-05-31T07:13:50.000Z</time>
      </trkpt>
      <trkpt lat="47.88773" lon="7.14094">
        <ele>957</ele>
        <time>2020-05-31T07:13:52.000Z</time>
      </trkpt>
      <trkpt lat="47.88774" lon="7.14084">
        <ele>956.59997558594</ele>
        <time>2020-05-31T07:13:53.000Z</time>
      </trkpt>
      <trkpt lat="47.88774" lon="7.14074">
        <ele>956.20001220703</ele>
        <time>2020-05-31T07:13:54.000Z</time>
      </trkpt>
      <trkpt lat="47.88773" lon="7.14063">
        <ele>955.40002441406</ele>
        <time>2020-05-31T07:13:55.000Z</time>
      </trkpt>
      <trkpt lat="47.8877" lon="7.14051">
        <ele>954.79998779297</ele>
        <time>2020-05-31T07:13:56.000Z</time>
      </trkpt>
      <trkpt lat="47.88768" lon="7.1404">
        <ele>954.20001220703</ele>
        <time>2020-05-31T07:13:57.000Z</time>
      </trkpt>
      <trkpt lat="47.88766" lon="7.14029">
        <ele>953.59997558594</ele>
        <time>2020-05-31T07:13:58.000Z</time>
      </trkpt>
      <trkpt lat="47.88765" lon="7.14019">
        <ele>953</ele>
        <time>2020-05-31T07:13:59.000Z</time>
      </trkpt>
      <trkpt lat="47.88759" lon="7.13979">
        <ele>953</ele>
        <time>2020-05-31T07:14:03.000Z</time>
      </trkpt>
      <trkpt lat="47.88757" lon="7.13958">
        <ele>953</ele>
        <time>2020-05-31T07:14:05.000Z</time>
      </trkpt>
      <trkpt lat="47.88755" lon="7.13949">
        <ele>952</ele>
        <time>2020-05-31T07:14:06.000Z</time>
      </trkpt>
      <trkpt lat="47.88754" lon="7.1394">
        <ele>951.59997558594</ele>
        <time>2020-05-31T07:14:07.000Z</time>
      </trkpt>
      <trkpt lat="47.88752" lon="7.13933">
        <ele>951</ele>
        <time>2020-05-31T07:14:08.000Z</time>
      </trkpt>
      <trkpt lat="47.88751" lon="7.13927">
        <ele>950.59997558594</ele>
        <time>2020-05-31T07:14:09.000Z</time>
      </trkpt>
      <trkpt lat="47.88749" lon="7.13912">
        <ele>951</ele>
        <time>2020-05-31T07:14:12.000Z</time>
      </trkpt>
      <trkpt lat="47.88748" lon="7.13906">
        <ele>951.40002441406</ele>
        <time>2020-05-31T07:14:13.000Z</time>
      </trkpt>
      <trkpt lat="47.88747" lon="7.13901">
        <ele>951.79998779297</ele>
        <time>2020-05-31T07:14:14.000Z</time>
      </trkpt>
      <trkpt lat="47.88745" lon="7.13895">
        <ele>952.20001220703</ele>
        <time>2020-05-31T07:14:15.000Z</time>
      </trkpt>
      <trkpt lat="47.88744" lon="7.13888">
        <ele>952.59997558594</ele>
        <time>2020-05-31T07:14:16.000Z</time>
      </trkpt>
      <trkpt lat="47.88741" lon="7.13877">
        <ele>952.59997558594</ele>
        <time>2020-05-31T07:14:18.000Z</time>
      </trkpt>
      <trkpt lat="47.88739" lon="7.13871">
        <ele>952.59997558594</ele>
        <time>2020-05-31T07:14:19.000Z</time>
      </trkpt>
      <trkpt lat="47.88734" lon="7.13842">
        <ele>952.59997558594</ele>
        <time>2020-05-31T07:14:24.000Z</time>
      </trkpt>
      <trkpt lat="47.88731" lon="7.1383">
        <ele>952.59997558594</ele>
        <time>2020-05-31T07:14:28.000Z</time>
      </trkpt>
      <trkpt lat="47.88727" lon="7.13822">
        <ele>952.59997558594</ele>
        <time>2020-05-31T07:14:33.000Z</time>
      </trkpt>
      <trkpt lat="47.88725" lon="7.13811">
        <ele>952.59997558594</ele>
        <time>2020-05-31T07:14:38.000Z</time>
      </trkpt>
      <trkpt lat="47.88725" lon="7.13809">
        <ele>953.20001220703</ele>
        <time>2020-05-31T07:14:39.000Z</time>
      </trkpt>
      <trkpt lat="47.88726" lon="7.13808">
        <ele>953.59997558594</ele>
        <time>2020-05-31T07:14:40.000Z</time>
      </trkpt>
      <trkpt lat="47.88727" lon="7.13806">
        <ele>954</ele>
        <time>2020-05-31T07:14:41.000Z</time>
      </trkpt>
      <trkpt lat="47.88729" lon="7.13803">
        <ele>954.40002441406</ele>
        <time>2020-05-31T07:14:42.000Z</time>
      </trkpt>
      <trkpt lat="47.8873" lon="7.13801">
        <ele>954.79998779297</ele>
        <time>2020-05-31T07:14:43.000Z</time>
      </trkpt>
      <trkpt lat="47.88731" lon="7.13796">
        <ele>954.79998779297</ele>
        <time>2020-05-31T07:14:45.000Z</time>
      </trkpt>
      <trkpt lat="47.88733" lon="7.13794">
        <ele>954.79998779297</ele>
        <time>2020-05-31T07:14:46.000Z</time>
      </trkpt>
      <trkpt lat="47.88734" lon="7.13792">
        <ele>955.40002441406</ele>
        <time>2020-05-31T07:14:47.000Z</time>
      </trkpt>
      <trkpt lat="47.88734" lon="7.1379">
        <ele>955.79998779297</ele>
        <time>2020-05-31T07:14:48.000Z</time>
      </trkpt>
      <trkpt lat="47.88736" lon="7.13787">
        <ele>956.40002441406</ele>
        <time>2020-05-31T07:14:49.000Z</time>
      </trkpt>
      <trkpt lat="47.88738" lon="7.13784">
        <ele>956.79998779297</ele>
        <time>2020-05-31T07:14:50.000Z</time>
      </trkpt>
      <trkpt lat="47.8874" lon="7.13782">
        <ele>957.40002441406</ele>
        <time>2020-05-31T07:14:51.000Z</time>
      </trkpt>
      <trkpt lat="47.88742" lon="7.13779">
        <ele>957.79998779297</ele>
        <time>2020-05-31T07:14:52.000Z</time>
      </trkpt>
      <trkpt lat="47.88743" lon="7.13777">
        <ele>958.20001220703</ele>
        <time>2020-05-31T07:14:53.000Z</time>
      </trkpt>
      <trkpt lat="47.88744" lon="7.13775">
        <ele>958.59997558594</ele>
        <time>2020-05-31T07:14:54.000Z</time>
      </trkpt>
      <trkpt lat="47.88745" lon="7.13773">
        <ele>959.40002441406</ele>
        <time>2020-05-31T07:14:55.000Z</time>
      </trkpt>
      <trkpt lat="47.88746" lon="7.13769">
        <ele>959.79998779297</ele>
        <time>2020-05-31T07:14:56.000Z</time>
      </trkpt>
      <trkpt lat="47.88748" lon="7.13767">
        <ele>960.40002441406</ele>
        <time>2020-05-31T07:14:57.000Z</time>
      </trkpt>
      <trkpt lat="47.8875" lon="7.13764">
        <ele>960.79998779297</ele>
        <time>2020-05-31T07:14:58.000Z</time>
      </trkpt>
      <trkpt lat="47.88753" lon="7.13761">
        <ele>961.20001220703</ele>
        <time>2020-05-31T07:14:59.000Z</time>
      </trkpt>
      <trkpt lat="47.88755" lon="7.13758">
        <ele>961.59997558594</ele>
        <time>2020-05-31T07:15:00.000Z</time>
      </trkpt>
      <trkpt lat="47.88757" lon="7.13756">
        <ele>962</ele>
        <time>2020-05-31T07:15:01.000Z</time>
      </trkpt>
      <trkpt lat="47.88759" lon="7.13752">
        <ele>962.40002441406</ele>
        <time>2020-05-31T07:15:02.000Z</time>
      </trkpt>
      <trkpt lat="47.88761" lon="7.1375">
        <ele>962.79998779297</ele>
        <time>2020-05-31T07:15:03.000Z</time>
      </trkpt>
      <trkpt lat="47.88763" lon="7.13748">
        <ele>963.20001220703</ele>
        <time>2020-05-31T07:15:04.000Z</time>
      </trkpt>
      <trkpt lat="47.88764" lon="7.13745">
        <ele>963.59997558594</ele>
        <time>2020-05-31T07:15:05.000Z</time>
      </trkpt>
      <trkpt lat="47.88766" lon="7.13743">
        <ele>964.20001220703</ele>
        <time>2020-05-31T07:15:06.000Z</time>
      </trkpt>
      <trkpt lat="47.88768" lon="7.1374">
        <ele>964.59997558594</ele>
        <time>2020-05-31T07:15:07.000Z</time>
      </trkpt>
      <trkpt lat="47.8877" lon="7.13739">
        <ele>965</ele>
        <time>2020-05-31T07:15:08.000Z</time>
      </trkpt>
      <trkpt lat="47.88772" lon="7.13737">
        <ele>965.40002441406</ele>
        <time>2020-05-31T07:15:09.000Z</time>
      </trkpt>
      <trkpt lat="47.88774" lon="7.13735">
        <ele>965.79998779297</ele>
        <time>2020-05-31T07:15:10.000Z</time>
      </trkpt>
      <trkpt lat="47.88776" lon="7.13733">
        <ele>966.40002441406</ele>
        <time>2020-05-31T07:15:11.000Z</time>
      </trkpt>
      <trkpt lat="47.88778" lon="7.1373">
        <ele>966.79998779297</ele>
        <time>2020-05-31T07:15:12.000Z</time>
      </trkpt>
      <trkpt lat="47.8878" lon="7.13726">
        <ele>967.40002441406</ele>
        <time>2020-05-31T07:15:13.000Z</time>
      </trkpt>
      <trkpt lat="47.88782" lon="7.13722">
        <ele>967.79998779297</ele>
        <time>2020-05-31T07:15:14.000Z</time>
      </trkpt>
      <trkpt lat="47.88784" lon="7.13719">
        <ele>968.40002441406</ele>
        <time>2020-05-31T07:15:15.000Z</time>
      </trkpt>
      <trkpt lat="47.88787" lon="7.13716">
        <ele>968.79998779297</ele>
        <time>2020-05-31T07:15:16.000Z</time>
      </trkpt>
      <trkpt lat="47.88789" lon="7.13712">
        <ele>969.40002441406</ele>
        <time>2020-05-31T07:15:17.000Z</time>
      </trkpt>
      <trkpt lat="47.88792" lon="7.1371">
        <ele>970.40002441406</ele>
        <time>2020-05-31T07:15:18.000Z</time>
      </trkpt>
      <trkpt lat="47.88794" lon="7.13706">
        <ele>970.79998779297</ele>
        <time>2020-05-31T07:15:19.000Z</time>
      </trkpt>
      <trkpt lat="47.88796" lon="7.13703">
        <ele>971.20001220703</ele>
        <time>2020-05-31T07:15:20.000Z</time>
      </trkpt>
      <trkpt lat="47.88797" lon="7.13701">
        <ele>971.59997558594</ele>
        <time>2020-05-31T07:15:21.000Z</time>
      </trkpt>
      <trkpt lat="47.88798" lon="7.13699">
        <ele>972.20001220703</ele>
        <time>2020-05-31T07:15:22.000Z</time>
      </trkpt>
      <trkpt lat="47.88799" lon="7.13697">
        <ele>972.79998779297</ele>
        <time>2020-05-31T07:15:23.000Z</time>
      </trkpt>
      <trkpt lat="47.888" lon="7.13694">
        <ele>973.20001220703</ele>
        <time>2020-05-31T07:15:24.000Z</time>
      </trkpt>
      <trkpt lat="47.88802" lon="7.13692">
        <ele>973.79998779297</ele>
        <time>2020-05-31T07:15:25.000Z</time>
      </trkpt>
      <trkpt lat="47.88804" lon="7.13691">
        <ele>974.40002441406</ele>
        <time>2020-05-31T07:15:26.000Z</time>
      </trkpt>
      <trkpt lat="47.88805" lon="7.13689">
        <ele>975</ele>
        <time>2020-05-31T07:15:27.000Z</time>
      </trkpt>
      <trkpt lat="47.88807" lon="7.13689">
        <ele>975.40002441406</ele>
        <time>2020-05-31T07:15:28.000Z</time>
      </trkpt>
      <trkpt lat="47.88809" lon="7.13686">
        <ele>976</ele>
        <time>2020-05-31T07:15:29.000Z</time>
      </trkpt>
      <trkpt lat="47.8881" lon="7.13683">
        <ele>976.59997558594</ele>
        <time>2020-05-31T07:15:30.000Z</time>
      </trkpt>
      <trkpt lat="47.88811" lon="7.13681">
        <ele>977</ele>
        <time>2020-05-31T07:15:31.000Z</time>
      </trkpt>
      <trkpt lat="47.88811" lon="7.1368">
        <ele>977.59997558594</ele>
        <time>2020-05-31T07:15:32.000Z</time>
      </trkpt>
      <trkpt lat="47.88811" lon="7.13679">
        <ele>978</ele>
        <time>2020-05-31T07:15:33.000Z</time>
      </trkpt>
      <trkpt lat="47.88808" lon="7.13657">
        <ele>983.20001220703</ele>
        <time>2020-05-31T07:16:39.000Z</time>
      </trkpt>
      <trkpt lat="47.88808" lon="7.13655">
        <ele>983.20001220703</ele>
        <time>2020-05-31T07:16:40.000Z</time>
      </trkpt>
      <trkpt lat="47.88808" lon="7.13649">
        <ele>983.59997558594</ele>
        <time>2020-05-31T07:16:42.000Z</time>
      </trkpt>
      <trkpt lat="47.88809" lon="7.13647">
        <ele>984</ele>
        <time>2020-05-31T07:16:43.000Z</time>
      </trkpt>
      <trkpt lat="47.88809" lon="7.13644">
        <ele>984.59997558594</ele>
        <time>2020-05-31T07:16:44.000Z</time>
      </trkpt>
      <trkpt lat="47.8881" lon="7.13641">
        <ele>985</ele>
        <time>2020-05-31T07:16:45.000Z</time>
      </trkpt>
      <trkpt lat="47.88809" lon="7.13638">
        <ele>985.40002441406</ele>
        <time>2020-05-31T07:16:46.000Z</time>
      </trkpt>
      <trkpt lat="47.88809" lon="7.13636">
        <ele>986</ele>
        <time>2020-05-31T07:16:47.000Z</time>
      </trkpt>
      <trkpt lat="47.88809" lon="7.13634">
        <ele>986.59997558594</ele>
        <time>2020-05-31T07:16:48.000Z</time>
      </trkpt>
      <trkpt lat="47.88807" lon="7.13631">
        <ele>987</ele>
        <time>2020-05-31T07:16:49.000Z</time>
      </trkpt>
      <trkpt lat="47.88806" lon="7.13628">
        <ele>987.59997558594</ele>
        <time>2020-05-31T07:16:50.000Z</time>
      </trkpt>
      <trkpt lat="47.88805" lon="7.13625">
        <ele>987.59997558594</ele>
        <time>2020-05-31T07:16:51.000Z</time>
      </trkpt>
      <trkpt lat="47.88801" lon="7.13614">
        <ele>987.59997558594</ele>
        <time>2020-05-31T07:16:55.000Z</time>
      </trkpt>
      <trkpt lat="47.88801" lon="7.13612">
        <ele>988</ele>
        <time>2020-05-31T07:16:56.000Z</time>
      </trkpt>
      <trkpt lat="47.888" lon="7.13609">
        <ele>989</ele>
        <time>2020-05-31T07:16:57.000Z</time>
      </trkpt>
      <trkpt lat="47.888" lon="7.13607">
        <ele>989.40002441406</ele>
        <time>2020-05-31T07:16:58.000Z</time>
      </trkpt>
      <trkpt lat="47.88799" lon="7.13603">
        <ele>990</ele>
        <time>2020-05-31T07:16:59.000Z</time>
      </trkpt>
      <trkpt lat="47.88798" lon="7.13598">
        <ele>990.40002441406</ele>
        <time>2020-05-31T07:17:00.000Z</time>
      </trkpt>
      <trkpt lat="47.88796" lon="7.13593">
        <ele>990.79998779297</ele>
        <time>2020-05-31T07:17:01.000Z</time>
      </trkpt>
      <trkpt lat="47.88793" lon="7.13589">
        <ele>991.20001220703</ele>
        <time>2020-05-31T07:17:02.000Z</time>
      </trkpt>
      <trkpt lat="47.88793" lon="7.13587">
        <ele>991.59997558594</ele>
        <time>2020-05-31T07:17:03.000Z</time>
      </trkpt>
      <trkpt lat="47.88792" lon="7.13584">
        <ele>992</ele>
        <time>2020-05-31T07:17:04.000Z</time>
      </trkpt>
      <trkpt lat="47.88792" lon="7.13581">
        <ele>992</ele>
        <time>2020-05-31T07:17:05.000Z</time>
      </trkpt>
      <trkpt lat="47.88791" lon="7.13577">
        <ele>992.40002441406</ele>
        <time>2020-05-31T07:17:06.000Z</time>
      </trkpt>
      <trkpt lat="47.8879" lon="7.13574">
        <ele>992.79998779297</ele>
        <time>2020-05-31T07:17:07.000Z</time>
      </trkpt>
      <trkpt lat="47.8879" lon="7.13572">
        <ele>993.20001220703</ele>
        <time>2020-05-31T07:17:08.000Z</time>
      </trkpt>
      <trkpt lat="47.88789" lon="7.1357">
        <ele>993.79998779297</ele>
        <time>2020-05-31T07:17:09.000Z</time>
      </trkpt>
      <trkpt lat="47.88788" lon="7.13568">
        <ele>994.20001220703</ele>
        <time>2020-05-31T07:17:10.000Z</time>
      </trkpt>
      <trkpt lat="47.88786" lon="7.13564">
        <ele>994.20001220703</ele>
        <time>2020-05-31T07:17:12.000Z</time>
      </trkpt>
      <trkpt lat="47.88781" lon="7.13555">
        <ele>994.20001220703</ele>
        <time>2020-05-31T07:17:17.000Z</time>
      </trkpt>
      <trkpt lat="47.8877" lon="7.13535">
        <ele>994.20001220703</ele>
        <time>2020-05-31T07:17:24.000Z</time>
      </trkpt>
      <trkpt lat="47.88763" lon="7.13513">
        <ele>994.20001220703</ele>
        <time>2020-05-31T07:17:29.000Z</time>
      </trkpt>
      <trkpt lat="47.88759" lon="7.13503">
        <ele>994.20001220703</ele>
        <time>2020-05-31T07:17:32.000Z</time>
      </trkpt>
      <trkpt lat="47.88757" lon="7.135">
        <ele>994.20001220703</ele>
        <time>2020-05-31T07:17:33.000Z</time>
      </trkpt>
      <trkpt lat="47.88753" lon="7.13493">
        <ele>994.20001220703</ele>
        <time>2020-05-31T07:17:35.000Z</time>
      </trkpt>
      <trkpt lat="47.88749" lon="7.13485">
        <ele>994.20001220703</ele>
        <time>2020-05-31T07:17:37.000Z</time>
      </trkpt>
      <trkpt lat="47.88741" lon="7.13472">
        <ele>994.20001220703</ele>
        <time>2020-05-31T07:17:41.000Z</time>
      </trkpt>
      <trkpt lat="47.88735" lon="7.1345">
        <ele>994.20001220703</ele>
        <time>2020-05-31T07:17:45.000Z</time>
      </trkpt>
      <trkpt lat="47.88724" lon="7.13435">
        <ele>994.20001220703</ele>
        <time>2020-05-31T07:17:49.000Z</time>
      </trkpt>
      <trkpt lat="47.88711" lon="7.13417">
        <ele>994.20001220703</ele>
        <time>2020-05-31T07:17:53.000Z</time>
      </trkpt>
      <trkpt lat="47.88708" lon="7.13413">
        <ele>994.20001220703</ele>
        <time>2020-05-31T07:17:54.000Z</time>
      </trkpt>
      <trkpt lat="47.88685" lon="7.13378">
        <ele>993.59997558594</ele>
        <time>2020-05-31T07:18:00.000Z</time>
      </trkpt>
      <trkpt lat="47.88682" lon="7.13371">
        <ele>993</ele>
        <time>2020-05-31T07:18:01.000Z</time>
      </trkpt>
      <trkpt lat="47.88675" lon="7.13361">
        <ele>992.20001220703</ele>
        <time>2020-05-31T07:18:02.000Z</time>
      </trkpt>
      <trkpt lat="47.88669" lon="7.13354">
        <ele>991.40002441406</ele>
        <time>2020-05-31T07:18:03.000Z</time>
      </trkpt>
      <trkpt lat="47.88666" lon="7.13345">
        <ele>990.79998779297</ele>
        <time>2020-05-31T07:18:04.000Z</time>
      </trkpt>
      <trkpt lat="47.88662" lon="7.13335">
        <ele>990</ele>
        <time>2020-05-31T07:18:05.000Z</time>
      </trkpt>
      <trkpt lat="47.88659" lon="7.13326">
        <ele>989.20001220703</ele>
        <time>2020-05-31T07:18:06.000Z</time>
      </trkpt>
      <trkpt lat="47.88658" lon="7.13318">
        <ele>988.40002441406</ele>
        <time>2020-05-31T07:18:07.000Z</time>
      </trkpt>
      <trkpt lat="47.88657" lon="7.13309">
        <ele>987.59997558594</ele>
        <time>2020-05-31T07:18:08.000Z</time>
      </trkpt>
      <trkpt lat="47.88656" lon="7.133">
        <ele>986.79998779297</ele>
        <time>2020-05-31T07:18:09.000Z</time>
      </trkpt>
      <trkpt lat="47.88655" lon="7.13285">
        <ele>986.40002441406</ele>
        <time>2020-05-31T07:18:11.000Z</time>
      </trkpt>
      <trkpt lat="47.88653" lon="7.13277">
        <ele>985.59997558594</ele>
        <time>2020-05-31T07:18:12.000Z</time>
      </trkpt>
      <trkpt lat="47.88653" lon="7.1327">
        <ele>985.20001220703</ele>
        <time>2020-05-31T07:18:13.000Z</time>
      </trkpt>
      <trkpt lat="47.88652" lon="7.13264">
        <ele>984.79998779297</ele>
        <time>2020-05-31T07:18:14.000Z</time>
      </trkpt>
      <trkpt lat="47.88653" lon="7.13247">
        <ele>985.20001220703</ele>
        <time>2020-05-31T07:18:17.000Z</time>
      </trkpt>
      <trkpt lat="47.88654" lon="7.13243">
        <ele>985.59997558594</ele>
        <time>2020-05-31T07:18:18.000Z</time>
      </trkpt>
      <trkpt lat="47.88654" lon="7.13238">
        <ele>986</ele>
        <time>2020-05-31T07:18:19.000Z</time>
      </trkpt>
      <trkpt lat="47.88655" lon="7.1323">
        <ele>986.40002441406</ele>
        <time>2020-05-31T07:18:20.000Z</time>
      </trkpt>
      <trkpt lat="47.88656" lon="7.13223">
        <ele>986.79998779297</ele>
        <time>2020-05-31T07:18:21.000Z</time>
      </trkpt>
      <trkpt lat="47.88656" lon="7.13217">
        <ele>986.79998779297</ele>
        <time>2020-05-31T07:18:22.000Z</time>
      </trkpt>
      <trkpt lat="47.88658" lon="7.13205">
        <ele>986.79998779297</ele>
        <time>2020-05-31T07:18:24.000Z</time>
      </trkpt>
      <trkpt lat="47.88658" lon="7.13195">
        <ele>986.79998779297</ele>
        <time>2020-05-31T07:18:26.000Z</time>
      </trkpt>
      <trkpt lat="47.88665" lon="7.13168">
        <ele>987.20001220703</ele>
        <time>2020-05-31T07:18:31.000Z</time>
      </trkpt>
      <trkpt lat="47.88665" lon="7.13166">
        <ele>987.59997558594</ele>
        <time>2020-05-31T07:18:32.000Z</time>
      </trkpt>
      <trkpt lat="47.88665" lon="7.13164">
        <ele>988</ele>
        <time>2020-05-31T07:18:33.000Z</time>
      </trkpt>
      <trkpt lat="47.88666" lon="7.13163">
        <ele>988.40002441406</ele>
        <time>2020-05-31T07:18:34.000Z</time>
      </trkpt>
      <trkpt lat="47.88666" lon="7.13162">
        <ele>988.79998779297</ele>
        <time>2020-05-31T07:18:35.000Z</time>
      </trkpt>
      <trkpt lat="47.8867" lon="7.13144">
        <ele>990.59997558594</ele>
        <time>2020-05-31T07:19:03.000Z</time>
      </trkpt>
      <trkpt lat="47.88672" lon="7.13141">
        <ele>991</ele>
        <time>2020-05-31T07:19:04.000Z</time>
      </trkpt>
      <trkpt lat="47.88673" lon="7.13138">
        <ele>991</ele>
        <time>2020-05-31T07:19:05.000Z</time>
      </trkpt>
      <trkpt lat="47.88679" lon="7.1312">
        <ele>991</ele>
        <time>2020-05-31T07:19:10.000Z</time>
      </trkpt>
      <trkpt lat="47.88683" lon="7.13103">
        <ele>991</ele>
        <time>2020-05-31T07:19:14.000Z</time>
      </trkpt>
      <trkpt lat="47.88686" lon="7.13084">
        <ele>990.59997558594</ele>
        <time>2020-05-31T07:19:18.000Z</time>
      </trkpt>
      <trkpt lat="47.88686" lon="7.13078">
        <ele>990.20001220703</ele>
        <time>2020-05-31T07:19:19.000Z</time>
      </trkpt>
      <trkpt lat="47.88686" lon="7.13071">
        <ele>989.79998779297</ele>
        <time>2020-05-31T07:19:20.000Z</time>
      </trkpt>
      <trkpt lat="47.88686" lon="7.13064">
        <ele>989.40002441406</ele>
        <time>2020-05-31T07:19:21.000Z</time>
      </trkpt>
      <trkpt lat="47.88685" lon="7.13057">
        <ele>989</ele>
        <time>2020-05-31T07:19:22.000Z</time>
      </trkpt>
      <trkpt lat="47.88683" lon="7.13045">
        <ele>988.40002441406</ele>
        <time>2020-05-31T07:19:24.000Z</time>
      </trkpt>
      <trkpt lat="47.88682" lon="7.13038">
        <ele>987.59997558594</ele>
        <time>2020-05-31T07:19:25.000Z</time>
      </trkpt>
      <trkpt lat="47.88681" lon="7.13031">
        <ele>987.20001220703</ele>
        <time>2020-05-31T07:19:26.000Z</time>
      </trkpt>
      <trkpt lat="47.88679" lon="7.13024">
        <ele>986.59997558594</ele>
        <time>2020-05-31T07:19:27.000Z</time>
      </trkpt>
      <trkpt lat="47.88677" lon="7.13016">
        <ele>986</ele>
        <time>2020-05-31T07:19:28.000Z</time>
      </trkpt>
      <trkpt lat="47.88675" lon="7.13008">
        <ele>985.59997558594</ele>
        <time>2020-05-31T07:19:29.000Z</time>
      </trkpt>
      <trkpt lat="47.88673" lon="7.12997">
        <ele>985</ele>
        <time>2020-05-31T07:19:30.000Z</time>
      </trkpt>
      <trkpt lat="47.88671" lon="7.12987">
        <ele>984.20001220703</ele>
        <time>2020-05-31T07:19:31.000Z</time>
      </trkpt>
      <trkpt lat="47.8867" lon="7.12976">
        <ele>983.40002441406</ele>
        <time>2020-05-31T07:19:32.000Z</time>
      </trkpt>
      <trkpt lat="47.88669" lon="7.12965">
        <ele>982.20001220703</ele>
        <time>2020-05-31T07:19:33.000Z</time>
      </trkpt>
      <trkpt lat="47.88669" lon="7.12953">
        <ele>981</ele>
        <time>2020-05-31T07:19:34.000Z</time>
      </trkpt>
      <trkpt lat="47.88668" lon="7.12941">
        <ele>979.79998779297</ele>
        <time>2020-05-31T07:19:35.000Z</time>
      </trkpt>
      <trkpt lat="47.88669" lon="7.12928">
        <ele>978.40002441406</ele>
        <time>2020-05-31T07:19:36.000Z</time>
      </trkpt>
      <trkpt lat="47.8867" lon="7.12916">
        <ele>977</ele>
        <time>2020-05-31T07:19:37.000Z</time>
      </trkpt>
      <trkpt lat="47.88673" lon="7.12903">
        <ele>975.59997558594</ele>
        <time>2020-05-31T07:19:38.000Z</time>
      </trkpt>
      <trkpt lat="47.88677" lon="7.12888">
        <ele>973.79998779297</ele>
        <time>2020-05-31T07:19:39.000Z</time>
      </trkpt>
      <trkpt lat="47.8868" lon="7.12875">
        <ele>972.20001220703</ele>
        <time>2020-05-31T07:19:40.000Z</time>
      </trkpt>
      <trkpt lat="47.88682" lon="7.12862">
        <ele>970.40002441406</ele>
        <time>2020-05-31T07:19:41.000Z</time>
      </trkpt>
      <trkpt lat="47.88684" lon="7.12851">
        <ele>968.59997558594</ele>
        <time>2020-05-31T07:19:42.000Z</time>
      </trkpt>
      <trkpt lat="47.88685" lon="7.12841">
        <ele>967</ele>
        <time>2020-05-31T07:19:43.000Z</time>
      </trkpt>
      <trkpt lat="47.88688" lon="7.12832">
        <ele>965.40002441406</ele>
        <time>2020-05-31T07:19:44.000Z</time>
      </trkpt>
      <trkpt lat="47.88689" lon="7.12826">
        <ele>963.79998779297</ele>
        <time>2020-05-31T07:19:45.000Z</time>
      </trkpt>
      <trkpt lat="47.8869" lon="7.1282">
        <ele>962.20001220703</ele>
        <time>2020-05-31T07:19:46.000Z</time>
      </trkpt>
      <trkpt lat="47.88691" lon="7.12816">
        <ele>960.59997558594</ele>
        <time>2020-05-31T07:19:47.000Z</time>
      </trkpt>
      <trkpt lat="47.88692" lon="7.12816">
        <ele>960.59997558594</ele>
        <time>2020-05-31T07:19:48.000Z</time>
      </trkpt>
      <trkpt lat="47.88686" lon="7.12812">
        <ele>960.59997558594</ele>
        <time>2020-05-31T07:19:52.000Z</time>
      </trkpt>
      <trkpt lat="47.88685" lon="7.12812">
        <ele>960.59997558594</ele>
        <time>2020-05-31T07:19:53.000Z</time>
      </trkpt>
      <trkpt lat="47.88681" lon="7.12809">
        <ele>960.59997558594</ele>
        <time>2020-05-31T07:19:57.000Z</time>
      </trkpt>
      <trkpt lat="47.88677" lon="7.1281">
        <ele>960.59997558594</ele>
        <time>2020-05-31T07:20:37.000Z</time>
      </trkpt>
      <trkpt lat="47.8867" lon="7.12808">
        <ele>960.20001220703</ele>
        <time>2020-05-31T07:20:40.000Z</time>
      </trkpt>
      <trkpt lat="47.88667" lon="7.12805">
        <ele>959.59997558594</ele>
        <time>2020-05-31T07:20:41.000Z</time>
      </trkpt>
      <trkpt lat="47.88664" lon="7.12803">
        <ele>959.20001220703</ele>
        <time>2020-05-31T07:20:42.000Z</time>
      </trkpt>
      <trkpt lat="47.88662" lon="7.12801">
        <ele>958.79998779297</ele>
        <time>2020-05-31T07:20:43.000Z</time>
      </trkpt>
      <trkpt lat="47.88658" lon="7.12797">
        <ele>958.40002441406</ele>
        <time>2020-05-31T07:20:44.000Z</time>
      </trkpt>
      <trkpt lat="47.88655" lon="7.12793">
        <ele>958.40002441406</ele>
        <time>2020-05-31T07:20:45.000Z</time>
      </trkpt>
      <trkpt lat="47.88653" lon="7.12787">
        <ele>958.40002441406</ele>
        <time>2020-05-31T07:20:46.000Z</time>
      </trkpt>
      <trkpt lat="47.88648" lon="7.12772">
        <ele>957.79998779297</ele>
        <time>2020-05-31T07:20:48.000Z</time>
      </trkpt>
      <trkpt lat="47.88646" lon="7.12764">
        <ele>957.40002441406</ele>
        <time>2020-05-31T07:20:49.000Z</time>
      </trkpt>
      <trkpt lat="47.88643" lon="7.12755">
        <ele>957</ele>
        <time>2020-05-31T07:20:50.000Z</time>
      </trkpt>
      <trkpt lat="47.88641" lon="7.12746">
        <ele>956.40002441406</ele>
        <time>2020-05-31T07:20:51.000Z</time>
      </trkpt>
      <trkpt lat="47.88638" lon="7.12736">
        <ele>956</ele>
        <time>2020-05-31T07:20:52.000Z</time>
      </trkpt>
      <trkpt lat="47.88635" lon="7.12726">
        <ele>955.40002441406</ele>
        <time>2020-05-31T07:20:53.000Z</time>
      </trkpt>
      <trkpt lat="47.88632" lon="7.12717">
        <ele>954.79998779297</ele>
        <time>2020-05-31T07:20:54.000Z</time>
      </trkpt>
      <trkpt lat="47.8863" lon="7.12707">
        <ele>954.40002441406</ele>
        <time>2020-05-31T07:20:55.000Z</time>
      </trkpt>
      <trkpt lat="47.88627" lon="7.12698">
        <ele>953.79998779297</ele>
        <time>2020-05-31T07:20:56.000Z</time>
      </trkpt>
      <trkpt lat="47.88621" lon="7.12671">
        <ele>953.79998779297</ele>
        <time>2020-05-31T07:20:59.000Z</time>
      </trkpt>
      <trkpt lat="47.88616" lon="7.12653">
        <ele>953.79998779297</ele>
        <time>2020-05-31T07:21:01.000Z</time>
      </trkpt>
      <trkpt lat="47.88613" lon="7.12637">
        <ele>953.40002441406</ele>
        <time>2020-05-31T07:21:03.000Z</time>
      </trkpt>
      <trkpt lat="47.88611" lon="7.12631">
        <ele>952.40002441406</ele>
        <time>2020-05-31T07:21:04.000Z</time>
      </trkpt>
      <trkpt lat="47.88609" lon="7.12628">
        <ele>952</ele>
        <time>2020-05-31T07:21:05.000Z</time>
      </trkpt>
      <trkpt lat="47.88607" lon="7.12626">
        <ele>951.59997558594</ele>
        <time>2020-05-31T07:21:06.000Z</time>
      </trkpt>
      <trkpt lat="47.88598" lon="7.12618">
        <ele>951.59997558594</ele>
        <time>2020-05-31T07:21:09.000Z</time>
      </trkpt>
      <trkpt lat="47.88595" lon="7.12608">
        <ele>951.59997558594</ele>
        <time>2020-05-31T07:21:11.000Z</time>
      </trkpt>
      <trkpt lat="47.88592" lon="7.12597">
        <ele>951.59997558594</ele>
        <time>2020-05-31T07:21:13.000Z</time>
      </trkpt>
      <trkpt lat="47.88582" lon="7.12564">
        <ele>951.59997558594</ele>
        <time>2020-05-31T07:21:20.000Z</time>
      </trkpt>
      <trkpt lat="47.88569" lon="7.12534">
        <ele>951.59997558594</ele>
        <time>2020-05-31T07:21:27.000Z</time>
      </trkpt>
      <trkpt lat="47.88561" lon="7.12517">
        <ele>951.20001220703</ele>
        <time>2020-05-31T07:21:30.000Z</time>
      </trkpt>
      <trkpt lat="47.88558" lon="7.1251">
        <ele>950.79998779297</ele>
        <time>2020-05-31T07:21:31.000Z</time>
      </trkpt>
      <trkpt lat="47.88554" lon="7.12502">
        <ele>950.20001220703</ele>
        <time>2020-05-31T07:21:32.000Z</time>
      </trkpt>
      <trkpt lat="47.88551" lon="7.12494">
        <ele>949.79998779297</ele>
        <time>2020-05-31T07:21:33.000Z</time>
      </trkpt>
      <trkpt lat="47.88548" lon="7.12486">
        <ele>949.40002441406</ele>
        <time>2020-05-31T07:21:34.000Z</time>
      </trkpt>
      <trkpt lat="47.88544" lon="7.12478">
        <ele>948.79998779297</ele>
        <time>2020-05-31T07:21:35.000Z</time>
      </trkpt>
      <trkpt lat="47.88541" lon="7.1247">
        <ele>948.20001220703</ele>
        <time>2020-05-31T07:21:36.000Z</time>
      </trkpt>
      <trkpt lat="47.88537" lon="7.12461">
        <ele>947.59997558594</ele>
        <time>2020-05-31T07:21:37.000Z</time>
      </trkpt>
      <trkpt lat="47.88533" lon="7.12452">
        <ele>947</ele>
        <time>2020-05-31T07:21:38.000Z</time>
      </trkpt>
      <trkpt lat="47.88529" lon="7.12443">
        <ele>946.59997558594</ele>
        <time>2020-05-31T07:21:39.000Z</time>
      </trkpt>
      <trkpt lat="47.88525" lon="7.12433">
        <ele>946.20001220703</ele>
        <time>2020-05-31T07:21:40.000Z</time>
      </trkpt>
      <trkpt lat="47.88521" lon="7.12423">
        <ele>945.79998779297</ele>
        <time>2020-05-31T07:21:41.000Z</time>
      </trkpt>
      <trkpt lat="47.88517" lon="7.12414">
        <ele>945.20001220703</ele>
        <time>2020-05-31T07:21:42.000Z</time>
      </trkpt>
      <trkpt lat="47.88513" lon="7.12404">
        <ele>944.59997558594</ele>
        <time>2020-05-31T07:21:43.000Z</time>
      </trkpt>
      <trkpt lat="47.8851" lon="7.12394">
        <ele>944</ele>
        <time>2020-05-31T07:21:44.000Z</time>
      </trkpt>
      <trkpt lat="47.88506" lon="7.12385">
        <ele>943.40002441406</ele>
        <time>2020-05-31T07:21:45.000Z</time>
      </trkpt>
      <trkpt lat="47.88502" lon="7.12375">
        <ele>942.79998779297</ele>
        <time>2020-05-31T07:21:46.000Z</time>
      </trkpt>
      <trkpt lat="47.88489" lon="7.12347">
        <ele>942.79998779297</ele>
        <time>2020-05-31T07:21:49.000Z</time>
      </trkpt>
      <trkpt lat="47.88485" lon="7.12338">
        <ele>942.79998779297</ele>
        <time>2020-05-31T07:21:50.000Z</time>
      </trkpt>
      <trkpt lat="47.8848" lon="7.12329">
        <ele>942.40002441406</ele>
        <time>2020-05-31T07:21:51.000Z</time>
      </trkpt>
      <trkpt lat="47.88476" lon="7.12319">
        <ele>942</ele>
        <time>2020-05-31T07:21:52.000Z</time>
      </trkpt>
      <trkpt lat="47.88472" lon="7.12309">
        <ele>941.20001220703</ele>
        <time>2020-05-31T07:21:53.000Z</time>
      </trkpt>
      <trkpt lat="47.88467" lon="7.12299">
        <ele>940.79998779297</ele>
        <time>2020-05-31T07:21:54.000Z</time>
      </trkpt>
      <trkpt lat="47.88459" lon="7.12279">
        <ele>940.79998779297</ele>
        <time>2020-05-31T07:21:56.000Z</time>
      </trkpt>
      <trkpt lat="47.88454" lon="7.1227">
        <ele>940.20001220703</ele>
        <time>2020-05-31T07:21:57.000Z</time>
      </trkpt>
      <trkpt lat="47.88449" lon="7.12259">
        <ele>939.79998779297</ele>
        <time>2020-05-31T07:21:58.000Z</time>
      </trkpt>
      <trkpt lat="47.88445" lon="7.1225">
        <ele>939.20001220703</ele>
        <time>2020-05-31T07:21:59.000Z</time>
      </trkpt>
      <trkpt lat="47.88441" lon="7.12242">
        <ele>938.79998779297</ele>
        <time>2020-05-31T07:22:00.000Z</time>
      </trkpt>
      <trkpt lat="47.88437" lon="7.12237">
        <ele>938.40002441406</ele>
        <time>2020-05-31T07:22:01.000Z</time>
      </trkpt>
      <trkpt lat="47.88433" lon="7.12228">
        <ele>938.40002441406</ele>
        <time>2020-05-31T07:22:03.000Z</time>
      </trkpt>
      <trkpt lat="47.88432" lon="7.12223">
        <ele>938.40002441406</ele>
        <time>2020-05-31T07:22:06.000Z</time>
      </trkpt>
      <trkpt lat="47.88435" lon="7.12231">
        <ele>938.40002441406</ele>
        <time>2020-05-31T07:22:30.000Z</time>
      </trkpt>
      <trkpt lat="47.88439" lon="7.12239">
        <ele>938.40002441406</ele>
        <time>2020-05-31T07:22:34.000Z</time>
      </trkpt>
      <trkpt lat="47.88442" lon="7.1224">
        <ele>938.40002441406</ele>
        <time>2020-05-31T07:22:36.000Z</time>
      </trkpt>
      <trkpt lat="47.88442" lon="7.12232">
        <ele>938.40002441406</ele>
        <time>2020-05-31T07:22:40.000Z</time>
      </trkpt>
      <trkpt lat="47.88441" lon="7.12229">
        <ele>938.40002441406</ele>
        <time>2020-05-31T07:22:41.000Z</time>
      </trkpt>
      <trkpt lat="47.88438" lon="7.12213">
        <ele>938.40002441406</ele>
        <time>2020-05-31T07:22:46.000Z</time>
      </trkpt>
      <trkpt lat="47.88437" lon="7.12205">
        <ele>938.79998779297</ele>
        <time>2020-05-31T07:22:49.000Z</time>
      </trkpt>
      <trkpt lat="47.88437" lon="7.12202">
        <ele>939.40002441406</ele>
        <time>2020-05-31T07:22:50.000Z</time>
      </trkpt>
      <trkpt lat="47.88437" lon="7.12199">
        <ele>939.79998779297</ele>
        <time>2020-05-31T07:22:51.000Z</time>
      </trkpt>
      <trkpt lat="47.88436" lon="7.12196">
        <ele>940.20001220703</ele>
        <time>2020-05-31T07:22:52.000Z</time>
      </trkpt>
      <trkpt lat="47.88436" lon="7.12193">
        <ele>940.79998779297</ele>
        <time>2020-05-31T07:22:53.000Z</time>
      </trkpt>
      <trkpt lat="47.88435" lon="7.12188">
        <ele>940.79998779297</ele>
        <time>2020-05-31T07:22:55.000Z</time>
      </trkpt>
      <trkpt lat="47.88435" lon="7.12185">
        <ele>940.79998779297</ele>
        <time>2020-05-31T07:22:56.000Z</time>
      </trkpt>
      <trkpt lat="47.88435" lon="7.12182">
        <ele>941.20001220703</ele>
        <time>2020-05-31T07:22:57.000Z</time>
      </trkpt>
      <trkpt lat="47.88434" lon="7.12179">
        <ele>941.59997558594</ele>
        <time>2020-05-31T07:22:58.000Z</time>
      </trkpt>
      <trkpt lat="47.88434" lon="7.12175">
        <ele>942</ele>
        <time>2020-05-31T07:22:59.000Z</time>
      </trkpt>
      <trkpt lat="47.88434" lon="7.12172">
        <ele>942.59997558594</ele>
        <time>2020-05-31T07:23:00.000Z</time>
      </trkpt>
      <trkpt lat="47.88434" lon="7.12169">
        <ele>943</ele>
        <time>2020-05-31T07:23:01.000Z</time>
      </trkpt>
      <trkpt lat="47.88433" lon="7.12163">
        <ele>943</ele>
        <time>2020-05-31T07:23:03.000Z</time>
      </trkpt>
      <trkpt lat="47.88433" lon="7.1216">
        <ele>943.40002441406</ele>
        <time>2020-05-31T07:23:04.000Z</time>
      </trkpt>
      <trkpt lat="47.88433" lon="7.12157">
        <ele>943.79998779297</ele>
        <time>2020-05-31T07:23:05.000Z</time>
      </trkpt>
      <trkpt lat="47.88433" lon="7.12154">
        <ele>944.20001220703</ele>
        <time>2020-05-31T07:23:06.000Z</time>
      </trkpt>
      <trkpt lat="47.88433" lon="7.1215">
        <ele>945</ele>
        <time>2020-05-31T07:23:07.000Z</time>
      </trkpt>
      <trkpt lat="47.88434" lon="7.12144">
        <ele>945</ele>
        <time>2020-05-31T07:23:09.000Z</time>
      </trkpt>
      <trkpt lat="47.88433" lon="7.12135">
        <ele>945.40002441406</ele>
        <time>2020-05-31T07:23:12.000Z</time>
      </trkpt>
      <trkpt lat="47.88433" lon="7.12132">
        <ele>945.79998779297</ele>
        <time>2020-05-31T07:23:13.000Z</time>
      </trkpt>
      <trkpt lat="47.88433" lon="7.12129">
        <ele>946.20001220703</ele>
        <time>2020-05-31T07:23:14.000Z</time>
      </trkpt>
      <trkpt lat="47.88433" lon="7.12127">
        <ele>946.79998779297</ele>
        <time>2020-05-31T07:23:15.000Z</time>
      </trkpt>
      <trkpt lat="47.88432" lon="7.12123">
        <ele>947.20001220703</ele>
        <time>2020-05-31T07:23:16.000Z</time>
      </trkpt>
      <trkpt lat="47.88432" lon="7.12108">
        <ele>947.20001220703</ele>
        <time>2020-05-31T07:23:20.000Z</time>
      </trkpt>
      <trkpt lat="47.88432" lon="7.12098">
        <ele>947.59997558594</ele>
        <time>2020-05-31T07:23:23.000Z</time>
      </trkpt>
      <trkpt lat="47.88433" lon="7.12095">
        <ele>948</ele>
        <time>2020-05-31T07:23:24.000Z</time>
      </trkpt>
      <trkpt lat="47.88433" lon="7.12092">
        <ele>948.59997558594</ele>
        <time>2020-05-31T07:23:25.000Z</time>
      </trkpt>
      <trkpt lat="47.88433" lon="7.1209">
        <ele>949</ele>
        <time>2020-05-31T07:23:26.000Z</time>
      </trkpt>
      <trkpt lat="47.88433" lon="7.12087">
        <ele>949.40002441406</ele>
        <time>2020-05-31T07:23:27.000Z</time>
      </trkpt>
      <trkpt lat="47.88436" lon="7.12074">
        <ele>950.20001220703</ele>
        <time>2020-05-31T07:23:32.000Z</time>
      </trkpt>
      <trkpt lat="47.88437" lon="7.12071">
        <ele>950.59997558594</ele>
        <time>2020-05-31T07:23:33.000Z</time>
      </trkpt>
      <trkpt lat="47.88438" lon="7.12068">
        <ele>951.20001220703</ele>
        <time>2020-05-31T07:23:34.000Z</time>
      </trkpt>
      <trkpt lat="47.8844" lon="7.12065">
        <ele>951.59997558594</ele>
        <time>2020-05-31T07:23:35.000Z</time>
      </trkpt>
      <trkpt lat="47.88443" lon="7.12052">
        <ele>952</ele>
        <time>2020-05-31T07:23:39.000Z</time>
      </trkpt>
      <trkpt lat="47.88444" lon="7.12049">
        <ele>952.40002441406</ele>
        <time>2020-05-31T07:23:40.000Z</time>
      </trkpt>
      <trkpt lat="47.88444" lon="7.12046">
        <ele>952.79998779297</ele>
        <time>2020-05-31T07:23:41.000Z</time>
      </trkpt>
      <trkpt lat="47.88445" lon="7.12043">
        <ele>953.20001220703</ele>
        <time>2020-05-31T07:23:42.000Z</time>
      </trkpt>
      <trkpt lat="47.88446" lon="7.1204">
        <ele>953.59997558594</ele>
        <time>2020-05-31T07:23:43.000Z</time>
      </trkpt>
      <trkpt lat="47.88449" lon="7.12029">
        <ele>954.20001220703</ele>
        <time>2020-05-31T07:23:47.000Z</time>
      </trkpt>
      <trkpt lat="47.8845" lon="7.12025">
        <ele>954.59997558594</ele>
        <time>2020-05-31T07:23:48.000Z</time>
      </trkpt>
      <trkpt lat="47.88451" lon="7.12022">
        <ele>955</ele>
        <time>2020-05-31T07:23:49.000Z</time>
      </trkpt>
      <trkpt lat="47.88452" lon="7.12018">
        <ele>955.40002441406</ele>
        <time>2020-05-31T07:23:50.000Z</time>
      </trkpt>
      <trkpt lat="47.88453" lon="7.12015">
        <ele>955.79998779297</ele>
        <time>2020-05-31T07:23:51.000Z</time>
      </trkpt>
      <trkpt lat="47.88455" lon="7.12008">
        <ele>955.79998779297</ele>
        <time>2020-05-31T07:23:53.000Z</time>
      </trkpt>
      <trkpt lat="47.88456" lon="7.12005">
        <ele>956.20001220703</ele>
        <time>2020-05-31T07:23:54.000Z</time>
      </trkpt>
      <trkpt lat="47.88457" lon="7.12002">
        <ele>956.59997558594</ele>
        <time>2020-05-31T07:23:55.000Z</time>
      </trkpt>
      <trkpt lat="47.88458" lon="7.11999">
        <ele>957.59997558594</ele>
        <time>2020-05-31T07:23:56.000Z</time>
      </trkpt>
      <trkpt lat="47.88459" lon="7.11996">
        <ele>958</ele>
        <time>2020-05-31T07:23:57.000Z</time>
      </trkpt>
      <trkpt lat="47.88461" lon="7.11992">
        <ele>958</ele>
        <time>2020-05-31T07:23:59.000Z</time>
      </trkpt>
      <trkpt lat="47.88464" lon="7.11984">
        <ele>958.40002441406</ele>
        <time>2020-05-31T07:24:02.000Z</time>
      </trkpt>
      <trkpt lat="47.88466" lon="7.1198">
        <ele>958.79998779297</ele>
        <time>2020-05-31T07:24:03.000Z</time>
      </trkpt>
      <trkpt lat="47.88468" lon="7.11976">
        <ele>959.20001220703</ele>
        <time>2020-05-31T07:24:04.000Z</time>
      </trkpt>
      <trkpt lat="47.8847" lon="7.11973">
        <ele>959.59997558594</ele>
        <time>2020-05-31T07:24:05.000Z</time>
      </trkpt>
      <trkpt lat="47.88471" lon="7.11969">
        <ele>960.20001220703</ele>
        <time>2020-05-31T07:24:06.000Z</time>
      </trkpt>
      <trkpt lat="47.88479" lon="7.11953">
        <ele>960.20001220703</ele>
        <time>2020-05-31T07:24:11.000Z</time>
      </trkpt>
      <trkpt lat="47.8848" lon="7.1195">
        <ele>960.59997558594</ele>
        <time>2020-05-31T07:24:12.000Z</time>
      </trkpt>
      <trkpt lat="47.88481" lon="7.11948">
        <ele>961</ele>
        <time>2020-05-31T07:24:13.000Z</time>
      </trkpt>
      <trkpt lat="47.88482" lon="7.11947">
        <ele>961.40002441406</ele>
        <time>2020-05-31T07:24:14.000Z</time>
      </trkpt>
      <trkpt lat="47.88483" lon="7.11945">
        <ele>961.79998779297</ele>
        <time>2020-05-31T07:24:15.000Z</time>
      </trkpt>
      <trkpt lat="47.88485" lon="7.11942">
        <ele>962.20001220703</ele>
        <time>2020-05-31T07:24:16.000Z</time>
      </trkpt>
      <trkpt lat="47.8849" lon="7.11934">
        <ele>962.79998779297</ele>
        <time>2020-05-31T07:24:19.000Z</time>
      </trkpt>
      <trkpt lat="47.88491" lon="7.11931">
        <ele>963.20001220703</ele>
        <time>2020-05-31T07:24:20.000Z</time>
      </trkpt>
      <trkpt lat="47.88492" lon="7.11927">
        <ele>964</ele>
        <time>2020-05-31T07:24:21.000Z</time>
      </trkpt>
      <trkpt lat="47.88494" lon="7.11924">
        <ele>964.40002441406</ele>
        <time>2020-05-31T07:24:22.000Z</time>
      </trkpt>
      <trkpt lat="47.88496" lon="7.11916">
        <ele>964.40002441406</ele>
        <time>2020-05-31T07:24:25.000Z</time>
      </trkpt>
      <trkpt lat="47.88497" lon="7.11911">
        <ele>964.79998779297</ele>
        <time>2020-05-31T07:24:27.000Z</time>
      </trkpt>
      <trkpt lat="47.88498" lon="7.11908">
        <ele>965.20001220703</ele>
        <time>2020-05-31T07:24:28.000Z</time>
      </trkpt>
      <trkpt lat="47.88499" lon="7.11905">
        <ele>965.79998779297</ele>
        <time>2020-05-31T07:24:29.000Z</time>
      </trkpt>
      <trkpt lat="47.88499" lon="7.11902">
        <ele>966.20001220703</ele>
        <time>2020-05-31T07:24:30.000Z</time>
      </trkpt>
      <trkpt lat="47.885" lon="7.11899">
        <ele>966.59997558594</ele>
        <time>2020-05-31T07:24:31.000Z</time>
      </trkpt>
      <trkpt lat="47.885" lon="7.11896">
        <ele>966.59997558594</ele>
        <time>2020-05-31T07:24:32.000Z</time>
      </trkpt>
      <trkpt lat="47.88502" lon="7.11883">
        <ele>966.59997558594</ele>
        <time>2020-05-31T07:24:36.000Z</time>
      </trkpt>
      <trkpt lat="47.88503" lon="7.11881">
        <ele>967</ele>
        <time>2020-05-31T07:24:37.000Z</time>
      </trkpt>
      <trkpt lat="47.88503" lon="7.11878">
        <ele>967.59997558594</ele>
        <time>2020-05-31T07:24:38.000Z</time>
      </trkpt>
      <trkpt lat="47.88503" lon="7.11876">
        <ele>968</ele>
        <time>2020-05-31T07:24:39.000Z</time>
      </trkpt>
      <trkpt lat="47.88504" lon="7.11873">
        <ele>968.40002441406</ele>
        <time>2020-05-31T07:24:40.000Z</time>
      </trkpt>
      <trkpt lat="47.88504" lon="7.11871">
        <ele>969</ele>
        <time>2020-05-31T07:24:41.000Z</time>
      </trkpt>
      <trkpt lat="47.88505" lon="7.11864">
        <ele>969</ele>
        <time>2020-05-31T07:24:43.000Z</time>
      </trkpt>
      <trkpt lat="47.88505" lon="7.11861">
        <ele>969.40002441406</ele>
        <time>2020-05-31T07:24:44.000Z</time>
      </trkpt>
      <trkpt lat="47.88506" lon="7.11858">
        <ele>969.79998779297</ele>
        <time>2020-05-31T07:24:45.000Z</time>
      </trkpt>
      <trkpt lat="47.88506" lon="7.11855">
        <ele>970.59997558594</ele>
        <time>2020-05-31T07:24:46.000Z</time>
      </trkpt>
      <trkpt lat="47.88506" lon="7.11851">
        <ele>971</ele>
        <time>2020-05-31T07:24:47.000Z</time>
      </trkpt>
      <trkpt lat="47.88507" lon="7.1184">
        <ele>971.40002441406</ele>
        <time>2020-05-31T07:24:51.000Z</time>
      </trkpt>
      <trkpt lat="47.88507" lon="7.11837">
        <ele>971.79998779297</ele>
        <time>2020-05-31T07:24:52.000Z</time>
      </trkpt>
      <trkpt lat="47.88507" lon="7.11835">
        <ele>972.20001220703</ele>
        <time>2020-05-31T07:24:53.000Z</time>
      </trkpt>
      <trkpt lat="47.88508" lon="7.11832">
        <ele>972.59997558594</ele>
        <time>2020-05-31T07:24:54.000Z</time>
      </trkpt>
      <trkpt lat="47.88509" lon="7.11829">
        <ele>973</ele>
        <time>2020-05-31T07:24:55.000Z</time>
      </trkpt>
      <trkpt lat="47.8851" lon="7.11824">
        <ele>973</ele>
        <time>2020-05-31T07:24:57.000Z</time>
      </trkpt>
      <trkpt lat="47.88511" lon="7.11815">
        <ele>973.40002441406</ele>
        <time>2020-05-31T07:25:00.000Z</time>
      </trkpt>
      <trkpt lat="47.88512" lon="7.11812">
        <ele>973.79998779297</ele>
        <time>2020-05-31T07:25:01.000Z</time>
      </trkpt>
      <trkpt lat="47.88512" lon="7.1181">
        <ele>974.20001220703</ele>
        <time>2020-05-31T07:25:02.000Z</time>
      </trkpt>
      <trkpt lat="47.88512" lon="7.11807">
        <ele>974.59997558594</ele>
        <time>2020-05-31T07:25:03.000Z</time>
      </trkpt>
      <trkpt lat="47.88512" lon="7.11805">
        <ele>975</ele>
        <time>2020-05-31T07:25:04.000Z</time>
      </trkpt>
      <trkpt lat="47.88512" lon="7.11799">
        <ele>975</ele>
        <time>2020-05-31T07:25:06.000Z</time>
      </trkpt>
      <trkpt lat="47.88512" lon="7.11792">
        <ele>975.79998779297</ele>
        <time>2020-05-31T07:25:09.000Z</time>
      </trkpt>
      <trkpt lat="47.88512" lon="7.11789">
        <ele>976.20001220703</ele>
        <time>2020-05-31T07:25:10.000Z</time>
      </trkpt>
      <trkpt lat="47.88512" lon="7.11787">
        <ele>976.59997558594</ele>
        <time>2020-05-31T07:25:11.000Z</time>
      </trkpt>
      <trkpt lat="47.88512" lon="7.11785">
        <ele>977.20001220703</ele>
        <time>2020-05-31T07:25:12.000Z</time>
      </trkpt>
      <trkpt lat="47.88514" lon="7.11777">
        <ele>977.59997558594</ele>
        <time>2020-05-31T07:25:15.000Z</time>
      </trkpt>
      <trkpt lat="47.88515" lon="7.11771">
        <ele>978</ele>
        <time>2020-05-31T07:25:16.000Z</time>
      </trkpt>
      <trkpt lat="47.88515" lon="7.11768">
        <ele>978.40002441406</ele>
        <time>2020-05-31T07:25:17.000Z</time>
      </trkpt>
      <trkpt lat="47.88516" lon="7.11764">
        <ele>978.79998779297</ele>
        <time>2020-05-31T07:25:18.000Z</time>
      </trkpt>
      <trkpt lat="47.88517" lon="7.11761">
        <ele>979.20001220703</ele>
        <time>2020-05-31T07:25:19.000Z</time>
      </trkpt>
      <trkpt lat="47.88517" lon="7.11754">
        <ele>979.20001220703</ele>
        <time>2020-05-31T07:25:21.000Z</time>
      </trkpt>
      <trkpt lat="47.88517" lon="7.11752">
        <ele>979.59997558594</ele>
        <time>2020-05-31T07:25:22.000Z</time>
      </trkpt>
      <trkpt lat="47.88517" lon="7.11749">
        <ele>980</ele>
        <time>2020-05-31T07:25:23.000Z</time>
      </trkpt>
      <trkpt lat="47.88518" lon="7.11746">
        <ele>980.40002441406</ele>
        <time>2020-05-31T07:25:24.000Z</time>
      </trkpt>
      <trkpt lat="47.88518" lon="7.11742">
        <ele>980.79998779297</ele>
        <time>2020-05-31T07:25:25.000Z</time>
      </trkpt>
      <trkpt lat="47.88518" lon="7.11737">
        <ele>981.20001220703</ele>
        <time>2020-05-31T07:25:26.000Z</time>
      </trkpt>
      <trkpt lat="47.88519" lon="7.11726">
        <ele>981.20001220703</ele>
        <time>2020-05-31T07:25:29.000Z</time>
      </trkpt>
      <trkpt lat="47.88519" lon="7.1172">
        <ele>981.59997558594</ele>
        <time>2020-05-31T07:25:30.000Z</time>
      </trkpt>
      <trkpt lat="47.88519" lon="7.11716">
        <ele>982.20001220703</ele>
        <time>2020-05-31T07:25:31.000Z</time>
      </trkpt>
      <trkpt lat="47.88519" lon="7.11711">
        <ele>982.59997558594</ele>
        <time>2020-05-31T07:25:32.000Z</time>
      </trkpt>
      <trkpt lat="47.88519" lon="7.11707">
        <ele>983.40002441406</ele>
        <time>2020-05-31T07:25:33.000Z</time>
      </trkpt>
      <trkpt lat="47.88519" lon="7.11699">
        <ele>983.40002441406</ele>
        <time>2020-05-31T07:25:36.000Z</time>
      </trkpt>
      <trkpt lat="47.88521" lon="7.11685">
        <ele>983.79998779297</ele>
        <time>2020-05-31T07:25:41.000Z</time>
      </trkpt>
      <trkpt lat="47.88521" lon="7.11681">
        <ele>984.20001220703</ele>
        <time>2020-05-31T07:25:42.000Z</time>
      </trkpt>
      <trkpt lat="47.88522" lon="7.11677">
        <ele>984.59997558594</ele>
        <time>2020-05-31T07:25:43.000Z</time>
      </trkpt>
      <trkpt lat="47.88522" lon="7.11674">
        <ele>985</ele>
        <time>2020-05-31T07:25:44.000Z</time>
      </trkpt>
      <trkpt lat="47.88523" lon="7.1167">
        <ele>985.40002441406</ele>
        <time>2020-05-31T07:25:45.000Z</time>
      </trkpt>
      <trkpt lat="47.88525" lon="7.11658">
        <ele>986</ele>
        <time>2020-05-31T07:25:49.000Z</time>
      </trkpt>
      <trkpt lat="47.88525" lon="7.11655">
        <ele>986.40002441406</ele>
        <time>2020-05-31T07:25:50.000Z</time>
      </trkpt>
      <trkpt lat="47.88525" lon="7.11652">
        <ele>986.79998779297</ele>
        <time>2020-05-31T07:25:51.000Z</time>
      </trkpt>
      <trkpt lat="47.88525" lon="7.11649">
        <ele>987.20001220703</ele>
        <time>2020-05-31T07:25:52.000Z</time>
      </trkpt>
      <trkpt lat="47.88525" lon="7.11645">
        <ele>987.59997558594</ele>
        <time>2020-05-31T07:25:53.000Z</time>
      </trkpt>
      <trkpt lat="47.88528" lon="7.11635">
        <ele>988</ele>
        <time>2020-05-31T07:25:57.000Z</time>
      </trkpt>
      <trkpt lat="47.88528" lon="7.11632">
        <ele>988.79998779297</ele>
        <time>2020-05-31T07:25:58.000Z</time>
      </trkpt>
      <trkpt lat="47.88528" lon="7.11631">
        <ele>989.20001220703</ele>
        <time>2020-05-31T07:25:59.000Z</time>
      </trkpt>
      <trkpt lat="47.88529" lon="7.11627">
        <ele>989.59997558594</ele>
        <time>2020-05-31T07:26:00.000Z</time>
      </trkpt>
      <trkpt lat="47.88532" lon="7.11615">
        <ele>990</ele>
        <time>2020-05-31T07:26:04.000Z</time>
      </trkpt>
      <trkpt lat="47.88531" lon="7.11611">
        <ele>990.59997558594</ele>
        <time>2020-05-31T07:26:05.000Z</time>
      </trkpt>
      <trkpt lat="47.88531" lon="7.11608">
        <ele>991</ele>
        <time>2020-05-31T07:26:06.000Z</time>
      </trkpt>
      <trkpt lat="47.88531" lon="7.11605">
        <ele>991.40002441406</ele>
        <time>2020-05-31T07:26:07.000Z</time>
      </trkpt>
      <trkpt lat="47.88531" lon="7.11603">
        <ele>991.79998779297</ele>
        <time>2020-05-31T07:26:08.000Z</time>
      </trkpt>
      <trkpt lat="47.88532" lon="7.11597">
        <ele>991.79998779297</ele>
        <time>2020-05-31T07:26:10.000Z</time>
      </trkpt>
      <trkpt lat="47.88533" lon="7.11592">
        <ele>992.20001220703</ele>
        <time>2020-05-31T07:26:12.000Z</time>
      </trkpt>
      <trkpt lat="47.88533" lon="7.11589">
        <ele>992.59997558594</ele>
        <time>2020-05-31T07:26:13.000Z</time>
      </trkpt>
      <trkpt lat="47.88533" lon="7.11586">
        <ele>993</ele>
        <time>2020-05-31T07:26:14.000Z</time>
      </trkpt>
      <trkpt lat="47.88534" lon="7.11582">
        <ele>993.40002441406</ele>
        <time>2020-05-31T07:26:15.000Z</time>
      </trkpt>
      <trkpt lat="47.88535" lon="7.11579">
        <ele>993.79998779297</ele>
        <time>2020-05-31T07:26:16.000Z</time>
      </trkpt>
      <trkpt lat="47.88536" lon="7.11572">
        <ele>993.79998779297</ele>
        <time>2020-05-31T07:26:18.000Z</time>
      </trkpt>
      <trkpt lat="47.88536" lon="7.11563">
        <ele>994.40002441406</ele>
        <time>2020-05-31T07:26:21.000Z</time>
      </trkpt>
      <trkpt lat="47.88535" lon="7.1156">
        <ele>994.79998779297</ele>
        <time>2020-05-31T07:26:22.000Z</time>
      </trkpt>
      <trkpt lat="47.88535" lon="7.11558">
        <ele>995.59997558594</ele>
        <time>2020-05-31T07:26:23.000Z</time>
      </trkpt>
      <trkpt lat="47.88533" lon="7.11553">
        <ele>996</ele>
        <time>2020-05-31T07:26:24.000Z</time>
      </trkpt>
      <trkpt lat="47.88532" lon="7.11549">
        <ele>996</ele>
        <time>2020-05-31T07:26:25.000Z</time>
      </trkpt>
      <trkpt lat="47.88528" lon="7.11528">
        <ele>996.40002441406</ele>
        <time>2020-05-31T07:26:29.000Z</time>
      </trkpt>
      <trkpt lat="47.88528" lon="7.11523">
        <ele>996.79998779297</ele>
        <time>2020-05-31T07:26:30.000Z</time>
      </trkpt>
      <trkpt lat="47.88528" lon="7.1152">
        <ele>997.40002441406</ele>
        <time>2020-05-31T07:26:31.000Z</time>
      </trkpt>
      <trkpt lat="47.88528" lon="7.11518">
        <ele>997.79998779297</ele>
        <time>2020-05-31T07:26:32.000Z</time>
      </trkpt>
      <trkpt lat="47.88528" lon="7.11515">
        <ele>998.20001220703</ele>
        <time>2020-05-31T07:26:33.000Z</time>
      </trkpt>
      <trkpt lat="47.88529" lon="7.11509">
        <ele>998.20001220703</ele>
        <time>2020-05-31T07:26:36.000Z</time>
      </trkpt>
      <trkpt lat="47.88529" lon="7.11503">
        <ele>998.59997558594</ele>
        <time>2020-05-31T07:26:38.000Z</time>
      </trkpt>
      <trkpt lat="47.8853" lon="7.115">
        <ele>999</ele>
        <time>2020-05-31T07:26:39.000Z</time>
      </trkpt>
      <trkpt lat="47.8853" lon="7.11498">
        <ele>999.40002441406</ele>
        <time>2020-05-31T07:26:40.000Z</time>
      </trkpt>
      <trkpt lat="47.8853" lon="7.11495">
        <ele>999.79998779297</ele>
        <time>2020-05-31T07:26:41.000Z</time>
      </trkpt>
      <trkpt lat="47.8853" lon="7.11491">
        <ele>1000.200012207</ele>
        <time>2020-05-31T07:26:42.000Z</time>
      </trkpt>
      <trkpt lat="47.88531" lon="7.11471">
        <ele>1000.5999755859</ele>
        <time>2020-05-31T07:26:47.000Z</time>
      </trkpt>
      <trkpt lat="47.88532" lon="7.11468">
        <ele>1001.5999755859</ele>
        <time>2020-05-31T07:26:48.000Z</time>
      </trkpt>
      <trkpt lat="47.88532" lon="7.11466">
        <ele>1002</ele>
        <time>2020-05-31T07:26:49.000Z</time>
      </trkpt>
      <trkpt lat="47.88533" lon="7.11463">
        <ele>1002.4000244141</ele>
        <time>2020-05-31T07:26:50.000Z</time>
      </trkpt>
      <trkpt lat="47.88534" lon="7.11448">
        <ele>1003</ele>
        <time>2020-05-31T07:26:54.000Z</time>
      </trkpt>
      <trkpt lat="47.88534" lon="7.11445">
        <ele>1003.4000244141</ele>
        <time>2020-05-31T07:26:55.000Z</time>
      </trkpt>
      <trkpt lat="47.88535" lon="7.11442">
        <ele>1003.799987793</ele>
        <time>2020-05-31T07:26:56.000Z</time>
      </trkpt>
      <trkpt lat="47.88535" lon="7.11438">
        <ele>1004.200012207</ele>
        <time>2020-05-31T07:26:57.000Z</time>
      </trkpt>
      <trkpt lat="47.88535" lon="7.11434">
        <ele>1004.5999755859</ele>
        <time>2020-05-31T07:26:58.000Z</time>
      </trkpt>
      <trkpt lat="47.88535" lon="7.11429">
        <ele>1004.5999755859</ele>
        <time>2020-05-31T07:26:59.000Z</time>
      </trkpt>
      <trkpt lat="47.88537" lon="7.11412">
        <ele>1005</ele>
        <time>2020-05-31T07:27:03.000Z</time>
      </trkpt>
      <trkpt lat="47.88539" lon="7.11409">
        <ele>1005.4000244141</ele>
        <time>2020-05-31T07:27:04.000Z</time>
      </trkpt>
      <trkpt lat="47.8854" lon="7.11406">
        <ele>1006</ele>
        <time>2020-05-31T07:27:05.000Z</time>
      </trkpt>
      <trkpt lat="47.88542" lon="7.11402">
        <ele>1006.4000244141</ele>
        <time>2020-05-31T07:27:06.000Z</time>
      </trkpt>
      <trkpt lat="47.88543" lon="7.114">
        <ele>1006.799987793</ele>
        <time>2020-05-31T07:27:07.000Z</time>
      </trkpt>
      <trkpt lat="47.88548" lon="7.11388">
        <ele>1007.799987793</ele>
        <time>2020-05-31T07:27:11.000Z</time>
      </trkpt>
      <trkpt lat="47.88549" lon="7.11386">
        <ele>1008.200012207</ele>
        <time>2020-05-31T07:27:12.000Z</time>
      </trkpt>
      <trkpt lat="47.88549" lon="7.11382">
        <ele>1008.5999755859</ele>
        <time>2020-05-31T07:27:13.000Z</time>
      </trkpt>
      <trkpt lat="47.88549" lon="7.11378">
        <ele>1009</ele>
        <time>2020-05-31T07:27:14.000Z</time>
      </trkpt>
      <trkpt lat="47.88549" lon="7.11371">
        <ele>1009</ele>
        <time>2020-05-31T07:27:16.000Z</time>
      </trkpt>
      <trkpt lat="47.8855" lon="7.11365">
        <ele>1009.4000244141</ele>
        <time>2020-05-31T07:27:18.000Z</time>
      </trkpt>
      <trkpt lat="47.8855" lon="7.11362">
        <ele>1010</ele>
        <time>2020-05-31T07:27:19.000Z</time>
      </trkpt>
      <trkpt lat="47.8855" lon="7.11358">
        <ele>1010.4000244141</ele>
        <time>2020-05-31T07:27:20.000Z</time>
      </trkpt>
      <trkpt lat="47.88551" lon="7.11354">
        <ele>1010.799987793</ele>
        <time>2020-05-31T07:27:21.000Z</time>
      </trkpt>
      <trkpt lat="47.88551" lon="7.1135">
        <ele>1011.200012207</ele>
        <time>2020-05-31T07:27:22.000Z</time>
      </trkpt>
      <trkpt lat="47.88551" lon="7.11334">
        <ele>1011.5999755859</ele>
        <time>2020-05-31T07:27:26.000Z</time>
      </trkpt>
      <trkpt lat="47.88551" lon="7.1133">
        <ele>1012</ele>
        <time>2020-05-31T07:27:27.000Z</time>
      </trkpt>
      <trkpt lat="47.88551" lon="7.11326">
        <ele>1012.4000244141</ele>
        <time>2020-05-31T07:27:28.000Z</time>
      </trkpt>
      <trkpt lat="47.88552" lon="7.11322">
        <ele>1012.799987793</ele>
        <time>2020-05-31T07:27:29.000Z</time>
      </trkpt>
      <trkpt lat="47.88552" lon="7.11319">
        <ele>1013.200012207</ele>
        <time>2020-05-31T07:27:30.000Z</time>
      </trkpt>
      <trkpt lat="47.88552" lon="7.11312">
        <ele>1013.5999755859</ele>
        <time>2020-05-31T07:27:32.000Z</time>
      </trkpt>
      <trkpt lat="47.88552" lon="7.11307">
        <ele>1014.200012207</ele>
        <time>2020-05-31T07:27:33.000Z</time>
      </trkpt>
      <trkpt lat="47.88551" lon="7.11302">
        <ele>1014.5999755859</ele>
        <time>2020-05-31T07:27:34.000Z</time>
      </trkpt>
      <trkpt lat="47.88549" lon="7.11295">
        <ele>1015</ele>
        <time>2020-05-31T07:27:35.000Z</time>
      </trkpt>
      <trkpt lat="47.88547" lon="7.11288">
        <ele>1015.5999755859</ele>
        <time>2020-05-31T07:27:36.000Z</time>
      </trkpt>
      <trkpt lat="47.88546" lon="7.11282">
        <ele>1015.5999755859</ele>
        <time>2020-05-31T07:27:37.000Z</time>
      </trkpt>
      <trkpt lat="47.88545" lon="7.11278">
        <ele>1016</ele>
        <time>2020-05-31T07:27:38.000Z</time>
      </trkpt>
      <trkpt lat="47.88544" lon="7.11274">
        <ele>1016.4000244141</ele>
        <time>2020-05-31T07:27:39.000Z</time>
      </trkpt>
      <trkpt lat="47.88544" lon="7.1127">
        <ele>1017</ele>
        <time>2020-05-31T07:27:40.000Z</time>
      </trkpt>
      <trkpt lat="47.88544" lon="7.11266">
        <ele>1017.4000244141</ele>
        <time>2020-05-31T07:27:41.000Z</time>
      </trkpt>
      <trkpt lat="47.88545" lon="7.11262">
        <ele>1017.799987793</ele>
        <time>2020-05-31T07:27:42.000Z</time>
      </trkpt>
      <trkpt lat="47.88545" lon="7.11259">
        <ele>1017.799987793</ele>
        <time>2020-05-31T07:27:43.000Z</time>
      </trkpt>
      <trkpt lat="47.88546" lon="7.11256">
        <ele>1018.4000244141</ele>
        <time>2020-05-31T07:27:44.000Z</time>
      </trkpt>
      <trkpt lat="47.88546" lon="7.11253">
        <ele>1018.799987793</ele>
        <time>2020-05-31T07:27:45.000Z</time>
      </trkpt>
      <trkpt lat="47.88546" lon="7.1125">
        <ele>1019.200012207</ele>
        <time>2020-05-31T07:27:46.000Z</time>
      </trkpt>
      <trkpt lat="47.88547" lon="7.11247">
        <ele>1019.799987793</ele>
        <time>2020-05-31T07:27:47.000Z</time>
      </trkpt>
      <trkpt lat="47.88548" lon="7.11244">
        <ele>1020.200012207</ele>
        <time>2020-05-31T07:27:48.000Z</time>
      </trkpt>
      <trkpt lat="47.88548" lon="7.11241">
        <ele>1020.5999755859</ele>
        <time>2020-05-31T07:27:49.000Z</time>
      </trkpt>
      <trkpt lat="47.88549" lon="7.11238">
        <ele>1021</ele>
        <time>2020-05-31T07:27:50.000Z</time>
      </trkpt>
      <trkpt lat="47.8855" lon="7.11234">
        <ele>1021.4000244141</ele>
        <time>2020-05-31T07:27:51.000Z</time>
      </trkpt>
      <trkpt lat="47.88552" lon="7.11231">
        <ele>1021.799987793</ele>
        <time>2020-05-31T07:27:52.000Z</time>
      </trkpt>
      <trkpt lat="47.88553" lon="7.11228">
        <ele>1022.200012207</ele>
        <time>2020-05-31T07:27:53.000Z</time>
      </trkpt>
      <trkpt lat="47.88554" lon="7.11225">
        <ele>1022.200012207</ele>
        <time>2020-05-31T07:27:54.000Z</time>
      </trkpt>
      <trkpt lat="47.88555" lon="7.1122">
        <ele>1022.5999755859</ele>
        <time>2020-05-31T07:27:55.000Z</time>
      </trkpt>
      <trkpt lat="47.88556" lon="7.11216">
        <ele>1023.200012207</ele>
        <time>2020-05-31T07:27:56.000Z</time>
      </trkpt>
      <trkpt lat="47.88557" lon="7.11212">
        <ele>1023.5999755859</ele>
        <time>2020-05-31T07:27:57.000Z</time>
      </trkpt>
      <trkpt lat="47.88558" lon="7.11208">
        <ele>1024</ele>
        <time>2020-05-31T07:27:58.000Z</time>
      </trkpt>
      <trkpt lat="47.88558" lon="7.11204">
        <ele>1024.4000244141</ele>
        <time>2020-05-31T07:27:59.000Z</time>
      </trkpt>
      <trkpt lat="47.88559" lon="7.112">
        <ele>1024.4000244141</ele>
        <time>2020-05-31T07:28:00.000Z</time>
      </trkpt>
      <trkpt lat="47.8856" lon="7.11196">
        <ele>1025</ele>
        <time>2020-05-31T07:28:01.000Z</time>
      </trkpt>
      <trkpt lat="47.88561" lon="7.11192">
        <ele>1025.4000244141</ele>
        <time>2020-05-31T07:28:02.000Z</time>
      </trkpt>
      <trkpt lat="47.88562" lon="7.11188">
        <ele>1025.8000488281</ele>
        <time>2020-05-31T07:28:03.000Z</time>
      </trkpt>
      <trkpt lat="47.88562" lon="7.11185">
        <ele>1026.1999511719</ele>
        <time>2020-05-31T07:28:04.000Z</time>
      </trkpt>
      <trkpt lat="47.88563" lon="7.11181">
        <ele>1026.5999755859</ele>
        <time>2020-05-31T07:28:05.000Z</time>
      </trkpt>
      <trkpt lat="47.88564" lon="7.11174">
        <ele>1026.5999755859</ele>
        <time>2020-05-31T07:28:07.000Z</time>
      </trkpt>
      <trkpt lat="47.88564" lon="7.11168">
        <ele>1027</ele>
        <time>2020-05-31T07:28:09.000Z</time>
      </trkpt>
      <trkpt lat="47.88565" lon="7.11164">
        <ele>1027.4000244141</ele>
        <time>2020-05-31T07:28:10.000Z</time>
      </trkpt>
      <trkpt lat="47.88565" lon="7.11161">
        <ele>1028</ele>
        <time>2020-05-31T07:28:11.000Z</time>
      </trkpt>
      <trkpt lat="47.88566" lon="7.11157">
        <ele>1028.4000244141</ele>
        <time>2020-05-31T07:28:12.000Z</time>
      </trkpt>
      <trkpt lat="47.88566" lon="7.11154">
        <ele>1028.8000488281</ele>
        <time>2020-05-31T07:28:13.000Z</time>
      </trkpt>
      <trkpt lat="47.88567" lon="7.11148">
        <ele>1028.8000488281</ele>
        <time>2020-05-31T07:28:15.000Z</time>
      </trkpt>
      <trkpt lat="47.88568" lon="7.11145">
        <ele>1029.1999511719</ele>
        <time>2020-05-31T07:28:16.000Z</time>
      </trkpt>
      <trkpt lat="47.88569" lon="7.11142">
        <ele>1029.8000488281</ele>
        <time>2020-05-31T07:28:17.000Z</time>
      </trkpt>
      <trkpt lat="47.88569" lon="7.11138">
        <ele>1030.1999511719</ele>
        <time>2020-05-31T07:28:18.000Z</time>
      </trkpt>
      <trkpt lat="47.88569" lon="7.11135">
        <ele>1030.5999755859</ele>
        <time>2020-05-31T07:28:19.000Z</time>
      </trkpt>
      <trkpt lat="47.88569" lon="7.11132">
        <ele>1031</ele>
        <time>2020-05-31T07:28:20.000Z</time>
      </trkpt>
      <trkpt lat="47.88569" lon="7.11123">
        <ele>1031.4000244141</ele>
        <time>2020-05-31T07:28:22.000Z</time>
      </trkpt>
      <trkpt lat="47.88569" lon="7.1112">
        <ele>1031.8000488281</ele>
        <time>2020-05-31T07:28:23.000Z</time>
      </trkpt>
      <trkpt lat="47.88569" lon="7.11116">
        <ele>1032.1999511719</ele>
        <time>2020-05-31T07:28:24.000Z</time>
      </trkpt>
      <trkpt lat="47.88569" lon="7.11111">
        <ele>1032.8000488281</ele>
        <time>2020-05-31T07:28:25.000Z</time>
      </trkpt>
      <trkpt lat="47.88568" lon="7.11107">
        <ele>1033.1999511719</ele>
        <time>2020-05-31T07:28:26.000Z</time>
      </trkpt>
      <trkpt lat="47.88567" lon="7.11103">
        <ele>1033.1999511719</ele>
        <time>2020-05-31T07:28:27.000Z</time>
      </trkpt>
      <trkpt lat="47.88563" lon="7.11079">
        <ele>1033.5999755859</ele>
        <time>2020-05-31T07:28:33.000Z</time>
      </trkpt>
      <trkpt lat="47.88562" lon="7.11075">
        <ele>1034.1999511719</ele>
        <time>2020-05-31T07:28:34.000Z</time>
      </trkpt>
      <trkpt lat="47.8856" lon="7.1107">
        <ele>1034.5999755859</ele>
        <time>2020-05-31T07:28:35.000Z</time>
      </trkpt>
      <trkpt lat="47.88558" lon="7.11065">
        <ele>1035</ele>
        <time>2020-05-31T07:28:36.000Z</time>
      </trkpt>
      <trkpt lat="47.88557" lon="7.1106">
        <ele>1035.5999755859</ele>
        <time>2020-05-31T07:28:37.000Z</time>
      </trkpt>
      <trkpt lat="47.88554" lon="7.11042">
        <ele>1036</ele>
        <time>2020-05-31T07:28:40.000Z</time>
      </trkpt>
      <trkpt lat="47.88552" lon="7.11035">
        <ele>1036.4000244141</ele>
        <time>2020-05-31T07:28:41.000Z</time>
      </trkpt>
      <trkpt lat="47.88551" lon="7.1103">
        <ele>1036.8000488281</ele>
        <time>2020-05-31T07:28:42.000Z</time>
      </trkpt>
      <trkpt lat="47.88549" lon="7.11023">
        <ele>1037.1999511719</ele>
        <time>2020-05-31T07:28:43.000Z</time>
      </trkpt>
      <trkpt lat="47.88549" lon="7.11017">
        <ele>1037.5999755859</ele>
        <time>2020-05-31T07:28:44.000Z</time>
      </trkpt>
      <trkpt lat="47.88547" lon="7.11005">
        <ele>1038</ele>
        <time>2020-05-31T07:28:46.000Z</time>
      </trkpt>
      <trkpt lat="47.88547" lon="7.10999">
        <ele>1038.5999755859</ele>
        <time>2020-05-31T07:28:47.000Z</time>
      </trkpt>
      <trkpt lat="47.88545" lon="7.10993">
        <ele>1039</ele>
        <time>2020-05-31T07:28:48.000Z</time>
      </trkpt>
      <trkpt lat="47.88544" lon="7.10987">
        <ele>1039.4000244141</ele>
        <time>2020-05-31T07:28:49.000Z</time>
      </trkpt>
      <trkpt lat="47.88542" lon="7.10981">
        <ele>1039.8000488281</ele>
        <time>2020-05-31T07:28:50.000Z</time>
      </trkpt>
      <trkpt lat="47.88538" lon="7.10965">
        <ele>1040.4000244141</ele>
        <time>2020-05-31T07:28:53.000Z</time>
      </trkpt>
      <trkpt lat="47.88537" lon="7.1096">
        <ele>1040.8000488281</ele>
        <time>2020-05-31T07:28:54.000Z</time>
      </trkpt>
      <trkpt lat="47.88536" lon="7.10955">
        <ele>1041.1999511719</ele>
        <time>2020-05-31T07:28:55.000Z</time>
      </trkpt>
      <trkpt lat="47.88535" lon="7.10951">
        <ele>1041.5999755859</ele>
        <time>2020-05-31T07:28:56.000Z</time>
      </trkpt>
      <trkpt lat="47.88534" lon="7.10946">
        <ele>1042.1999511719</ele>
        <time>2020-05-31T07:28:57.000Z</time>
      </trkpt>
      <trkpt lat="47.88532" lon="7.10938">
        <ele>1042.5999755859</ele>
        <time>2020-05-31T07:28:59.000Z</time>
      </trkpt>
      <trkpt lat="47.88531" lon="7.10934">
        <ele>1043</ele>
        <time>2020-05-31T07:29:00.000Z</time>
      </trkpt>
      <trkpt lat="47.8853" lon="7.10931">
        <ele>1043.4000244141</ele>
        <time>2020-05-31T07:29:01.000Z</time>
      </trkpt>
      <trkpt lat="47.8853" lon="7.10927">
        <ele>1043.8000488281</ele>
        <time>2020-05-31T07:29:02.000Z</time>
      </trkpt>
      <trkpt lat="47.88529" lon="7.10923">
        <ele>1044.1999511719</ele>
        <time>2020-05-31T07:29:03.000Z</time>
      </trkpt>
      <trkpt lat="47.88527" lon="7.10911">
        <ele>1044.5999755859</ele>
        <time>2020-05-31T07:29:06.000Z</time>
      </trkpt>
      <trkpt lat="47.88527" lon="7.10907">
        <ele>1045</ele>
        <time>2020-05-31T07:29:07.000Z</time>
      </trkpt>
      <trkpt lat="47.88526" lon="7.10903">
        <ele>1045.4000244141</ele>
        <time>2020-05-31T07:29:08.000Z</time>
      </trkpt>
      <trkpt lat="47.88526" lon="7.10899">
        <ele>1045.8000488281</ele>
        <time>2020-05-31T07:29:09.000Z</time>
      </trkpt>
      <trkpt lat="47.88525" lon="7.10895">
        <ele>1046.1999511719</ele>
        <time>2020-05-31T07:29:10.000Z</time>
      </trkpt>
      <trkpt lat="47.88524" lon="7.10882">
        <ele>1046.5999755859</ele>
        <time>2020-05-31T07:29:13.000Z</time>
      </trkpt>
      <trkpt lat="47.88524" lon="7.10878">
        <ele>1047.1999511719</ele>
        <time>2020-05-31T07:29:14.000Z</time>
      </trkpt>
      <trkpt lat="47.88524" lon="7.10873">
        <ele>1047.5999755859</ele>
        <time>2020-05-31T07:29:15.000Z</time>
      </trkpt>
      <trkpt lat="47.88524" lon="7.10869">
        <ele>1048.4000244141</ele>
        <time>2020-05-31T07:29:16.000Z</time>
      </trkpt>
      <trkpt lat="47.88523" lon="7.10855">
        <ele>1048.8000488281</ele>
        <time>2020-05-31T07:29:19.000Z</time>
      </trkpt>
      <trkpt lat="47.88523" lon="7.10851">
        <ele>1049.1999511719</ele>
        <time>2020-05-31T07:29:20.000Z</time>
      </trkpt>
      <trkpt lat="47.88522" lon="7.10847">
        <ele>1049.8000488281</ele>
        <time>2020-05-31T07:29:21.000Z</time>
      </trkpt>
      <trkpt lat="47.88522" lon="7.10842">
        <ele>1050.1999511719</ele>
        <time>2020-05-31T07:29:22.000Z</time>
      </trkpt>
      <trkpt lat="47.88522" lon="7.10838">
        <ele>1050.5999755859</ele>
        <time>2020-05-31T07:29:23.000Z</time>
      </trkpt>
      <trkpt lat="47.88521" lon="7.10828">
        <ele>1050.5999755859</ele>
        <time>2020-05-31T07:29:25.000Z</time>
      </trkpt>
      <trkpt lat="47.88521" lon="7.10824">
        <ele>1051</ele>
        <time>2020-05-31T07:29:26.000Z</time>
      </trkpt>
      <trkpt lat="47.88522" lon="7.10819">
        <ele>1051.4000244141</ele>
        <time>2020-05-31T07:29:27.000Z</time>
      </trkpt>
      <trkpt lat="47.88522" lon="7.10814">
        <ele>1051.8000488281</ele>
        <time>2020-05-31T07:29:28.000Z</time>
      </trkpt>
      <trkpt lat="47.88522" lon="7.1081">
        <ele>1052.1999511719</ele>
        <time>2020-05-31T07:29:29.000Z</time>
      </trkpt>
      <trkpt lat="47.88522" lon="7.10804">
        <ele>1052.5999755859</ele>
        <time>2020-05-31T07:29:30.000Z</time>
      </trkpt>
      <trkpt lat="47.88522" lon="7.10799">
        <ele>1052.5999755859</ele>
        <time>2020-05-31T07:29:31.000Z</time>
      </trkpt>
      <trkpt lat="47.88526" lon="7.10755">
        <ele>1052.5999755859</ele>
        <time>2020-05-31T07:29:39.000Z</time>
      </trkpt>
      <trkpt lat="47.88528" lon="7.10739">
        <ele>1053</ele>
        <time>2020-05-31T07:29:42.000Z</time>
      </trkpt>
      <trkpt lat="47.88529" lon="7.10734">
        <ele>1053.4000244141</ele>
        <time>2020-05-31T07:29:43.000Z</time>
      </trkpt>
      <trkpt lat="47.8853" lon="7.1073">
        <ele>1053.8000488281</ele>
        <time>2020-05-31T07:29:44.000Z</time>
      </trkpt>
      <trkpt lat="47.88532" lon="7.10725">
        <ele>1054.1999511719</ele>
        <time>2020-05-31T07:29:45.000Z</time>
      </trkpt>
      <trkpt lat="47.88533" lon="7.1072">
        <ele>1054.5999755859</ele>
        <time>2020-05-31T07:29:46.000Z</time>
      </trkpt>
      <trkpt lat="47.88544" lon="7.1069">
        <ele>1055.1999511719</ele>
        <time>2020-05-31T07:29:53.000Z</time>
      </trkpt>
      <trkpt lat="47.88545" lon="7.10686">
        <ele>1055.5999755859</ele>
        <time>2020-05-31T07:29:54.000Z</time>
      </trkpt>
      <trkpt lat="47.88547" lon="7.10683">
        <ele>1056</ele>
        <time>2020-05-31T07:29:55.000Z</time>
      </trkpt>
      <trkpt lat="47.88549" lon="7.1068">
        <ele>1056.4000244141</ele>
        <time>2020-05-31T07:29:56.000Z</time>
      </trkpt>
      <trkpt lat="47.88552" lon="7.10677">
        <ele>1056.8000488281</ele>
        <time>2020-05-31T07:29:57.000Z</time>
      </trkpt>
      <trkpt lat="47.88556" lon="7.1067">
        <ele>1056.8000488281</ele>
        <time>2020-05-31T07:29:59.000Z</time>
      </trkpt>
      <trkpt lat="47.88566" lon="7.1066">
        <ele>1057.1999511719</ele>
        <time>2020-05-31T07:30:03.000Z</time>
      </trkpt>
      <trkpt lat="47.88569" lon="7.10657">
        <ele>1057.8000488281</ele>
        <time>2020-05-31T07:30:04.000Z</time>
      </trkpt>
      <trkpt lat="47.88572" lon="7.10654">
        <ele>1058.5999755859</ele>
        <time>2020-05-31T07:30:05.000Z</time>
      </trkpt>
      <trkpt lat="47.88574" lon="7.10652">
        <ele>1059</ele>
        <time>2020-05-31T07:30:06.000Z</time>
      </trkpt>
      <trkpt lat="47.88587" lon="7.10642">
        <ele>1059</ele>
        <time>2020-05-31T07:30:11.000Z</time>
      </trkpt>
      <trkpt lat="47.886" lon="7.10639">
        <ele>1059</ele>
        <time>2020-05-31T07:30:17.000Z</time>
      </trkpt>
      <trkpt lat="47.88602" lon="7.10639">
        <ele>1059.5999755859</ele>
        <time>2020-05-31T07:30:18.000Z</time>
      </trkpt>
      <trkpt lat="47.88603" lon="7.10639">
        <ele>1060</ele>
        <time>2020-05-31T07:30:19.000Z</time>
      </trkpt>
      <trkpt lat="47.88605" lon="7.10638">
        <ele>1060.4000244141</ele>
        <time>2020-05-31T07:30:20.000Z</time>
      </trkpt>
      <trkpt lat="47.88607" lon="7.10638">
        <ele>1061</ele>
        <time>2020-05-31T07:30:21.000Z</time>
      </trkpt>
      <trkpt lat="47.88609" lon="7.10638">
        <ele>1061.4000244141</ele>
        <time>2020-05-31T07:30:22.000Z</time>
      </trkpt>
      <trkpt lat="47.88612" lon="7.10638">
        <ele>1061.8000488281</ele>
        <time>2020-05-31T07:30:23.000Z</time>
      </trkpt>
      <trkpt lat="47.88614" lon="7.10637">
        <ele>1062.4000244141</ele>
        <time>2020-05-31T07:30:24.000Z</time>
      </trkpt>
      <trkpt lat="47.88616" lon="7.10636">
        <ele>1062.8000488281</ele>
        <time>2020-05-31T07:30:25.000Z</time>
      </trkpt>
      <trkpt lat="47.88618" lon="7.10635">
        <ele>1063.1999511719</ele>
        <time>2020-05-31T07:30:26.000Z</time>
      </trkpt>
      <trkpt lat="47.88621" lon="7.10635">
        <ele>1063.8000488281</ele>
        <time>2020-05-31T07:30:27.000Z</time>
      </trkpt>
      <trkpt lat="47.88623" lon="7.10635">
        <ele>1064.1999511719</ele>
        <time>2020-05-31T07:30:28.000Z</time>
      </trkpt>
      <trkpt lat="47.88626" lon="7.10635">
        <ele>1064.5999755859</ele>
        <time>2020-05-31T07:30:29.000Z</time>
      </trkpt>
      <trkpt lat="47.88629" lon="7.10636">
        <ele>1065.5999755859</ele>
        <time>2020-05-31T07:30:30.000Z</time>
      </trkpt>
      <trkpt lat="47.88632" lon="7.10635">
        <ele>1066</ele>
        <time>2020-05-31T07:30:31.000Z</time>
      </trkpt>
      <trkpt lat="47.88635" lon="7.10635">
        <ele>1066.4000244141</ele>
        <time>2020-05-31T07:30:32.000Z</time>
      </trkpt>
      <trkpt lat="47.88637" lon="7.10634">
        <ele>1066.8000488281</ele>
        <time>2020-05-31T07:30:33.000Z</time>
      </trkpt>
      <trkpt lat="47.8864" lon="7.10634">
        <ele>1067.1999511719</ele>
        <time>2020-05-31T07:30:34.000Z</time>
      </trkpt>
      <trkpt lat="47.88642" lon="7.10633">
        <ele>1067.5999755859</ele>
        <time>2020-05-31T07:30:35.000Z</time>
      </trkpt>
      <trkpt lat="47.88646" lon="7.10633">
        <ele>1068.1999511719</ele>
        <time>2020-05-31T07:30:36.000Z</time>
      </trkpt>
      <trkpt lat="47.88656" lon="7.10626">
        <ele>1068.5999755859</ele>
        <time>2020-05-31T07:30:40.000Z</time>
      </trkpt>
      <trkpt lat="47.88658" lon="7.10624">
        <ele>1069</ele>
        <time>2020-05-31T07:30:41.000Z</time>
      </trkpt>
      <trkpt lat="47.88661" lon="7.10623">
        <ele>1069.4000244141</ele>
        <time>2020-05-31T07:30:42.000Z</time>
      </trkpt>
      <trkpt lat="47.88663" lon="7.10621">
        <ele>1070</ele>
        <time>2020-05-31T07:30:43.000Z</time>
      </trkpt>
      <trkpt lat="47.88666" lon="7.10619">
        <ele>1070.4000244141</ele>
        <time>2020-05-31T07:30:44.000Z</time>
      </trkpt>
      <trkpt lat="47.88674" lon="7.10617">
        <ele>1070.8000488281</ele>
        <time>2020-05-31T07:30:47.000Z</time>
      </trkpt>
      <trkpt lat="47.88677" lon="7.10616">
        <ele>1071.1999511719</ele>
        <time>2020-05-31T07:30:48.000Z</time>
      </trkpt>
      <trkpt lat="47.88679" lon="7.10615">
        <ele>1071.5999755859</ele>
        <time>2020-05-31T07:30:49.000Z</time>
      </trkpt>
      <trkpt lat="47.88681" lon="7.10614">
        <ele>1072</ele>
        <time>2020-05-31T07:30:50.000Z</time>
      </trkpt>
      <trkpt lat="47.88683" lon="7.10612">
        <ele>1072.4000244141</ele>
        <time>2020-05-31T07:30:51.000Z</time>
      </trkpt>
      <trkpt lat="47.88688" lon="7.10609">
        <ele>1073</ele>
        <time>2020-05-31T07:30:53.000Z</time>
      </trkpt>
      <trkpt lat="47.8869" lon="7.10608">
        <ele>1073.4000244141</ele>
        <time>2020-05-31T07:30:54.000Z</time>
      </trkpt>
      <trkpt lat="47.88691" lon="7.10606">
        <ele>1074.4000244141</ele>
        <time>2020-05-31T07:30:55.000Z</time>
      </trkpt>
      <trkpt lat="47.88692" lon="7.10605">
        <ele>1074.8000488281</ele>
        <time>2020-05-31T07:30:56.000Z</time>
      </trkpt>
      <trkpt lat="47.88694" lon="7.10602">
        <ele>1075.1999511719</ele>
        <time>2020-05-31T07:30:58.000Z</time>
      </trkpt>
      <trkpt lat="47.88696" lon="7.106">
        <ele>1075.5999755859</ele>
        <time>2020-05-31T07:30:59.000Z</time>
      </trkpt>
      <trkpt lat="47.88697" lon="7.106">
        <ele>1076.1999511719</ele>
        <time>2020-05-31T07:31:00.000Z</time>
      </trkpt>
      <trkpt lat="47.88698" lon="7.10598">
        <ele>1076.5999755859</ele>
        <time>2020-05-31T07:31:01.000Z</time>
      </trkpt>
      <trkpt lat="47.887" lon="7.10596">
        <ele>1077</ele>
        <time>2020-05-31T07:31:02.000Z</time>
      </trkpt>
      <trkpt lat="47.88712" lon="7.10591">
        <ele>1077.5999755859</ele>
        <time>2020-05-31T07:31:07.000Z</time>
      </trkpt>
      <trkpt lat="47.88713" lon="7.1059">
        <ele>1078</ele>
        <time>2020-05-31T07:31:08.000Z</time>
      </trkpt>
      <trkpt lat="47.88718" lon="7.10589">
        <ele>1078.4000244141</ele>
        <time>2020-05-31T07:31:09.000Z</time>
      </trkpt>
      <trkpt lat="47.88721" lon="7.10588">
        <ele>1078.8000488281</ele>
        <time>2020-05-31T07:31:10.000Z</time>
      </trkpt>
      <trkpt lat="47.88723" lon="7.10586">
        <ele>1079.1999511719</ele>
        <time>2020-05-31T07:31:11.000Z</time>
      </trkpt>
      <trkpt lat="47.88726" lon="7.10585">
        <ele>1079.1999511719</ele>
        <time>2020-05-31T07:31:12.000Z</time>
      </trkpt>
      <trkpt lat="47.88728" lon="7.10585">
        <ele>1079.1999511719</ele>
        <time>2020-05-31T07:31:13.000Z</time>
      </trkpt>
      <trkpt lat="47.88736" lon="7.10582">
        <ele>1079.8000488281</ele>
        <time>2020-05-31T07:31:16.000Z</time>
      </trkpt>
      <trkpt lat="47.88738" lon="7.10582">
        <ele>1080.1999511719</ele>
        <time>2020-05-31T07:31:17.000Z</time>
      </trkpt>
      <trkpt lat="47.88741" lon="7.10581">
        <ele>1080.5999755859</ele>
        <time>2020-05-31T07:31:18.000Z</time>
      </trkpt>
      <trkpt lat="47.88743" lon="7.10582">
        <ele>1081</ele>
        <time>2020-05-31T07:31:19.000Z</time>
      </trkpt>
      <trkpt lat="47.88745" lon="7.10581">
        <ele>1081.5999755859</ele>
        <time>2020-05-31T07:31:20.000Z</time>
      </trkpt>
      <trkpt lat="47.88747" lon="7.1058">
        <ele>1082</ele>
        <time>2020-05-31T07:31:21.000Z</time>
      </trkpt>
      <trkpt lat="47.8875" lon="7.10579">
        <ele>1082.4000244141</ele>
        <time>2020-05-31T07:31:22.000Z</time>
      </trkpt>
      <trkpt lat="47.88752" lon="7.10577">
        <ele>1082.8000488281</ele>
        <time>2020-05-31T07:31:23.000Z</time>
      </trkpt>
      <trkpt lat="47.88754" lon="7.10577">
        <ele>1083.1999511719</ele>
        <time>2020-05-31T07:31:24.000Z</time>
      </trkpt>
      <trkpt lat="47.88756" lon="7.10576">
        <ele>1083.5999755859</ele>
        <time>2020-05-31T07:31:25.000Z</time>
      </trkpt>
      <trkpt lat="47.88761" lon="7.10576">
        <ele>1084</ele>
        <time>2020-05-31T07:31:28.000Z</time>
      </trkpt>
      <trkpt lat="47.88762" lon="7.10574">
        <ele>1084.4000244141</ele>
        <time>2020-05-31T07:31:29.000Z</time>
      </trkpt>
      <trkpt lat="47.88764" lon="7.10573">
        <ele>1084.8000488281</ele>
        <time>2020-05-31T07:31:30.000Z</time>
      </trkpt>
      <trkpt lat="47.88765" lon="7.10573">
        <ele>1085.1999511719</ele>
        <time>2020-05-31T07:31:31.000Z</time>
      </trkpt>
      <trkpt lat="47.88766" lon="7.10573">
        <ele>1085.5999755859</ele>
        <time>2020-05-31T07:31:32.000Z</time>
      </trkpt>
      <trkpt lat="47.88776" lon="7.10571">
        <ele>1086.1999511719</ele>
        <time>2020-05-31T07:31:35.000Z</time>
      </trkpt>
      <trkpt lat="47.88778" lon="7.10571">
        <ele>1086.5999755859</ele>
        <time>2020-05-31T07:31:36.000Z</time>
      </trkpt>
      <trkpt lat="47.8878" lon="7.10571">
        <ele>1087</ele>
        <time>2020-05-31T07:31:37.000Z</time>
      </trkpt>
      <trkpt lat="47.88782" lon="7.1057">
        <ele>1087.5999755859</ele>
        <time>2020-05-31T07:31:38.000Z</time>
      </trkpt>
      <trkpt lat="47.88784" lon="7.1057">
        <ele>1088</ele>
        <time>2020-05-31T07:31:39.000Z</time>
      </trkpt>
      <trkpt lat="47.8879" lon="7.10568">
        <ele>1088.4000244141</ele>
        <time>2020-05-31T07:31:42.000Z</time>
      </trkpt>
      <trkpt lat="47.88792" lon="7.10568">
        <ele>1089</ele>
        <time>2020-05-31T07:31:43.000Z</time>
      </trkpt>
      <trkpt lat="47.88794" lon="7.10567">
        <ele>1089.8000488281</ele>
        <time>2020-05-31T07:31:44.000Z</time>
      </trkpt>
      <trkpt lat="47.88797" lon="7.10566">
        <ele>1090.4000244141</ele>
        <time>2020-05-31T07:31:45.000Z</time>
      </trkpt>
      <trkpt lat="47.88801" lon="7.10567">
        <ele>1090.8000488281</ele>
        <time>2020-05-31T07:31:47.000Z</time>
      </trkpt>
      <trkpt lat="47.88803" lon="7.10567">
        <ele>1091.1999511719</ele>
        <time>2020-05-31T07:31:48.000Z</time>
      </trkpt>
      <trkpt lat="47.88807" lon="7.10567">
        <ele>1091.8000488281</ele>
        <time>2020-05-31T07:31:49.000Z</time>
      </trkpt>
      <trkpt lat="47.8881" lon="7.10567">
        <ele>1092.1999511719</ele>
        <time>2020-05-31T07:31:50.000Z</time>
      </trkpt>
      <trkpt lat="47.88813" lon="7.10567">
        <ele>1092.5999755859</ele>
        <time>2020-05-31T07:31:51.000Z</time>
      </trkpt>
      <trkpt lat="47.88822" lon="7.10567">
        <ele>1093</ele>
        <time>2020-05-31T07:31:54.000Z</time>
      </trkpt>
      <trkpt lat="47.88825" lon="7.10566">
        <ele>1093.4000244141</ele>
        <time>2020-05-31T07:31:55.000Z</time>
      </trkpt>
      <trkpt lat="47.88828" lon="7.10567">
        <ele>1093.8000488281</ele>
        <time>2020-05-31T07:31:56.000Z</time>
      </trkpt>
      <trkpt lat="47.8883" lon="7.10567">
        <ele>1094.4000244141</ele>
        <time>2020-05-31T07:31:57.000Z</time>
      </trkpt>
      <trkpt lat="47.88833" lon="7.10568">
        <ele>1094.8000488281</ele>
        <time>2020-05-31T07:31:58.000Z</time>
      </trkpt>
      <trkpt lat="47.88844" lon="7.10569">
        <ele>1095.1999511719</ele>
        <time>2020-05-31T07:32:01.000Z</time>
      </trkpt>
      <trkpt lat="47.88848" lon="7.1057">
        <ele>1095.5999755859</ele>
        <time>2020-05-31T07:32:02.000Z</time>
      </trkpt>
      <trkpt lat="47.8885" lon="7.1057">
        <ele>1096.1999511719</ele>
        <time>2020-05-31T07:32:03.000Z</time>
      </trkpt>
      <trkpt lat="47.88853" lon="7.1057">
        <ele>1096.5999755859</ele>
        <time>2020-05-31T07:32:04.000Z</time>
      </trkpt>
      <trkpt lat="47.88857" lon="7.10571">
        <ele>1097</ele>
        <time>2020-05-31T07:32:05.000Z</time>
      </trkpt>
      <trkpt lat="47.88862" lon="7.10571">
        <ele>1097.4000244141</ele>
        <time>2020-05-31T07:32:07.000Z</time>
      </trkpt>
      <trkpt lat="47.88865" lon="7.10571">
        <ele>1097.8000488281</ele>
        <time>2020-05-31T07:32:08.000Z</time>
      </trkpt>
      <trkpt lat="47.88868" lon="7.10571">
        <ele>1098.8000488281</ele>
        <time>2020-05-31T07:32:09.000Z</time>
      </trkpt>
      <trkpt lat="47.8887" lon="7.10571">
        <ele>1099.1999511719</ele>
        <time>2020-05-31T07:32:10.000Z</time>
      </trkpt>
      <trkpt lat="47.8888" lon="7.1057">
        <ele>1099.5999755859</ele>
        <time>2020-05-31T07:32:13.000Z</time>
      </trkpt>
      <trkpt lat="47.88882" lon="7.1057">
        <ele>1100</ele>
        <time>2020-05-31T07:32:14.000Z</time>
      </trkpt>
      <trkpt lat="47.88884" lon="7.10569">
        <ele>1100.4000244141</ele>
        <time>2020-05-31T07:32:15.000Z</time>
      </trkpt>
      <trkpt lat="47.88886" lon="7.10568">
        <ele>1101</ele>
        <time>2020-05-31T07:32:16.000Z</time>
      </trkpt>
      <trkpt lat="47.88888" lon="7.10568">
        <ele>1101.4000244141</ele>
        <time>2020-05-31T07:32:17.000Z</time>
      </trkpt>
      <trkpt lat="47.88891" lon="7.10567">
        <ele>1101.4000244141</ele>
        <time>2020-05-31T07:32:19.000Z</time>
      </trkpt>
      <trkpt lat="47.88893" lon="7.10567">
        <ele>1101.4000244141</ele>
        <time>2020-05-31T07:32:20.000Z</time>
      </trkpt>
      <trkpt lat="47.88894" lon="7.10567">
        <ele>1101.8000488281</ele>
        <time>2020-05-31T07:32:21.000Z</time>
      </trkpt>
      <trkpt lat="47.88895" lon="7.10567">
        <ele>1102.1999511719</ele>
        <time>2020-05-31T07:32:22.000Z</time>
      </trkpt>
      <trkpt lat="47.88896" lon="7.10567">
        <ele>1102.5999755859</ele>
        <time>2020-05-31T07:32:23.000Z</time>
      </trkpt>
      <trkpt lat="47.88897" lon="7.10567">
        <ele>1103.1999511719</ele>
        <time>2020-05-31T07:32:24.000Z</time>
      </trkpt>
      <trkpt lat="47.88898" lon="7.10568">
        <ele>1103.5999755859</ele>
        <time>2020-05-31T07:32:25.000Z</time>
      </trkpt>
      <trkpt lat="47.88903" lon="7.10569">
        <ele>1104</ele>
        <time>2020-05-31T07:32:29.000Z</time>
      </trkpt>
      <trkpt lat="47.88904" lon="7.10568">
        <ele>1104.4000244141</ele>
        <time>2020-05-31T07:32:30.000Z</time>
      </trkpt>
      <trkpt lat="47.88906" lon="7.10568">
        <ele>1104.8000488281</ele>
        <time>2020-05-31T07:32:31.000Z</time>
      </trkpt>
      <trkpt lat="47.88908" lon="7.10567">
        <ele>1105.1999511719</ele>
        <time>2020-05-31T07:32:32.000Z</time>
      </trkpt>
      <trkpt lat="47.88909" lon="7.10568">
        <ele>1105.5999755859</ele>
        <time>2020-05-31T07:32:33.000Z</time>
      </trkpt>
      <trkpt lat="47.88914" lon="7.10565">
        <ele>1106</ele>
        <time>2020-05-31T07:32:37.000Z</time>
      </trkpt>
      <trkpt lat="47.88915" lon="7.10565">
        <ele>1106.4000244141</ele>
        <time>2020-05-31T07:32:38.000Z</time>
      </trkpt>
      <trkpt lat="47.88917" lon="7.10565">
        <ele>1106.8000488281</ele>
        <time>2020-05-31T07:32:39.000Z</time>
      </trkpt>
      <trkpt lat="47.88919" lon="7.10565">
        <ele>1107.1999511719</ele>
        <time>2020-05-31T07:32:40.000Z</time>
      </trkpt>
      <trkpt lat="47.8892" lon="7.10564">
        <ele>1107.5999755859</ele>
        <time>2020-05-31T07:32:41.000Z</time>
      </trkpt>
      <trkpt lat="47.88924" lon="7.10564">
        <ele>1107.5999755859</ele>
        <time>2020-05-31T07:32:43.000Z</time>
      </trkpt>
      <trkpt lat="47.88927" lon="7.10562">
        <ele>1108.1999511719</ele>
        <time>2020-05-31T07:32:45.000Z</time>
      </trkpt>
      <trkpt lat="47.88929" lon="7.10562">
        <ele>1108.5999755859</ele>
        <time>2020-05-31T07:32:46.000Z</time>
      </trkpt>
      <trkpt lat="47.8893" lon="7.10562">
        <ele>1109</ele>
        <time>2020-05-31T07:32:47.000Z</time>
      </trkpt>
      <trkpt lat="47.88932" lon="7.10562">
        <ele>1109.5999755859</ele>
        <time>2020-05-31T07:32:48.000Z</time>
      </trkpt>
      <trkpt lat="47.88934" lon="7.10561">
        <ele>1110</ele>
        <time>2020-05-31T07:32:49.000Z</time>
      </trkpt>
      <trkpt lat="47.8894" lon="7.10561">
        <ele>1110.4000244141</ele>
        <time>2020-05-31T07:32:53.000Z</time>
      </trkpt>
      <trkpt lat="47.88943" lon="7.10561">
        <ele>1110.8000488281</ele>
        <time>2020-05-31T07:32:54.000Z</time>
      </trkpt>
      <trkpt lat="47.88946" lon="7.1056">
        <ele>1111.1999511719</ele>
        <time>2020-05-31T07:32:55.000Z</time>
      </trkpt>
      <trkpt lat="47.88947" lon="7.1056">
        <ele>1111.8000488281</ele>
        <time>2020-05-31T07:32:56.000Z</time>
      </trkpt>
      <trkpt lat="47.88948" lon="7.1056">
        <ele>1112.1999511719</ele>
        <time>2020-05-31T07:32:57.000Z</time>
      </trkpt>
      <trkpt lat="47.8895" lon="7.1056">
        <ele>1112.1999511719</ele>
        <time>2020-05-31T07:32:58.000Z</time>
      </trkpt>
      <trkpt lat="47.88954" lon="7.10559">
        <ele>1112.5999755859</ele>
        <time>2020-05-31T07:33:00.000Z</time>
      </trkpt>
      <trkpt lat="47.88956" lon="7.10559">
        <ele>1113</ele>
        <time>2020-05-31T07:33:01.000Z</time>
      </trkpt>
      <trkpt lat="47.88958" lon="7.10559">
        <ele>1113.4000244141</ele>
        <time>2020-05-31T07:33:02.000Z</time>
      </trkpt>
      <trkpt lat="47.8896" lon="7.10559">
        <ele>1114</ele>
        <time>2020-05-31T07:33:03.000Z</time>
      </trkpt>
      <trkpt lat="47.88967" lon="7.1056">
        <ele>1114.4000244141</ele>
        <time>2020-05-31T07:33:04.000Z</time>
      </trkpt>
      <trkpt lat="47.8897" lon="7.10561">
        <ele>1114.4000244141</ele>
        <time>2020-05-31T07:33:05.000Z</time>
      </trkpt>
      <trkpt lat="47.88981" lon="7.10562">
        <ele>1114.8000488281</ele>
        <time>2020-05-31T07:33:09.000Z</time>
      </trkpt>
      <trkpt lat="47.88984" lon="7.10561">
        <ele>1115.1999511719</ele>
        <time>2020-05-31T07:33:10.000Z</time>
      </trkpt>
      <trkpt lat="47.88985" lon="7.1056">
        <ele>1115.5999755859</ele>
        <time>2020-05-31T07:33:11.000Z</time>
      </trkpt>
      <trkpt lat="47.88988" lon="7.10559">
        <ele>1116.1999511719</ele>
        <time>2020-05-31T07:33:12.000Z</time>
      </trkpt>
      <trkpt lat="47.8899" lon="7.10557">
        <ele>1116.5999755859</ele>
        <time>2020-05-31T07:33:13.000Z</time>
      </trkpt>
      <trkpt lat="47.88998" lon="7.10554">
        <ele>1116.5999755859</ele>
        <time>2020-05-31T07:33:17.000Z</time>
      </trkpt>
      <trkpt lat="47.89" lon="7.10553">
        <ele>1117</ele>
        <time>2020-05-31T07:33:18.000Z</time>
      </trkpt>
      <trkpt lat="47.89002" lon="7.10552">
        <ele>1117.4000244141</ele>
        <time>2020-05-31T07:33:19.000Z</time>
      </trkpt>
      <trkpt lat="47.89004" lon="7.10552">
        <ele>1117.8000488281</ele>
        <time>2020-05-31T07:33:20.000Z</time>
      </trkpt>
      <trkpt lat="47.89006" lon="7.10552">
        <ele>1118.1999511719</ele>
        <time>2020-05-31T07:33:21.000Z</time>
      </trkpt>
      <trkpt lat="47.89008" lon="7.10551">
        <ele>1118.5999755859</ele>
        <time>2020-05-31T07:33:22.000Z</time>
      </trkpt>
      <trkpt lat="47.89012" lon="7.10548">
        <ele>1118.5999755859</ele>
        <time>2020-05-31T07:33:25.000Z</time>
      </trkpt>
      <trkpt lat="47.89014" lon="7.10548">
        <ele>1119</ele>
        <time>2020-05-31T07:33:26.000Z</time>
      </trkpt>
      <trkpt lat="47.89015" lon="7.10548">
        <ele>1119.4000244141</ele>
        <time>2020-05-31T07:33:27.000Z</time>
      </trkpt>
      <trkpt lat="47.89017" lon="7.10547">
        <ele>1120</ele>
        <time>2020-05-31T07:33:28.000Z</time>
      </trkpt>
      <trkpt lat="47.89019" lon="7.10547">
        <ele>1120.4000244141</ele>
        <time>2020-05-31T07:33:29.000Z</time>
      </trkpt>
      <trkpt lat="47.8902" lon="7.10545">
        <ele>1120.8000488281</ele>
        <time>2020-05-31T07:33:30.000Z</time>
      </trkpt>
      <trkpt lat="47.89022" lon="7.10544">
        <ele>1120.8000488281</ele>
        <time>2020-05-31T07:33:31.000Z</time>
      </trkpt>
      <trkpt lat="47.89034" lon="7.10533">
        <ele>1121.1999511719</ele>
        <time>2020-05-31T07:33:38.000Z</time>
      </trkpt>
      <trkpt lat="47.89036" lon="7.10532">
        <ele>1121.5999755859</ele>
        <time>2020-05-31T07:33:39.000Z</time>
      </trkpt>
      <trkpt lat="47.89037" lon="7.10529">
        <ele>1122</ele>
        <time>2020-05-31T07:33:40.000Z</time>
      </trkpt>
      <trkpt lat="47.89039" lon="7.10528">
        <ele>1122.5999755859</ele>
        <time>2020-05-31T07:33:41.000Z</time>
      </trkpt>
      <trkpt lat="47.89041" lon="7.10527">
        <ele>1123</ele>
        <time>2020-05-31T07:33:42.000Z</time>
      </trkpt>
      <trkpt lat="47.89042" lon="7.10525">
        <ele>1123</ele>
        <time>2020-05-31T07:33:43.000Z</time>
      </trkpt>
      <trkpt lat="47.89051" lon="7.10517">
        <ele>1123.4000244141</ele>
        <time>2020-05-31T07:33:48.000Z</time>
      </trkpt>
      <trkpt lat="47.89052" lon="7.10515">
        <ele>1123.8000488281</ele>
        <time>2020-05-31T07:33:49.000Z</time>
      </trkpt>
      <trkpt lat="47.89054" lon="7.10512">
        <ele>1124.1999511719</ele>
        <time>2020-05-31T07:33:50.000Z</time>
      </trkpt>
      <trkpt lat="47.89055" lon="7.1051">
        <ele>1124.5999755859</ele>
        <time>2020-05-31T07:33:51.000Z</time>
      </trkpt>
      <trkpt lat="47.89056" lon="7.10508">
        <ele>1125.1999511719</ele>
        <time>2020-05-31T07:33:52.000Z</time>
      </trkpt>
      <trkpt lat="47.89063" lon="7.10501">
        <ele>1125.5999755859</ele>
        <time>2020-05-31T07:33:56.000Z</time>
      </trkpt>
      <trkpt lat="47.89064" lon="7.10499">
        <ele>1126</ele>
        <time>2020-05-31T07:33:57.000Z</time>
      </trkpt>
      <trkpt lat="47.89066" lon="7.10497">
        <ele>1126.4000244141</ele>
        <time>2020-05-31T07:33:58.000Z</time>
      </trkpt>
      <trkpt lat="47.89067" lon="7.10495">
        <ele>1126.8000488281</ele>
        <time>2020-05-31T07:33:59.000Z</time>
      </trkpt>
      <trkpt lat="47.89069" lon="7.10493">
        <ele>1127.1999511719</ele>
        <time>2020-05-31T07:34:00.000Z</time>
      </trkpt>
      <trkpt lat="47.89072" lon="7.1049">
        <ele>1127.1999511719</ele>
        <time>2020-05-31T07:34:02.000Z</time>
      </trkpt>
      <trkpt lat="47.89076" lon="7.10483">
        <ele>1127.5999755859</ele>
        <time>2020-05-31T07:34:06.000Z</time>
      </trkpt>
      <trkpt lat="47.89077" lon="7.10481">
        <ele>1128</ele>
        <time>2020-05-31T07:34:07.000Z</time>
      </trkpt>
      <trkpt lat="47.89078" lon="7.10479">
        <ele>1128.4000244141</ele>
        <time>2020-05-31T07:34:08.000Z</time>
      </trkpt>
      <trkpt lat="47.89078" lon="7.10477">
        <ele>1128.8000488281</ele>
        <time>2020-05-31T07:34:09.000Z</time>
      </trkpt>
      <trkpt lat="47.89079" lon="7.10476">
        <ele>1129.1999511719</ele>
        <time>2020-05-31T07:34:10.000Z</time>
      </trkpt>
      <trkpt lat="47.89081" lon="7.10471">
        <ele>1129.1999511719</ele>
        <time>2020-05-31T07:34:14.000Z</time>
      </trkpt>
      <trkpt lat="47.89085" lon="7.1046">
        <ele>1129.1999511719</ele>
        <time>2020-05-31T07:34:20.000Z</time>
      </trkpt>
      <trkpt lat="47.89088" lon="7.10453">
        <ele>1129.1999511719</ele>
        <time>2020-05-31T07:37:45.000Z</time>
      </trkpt>
      <trkpt lat="47.89091" lon="7.10443">
        <ele>1129.1999511719</ele>
        <time>2020-05-31T07:37:48.000Z</time>
      </trkpt>
      <trkpt lat="47.89102" lon="7.10423">
        <ele>1129.1999511719</ele>
        <time>2020-05-31T07:37:54.000Z</time>
      </trkpt>
      <trkpt lat="47.89112" lon="7.104">
        <ele>1129.1999511719</ele>
        <time>2020-05-31T07:38:00.000Z</time>
      </trkpt>
      <trkpt lat="47.89121" lon="7.1038">
        <ele>1129.1999511719</ele>
        <time>2020-05-31T07:38:05.000Z</time>
      </trkpt>
      <trkpt lat="47.89131" lon="7.10358">
        <ele>1129.1999511719</ele>
        <time>2020-05-31T07:38:10.000Z</time>
      </trkpt>
      <trkpt lat="47.8914" lon="7.10336">
        <ele>1129.1999511719</ele>
        <time>2020-05-31T07:38:15.000Z</time>
      </trkpt>
      <trkpt lat="47.89152" lon="7.10306">
        <ele>1129.1999511719</ele>
        <time>2020-05-31T07:38:21.000Z</time>
      </trkpt>
      <trkpt lat="47.89165" lon="7.10287">
        <ele>1129.1999511719</ele>
        <time>2020-05-31T07:38:26.000Z</time>
      </trkpt>
      <trkpt lat="47.89185" lon="7.1027">
        <ele>1129.5999755859</ele>
        <time>2020-05-31T07:38:32.000Z</time>
      </trkpt>
      <trkpt lat="47.89188" lon="7.10268">
        <ele>1130</ele>
        <time>2020-05-31T07:38:33.000Z</time>
      </trkpt>
      <trkpt lat="47.89191" lon="7.10266">
        <ele>1130.4000244141</ele>
        <time>2020-05-31T07:38:34.000Z</time>
      </trkpt>
      <trkpt lat="47.89195" lon="7.10264">
        <ele>1131</ele>
        <time>2020-05-31T07:38:35.000Z</time>
      </trkpt>
      <trkpt lat="47.89198" lon="7.10262">
        <ele>1131.4000244141</ele>
        <time>2020-05-31T07:38:36.000Z</time>
      </trkpt>
      <trkpt lat="47.89202" lon="7.10261">
        <ele>1131.4000244141</ele>
        <time>2020-05-31T07:38:37.000Z</time>
      </trkpt>
      <trkpt lat="47.89217" lon="7.10259">
        <ele>1131.4000244141</ele>
        <time>2020-05-31T07:38:41.000Z</time>
      </trkpt>
      <trkpt lat="47.89239" lon="7.10256">
        <ele>1131.4000244141</ele>
        <time>2020-05-31T07:38:47.000Z</time>
      </trkpt>
      <trkpt lat="47.89256" lon="7.10248">
        <ele>1131.4000244141</ele>
        <time>2020-05-31T07:38:52.000Z</time>
      </trkpt>
      <trkpt lat="47.89276" lon="7.10239">
        <ele>1131.4000244141</ele>
        <time>2020-05-31T07:38:57.000Z</time>
      </trkpt>
      <trkpt lat="47.89298" lon="7.10231">
        <ele>1131.4000244141</ele>
        <time>2020-05-31T07:39:01.000Z</time>
      </trkpt>
      <trkpt lat="47.89309" lon="7.10225">
        <ele>1131.4000244141</ele>
        <time>2020-05-31T07:39:03.000Z</time>
      </trkpt>
      <trkpt lat="47.89328" lon="7.10215">
        <ele>1131.4000244141</ele>
        <time>2020-05-31T07:39:07.000Z</time>
      </trkpt>
      <trkpt lat="47.89337" lon="7.10208">
        <ele>1131.4000244141</ele>
        <time>2020-05-31T07:39:09.000Z</time>
      </trkpt>
      <trkpt lat="47.89346" lon="7.10202">
        <ele>1131.4000244141</ele>
        <time>2020-05-31T07:39:11.000Z</time>
      </trkpt>
      <trkpt lat="47.89354" lon="7.10197">
        <ele>1131.4000244141</ele>
        <time>2020-05-31T07:39:13.000Z</time>
      </trkpt>
      <trkpt lat="47.89362" lon="7.10191">
        <ele>1131.4000244141</ele>
        <time>2020-05-31T07:39:15.000Z</time>
      </trkpt>
      <trkpt lat="47.89367" lon="7.10188">
        <ele>1131.4000244141</ele>
        <time>2020-05-31T07:39:16.000Z</time>
      </trkpt>
      <trkpt lat="47.89385" lon="7.10174">
        <ele>1131.4000244141</ele>
        <time>2020-05-31T07:39:21.000Z</time>
      </trkpt>
      <trkpt lat="47.89403" lon="7.10158">
        <ele>1131.4000244141</ele>
        <time>2020-05-31T07:39:26.000Z</time>
      </trkpt>
      <trkpt lat="47.89429" lon="7.10137">
        <ele>1131.4000244141</ele>
        <time>2020-05-31T07:39:33.000Z</time>
      </trkpt>
      <trkpt lat="47.89455" lon="7.10112">
        <ele>1131.8000488281</ele>
        <time>2020-05-31T07:39:40.000Z</time>
      </trkpt>
      <trkpt lat="47.89458" lon="7.1011">
        <ele>1132.1999511719</ele>
        <time>2020-05-31T07:39:41.000Z</time>
      </trkpt>
      <trkpt lat="47.89462" lon="7.10106">
        <ele>1132.5999755859</ele>
        <time>2020-05-31T07:39:42.000Z</time>
      </trkpt>
      <trkpt lat="47.89465" lon="7.10101">
        <ele>1133</ele>
        <time>2020-05-31T07:39:43.000Z</time>
      </trkpt>
      <trkpt lat="47.89468" lon="7.10096">
        <ele>1133.4000244141</ele>
        <time>2020-05-31T07:39:44.000Z</time>
      </trkpt>
      <trkpt lat="47.8947" lon="7.1009">
        <ele>1133.4000244141</ele>
        <time>2020-05-31T07:39:45.000Z</time>
      </trkpt>
      <trkpt lat="47.89475" lon="7.10064">
        <ele>1133.4000244141</ele>
        <time>2020-05-31T07:39:49.000Z</time>
      </trkpt>
      <trkpt lat="47.89476" lon="7.10058">
        <ele>1133.4000244141</ele>
        <time>2020-05-31T07:39:50.000Z</time>
      </trkpt>
      <trkpt lat="47.89477" lon="7.10019">
        <ele>1133.4000244141</ele>
        <time>2020-05-31T07:39:56.000Z</time>
      </trkpt>
      <trkpt lat="47.89477" lon="7.10012">
        <ele>1133.4000244141</ele>
        <time>2020-05-31T07:39:57.000Z</time>
      </trkpt>
      <trkpt lat="47.89472" lon="7.09985">
        <ele>1133</ele>
        <time>2020-05-31T07:40:01.000Z</time>
      </trkpt>
      <trkpt lat="47.8947" lon="7.09977">
        <ele>1132.5999755859</ele>
        <time>2020-05-31T07:40:02.000Z</time>
      </trkpt>
      <trkpt lat="47.8947" lon="7.09969">
        <ele>1132.1999511719</ele>
        <time>2020-05-31T07:40:03.000Z</time>
      </trkpt>
      <trkpt lat="47.89468" lon="7.09961">
        <ele>1131.8000488281</ele>
        <time>2020-05-31T07:40:04.000Z</time>
      </trkpt>
      <trkpt lat="47.89467" lon="7.09953">
        <ele>1131.4000244141</ele>
        <time>2020-05-31T07:40:05.000Z</time>
      </trkpt>
      <trkpt lat="47.89466" lon="7.09944">
        <ele>1131</ele>
        <time>2020-05-31T07:40:06.000Z</time>
      </trkpt>
      <trkpt lat="47.89464" lon="7.09933">
        <ele>1130.4000244141</ele>
        <time>2020-05-31T07:40:07.000Z</time>
      </trkpt>
      <trkpt lat="47.89463" lon="7.09923">
        <ele>1130</ele>
        <time>2020-05-31T07:40:08.000Z</time>
      </trkpt>
      <trkpt lat="47.89463" lon="7.09911">
        <ele>1129.5999755859</ele>
        <time>2020-05-31T07:40:09.000Z</time>
      </trkpt>
      <trkpt lat="47.89464" lon="7.099">
        <ele>1129</ele>
        <time>2020-05-31T07:40:10.000Z</time>
      </trkpt>
      <trkpt lat="47.89464" lon="7.09891">
        <ele>1128.4000244141</ele>
        <time>2020-05-31T07:40:11.000Z</time>
      </trkpt>
      <trkpt lat="47.89465" lon="7.09882">
        <ele>1128</ele>
        <time>2020-05-31T07:40:12.000Z</time>
      </trkpt>
      <trkpt lat="47.89467" lon="7.09873">
        <ele>1127.4000244141</ele>
        <time>2020-05-31T07:40:13.000Z</time>
      </trkpt>
      <trkpt lat="47.89468" lon="7.09865">
        <ele>1126.8000488281</ele>
        <time>2020-05-31T07:40:14.000Z</time>
      </trkpt>
      <trkpt lat="47.8947" lon="7.09849">
        <ele>1126.8000488281</ele>
        <time>2020-05-31T07:40:16.000Z</time>
      </trkpt>
      <trkpt lat="47.89471" lon="7.0984">
        <ele>1126.8000488281</ele>
        <time>2020-05-31T07:40:17.000Z</time>
      </trkpt>
      <trkpt lat="47.89473" lon="7.09821">
        <ele>1126.8000488281</ele>
        <time>2020-05-31T07:40:20.000Z</time>
      </trkpt>
      <trkpt lat="47.89478" lon="7.09793">
        <ele>1126.8000488281</ele>
        <time>2020-05-31T07:40:25.000Z</time>
      </trkpt>
      <trkpt lat="47.89488" lon="7.09752">
        <ele>1126.8000488281</ele>
        <time>2020-05-31T07:40:30.000Z</time>
      </trkpt>
      <trkpt lat="47.89489" lon="7.09744">
        <ele>1126.4000244141</ele>
        <time>2020-05-31T07:40:31.000Z</time>
      </trkpt>
      <trkpt lat="47.89491" lon="7.09737">
        <ele>1126</ele>
        <time>2020-05-31T07:40:32.000Z</time>
      </trkpt>
      <trkpt lat="47.89492" lon="7.09729">
        <ele>1125.5999755859</ele>
        <time>2020-05-31T07:40:33.000Z</time>
      </trkpt>
      <trkpt lat="47.89494" lon="7.09722">
        <ele>1125.1999511719</ele>
        <time>2020-05-31T07:40:34.000Z</time>
      </trkpt>
      <trkpt lat="47.89495" lon="7.09716">
        <ele>1124.8000488281</ele>
        <time>2020-05-31T07:40:35.000Z</time>
      </trkpt>
      <trkpt lat="47.89499" lon="7.09697">
        <ele>1124.8000488281</ele>
        <time>2020-05-31T07:40:39.000Z</time>
      </trkpt>
      <trkpt lat="47.89501" lon="7.09692">
        <ele>1124.8000488281</ele>
        <time>2020-05-31T07:40:44.000Z</time>
      </trkpt>
      <trkpt lat="47.89502" lon="7.0969">
        <ele>1124.8000488281</ele>
        <time>2020-05-31T07:41:10.000Z</time>
      </trkpt>
      <trkpt lat="47.89506" lon="7.09682">
        <ele>1124.8000488281</ele>
        <time>2020-05-31T07:41:13.000Z</time>
      </trkpt>
      <trkpt lat="47.8951" lon="7.09672">
        <ele>1125.4000244141</ele>
        <time>2020-05-31T07:41:17.000Z</time>
      </trkpt>
      <trkpt lat="47.89512" lon="7.09669">
        <ele>1125.8000488281</ele>
        <time>2020-05-31T07:41:18.000Z</time>
      </trkpt>
      <trkpt lat="47.89513" lon="7.09666">
        <ele>1126.1999511719</ele>
        <time>2020-05-31T07:41:19.000Z</time>
      </trkpt>
      <trkpt lat="47.89514" lon="7.09664">
        <ele>1126.5999755859</ele>
        <time>2020-05-31T07:41:20.000Z</time>
      </trkpt>
      <trkpt lat="47.89516" lon="7.09661">
        <ele>1127</ele>
        <time>2020-05-31T07:41:21.000Z</time>
      </trkpt>
      <trkpt lat="47.8952" lon="7.09651">
        <ele>1127.4000244141</ele>
        <time>2020-05-31T07:41:24.000Z</time>
      </trkpt>
      <trkpt lat="47.89522" lon="7.09649">
        <ele>1127.8000488281</ele>
        <time>2020-05-31T07:41:25.000Z</time>
      </trkpt>
      <trkpt lat="47.89523" lon="7.09646">
        <ele>1128.1999511719</ele>
        <time>2020-05-31T07:41:26.000Z</time>
      </trkpt>
      <trkpt lat="47.89524" lon="7.09643">
        <ele>1128.5999755859</ele>
        <time>2020-05-31T07:41:27.000Z</time>
      </trkpt>
      <trkpt lat="47.89525" lon="7.09639">
        <ele>1129</ele>
        <time>2020-05-31T07:41:28.000Z</time>
      </trkpt>
      <trkpt lat="47.89528" lon="7.09629">
        <ele>1129</ele>
        <time>2020-05-31T07:41:31.000Z</time>
      </trkpt>
      <trkpt lat="47.89529" lon="7.09627">
        <ele>1129.4000244141</ele>
        <time>2020-05-31T07:41:32.000Z</time>
      </trkpt>
      <trkpt lat="47.89529" lon="7.09624">
        <ele>1129.8000488281</ele>
        <time>2020-05-31T07:41:33.000Z</time>
      </trkpt>
      <trkpt lat="47.89531" lon="7.09622">
        <ele>1130.1999511719</ele>
        <time>2020-05-31T07:41:34.000Z</time>
      </trkpt>
      <trkpt lat="47.89532" lon="7.0962">
        <ele>1130.5999755859</ele>
        <time>2020-05-31T07:41:35.000Z</time>
      </trkpt>
      <trkpt lat="47.89533" lon="7.09617">
        <ele>1131</ele>
        <time>2020-05-31T07:41:36.000Z</time>
      </trkpt>
      <trkpt lat="47.89534" lon="7.09614">
        <ele>1131</ele>
        <time>2020-05-31T07:41:37.000Z</time>
      </trkpt>
      <trkpt lat="47.89539" lon="7.09603">
        <ele>1131.5999755859</ele>
        <time>2020-05-31T07:41:41.000Z</time>
      </trkpt>
      <trkpt lat="47.8954" lon="7.09599">
        <ele>1132</ele>
        <time>2020-05-31T07:41:42.000Z</time>
      </trkpt>
      <trkpt lat="47.8954" lon="7.09597">
        <ele>1132.4000244141</ele>
        <time>2020-05-31T07:41:43.000Z</time>
      </trkpt>
      <trkpt lat="47.89541" lon="7.09595">
        <ele>1132.8000488281</ele>
        <time>2020-05-31T07:41:44.000Z</time>
      </trkpt>
      <trkpt lat="47.89541" lon="7.09592">
        <ele>1133.4000244141</ele>
        <time>2020-05-31T07:41:45.000Z</time>
      </trkpt>
      <trkpt lat="47.89544" lon="7.09581">
        <ele>1133.8000488281</ele>
        <time>2020-05-31T07:41:49.000Z</time>
      </trkpt>
      <trkpt lat="47.89545" lon="7.09578">
        <ele>1134.1999511719</ele>
        <time>2020-05-31T07:41:50.000Z</time>
      </trkpt>
      <trkpt lat="47.89546" lon="7.09576">
        <ele>1134.5999755859</ele>
        <time>2020-05-31T07:41:51.000Z</time>
      </trkpt>
      <trkpt lat="47.89546" lon="7.09573">
        <ele>1135</ele>
        <time>2020-05-31T07:41:52.000Z</time>
      </trkpt>
      <trkpt lat="47.89547" lon="7.09571">
        <ele>1135.4000244141</ele>
        <time>2020-05-31T07:41:53.000Z</time>
      </trkpt>
      <trkpt lat="47.89548" lon="7.09565">
        <ele>1135.4000244141</ele>
        <time>2020-05-31T07:41:55.000Z</time>
      </trkpt>
      <trkpt lat="47.89548" lon="7.0956">
        <ele>1135.8000488281</ele>
        <time>2020-05-31T07:41:57.000Z</time>
      </trkpt>
      <trkpt lat="47.89549" lon="7.09556">
        <ele>1136.1999511719</ele>
        <time>2020-05-31T07:41:58.000Z</time>
      </trkpt>
      <trkpt lat="47.89549" lon="7.09553">
        <ele>1136.5999755859</ele>
        <time>2020-05-31T07:41:59.000Z</time>
      </trkpt>
      <trkpt lat="47.8955" lon="7.0955">
        <ele>1137</ele>
        <time>2020-05-31T07:42:00.000Z</time>
      </trkpt>
      <trkpt lat="47.8955" lon="7.09547">
        <ele>1137.4000244141</ele>
        <time>2020-05-31T07:42:01.000Z</time>
      </trkpt>
      <trkpt lat="47.8955" lon="7.09544">
        <ele>1137.4000244141</ele>
        <time>2020-05-31T07:42:02.000Z</time>
      </trkpt>
      <trkpt lat="47.89551" lon="7.09539">
        <ele>1137.4000244141</ele>
        <time>2020-05-31T07:42:04.000Z</time>
      </trkpt>
      <trkpt lat="47.89551" lon="7.09529">
        <ele>1137.8000488281</ele>
        <time>2020-05-31T07:42:07.000Z</time>
      </trkpt>
      <trkpt lat="47.89551" lon="7.09526">
        <ele>1138.1999511719</ele>
        <time>2020-05-31T07:42:08.000Z</time>
      </trkpt>
      <trkpt lat="47.89551" lon="7.09523">
        <ele>1138.8000488281</ele>
        <time>2020-05-31T07:42:09.000Z</time>
      </trkpt>
      <trkpt lat="47.89551" lon="7.0952">
        <ele>1139.1999511719</ele>
        <time>2020-05-31T07:42:10.000Z</time>
      </trkpt>
      <trkpt lat="47.89551" lon="7.09517">
        <ele>1139.5999755859</ele>
        <time>2020-05-31T07:42:11.000Z</time>
      </trkpt>
      <trkpt lat="47.89551" lon="7.09505">
        <ele>1140</ele>
        <time>2020-05-31T07:42:15.000Z</time>
      </trkpt>
      <trkpt lat="47.89551" lon="7.09502">
        <ele>1140.4000244141</ele>
        <time>2020-05-31T07:42:16.000Z</time>
      </trkpt>
      <trkpt lat="47.8955" lon="7.09498">
        <ele>1140.8000488281</ele>
        <time>2020-05-31T07:42:17.000Z</time>
      </trkpt>
      <trkpt lat="47.8955" lon="7.09496">
        <ele>1141.4000244141</ele>
        <time>2020-05-31T07:42:18.000Z</time>
      </trkpt>
      <trkpt lat="47.8955" lon="7.09492">
        <ele>1141.8000488281</ele>
        <time>2020-05-31T07:42:19.000Z</time>
      </trkpt>
      <trkpt lat="47.89549" lon="7.09486">
        <ele>1141.8000488281</ele>
        <time>2020-05-31T07:42:21.000Z</time>
      </trkpt>
      <trkpt lat="47.89549" lon="7.0947">
        <ele>1142.1999511719</ele>
        <time>2020-05-31T07:42:26.000Z</time>
      </trkpt>
      <trkpt lat="47.89549" lon="7.09467">
        <ele>1142.5999755859</ele>
        <time>2020-05-31T07:42:27.000Z</time>
      </trkpt>
      <trkpt lat="47.8955" lon="7.09463">
        <ele>1143</ele>
        <time>2020-05-31T07:42:28.000Z</time>
      </trkpt>
      <trkpt lat="47.89551" lon="7.09459">
        <ele>1143.4000244141</ele>
        <time>2020-05-31T07:42:29.000Z</time>
      </trkpt>
      <trkpt lat="47.89551" lon="7.09455">
        <ele>1144</ele>
        <time>2020-05-31T07:42:30.000Z</time>
      </trkpt>
      <trkpt lat="47.89554" lon="7.09439">
        <ele>1144</ele>
        <time>2020-05-31T07:42:34.000Z</time>
      </trkpt>
      <trkpt lat="47.89554" lon="7.0943">
        <ele>1144.4000244141</ele>
        <time>2020-05-31T07:42:37.000Z</time>
      </trkpt>
      <trkpt lat="47.89554" lon="7.09428">
        <ele>1144.8000488281</ele>
        <time>2020-05-31T07:42:38.000Z</time>
      </trkpt>
      <trkpt lat="47.89554" lon="7.09425">
        <ele>1145.1999511719</ele>
        <time>2020-05-31T07:42:39.000Z</time>
      </trkpt>
      <trkpt lat="47.89553" lon="7.09423">
        <ele>1145.5999755859</ele>
        <time>2020-05-31T07:42:40.000Z</time>
      </trkpt>
      <trkpt lat="47.89553" lon="7.09419">
        <ele>1146</ele>
        <time>2020-05-31T07:42:41.000Z</time>
      </trkpt>
      <trkpt lat="47.89553" lon="7.0941">
        <ele>1146</ele>
        <time>2020-05-31T07:42:44.000Z</time>
      </trkpt>
      <trkpt lat="47.89555" lon="7.09401">
        <ele>1146.4000244141</ele>
        <time>2020-05-31T07:42:47.000Z</time>
      </trkpt>
      <trkpt lat="47.89556" lon="7.09397">
        <ele>1146.8000488281</ele>
        <time>2020-05-31T07:42:48.000Z</time>
      </trkpt>
      <trkpt lat="47.89557" lon="7.09394">
        <ele>1147.1999511719</ele>
        <time>2020-05-31T07:42:49.000Z</time>
      </trkpt>
      <trkpt lat="47.89558" lon="7.09392">
        <ele>1147.8000488281</ele>
        <time>2020-05-31T07:42:50.000Z</time>
      </trkpt>
      <trkpt lat="47.89559" lon="7.0939">
        <ele>1148.1999511719</ele>
        <time>2020-05-31T07:42:51.000Z</time>
      </trkpt>
      <trkpt lat="47.89561" lon="7.09385">
        <ele>1148.5999755859</ele>
        <time>2020-05-31T07:42:53.000Z</time>
      </trkpt>
      <trkpt lat="47.89561" lon="7.09383">
        <ele>1149</ele>
        <time>2020-05-31T07:42:54.000Z</time>
      </trkpt>
      <trkpt lat="47.89562" lon="7.09381">
        <ele>1149.4000244141</ele>
        <time>2020-05-31T07:42:55.000Z</time>
      </trkpt>
      <trkpt lat="47.89564" lon="7.0938">
        <ele>1150</ele>
        <time>2020-05-31T07:42:56.000Z</time>
      </trkpt>
      <trkpt lat="47.89565" lon="7.09378">
        <ele>1150.4000244141</ele>
        <time>2020-05-31T07:42:57.000Z</time>
      </trkpt>
      <trkpt lat="47.8957" lon="7.09376">
        <ele>1150.4000244141</ele>
        <time>2020-05-31T07:43:00.000Z</time>
      </trkpt>
      <trkpt lat="47.89572" lon="7.09375">
        <ele>1150.8000488281</ele>
        <time>2020-05-31T07:43:01.000Z</time>
      </trkpt>
      <trkpt lat="47.89574" lon="7.09375">
        <ele>1151.1999511719</ele>
        <time>2020-05-31T07:43:02.000Z</time>
      </trkpt>
      <trkpt lat="47.89576" lon="7.09374">
        <ele>1151.8000488281</ele>
        <time>2020-05-31T07:43:03.000Z</time>
      </trkpt>
      <trkpt lat="47.89577" lon="7.09374">
        <ele>1152.1999511719</ele>
        <time>2020-05-31T07:43:04.000Z</time>
      </trkpt>
      <trkpt lat="47.89578" lon="7.09374">
        <ele>1152.5999755859</ele>
        <time>2020-05-31T07:43:05.000Z</time>
      </trkpt>
      <trkpt lat="47.89581" lon="7.09374">
        <ele>1152.5999755859</ele>
        <time>2020-05-31T07:43:07.000Z</time>
      </trkpt>
      <trkpt lat="47.89593" lon="7.09374">
        <ele>1152.5999755859</ele>
        <time>2020-05-31T07:43:13.000Z</time>
      </trkpt>
      <trkpt lat="47.89597" lon="7.09374">
        <ele>1153</ele>
        <time>2020-05-31T07:43:15.000Z</time>
      </trkpt>
      <trkpt lat="47.89599" lon="7.09374">
        <ele>1154</ele>
        <time>2020-05-31T07:43:16.000Z</time>
      </trkpt>
      <trkpt lat="47.896" lon="7.09374">
        <ele>1154.4000244141</ele>
        <time>2020-05-31T07:43:17.000Z</time>
      </trkpt>
      <trkpt lat="47.89602" lon="7.09374">
        <ele>1154.8000488281</ele>
        <time>2020-05-31T07:43:18.000Z</time>
      </trkpt>
      <trkpt lat="47.89603" lon="7.09374">
        <ele>1154.8000488281</ele>
        <time>2020-05-31T07:43:19.000Z</time>
      </trkpt>
      <trkpt lat="47.89614" lon="7.09375">
        <ele>1155.1999511719</ele>
        <time>2020-05-31T07:43:25.000Z</time>
      </trkpt>
      <trkpt lat="47.89615" lon="7.09375">
        <ele>1155.5999755859</ele>
        <time>2020-05-31T07:43:26.000Z</time>
      </trkpt>
      <trkpt lat="47.89618" lon="7.09375">
        <ele>1156</ele>
        <time>2020-05-31T07:43:27.000Z</time>
      </trkpt>
      <trkpt lat="47.8962" lon="7.09375">
        <ele>1156.4000244141</ele>
        <time>2020-05-31T07:43:28.000Z</time>
      </trkpt>
      <trkpt lat="47.89621" lon="7.09374">
        <ele>1157</ele>
        <time>2020-05-31T07:43:29.000Z</time>
      </trkpt>
      <trkpt lat="47.89623" lon="7.09374">
        <ele>1157</ele>
        <time>2020-05-31T07:43:30.000Z</time>
      </trkpt>
      <trkpt lat="47.89635" lon="7.09372">
        <ele>1157</ele>
        <time>2020-05-31T07:43:36.000Z</time>
      </trkpt>
      <trkpt lat="47.89642" lon="7.09369">
        <ele>1157.4000244141</ele>
        <time>2020-05-31T07:43:40.000Z</time>
      </trkpt>
      <trkpt lat="47.89645" lon="7.09367">
        <ele>1157.8000488281</ele>
        <time>2020-05-31T07:43:41.000Z</time>
      </trkpt>
      <trkpt lat="47.89648" lon="7.09366">
        <ele>1158.1999511719</ele>
        <time>2020-05-31T07:43:42.000Z</time>
      </trkpt>
      <trkpt lat="47.8965" lon="7.09367">
        <ele>1158.5999755859</ele>
        <time>2020-05-31T07:43:43.000Z</time>
      </trkpt>
      <trkpt lat="47.89653" lon="7.09366">
        <ele>1159</ele>
        <time>2020-05-31T07:43:44.000Z</time>
      </trkpt>
      <trkpt lat="47.89663" lon="7.09365">
        <ele>1159</ele>
        <time>2020-05-31T07:43:48.000Z</time>
      </trkpt>
      <trkpt lat="47.8967" lon="7.09363">
        <ele>1159.4000244141</ele>
        <time>2020-05-31T07:43:51.000Z</time>
      </trkpt>
      <trkpt lat="47.89672" lon="7.09364">
        <ele>1159.8000488281</ele>
        <time>2020-05-31T07:43:52.000Z</time>
      </trkpt>
      <trkpt lat="47.89675" lon="7.09364">
        <ele>1160.1999511719</ele>
        <time>2020-05-31T07:43:53.000Z</time>
      </trkpt>
      <trkpt lat="47.89677" lon="7.09363">
        <ele>1160.8000488281</ele>
        <time>2020-05-31T07:43:54.000Z</time>
      </trkpt>
      <trkpt lat="47.89678" lon="7.09363">
        <ele>1161.1999511719</ele>
        <time>2020-05-31T07:43:55.000Z</time>
      </trkpt>
      <trkpt lat="47.8968" lon="7.09364">
        <ele>1161.5999755859</ele>
        <time>2020-05-31T07:43:56.000Z</time>
      </trkpt>
      <trkpt lat="47.89682" lon="7.09364">
        <ele>1162</ele>
        <time>2020-05-31T07:43:57.000Z</time>
      </trkpt>
      <trkpt lat="47.89683" lon="7.09364">
        <ele>1162.4000244141</ele>
        <time>2020-05-31T07:43:58.000Z</time>
      </trkpt>
      <trkpt lat="47.89685" lon="7.09364">
        <ele>1163</ele>
        <time>2020-05-31T07:43:59.000Z</time>
      </trkpt>
      <trkpt lat="47.89687" lon="7.09364">
        <ele>1163.4000244141</ele>
        <time>2020-05-31T07:44:00.000Z</time>
      </trkpt>
      <trkpt lat="47.89689" lon="7.09365">
        <ele>1163.8000488281</ele>
        <time>2020-05-31T07:44:01.000Z</time>
      </trkpt>
      <trkpt lat="47.89691" lon="7.09366">
        <ele>1164.1999511719</ele>
        <time>2020-05-31T07:44:02.000Z</time>
      </trkpt>
      <trkpt lat="47.89692" lon="7.09367">
        <ele>1164.8000488281</ele>
        <time>2020-05-31T07:44:03.000Z</time>
      </trkpt>
      <trkpt lat="47.89695" lon="7.09367">
        <ele>1165.1999511719</ele>
        <time>2020-05-31T07:44:04.000Z</time>
      </trkpt>
      <trkpt lat="47.89697" lon="7.09367">
        <ele>1165.5999755859</ele>
        <time>2020-05-31T07:44:05.000Z</time>
      </trkpt>
      <trkpt lat="47.897" lon="7.09367">
        <ele>1166.1999511719</ele>
        <time>2020-05-31T07:44:06.000Z</time>
      </trkpt>
      <trkpt lat="47.89701" lon="7.09367">
        <ele>1166.5999755859</ele>
        <time>2020-05-31T07:44:07.000Z</time>
      </trkpt>
      <trkpt lat="47.89704" lon="7.09368">
        <ele>1167</ele>
        <time>2020-05-31T07:44:08.000Z</time>
      </trkpt>
      <trkpt lat="47.89706" lon="7.09368">
        <ele>1167.5999755859</ele>
        <time>2020-05-31T07:44:09.000Z</time>
      </trkpt>
      <trkpt lat="47.89708" lon="7.09369">
        <ele>1168</ele>
        <time>2020-05-31T07:44:10.000Z</time>
      </trkpt>
      <trkpt lat="47.8971" lon="7.09369">
        <ele>1168.4000244141</ele>
        <time>2020-05-31T07:44:11.000Z</time>
      </trkpt>
      <trkpt lat="47.89711" lon="7.09369">
        <ele>1168.8000488281</ele>
        <time>2020-05-31T07:44:12.000Z</time>
      </trkpt>
      <trkpt lat="47.89714" lon="7.09369">
        <ele>1169.1999511719</ele>
        <time>2020-05-31T07:44:13.000Z</time>
      </trkpt>
      <trkpt lat="47.89715" lon="7.09369">
        <ele>1169.5999755859</ele>
        <time>2020-05-31T07:44:14.000Z</time>
      </trkpt>
      <trkpt lat="47.89717" lon="7.09368">
        <ele>1170</ele>
        <time>2020-05-31T07:44:15.000Z</time>
      </trkpt>
      <trkpt lat="47.89719" lon="7.09368">
        <ele>1170</ele>
        <time>2020-05-31T07:44:16.000Z</time>
      </trkpt>
      <trkpt lat="47.8972" lon="7.09367">
        <ele>1170.4000244141</ele>
        <time>2020-05-31T07:44:17.000Z</time>
      </trkpt>
      <trkpt lat="47.89721" lon="7.09367">
        <ele>1170.8000488281</ele>
        <time>2020-05-31T07:44:18.000Z</time>
      </trkpt>
      <trkpt lat="47.89724" lon="7.09369">
        <ele>1171.4000244141</ele>
        <time>2020-05-31T07:44:19.000Z</time>
      </trkpt>
      <trkpt lat="47.89726" lon="7.0937">
        <ele>1171.8000488281</ele>
        <time>2020-05-31T07:44:20.000Z</time>
      </trkpt>
      <trkpt lat="47.89728" lon="7.09369">
        <ele>1172.1999511719</ele>
        <time>2020-05-31T07:44:21.000Z</time>
      </trkpt>
      <trkpt lat="47.8973" lon="7.0937">
        <ele>1172.5999755859</ele>
        <time>2020-05-31T07:44:22.000Z</time>
      </trkpt>
      <trkpt lat="47.89733" lon="7.09371">
        <ele>1173</ele>
        <time>2020-05-31T07:44:23.000Z</time>
      </trkpt>
      <trkpt lat="47.89735" lon="7.09371">
        <ele>1173.4000244141</ele>
        <time>2020-05-31T07:44:24.000Z</time>
      </trkpt>
      <trkpt lat="47.89737" lon="7.09371">
        <ele>1173.8000488281</ele>
        <time>2020-05-31T07:44:25.000Z</time>
      </trkpt>
      <trkpt lat="47.89739" lon="7.09371">
        <ele>1174.4000244141</ele>
        <time>2020-05-31T07:44:26.000Z</time>
      </trkpt>
      <trkpt lat="47.89745" lon="7.09369">
        <ele>1174.8000488281</ele>
        <time>2020-05-31T07:44:29.000Z</time>
      </trkpt>
      <trkpt lat="47.89747" lon="7.09369">
        <ele>1175.5999755859</ele>
        <time>2020-05-31T07:44:30.000Z</time>
      </trkpt>
      <trkpt lat="47.89749" lon="7.09368">
        <ele>1176</ele>
        <time>2020-05-31T07:44:31.000Z</time>
      </trkpt>
      <trkpt lat="47.89751" lon="7.09368">
        <ele>1176.4000244141</ele>
        <time>2020-05-31T07:44:32.000Z</time>
      </trkpt>
      <trkpt lat="47.89756" lon="7.09364">
        <ele>1176.4000244141</ele>
        <time>2020-05-31T07:44:36.000Z</time>
      </trkpt>
      <trkpt lat="47.89764" lon="7.09363">
        <ele>1176.8000488281</ele>
        <time>2020-05-31T07:44:41.000Z</time>
      </trkpt>
      <trkpt lat="47.89766" lon="7.09362">
        <ele>1177.1999511719</ele>
        <time>2020-05-31T07:44:42.000Z</time>
      </trkpt>
      <trkpt lat="47.89768" lon="7.09362">
        <ele>1177.5999755859</ele>
        <time>2020-05-31T07:44:43.000Z</time>
      </trkpt>
      <trkpt lat="47.8977" lon="7.09361">
        <ele>1178</ele>
        <time>2020-05-31T07:44:44.000Z</time>
      </trkpt>
      <trkpt lat="47.89772" lon="7.09361">
        <ele>1178.4000244141</ele>
        <time>2020-05-31T07:44:45.000Z</time>
      </trkpt>
      <trkpt lat="47.89776" lon="7.09359">
        <ele>1178.4000244141</ele>
        <time>2020-05-31T07:44:48.000Z</time>
      </trkpt>
      <trkpt lat="47.89816" lon="7.09347">
        <ele>1182.5999755859</ele>
        <time>2020-05-31T07:45:08.000Z</time>
      </trkpt>
      <trkpt lat="47.89833" lon="7.09345">
        <ele>1182.5999755859</ele>
        <time>2020-05-31T07:45:15.000Z</time>
      </trkpt>
      <trkpt lat="47.89837" lon="7.09343">
        <ele>1183</ele>
        <time>2020-05-31T07:45:17.000Z</time>
      </trkpt>
      <trkpt lat="47.89839" lon="7.09343">
        <ele>1183.5999755859</ele>
        <time>2020-05-31T07:45:18.000Z</time>
      </trkpt>
      <trkpt lat="47.89842" lon="7.09342">
        <ele>1184.4000244141</ele>
        <time>2020-05-31T07:45:19.000Z</time>
      </trkpt>
      <trkpt lat="47.89844" lon="7.09342">
        <ele>1184.8000488281</ele>
        <time>2020-05-31T07:45:20.000Z</time>
      </trkpt>
      <trkpt lat="47.89846" lon="7.09342">
        <ele>1184.8000488281</ele>
        <time>2020-05-31T07:45:21.000Z</time>
      </trkpt>
      <trkpt lat="47.89853" lon="7.09342">
        <ele>1185.1999511719</ele>
        <time>2020-05-31T07:45:25.000Z</time>
      </trkpt>
      <trkpt lat="47.89855" lon="7.09343">
        <ele>1185.5999755859</ele>
        <time>2020-05-31T07:45:26.000Z</time>
      </trkpt>
      <trkpt lat="47.89855" lon="7.09342">
        <ele>1186</ele>
        <time>2020-05-31T07:45:27.000Z</time>
      </trkpt>
      <trkpt lat="47.89857" lon="7.09343">
        <ele>1186.4000244141</ele>
        <time>2020-05-31T07:45:28.000Z</time>
      </trkpt>
      <trkpt lat="47.89859" lon="7.09343">
        <ele>1186.8000488281</ele>
        <time>2020-05-31T07:45:29.000Z</time>
      </trkpt>
      <trkpt lat="47.89863" lon="7.09343">
        <ele>1186.8000488281</ele>
        <time>2020-05-31T07:45:31.000Z</time>
      </trkpt>
      <trkpt lat="47.89865" lon="7.09343">
        <ele>1187.1999511719</ele>
        <time>2020-05-31T07:45:32.000Z</time>
      </trkpt>
      <trkpt lat="47.89867" lon="7.09343">
        <ele>1187.8000488281</ele>
        <time>2020-05-31T07:45:33.000Z</time>
      </trkpt>
      <trkpt lat="47.8987" lon="7.09343">
        <ele>1188.1999511719</ele>
        <time>2020-05-31T07:45:34.000Z</time>
      </trkpt>
      <trkpt lat="47.89873" lon="7.09344">
        <ele>1188.5999755859</ele>
        <time>2020-05-31T07:45:35.000Z</time>
      </trkpt>
      <trkpt lat="47.89874" lon="7.09344">
        <ele>1189</ele>
        <time>2020-05-31T07:45:36.000Z</time>
      </trkpt>
      <trkpt lat="47.89882" lon="7.09343">
        <ele>1189</ele>
        <time>2020-05-31T07:45:40.000Z</time>
      </trkpt>
      <trkpt lat="47.89884" lon="7.09342">
        <ele>1189.5999755859</ele>
        <time>2020-05-31T07:45:42.000Z</time>
      </trkpt>
      <trkpt lat="47.89886" lon="7.0934">
        <ele>1190</ele>
        <time>2020-05-31T07:45:43.000Z</time>
      </trkpt>
      <trkpt lat="47.89888" lon="7.09338">
        <ele>1190.8000488281</ele>
        <time>2020-05-31T07:45:44.000Z</time>
      </trkpt>
      <trkpt lat="47.89889" lon="7.09338">
        <ele>1191.4000244141</ele>
        <time>2020-05-31T07:45:45.000Z</time>
      </trkpt>
      <trkpt lat="47.89891" lon="7.09338">
        <ele>1191.8000488281</ele>
        <time>2020-05-31T07:45:46.000Z</time>
      </trkpt>
      <trkpt lat="47.89892" lon="7.09337">
        <ele>1192.1999511719</ele>
        <time>2020-05-31T07:45:47.000Z</time>
      </trkpt>
      <trkpt lat="47.89895" lon="7.09337">
        <ele>1192.8000488281</ele>
        <time>2020-05-31T07:45:48.000Z</time>
      </trkpt>
      <trkpt lat="47.89898" lon="7.09336">
        <ele>1193.1999511719</ele>
        <time>2020-05-31T07:45:49.000Z</time>
      </trkpt>
      <trkpt lat="47.899" lon="7.09336">
        <ele>1193.5999755859</ele>
        <time>2020-05-31T07:45:50.000Z</time>
      </trkpt>
      <trkpt lat="47.89903" lon="7.09337">
        <ele>1194.1999511719</ele>
        <time>2020-05-31T07:45:51.000Z</time>
      </trkpt>
      <trkpt lat="47.89905" lon="7.09336">
        <ele>1194.5999755859</ele>
        <time>2020-05-31T07:45:52.000Z</time>
      </trkpt>
      <trkpt lat="47.89907" lon="7.09335">
        <ele>1195</ele>
        <time>2020-05-31T07:45:53.000Z</time>
      </trkpt>
      <trkpt lat="47.89909" lon="7.09336">
        <ele>1195.4000244141</ele>
        <time>2020-05-31T07:45:54.000Z</time>
      </trkpt>
      <trkpt lat="47.89912" lon="7.09336">
        <ele>1196</ele>
        <time>2020-05-31T07:45:55.000Z</time>
      </trkpt>
      <trkpt lat="47.89913" lon="7.09336">
        <ele>1196.4000244141</ele>
        <time>2020-05-31T07:45:56.000Z</time>
      </trkpt>
      <trkpt lat="47.89916" lon="7.09336">
        <ele>1196.8000488281</ele>
        <time>2020-05-31T07:45:57.000Z</time>
      </trkpt>
      <trkpt lat="47.89918" lon="7.09336">
        <ele>1197.4000244141</ele>
        <time>2020-05-31T07:45:58.000Z</time>
      </trkpt>
      <trkpt lat="47.8992" lon="7.09335">
        <ele>1197.8000488281</ele>
        <time>2020-05-31T07:45:59.000Z</time>
      </trkpt>
      <trkpt lat="47.89922" lon="7.09333">
        <ele>1198.4000244141</ele>
        <time>2020-05-31T07:46:00.000Z</time>
      </trkpt>
      <trkpt lat="47.89924" lon="7.09334">
        <ele>1198.8000488281</ele>
        <time>2020-05-31T07:46:01.000Z</time>
      </trkpt>
      <trkpt lat="47.89925" lon="7.09334">
        <ele>1199.4000244141</ele>
        <time>2020-05-31T07:46:02.000Z</time>
      </trkpt>
      <trkpt lat="47.89942" lon="7.0933">
        <ele>1202.5999755859</ele>
        <time>2020-05-31T07:46:12.000Z</time>
      </trkpt>
      <trkpt lat="47.89945" lon="7.09329">
        <ele>1202.5999755859</ele>
        <time>2020-05-31T07:46:14.000Z</time>
      </trkpt>
      <trkpt lat="47.89952" lon="7.09329">
        <ele>1202.5999755859</ele>
        <time>2020-05-31T07:46:19.000Z</time>
      </trkpt>
      <trkpt lat="47.89964" lon="7.09329">
        <ele>1202.5999755859</ele>
        <time>2020-05-31T07:46:42.000Z</time>
      </trkpt>
      <trkpt lat="47.8998" lon="7.09328">
        <ele>1202.5999755859</ele>
        <time>2020-05-31T07:46:47.000Z</time>
      </trkpt>
      <trkpt lat="47.89992" lon="7.0933">
        <ele>1202.5999755859</ele>
        <time>2020-05-31T07:46:49.000Z</time>
      </trkpt>
      <trkpt lat="47.90003" lon="7.0933">
        <ele>1202.5999755859</ele>
        <time>2020-05-31T07:46:51.000Z</time>
      </trkpt>
      <trkpt lat="47.90019" lon="7.09325">
        <ele>1202.5999755859</ele>
        <time>2020-05-31T07:46:55.000Z</time>
      </trkpt>
      <trkpt lat="47.90032" lon="7.09323">
        <ele>1202</ele>
        <time>2020-05-31T07:46:58.000Z</time>
      </trkpt>
      <trkpt lat="47.90036" lon="7.09324">
        <ele>1201.5999755859</ele>
        <time>2020-05-31T07:46:59.000Z</time>
      </trkpt>
      <trkpt lat="47.9004" lon="7.09324">
        <ele>1201.1999511719</ele>
        <time>2020-05-31T07:47:00.000Z</time>
      </trkpt>
      <trkpt lat="47.90044" lon="7.09324">
        <ele>1200.5999755859</ele>
        <time>2020-05-31T07:47:01.000Z</time>
      </trkpt>
      <trkpt lat="47.90047" lon="7.09324">
        <ele>1201</ele>
        <time>2020-05-31T07:47:02.000Z</time>
      </trkpt>
      <trkpt lat="47.90049" lon="7.09325">
        <ele>1201.4000244141</ele>
        <time>2020-05-31T07:47:03.000Z</time>
      </trkpt>
      <trkpt lat="47.90051" lon="7.09325">
        <ele>1201.5999755859</ele>
        <time>2020-05-31T07:47:04.000Z</time>
      </trkpt>
      <trkpt lat="47.90054" lon="7.09325">
        <ele>1202</ele>
        <time>2020-05-31T07:47:05.000Z</time>
      </trkpt>
      <trkpt lat="47.90057" lon="7.09324">
        <ele>1202.4000244141</ele>
        <time>2020-05-31T07:47:06.000Z</time>
      </trkpt>
      <trkpt lat="47.9006" lon="7.09324">
        <ele>1202.8000488281</ele>
        <time>2020-05-31T07:47:07.000Z</time>
      </trkpt>
      <trkpt lat="47.90062" lon="7.09323">
        <ele>1203.1999511719</ele>
        <time>2020-05-31T07:47:08.000Z</time>
      </trkpt>
      <trkpt lat="47.90064" lon="7.09323">
        <ele>1203.5999755859</ele>
        <time>2020-05-31T07:47:09.000Z</time>
      </trkpt>
      <trkpt lat="47.90066" lon="7.09321">
        <ele>1204</ele>
        <time>2020-05-31T07:47:10.000Z</time>
      </trkpt>
      <trkpt lat="47.90067" lon="7.09319">
        <ele>1204.5999755859</ele>
        <time>2020-05-31T07:47:11.000Z</time>
      </trkpt>
      <trkpt lat="47.90069" lon="7.09314">
        <ele>1205</ele>
        <time>2020-05-31T07:47:14.000Z</time>
      </trkpt>
      <trkpt lat="47.90069" lon="7.09313">
        <ele>1205.4000244141</ele>
        <time>2020-05-31T07:47:15.000Z</time>
      </trkpt>
      <trkpt lat="47.9007" lon="7.0931">
        <ele>1205.8000488281</ele>
        <time>2020-05-31T07:47:16.000Z</time>
      </trkpt>
      <trkpt lat="47.9007" lon="7.09307">
        <ele>1206.1999511719</ele>
        <time>2020-05-31T07:47:17.000Z</time>
      </trkpt>
      <trkpt lat="47.9007" lon="7.09304">
        <ele>1206.5999755859</ele>
        <time>2020-05-31T07:47:18.000Z</time>
      </trkpt>
      <trkpt lat="47.90071" lon="7.09295">
        <ele>1207.1999511719</ele>
        <time>2020-05-31T07:47:21.000Z</time>
      </trkpt>
      <trkpt lat="47.90072" lon="7.0929">
        <ele>1208</ele>
        <time>2020-05-31T07:47:22.000Z</time>
      </trkpt>
      <trkpt lat="47.90073" lon="7.09285">
        <ele>1208.5999755859</ele>
        <time>2020-05-31T07:47:23.000Z</time>
      </trkpt>
      <trkpt lat="47.90074" lon="7.0928">
        <ele>1209</ele>
        <time>2020-05-31T07:47:24.000Z</time>
      </trkpt>
      <trkpt lat="47.90076" lon="7.0927">
        <ele>1209</ele>
        <time>2020-05-31T07:47:27.000Z</time>
      </trkpt>
      <trkpt lat="47.9008" lon="7.09259">
        <ele>1209.5999755859</ele>
        <time>2020-05-31T07:47:31.000Z</time>
      </trkpt>
      <trkpt lat="47.90081" lon="7.09258">
        <ele>1210</ele>
        <time>2020-05-31T07:47:32.000Z</time>
      </trkpt>
      <trkpt lat="47.90082" lon="7.09256">
        <ele>1210.4000244141</ele>
        <time>2020-05-31T07:47:33.000Z</time>
      </trkpt>
      <trkpt lat="47.90083" lon="7.09252">
        <ele>1211</ele>
        <time>2020-05-31T07:47:34.000Z</time>
      </trkpt>
      <trkpt lat="47.90084" lon="7.09248">
        <ele>1211.4000244141</ele>
        <time>2020-05-31T07:47:35.000Z</time>
      </trkpt>
      <trkpt lat="47.90086" lon="7.09241">
        <ele>1211.8000488281</ele>
        <time>2020-05-31T07:47:37.000Z</time>
      </trkpt>
      <trkpt lat="47.90088" lon="7.09237">
        <ele>1212.1999511719</ele>
        <time>2020-05-31T07:47:38.000Z</time>
      </trkpt>
      <trkpt lat="47.90089" lon="7.09232">
        <ele>1212.5999755859</ele>
        <time>2020-05-31T07:47:39.000Z</time>
      </trkpt>
      <trkpt lat="47.9009" lon="7.09228">
        <ele>1213</ele>
        <time>2020-05-31T07:47:40.000Z</time>
      </trkpt>
      <trkpt lat="47.90092" lon="7.09225">
        <ele>1213.4000244141</ele>
        <time>2020-05-31T07:47:41.000Z</time>
      </trkpt>
      <trkpt lat="47.90097" lon="7.09214">
        <ele>1213.4000244141</ele>
        <time>2020-05-31T07:47:45.000Z</time>
      </trkpt>
      <trkpt lat="47.90099" lon="7.0921">
        <ele>1213.8000488281</ele>
        <time>2020-05-31T07:47:46.000Z</time>
      </trkpt>
      <trkpt lat="47.90101" lon="7.09207">
        <ele>1214.1999511719</ele>
        <time>2020-05-31T07:47:47.000Z</time>
      </trkpt>
      <trkpt lat="47.90103" lon="7.09205">
        <ele>1214.5999755859</ele>
        <time>2020-05-31T07:47:48.000Z</time>
      </trkpt>
      <trkpt lat="47.90106" lon="7.09201">
        <ele>1215</ele>
        <time>2020-05-31T07:47:49.000Z</time>
      </trkpt>
      <trkpt lat="47.90108" lon="7.09199">
        <ele>1215.4000244141</ele>
        <time>2020-05-31T07:47:50.000Z</time>
      </trkpt>
      <trkpt lat="47.9011" lon="7.09198">
        <ele>1215.4000244141</ele>
        <time>2020-05-31T07:47:51.000Z</time>
      </trkpt>
      <trkpt lat="47.90117" lon="7.09194">
        <ele>1215.8000488281</ele>
        <time>2020-05-31T07:47:54.000Z</time>
      </trkpt>
      <trkpt lat="47.90119" lon="7.09192">
        <ele>1216.1999511719</ele>
        <time>2020-05-31T07:47:55.000Z</time>
      </trkpt>
      <trkpt lat="47.90121" lon="7.09191">
        <ele>1216.5999755859</ele>
        <time>2020-05-31T07:47:56.000Z</time>
      </trkpt>
      <trkpt lat="47.90123" lon="7.09189">
        <ele>1217</ele>
        <time>2020-05-31T07:47:57.000Z</time>
      </trkpt>
      <trkpt lat="47.90125" lon="7.09188">
        <ele>1217.4000244141</ele>
        <time>2020-05-31T07:47:58.000Z</time>
      </trkpt>
      <trkpt lat="47.90128" lon="7.09186">
        <ele>1218</ele>
        <time>2020-05-31T07:48:00.000Z</time>
      </trkpt>
      <trkpt lat="47.9013" lon="7.09185">
        <ele>1218.4000244141</ele>
        <time>2020-05-31T07:48:01.000Z</time>
      </trkpt>
      <trkpt lat="47.90131" lon="7.09183">
        <ele>1218.8000488281</ele>
        <time>2020-05-31T07:48:02.000Z</time>
      </trkpt>
      <trkpt lat="47.90133" lon="7.09181">
        <ele>1219.1999511719</ele>
        <time>2020-05-31T07:48:03.000Z</time>
      </trkpt>
      <trkpt lat="47.90135" lon="7.09179">
        <ele>1219.5999755859</ele>
        <time>2020-05-31T07:48:04.000Z</time>
      </trkpt>
      <trkpt lat="47.90139" lon="7.09177">
        <ele>1219.5999755859</ele>
        <time>2020-05-31T07:48:07.000Z</time>
      </trkpt>
      <trkpt lat="47.90141" lon="7.09178">
        <ele>1219.5999755859</ele>
        <time>2020-05-31T07:48:08.000Z</time>
      </trkpt>
      <trkpt lat="47.90142" lon="7.09178">
        <ele>1219.5999755859</ele>
        <time>2020-05-31T07:48:10.000Z</time>
      </trkpt>
      <trkpt lat="47.90152" lon="7.09173">
        <ele>1221.5999755859</ele>
        <time>2020-05-31T07:48:57.000Z</time>
      </trkpt>
      <trkpt lat="47.90154" lon="7.09173">
        <ele>1221.5999755859</ele>
        <time>2020-05-31T07:48:58.000Z</time>
      </trkpt>
      <trkpt lat="47.90163" lon="7.09168">
        <ele>1221.5999755859</ele>
        <time>2020-05-31T07:49:03.000Z</time>
      </trkpt>
      <trkpt lat="47.90169" lon="7.09164">
        <ele>1222.1999511719</ele>
        <time>2020-05-31T07:49:06.000Z</time>
      </trkpt>
      <trkpt lat="47.90171" lon="7.09163">
        <ele>1222.5999755859</ele>
        <time>2020-05-31T07:49:07.000Z</time>
      </trkpt>
      <trkpt lat="47.90173" lon="7.09162">
        <ele>1223</ele>
        <time>2020-05-31T07:49:08.000Z</time>
      </trkpt>
      <trkpt lat="47.90174" lon="7.09161">
        <ele>1223.4000244141</ele>
        <time>2020-05-31T07:49:09.000Z</time>
      </trkpt>
      <trkpt lat="47.90177" lon="7.09159">
        <ele>1223.8000488281</ele>
        <time>2020-05-31T07:49:10.000Z</time>
      </trkpt>
      <trkpt lat="47.90191" lon="7.0915">
        <ele>1223.8000488281</ele>
        <time>2020-05-31T07:49:14.000Z</time>
      </trkpt>
      <trkpt lat="47.9021" lon="7.09141">
        <ele>1223.8000488281</ele>
        <time>2020-05-31T07:49:18.000Z</time>
      </trkpt>
      <trkpt lat="47.90231" lon="7.09128">
        <ele>1223.8000488281</ele>
        <time>2020-05-31T07:49:23.000Z</time>
      </trkpt>
      <trkpt lat="47.90253" lon="7.09114">
        <ele>1223.8000488281</ele>
        <time>2020-05-31T07:49:29.000Z</time>
      </trkpt>
      <trkpt lat="47.90259" lon="7.0911">
        <ele>1224.4000244141</ele>
        <time>2020-05-31T07:49:31.000Z</time>
      </trkpt>
      <trkpt lat="47.90262" lon="7.0911">
        <ele>1224.8000488281</ele>
        <time>2020-05-31T07:49:32.000Z</time>
      </trkpt>
      <trkpt lat="47.90264" lon="7.09109">
        <ele>1225.1999511719</ele>
        <time>2020-05-31T07:49:33.000Z</time>
      </trkpt>
      <trkpt lat="47.90267" lon="7.09108">
        <ele>1225.8000488281</ele>
        <time>2020-05-31T07:49:34.000Z</time>
      </trkpt>
      <trkpt lat="47.9027" lon="7.09106">
        <ele>1226.1999511719</ele>
        <time>2020-05-31T07:49:35.000Z</time>
      </trkpt>
      <trkpt lat="47.90276" lon="7.09102">
        <ele>1226.1999511719</ele>
        <time>2020-05-31T07:49:38.000Z</time>
      </trkpt>
      <trkpt lat="47.90279" lon="7.09099">
        <ele>1226.1999511719</ele>
        <time>2020-05-31T07:49:41.000Z</time>
      </trkpt>
      <trkpt lat="47.90291" lon="7.09089">
        <ele>1228.1999511719</ele>
        <time>2020-05-31T07:50:08.000Z</time>
      </trkpt>
      <trkpt lat="47.90294" lon="7.09087">
        <ele>1228.1999511719</ele>
        <time>2020-05-31T07:50:09.000Z</time>
      </trkpt>
      <trkpt lat="47.90315" lon="7.09083">
        <ele>1228.1999511719</ele>
        <time>2020-05-31T07:50:15.000Z</time>
      </trkpt>
      <trkpt lat="47.90325" lon="7.0908">
        <ele>1228.1999511719</ele>
        <time>2020-05-31T07:50:20.000Z</time>
      </trkpt>
      <trkpt lat="47.90339" lon="7.09078">
        <ele>1228.1999511719</ele>
        <time>2020-05-31T07:50:25.000Z</time>
      </trkpt>
      <trkpt lat="47.90345" lon="7.09078">
        <ele>1228.5999755859</ele>
        <time>2020-05-31T07:50:28.000Z</time>
      </trkpt>
      <trkpt lat="47.90347" lon="7.09078">
        <ele>1229</ele>
        <time>2020-05-31T07:50:29.000Z</time>
      </trkpt>
      <trkpt lat="47.90349" lon="7.09077">
        <ele>1229.4000244141</ele>
        <time>2020-05-31T07:50:30.000Z</time>
      </trkpt>
      <trkpt lat="47.90351" lon="7.09077">
        <ele>1229.8000488281</ele>
        <time>2020-05-31T07:50:31.000Z</time>
      </trkpt>
      <trkpt lat="47.90353" lon="7.09077">
        <ele>1230.1999511719</ele>
        <time>2020-05-31T07:50:32.000Z</time>
      </trkpt>
      <trkpt lat="47.90362" lon="7.09073">
        <ele>1230.1999511719</ele>
        <time>2020-05-31T07:50:36.000Z</time>
      </trkpt>
      <trkpt lat="47.9038" lon="7.09062">
        <ele>1230.1999511719</ele>
        <time>2020-05-31T07:50:42.000Z</time>
      </trkpt>
      <trkpt lat="47.90401" lon="7.09049">
        <ele>1230.1999511719</ele>
        <time>2020-05-31T07:50:47.000Z</time>
      </trkpt>
      <trkpt lat="47.90427" lon="7.09033">
        <ele>1230.1999511719</ele>
        <time>2020-05-31T07:50:53.000Z</time>
      </trkpt>
      <trkpt lat="47.90444" lon="7.09023">
        <ele>1230.1999511719</ele>
        <time>2020-05-31T07:50:58.000Z</time>
      </trkpt>
      <trkpt lat="47.90465" lon="7.09009">
        <ele>1230.1999511719</ele>
        <time>2020-05-31T07:51:05.000Z</time>
      </trkpt>
      <trkpt lat="47.90474" lon="7.09004">
        <ele>1230.1999511719</ele>
        <time>2020-05-31T07:51:10.000Z</time>
      </trkpt>
      <trkpt lat="47.90474" lon="7.09004">
        <ele>1230.1999511719</ele>
        <time>2020-05-31T07:51:12.000Z</time>
      </trkpt>
      <trkpt lat="47.90476" lon="7.09003">
        <ele>1230.1999511719</ele>
        <time>2020-05-31T07:51:32.000Z</time>
      </trkpt>
      <trkpt lat="47.90477" lon="7.09002">
        <ele>1230.1999511719</ele>
        <time>2020-05-31T07:51:33.000Z</time>
      </trkpt>
      <trkpt lat="47.90482" lon="7.08999">
        <ele>1230.1999511719</ele>
        <time>2020-05-31T07:51:40.000Z</time>
      </trkpt>
      <trkpt lat="47.90483" lon="7.08999">
        <ele>1230.1999511719</ele>
        <time>2020-05-31T07:51:41.000Z</time>
      </trkpt>
      <trkpt lat="47.90485" lon="7.09002">
        <ele>1230.1999511719</ele>
        <time>2020-05-31T07:51:45.000Z</time>
      </trkpt>
      <trkpt lat="47.9049" lon="7.09007">
        <ele>1230.1999511719</ele>
        <time>2020-05-31T07:51:56.000Z</time>
      </trkpt>
      <trkpt lat="47.90494" lon="7.09013">
        <ele>1230.1999511719</ele>
        <time>2020-05-31T07:51:59.000Z</time>
      </trkpt>
      <trkpt lat="47.90498" lon="7.09021">
        <ele>1230.8000488281</ele>
        <time>2020-05-31T07:52:03.000Z</time>
      </trkpt>
      <trkpt lat="47.905" lon="7.09022">
        <ele>1231.1999511719</ele>
        <time>2020-05-31T07:52:04.000Z</time>
      </trkpt>
      <trkpt lat="47.90501" lon="7.09025">
        <ele>1231.8000488281</ele>
        <time>2020-05-31T07:52:05.000Z</time>
      </trkpt>
      <trkpt lat="47.90502" lon="7.09027">
        <ele>1232.1999511719</ele>
        <time>2020-05-31T07:52:06.000Z</time>
      </trkpt>
      <trkpt lat="47.90502" lon="7.0903">
        <ele>1232.8000488281</ele>
        <time>2020-05-31T07:52:07.000Z</time>
      </trkpt>
      <trkpt lat="47.90501" lon="7.09034">
        <ele>1232.8000488281</ele>
        <time>2020-05-31T07:52:09.000Z</time>
      </trkpt>
      <trkpt lat="47.905" lon="7.09035">
        <ele>1232.8000488281</ele>
        <time>2020-05-31T07:52:11.000Z</time>
      </trkpt>
      <trkpt lat="47.90502" lon="7.09038">
        <ele>1232.8000488281</ele>
        <time>2020-05-31T07:53:45.000Z</time>
      </trkpt>
      <trkpt lat="47.90502" lon="7.09041">
        <ele>1232.8000488281</ele>
        <time>2020-05-31T07:53:46.000Z</time>
      </trkpt>
      <trkpt lat="47.90498" lon="7.09046">
        <ele>1232.8000488281</ele>
        <time>2020-05-31T07:53:49.000Z</time>
      </trkpt>
      <trkpt lat="47.90497" lon="7.09048">
        <ele>1232.8000488281</ele>
        <time>2020-05-31T07:53:50.000Z</time>
      </trkpt>
      <trkpt lat="47.90493" lon="7.09055">
        <ele>1233.1999511719</ele>
        <time>2020-05-31T07:53:54.000Z</time>
      </trkpt>
      <trkpt lat="47.90492" lon="7.09057">
        <ele>1233.5999755859</ele>
        <time>2020-05-31T07:53:55.000Z</time>
      </trkpt>
      <trkpt lat="47.9049" lon="7.09059">
        <ele>1234</ele>
        <time>2020-05-31T07:53:56.000Z</time>
      </trkpt>
      <trkpt lat="47.90489" lon="7.09061">
        <ele>1234.8000488281</ele>
        <time>2020-05-31T07:53:57.000Z</time>
      </trkpt>
      <trkpt lat="47.90484" lon="7.09068">
        <ele>1234.8000488281</ele>
        <time>2020-05-31T07:54:00.000Z</time>
      </trkpt>
      <trkpt lat="47.90475" lon="7.09082">
        <ele>1235.4000244141</ele>
        <time>2020-05-31T07:54:06.000Z</time>
      </trkpt>
      <trkpt lat="47.90474" lon="7.09084">
        <ele>1235.8000488281</ele>
        <time>2020-05-31T07:54:07.000Z</time>
      </trkpt>
      <trkpt lat="47.90472" lon="7.09086">
        <ele>1236.1999511719</ele>
        <time>2020-05-31T07:54:08.000Z</time>
      </trkpt>
      <trkpt lat="47.90471" lon="7.09089">
        <ele>1236.8000488281</ele>
        <time>2020-05-31T07:54:09.000Z</time>
      </trkpt>
      <trkpt lat="47.90469" lon="7.09091">
        <ele>1237.1999511719</ele>
        <time>2020-05-31T07:54:10.000Z</time>
      </trkpt>
      <trkpt lat="47.90461" lon="7.09109">
        <ele>1237.1999511719</ele>
        <time>2020-05-31T07:54:17.000Z</time>
      </trkpt>
      <trkpt lat="47.90459" lon="7.09115">
        <ele>1237.5999755859</ele>
        <time>2020-05-31T07:54:19.000Z</time>
      </trkpt>
      <trkpt lat="47.90459" lon="7.09118">
        <ele>1238.4000244141</ele>
        <time>2020-05-31T07:54:20.000Z</time>
      </trkpt>
      <trkpt lat="47.90458" lon="7.09121">
        <ele>1239</ele>
        <time>2020-05-31T07:54:21.000Z</time>
      </trkpt>
      <trkpt lat="47.90458" lon="7.09124">
        <ele>1239.4000244141</ele>
        <time>2020-05-31T07:54:22.000Z</time>
      </trkpt>
      <trkpt lat="47.90457" lon="7.09134">
        <ele>1239.4000244141</ele>
        <time>2020-05-31T07:54:25.000Z</time>
      </trkpt>
      <trkpt lat="47.90456" lon="7.0914">
        <ele>1239.8000488281</ele>
        <time>2020-05-31T07:54:27.000Z</time>
      </trkpt>
      <trkpt lat="47.90456" lon="7.09143">
        <ele>1240.1999511719</ele>
        <time>2020-05-31T07:54:28.000Z</time>
      </trkpt>
      <trkpt lat="47.90456" lon="7.09147">
        <ele>1240.5999755859</ele>
        <time>2020-05-31T07:54:29.000Z</time>
      </trkpt>
      <trkpt lat="47.90456" lon="7.0915">
        <ele>1241</ele>
        <time>2020-05-31T07:54:30.000Z</time>
      </trkpt>
      <trkpt lat="47.90457" lon="7.09152">
        <ele>1241.4000244141</ele>
        <time>2020-05-31T07:54:31.000Z</time>
      </trkpt>
      <trkpt lat="47.90458" lon="7.09157">
        <ele>1241.4000244141</ele>
        <time>2020-05-31T07:54:33.000Z</time>
      </trkpt>
      <trkpt lat="47.90458" lon="7.09168">
        <ele>1241.4000244141</ele>
        <time>2020-05-31T07:54:39.000Z</time>
      </trkpt>
      <trkpt lat="47.90459" lon="7.0917">
        <ele>1241.8000488281</ele>
        <time>2020-05-31T07:54:40.000Z</time>
      </trkpt>
      <trkpt lat="47.90458" lon="7.09171">
        <ele>1242.1999511719</ele>
        <time>2020-05-31T07:54:41.000Z</time>
      </trkpt>
      <trkpt lat="47.90458" lon="7.09173">
        <ele>1242.5999755859</ele>
        <time>2020-05-31T07:54:42.000Z</time>
      </trkpt>
      <trkpt lat="47.90458" lon="7.09175">
        <ele>1243</ele>
        <time>2020-05-31T07:54:43.000Z</time>
      </trkpt>
      <trkpt lat="47.90459" lon="7.09176">
        <ele>1243.4000244141</ele>
        <time>2020-05-31T07:54:44.000Z</time>
      </trkpt>
      <trkpt lat="47.90459" lon="7.09178">
        <ele>1243.4000244141</ele>
        <time>2020-05-31T07:54:46.000Z</time>
      </trkpt>
      <trkpt lat="47.9046" lon="7.09181">
        <ele>1243.4000244141</ele>
        <time>2020-05-31T07:54:48.000Z</time>
      </trkpt>
      <trkpt lat="47.9046" lon="7.09183">
        <ele>1243.4000244141</ele>
        <time>2020-05-31T07:54:50.000Z</time>
      </trkpt>
      <trkpt lat="47.90461" lon="7.09184">
        <ele>1243.4000244141</ele>
        <time>2020-05-31T07:54:52.000Z</time>
      </trkpt>
      <trkpt lat="47.90463" lon="7.09184">
        <ele>1243.4000244141</ele>
        <time>2020-05-31T07:54:53.000Z</time>
      </trkpt>
      <trkpt lat="47.90465" lon="7.09177">
        <ele>1243.4000244141</ele>
        <time>2020-05-31T07:54:58.000Z</time>
      </trkpt>
      <trkpt lat="47.90463" lon="7.09168">
        <ele>1243.4000244141</ele>
        <time>2020-05-31T07:55:02.000Z</time>
      </trkpt>
      <trkpt lat="47.90462" lon="7.09166">
        <ele>1243.4000244141</ele>
        <time>2020-05-31T07:55:03.000Z</time>
      </trkpt>
      <trkpt lat="47.90459" lon="7.09165">
        <ele>1243.4000244141</ele>
        <time>2020-05-31T07:55:06.000Z</time>
      </trkpt>
      <trkpt lat="47.90458" lon="7.09166">
        <ele>1243.4000244141</ele>
        <time>2020-05-31T07:55:07.000Z</time>
      </trkpt>
      <trkpt lat="47.90456" lon="7.09173">
        <ele>1243.4000244141</ele>
        <time>2020-05-31T07:55:10.000Z</time>
      </trkpt>
      <trkpt lat="47.90454" lon="7.09174">
        <ele>1243.4000244141</ele>
        <time>2020-05-31T07:55:14.000Z</time>
      </trkpt>
      <trkpt lat="47.90454" lon="7.09173">
        <ele>1243.4000244141</ele>
        <time>2020-05-31T07:55:15.000Z</time>
      </trkpt>
      <trkpt lat="47.90456" lon="7.09169">
        <ele>1243</ele>
        <time>2020-05-31T07:55:37.000Z</time>
      </trkpt>
      <trkpt lat="47.9046" lon="7.0917">
        <ele>1243</ele>
        <time>2020-05-31T07:55:39.000Z</time>
      </trkpt>
      <trkpt lat="47.90463" lon="7.09182">
        <ele>1243</ele>
        <time>2020-05-31T07:55:42.000Z</time>
      </trkpt>
      <trkpt lat="47.90464" lon="7.09193">
        <ele>1243</ele>
        <time>2020-05-31T07:55:46.000Z</time>
      </trkpt>
      <trkpt lat="47.90464" lon="7.09196">
        <ele>1243</ele>
        <time>2020-05-31T07:55:47.000Z</time>
      </trkpt>
      <trkpt lat="47.90465" lon="7.09207">
        <ele>1243</ele>
        <time>2020-05-31T07:55:50.000Z</time>
      </trkpt>
      <trkpt lat="47.9047" lon="7.09227">
        <ele>1243</ele>
        <time>2020-05-31T07:55:55.000Z</time>
      </trkpt>
      <trkpt lat="47.90471" lon="7.09231">
        <ele>1243.4000244141</ele>
        <time>2020-05-31T07:55:56.000Z</time>
      </trkpt>
      <trkpt lat="47.90472" lon="7.09235">
        <ele>1243.8000488281</ele>
        <time>2020-05-31T07:55:57.000Z</time>
      </trkpt>
      <trkpt lat="47.90473" lon="7.09239">
        <ele>1244.1999511719</ele>
        <time>2020-05-31T07:55:58.000Z</time>
      </trkpt>
      <trkpt lat="47.90474" lon="7.09243">
        <ele>1244.5999755859</ele>
        <time>2020-05-31T07:55:59.000Z</time>
      </trkpt>
      <trkpt lat="47.90475" lon="7.09246">
        <ele>1245</ele>
        <time>2020-05-31T07:56:00.000Z</time>
      </trkpt>
      <trkpt lat="47.90478" lon="7.09254">
        <ele>1245</ele>
        <time>2020-05-31T07:56:02.000Z</time>
      </trkpt>
      <trkpt lat="47.90479" lon="7.09258">
        <ele>1246</ele>
        <time>2020-05-31T07:56:03.000Z</time>
      </trkpt>
      <trkpt lat="47.9048" lon="7.09261">
        <ele>1246.4000244141</ele>
        <time>2020-05-31T07:56:04.000Z</time>
      </trkpt>
      <trkpt lat="47.90481" lon="7.09265">
        <ele>1246.8000488281</ele>
        <time>2020-05-31T07:56:05.000Z</time>
      </trkpt>
      <trkpt lat="47.90482" lon="7.09269">
        <ele>1247.1999511719</ele>
        <time>2020-05-31T07:56:06.000Z</time>
      </trkpt>
      <trkpt lat="47.90485" lon="7.09277">
        <ele>1247.1999511719</ele>
        <time>2020-05-31T07:56:08.000Z</time>
      </trkpt>
      <trkpt lat="47.90494" lon="7.09301">
        <ele>1247.8000488281</ele>
        <time>2020-05-31T07:56:14.000Z</time>
      </trkpt>
      <trkpt lat="47.90496" lon="7.09305">
        <ele>1248.1999511719</ele>
        <time>2020-05-31T07:56:15.000Z</time>
      </trkpt>
      <trkpt lat="47.90497" lon="7.09309">
        <ele>1248.8000488281</ele>
        <time>2020-05-31T07:56:16.000Z</time>
      </trkpt>
      <trkpt lat="47.90498" lon="7.09313">
        <ele>1249.1999511719</ele>
        <time>2020-05-31T07:56:17.000Z</time>
      </trkpt>
      <trkpt lat="47.905" lon="7.09317">
        <ele>1249.5999755859</ele>
        <time>2020-05-31T07:56:18.000Z</time>
      </trkpt>
      <trkpt lat="47.90503" lon="7.09329">
        <ele>1249.5999755859</ele>
        <time>2020-05-31T07:56:21.000Z</time>
      </trkpt>
      <trkpt lat="47.90505" lon="7.09333">
        <ele>1250</ele>
        <time>2020-05-31T07:56:22.000Z</time>
      </trkpt>
      <trkpt lat="47.90506" lon="7.09336">
        <ele>1250.4000244141</ele>
        <time>2020-05-31T07:56:23.000Z</time>
      </trkpt>
      <trkpt lat="47.90508" lon="7.09339">
        <ele>1251</ele>
        <time>2020-05-31T07:56:24.000Z</time>
      </trkpt>
      <trkpt lat="47.90509" lon="7.09343">
        <ele>1251.4000244141</ele>
        <time>2020-05-31T07:56:25.000Z</time>
      </trkpt>
      <trkpt lat="47.9051" lon="7.09347">
        <ele>1251.8000488281</ele>
        <time>2020-05-31T07:56:26.000Z</time>
      </trkpt>
      <trkpt lat="47.90511" lon="7.09351">
        <ele>1251.8000488281</ele>
        <time>2020-05-31T07:56:27.000Z</time>
      </trkpt>
      <trkpt lat="47.90516" lon="7.09364">
        <ele>1252.1999511719</ele>
        <time>2020-05-31T07:56:31.000Z</time>
      </trkpt>
      <trkpt lat="47.90517" lon="7.09368">
        <ele>1252.5999755859</ele>
        <time>2020-05-31T07:56:32.000Z</time>
      </trkpt>
      <trkpt lat="47.90519" lon="7.09371">
        <ele>1253</ele>
        <time>2020-05-31T07:56:33.000Z</time>
      </trkpt>
      <trkpt lat="47.9052" lon="7.09374">
        <ele>1253.4000244141</ele>
        <time>2020-05-31T07:56:34.000Z</time>
      </trkpt>
      <trkpt lat="47.90521" lon="7.09378">
        <ele>1253.8000488281</ele>
        <time>2020-05-31T07:56:35.000Z</time>
      </trkpt>
      <trkpt lat="47.90524" lon="7.09384">
        <ele>1254.1999511719</ele>
        <time>2020-05-31T07:56:37.000Z</time>
      </trkpt>
      <trkpt lat="47.90525" lon="7.09388">
        <ele>1254.8000488281</ele>
        <time>2020-05-31T07:56:38.000Z</time>
      </trkpt>
      <trkpt lat="47.90526" lon="7.09391">
        <ele>1255.1999511719</ele>
        <time>2020-05-31T07:56:39.000Z</time>
      </trkpt>
      <trkpt lat="47.90527" lon="7.09395">
        <ele>1255.5999755859</ele>
        <time>2020-05-31T07:56:40.000Z</time>
      </trkpt>
      <trkpt lat="47.90528" lon="7.09398">
        <ele>1256</ele>
        <time>2020-05-31T07:56:41.000Z</time>
      </trkpt>
      <trkpt lat="47.90529" lon="7.09402">
        <ele>1256</ele>
        <time>2020-05-31T07:56:42.000Z</time>
      </trkpt>
      <trkpt lat="47.90532" lon="7.09411">
        <ele>1256.4000244141</ele>
        <time>2020-05-31T07:56:45.000Z</time>
      </trkpt>
      <trkpt lat="47.90534" lon="7.09415">
        <ele>1256.8000488281</ele>
        <time>2020-05-31T07:56:46.000Z</time>
      </trkpt>
      <trkpt lat="47.90535" lon="7.09418">
        <ele>1257.4000244141</ele>
        <time>2020-05-31T07:56:47.000Z</time>
      </trkpt>
      <trkpt lat="47.90535" lon="7.09422">
        <ele>1257.8000488281</ele>
        <time>2020-05-31T07:56:48.000Z</time>
      </trkpt>
      <trkpt lat="47.90536" lon="7.09425">
        <ele>1258.1999511719</ele>
        <time>2020-05-31T07:56:49.000Z</time>
      </trkpt>
      <trkpt lat="47.9054" lon="7.0944">
        <ele>1258.5999755859</ele>
        <time>2020-05-31T07:56:53.000Z</time>
      </trkpt>
      <trkpt lat="47.90541" lon="7.09443">
        <ele>1259</ele>
        <time>2020-05-31T07:56:54.000Z</time>
      </trkpt>
      <trkpt lat="47.90542" lon="7.09447">
        <ele>1259.4000244141</ele>
        <time>2020-05-31T07:56:55.000Z</time>
      </trkpt>
      <trkpt lat="47.90544" lon="7.0945">
        <ele>1260</ele>
        <time>2020-05-31T07:56:56.000Z</time>
      </trkpt>
      <trkpt lat="47.90545" lon="7.09454">
        <ele>1260.4000244141</ele>
        <time>2020-05-31T07:56:57.000Z</time>
      </trkpt>
      <trkpt lat="47.90549" lon="7.09468">
        <ele>1260.8000488281</ele>
        <time>2020-05-31T07:57:01.000Z</time>
      </trkpt>
      <trkpt lat="47.9055" lon="7.09471">
        <ele>1261.1999511719</ele>
        <time>2020-05-31T07:57:02.000Z</time>
      </trkpt>
      <trkpt lat="47.90551" lon="7.09475">
        <ele>1261.5999755859</ele>
        <time>2020-05-31T07:57:03.000Z</time>
      </trkpt>
      <trkpt lat="47.90552" lon="7.09479">
        <ele>1262</ele>
        <time>2020-05-31T07:57:04.000Z</time>
      </trkpt>
      <trkpt lat="47.90553" lon="7.09482">
        <ele>1262.5999755859</ele>
        <time>2020-05-31T07:57:05.000Z</time>
      </trkpt>
      <trkpt lat="47.90558" lon="7.09503">
        <ele>1263</ele>
        <time>2020-05-31T07:57:11.000Z</time>
      </trkpt>
      <trkpt lat="47.90559" lon="7.09506">
        <ele>1263.4000244141</ele>
        <time>2020-05-31T07:57:12.000Z</time>
      </trkpt>
      <trkpt lat="47.9056" lon="7.0951">
        <ele>1263.8000488281</ele>
        <time>2020-05-31T07:57:13.000Z</time>
      </trkpt>
      <trkpt lat="47.90561" lon="7.09513">
        <ele>1264.1999511719</ele>
        <time>2020-05-31T07:57:14.000Z</time>
      </trkpt>
      <trkpt lat="47.90562" lon="7.09516">
        <ele>1264.5999755859</ele>
        <time>2020-05-31T07:57:15.000Z</time>
      </trkpt>
      <trkpt lat="47.90565" lon="7.09529">
        <ele>1264.5999755859</ele>
        <time>2020-05-31T07:57:19.000Z</time>
      </trkpt>
      <trkpt lat="47.90565" lon="7.09536">
        <ele>1265</ele>
        <time>2020-05-31T07:57:21.000Z</time>
      </trkpt>
      <trkpt lat="47.90566" lon="7.0954">
        <ele>1265.4000244141</ele>
        <time>2020-05-31T07:57:22.000Z</time>
      </trkpt>
      <trkpt lat="47.90567" lon="7.09543">
        <ele>1266</ele>
        <time>2020-05-31T07:57:23.000Z</time>
      </trkpt>
      <trkpt lat="47.90567" lon="7.09546">
        <ele>1266.4000244141</ele>
        <time>2020-05-31T07:57:24.000Z</time>
      </trkpt>
      <trkpt lat="47.90568" lon="7.09549">
        <ele>1266.8000488281</ele>
        <time>2020-05-31T07:57:25.000Z</time>
      </trkpt>
      <trkpt lat="47.90569" lon="7.09571">
        <ele>1267.1999511719</ele>
        <time>2020-05-31T07:57:31.000Z</time>
      </trkpt>
      <trkpt lat="47.90569" lon="7.09575">
        <ele>1267.5999755859</ele>
        <time>2020-05-31T07:57:32.000Z</time>
      </trkpt>
      <trkpt lat="47.90569" lon="7.09578">
        <ele>1268.1999511719</ele>
        <time>2020-05-31T07:57:33.000Z</time>
      </trkpt>
      <trkpt lat="47.90569" lon="7.09582">
        <ele>1268.5999755859</ele>
        <time>2020-05-31T07:57:34.000Z</time>
      </trkpt>
      <trkpt lat="47.90569" lon="7.09586">
        <ele>1269</ele>
        <time>2020-05-31T07:57:35.000Z</time>
      </trkpt>
      <trkpt lat="47.90569" lon="7.09603">
        <ele>1269</ele>
        <time>2020-05-31T07:57:40.000Z</time>
      </trkpt>
      <trkpt lat="47.9057" lon="7.09611">
        <ele>1269.8000488281</ele>
        <time>2020-05-31T07:57:42.000Z</time>
      </trkpt>
      <trkpt lat="47.9057" lon="7.09614">
        <ele>1270.1999511719</ele>
        <time>2020-05-31T07:57:43.000Z</time>
      </trkpt>
      <trkpt lat="47.90571" lon="7.09618">
        <ele>1270.8000488281</ele>
        <time>2020-05-31T07:57:44.000Z</time>
      </trkpt>
      <trkpt lat="47.90571" lon="7.09622">
        <ele>1271.1999511719</ele>
        <time>2020-05-31T07:57:45.000Z</time>
      </trkpt>
      <trkpt lat="47.90571" lon="7.09636">
        <ele>1271.1999511719</ele>
        <time>2020-05-31T07:57:49.000Z</time>
      </trkpt>
      <trkpt lat="47.90571" lon="7.09644">
        <ele>1271.5999755859</ele>
        <time>2020-05-31T07:57:51.000Z</time>
      </trkpt>
      <trkpt lat="47.90572" lon="7.09648">
        <ele>1272.1999511719</ele>
        <time>2020-05-31T07:57:52.000Z</time>
      </trkpt>
      <trkpt lat="47.90572" lon="7.09652">
        <ele>1272.5999755859</ele>
        <time>2020-05-31T07:57:53.000Z</time>
      </trkpt>
      <trkpt lat="47.90572" lon="7.09655">
        <ele>1273.1999511719</ele>
        <time>2020-05-31T07:57:54.000Z</time>
      </trkpt>
      <trkpt lat="47.90571" lon="7.09659">
        <ele>1273.5999755859</ele>
        <time>2020-05-31T07:57:55.000Z</time>
      </trkpt>
      <trkpt lat="47.90571" lon="7.09674">
        <ele>1273.5999755859</ele>
        <time>2020-05-31T07:57:59.000Z</time>
      </trkpt>
      <trkpt lat="47.90571" lon="7.09681">
        <ele>1274</ele>
        <time>2020-05-31T07:58:01.000Z</time>
      </trkpt>
      <trkpt lat="47.90571" lon="7.09685">
        <ele>1274.4000244141</ele>
        <time>2020-05-31T07:58:02.000Z</time>
      </trkpt>
      <trkpt lat="47.90571" lon="7.09689">
        <ele>1275</ele>
        <time>2020-05-31T07:58:03.000Z</time>
      </trkpt>
      <trkpt lat="47.90571" lon="7.09692">
        <ele>1275.4000244141</ele>
        <time>2020-05-31T07:58:04.000Z</time>
      </trkpt>
      <trkpt lat="47.9057" lon="7.09696">
        <ele>1275.8000488281</ele>
        <time>2020-05-31T07:58:05.000Z</time>
      </trkpt>
      <trkpt lat="47.9057" lon="7.097">
        <ele>1275.8000488281</ele>
        <time>2020-05-31T07:58:06.000Z</time>
      </trkpt>
      <trkpt lat="47.90568" lon="7.09722">
        <ele>1276.1999511719</ele>
        <time>2020-05-31T07:58:12.000Z</time>
      </trkpt>
      <trkpt lat="47.90568" lon="7.09726">
        <ele>1276.5999755859</ele>
        <time>2020-05-31T07:58:13.000Z</time>
      </trkpt>
      <trkpt lat="47.90568" lon="7.09729">
        <ele>1277</ele>
        <time>2020-05-31T07:58:14.000Z</time>
      </trkpt>
      <trkpt lat="47.90568" lon="7.09733">
        <ele>1277.4000244141</ele>
        <time>2020-05-31T07:58:15.000Z</time>
      </trkpt>
      <trkpt lat="47.90569" lon="7.09736">
        <ele>1277.8000488281</ele>
        <time>2020-05-31T07:58:16.000Z</time>
      </trkpt>
      <trkpt lat="47.9057" lon="7.09757">
        <ele>1278.1999511719</ele>
        <time>2020-05-31T07:58:22.000Z</time>
      </trkpt>
      <trkpt lat="47.9057" lon="7.0976">
        <ele>1278.5999755859</ele>
        <time>2020-05-31T07:58:23.000Z</time>
      </trkpt>
      <trkpt lat="47.90571" lon="7.09764">
        <ele>1279</ele>
        <time>2020-05-31T07:58:24.000Z</time>
      </trkpt>
      <trkpt lat="47.90571" lon="7.09768">
        <ele>1279.4000244141</ele>
        <time>2020-05-31T07:58:25.000Z</time>
      </trkpt>
      <trkpt lat="47.90571" lon="7.09772">
        <ele>1279.8000488281</ele>
        <time>2020-05-31T07:58:26.000Z</time>
      </trkpt>
      <trkpt lat="47.90572" lon="7.09786">
        <ele>1279.8000488281</ele>
        <time>2020-05-31T07:58:30.000Z</time>
      </trkpt>
      <trkpt lat="47.90573" lon="7.09796">
        <ele>1280.4000244141</ele>
        <time>2020-05-31T07:58:33.000Z</time>
      </trkpt>
      <trkpt lat="47.90573" lon="7.09799">
        <ele>1280.8000488281</ele>
        <time>2020-05-31T07:58:34.000Z</time>
      </trkpt>
      <trkpt lat="47.90573" lon="7.09802">
        <ele>1281.1999511719</ele>
        <time>2020-05-31T07:58:35.000Z</time>
      </trkpt>
      <trkpt lat="47.90573" lon="7.09806">
        <ele>1281.5999755859</ele>
        <time>2020-05-31T07:58:36.000Z</time>
      </trkpt>
      <trkpt lat="47.90573" lon="7.09809">
        <ele>1282</ele>
        <time>2020-05-31T07:58:37.000Z</time>
      </trkpt>
      <trkpt lat="47.90574" lon="7.09816">
        <ele>1282.5999755859</ele>
        <time>2020-05-31T07:58:39.000Z</time>
      </trkpt>
      <trkpt lat="47.90574" lon="7.0982">
        <ele>1283</ele>
        <time>2020-05-31T07:58:40.000Z</time>
      </trkpt>
      <trkpt lat="47.90575" lon="7.09823">
        <ele>1283.4000244141</ele>
        <time>2020-05-31T07:58:41.000Z</time>
      </trkpt>
      <trkpt lat="47.90575" lon="7.09827">
        <ele>1283.8000488281</ele>
        <time>2020-05-31T07:58:42.000Z</time>
      </trkpt>
      <trkpt lat="47.90575" lon="7.0983">
        <ele>1284.1999511719</ele>
        <time>2020-05-31T07:58:43.000Z</time>
      </trkpt>
      <trkpt lat="47.90575" lon="7.09837">
        <ele>1284.1999511719</ele>
        <time>2020-05-31T07:58:45.000Z</time>
      </trkpt>
      <trkpt lat="47.90577" lon="7.09867">
        <ele>1284.5999755859</ele>
        <time>2020-05-31T07:58:53.000Z</time>
      </trkpt>
      <trkpt lat="47.90577" lon="7.09871">
        <ele>1285.1999511719</ele>
        <time>2020-05-31T07:58:54.000Z</time>
      </trkpt>
      <trkpt lat="47.90576" lon="7.09875">
        <ele>1285.5999755859</ele>
        <time>2020-05-31T07:58:55.000Z</time>
      </trkpt>
      <trkpt lat="47.90576" lon="7.09879">
        <ele>1286.4000244141</ele>
        <time>2020-05-31T07:58:56.000Z</time>
      </trkpt>
      <trkpt lat="47.90576" lon="7.0989">
        <ele>1286.8000488281</ele>
        <time>2020-05-31T07:58:59.000Z</time>
      </trkpt>
      <trkpt lat="47.90576" lon="7.09894">
        <ele>1287.1999511719</ele>
        <time>2020-05-31T07:59:00.000Z</time>
      </trkpt>
      <trkpt lat="47.90576" lon="7.09897">
        <ele>1287.5999755859</ele>
        <time>2020-05-31T07:59:01.000Z</time>
      </trkpt>
      <trkpt lat="47.90576" lon="7.09901">
        <ele>1288</ele>
        <time>2020-05-31T07:59:02.000Z</time>
      </trkpt>
      <trkpt lat="47.90576" lon="7.09905">
        <ele>1288.5999755859</ele>
        <time>2020-05-31T07:59:03.000Z</time>
      </trkpt>
      <trkpt lat="47.90577" lon="7.09926">
        <ele>1288.5999755859</ele>
        <time>2020-05-31T07:59:09.000Z</time>
      </trkpt>
      <trkpt lat="47.90577" lon="7.0993">
        <ele>1289</ele>
        <time>2020-05-31T07:59:10.000Z</time>
      </trkpt>
      <trkpt lat="47.90577" lon="7.09933">
        <ele>1289.4000244141</ele>
        <time>2020-05-31T07:59:11.000Z</time>
      </trkpt>
      <trkpt lat="47.90577" lon="7.09937">
        <ele>1289.8000488281</ele>
        <time>2020-05-31T07:59:12.000Z</time>
      </trkpt>
      <trkpt lat="47.90577" lon="7.0994">
        <ele>1290.4000244141</ele>
        <time>2020-05-31T07:59:13.000Z</time>
      </trkpt>
      <trkpt lat="47.90577" lon="7.09944">
        <ele>1290.8000488281</ele>
        <time>2020-05-31T07:59:14.000Z</time>
      </trkpt>
      <trkpt lat="47.90577" lon="7.09951">
        <ele>1290.8000488281</ele>
        <time>2020-05-31T07:59:16.000Z</time>
      </trkpt>
      <trkpt lat="47.90578" lon="7.09965">
        <ele>1291.1999511719</ele>
        <time>2020-05-31T07:59:20.000Z</time>
      </trkpt>
      <trkpt lat="47.90577" lon="7.09969">
        <ele>1292</ele>
        <time>2020-05-31T07:59:21.000Z</time>
      </trkpt>
      <trkpt lat="47.90578" lon="7.09972">
        <ele>1292.4000244141</ele>
        <time>2020-05-31T07:59:22.000Z</time>
      </trkpt>
      <trkpt lat="47.90577" lon="7.09976">
        <ele>1292.8000488281</ele>
        <time>2020-05-31T07:59:23.000Z</time>
      </trkpt>
      <trkpt lat="47.90578" lon="7.1">
        <ele>1293.1999511719</ele>
        <time>2020-05-31T07:59:30.000Z</time>
      </trkpt>
      <trkpt lat="47.90578" lon="7.10003">
        <ele>1293.5999755859</ele>
        <time>2020-05-31T07:59:31.000Z</time>
      </trkpt>
      <trkpt lat="47.90578" lon="7.10007">
        <ele>1294</ele>
        <time>2020-05-31T07:59:32.000Z</time>
      </trkpt>
      <trkpt lat="47.90578" lon="7.1001">
        <ele>1294.5999755859</ele>
        <time>2020-05-31T07:59:33.000Z</time>
      </trkpt>
      <trkpt lat="47.90578" lon="7.10014">
        <ele>1295</ele>
        <time>2020-05-31T07:59:34.000Z</time>
      </trkpt>
      <trkpt lat="47.90579" lon="7.10021">
        <ele>1295</ele>
        <time>2020-05-31T07:59:36.000Z</time>
      </trkpt>
      <trkpt lat="47.90579" lon="7.10024">
        <ele>1295.4000244141</ele>
        <time>2020-05-31T07:59:37.000Z</time>
      </trkpt>
      <trkpt lat="47.90579" lon="7.10028">
        <ele>1295.8000488281</ele>
        <time>2020-05-31T07:59:38.000Z</time>
      </trkpt>
      <trkpt lat="47.90579" lon="7.10032">
        <ele>1296.1999511719</ele>
        <time>2020-05-31T07:59:39.000Z</time>
      </trkpt>
      <trkpt lat="47.9058" lon="7.10035">
        <ele>1296.5999755859</ele>
        <time>2020-05-31T07:59:40.000Z</time>
      </trkpt>
      <trkpt lat="47.9058" lon="7.10039">
        <ele>1297</ele>
        <time>2020-05-31T07:59:41.000Z</time>
      </trkpt>
      <trkpt lat="47.90579" lon="7.10046">
        <ele>1297</ele>
        <time>2020-05-31T07:59:43.000Z</time>
      </trkpt>
      <trkpt lat="47.90582" lon="7.10075">
        <ele>1297</ele>
        <time>2020-05-31T07:59:51.000Z</time>
      </trkpt>
      <trkpt lat="47.90583" lon="7.10086">
        <ele>1297.4000244141</ele>
        <time>2020-05-31T07:59:54.000Z</time>
      </trkpt>
      <trkpt lat="47.90583" lon="7.1009">
        <ele>1297.8000488281</ele>
        <time>2020-05-31T07:59:55.000Z</time>
      </trkpt>
      <trkpt lat="47.90583" lon="7.10093">
        <ele>1298.1999511719</ele>
        <time>2020-05-31T07:59:56.000Z</time>
      </trkpt>
      <trkpt lat="47.90583" lon="7.10097">
        <ele>1298.5999755859</ele>
        <time>2020-05-31T07:59:57.000Z</time>
      </trkpt>
      <trkpt lat="47.90583" lon="7.10101">
        <ele>1299</ele>
        <time>2020-05-31T07:59:58.000Z</time>
      </trkpt>
      <trkpt lat="47.90583" lon="7.10107">
        <ele>1299</ele>
        <time>2020-05-31T08:00:00.000Z</time>
      </trkpt>
      <trkpt lat="47.90583" lon="7.10111">
        <ele>1299.4000244141</ele>
        <time>2020-05-31T08:00:01.000Z</time>
      </trkpt>
      <trkpt lat="47.90583" lon="7.10114">
        <ele>1299.8000488281</ele>
        <time>2020-05-31T08:00:02.000Z</time>
      </trkpt>
      <trkpt lat="47.90582" lon="7.10117">
        <ele>1300.1999511719</ele>
        <time>2020-05-31T08:00:03.000Z</time>
      </trkpt>
      <trkpt lat="47.90583" lon="7.10121">
        <ele>1300.5999755859</ele>
        <time>2020-05-31T08:00:04.000Z</time>
      </trkpt>
      <trkpt lat="47.90583" lon="7.10125">
        <ele>1301</ele>
        <time>2020-05-31T08:00:05.000Z</time>
      </trkpt>
      <trkpt lat="47.90582" lon="7.10142">
        <ele>1301.8000488281</ele>
        <time>2020-05-31T08:00:10.000Z</time>
      </trkpt>
      <trkpt lat="47.90582" lon="7.10145">
        <ele>1302.1999511719</ele>
        <time>2020-05-31T08:00:11.000Z</time>
      </trkpt>
      <trkpt lat="47.90582" lon="7.10149">
        <ele>1302.5999755859</ele>
        <time>2020-05-31T08:00:12.000Z</time>
      </trkpt>
      <trkpt lat="47.90582" lon="7.10152">
        <ele>1303</ele>
        <time>2020-05-31T08:00:13.000Z</time>
      </trkpt>
      <trkpt lat="47.90583" lon="7.1017">
        <ele>1303</ele>
        <time>2020-05-31T08:00:18.000Z</time>
      </trkpt>
      <trkpt lat="47.90584" lon="7.10188">
        <ele>1303.5999755859</ele>
        <time>2020-05-31T08:00:23.000Z</time>
      </trkpt>
      <trkpt lat="47.90585" lon="7.10191">
        <ele>1304</ele>
        <time>2020-05-31T08:00:24.000Z</time>
      </trkpt>
      <trkpt lat="47.90586" lon="7.10195">
        <ele>1304.4000244141</ele>
        <time>2020-05-31T08:00:25.000Z</time>
      </trkpt>
      <trkpt lat="47.90587" lon="7.10198">
        <ele>1304.8000488281</ele>
        <time>2020-05-31T08:00:26.000Z</time>
      </trkpt>
      <trkpt lat="47.90588" lon="7.10202">
        <ele>1305.1999511719</ele>
        <time>2020-05-31T08:00:27.000Z</time>
      </trkpt>
      <trkpt lat="47.90592" lon="7.10221">
        <ele>1305.5999755859</ele>
        <time>2020-05-31T08:00:32.000Z</time>
      </trkpt>
      <trkpt lat="47.90593" lon="7.10225">
        <ele>1306</ele>
        <time>2020-05-31T08:00:33.000Z</time>
      </trkpt>
      <trkpt lat="47.90594" lon="7.1023">
        <ele>1306.4000244141</ele>
        <time>2020-05-31T08:00:34.000Z</time>
      </trkpt>
      <trkpt lat="47.90595" lon="7.10234">
        <ele>1307.4000244141</ele>
        <time>2020-05-31T08:00:35.000Z</time>
      </trkpt>
      <trkpt lat="47.906" lon="7.10256">
        <ele>1307.4000244141</ele>
        <time>2020-05-31T08:00:40.000Z</time>
      </trkpt>
      <trkpt lat="47.90602" lon="7.10264">
        <ele>1307.8000488281</ele>
        <time>2020-05-31T08:00:42.000Z</time>
      </trkpt>
      <trkpt lat="47.90603" lon="7.10268">
        <ele>1308.1999511719</ele>
        <time>2020-05-31T08:00:43.000Z</time>
      </trkpt>
      <trkpt lat="47.90604" lon="7.10271">
        <ele>1308.5999755859</ele>
        <time>2020-05-31T08:00:44.000Z</time>
      </trkpt>
      <trkpt lat="47.90606" lon="7.10276">
        <ele>1309</ele>
        <time>2020-05-31T08:00:45.000Z</time>
      </trkpt>
      <trkpt lat="47.90607" lon="7.1028">
        <ele>1309.4000244141</ele>
        <time>2020-05-31T08:00:46.000Z</time>
      </trkpt>
      <trkpt lat="47.9061" lon="7.10288">
        <ele>1309.4000244141</ele>
        <time>2020-05-31T08:00:48.000Z</time>
      </trkpt>
      <trkpt lat="47.90615" lon="7.10306">
        <ele>1309.8000488281</ele>
        <time>2020-05-31T08:00:52.000Z</time>
      </trkpt>
      <trkpt lat="47.90616" lon="7.1031">
        <ele>1310.1999511719</ele>
        <time>2020-05-31T08:00:53.000Z</time>
      </trkpt>
      <trkpt lat="47.90618" lon="7.10314">
        <ele>1310.8000488281</ele>
        <time>2020-05-31T08:00:54.000Z</time>
      </trkpt>
      <trkpt lat="47.90619" lon="7.10318">
        <ele>1311.1999511719</ele>
        <time>2020-05-31T08:00:55.000Z</time>
      </trkpt>
      <trkpt lat="47.9062" lon="7.10323">
        <ele>1311.8000488281</ele>
        <time>2020-05-31T08:00:56.000Z</time>
      </trkpt>
      <trkpt lat="47.90626" lon="7.10339">
        <ele>1312.1999511719</ele>
        <time>2020-05-31T08:01:00.000Z</time>
      </trkpt>
      <trkpt lat="47.90628" lon="7.10343">
        <ele>1312.5999755859</ele>
        <time>2020-05-31T08:01:01.000Z</time>
      </trkpt>
      <trkpt lat="47.9063" lon="7.10347">
        <ele>1313</ele>
        <time>2020-05-31T08:01:02.000Z</time>
      </trkpt>
      <trkpt lat="47.90631" lon="7.1035">
        <ele>1313.4000244141</ele>
        <time>2020-05-31T08:01:03.000Z</time>
      </trkpt>
      <trkpt lat="47.90633" lon="7.10354">
        <ele>1314</ele>
        <time>2020-05-31T08:01:04.000Z</time>
      </trkpt>
      <trkpt lat="47.90643" lon="7.10365">
        <ele>1314</ele>
        <time>2020-05-31T08:01:08.000Z</time>
      </trkpt>
      <trkpt lat="47.90653" lon="7.10372">
        <ele>1314.4000244141</ele>
        <time>2020-05-31T08:01:11.000Z</time>
      </trkpt>
      <trkpt lat="47.90656" lon="7.10374">
        <ele>1314.8000488281</ele>
        <time>2020-05-31T08:01:12.000Z</time>
      </trkpt>
      <trkpt lat="47.90659" lon="7.10376">
        <ele>1315.1999511719</ele>
        <time>2020-05-31T08:01:13.000Z</time>
      </trkpt>
      <trkpt lat="47.90661" lon="7.10378">
        <ele>1315.5999755859</ele>
        <time>2020-05-31T08:01:14.000Z</time>
      </trkpt>
      <trkpt lat="47.90664" lon="7.1038">
        <ele>1316</ele>
        <time>2020-05-31T08:01:15.000Z</time>
      </trkpt>
      <trkpt lat="47.90677" lon="7.10393">
        <ele>1316</ele>
        <time>2020-05-31T08:01:20.000Z</time>
      </trkpt>
      <trkpt lat="47.90679" lon="7.10401">
        <ele>1316</ele>
        <time>2020-05-31T08:01:22.000Z</time>
      </trkpt>
      <trkpt lat="47.90679" lon="7.10408">
        <ele>1316.4000244141</ele>
        <time>2020-05-31T08:01:24.000Z</time>
      </trkpt>
      <trkpt lat="47.90678" lon="7.10412">
        <ele>1317.4000244141</ele>
        <time>2020-05-31T08:01:25.000Z</time>
      </trkpt>
      <trkpt lat="47.90676" lon="7.10415">
        <ele>1317.8000488281</ele>
        <time>2020-05-31T08:01:26.000Z</time>
      </trkpt>
      <trkpt lat="47.90674" lon="7.10417">
        <ele>1318.1999511719</ele>
        <time>2020-05-31T08:01:27.000Z</time>
      </trkpt>
      <trkpt lat="47.90672" lon="7.10419">
        <ele>1318.5999755859</ele>
        <time>2020-05-31T08:01:28.000Z</time>
      </trkpt>
      <trkpt lat="47.9067" lon="7.10421">
        <ele>1319</ele>
        <time>2020-05-31T08:01:29.000Z</time>
      </trkpt>
      <trkpt lat="47.90667" lon="7.10421">
        <ele>1319.4000244141</ele>
        <time>2020-05-31T08:01:30.000Z</time>
      </trkpt>
      <trkpt lat="47.90664" lon="7.1042">
        <ele>1319.8000488281</ele>
        <time>2020-05-31T08:01:31.000Z</time>
      </trkpt>
      <trkpt lat="47.90661" lon="7.1042">
        <ele>1320.1999511719</ele>
        <time>2020-05-31T08:01:32.000Z</time>
      </trkpt>
      <trkpt lat="47.90656" lon="7.10418">
        <ele>1320.1999511719</ele>
        <time>2020-05-31T08:01:34.000Z</time>
      </trkpt>
      <trkpt lat="47.90637" lon="7.10409">
        <ele>1320.1999511719</ele>
        <time>2020-05-31T08:01:40.000Z</time>
      </trkpt>
      <trkpt lat="47.90634" lon="7.10407">
        <ele>1320.5999755859</ele>
        <time>2020-05-31T08:01:41.000Z</time>
      </trkpt>
      <trkpt lat="47.90631" lon="7.10405">
        <ele>1321</ele>
        <time>2020-05-31T08:01:42.000Z</time>
      </trkpt>
      <trkpt lat="47.90628" lon="7.10403">
        <ele>1321.4000244141</ele>
        <time>2020-05-31T08:01:43.000Z</time>
      </trkpt>
      <trkpt lat="47.90626" lon="7.10401">
        <ele>1321.8000488281</ele>
        <time>2020-05-31T08:01:44.000Z</time>
      </trkpt>
      <trkpt lat="47.90623" lon="7.10399">
        <ele>1322.1999511719</ele>
        <time>2020-05-31T08:01:45.000Z</time>
      </trkpt>
      <trkpt lat="47.90613" lon="7.10393">
        <ele>1322.8000488281</ele>
        <time>2020-05-31T08:01:48.000Z</time>
      </trkpt>
      <trkpt lat="47.9061" lon="7.10391">
        <ele>1323.1999511719</ele>
        <time>2020-05-31T08:01:49.000Z</time>
      </trkpt>
      <trkpt lat="47.90607" lon="7.10389">
        <ele>1324</ele>
        <time>2020-05-31T08:01:50.000Z</time>
      </trkpt>
      <trkpt lat="47.90604" lon="7.10387">
        <ele>1324.5999755859</ele>
        <time>2020-05-31T08:01:51.000Z</time>
      </trkpt>
      <trkpt lat="47.90593" lon="7.10378">
        <ele>1325</ele>
        <time>2020-05-31T08:01:55.000Z</time>
      </trkpt>
      <trkpt lat="47.9059" lon="7.10377">
        <ele>1325.4000244141</ele>
        <time>2020-05-31T08:01:56.000Z</time>
      </trkpt>
      <trkpt lat="47.90587" lon="7.10374">
        <ele>1325.8000488281</ele>
        <time>2020-05-31T08:01:57.000Z</time>
      </trkpt>
      <trkpt lat="47.90585" lon="7.10372">
        <ele>1326.1999511719</ele>
        <time>2020-05-31T08:01:58.000Z</time>
      </trkpt>
      <trkpt lat="47.90582" lon="7.1037">
        <ele>1326.5999755859</ele>
        <time>2020-05-31T08:01:59.000Z</time>
      </trkpt>
      <trkpt lat="47.90568" lon="7.10358">
        <ele>1327</ele>
        <time>2020-05-31T08:02:04.000Z</time>
      </trkpt>
      <trkpt lat="47.90566" lon="7.10356">
        <ele>1327.5999755859</ele>
        <time>2020-05-31T08:02:05.000Z</time>
      </trkpt>
      <trkpt lat="47.90563" lon="7.10353">
        <ele>1328</ele>
        <time>2020-05-31T08:02:06.000Z</time>
      </trkpt>
      <trkpt lat="47.9056" lon="7.10351">
        <ele>1328.4000244141</ele>
        <time>2020-05-31T08:02:07.000Z</time>
      </trkpt>
      <trkpt lat="47.90558" lon="7.10349">
        <ele>1328.8000488281</ele>
        <time>2020-05-31T08:02:08.000Z</time>
      </trkpt>
      <trkpt lat="47.90548" lon="7.10338">
        <ele>1329.4000244141</ele>
        <time>2020-05-31T08:02:12.000Z</time>
      </trkpt>
      <trkpt lat="47.90545" lon="7.10335">
        <ele>1329.8000488281</ele>
        <time>2020-05-31T08:02:13.000Z</time>
      </trkpt>
      <trkpt lat="47.90543" lon="7.10332">
        <ele>1330.1999511719</ele>
        <time>2020-05-31T08:02:14.000Z</time>
      </trkpt>
      <trkpt lat="47.90541" lon="7.10329">
        <ele>1331</ele>
        <time>2020-05-31T08:02:15.000Z</time>
      </trkpt>
      <trkpt lat="47.90532" lon="7.10315">
        <ele>1331</ele>
        <time>2020-05-31T08:02:19.000Z</time>
      </trkpt>
      <trkpt lat="47.90531" lon="7.10312">
        <ele>1331.4000244141</ele>
        <time>2020-05-31T08:02:20.000Z</time>
      </trkpt>
      <trkpt lat="47.90529" lon="7.10309">
        <ele>1331.8000488281</ele>
        <time>2020-05-31T08:02:21.000Z</time>
      </trkpt>
      <trkpt lat="47.90526" lon="7.10306">
        <ele>1332.4000244141</ele>
        <time>2020-05-31T08:02:22.000Z</time>
      </trkpt>
      <trkpt lat="47.90524" lon="7.10304">
        <ele>1332.8000488281</ele>
        <time>2020-05-31T08:02:23.000Z</time>
      </trkpt>
      <trkpt lat="47.90522" lon="7.10302">
        <ele>1333.1999511719</ele>
        <time>2020-05-31T08:02:24.000Z</time>
      </trkpt>
      <trkpt lat="47.90513" lon="7.10299">
        <ele>1333.1999511719</ele>
        <time>2020-05-31T08:02:27.000Z</time>
      </trkpt>
      <trkpt lat="47.9051" lon="7.10299">
        <ele>1333.5999755859</ele>
        <time>2020-05-31T08:02:28.000Z</time>
      </trkpt>
      <trkpt lat="47.90508" lon="7.10299">
        <ele>1334</ele>
        <time>2020-05-31T08:02:29.000Z</time>
      </trkpt>
      <trkpt lat="47.90505" lon="7.10301">
        <ele>1334.4000244141</ele>
        <time>2020-05-31T08:02:30.000Z</time>
      </trkpt>
      <trkpt lat="47.90503" lon="7.10303">
        <ele>1334.8000488281</ele>
        <time>2020-05-31T08:02:31.000Z</time>
      </trkpt>
      <trkpt lat="47.90501" lon="7.10305">
        <ele>1335.1999511719</ele>
        <time>2020-05-31T08:02:32.000Z</time>
      </trkpt>
      <trkpt lat="47.90494" lon="7.10317">
        <ele>1335.8000488281</ele>
        <time>2020-05-31T08:02:36.000Z</time>
      </trkpt>
      <trkpt lat="47.90493" lon="7.10321">
        <ele>1336.1999511719</ele>
        <time>2020-05-31T08:02:37.000Z</time>
      </trkpt>
      <trkpt lat="47.90492" lon="7.10324">
        <ele>1336.5999755859</ele>
        <time>2020-05-31T08:02:38.000Z</time>
      </trkpt>
      <trkpt lat="47.90492" lon="7.10328">
        <ele>1337.5999755859</ele>
        <time>2020-05-31T08:02:39.000Z</time>
      </trkpt>
      <trkpt lat="47.90489" lon="7.1035">
        <ele>1337.5999755859</ele>
        <time>2020-05-31T08:02:44.000Z</time>
      </trkpt>
      <trkpt lat="47.90482" lon="7.10367">
        <ele>1338</ele>
        <time>2020-05-31T08:02:48.000Z</time>
      </trkpt>
      <trkpt lat="47.9048" lon="7.10371">
        <ele>1338.4000244141</ele>
        <time>2020-05-31T08:02:49.000Z</time>
      </trkpt>
      <trkpt lat="47.90479" lon="7.10373">
        <ele>1338.8000488281</ele>
        <time>2020-05-31T08:02:50.000Z</time>
      </trkpt>
      <trkpt lat="47.90479" lon="7.10376">
        <ele>1339.4000244141</ele>
        <time>2020-05-31T08:02:51.000Z</time>
      </trkpt>
      <trkpt lat="47.90478" lon="7.10378">
        <ele>1339.8000488281</ele>
        <time>2020-05-31T08:02:52.000Z</time>
      </trkpt>
      <trkpt lat="47.90479" lon="7.10383">
        <ele>1339.8000488281</ele>
        <time>2020-05-31T08:02:54.000Z</time>
      </trkpt>
      <trkpt lat="47.90479" lon="7.10384">
        <ele>1339.8000488281</ele>
        <time>2020-05-31T08:02:55.000Z</time>
      </trkpt>
      <trkpt lat="47.9048" lon="7.10384">
        <ele>1339.8000488281</ele>
        <time>2020-05-31T08:02:56.000Z</time>
      </trkpt>
      <trkpt lat="47.90477" lon="7.10386">
        <ele>1337.8000488281</ele>
        <time>2020-05-31T08:11:37.000Z</time>
      </trkpt>
      <trkpt lat="47.90469" lon="7.104">
        <ele>1337.4000244141</ele>
        <time>2020-05-31T08:11:40.000Z</time>
      </trkpt>
      <trkpt lat="47.90468" lon="7.10406">
        <ele>1337</ele>
        <time>2020-05-31T08:11:41.000Z</time>
      </trkpt>
      <trkpt lat="47.90466" lon="7.10411">
        <ele>1336.5999755859</ele>
        <time>2020-05-31T08:11:42.000Z</time>
      </trkpt>
      <trkpt lat="47.90464" lon="7.10413">
        <ele>1336.1999511719</ele>
        <time>2020-05-31T08:11:43.000Z</time>
      </trkpt>
      <trkpt lat="47.90461" lon="7.10412">
        <ele>1335.5999755859</ele>
        <time>2020-05-31T08:11:44.000Z</time>
      </trkpt>
      <trkpt lat="47.90459" lon="7.10415">
        <ele>1335.1999511719</ele>
        <time>2020-05-31T08:11:45.000Z</time>
      </trkpt>
      <trkpt lat="47.90456" lon="7.10417">
        <ele>1334.5999755859</ele>
        <time>2020-05-31T08:11:46.000Z</time>
      </trkpt>
      <trkpt lat="47.90455" lon="7.10419">
        <ele>1334</ele>
        <time>2020-05-31T08:11:47.000Z</time>
      </trkpt>
      <trkpt lat="47.90453" lon="7.10421">
        <ele>1333.5999755859</ele>
        <time>2020-05-31T08:11:48.000Z</time>
      </trkpt>
      <trkpt lat="47.90451" lon="7.10424">
        <ele>1333</ele>
        <time>2020-05-31T08:11:49.000Z</time>
      </trkpt>
      <trkpt lat="47.9045" lon="7.10426">
        <ele>1332.4000244141</ele>
        <time>2020-05-31T08:11:50.000Z</time>
      </trkpt>
      <trkpt lat="47.90449" lon="7.10429">
        <ele>1331.8000488281</ele>
        <time>2020-05-31T08:11:51.000Z</time>
      </trkpt>
      <trkpt lat="47.90447" lon="7.10432">
        <ele>1331.4000244141</ele>
        <time>2020-05-31T08:11:52.000Z</time>
      </trkpt>
      <trkpt lat="47.90445" lon="7.10435">
        <ele>1330.8000488281</ele>
        <time>2020-05-31T08:11:53.000Z</time>
      </trkpt>
      <trkpt lat="47.90443" lon="7.10438">
        <ele>1330.4000244141</ele>
        <time>2020-05-31T08:11:54.000Z</time>
      </trkpt>
      <trkpt lat="47.90441" lon="7.1044">
        <ele>1329.5999755859</ele>
        <time>2020-05-31T08:11:55.000Z</time>
      </trkpt>
      <trkpt lat="47.90438" lon="7.10442">
        <ele>1329</ele>
        <time>2020-05-31T08:11:56.000Z</time>
      </trkpt>
      <trkpt lat="47.90437" lon="7.10444">
        <ele>1328.4000244141</ele>
        <time>2020-05-31T08:11:57.000Z</time>
      </trkpt>
      <trkpt lat="47.90435" lon="7.10448">
        <ele>1327.8000488281</ele>
        <time>2020-05-31T08:11:58.000Z</time>
      </trkpt>
      <trkpt lat="47.90434" lon="7.10451">
        <ele>1327.1999511719</ele>
        <time>2020-05-31T08:11:59.000Z</time>
      </trkpt>
      <trkpt lat="47.90433" lon="7.10455">
        <ele>1326</ele>
        <time>2020-05-31T08:12:00.000Z</time>
      </trkpt>
      <trkpt lat="47.90432" lon="7.10459">
        <ele>1325.1999511719</ele>
        <time>2020-05-31T08:12:01.000Z</time>
      </trkpt>
      <trkpt lat="47.90431" lon="7.10465">
        <ele>1324.5999755859</ele>
        <time>2020-05-31T08:12:02.000Z</time>
      </trkpt>
      <trkpt lat="47.9043" lon="7.10474">
        <ele>1324</ele>
        <time>2020-05-31T08:12:03.000Z</time>
      </trkpt>
      <trkpt lat="47.9043" lon="7.10484">
        <ele>1323.1999511719</ele>
        <time>2020-05-31T08:12:04.000Z</time>
      </trkpt>
      <trkpt lat="47.90429" lon="7.10493">
        <ele>1322.1999511719</ele>
        <time>2020-05-31T08:12:05.000Z</time>
      </trkpt>
      <trkpt lat="47.9043" lon="7.105">
        <ele>1321.4000244141</ele>
        <time>2020-05-31T08:12:06.000Z</time>
      </trkpt>
      <trkpt lat="47.90431" lon="7.10506">
        <ele>1320.5999755859</ele>
        <time>2020-05-31T08:12:07.000Z</time>
      </trkpt>
      <trkpt lat="47.90432" lon="7.10512">
        <ele>1319.8000488281</ele>
        <time>2020-05-31T08:12:08.000Z</time>
      </trkpt>
      <trkpt lat="47.90432" lon="7.10516">
        <ele>1318.8000488281</ele>
        <time>2020-05-31T08:12:09.000Z</time>
      </trkpt>
      <trkpt lat="47.90431" lon="7.10519">
        <ele>1318</ele>
        <time>2020-05-31T08:12:10.000Z</time>
      </trkpt>
      <trkpt lat="47.90432" lon="7.10521">
        <ele>1317.4000244141</ele>
        <time>2020-05-31T08:12:11.000Z</time>
      </trkpt>
      <trkpt lat="47.90432" lon="7.10522">
        <ele>1316.8000488281</ele>
        <time>2020-05-31T08:12:12.000Z</time>
      </trkpt>
      <trkpt lat="47.90432" lon="7.10523">
        <ele>1316.1999511719</ele>
        <time>2020-05-31T08:12:13.000Z</time>
      </trkpt>
      <trkpt lat="47.90433" lon="7.10524">
        <ele>1315.5999755859</ele>
        <time>2020-05-31T08:12:14.000Z</time>
      </trkpt>
      <trkpt lat="47.90437" lon="7.10532">
        <ele>1315</ele>
        <time>2020-05-31T08:12:18.000Z</time>
      </trkpt>
      <trkpt lat="47.90438" lon="7.10536">
        <ele>1314.4000244141</ele>
        <time>2020-05-31T08:12:19.000Z</time>
      </trkpt>
      <trkpt lat="47.90439" lon="7.10541">
        <ele>1314</ele>
        <time>2020-05-31T08:12:20.000Z</time>
      </trkpt>
      <trkpt lat="47.90442" lon="7.10545">
        <ele>1313.5999755859</ele>
        <time>2020-05-31T08:12:21.000Z</time>
      </trkpt>
      <trkpt lat="47.90446" lon="7.10549">
        <ele>1313</ele>
        <time>2020-05-31T08:12:22.000Z</time>
      </trkpt>
      <trkpt lat="47.90449" lon="7.10555">
        <ele>1312.4000244141</ele>
        <time>2020-05-31T08:12:23.000Z</time>
      </trkpt>
      <trkpt lat="47.90452" lon="7.10561">
        <ele>1311.5999755859</ele>
        <time>2020-05-31T08:12:24.000Z</time>
      </trkpt>
      <trkpt lat="47.90456" lon="7.10567">
        <ele>1310.1999511719</ele>
        <time>2020-05-31T08:12:25.000Z</time>
      </trkpt>
      <trkpt lat="47.90459" lon="7.10574">
        <ele>1309.5999755859</ele>
        <time>2020-05-31T08:12:26.000Z</time>
      </trkpt>
      <trkpt lat="47.90462" lon="7.1058">
        <ele>1308.8000488281</ele>
        <time>2020-05-31T08:12:27.000Z</time>
      </trkpt>
      <trkpt lat="47.90465" lon="7.10585">
        <ele>1308.1999511719</ele>
        <time>2020-05-31T08:12:28.000Z</time>
      </trkpt>
      <trkpt lat="47.90467" lon="7.1059">
        <ele>1307.4000244141</ele>
        <time>2020-05-31T08:12:29.000Z</time>
      </trkpt>
      <trkpt lat="47.9047" lon="7.10595">
        <ele>1306.5999755859</ele>
        <time>2020-05-31T08:12:30.000Z</time>
      </trkpt>
      <trkpt lat="47.90474" lon="7.10603">
        <ele>1305.5999755859</ele>
        <time>2020-05-31T08:12:31.000Z</time>
      </trkpt>
      <trkpt lat="47.90478" lon="7.10611">
        <ele>1304.5999755859</ele>
        <time>2020-05-31T08:12:32.000Z</time>
      </trkpt>
      <trkpt lat="47.90482" lon="7.10619">
        <ele>1303.5999755859</ele>
        <time>2020-05-31T08:12:33.000Z</time>
      </trkpt>
      <trkpt lat="47.90486" lon="7.10627">
        <ele>1302.5999755859</ele>
        <time>2020-05-31T08:12:34.000Z</time>
      </trkpt>
      <trkpt lat="47.90489" lon="7.10633">
        <ele>1301.4000244141</ele>
        <time>2020-05-31T08:12:35.000Z</time>
      </trkpt>
      <trkpt lat="47.90492" lon="7.10638">
        <ele>1300.4000244141</ele>
        <time>2020-05-31T08:12:36.000Z</time>
      </trkpt>
      <trkpt lat="47.90496" lon="7.10644">
        <ele>1299.1999511719</ele>
        <time>2020-05-31T08:12:37.000Z</time>
      </trkpt>
      <trkpt lat="47.90498" lon="7.10647">
        <ele>1298.5999755859</ele>
        <time>2020-05-31T08:12:38.000Z</time>
      </trkpt>
      <trkpt lat="47.90499" lon="7.1065">
        <ele>1298</ele>
        <time>2020-05-31T08:12:39.000Z</time>
      </trkpt>
      <trkpt lat="47.90501" lon="7.10653">
        <ele>1297.4000244141</ele>
        <time>2020-05-31T08:12:40.000Z</time>
      </trkpt>
      <trkpt lat="47.90502" lon="7.10656">
        <ele>1296.8000488281</ele>
        <time>2020-05-31T08:12:41.000Z</time>
      </trkpt>
      <trkpt lat="47.90502" lon="7.10658">
        <ele>1296.1999511719</ele>
        <time>2020-05-31T08:12:42.000Z</time>
      </trkpt>
      <trkpt lat="47.90502" lon="7.10659">
        <ele>1295.8000488281</ele>
        <time>2020-05-31T08:12:43.000Z</time>
      </trkpt>
      <trkpt lat="47.90501" lon="7.10659">
        <ele>1295.1999511719</ele>
        <time>2020-05-31T08:12:44.000Z</time>
      </trkpt>
      <trkpt lat="47.90498" lon="7.1066">
        <ele>1294.8000488281</ele>
        <time>2020-05-31T08:12:45.000Z</time>
      </trkpt>
      <trkpt lat="47.90496" lon="7.1066">
        <ele>1294.4000244141</ele>
        <time>2020-05-31T08:12:46.000Z</time>
      </trkpt>
      <trkpt lat="47.90492" lon="7.10661">
        <ele>1293.8000488281</ele>
        <time>2020-05-31T08:12:47.000Z</time>
      </trkpt>
      <trkpt lat="47.90487" lon="7.1066">
        <ele>1293.1999511719</ele>
        <time>2020-05-31T08:12:48.000Z</time>
      </trkpt>
      <trkpt lat="47.90483" lon="7.10661">
        <ele>1292.8000488281</ele>
        <time>2020-05-31T08:12:49.000Z</time>
      </trkpt>
      <trkpt lat="47.90479" lon="7.10661">
        <ele>1291.5999755859</ele>
        <time>2020-05-31T08:12:50.000Z</time>
      </trkpt>
      <trkpt lat="47.90475" lon="7.1066">
        <ele>1291</ele>
        <time>2020-05-31T08:12:51.000Z</time>
      </trkpt>
      <trkpt lat="47.90469" lon="7.10659">
        <ele>1290.4000244141</ele>
        <time>2020-05-31T08:12:52.000Z</time>
      </trkpt>
      <trkpt lat="47.90463" lon="7.10658">
        <ele>1289.5999755859</ele>
        <time>2020-05-31T08:12:53.000Z</time>
      </trkpt>
      <trkpt lat="47.90457" lon="7.10656">
        <ele>1288.8000488281</ele>
        <time>2020-05-31T08:12:54.000Z</time>
      </trkpt>
      <trkpt lat="47.90452" lon="7.10654">
        <ele>1288</ele>
        <time>2020-05-31T08:12:55.000Z</time>
      </trkpt>
      <trkpt lat="47.90448" lon="7.10654">
        <ele>1287.1999511719</ele>
        <time>2020-05-31T08:12:56.000Z</time>
      </trkpt>
      <trkpt lat="47.90443" lon="7.10655">
        <ele>1286.4000244141</ele>
        <time>2020-05-31T08:12:57.000Z</time>
      </trkpt>
      <trkpt lat="47.90439" lon="7.10654">
        <ele>1285.5999755859</ele>
        <time>2020-05-31T08:12:58.000Z</time>
      </trkpt>
      <trkpt lat="47.90434" lon="7.10654">
        <ele>1285</ele>
        <time>2020-05-31T08:12:59.000Z</time>
      </trkpt>
      <trkpt lat="47.90429" lon="7.10653">
        <ele>1284.1999511719</ele>
        <time>2020-05-31T08:13:00.000Z</time>
      </trkpt>
      <trkpt lat="47.90424" lon="7.10653">
        <ele>1283.1999511719</ele>
        <time>2020-05-31T08:13:01.000Z</time>
      </trkpt>
      <trkpt lat="47.90418" lon="7.10652">
        <ele>1282.4000244141</ele>
        <time>2020-05-31T08:13:02.000Z</time>
      </trkpt>
      <trkpt lat="47.90413" lon="7.10651">
        <ele>1281.5999755859</ele>
        <time>2020-05-31T08:13:03.000Z</time>
      </trkpt>
      <trkpt lat="47.90408" lon="7.10649">
        <ele>1280.5999755859</ele>
        <time>2020-05-31T08:13:04.000Z</time>
      </trkpt>
      <trkpt lat="47.90403" lon="7.10647">
        <ele>1279.5999755859</ele>
        <time>2020-05-31T08:13:05.000Z</time>
      </trkpt>
      <trkpt lat="47.90397" lon="7.10645">
        <ele>1278.8000488281</ele>
        <time>2020-05-31T08:13:06.000Z</time>
      </trkpt>
      <trkpt lat="47.90392" lon="7.10644">
        <ele>1277.8000488281</ele>
        <time>2020-05-31T08:13:07.000Z</time>
      </trkpt>
      <trkpt lat="47.90388" lon="7.10644">
        <ele>1277</ele>
        <time>2020-05-31T08:13:08.000Z</time>
      </trkpt>
      <trkpt lat="47.90382" lon="7.10642">
        <ele>1276.1999511719</ele>
        <time>2020-05-31T08:13:09.000Z</time>
      </trkpt>
      <trkpt lat="47.90375" lon="7.10639">
        <ele>1275.1999511719</ele>
        <time>2020-05-31T08:13:10.000Z</time>
      </trkpt>
      <trkpt lat="47.90369" lon="7.10638">
        <ele>1274.1999511719</ele>
        <time>2020-05-31T08:13:11.000Z</time>
      </trkpt>
      <trkpt lat="47.90365" lon="7.10638">
        <ele>1273.1999511719</ele>
        <time>2020-05-31T08:13:12.000Z</time>
      </trkpt>
      <trkpt lat="47.90363" lon="7.10638">
        <ele>1272</ele>
        <time>2020-05-31T08:13:13.000Z</time>
      </trkpt>
      <trkpt lat="47.90361" lon="7.10638">
        <ele>1270</ele>
        <time>2020-05-31T08:13:14.000Z</time>
      </trkpt>
      <trkpt lat="47.9036" lon="7.10638">
        <ele>1268.8000488281</ele>
        <time>2020-05-31T08:13:15.000Z</time>
      </trkpt>
      <trkpt lat="47.90359" lon="7.10639">
        <ele>1268.8000488281</ele>
        <time>2020-05-31T08:13:16.000Z</time>
      </trkpt>
      <trkpt lat="47.90353" lon="7.10646">
        <ele>1267.5999755859</ele>
        <time>2020-05-31T08:13:20.000Z</time>
      </trkpt>
      <trkpt lat="47.9035" lon="7.10648">
        <ele>1267.1999511719</ele>
        <time>2020-05-31T08:13:21.000Z</time>
      </trkpt>
      <trkpt lat="47.90346" lon="7.10649">
        <ele>1266.5999755859</ele>
        <time>2020-05-31T08:13:22.000Z</time>
      </trkpt>
      <trkpt lat="47.90342" lon="7.10651">
        <ele>1266</ele>
        <time>2020-05-31T08:13:23.000Z</time>
      </trkpt>
      <trkpt lat="47.90338" lon="7.10654">
        <ele>1265.4000244141</ele>
        <time>2020-05-31T08:13:24.000Z</time>
      </trkpt>
      <trkpt lat="47.90334" lon="7.10656">
        <ele>1264.5999755859</ele>
        <time>2020-05-31T08:13:25.000Z</time>
      </trkpt>
      <trkpt lat="47.90332" lon="7.10657">
        <ele>1263.8000488281</ele>
        <time>2020-05-31T08:13:26.000Z</time>
      </trkpt>
      <trkpt lat="47.90329" lon="7.10657">
        <ele>1263</ele>
        <time>2020-05-31T08:13:27.000Z</time>
      </trkpt>
      <trkpt lat="47.90326" lon="7.10659">
        <ele>1262.1999511719</ele>
        <time>2020-05-31T08:13:28.000Z</time>
      </trkpt>
      <trkpt lat="47.90321" lon="7.1066">
        <ele>1261.4000244141</ele>
        <time>2020-05-31T08:13:29.000Z</time>
      </trkpt>
      <trkpt lat="47.90315" lon="7.10662">
        <ele>1260.8000488281</ele>
        <time>2020-05-31T08:13:30.000Z</time>
      </trkpt>
      <trkpt lat="47.90311" lon="7.10663">
        <ele>1260.4000244141</ele>
        <time>2020-05-31T08:13:31.000Z</time>
      </trkpt>
      <trkpt lat="47.90306" lon="7.10663">
        <ele>1259.8000488281</ele>
        <time>2020-05-31T08:13:32.000Z</time>
      </trkpt>
      <trkpt lat="47.90302" lon="7.10664">
        <ele>1259</ele>
        <time>2020-05-31T08:13:33.000Z</time>
      </trkpt>
      <trkpt lat="47.90299" lon="7.10664">
        <ele>1258.4000244141</ele>
        <time>2020-05-31T08:13:34.000Z</time>
      </trkpt>
      <trkpt lat="47.90296" lon="7.10665">
        <ele>1257.5999755859</ele>
        <time>2020-05-31T08:13:35.000Z</time>
      </trkpt>
      <trkpt lat="47.90293" lon="7.10666">
        <ele>1257</ele>
        <time>2020-05-31T08:13:36.000Z</time>
      </trkpt>
      <trkpt lat="47.9029" lon="7.10667">
        <ele>1256.1999511719</ele>
        <time>2020-05-31T08:13:37.000Z</time>
      </trkpt>
      <trkpt lat="47.90288" lon="7.10668">
        <ele>1256.1999511719</ele>
        <time>2020-05-31T08:13:38.000Z</time>
      </trkpt>
      <trkpt lat="47.90283" lon="7.1067">
        <ele>1255.4000244141</ele>
        <time>2020-05-31T08:13:40.000Z</time>
      </trkpt>
      <trkpt lat="47.90279" lon="7.10672">
        <ele>1254.8000488281</ele>
        <time>2020-05-31T08:13:41.000Z</time>
      </trkpt>
      <trkpt lat="47.90276" lon="7.10675">
        <ele>1254.4000244141</ele>
        <time>2020-05-31T08:13:42.000Z</time>
      </trkpt>
      <trkpt lat="47.90273" lon="7.10677">
        <ele>1253.8000488281</ele>
        <time>2020-05-31T08:13:43.000Z</time>
      </trkpt>
      <trkpt lat="47.9027" lon="7.10677">
        <ele>1253.1999511719</ele>
        <time>2020-05-31T08:13:44.000Z</time>
      </trkpt>
      <trkpt lat="47.90268" lon="7.10679">
        <ele>1252.5999755859</ele>
        <time>2020-05-31T08:13:45.000Z</time>
      </trkpt>
      <trkpt lat="47.90266" lon="7.10679">
        <ele>1252</ele>
        <time>2020-05-31T08:13:46.000Z</time>
      </trkpt>
      <trkpt lat="47.90265" lon="7.10679">
        <ele>1251.4000244141</ele>
        <time>2020-05-31T08:13:47.000Z</time>
      </trkpt>
      <trkpt lat="47.90265" lon="7.1068">
        <ele>1251.4000244141</ele>
        <time>2020-05-31T08:13:48.000Z</time>
      </trkpt>
      <trkpt lat="47.90264" lon="7.10681">
        <ele>1251</ele>
        <time>2020-05-31T08:13:49.000Z</time>
      </trkpt>
      <trkpt lat="47.90262" lon="7.10685">
        <ele>1249.4000244141</ele>
        <time>2020-05-31T08:13:59.000Z</time>
      </trkpt>
      <trkpt lat="47.90263" lon="7.10689">
        <ele>1249.4000244141</ele>
        <time>2020-05-31T08:14:00.000Z</time>
      </trkpt>
      <trkpt lat="47.90264" lon="7.10702">
        <ele>1249</ele>
        <time>2020-05-31T08:14:02.000Z</time>
      </trkpt>
      <trkpt lat="47.90264" lon="7.10709">
        <ele>1248.4000244141</ele>
        <time>2020-05-31T08:14:03.000Z</time>
      </trkpt>
      <trkpt lat="47.90264" lon="7.10715">
        <ele>1247</ele>
        <time>2020-05-31T08:14:04.000Z</time>
      </trkpt>
      <trkpt lat="47.90264" lon="7.10722">
        <ele>1246.4000244141</ele>
        <time>2020-05-31T08:14:05.000Z</time>
      </trkpt>
      <trkpt lat="47.90264" lon="7.1073">
        <ele>1245.5999755859</ele>
        <time>2020-05-31T08:14:06.000Z</time>
      </trkpt>
      <trkpt lat="47.90264" lon="7.10736">
        <ele>1244.8000488281</ele>
        <time>2020-05-31T08:14:07.000Z</time>
      </trkpt>
      <trkpt lat="47.90266" lon="7.10739">
        <ele>1243.8000488281</ele>
        <time>2020-05-31T08:14:08.000Z</time>
      </trkpt>
      <trkpt lat="47.90268" lon="7.10743">
        <ele>1243</ele>
        <time>2020-05-31T08:14:09.000Z</time>
      </trkpt>
      <trkpt lat="47.90269" lon="7.10747">
        <ele>1242.1999511719</ele>
        <time>2020-05-31T08:14:10.000Z</time>
      </trkpt>
      <trkpt lat="47.9027" lon="7.10758">
        <ele>1241.5999755859</ele>
        <time>2020-05-31T08:14:12.000Z</time>
      </trkpt>
      <trkpt lat="47.90272" lon="7.10765">
        <ele>1241.1999511719</ele>
        <time>2020-05-31T08:14:13.000Z</time>
      </trkpt>
      <trkpt lat="47.90273" lon="7.10772">
        <ele>1240.4000244141</ele>
        <time>2020-05-31T08:14:14.000Z</time>
      </trkpt>
      <trkpt lat="47.90275" lon="7.10779">
        <ele>1239.5999755859</ele>
        <time>2020-05-31T08:14:15.000Z</time>
      </trkpt>
      <trkpt lat="47.90276" lon="7.10783">
        <ele>1238.8000488281</ele>
        <time>2020-05-31T08:14:16.000Z</time>
      </trkpt>
      <trkpt lat="47.90276" lon="7.10787">
        <ele>1238</ele>
        <time>2020-05-31T08:14:17.000Z</time>
      </trkpt>
      <trkpt lat="47.90277" lon="7.10791">
        <ele>1237.4000244141</ele>
        <time>2020-05-31T08:14:18.000Z</time>
      </trkpt>
      <trkpt lat="47.90278" lon="7.10794">
        <ele>1236.5999755859</ele>
        <time>2020-05-31T08:14:19.000Z</time>
      </trkpt>
      <trkpt lat="47.90279" lon="7.10797">
        <ele>1235.8000488281</ele>
        <time>2020-05-31T08:14:20.000Z</time>
      </trkpt>
      <trkpt lat="47.9028" lon="7.10802">
        <ele>1235.1999511719</ele>
        <time>2020-05-31T08:14:21.000Z</time>
      </trkpt>
      <trkpt lat="47.90281" lon="7.10806">
        <ele>1234.5999755859</ele>
        <time>2020-05-31T08:14:22.000Z</time>
      </trkpt>
      <trkpt lat="47.90284" lon="7.10812">
        <ele>1234</ele>
        <time>2020-05-31T08:14:23.000Z</time>
      </trkpt>
      <trkpt lat="47.90287" lon="7.10816">
        <ele>1233.4000244141</ele>
        <time>2020-05-31T08:14:24.000Z</time>
      </trkpt>
      <trkpt lat="47.9029" lon="7.1082">
        <ele>1232.5999755859</ele>
        <time>2020-05-31T08:14:25.000Z</time>
      </trkpt>
      <trkpt lat="47.90293" lon="7.10825">
        <ele>1231.8000488281</ele>
        <time>2020-05-31T08:14:26.000Z</time>
      </trkpt>
      <trkpt lat="47.90295" lon="7.10833">
        <ele>1231</ele>
        <time>2020-05-31T08:14:27.000Z</time>
      </trkpt>
      <trkpt lat="47.90297" lon="7.10838">
        <ele>1230</ele>
        <time>2020-05-31T08:14:28.000Z</time>
      </trkpt>
      <trkpt lat="47.90299" lon="7.10845">
        <ele>1228.4000244141</ele>
        <time>2020-05-31T08:14:29.000Z</time>
      </trkpt>
      <trkpt lat="47.90302" lon="7.1085">
        <ele>1227.4000244141</ele>
        <time>2020-05-31T08:14:30.000Z</time>
      </trkpt>
      <trkpt lat="47.90306" lon="7.10855">
        <ele>1226.5999755859</ele>
        <time>2020-05-31T08:14:31.000Z</time>
      </trkpt>
      <trkpt lat="47.90309" lon="7.10861">
        <ele>1225.5999755859</ele>
        <time>2020-05-31T08:14:32.000Z</time>
      </trkpt>
      <trkpt lat="47.90312" lon="7.10865">
        <ele>1224.5999755859</ele>
        <time>2020-05-31T08:14:33.000Z</time>
      </trkpt>
      <trkpt lat="47.90314" lon="7.10871">
        <ele>1223.8000488281</ele>
        <time>2020-05-31T08:14:34.000Z</time>
      </trkpt>
      <trkpt lat="47.90315" lon="7.10877">
        <ele>1222.8000488281</ele>
        <time>2020-05-31T08:14:35.000Z</time>
      </trkpt>
      <trkpt lat="47.90317" lon="7.10882">
        <ele>1221.8000488281</ele>
        <time>2020-05-31T08:14:36.000Z</time>
      </trkpt>
      <trkpt lat="47.90318" lon="7.10886">
        <ele>1221.8000488281</ele>
        <time>2020-05-31T08:14:37.000Z</time>
      </trkpt>
      <trkpt lat="47.90319" lon="7.10891">
        <ele>1221.4000244141</ele>
        <time>2020-05-31T08:14:38.000Z</time>
      </trkpt>
      <trkpt lat="47.90321" lon="7.10896">
        <ele>1220.8000488281</ele>
        <time>2020-05-31T08:14:39.000Z</time>
      </trkpt>
      <trkpt lat="47.90323" lon="7.10901">
        <ele>1220.1999511719</ele>
        <time>2020-05-31T08:14:40.000Z</time>
      </trkpt>
      <trkpt lat="47.90325" lon="7.10907">
        <ele>1219.4000244141</ele>
        <time>2020-05-31T08:14:41.000Z</time>
      </trkpt>
      <trkpt lat="47.90326" lon="7.10914">
        <ele>1218.5999755859</ele>
        <time>2020-05-31T08:14:42.000Z</time>
      </trkpt>
      <trkpt lat="47.90329" lon="7.1092">
        <ele>1217.5999755859</ele>
        <time>2020-05-31T08:14:43.000Z</time>
      </trkpt>
      <trkpt lat="47.90332" lon="7.10927">
        <ele>1216.5999755859</ele>
        <time>2020-05-31T08:14:44.000Z</time>
      </trkpt>
      <trkpt lat="47.90335" lon="7.10935">
        <ele>1215.4000244141</ele>
        <time>2020-05-31T08:14:45.000Z</time>
      </trkpt>
      <trkpt lat="47.9034" lon="7.10942">
        <ele>1214.5999755859</ele>
        <time>2020-05-31T08:14:46.000Z</time>
      </trkpt>
      <trkpt lat="47.90344" lon="7.10949">
        <ele>1213.5999755859</ele>
        <time>2020-05-31T08:14:47.000Z</time>
      </trkpt>
      <trkpt lat="47.90348" lon="7.10957">
        <ele>1212.5999755859</ele>
        <time>2020-05-31T08:14:48.000Z</time>
      </trkpt>
      <trkpt lat="47.90351" lon="7.10962">
        <ele>1211.8000488281</ele>
        <time>2020-05-31T08:14:49.000Z</time>
      </trkpt>
      <trkpt lat="47.90355" lon="7.10968">
        <ele>1211</ele>
        <time>2020-05-31T08:14:50.000Z</time>
      </trkpt>
      <trkpt lat="47.90358" lon="7.10973">
        <ele>1210.1999511719</ele>
        <time>2020-05-31T08:14:51.000Z</time>
      </trkpt>
      <trkpt lat="47.90361" lon="7.1098">
        <ele>1209.4000244141</ele>
        <time>2020-05-31T08:14:52.000Z</time>
      </trkpt>
      <trkpt lat="47.90366" lon="7.10986">
        <ele>1208.4000244141</ele>
        <time>2020-05-31T08:14:53.000Z</time>
      </trkpt>
      <trkpt lat="47.9037" lon="7.10992">
        <ele>1206.5999755859</ele>
        <time>2020-05-31T08:14:54.000Z</time>
      </trkpt>
      <trkpt lat="47.90372" lon="7.10998">
        <ele>1205.5999755859</ele>
        <time>2020-05-31T08:14:55.000Z</time>
      </trkpt>
      <trkpt lat="47.90376" lon="7.11005">
        <ele>1204.5999755859</ele>
        <time>2020-05-31T08:14:56.000Z</time>
      </trkpt>
      <trkpt lat="47.9038" lon="7.11012">
        <ele>1203.4000244141</ele>
        <time>2020-05-31T08:14:57.000Z</time>
      </trkpt>
      <trkpt lat="47.90383" lon="7.11019">
        <ele>1202.4000244141</ele>
        <time>2020-05-31T08:14:58.000Z</time>
      </trkpt>
      <trkpt lat="47.90386" lon="7.11024">
        <ele>1201.4000244141</ele>
        <time>2020-05-31T08:14:59.000Z</time>
      </trkpt>
      <trkpt lat="47.90389" lon="7.11031">
        <ele>1200.4000244141</ele>
        <time>2020-05-31T08:15:00.000Z</time>
      </trkpt>
      <trkpt lat="47.90393" lon="7.11039">
        <ele>1199.1999511719</ele>
        <time>2020-05-31T08:15:01.000Z</time>
      </trkpt>
      <trkpt lat="47.90397" lon="7.11048">
        <ele>1198</ele>
        <time>2020-05-31T08:15:02.000Z</time>
      </trkpt>
      <trkpt lat="47.90401" lon="7.11057">
        <ele>1196.8000488281</ele>
        <time>2020-05-31T08:15:03.000Z</time>
      </trkpt>
      <trkpt lat="47.90406" lon="7.11065">
        <ele>1195.5999755859</ele>
        <time>2020-05-31T08:15:04.000Z</time>
      </trkpt>
      <trkpt lat="47.90411" lon="7.11073">
        <ele>1194.4000244141</ele>
        <time>2020-05-31T08:15:05.000Z</time>
      </trkpt>
      <trkpt lat="47.90415" lon="7.11082">
        <ele>1193.4000244141</ele>
        <time>2020-05-31T08:15:06.000Z</time>
      </trkpt>
      <trkpt lat="47.90419" lon="7.11089">
        <ele>1192.4000244141</ele>
        <time>2020-05-31T08:15:07.000Z</time>
      </trkpt>
      <trkpt lat="47.90423" lon="7.11095">
        <ele>1191.4000244141</ele>
        <time>2020-05-31T08:15:08.000Z</time>
      </trkpt>
      <trkpt lat="47.90427" lon="7.11103">
        <ele>1190.5999755859</ele>
        <time>2020-05-31T08:15:09.000Z</time>
      </trkpt>
      <trkpt lat="47.90432" lon="7.11108">
        <ele>1189.5999755859</ele>
        <time>2020-05-31T08:15:10.000Z</time>
      </trkpt>
      <trkpt lat="47.90436" lon="7.11111">
        <ele>1188.8000488281</ele>
        <time>2020-05-31T08:15:11.000Z</time>
      </trkpt>
      <trkpt lat="47.90437" lon="7.11112">
        <ele>1187.8000488281</ele>
        <time>2020-05-31T08:15:12.000Z</time>
      </trkpt>
      <trkpt lat="47.90438" lon="7.11111">
        <ele>1187</ele>
        <time>2020-05-31T08:15:13.000Z</time>
      </trkpt>
      <trkpt lat="47.90439" lon="7.11112">
        <ele>1187</ele>
        <time>2020-05-31T08:15:14.000Z</time>
      </trkpt>
      <trkpt lat="47.9044" lon="7.11112">
        <ele>1187</ele>
        <time>2020-05-31T08:15:15.000Z</time>
      </trkpt>
      <trkpt lat="47.90444" lon="7.11121">
        <ele>1187</ele>
        <time>2020-05-31T08:17:21.000Z</time>
      </trkpt>
      <trkpt lat="47.90446" lon="7.11125">
        <ele>1187</ele>
        <time>2020-05-31T08:17:22.000Z</time>
      </trkpt>
      <trkpt lat="47.9045" lon="7.11139">
        <ele>1186.5999755859</ele>
        <time>2020-05-31T08:17:24.000Z</time>
      </trkpt>
      <trkpt lat="47.90453" lon="7.11148">
        <ele>1186</ele>
        <time>2020-05-31T08:17:25.000Z</time>
      </trkpt>
      <trkpt lat="47.90456" lon="7.11158">
        <ele>1185.1999511719</ele>
        <time>2020-05-31T08:17:26.000Z</time>
      </trkpt>
      <trkpt lat="47.90459" lon="7.11167">
        <ele>1184.4000244141</ele>
        <time>2020-05-31T08:17:27.000Z</time>
      </trkpt>
      <trkpt lat="47.90464" lon="7.11175">
        <ele>1183.1999511719</ele>
        <time>2020-05-31T08:17:28.000Z</time>
      </trkpt>
      <trkpt lat="47.90469" lon="7.11184">
        <ele>1182.1999511719</ele>
        <time>2020-05-31T08:17:29.000Z</time>
      </trkpt>
      <trkpt lat="47.90473" lon="7.11192">
        <ele>1180.8000488281</ele>
        <time>2020-05-31T08:17:30.000Z</time>
      </trkpt>
      <trkpt lat="47.90478" lon="7.11201">
        <ele>1179.4000244141</ele>
        <time>2020-05-31T08:17:31.000Z</time>
      </trkpt>
      <trkpt lat="47.90484" lon="7.11211">
        <ele>1178</ele>
        <time>2020-05-31T08:17:32.000Z</time>
      </trkpt>
      <trkpt lat="47.9049" lon="7.11222">
        <ele>1176.8000488281</ele>
        <time>2020-05-31T08:17:33.000Z</time>
      </trkpt>
      <trkpt lat="47.90495" lon="7.11233">
        <ele>1175.4000244141</ele>
        <time>2020-05-31T08:17:34.000Z</time>
      </trkpt>
      <trkpt lat="47.905" lon="7.11242">
        <ele>1173.8000488281</ele>
        <time>2020-05-31T08:17:35.000Z</time>
      </trkpt>
      <trkpt lat="47.90505" lon="7.1125">
        <ele>1172.4000244141</ele>
        <time>2020-05-31T08:17:36.000Z</time>
      </trkpt>
      <trkpt lat="47.90507" lon="7.11255">
        <ele>1171.4000244141</ele>
        <time>2020-05-31T08:17:37.000Z</time>
      </trkpt>
      <trkpt lat="47.90509" lon="7.11259">
        <ele>1170.4000244141</ele>
        <time>2020-05-31T08:17:38.000Z</time>
      </trkpt>
      <trkpt lat="47.90511" lon="7.11264">
        <ele>1169.1999511719</ele>
        <time>2020-05-31T08:17:39.000Z</time>
      </trkpt>
      <trkpt lat="47.90512" lon="7.11269">
        <ele>1168.1999511719</ele>
        <time>2020-05-31T08:17:40.000Z</time>
      </trkpt>
      <trkpt lat="47.90514" lon="7.11276">
        <ele>1167.1999511719</ele>
        <time>2020-05-31T08:17:41.000Z</time>
      </trkpt>
      <trkpt lat="47.90516" lon="7.11283">
        <ele>1166.5999755859</ele>
        <time>2020-05-31T08:17:42.000Z</time>
      </trkpt>
      <trkpt lat="47.90516" lon="7.11288">
        <ele>1166.1999511719</ele>
        <time>2020-05-31T08:17:43.000Z</time>
      </trkpt>
      <trkpt lat="47.90514" lon="7.11292">
        <ele>1165.5999755859</ele>
        <time>2020-05-31T08:17:44.000Z</time>
      </trkpt>
      <trkpt lat="47.90513" lon="7.11296">
        <ele>1164.5999755859</ele>
        <time>2020-05-31T08:17:45.000Z</time>
      </trkpt>
      <trkpt lat="47.90512" lon="7.11302">
        <ele>1164</ele>
        <time>2020-05-31T08:17:46.000Z</time>
      </trkpt>
      <trkpt lat="47.90512" lon="7.11307">
        <ele>1163.5999755859</ele>
        <time>2020-05-31T08:17:47.000Z</time>
      </trkpt>
      <trkpt lat="47.90515" lon="7.11311">
        <ele>1162.8000488281</ele>
        <time>2020-05-31T08:17:48.000Z</time>
      </trkpt>
      <trkpt lat="47.90517" lon="7.11318">
        <ele>1162.1999511719</ele>
        <time>2020-05-31T08:17:49.000Z</time>
      </trkpt>
      <trkpt lat="47.9052" lon="7.11327">
        <ele>1161.4000244141</ele>
        <time>2020-05-31T08:17:50.000Z</time>
      </trkpt>
      <trkpt lat="47.90521" lon="7.11335">
        <ele>1160.5999755859</ele>
        <time>2020-05-31T08:17:51.000Z</time>
      </trkpt>
      <trkpt lat="47.90522" lon="7.11341">
        <ele>1159.8000488281</ele>
        <time>2020-05-31T08:17:52.000Z</time>
      </trkpt>
      <trkpt lat="47.9052" lon="7.11347">
        <ele>1159</ele>
        <time>2020-05-31T08:17:53.000Z</time>
      </trkpt>
      <trkpt lat="47.90518" lon="7.11354">
        <ele>1158.1999511719</ele>
        <time>2020-05-31T08:17:54.000Z</time>
      </trkpt>
      <trkpt lat="47.90517" lon="7.1136">
        <ele>1157.5999755859</ele>
        <time>2020-05-31T08:17:55.000Z</time>
      </trkpt>
      <trkpt lat="47.90516" lon="7.11367">
        <ele>1157</ele>
        <time>2020-05-31T08:17:56.000Z</time>
      </trkpt>
      <trkpt lat="47.90515" lon="7.11372">
        <ele>1156.4000244141</ele>
        <time>2020-05-31T08:17:57.000Z</time>
      </trkpt>
      <trkpt lat="47.90514" lon="7.11379">
        <ele>1155.8000488281</ele>
        <time>2020-05-31T08:17:58.000Z</time>
      </trkpt>
      <trkpt lat="47.90513" lon="7.11384">
        <ele>1155</ele>
        <time>2020-05-31T08:17:59.000Z</time>
      </trkpt>
      <trkpt lat="47.90512" lon="7.11391">
        <ele>1154.5999755859</ele>
        <time>2020-05-31T08:18:01.000Z</time>
      </trkpt>
      <trkpt lat="47.9051" lon="7.11394">
        <ele>1154.1999511719</ele>
        <time>2020-05-31T08:18:02.000Z</time>
      </trkpt>
      <trkpt lat="47.90509" lon="7.114">
        <ele>1153.8000488281</ele>
        <time>2020-05-31T08:18:03.000Z</time>
      </trkpt>
      <trkpt lat="47.90508" lon="7.11404">
        <ele>1153.4000244141</ele>
        <time>2020-05-31T08:18:04.000Z</time>
      </trkpt>
      <trkpt lat="47.90507" lon="7.11409">
        <ele>1153</ele>
        <time>2020-05-31T08:18:05.000Z</time>
      </trkpt>
      <trkpt lat="47.90506" lon="7.11414">
        <ele>1152.4000244141</ele>
        <time>2020-05-31T08:18:06.000Z</time>
      </trkpt>
      <trkpt lat="47.90504" lon="7.11418">
        <ele>1151.8000488281</ele>
        <time>2020-05-31T08:18:07.000Z</time>
      </trkpt>
      <trkpt lat="47.90503" lon="7.11422">
        <ele>1151.1999511719</ele>
        <time>2020-05-31T08:18:08.000Z</time>
      </trkpt>
      <trkpt lat="47.90503" lon="7.11427">
        <ele>1150.5999755859</ele>
        <time>2020-05-31T08:18:09.000Z</time>
      </trkpt>
      <trkpt lat="47.90502" lon="7.11431">
        <ele>1149.4000244141</ele>
        <time>2020-05-31T08:18:10.000Z</time>
      </trkpt>
      <trkpt lat="47.90502" lon="7.11435">
        <ele>1148.8000488281</ele>
        <time>2020-05-31T08:18:11.000Z</time>
      </trkpt>
      <trkpt lat="47.90501" lon="7.11439">
        <ele>1148.1999511719</ele>
        <time>2020-05-31T08:18:12.000Z</time>
      </trkpt>
      <trkpt lat="47.90502" lon="7.11445">
        <ele>1147.5999755859</ele>
        <time>2020-05-31T08:18:13.000Z</time>
      </trkpt>
      <trkpt lat="47.90502" lon="7.1145">
        <ele>1147</ele>
        <time>2020-05-31T08:18:14.000Z</time>
      </trkpt>
      <trkpt lat="47.90501" lon="7.11455">
        <ele>1146.4000244141</ele>
        <time>2020-05-31T08:18:15.000Z</time>
      </trkpt>
      <trkpt lat="47.90501" lon="7.11462">
        <ele>1145.8000488281</ele>
        <time>2020-05-31T08:18:16.000Z</time>
      </trkpt>
      <trkpt lat="47.905" lon="7.11466">
        <ele>1145</ele>
        <time>2020-05-31T08:18:17.000Z</time>
      </trkpt>
      <trkpt lat="47.90499" lon="7.11472">
        <ele>1144.4000244141</ele>
        <time>2020-05-31T08:18:18.000Z</time>
      </trkpt>
      <trkpt lat="47.90498" lon="7.11478">
        <ele>1143.5999755859</ele>
        <time>2020-05-31T08:18:19.000Z</time>
      </trkpt>
      <trkpt lat="47.90497" lon="7.11482">
        <ele>1142.8000488281</ele>
        <time>2020-05-31T08:18:20.000Z</time>
      </trkpt>
      <trkpt lat="47.90497" lon="7.11487">
        <ele>1142</ele>
        <time>2020-05-31T08:18:21.000Z</time>
      </trkpt>
      <trkpt lat="47.90496" lon="7.11492">
        <ele>1141.1999511719</ele>
        <time>2020-05-31T08:18:22.000Z</time>
      </trkpt>
      <trkpt lat="47.90494" lon="7.11497">
        <ele>1140.4000244141</ele>
        <time>2020-05-31T08:18:23.000Z</time>
      </trkpt>
      <trkpt lat="47.90493" lon="7.11504">
        <ele>1139.5999755859</ele>
        <time>2020-05-31T08:18:24.000Z</time>
      </trkpt>
      <trkpt lat="47.90492" lon="7.1151">
        <ele>1138.8000488281</ele>
        <time>2020-05-31T08:18:25.000Z</time>
      </trkpt>
      <trkpt lat="47.90491" lon="7.11515">
        <ele>1138</ele>
        <time>2020-05-31T08:18:26.000Z</time>
      </trkpt>
      <trkpt lat="47.9049" lon="7.1152">
        <ele>1137.1999511719</ele>
        <time>2020-05-31T08:18:27.000Z</time>
      </trkpt>
      <trkpt lat="47.90489" lon="7.11526">
        <ele>1136.4000244141</ele>
        <time>2020-05-31T08:18:28.000Z</time>
      </trkpt>
      <trkpt lat="47.90489" lon="7.11531">
        <ele>1135.5999755859</ele>
        <time>2020-05-31T08:18:29.000Z</time>
      </trkpt>
      <trkpt lat="47.90488" lon="7.11539">
        <ele>1134.8000488281</ele>
        <time>2020-05-31T08:18:30.000Z</time>
      </trkpt>
      <trkpt lat="47.90487" lon="7.11547">
        <ele>1134</ele>
        <time>2020-05-31T08:18:31.000Z</time>
      </trkpt>
      <trkpt lat="47.90487" lon="7.11556">
        <ele>1133.4000244141</ele>
        <time>2020-05-31T08:18:32.000Z</time>
      </trkpt>
      <trkpt lat="47.90486" lon="7.11563">
        <ele>1132.5999755859</ele>
        <time>2020-05-31T08:18:33.000Z</time>
      </trkpt>
      <trkpt lat="47.90486" lon="7.1157">
        <ele>1131.8000488281</ele>
        <time>2020-05-31T08:18:34.000Z</time>
      </trkpt>
      <trkpt lat="47.90485" lon="7.11576">
        <ele>1130.4000244141</ele>
        <time>2020-05-31T08:18:35.000Z</time>
      </trkpt>
      <trkpt lat="47.90484" lon="7.11583">
        <ele>1129.5999755859</ele>
        <time>2020-05-31T08:18:36.000Z</time>
      </trkpt>
      <trkpt lat="47.90483" lon="7.1159">
        <ele>1128.8000488281</ele>
        <time>2020-05-31T08:18:37.000Z</time>
      </trkpt>
      <trkpt lat="47.90484" lon="7.11593">
        <ele>1128.1999511719</ele>
        <time>2020-05-31T08:18:38.000Z</time>
      </trkpt>
      <trkpt lat="47.90484" lon="7.11595">
        <ele>1127.4000244141</ele>
        <time>2020-05-31T08:18:39.000Z</time>
      </trkpt>
      <trkpt lat="47.90485" lon="7.11596">
        <ele>1126.8000488281</ele>
        <time>2020-05-31T08:18:40.000Z</time>
      </trkpt>
      <trkpt lat="47.90482" lon="7.116">
        <ele>1126.8000488281</ele>
        <time>2020-05-31T08:19:57.000Z</time>
      </trkpt>
      <trkpt lat="47.90475" lon="7.11592">
        <ele>1126.1999511719</ele>
        <time>2020-05-31T08:20:01.000Z</time>
      </trkpt>
      <trkpt lat="47.90473" lon="7.11591">
        <ele>1125.8000488281</ele>
        <time>2020-05-31T08:20:02.000Z</time>
      </trkpt>
      <trkpt lat="47.90471" lon="7.1159">
        <ele>1125.4000244141</ele>
        <time>2020-05-31T08:20:03.000Z</time>
      </trkpt>
      <trkpt lat="47.90468" lon="7.11589">
        <ele>1125</ele>
        <time>2020-05-31T08:20:04.000Z</time>
      </trkpt>
      <trkpt lat="47.90465" lon="7.11587">
        <ele>1124.5999755859</ele>
        <time>2020-05-31T08:20:05.000Z</time>
      </trkpt>
      <trkpt lat="47.90463" lon="7.11586">
        <ele>1124.1999511719</ele>
        <time>2020-05-31T08:20:06.000Z</time>
      </trkpt>
      <trkpt lat="47.90459" lon="7.11587">
        <ele>1123.5999755859</ele>
        <time>2020-05-31T08:20:07.000Z</time>
      </trkpt>
      <trkpt lat="47.90457" lon="7.11588">
        <ele>1123</ele>
        <time>2020-05-31T08:20:08.000Z</time>
      </trkpt>
      <trkpt lat="47.90455" lon="7.11588">
        <ele>1122.5999755859</ele>
        <time>2020-05-31T08:20:09.000Z</time>
      </trkpt>
      <trkpt lat="47.90454" lon="7.11587">
        <ele>1122</ele>
        <time>2020-05-31T08:20:10.000Z</time>
      </trkpt>
      <trkpt lat="47.90454" lon="7.11583">
        <ele>1121.4000244141</ele>
        <time>2020-05-31T08:20:11.000Z</time>
      </trkpt>
      <trkpt lat="47.90455" lon="7.11581">
        <ele>1121</ele>
        <time>2020-05-31T08:20:12.000Z</time>
      </trkpt>
      <trkpt lat="47.90455" lon="7.11578">
        <ele>1120.4000244141</ele>
        <time>2020-05-31T08:20:13.000Z</time>
      </trkpt>
      <trkpt lat="47.90455" lon="7.11575">
        <ele>1119.8000488281</ele>
        <time>2020-05-31T08:20:14.000Z</time>
      </trkpt>
      <trkpt lat="47.90454" lon="7.11569">
        <ele>1119.8000488281</ele>
        <time>2020-05-31T08:20:16.000Z</time>
      </trkpt>
      <trkpt lat="47.90453" lon="7.11562">
        <ele>1119.8000488281</ele>
        <time>2020-05-31T08:20:19.000Z</time>
      </trkpt>
      <trkpt lat="47.90453" lon="7.11559">
        <ele>1119.8000488281</ele>
        <time>2020-05-31T08:20:20.000Z</time>
      </trkpt>
      <trkpt lat="47.90452" lon="7.11544">
        <ele>1119.8000488281</ele>
        <time>2020-05-31T08:20:25.000Z</time>
      </trkpt>
      <trkpt lat="47.90449" lon="7.11522">
        <ele>1120.1999511719</ele>
        <time>2020-05-31T08:20:32.000Z</time>
      </trkpt>
      <trkpt lat="47.90449" lon="7.11518">
        <ele>1120.8000488281</ele>
        <time>2020-05-31T08:20:33.000Z</time>
      </trkpt>
      <trkpt lat="47.90448" lon="7.11515">
        <ele>1121.1999511719</ele>
        <time>2020-05-31T08:20:34.000Z</time>
      </trkpt>
      <trkpt lat="47.90448" lon="7.11511">
        <ele>1121.5999755859</ele>
        <time>2020-05-31T08:20:35.000Z</time>
      </trkpt>
      <trkpt lat="47.90448" lon="7.11507">
        <ele>1122</ele>
        <time>2020-05-31T08:20:36.000Z</time>
      </trkpt>
      <trkpt lat="47.90447" lon="7.11493">
        <ele>1122</ele>
        <time>2020-05-31T08:20:40.000Z</time>
      </trkpt>
      <trkpt lat="47.90447" lon="7.1149">
        <ele>1122.4000244141</ele>
        <time>2020-05-31T08:20:41.000Z</time>
      </trkpt>
      <trkpt lat="47.90447" lon="7.11487">
        <ele>1122.8000488281</ele>
        <time>2020-05-31T08:20:42.000Z</time>
      </trkpt>
      <trkpt lat="47.90446" lon="7.11484">
        <ele>1123.1999511719</ele>
        <time>2020-05-31T08:20:43.000Z</time>
      </trkpt>
      <trkpt lat="47.90445" lon="7.11481">
        <ele>1123.5999755859</ele>
        <time>2020-05-31T08:20:44.000Z</time>
      </trkpt>
      <trkpt lat="47.90444" lon="7.11478">
        <ele>1124</ele>
        <time>2020-05-31T08:20:45.000Z</time>
      </trkpt>
      <trkpt lat="47.90443" lon="7.11476">
        <ele>1124</ele>
        <time>2020-05-31T08:20:46.000Z</time>
      </trkpt>
      <trkpt lat="47.90443" lon="7.11451">
        <ele>1124</ele>
        <time>2020-05-31T08:20:52.000Z</time>
      </trkpt>
      <trkpt lat="47.90443" lon="7.11447">
        <ele>1124.4000244141</ele>
        <time>2020-05-31T08:20:53.000Z</time>
      </trkpt>
      <trkpt lat="47.90443" lon="7.11444">
        <ele>1124.8000488281</ele>
        <time>2020-05-31T08:20:54.000Z</time>
      </trkpt>
      <trkpt lat="47.90443" lon="7.11441">
        <ele>1125.1999511719</ele>
        <time>2020-05-31T08:20:55.000Z</time>
      </trkpt>
      <trkpt lat="47.90443" lon="7.11438">
        <ele>1125.5999755859</ele>
        <time>2020-05-31T08:20:56.000Z</time>
      </trkpt>
      <trkpt lat="47.90443" lon="7.11435">
        <ele>1126.1999511719</ele>
        <time>2020-05-31T08:20:57.000Z</time>
      </trkpt>
      <trkpt lat="47.90443" lon="7.11431">
        <ele>1126.1999511719</ele>
        <time>2020-05-31T08:20:58.000Z</time>
      </trkpt>
      <trkpt lat="47.90444" lon="7.1142">
        <ele>1126.5999755859</ele>
        <time>2020-05-31T08:21:02.000Z</time>
      </trkpt>
      <trkpt lat="47.90443" lon="7.11416">
        <ele>1127</ele>
        <time>2020-05-31T08:21:03.000Z</time>
      </trkpt>
      <trkpt lat="47.90443" lon="7.11413">
        <ele>1127.8000488281</ele>
        <time>2020-05-31T08:21:04.000Z</time>
      </trkpt>
      <trkpt lat="47.90442" lon="7.1141">
        <ele>1128.1999511719</ele>
        <time>2020-05-31T08:21:05.000Z</time>
      </trkpt>
      <trkpt lat="47.90433" lon="7.11394">
        <ele>1128.1999511719</ele>
        <time>2020-05-31T08:21:10.000Z</time>
      </trkpt>
      <trkpt lat="47.90413" lon="7.11383">
        <ele>1128.1999511719</ele>
        <time>2020-05-31T08:21:15.000Z</time>
      </trkpt>
      <trkpt lat="47.90408" lon="7.11383">
        <ele>1128.1999511719</ele>
        <time>2020-05-31T08:21:16.000Z</time>
      </trkpt>
      <trkpt lat="47.90396" lon="7.11382">
        <ele>1127.8000488281</ele>
        <time>2020-05-31T08:21:18.000Z</time>
      </trkpt>
      <trkpt lat="47.90391" lon="7.11381">
        <ele>1127.4000244141</ele>
        <time>2020-05-31T08:21:19.000Z</time>
      </trkpt>
      <trkpt lat="47.90386" lon="7.11377">
        <ele>1127</ele>
        <time>2020-05-31T08:21:20.000Z</time>
      </trkpt>
      <trkpt lat="47.90381" lon="7.11375">
        <ele>1126.1999511719</ele>
        <time>2020-05-31T08:21:21.000Z</time>
      </trkpt>
      <trkpt lat="47.90374" lon="7.11373">
        <ele>1125.5999755859</ele>
        <time>2020-05-31T08:21:22.000Z</time>
      </trkpt>
      <trkpt lat="47.90368" lon="7.11371">
        <ele>1124.8000488281</ele>
        <time>2020-05-31T08:21:23.000Z</time>
      </trkpt>
      <trkpt lat="47.90361" lon="7.11368">
        <ele>1124</ele>
        <time>2020-05-31T08:21:24.000Z</time>
      </trkpt>
      <trkpt lat="47.90353" lon="7.11363">
        <ele>1123.1999511719</ele>
        <time>2020-05-31T08:21:25.000Z</time>
      </trkpt>
      <trkpt lat="47.90346" lon="7.1136">
        <ele>1122.1999511719</ele>
        <time>2020-05-31T08:21:26.000Z</time>
      </trkpt>
      <trkpt lat="47.90339" lon="7.11356">
        <ele>1121.5999755859</ele>
        <time>2020-05-31T08:21:27.000Z</time>
      </trkpt>
      <trkpt lat="47.90331" lon="7.11355">
        <ele>1120.8000488281</ele>
        <time>2020-05-31T08:21:28.000Z</time>
      </trkpt>
      <trkpt lat="47.90323" lon="7.11353">
        <ele>1120.1999511719</ele>
        <time>2020-05-31T08:21:29.000Z</time>
      </trkpt>
      <trkpt lat="47.90316" lon="7.11353">
        <ele>1118.8000488281</ele>
        <time>2020-05-31T08:21:30.000Z</time>
      </trkpt>
      <trkpt lat="47.90307" lon="7.11352">
        <ele>1118.4000244141</ele>
        <time>2020-05-31T08:21:31.000Z</time>
      </trkpt>
      <trkpt lat="47.90299" lon="7.11353">
        <ele>1117.8000488281</ele>
        <time>2020-05-31T08:21:32.000Z</time>
      </trkpt>
      <trkpt lat="47.90292" lon="7.11352">
        <ele>1117.1999511719</ele>
        <time>2020-05-31T08:21:33.000Z</time>
      </trkpt>
      <trkpt lat="47.90284" lon="7.11351">
        <ele>1116.5999755859</ele>
        <time>2020-05-31T08:21:34.000Z</time>
      </trkpt>
      <trkpt lat="47.90276" lon="7.1135">
        <ele>1116</ele>
        <time>2020-05-31T08:21:35.000Z</time>
      </trkpt>
      <trkpt lat="47.90267" lon="7.11348">
        <ele>1115.5999755859</ele>
        <time>2020-05-31T08:21:36.000Z</time>
      </trkpt>
      <trkpt lat="47.90259" lon="7.11345">
        <ele>1115.1999511719</ele>
        <time>2020-05-31T08:21:37.000Z</time>
      </trkpt>
      <trkpt lat="47.9025" lon="7.11344">
        <ele>1114.4000244141</ele>
        <time>2020-05-31T08:21:38.000Z</time>
      </trkpt>
      <trkpt lat="47.90241" lon="7.11342">
        <ele>1113.8000488281</ele>
        <time>2020-05-31T08:21:39.000Z</time>
      </trkpt>
      <trkpt lat="47.90232" lon="7.1134">
        <ele>1113.1999511719</ele>
        <time>2020-05-31T08:21:40.000Z</time>
      </trkpt>
      <trkpt lat="47.90224" lon="7.11339">
        <ele>1112.4000244141</ele>
        <time>2020-05-31T08:21:41.000Z</time>
      </trkpt>
      <trkpt lat="47.90216" lon="7.11338">
        <ele>1111.8000488281</ele>
        <time>2020-05-31T08:21:42.000Z</time>
      </trkpt>
      <trkpt lat="47.90209" lon="7.11335">
        <ele>1111.8000488281</ele>
        <time>2020-05-31T08:21:43.000Z</time>
      </trkpt>
      <trkpt lat="47.90171" lon="7.11325">
        <ele>1111.4000244141</ele>
        <time>2020-05-31T08:21:48.000Z</time>
      </trkpt>
      <trkpt lat="47.90164" lon="7.11323">
        <ele>1111</ele>
        <time>2020-05-31T08:21:49.000Z</time>
      </trkpt>
      <trkpt lat="47.90158" lon="7.11321">
        <ele>1110.4000244141</ele>
        <time>2020-05-31T08:21:50.000Z</time>
      </trkpt>
      <trkpt lat="47.90152" lon="7.1132">
        <ele>1110</ele>
        <time>2020-05-31T08:21:51.000Z</time>
      </trkpt>
      <trkpt lat="47.90145" lon="7.11319">
        <ele>1109.5999755859</ele>
        <time>2020-05-31T08:21:52.000Z</time>
      </trkpt>
      <trkpt lat="47.90138" lon="7.11317">
        <ele>1109</ele>
        <time>2020-05-31T08:21:53.000Z</time>
      </trkpt>
      <trkpt lat="47.9013" lon="7.11317">
        <ele>1107.5999755859</ele>
        <time>2020-05-31T08:21:54.000Z</time>
      </trkpt>
      <trkpt lat="47.90121" lon="7.11317">
        <ele>1106.8000488281</ele>
        <time>2020-05-31T08:21:55.000Z</time>
      </trkpt>
      <trkpt lat="47.90114" lon="7.11316">
        <ele>1106</ele>
        <time>2020-05-31T08:21:56.000Z</time>
      </trkpt>
      <trkpt lat="47.90107" lon="7.11315">
        <ele>1105.1999511719</ele>
        <time>2020-05-31T08:21:57.000Z</time>
      </trkpt>
      <trkpt lat="47.901" lon="7.11314">
        <ele>1104.4000244141</ele>
        <time>2020-05-31T08:21:58.000Z</time>
      </trkpt>
      <trkpt lat="47.90087" lon="7.11312">
        <ele>1104.4000244141</ele>
        <time>2020-05-31T08:22:00.000Z</time>
      </trkpt>
      <trkpt lat="47.9008" lon="7.11311">
        <ele>1104</ele>
        <time>2020-05-31T08:22:01.000Z</time>
      </trkpt>
      <trkpt lat="47.90073" lon="7.11312">
        <ele>1103.5999755859</ele>
        <time>2020-05-31T08:22:02.000Z</time>
      </trkpt>
      <trkpt lat="47.90066" lon="7.11312">
        <ele>1103.1999511719</ele>
        <time>2020-05-31T08:22:03.000Z</time>
      </trkpt>
      <trkpt lat="47.90059" lon="7.11312">
        <ele>1102.8000488281</ele>
        <time>2020-05-31T08:22:04.000Z</time>
      </trkpt>
      <trkpt lat="47.90053" lon="7.11313">
        <ele>1102.4000244141</ele>
        <time>2020-05-31T08:22:05.000Z</time>
      </trkpt>
      <trkpt lat="47.90047" lon="7.11313">
        <ele>1102.4000244141</ele>
        <time>2020-05-31T08:22:06.000Z</time>
      </trkpt>
      <trkpt lat="47.90036" lon="7.11314">
        <ele>1101.8000488281</ele>
        <time>2020-05-31T08:22:08.000Z</time>
      </trkpt>
      <trkpt lat="47.90029" lon="7.11314">
        <ele>1101.4000244141</ele>
        <time>2020-05-31T08:22:09.000Z</time>
      </trkpt>
      <trkpt lat="47.90021" lon="7.11312">
        <ele>1101</ele>
        <time>2020-05-31T08:22:10.000Z</time>
      </trkpt>
      <trkpt lat="47.90014" lon="7.1131">
        <ele>1100.1999511719</ele>
        <time>2020-05-31T08:22:11.000Z</time>
      </trkpt>
      <trkpt lat="47.90006" lon="7.11309">
        <ele>1099.5999755859</ele>
        <time>2020-05-31T08:22:12.000Z</time>
      </trkpt>
      <trkpt lat="47.89999" lon="7.11309">
        <ele>1098.8000488281</ele>
        <time>2020-05-31T08:22:13.000Z</time>
      </trkpt>
      <trkpt lat="47.89992" lon="7.11308">
        <ele>1098</ele>
        <time>2020-05-31T08:22:14.000Z</time>
      </trkpt>
      <trkpt lat="47.89985" lon="7.11308">
        <ele>1097.4000244141</ele>
        <time>2020-05-31T08:22:15.000Z</time>
      </trkpt>
      <trkpt lat="47.89978" lon="7.11308">
        <ele>1096.8000488281</ele>
        <time>2020-05-31T08:22:16.000Z</time>
      </trkpt>
      <trkpt lat="47.89971" lon="7.11309">
        <ele>1096</ele>
        <time>2020-05-31T08:22:17.000Z</time>
      </trkpt>
      <trkpt lat="47.89964" lon="7.11306">
        <ele>1095.4000244141</ele>
        <time>2020-05-31T08:22:18.000Z</time>
      </trkpt>
      <trkpt lat="47.89956" lon="7.11305">
        <ele>1094.4000244141</ele>
        <time>2020-05-31T08:22:19.000Z</time>
      </trkpt>
      <trkpt lat="47.89948" lon="7.11303">
        <ele>1094</ele>
        <time>2020-05-31T08:22:20.000Z</time>
      </trkpt>
      <trkpt lat="47.8994" lon="7.11302">
        <ele>1093.5999755859</ele>
        <time>2020-05-31T08:22:21.000Z</time>
      </trkpt>
      <trkpt lat="47.89933" lon="7.11301">
        <ele>1093.1999511719</ele>
        <time>2020-05-31T08:22:22.000Z</time>
      </trkpt>
      <trkpt lat="47.89926" lon="7.113">
        <ele>1092.8000488281</ele>
        <time>2020-05-31T08:22:23.000Z</time>
      </trkpt>
      <trkpt lat="47.89918" lon="7.113">
        <ele>1092.4000244141</ele>
        <time>2020-05-31T08:22:24.000Z</time>
      </trkpt>
      <trkpt lat="47.8991" lon="7.11299">
        <ele>1091.8000488281</ele>
        <time>2020-05-31T08:22:25.000Z</time>
      </trkpt>
      <trkpt lat="47.89902" lon="7.113">
        <ele>1091</ele>
        <time>2020-05-31T08:22:26.000Z</time>
      </trkpt>
      <trkpt lat="47.89895" lon="7.113">
        <ele>1090.4000244141</ele>
        <time>2020-05-31T08:22:27.000Z</time>
      </trkpt>
      <trkpt lat="47.89888" lon="7.113">
        <ele>1089.5999755859</ele>
        <time>2020-05-31T08:22:28.000Z</time>
      </trkpt>
      <trkpt lat="47.89881" lon="7.113">
        <ele>1089</ele>
        <time>2020-05-31T08:22:29.000Z</time>
      </trkpt>
      <trkpt lat="47.89844" lon="7.11304">
        <ele>1088.4000244141</ele>
        <time>2020-05-31T08:22:34.000Z</time>
      </trkpt>
      <trkpt lat="47.89836" lon="7.11305">
        <ele>1088</ele>
        <time>2020-05-31T08:22:35.000Z</time>
      </trkpt>
      <trkpt lat="47.89828" lon="7.11307">
        <ele>1087.5999755859</ele>
        <time>2020-05-31T08:22:36.000Z</time>
      </trkpt>
      <trkpt lat="47.8982" lon="7.11306">
        <ele>1087</ele>
        <time>2020-05-31T08:22:37.000Z</time>
      </trkpt>
      <trkpt lat="47.89813" lon="7.11306">
        <ele>1086.4000244141</ele>
        <time>2020-05-31T08:22:38.000Z</time>
      </trkpt>
      <trkpt lat="47.89806" lon="7.11306">
        <ele>1085.8000488281</ele>
        <time>2020-05-31T08:22:39.000Z</time>
      </trkpt>
      <trkpt lat="47.898" lon="7.11305">
        <ele>1085.1999511719</ele>
        <time>2020-05-31T08:22:40.000Z</time>
      </trkpt>
      <trkpt lat="47.89795" lon="7.11304">
        <ele>1084.4000244141</ele>
        <time>2020-05-31T08:22:41.000Z</time>
      </trkpt>
      <trkpt lat="47.89786" lon="7.11303">
        <ele>1085.4000244141</ele>
        <time>2020-05-31T08:22:43.000Z</time>
      </trkpt>
      <trkpt lat="47.8978" lon="7.11302">
        <ele>1085.8000488281</ele>
        <time>2020-05-31T08:22:44.000Z</time>
      </trkpt>
      <trkpt lat="47.89775" lon="7.11301">
        <ele>1086.1999511719</ele>
        <time>2020-05-31T08:22:45.000Z</time>
      </trkpt>
      <trkpt lat="47.89771" lon="7.113">
        <ele>1086.5999755859</ele>
        <time>2020-05-31T08:22:46.000Z</time>
      </trkpt>
      <trkpt lat="47.8976" lon="7.11297">
        <ele>1087</ele>
        <time>2020-05-31T08:22:49.000Z</time>
      </trkpt>
      <trkpt lat="47.89758" lon="7.11297">
        <ele>1087.4000244141</ele>
        <time>2020-05-31T08:22:50.000Z</time>
      </trkpt>
      <trkpt lat="47.89756" lon="7.11297">
        <ele>1087.8000488281</ele>
        <time>2020-05-31T08:22:51.000Z</time>
      </trkpt>
      <trkpt lat="47.89755" lon="7.11296">
        <ele>1088.1999511719</ele>
        <time>2020-05-31T08:22:52.000Z</time>
      </trkpt>
      <trkpt lat="47.89754" lon="7.11296">
        <ele>1088.8000488281</ele>
        <time>2020-05-31T08:22:53.000Z</time>
      </trkpt>
      <trkpt lat="47.89751" lon="7.11295">
        <ele>1088.8000488281</ele>
        <time>2020-05-31T08:22:56.000Z</time>
      </trkpt>
      <trkpt lat="47.8975" lon="7.11295">
        <ele>1088.8000488281</ele>
        <time>2020-05-31T08:23:09.000Z</time>
      </trkpt>
      <trkpt lat="47.89748" lon="7.11296">
        <ele>1088.8000488281</ele>
        <time>2020-05-31T08:23:10.000Z</time>
      </trkpt>
      <trkpt lat="47.89737" lon="7.11302">
        <ele>1088.1999511719</ele>
        <time>2020-05-31T08:23:12.000Z</time>
      </trkpt>
      <trkpt lat="47.89731" lon="7.11307">
        <ele>1087.8000488281</ele>
        <time>2020-05-31T08:23:13.000Z</time>
      </trkpt>
      <trkpt lat="47.89724" lon="7.11314">
        <ele>1086.8000488281</ele>
        <time>2020-05-31T08:23:14.000Z</time>
      </trkpt>
      <trkpt lat="47.89718" lon="7.11321">
        <ele>1085.8000488281</ele>
        <time>2020-05-31T08:23:15.000Z</time>
      </trkpt>
      <trkpt lat="47.89713" lon="7.1133">
        <ele>1084.5999755859</ele>
        <time>2020-05-31T08:23:16.000Z</time>
      </trkpt>
      <trkpt lat="47.89708" lon="7.1134">
        <ele>1083.4000244141</ele>
        <time>2020-05-31T08:23:17.000Z</time>
      </trkpt>
      <trkpt lat="47.89704" lon="7.11349">
        <ele>1082.1999511719</ele>
        <time>2020-05-31T08:23:18.000Z</time>
      </trkpt>
      <trkpt lat="47.89701" lon="7.11359">
        <ele>1081.1999511719</ele>
        <time>2020-05-31T08:23:19.000Z</time>
      </trkpt>
      <trkpt lat="47.89697" lon="7.11366">
        <ele>1080.4000244141</ele>
        <time>2020-05-31T08:23:20.000Z</time>
      </trkpt>
      <trkpt lat="47.89695" lon="7.11371">
        <ele>1079.4000244141</ele>
        <time>2020-05-31T08:23:21.000Z</time>
      </trkpt>
      <trkpt lat="47.89692" lon="7.11375">
        <ele>1079.4000244141</ele>
        <time>2020-05-31T08:23:22.000Z</time>
      </trkpt>
      <trkpt lat="47.89689" lon="7.11378">
        <ele>1079.4000244141</ele>
        <time>2020-05-31T08:23:23.000Z</time>
      </trkpt>
      <trkpt lat="47.89686" lon="7.1138">
        <ele>1079.8000488281</ele>
        <time>2020-05-31T08:23:24.000Z</time>
      </trkpt>
      <trkpt lat="47.89684" lon="7.11383">
        <ele>1080.1999511719</ele>
        <time>2020-05-31T08:23:25.000Z</time>
      </trkpt>
      <trkpt lat="47.89681" lon="7.11385">
        <ele>1080.8000488281</ele>
        <time>2020-05-31T08:23:26.000Z</time>
      </trkpt>
      <trkpt lat="47.89678" lon="7.11388">
        <ele>1081.1999511719</ele>
        <time>2020-05-31T08:23:27.000Z</time>
      </trkpt>
      <trkpt lat="47.89676" lon="7.1139">
        <ele>1081.5999755859</ele>
        <time>2020-05-31T08:23:28.000Z</time>
      </trkpt>
      <trkpt lat="47.89673" lon="7.11393">
        <ele>1082.1999511719</ele>
        <time>2020-05-31T08:23:29.000Z</time>
      </trkpt>
      <trkpt lat="47.89671" lon="7.11396">
        <ele>1082.5999755859</ele>
        <time>2020-05-31T08:23:30.000Z</time>
      </trkpt>
      <trkpt lat="47.89668" lon="7.11399">
        <ele>1083</ele>
        <time>2020-05-31T08:23:31.000Z</time>
      </trkpt>
      <trkpt lat="47.89666" lon="7.11403">
        <ele>1083.5999755859</ele>
        <time>2020-05-31T08:23:32.000Z</time>
      </trkpt>
      <trkpt lat="47.89655" lon="7.11418">
        <ele>1083.5999755859</ele>
        <time>2020-05-31T08:23:36.000Z</time>
      </trkpt>
      <trkpt lat="47.89643" lon="7.11439">
        <ele>1084</ele>
        <time>2020-05-31T08:23:41.000Z</time>
      </trkpt>
      <trkpt lat="47.89641" lon="7.11444">
        <ele>1084.4000244141</ele>
        <time>2020-05-31T08:23:42.000Z</time>
      </trkpt>
      <trkpt lat="47.89638" lon="7.11448">
        <ele>1085</ele>
        <time>2020-05-31T08:23:43.000Z</time>
      </trkpt>
      <trkpt lat="47.89637" lon="7.11452">
        <ele>1085.4000244141</ele>
        <time>2020-05-31T08:23:44.000Z</time>
      </trkpt>
      <trkpt lat="47.89635" lon="7.11456">
        <ele>1085.8000488281</ele>
        <time>2020-05-31T08:23:45.000Z</time>
      </trkpt>
      <trkpt lat="47.89631" lon="7.11466">
        <ele>1085.8000488281</ele>
        <time>2020-05-31T08:23:48.000Z</time>
      </trkpt>
      <trkpt lat="47.89622" lon="7.11497">
        <ele>1085.8000488281</ele>
        <time>2020-05-31T08:23:54.000Z</time>
      </trkpt>
      <trkpt lat="47.89613" lon="7.11518">
        <ele>1085.8000488281</ele>
        <time>2020-05-31T08:23:59.000Z</time>
      </trkpt>
      <trkpt lat="47.89605" lon="7.11547">
        <ele>1085.8000488281</ele>
        <time>2020-05-31T08:24:05.000Z</time>
      </trkpt>
      <trkpt lat="47.89591" lon="7.11588">
        <ele>1086.1999511719</ele>
        <time>2020-05-31T08:24:13.000Z</time>
      </trkpt>
      <trkpt lat="47.8959" lon="7.11593">
        <ele>1086.5999755859</ele>
        <time>2020-05-31T08:24:14.000Z</time>
      </trkpt>
      <trkpt lat="47.89588" lon="7.11599">
        <ele>1087</ele>
        <time>2020-05-31T08:24:15.000Z</time>
      </trkpt>
      <trkpt lat="47.89587" lon="7.11604">
        <ele>1087.4000244141</ele>
        <time>2020-05-31T08:24:16.000Z</time>
      </trkpt>
      <trkpt lat="47.89585" lon="7.11609">
        <ele>1088</ele>
        <time>2020-05-31T08:24:17.000Z</time>
      </trkpt>
      <trkpt lat="47.89581" lon="7.11625">
        <ele>1088</ele>
        <time>2020-05-31T08:24:20.000Z</time>
      </trkpt>
      <trkpt lat="47.89572" lon="7.11653">
        <ele>1088</ele>
        <time>2020-05-31T08:24:26.000Z</time>
      </trkpt>
      <trkpt lat="47.8957" lon="7.11657">
        <ele>1088.4000244141</ele>
        <time>2020-05-31T08:24:27.000Z</time>
      </trkpt>
      <trkpt lat="47.89568" lon="7.11661">
        <ele>1088.8000488281</ele>
        <time>2020-05-31T08:24:28.000Z</time>
      </trkpt>
      <trkpt lat="47.89567" lon="7.11666">
        <ele>1089.1999511719</ele>
        <time>2020-05-31T08:24:29.000Z</time>
      </trkpt>
      <trkpt lat="47.89565" lon="7.1167">
        <ele>1089.8000488281</ele>
        <time>2020-05-31T08:24:30.000Z</time>
      </trkpt>
      <trkpt lat="47.89563" lon="7.11674">
        <ele>1090.1999511719</ele>
        <time>2020-05-31T08:24:31.000Z</time>
      </trkpt>
      <trkpt lat="47.89561" lon="7.11679">
        <ele>1090.1999511719</ele>
        <time>2020-05-31T08:24:32.000Z</time>
      </trkpt>
      <trkpt lat="47.89545" lon="7.11712">
        <ele>1090.1999511719</ele>
        <time>2020-05-31T08:24:39.000Z</time>
      </trkpt>
      <trkpt lat="47.89539" lon="7.11722">
        <ele>1090.1999511719</ele>
        <time>2020-05-31T08:24:41.000Z</time>
      </trkpt>
      <trkpt lat="47.89531" lon="7.11742">
        <ele>1090.5999755859</ele>
        <time>2020-05-31T08:24:45.000Z</time>
      </trkpt>
      <trkpt lat="47.8953" lon="7.11747">
        <ele>1091</ele>
        <time>2020-05-31T08:24:46.000Z</time>
      </trkpt>
      <trkpt lat="47.89529" lon="7.11753">
        <ele>1091.4000244141</ele>
        <time>2020-05-31T08:24:47.000Z</time>
      </trkpt>
      <trkpt lat="47.89528" lon="7.11759">
        <ele>1091.8000488281</ele>
        <time>2020-05-31T08:24:48.000Z</time>
      </trkpt>
      <trkpt lat="47.89527" lon="7.11764">
        <ele>1092.1999511719</ele>
        <time>2020-05-31T08:24:49.000Z</time>
      </trkpt>
      <trkpt lat="47.89526" lon="7.11773">
        <ele>1092.1999511719</ele>
        <time>2020-05-31T08:24:51.000Z</time>
      </trkpt>
      <trkpt lat="47.89521" lon="7.11804">
        <ele>1092.1999511719</ele>
        <time>2020-05-31T08:24:58.000Z</time>
      </trkpt>
      <trkpt lat="47.89514" lon="7.11816">
        <ele>1092.1999511719</ele>
        <time>2020-05-31T08:25:02.000Z</time>
      </trkpt>
      <trkpt lat="47.89512" lon="7.11816">
        <ele>1092.5999755859</ele>
        <time>2020-05-31T08:25:03.000Z</time>
      </trkpt>
      <trkpt lat="47.8951" lon="7.11815">
        <ele>1093</ele>
        <time>2020-05-31T08:25:04.000Z</time>
      </trkpt>
      <trkpt lat="47.89508" lon="7.11815">
        <ele>1093.4000244141</ele>
        <time>2020-05-31T08:25:05.000Z</time>
      </trkpt>
      <trkpt lat="47.89506" lon="7.11813">
        <ele>1093.8000488281</ele>
        <time>2020-05-31T08:25:06.000Z</time>
      </trkpt>
      <trkpt lat="47.89503" lon="7.11812">
        <ele>1094.1999511719</ele>
        <time>2020-05-31T08:25:07.000Z</time>
      </trkpt>
      <trkpt lat="47.8949" lon="7.11803">
        <ele>1094.1999511719</ele>
        <time>2020-05-31T08:25:13.000Z</time>
      </trkpt>
      <trkpt lat="47.89486" lon="7.11798">
        <ele>1094.8000488281</ele>
        <time>2020-05-31T08:25:15.000Z</time>
      </trkpt>
      <trkpt lat="47.89483" lon="7.11797">
        <ele>1095.1999511719</ele>
        <time>2020-05-31T08:25:16.000Z</time>
      </trkpt>
      <trkpt lat="47.89481" lon="7.11795">
        <ele>1095.5999755859</ele>
        <time>2020-05-31T08:25:17.000Z</time>
      </trkpt>
      <trkpt lat="47.89478" lon="7.11793">
        <ele>1096</ele>
        <time>2020-05-31T08:25:18.000Z</time>
      </trkpt>
      <trkpt lat="47.89476" lon="7.11791">
        <ele>1096.4000244141</ele>
        <time>2020-05-31T08:25:19.000Z</time>
      </trkpt>
      <trkpt lat="47.89473" lon="7.1179">
        <ele>1096.4000244141</ele>
        <time>2020-05-31T08:25:20.000Z</time>
      </trkpt>
      <trkpt lat="47.89452" lon="7.11783">
        <ele>1096.4000244141</ele>
        <time>2020-05-31T08:25:27.000Z</time>
      </trkpt>
      <trkpt lat="47.8943" lon="7.11777">
        <ele>1096.4000244141</ele>
        <time>2020-05-31T08:25:34.000Z</time>
      </trkpt>
      <trkpt lat="47.89411" lon="7.11771">
        <ele>1096.8000488281</ele>
        <time>2020-05-31T08:25:41.000Z</time>
      </trkpt>
      <trkpt lat="47.89408" lon="7.1177">
        <ele>1097.1999511719</ele>
        <time>2020-05-31T08:25:42.000Z</time>
      </trkpt>
      <trkpt lat="47.89406" lon="7.1177">
        <ele>1097.5999755859</ele>
        <time>2020-05-31T08:25:43.000Z</time>
      </trkpt>
      <trkpt lat="47.89404" lon="7.11769">
        <ele>1098</ele>
        <time>2020-05-31T08:25:44.000Z</time>
      </trkpt>
      <trkpt lat="47.89403" lon="7.11769">
        <ele>1098.4000244141</ele>
        <time>2020-05-31T08:25:45.000Z</time>
      </trkpt>
      <trkpt lat="47.89401" lon="7.11768">
        <ele>1098.4000244141</ele>
        <time>2020-05-31T08:25:47.000Z</time>
      </trkpt>
      <trkpt lat="47.89401" lon="7.11768">
        <ele>1098.4000244141</ele>
        <time>2020-05-31T08:25:48.000Z</time>
      </trkpt>
      <trkpt lat="47.89382" lon="7.11767">
        <ele>1098.4000244141</ele>
        <time>2020-05-31T08:26:23.000Z</time>
      </trkpt>
      <trkpt lat="47.8938" lon="7.11768">
        <ele>1098.4000244141</ele>
        <time>2020-05-31T08:26:25.000Z</time>
      </trkpt>
      <trkpt lat="47.89375" lon="7.11769">
        <ele>1098.4000244141</ele>
        <time>2020-05-31T08:26:30.000Z</time>
      </trkpt>
      <trkpt lat="47.89373" lon="7.11772">
        <ele>1098.4000244141</ele>
        <time>2020-05-31T08:26:35.000Z</time>
      </trkpt>
      <trkpt lat="47.89369" lon="7.11785">
        <ele>1098.4000244141</ele>
        <time>2020-05-31T08:26:40.000Z</time>
      </trkpt>
      <trkpt lat="47.89366" lon="7.11786">
        <ele>1098.4000244141</ele>
        <time>2020-05-31T08:26:41.000Z</time>
      </trkpt>
      <trkpt lat="47.89356" lon="7.11787">
        <ele>1098.4000244141</ele>
        <time>2020-05-31T08:26:44.000Z</time>
      </trkpt>
      <trkpt lat="47.89347" lon="7.11787">
        <ele>1098</ele>
        <time>2020-05-31T08:26:46.000Z</time>
      </trkpt>
      <trkpt lat="47.89342" lon="7.11787">
        <ele>1097.5999755859</ele>
        <time>2020-05-31T08:26:47.000Z</time>
      </trkpt>
      <trkpt lat="47.89336" lon="7.11789">
        <ele>1097.1999511719</ele>
        <time>2020-05-31T08:26:48.000Z</time>
      </trkpt>
      <trkpt lat="47.8933" lon="7.11791">
        <ele>1096.8000488281</ele>
        <time>2020-05-31T08:26:49.000Z</time>
      </trkpt>
      <trkpt lat="47.89324" lon="7.11792">
        <ele>1096.1999511719</ele>
        <time>2020-05-31T08:26:50.000Z</time>
      </trkpt>
      <trkpt lat="47.89316" lon="7.11793">
        <ele>1095.8000488281</ele>
        <time>2020-05-31T08:26:51.000Z</time>
      </trkpt>
      <trkpt lat="47.89309" lon="7.11795">
        <ele>1095.1999511719</ele>
        <time>2020-05-31T08:26:52.000Z</time>
      </trkpt>
      <trkpt lat="47.89301" lon="7.11798">
        <ele>1094.5999755859</ele>
        <time>2020-05-31T08:26:53.000Z</time>
      </trkpt>
      <trkpt lat="47.89292" lon="7.11802">
        <ele>1094</ele>
        <time>2020-05-31T08:26:54.000Z</time>
      </trkpt>
      <trkpt lat="47.89284" lon="7.11805">
        <ele>1093.1999511719</ele>
        <time>2020-05-31T08:26:55.000Z</time>
      </trkpt>
      <trkpt lat="47.89274" lon="7.1181">
        <ele>1092.5999755859</ele>
        <time>2020-05-31T08:26:56.000Z</time>
      </trkpt>
      <trkpt lat="47.89265" lon="7.11815">
        <ele>1091.8000488281</ele>
        <time>2020-05-31T08:26:57.000Z</time>
      </trkpt>
      <trkpt lat="47.89256" lon="7.11818">
        <ele>1091</ele>
        <time>2020-05-31T08:26:58.000Z</time>
      </trkpt>
      <trkpt lat="47.89246" lon="7.1182">
        <ele>1090.4000244141</ele>
        <time>2020-05-31T08:26:59.000Z</time>
      </trkpt>
      <trkpt lat="47.89235" lon="7.11822">
        <ele>1089.4000244141</ele>
        <time>2020-05-31T08:27:00.000Z</time>
      </trkpt>
      <trkpt lat="47.89224" lon="7.11824">
        <ele>1088.5999755859</ele>
        <time>2020-05-31T08:27:01.000Z</time>
      </trkpt>
      <trkpt lat="47.89213" lon="7.11826">
        <ele>1087.5999755859</ele>
        <time>2020-05-31T08:27:02.000Z</time>
      </trkpt>
      <trkpt lat="47.89202" lon="7.1183">
        <ele>1085.4000244141</ele>
        <time>2020-05-31T08:27:03.000Z</time>
      </trkpt>
      <trkpt lat="47.89191" lon="7.11837">
        <ele>1084.1999511719</ele>
        <time>2020-05-31T08:27:04.000Z</time>
      </trkpt>
      <trkpt lat="47.89181" lon="7.11845">
        <ele>1083</ele>
        <time>2020-05-31T08:27:05.000Z</time>
      </trkpt>
      <trkpt lat="47.89171" lon="7.11854">
        <ele>1082</ele>
        <time>2020-05-31T08:27:06.000Z</time>
      </trkpt>
      <trkpt lat="47.89162" lon="7.11865">
        <ele>1080.8000488281</ele>
        <time>2020-05-31T08:27:07.000Z</time>
      </trkpt>
      <trkpt lat="47.89153" lon="7.11877">
        <ele>1079.5999755859</ele>
        <time>2020-05-31T08:27:08.000Z</time>
      </trkpt>
      <trkpt lat="47.89145" lon="7.1189">
        <ele>1078.4000244141</ele>
        <time>2020-05-31T08:27:09.000Z</time>
      </trkpt>
      <trkpt lat="47.89135" lon="7.11902">
        <ele>1077.1999511719</ele>
        <time>2020-05-31T08:27:10.000Z</time>
      </trkpt>
      <trkpt lat="47.89126" lon="7.11915">
        <ele>1075.8000488281</ele>
        <time>2020-05-31T08:27:11.000Z</time>
      </trkpt>
      <trkpt lat="47.89117" lon="7.11926">
        <ele>1074.4000244141</ele>
        <time>2020-05-31T08:27:12.000Z</time>
      </trkpt>
      <trkpt lat="47.89107" lon="7.11937">
        <ele>1073</ele>
        <time>2020-05-31T08:27:13.000Z</time>
      </trkpt>
      <trkpt lat="47.89097" lon="7.11946">
        <ele>1071.5999755859</ele>
        <time>2020-05-31T08:27:14.000Z</time>
      </trkpt>
      <trkpt lat="47.89087" lon="7.11955">
        <ele>1070.4000244141</ele>
        <time>2020-05-31T08:27:15.000Z</time>
      </trkpt>
      <trkpt lat="47.89077" lon="7.11965">
        <ele>1069</ele>
        <time>2020-05-31T08:27:16.000Z</time>
      </trkpt>
      <trkpt lat="47.89068" lon="7.11973">
        <ele>1067.8000488281</ele>
        <time>2020-05-31T08:27:17.000Z</time>
      </trkpt>
      <trkpt lat="47.89059" lon="7.11983">
        <ele>1066.8000488281</ele>
        <time>2020-05-31T08:27:18.000Z</time>
      </trkpt>
      <trkpt lat="47.89051" lon="7.11989">
        <ele>1065.8000488281</ele>
        <time>2020-05-31T08:27:19.000Z</time>
      </trkpt>
      <trkpt lat="47.89046" lon="7.11995">
        <ele>1064.8000488281</ele>
        <time>2020-05-31T08:27:20.000Z</time>
      </trkpt>
      <trkpt lat="47.89042" lon="7.11999">
        <ele>1063.8000488281</ele>
        <time>2020-05-31T08:27:21.000Z</time>
      </trkpt>
      <trkpt lat="47.89039" lon="7.12001">
        <ele>1062.8000488281</ele>
        <time>2020-05-31T08:27:22.000Z</time>
      </trkpt>
      <trkpt lat="47.89029" lon="7.12009">
        <ele>1062.1999511719</ele>
        <time>2020-05-31T08:27:26.000Z</time>
      </trkpt>
      <trkpt lat="47.89027" lon="7.12011">
        <ele>1061.8000488281</ele>
        <time>2020-05-31T08:27:27.000Z</time>
      </trkpt>
      <trkpt lat="47.89024" lon="7.12013">
        <ele>1061</ele>
        <time>2020-05-31T08:27:28.000Z</time>
      </trkpt>
      <trkpt lat="47.89022" lon="7.12014">
        <ele>1060.5999755859</ele>
        <time>2020-05-31T08:27:29.000Z</time>
      </trkpt>
      <trkpt lat="47.89008" lon="7.12024">
        <ele>1060</ele>
        <time>2020-05-31T08:27:33.000Z</time>
      </trkpt>
      <trkpt lat="47.89004" lon="7.12026">
        <ele>1059.5999755859</ele>
        <time>2020-05-31T08:27:34.000Z</time>
      </trkpt>
      <trkpt lat="47.89001" lon="7.12028">
        <ele>1059.1999511719</ele>
        <time>2020-05-31T08:27:35.000Z</time>
      </trkpt>
      <trkpt lat="47.88998" lon="7.1203">
        <ele>1058.8000488281</ele>
        <time>2020-05-31T08:27:36.000Z</time>
      </trkpt>
      <trkpt lat="47.88994" lon="7.12033">
        <ele>1058.4000244141</ele>
        <time>2020-05-31T08:27:37.000Z</time>
      </trkpt>
      <trkpt lat="47.88992" lon="7.12036">
        <ele>1058.4000244141</ele>
        <time>2020-05-31T08:27:38.000Z</time>
      </trkpt>
      <trkpt lat="47.88982" lon="7.12043">
        <ele>1057.8000488281</ele>
        <time>2020-05-31T08:27:41.000Z</time>
      </trkpt>
      <trkpt lat="47.88978" lon="7.12046">
        <ele>1057.4000244141</ele>
        <time>2020-05-31T08:27:42.000Z</time>
      </trkpt>
      <trkpt lat="47.88974" lon="7.1205">
        <ele>1057</ele>
        <time>2020-05-31T08:27:43.000Z</time>
      </trkpt>
      <trkpt lat="47.88969" lon="7.12054">
        <ele>1056.1999511719</ele>
        <time>2020-05-31T08:27:44.000Z</time>
      </trkpt>
      <trkpt lat="47.88965" lon="7.12058">
        <ele>1055.5999755859</ele>
        <time>2020-05-31T08:27:45.000Z</time>
      </trkpt>
      <trkpt lat="47.88962" lon="7.12062">
        <ele>1054.8000488281</ele>
        <time>2020-05-31T08:27:46.000Z</time>
      </trkpt>
      <trkpt lat="47.88959" lon="7.12066">
        <ele>1054.1999511719</ele>
        <time>2020-05-31T08:27:47.000Z</time>
      </trkpt>
      <trkpt lat="47.88956" lon="7.12071">
        <ele>1053.4000244141</ele>
        <time>2020-05-31T08:27:48.000Z</time>
      </trkpt>
      <trkpt lat="47.88952" lon="7.12077">
        <ele>1052.5999755859</ele>
        <time>2020-05-31T08:27:49.000Z</time>
      </trkpt>
      <trkpt lat="47.88948" lon="7.12079">
        <ele>1051.8000488281</ele>
        <time>2020-05-31T08:27:50.000Z</time>
      </trkpt>
      <trkpt lat="47.88944" lon="7.12083">
        <ele>1050.8000488281</ele>
        <time>2020-05-31T08:27:51.000Z</time>
      </trkpt>
      <trkpt lat="47.8894" lon="7.12086">
        <ele>1049.1999511719</ele>
        <time>2020-05-31T08:27:52.000Z</time>
      </trkpt>
      <trkpt lat="47.88935" lon="7.12089">
        <ele>1048.1999511719</ele>
        <time>2020-05-31T08:27:53.000Z</time>
      </trkpt>
      <trkpt lat="47.88931" lon="7.12093">
        <ele>1047.4000244141</ele>
        <time>2020-05-31T08:27:54.000Z</time>
      </trkpt>
      <trkpt lat="47.88926" lon="7.12096">
        <ele>1046.5999755859</ele>
        <time>2020-05-31T08:27:55.000Z</time>
      </trkpt>
      <trkpt lat="47.88922" lon="7.12098">
        <ele>1045.8000488281</ele>
        <time>2020-05-31T08:27:56.000Z</time>
      </trkpt>
      <trkpt lat="47.88913" lon="7.12108">
        <ele>1045.4000244141</ele>
        <time>2020-05-31T08:27:58.000Z</time>
      </trkpt>
      <trkpt lat="47.88908" lon="7.12114">
        <ele>1045</ele>
        <time>2020-05-31T08:27:59.000Z</time>
      </trkpt>
      <trkpt lat="47.88903" lon="7.12121">
        <ele>1044.5999755859</ele>
        <time>2020-05-31T08:28:00.000Z</time>
      </trkpt>
      <trkpt lat="47.88897" lon="7.12129">
        <ele>1044</ele>
        <time>2020-05-31T08:28:01.000Z</time>
      </trkpt>
      <trkpt lat="47.88892" lon="7.12135">
        <ele>1043.1999511719</ele>
        <time>2020-05-31T08:28:02.000Z</time>
      </trkpt>
      <trkpt lat="47.88886" lon="7.12143">
        <ele>1042.4000244141</ele>
        <time>2020-05-31T08:28:03.000Z</time>
      </trkpt>
      <trkpt lat="47.88881" lon="7.12152">
        <ele>1041.5999755859</ele>
        <time>2020-05-31T08:28:04.000Z</time>
      </trkpt>
      <trkpt lat="47.88876" lon="7.12161">
        <ele>1040.8000488281</ele>
        <time>2020-05-31T08:28:05.000Z</time>
      </trkpt>
      <trkpt lat="47.88871" lon="7.1217">
        <ele>1040</ele>
        <time>2020-05-31T08:28:06.000Z</time>
      </trkpt>
      <trkpt lat="47.88865" lon="7.12182">
        <ele>1039</ele>
        <time>2020-05-31T08:28:07.000Z</time>
      </trkpt>
      <trkpt lat="47.8886" lon="7.12194">
        <ele>1038</ele>
        <time>2020-05-31T08:28:08.000Z</time>
      </trkpt>
      <trkpt lat="47.88855" lon="7.12205">
        <ele>1037</ele>
        <time>2020-05-31T08:28:09.000Z</time>
      </trkpt>
      <trkpt lat="47.8885" lon="7.12218">
        <ele>1035.8000488281</ele>
        <time>2020-05-31T08:28:10.000Z</time>
      </trkpt>
      <trkpt lat="47.88846" lon="7.1223">
        <ele>1034.8000488281</ele>
        <time>2020-05-31T08:28:11.000Z</time>
      </trkpt>
      <trkpt lat="47.88841" lon="7.12243">
        <ele>1033.5999755859</ele>
        <time>2020-05-31T08:28:12.000Z</time>
      </trkpt>
      <trkpt lat="47.88837" lon="7.12256">
        <ele>1032.5999755859</ele>
        <time>2020-05-31T08:28:13.000Z</time>
      </trkpt>
      <trkpt lat="47.88834" lon="7.12271">
        <ele>1031.4000244141</ele>
        <time>2020-05-31T08:28:14.000Z</time>
      </trkpt>
      <trkpt lat="47.8883" lon="7.12284">
        <ele>1030.1999511719</ele>
        <time>2020-05-31T08:28:15.000Z</time>
      </trkpt>
      <trkpt lat="47.88826" lon="7.12297">
        <ele>1029</ele>
        <time>2020-05-31T08:28:16.000Z</time>
      </trkpt>
      <trkpt lat="47.88823" lon="7.12309">
        <ele>1026.5999755859</ele>
        <time>2020-05-31T08:28:17.000Z</time>
      </trkpt>
      <trkpt lat="47.88819" lon="7.12323">
        <ele>1025.1999511719</ele>
        <time>2020-05-31T08:28:18.000Z</time>
      </trkpt>
      <trkpt lat="47.88817" lon="7.12336">
        <ele>1023.799987793</ele>
        <time>2020-05-31T08:28:19.000Z</time>
      </trkpt>
      <trkpt lat="47.88814" lon="7.12349">
        <ele>1022.5999755859</ele>
        <time>2020-05-31T08:28:20.000Z</time>
      </trkpt>
      <trkpt lat="47.88811" lon="7.12361">
        <ele>1021.200012207</ele>
        <time>2020-05-31T08:28:21.000Z</time>
      </trkpt>
      <trkpt lat="47.88809" lon="7.12372">
        <ele>1020.4000244141</ele>
        <time>2020-05-31T08:28:22.000Z</time>
      </trkpt>
      <trkpt lat="47.88806" lon="7.12383">
        <ele>1019.4000244141</ele>
        <time>2020-05-31T08:28:23.000Z</time>
      </trkpt>
      <trkpt lat="47.88803" lon="7.12393">
        <ele>1018.4000244141</ele>
        <time>2020-05-31T08:28:24.000Z</time>
      </trkpt>
      <trkpt lat="47.888" lon="7.12404">
        <ele>1017.5999755859</ele>
        <time>2020-05-31T08:28:25.000Z</time>
      </trkpt>
      <trkpt lat="47.88797" lon="7.12415">
        <ele>1016.799987793</ele>
        <time>2020-05-31T08:28:26.000Z</time>
      </trkpt>
      <trkpt lat="47.88793" lon="7.12427">
        <ele>1015.5999755859</ele>
        <time>2020-05-31T08:28:27.000Z</time>
      </trkpt>
      <trkpt lat="47.88789" lon="7.12438">
        <ele>1014.5999755859</ele>
        <time>2020-05-31T08:28:28.000Z</time>
      </trkpt>
      <trkpt lat="47.88785" lon="7.12448">
        <ele>1013.5999755859</ele>
        <time>2020-05-31T08:28:29.000Z</time>
      </trkpt>
      <trkpt lat="47.8878" lon="7.12457">
        <ele>1012.4000244141</ele>
        <time>2020-05-31T08:28:30.000Z</time>
      </trkpt>
      <trkpt lat="47.88776" lon="7.12464">
        <ele>1011.4000244141</ele>
        <time>2020-05-31T08:28:31.000Z</time>
      </trkpt>
      <trkpt lat="47.8877" lon="7.12469">
        <ele>1010.5999755859</ele>
        <time>2020-05-31T08:28:32.000Z</time>
      </trkpt>
      <trkpt lat="47.88766" lon="7.12472">
        <ele>1009.5999755859</ele>
        <time>2020-05-31T08:28:33.000Z</time>
      </trkpt>
      <trkpt lat="47.88763" lon="7.12474">
        <ele>1008.799987793</ele>
        <time>2020-05-31T08:28:34.000Z</time>
      </trkpt>
      <trkpt lat="47.88761" lon="7.12473">
        <ele>1007.799987793</ele>
        <time>2020-05-31T08:28:35.000Z</time>
      </trkpt>
      <trkpt lat="47.8876" lon="7.12473">
        <ele>1007</ele>
        <time>2020-05-31T08:28:36.000Z</time>
      </trkpt>
      <trkpt lat="47.8876" lon="7.12473">
        <ele>1006.5999755859</ele>
        <time>2020-05-31T08:28:38.000Z</time>
      </trkpt>
      <trkpt lat="47.8876" lon="7.12473">
        <ele>1006.200012207</ele>
        <time>2020-05-31T08:28:39.000Z</time>
      </trkpt>
      <trkpt lat="47.8876" lon="7.12476">
        <ele>1004.799987793</ele>
        <time>2020-05-31T08:30:41.000Z</time>
      </trkpt>
      <trkpt lat="47.88756" lon="7.12482">
        <ele>1004.799987793</ele>
        <time>2020-05-31T08:30:43.000Z</time>
      </trkpt>
      <trkpt lat="47.88756" lon="7.12493">
        <ele>1003.799987793</ele>
        <time>2020-05-31T08:30:45.000Z</time>
      </trkpt>
      <trkpt lat="47.88756" lon="7.12499">
        <ele>1002.799987793</ele>
        <time>2020-05-31T08:30:46.000Z</time>
      </trkpt>
      <trkpt lat="47.88758" lon="7.12505">
        <ele>1002</ele>
        <time>2020-05-31T08:30:47.000Z</time>
      </trkpt>
      <trkpt lat="47.8876" lon="7.12512">
        <ele>1001</ele>
        <time>2020-05-31T08:30:48.000Z</time>
      </trkpt>
      <trkpt lat="47.88762" lon="7.12518">
        <ele>1000</ele>
        <time>2020-05-31T08:30:49.000Z</time>
      </trkpt>
      <trkpt lat="47.88764" lon="7.12527">
        <ele>998.59997558594</ele>
        <time>2020-05-31T08:30:50.000Z</time>
      </trkpt>
      <trkpt lat="47.88767" lon="7.12535">
        <ele>997.40002441406</ele>
        <time>2020-05-31T08:30:51.000Z</time>
      </trkpt>
      <trkpt lat="47.8877" lon="7.12542">
        <ele>996</ele>
        <time>2020-05-31T08:30:52.000Z</time>
      </trkpt>
      <trkpt lat="47.88775" lon="7.12549">
        <ele>994.59997558594</ele>
        <time>2020-05-31T08:30:53.000Z</time>
      </trkpt>
      <trkpt lat="47.88778" lon="7.12554">
        <ele>993.40002441406</ele>
        <time>2020-05-31T08:30:54.000Z</time>
      </trkpt>
      <trkpt lat="47.88783" lon="7.12559">
        <ele>992</ele>
        <time>2020-05-31T08:30:55.000Z</time>
      </trkpt>
      <trkpt lat="47.88788" lon="7.12564">
        <ele>990.59997558594</ele>
        <time>2020-05-31T08:30:56.000Z</time>
      </trkpt>
      <trkpt lat="47.88793" lon="7.12567">
        <ele>989.20001220703</ele>
        <time>2020-05-31T08:30:57.000Z</time>
      </trkpt>
      <trkpt lat="47.88799" lon="7.12569">
        <ele>988</ele>
        <time>2020-05-31T08:30:58.000Z</time>
      </trkpt>
      <trkpt lat="47.88804" lon="7.12571">
        <ele>986.79998779297</ele>
        <time>2020-05-31T08:30:59.000Z</time>
      </trkpt>
      <trkpt lat="47.88809" lon="7.1257">
        <ele>985.59997558594</ele>
        <time>2020-05-31T08:31:00.000Z</time>
      </trkpt>
      <trkpt lat="47.88814" lon="7.12567">
        <ele>984.20001220703</ele>
        <time>2020-05-31T08:31:01.000Z</time>
      </trkpt>
      <trkpt lat="47.88818" lon="7.12563">
        <ele>983</ele>
        <time>2020-05-31T08:31:02.000Z</time>
      </trkpt>
      <trkpt lat="47.88821" lon="7.12561">
        <ele>981.79998779297</ele>
        <time>2020-05-31T08:31:03.000Z</time>
      </trkpt>
      <trkpt lat="47.88824" lon="7.12564">
        <ele>980.40002441406</ele>
        <time>2020-05-31T08:31:04.000Z</time>
      </trkpt>
      <trkpt lat="47.88826" lon="7.12568">
        <ele>979.79998779297</ele>
        <time>2020-05-31T08:31:05.000Z</time>
      </trkpt>
      <trkpt lat="47.88826" lon="7.12573">
        <ele>979</ele>
        <time>2020-05-31T08:31:06.000Z</time>
      </trkpt>
      <trkpt lat="47.88827" lon="7.12578">
        <ele>978.40002441406</ele>
        <time>2020-05-31T08:31:07.000Z</time>
      </trkpt>
      <trkpt lat="47.88827" lon="7.12583">
        <ele>977.59997558594</ele>
        <time>2020-05-31T08:31:08.000Z</time>
      </trkpt>
      <trkpt lat="47.88825" lon="7.12588">
        <ele>977</ele>
        <time>2020-05-31T08:31:09.000Z</time>
      </trkpt>
      <trkpt lat="47.88824" lon="7.12591">
        <ele>976.59997558594</ele>
        <time>2020-05-31T08:31:12.000Z</time>
      </trkpt>
      <trkpt lat="47.88824" lon="7.12591">
        <ele>976</ele>
        <time>2020-05-31T08:31:13.000Z</time>
      </trkpt>
      <trkpt lat="47.88822" lon="7.12594">
        <ele>974.79998779297</ele>
        <time>2020-05-31T08:31:48.000Z</time>
      </trkpt>
      <trkpt lat="47.88818" lon="7.12599">
        <ele>974.79998779297</ele>
        <time>2020-05-31T08:31:50.000Z</time>
      </trkpt>
      <trkpt lat="47.88813" lon="7.12603">
        <ele>974.79998779297</ele>
        <time>2020-05-31T08:31:52.000Z</time>
      </trkpt>
      <trkpt lat="47.88803" lon="7.12609">
        <ele>974.79998779297</ele>
        <time>2020-05-31T08:31:54.000Z</time>
      </trkpt>
      <trkpt lat="47.88793" lon="7.12614">
        <ele>974.20001220703</ele>
        <time>2020-05-31T08:31:56.000Z</time>
      </trkpt>
      <trkpt lat="47.88788" lon="7.12619">
        <ele>973.79998779297</ele>
        <time>2020-05-31T08:31:57.000Z</time>
      </trkpt>
      <trkpt lat="47.88782" lon="7.12624">
        <ele>973.40002441406</ele>
        <time>2020-05-31T08:31:58.000Z</time>
      </trkpt>
      <trkpt lat="47.88777" lon="7.12629">
        <ele>972.40002441406</ele>
        <time>2020-05-31T08:31:59.000Z</time>
      </trkpt>
      <trkpt lat="47.88771" lon="7.12634">
        <ele>971.79998779297</ele>
        <time>2020-05-31T08:32:00.000Z</time>
      </trkpt>
      <trkpt lat="47.88764" lon="7.12642">
        <ele>970.79998779297</ele>
        <time>2020-05-31T08:32:01.000Z</time>
      </trkpt>
      <trkpt lat="47.88757" lon="7.12649">
        <ele>970</ele>
        <time>2020-05-31T08:32:02.000Z</time>
      </trkpt>
      <trkpt lat="47.8875" lon="7.12659">
        <ele>968.79998779297</ele>
        <time>2020-05-31T08:32:03.000Z</time>
      </trkpt>
      <trkpt lat="47.88743" lon="7.12667">
        <ele>967.79998779297</ele>
        <time>2020-05-31T08:32:04.000Z</time>
      </trkpt>
      <trkpt lat="47.88736" lon="7.12676">
        <ele>966.59997558594</ele>
        <time>2020-05-31T08:32:05.000Z</time>
      </trkpt>
      <trkpt lat="47.88729" lon="7.12685">
        <ele>965.40002441406</ele>
        <time>2020-05-31T08:32:06.000Z</time>
      </trkpt>
      <trkpt lat="47.88723" lon="7.12696">
        <ele>964.20001220703</ele>
        <time>2020-05-31T08:32:07.000Z</time>
      </trkpt>
      <trkpt lat="47.88716" lon="7.1271">
        <ele>962.79998779297</ele>
        <time>2020-05-31T08:32:08.000Z</time>
      </trkpt>
      <trkpt lat="47.8871" lon="7.12723">
        <ele>961.59997558594</ele>
        <time>2020-05-31T08:32:09.000Z</time>
      </trkpt>
      <trkpt lat="47.88705" lon="7.12737">
        <ele>960.79998779297</ele>
        <time>2020-05-31T08:32:10.000Z</time>
      </trkpt>
      <trkpt lat="47.88699" lon="7.12751">
        <ele>959.79998779297</ele>
        <time>2020-05-31T08:32:11.000Z</time>
      </trkpt>
      <trkpt lat="47.88694" lon="7.12768">
        <ele>959</ele>
        <time>2020-05-31T08:32:12.000Z</time>
      </trkpt>
      <trkpt lat="47.8869" lon="7.12783">
        <ele>958</ele>
        <time>2020-05-31T08:32:13.000Z</time>
      </trkpt>
      <trkpt lat="47.88686" lon="7.12795">
        <ele>957.20001220703</ele>
        <time>2020-05-31T08:32:14.000Z</time>
      </trkpt>
      <trkpt lat="47.88684" lon="7.12803">
        <ele>956.20001220703</ele>
        <time>2020-05-31T08:32:15.000Z</time>
      </trkpt>
      <trkpt lat="47.88681" lon="7.12807">
        <ele>955.40002441406</ele>
        <time>2020-05-31T08:32:16.000Z</time>
      </trkpt>
      <trkpt lat="47.88677" lon="7.12809">
        <ele>954.40002441406</ele>
        <time>2020-05-31T08:32:17.000Z</time>
      </trkpt>
      <trkpt lat="47.88673" lon="7.1281">
        <ele>954.40002441406</ele>
        <time>2020-05-31T08:32:18.000Z</time>
      </trkpt>
      <trkpt lat="47.88668" lon="7.12812">
        <ele>954.40002441406</ele>
        <time>2020-05-31T08:32:22.000Z</time>
      </trkpt>
      <trkpt lat="47.88668" lon="7.12812">
        <ele>954.40002441406</ele>
        <time>2020-05-31T08:32:23.000Z</time>
      </trkpt>
      <trkpt lat="47.88665" lon="7.12814">
        <ele>956.40002441406</ele>
        <time>2020-05-31T08:33:16.000Z</time>
      </trkpt>
      <trkpt lat="47.88663" lon="7.12813">
        <ele>956.40002441406</ele>
        <time>2020-05-31T08:33:17.000Z</time>
      </trkpt>
      <trkpt lat="47.88661" lon="7.12814">
        <ele>956.40002441406</ele>
        <time>2020-05-31T08:33:18.000Z</time>
      </trkpt>
      <trkpt lat="47.88648" lon="7.12824">
        <ele>956.40002441406</ele>
        <time>2020-05-31T08:33:23.000Z</time>
      </trkpt>
      <trkpt lat="47.8863" lon="7.12842">
        <ele>956.40002441406</ele>
        <time>2020-05-31T08:33:29.000Z</time>
      </trkpt>
      <trkpt lat="47.88618" lon="7.12848">
        <ele>956.40002441406</ele>
        <time>2020-05-31T08:33:33.000Z</time>
      </trkpt>
      <trkpt lat="47.88614" lon="7.12848">
        <ele>956.40002441406</ele>
        <time>2020-05-31T08:33:34.000Z</time>
      </trkpt>
      <trkpt lat="47.88596" lon="7.1285">
        <ele>956.40002441406</ele>
        <time>2020-05-31T08:33:38.000Z</time>
      </trkpt>
      <trkpt lat="47.88591" lon="7.12851">
        <ele>956.40002441406</ele>
        <time>2020-05-31T08:33:39.000Z</time>
      </trkpt>
      <trkpt lat="47.88563" lon="7.12856">
        <ele>956.40002441406</ele>
        <time>2020-05-31T08:33:45.000Z</time>
      </trkpt>
      <trkpt lat="47.88559" lon="7.12856">
        <ele>956.40002441406</ele>
        <time>2020-05-31T08:33:46.000Z</time>
      </trkpt>
      <trkpt lat="47.88538" lon="7.12866">
        <ele>956.40002441406</ele>
        <time>2020-05-31T08:33:50.000Z</time>
      </trkpt>
      <trkpt lat="47.88534" lon="7.12867">
        <ele>956.40002441406</ele>
        <time>2020-05-31T08:33:51.000Z</time>
      </trkpt>
      <trkpt lat="47.8852" lon="7.12869">
        <ele>956.40002441406</ele>
        <time>2020-05-31T08:33:54.000Z</time>
      </trkpt>
      <trkpt lat="47.88507" lon="7.12875">
        <ele>956.40002441406</ele>
        <time>2020-05-31T08:33:57.000Z</time>
      </trkpt>
      <trkpt lat="47.88502" lon="7.12878">
        <ele>955.79998779297</ele>
        <time>2020-05-31T08:33:58.000Z</time>
      </trkpt>
      <trkpt lat="47.88497" lon="7.12882">
        <ele>955.40002441406</ele>
        <time>2020-05-31T08:33:59.000Z</time>
      </trkpt>
      <trkpt lat="47.88492" lon="7.12887">
        <ele>954.59997558594</ele>
        <time>2020-05-31T08:34:00.000Z</time>
      </trkpt>
      <trkpt lat="47.88486" lon="7.12895">
        <ele>953.79998779297</ele>
        <time>2020-05-31T08:34:01.000Z</time>
      </trkpt>
      <trkpt lat="47.8848" lon="7.12901">
        <ele>953</ele>
        <time>2020-05-31T08:34:02.000Z</time>
      </trkpt>
      <trkpt lat="47.88475" lon="7.12908">
        <ele>951.40002441406</ele>
        <time>2020-05-31T08:34:03.000Z</time>
      </trkpt>
      <trkpt lat="47.88471" lon="7.12911">
        <ele>950.59997558594</ele>
        <time>2020-05-31T08:34:04.000Z</time>
      </trkpt>
      <trkpt lat="47.88468" lon="7.12915">
        <ele>949.79998779297</ele>
        <time>2020-05-31T08:34:05.000Z</time>
      </trkpt>
      <trkpt lat="47.88463" lon="7.1292">
        <ele>949</ele>
        <time>2020-05-31T08:34:06.000Z</time>
      </trkpt>
      <trkpt lat="47.88459" lon="7.12925">
        <ele>948.40002441406</ele>
        <time>2020-05-31T08:34:07.000Z</time>
      </trkpt>
      <trkpt lat="47.88454" lon="7.12931">
        <ele>948</ele>
        <time>2020-05-31T08:34:08.000Z</time>
      </trkpt>
      <trkpt lat="47.88449" lon="7.12937">
        <ele>947.40002441406</ele>
        <time>2020-05-31T08:34:09.000Z</time>
      </trkpt>
      <trkpt lat="47.88445" lon="7.12942">
        <ele>946.79998779297</ele>
        <time>2020-05-31T08:34:10.000Z</time>
      </trkpt>
      <trkpt lat="47.88441" lon="7.12947">
        <ele>946.40002441406</ele>
        <time>2020-05-31T08:34:11.000Z</time>
      </trkpt>
      <trkpt lat="47.88434" lon="7.1295">
        <ele>946</ele>
        <time>2020-05-31T08:34:13.000Z</time>
      </trkpt>
      <trkpt lat="47.88429" lon="7.12951">
        <ele>945.59997558594</ele>
        <time>2020-05-31T08:34:14.000Z</time>
      </trkpt>
      <trkpt lat="47.88424" lon="7.12952">
        <ele>945.20001220703</ele>
        <time>2020-05-31T08:34:15.000Z</time>
      </trkpt>
      <trkpt lat="47.88419" lon="7.12953">
        <ele>944.59997558594</ele>
        <time>2020-05-31T08:34:16.000Z</time>
      </trkpt>
      <trkpt lat="47.88412" lon="7.12951">
        <ele>944</ele>
        <time>2020-05-31T08:34:17.000Z</time>
      </trkpt>
      <trkpt lat="47.88403" lon="7.12951">
        <ele>943.40002441406</ele>
        <time>2020-05-31T08:34:18.000Z</time>
      </trkpt>
      <trkpt lat="47.88395" lon="7.1295">
        <ele>942.40002441406</ele>
        <time>2020-05-31T08:34:19.000Z</time>
      </trkpt>
      <trkpt lat="47.88386" lon="7.1295">
        <ele>941.40002441406</ele>
        <time>2020-05-31T08:34:20.000Z</time>
      </trkpt>
      <trkpt lat="47.88378" lon="7.12948">
        <ele>940.40002441406</ele>
        <time>2020-05-31T08:34:21.000Z</time>
      </trkpt>
      <trkpt lat="47.8837" lon="7.12947">
        <ele>939.40002441406</ele>
        <time>2020-05-31T08:34:22.000Z</time>
      </trkpt>
      <trkpt lat="47.88363" lon="7.12944">
        <ele>938.59997558594</ele>
        <time>2020-05-31T08:34:23.000Z</time>
      </trkpt>
      <trkpt lat="47.88355" lon="7.1294">
        <ele>937.59997558594</ele>
        <time>2020-05-31T08:34:24.000Z</time>
      </trkpt>
      <trkpt lat="47.88348" lon="7.12936">
        <ele>936.79998779297</ele>
        <time>2020-05-31T08:34:25.000Z</time>
      </trkpt>
      <trkpt lat="47.88341" lon="7.12931">
        <ele>935.79998779297</ele>
        <time>2020-05-31T08:34:26.000Z</time>
      </trkpt>
      <trkpt lat="47.88334" lon="7.12926">
        <ele>934.79998779297</ele>
        <time>2020-05-31T08:34:27.000Z</time>
      </trkpt>
      <trkpt lat="47.88326" lon="7.12921">
        <ele>933.20001220703</ele>
        <time>2020-05-31T08:34:28.000Z</time>
      </trkpt>
      <trkpt lat="47.88318" lon="7.12916">
        <ele>932.20001220703</ele>
        <time>2020-05-31T08:34:29.000Z</time>
      </trkpt>
      <trkpt lat="47.8831" lon="7.12911">
        <ele>931.20001220703</ele>
        <time>2020-05-31T08:34:30.000Z</time>
      </trkpt>
      <trkpt lat="47.88303" lon="7.12907">
        <ele>930.20001220703</ele>
        <time>2020-05-31T08:34:31.000Z</time>
      </trkpt>
      <trkpt lat="47.88296" lon="7.12903">
        <ele>929.40002441406</ele>
        <time>2020-05-31T08:34:32.000Z</time>
      </trkpt>
      <trkpt lat="47.88289" lon="7.129">
        <ele>928.59997558594</ele>
        <time>2020-05-31T08:34:33.000Z</time>
      </trkpt>
      <trkpt lat="47.88281" lon="7.12898">
        <ele>927.59997558594</ele>
        <time>2020-05-31T08:34:34.000Z</time>
      </trkpt>
      <trkpt lat="47.88273" lon="7.12896">
        <ele>926.59997558594</ele>
        <time>2020-05-31T08:34:35.000Z</time>
      </trkpt>
      <trkpt lat="47.88265" lon="7.12894">
        <ele>925.59997558594</ele>
        <time>2020-05-31T08:34:36.000Z</time>
      </trkpt>
      <trkpt lat="47.88256" lon="7.12891">
        <ele>924.79998779297</ele>
        <time>2020-05-31T08:34:37.000Z</time>
      </trkpt>
      <trkpt lat="47.88246" lon="7.12887">
        <ele>923.59997558594</ele>
        <time>2020-05-31T08:34:38.000Z</time>
      </trkpt>
      <trkpt lat="47.88236" lon="7.12884">
        <ele>922.40002441406</ele>
        <time>2020-05-31T08:34:39.000Z</time>
      </trkpt>
      <trkpt lat="47.88227" lon="7.1288">
        <ele>921.20001220703</ele>
        <time>2020-05-31T08:34:40.000Z</time>
      </trkpt>
      <trkpt lat="47.88218" lon="7.12876">
        <ele>920.20001220703</ele>
        <time>2020-05-31T08:34:41.000Z</time>
      </trkpt>
      <trkpt lat="47.88209" lon="7.12871">
        <ele>919</ele>
        <time>2020-05-31T08:34:42.000Z</time>
      </trkpt>
      <trkpt lat="47.882" lon="7.12866">
        <ele>917.79998779297</ele>
        <time>2020-05-31T08:34:43.000Z</time>
      </trkpt>
      <trkpt lat="47.88191" lon="7.12862">
        <ele>916.79998779297</ele>
        <time>2020-05-31T08:34:44.000Z</time>
      </trkpt>
      <trkpt lat="47.88183" lon="7.12858">
        <ele>915.59997558594</ele>
        <time>2020-05-31T08:34:45.000Z</time>
      </trkpt>
      <trkpt lat="47.88176" lon="7.12854">
        <ele>914.40002441406</ele>
        <time>2020-05-31T08:34:46.000Z</time>
      </trkpt>
      <trkpt lat="47.88168" lon="7.12851">
        <ele>913.40002441406</ele>
        <time>2020-05-31T08:34:47.000Z</time>
      </trkpt>
      <trkpt lat="47.88161" lon="7.12849">
        <ele>912.59997558594</ele>
        <time>2020-05-31T08:34:48.000Z</time>
      </trkpt>
      <trkpt lat="47.88155" lon="7.12846">
        <ele>911.59997558594</ele>
        <time>2020-05-31T08:34:49.000Z</time>
      </trkpt>
      <trkpt lat="47.88148" lon="7.12844">
        <ele>910.79998779297</ele>
        <time>2020-05-31T08:34:50.000Z</time>
      </trkpt>
      <trkpt lat="47.88141" lon="7.12845">
        <ele>910</ele>
        <time>2020-05-31T08:34:51.000Z</time>
      </trkpt>
      <trkpt lat="47.88135" lon="7.12847">
        <ele>908.59997558594</ele>
        <time>2020-05-31T08:34:52.000Z</time>
      </trkpt>
      <trkpt lat="47.88128" lon="7.12851">
        <ele>907.79998779297</ele>
        <time>2020-05-31T08:34:53.000Z</time>
      </trkpt>
      <trkpt lat="47.88121" lon="7.12852">
        <ele>907</ele>
        <time>2020-05-31T08:34:54.000Z</time>
      </trkpt>
      <trkpt lat="47.88117" lon="7.12855">
        <ele>906.40002441406</ele>
        <time>2020-05-31T08:34:55.000Z</time>
      </trkpt>
      <trkpt lat="47.88115" lon="7.12861">
        <ele>905.59997558594</ele>
        <time>2020-05-31T08:34:56.000Z</time>
      </trkpt>
      <trkpt lat="47.88106" lon="7.12874">
        <ele>905</ele>
        <time>2020-05-31T08:34:58.000Z</time>
      </trkpt>
      <trkpt lat="47.881" lon="7.12879">
        <ele>904.59997558594</ele>
        <time>2020-05-31T08:34:59.000Z</time>
      </trkpt>
      <trkpt lat="47.88093" lon="7.12886">
        <ele>903.59997558594</ele>
        <time>2020-05-31T08:35:00.000Z</time>
      </trkpt>
      <trkpt lat="47.88087" lon="7.12893">
        <ele>902.79998779297</ele>
        <time>2020-05-31T08:35:01.000Z</time>
      </trkpt>
      <trkpt lat="47.8808" lon="7.129">
        <ele>901.79998779297</ele>
        <time>2020-05-31T08:35:02.000Z</time>
      </trkpt>
      <trkpt lat="47.88073" lon="7.12907">
        <ele>900.79998779297</ele>
        <time>2020-05-31T08:35:03.000Z</time>
      </trkpt>
      <trkpt lat="47.88066" lon="7.12907">
        <ele>899.59997558594</ele>
        <time>2020-05-31T08:35:04.000Z</time>
      </trkpt>
      <trkpt lat="47.8806" lon="7.12907">
        <ele>898.59997558594</ele>
        <time>2020-05-31T08:35:05.000Z</time>
      </trkpt>
      <trkpt lat="47.88055" lon="7.12906">
        <ele>897.59997558594</ele>
        <time>2020-05-31T08:35:06.000Z</time>
      </trkpt>
      <trkpt lat="47.88052" lon="7.12906">
        <ele>897.59997558594</ele>
        <time>2020-05-31T08:35:07.000Z</time>
      </trkpt>
      <trkpt lat="47.88049" lon="7.12906">
        <ele>898</ele>
        <time>2020-05-31T08:35:08.000Z</time>
      </trkpt>
      <trkpt lat="47.88048" lon="7.12906">
        <ele>898.40002441406</ele>
        <time>2020-05-31T08:35:09.000Z</time>
      </trkpt>
      <trkpt lat="47.88047" lon="7.12906">
        <ele>898.79998779297</ele>
        <time>2020-05-31T08:35:10.000Z</time>
      </trkpt>
      <trkpt lat="47.88047" lon="7.12907">
        <ele>899.40002441406</ele>
        <time>2020-05-31T08:35:11.000Z</time>
      </trkpt>
      <trkpt lat="47.88042" lon="7.12906">
        <ele>899.79998779297</ele>
        <time>2020-05-31T08:38:27.000Z</time>
      </trkpt>
      <trkpt lat="47.88035" lon="7.129">
        <ele>899.79998779297</ele>
        <time>2020-05-31T08:38:29.000Z</time>
      </trkpt>
      <trkpt lat="47.88029" lon="7.12894">
        <ele>899.79998779297</ele>
        <time>2020-05-31T08:38:30.000Z</time>
      </trkpt>
      <trkpt lat="47.88016" lon="7.12883">
        <ele>899.20001220703</ele>
        <time>2020-05-31T08:38:32.000Z</time>
      </trkpt>
      <trkpt lat="47.88009" lon="7.12877">
        <ele>898.59997558594</ele>
        <time>2020-05-31T08:38:33.000Z</time>
      </trkpt>
      <trkpt lat="47.88003" lon="7.12872">
        <ele>897.79998779297</ele>
        <time>2020-05-31T08:38:34.000Z</time>
      </trkpt>
      <trkpt lat="47.87998" lon="7.12871">
        <ele>896.20001220703</ele>
        <time>2020-05-31T08:38:35.000Z</time>
      </trkpt>
      <trkpt lat="47.87993" lon="7.1287">
        <ele>895.40002441406</ele>
        <time>2020-05-31T08:38:36.000Z</time>
      </trkpt>
      <trkpt lat="47.87988" lon="7.12868">
        <ele>894.59997558594</ele>
        <time>2020-05-31T08:38:37.000Z</time>
      </trkpt>
      <trkpt lat="47.87984" lon="7.12867">
        <ele>894</ele>
        <time>2020-05-31T08:38:38.000Z</time>
      </trkpt>
      <trkpt lat="47.87981" lon="7.12864">
        <ele>893.40002441406</ele>
        <time>2020-05-31T08:38:39.000Z</time>
      </trkpt>
      <trkpt lat="47.87976" lon="7.1286">
        <ele>893</ele>
        <time>2020-05-31T08:38:40.000Z</time>
      </trkpt>
      <trkpt lat="47.87972" lon="7.12855">
        <ele>892.20001220703</ele>
        <time>2020-05-31T08:38:41.000Z</time>
      </trkpt>
      <trkpt lat="47.87967" lon="7.1285">
        <ele>891.59997558594</ele>
        <time>2020-05-31T08:38:42.000Z</time>
      </trkpt>
      <trkpt lat="47.87961" lon="7.12844">
        <ele>890.79998779297</ele>
        <time>2020-05-31T08:38:43.000Z</time>
      </trkpt>
      <trkpt lat="47.87956" lon="7.1284">
        <ele>890</ele>
        <time>2020-05-31T08:38:44.000Z</time>
      </trkpt>
      <trkpt lat="47.87952" lon="7.12837">
        <ele>889.40002441406</ele>
        <time>2020-05-31T08:38:45.000Z</time>
      </trkpt>
      <trkpt lat="47.87949" lon="7.12832">
        <ele>888.59997558594</ele>
        <time>2020-05-31T08:38:46.000Z</time>
      </trkpt>
      <trkpt lat="47.87946" lon="7.12828">
        <ele>887.79998779297</ele>
        <time>2020-05-31T08:38:47.000Z</time>
      </trkpt>
      <trkpt lat="47.87942" lon="7.12822">
        <ele>887.20001220703</ele>
        <time>2020-05-31T08:38:48.000Z</time>
      </trkpt>
      <trkpt lat="47.87938" lon="7.12817">
        <ele>886.59997558594</ele>
        <time>2020-05-31T08:38:49.000Z</time>
      </trkpt>
      <trkpt lat="47.87933" lon="7.12812">
        <ele>886</ele>
        <time>2020-05-31T08:38:50.000Z</time>
      </trkpt>
      <trkpt lat="47.87928" lon="7.12808">
        <ele>885</ele>
        <time>2020-05-31T08:38:51.000Z</time>
      </trkpt>
      <trkpt lat="47.87923" lon="7.12803">
        <ele>884.20001220703</ele>
        <time>2020-05-31T08:38:52.000Z</time>
      </trkpt>
      <trkpt lat="47.87917" lon="7.12801">
        <ele>883</ele>
        <time>2020-05-31T08:38:53.000Z</time>
      </trkpt>
      <trkpt lat="47.87912" lon="7.12799">
        <ele>882</ele>
        <time>2020-05-31T08:38:54.000Z</time>
      </trkpt>
      <trkpt lat="47.87906" lon="7.12797">
        <ele>880.79998779297</ele>
        <time>2020-05-31T08:38:55.000Z</time>
      </trkpt>
      <trkpt lat="47.87901" lon="7.12793">
        <ele>879.59997558594</ele>
        <time>2020-05-31T08:38:56.000Z</time>
      </trkpt>
      <trkpt lat="47.87896" lon="7.12788">
        <ele>878.40002441406</ele>
        <time>2020-05-31T08:38:57.000Z</time>
      </trkpt>
      <trkpt lat="47.8789" lon="7.12784">
        <ele>877.40002441406</ele>
        <time>2020-05-31T08:38:58.000Z</time>
      </trkpt>
      <trkpt lat="47.87885" lon="7.12782">
        <ele>876.20001220703</ele>
        <time>2020-05-31T08:38:59.000Z</time>
      </trkpt>
      <trkpt lat="47.8788" lon="7.1278">
        <ele>874.20001220703</ele>
        <time>2020-05-31T08:39:00.000Z</time>
      </trkpt>
      <trkpt lat="47.87876" lon="7.12776">
        <ele>873.59997558594</ele>
        <time>2020-05-31T08:39:01.000Z</time>
      </trkpt>
      <trkpt lat="47.87872" lon="7.12774">
        <ele>873</ele>
        <time>2020-05-31T08:39:02.000Z</time>
      </trkpt>
      <trkpt lat="47.87866" lon="7.12773">
        <ele>872.20001220703</ele>
        <time>2020-05-31T08:39:03.000Z</time>
      </trkpt>
      <trkpt lat="47.87861" lon="7.1277">
        <ele>871.59997558594</ele>
        <time>2020-05-31T08:39:04.000Z</time>
      </trkpt>
      <trkpt lat="47.87856" lon="7.12769">
        <ele>871</ele>
        <time>2020-05-31T08:39:05.000Z</time>
      </trkpt>
      <trkpt lat="47.87851" lon="7.12767">
        <ele>870.40002441406</ele>
        <time>2020-05-31T08:39:06.000Z</time>
      </trkpt>
      <trkpt lat="47.87846" lon="7.12766">
        <ele>869.59997558594</ele>
        <time>2020-05-31T08:39:07.000Z</time>
      </trkpt>
      <trkpt lat="47.87839" lon="7.12764">
        <ele>868.59997558594</ele>
        <time>2020-05-31T08:39:08.000Z</time>
      </trkpt>
      <trkpt lat="47.87832" lon="7.12758">
        <ele>867.59997558594</ele>
        <time>2020-05-31T08:39:09.000Z</time>
      </trkpt>
      <trkpt lat="47.87827" lon="7.12754">
        <ele>866.40002441406</ele>
        <time>2020-05-31T08:39:10.000Z</time>
      </trkpt>
      <trkpt lat="47.87822" lon="7.12754">
        <ele>865.40002441406</ele>
        <time>2020-05-31T08:39:11.000Z</time>
      </trkpt>
      <trkpt lat="47.87817" lon="7.12752">
        <ele>864.20001220703</ele>
        <time>2020-05-31T08:39:12.000Z</time>
      </trkpt>
      <trkpt lat="47.87812" lon="7.12749">
        <ele>863.20001220703</ele>
        <time>2020-05-31T08:39:13.000Z</time>
      </trkpt>
      <trkpt lat="47.87801" lon="7.12746">
        <ele>862.59997558594</ele>
        <time>2020-05-31T08:39:15.000Z</time>
      </trkpt>
      <trkpt lat="47.87796" lon="7.12744">
        <ele>862.20001220703</ele>
        <time>2020-05-31T08:39:16.000Z</time>
      </trkpt>
      <trkpt lat="47.8779" lon="7.12741">
        <ele>861.59997558594</ele>
        <time>2020-05-31T08:39:17.000Z</time>
      </trkpt>
      <trkpt lat="47.87784" lon="7.12739">
        <ele>861</ele>
        <time>2020-05-31T08:39:18.000Z</time>
      </trkpt>
      <trkpt lat="47.87778" lon="7.12737">
        <ele>860.20001220703</ele>
        <time>2020-05-31T08:39:19.000Z</time>
      </trkpt>
      <trkpt lat="47.87771" lon="7.12735">
        <ele>859.40002441406</ele>
        <time>2020-05-31T08:39:20.000Z</time>
      </trkpt>
      <trkpt lat="47.87764" lon="7.1273">
        <ele>858.40002441406</ele>
        <time>2020-05-31T08:39:21.000Z</time>
      </trkpt>
      <trkpt lat="47.87758" lon="7.12725">
        <ele>857.40002441406</ele>
        <time>2020-05-31T08:39:22.000Z</time>
      </trkpt>
      <trkpt lat="47.87752" lon="7.12722">
        <ele>856.59997558594</ele>
        <time>2020-05-31T08:39:23.000Z</time>
      </trkpt>
      <trkpt lat="47.87747" lon="7.12721">
        <ele>854.79998779297</ele>
        <time>2020-05-31T08:39:24.000Z</time>
      </trkpt>
      <trkpt lat="47.87741" lon="7.1272">
        <ele>854</ele>
        <time>2020-05-31T08:39:25.000Z</time>
      </trkpt>
      <trkpt lat="47.87735" lon="7.12723">
        <ele>853.40002441406</ele>
        <time>2020-05-31T08:39:26.000Z</time>
      </trkpt>
      <trkpt lat="47.8773" lon="7.12726">
        <ele>852.59997558594</ele>
        <time>2020-05-31T08:39:27.000Z</time>
      </trkpt>
      <trkpt lat="47.87726" lon="7.12728">
        <ele>851.79998779297</ele>
        <time>2020-05-31T08:39:28.000Z</time>
      </trkpt>
      <trkpt lat="47.87723" lon="7.1273">
        <ele>851</ele>
        <time>2020-05-31T08:39:29.000Z</time>
      </trkpt>
      <trkpt lat="47.8772" lon="7.12733">
        <ele>851.59997558594</ele>
        <time>2020-05-31T08:39:30.000Z</time>
      </trkpt>
      <trkpt lat="47.87718" lon="7.12738">
        <ele>852</ele>
        <time>2020-05-31T08:39:31.000Z</time>
      </trkpt>
      <trkpt lat="47.87715" lon="7.12741">
        <ele>852.40002441406</ele>
        <time>2020-05-31T08:39:32.000Z</time>
      </trkpt>
      <trkpt lat="47.87711" lon="7.12742">
        <ele>852.79998779297</ele>
        <time>2020-05-31T08:39:33.000Z</time>
      </trkpt>
      <trkpt lat="47.87708" lon="7.12743">
        <ele>853.20001220703</ele>
        <time>2020-05-31T08:39:34.000Z</time>
      </trkpt>
      <trkpt lat="47.87699" lon="7.12747">
        <ele>853.20001220703</ele>
        <time>2020-05-31T08:39:36.000Z</time>
      </trkpt>
      <trkpt lat="47.87683" lon="7.12748">
        <ele>852.79998779297</ele>
        <time>2020-05-31T08:39:39.000Z</time>
      </trkpt>
      <trkpt lat="47.87678" lon="7.12748">
        <ele>852.40002441406</ele>
        <time>2020-05-31T08:39:40.000Z</time>
      </trkpt>
      <trkpt lat="47.8767" lon="7.12746">
        <ele>851.59997558594</ele>
        <time>2020-05-31T08:39:41.000Z</time>
      </trkpt>
      <trkpt lat="47.87664" lon="7.12742">
        <ele>850.79998779297</ele>
        <time>2020-05-31T08:39:42.000Z</time>
      </trkpt>
      <trkpt lat="47.87657" lon="7.12739">
        <ele>850</ele>
        <time>2020-05-31T08:39:43.000Z</time>
      </trkpt>
      <trkpt lat="47.87649" lon="7.12735">
        <ele>849</ele>
        <time>2020-05-31T08:39:44.000Z</time>
      </trkpt>
      <trkpt lat="47.87643" lon="7.12731">
        <ele>848</ele>
        <time>2020-05-31T08:39:45.000Z</time>
      </trkpt>
      <trkpt lat="47.87639" lon="7.12729">
        <ele>847</ele>
        <time>2020-05-31T08:39:46.000Z</time>
      </trkpt>
      <trkpt lat="47.87635" lon="7.12728">
        <ele>846.20001220703</ele>
        <time>2020-05-31T08:39:47.000Z</time>
      </trkpt>
      <trkpt lat="47.8763" lon="7.12725">
        <ele>845.20001220703</ele>
        <time>2020-05-31T08:39:48.000Z</time>
      </trkpt>
      <trkpt lat="47.87626" lon="7.1272">
        <ele>843.59997558594</ele>
        <time>2020-05-31T08:39:49.000Z</time>
      </trkpt>
      <trkpt lat="47.87624" lon="7.12714">
        <ele>842.79998779297</ele>
        <time>2020-05-31T08:39:50.000Z</time>
      </trkpt>
      <trkpt lat="47.87622" lon="7.12708">
        <ele>842.20001220703</ele>
        <time>2020-05-31T08:39:51.000Z</time>
      </trkpt>
      <trkpt lat="47.87619" lon="7.12705">
        <ele>841.40002441406</ele>
        <time>2020-05-31T08:39:52.000Z</time>
      </trkpt>
      <trkpt lat="47.87615" lon="7.12705">
        <ele>840.59997558594</ele>
        <time>2020-05-31T08:39:53.000Z</time>
      </trkpt>
      <trkpt lat="47.87612" lon="7.12705">
        <ele>840.59997558594</ele>
        <time>2020-05-31T08:39:54.000Z</time>
      </trkpt>
      <trkpt lat="47.87607" lon="7.12706">
        <ele>840</ele>
        <time>2020-05-31T08:39:55.000Z</time>
      </trkpt>
      <trkpt lat="47.876" lon="7.12706">
        <ele>839</ele>
        <time>2020-05-31T08:39:56.000Z</time>
      </trkpt>
      <trkpt lat="47.87593" lon="7.12706">
        <ele>838.20001220703</ele>
        <time>2020-05-31T08:39:57.000Z</time>
      </trkpt>
      <trkpt lat="47.87586" lon="7.12706">
        <ele>837.20001220703</ele>
        <time>2020-05-31T08:39:58.000Z</time>
      </trkpt>
      <trkpt lat="47.8758" lon="7.12708">
        <ele>836.20001220703</ele>
        <time>2020-05-31T08:39:59.000Z</time>
      </trkpt>
      <trkpt lat="47.87573" lon="7.12713">
        <ele>835.59997558594</ele>
        <time>2020-05-31T08:40:00.000Z</time>
      </trkpt>
      <trkpt lat="47.87566" lon="7.12721">
        <ele>835</ele>
        <time>2020-05-31T08:40:01.000Z</time>
      </trkpt>
      <trkpt lat="47.8756" lon="7.12728">
        <ele>834.20001220703</ele>
        <time>2020-05-31T08:40:02.000Z</time>
      </trkpt>
      <trkpt lat="47.87556" lon="7.12734">
        <ele>833.40002441406</ele>
        <time>2020-05-31T08:40:03.000Z</time>
      </trkpt>
      <trkpt lat="47.8755" lon="7.12739">
        <ele>832.59997558594</ele>
        <time>2020-05-31T08:40:04.000Z</time>
      </trkpt>
      <trkpt lat="47.87544" lon="7.12742">
        <ele>831.59997558594</ele>
        <time>2020-05-31T08:40:05.000Z</time>
      </trkpt>
      <trkpt lat="47.8754" lon="7.12743">
        <ele>830.79998779297</ele>
        <time>2020-05-31T08:40:06.000Z</time>
      </trkpt>
      <trkpt lat="47.87535" lon="7.12742">
        <ele>830.79998779297</ele>
        <time>2020-05-31T08:40:08.000Z</time>
      </trkpt>
      <trkpt lat="47.87533" lon="7.12741">
        <ele>830.79998779297</ele>
        <time>2020-05-31T08:40:09.000Z</time>
      </trkpt>
      <trkpt lat="47.87529" lon="7.12731">
        <ele>830.79998779297</ele>
        <time>2020-05-31T08:40:56.000Z</time>
      </trkpt>
      <trkpt lat="47.87527" lon="7.12727">
        <ele>830.40002441406</ele>
        <time>2020-05-31T08:40:57.000Z</time>
      </trkpt>
      <trkpt lat="47.87525" lon="7.12722">
        <ele>830</ele>
        <time>2020-05-31T08:40:58.000Z</time>
      </trkpt>
      <trkpt lat="47.87524" lon="7.12719">
        <ele>829.59997558594</ele>
        <time>2020-05-31T08:40:59.000Z</time>
      </trkpt>
      <trkpt lat="47.87523" lon="7.12717">
        <ele>829</ele>
        <time>2020-05-31T08:41:00.000Z</time>
      </trkpt>
      <trkpt lat="47.87523" lon="7.12715">
        <ele>828.40002441406</ele>
        <time>2020-05-31T08:41:01.000Z</time>
      </trkpt>
      <trkpt lat="47.87522" lon="7.12713">
        <ele>827.79998779297</ele>
        <time>2020-05-31T08:41:02.000Z</time>
      </trkpt>
      <trkpt lat="47.87522" lon="7.12713">
        <ele>826.59997558594</ele>
        <time>2020-05-31T08:41:03.000Z</time>
      </trkpt>
      <trkpt lat="47.87514" lon="7.12721">
        <ele>826.59997558594</ele>
        <time>2020-05-31T08:41:20.000Z</time>
      </trkpt>
      <trkpt lat="47.87513" lon="7.1272">
        <ele>826.59997558594</ele>
        <time>2020-05-31T08:41:21.000Z</time>
      </trkpt>
      <trkpt lat="47.87503" lon="7.12715">
        <ele>827</ele>
        <time>2020-05-31T08:41:26.000Z</time>
      </trkpt>
      <trkpt lat="47.87501" lon="7.12715">
        <ele>827.79998779297</ele>
        <time>2020-05-31T08:41:27.000Z</time>
      </trkpt>
      <trkpt lat="47.87498" lon="7.12714">
        <ele>828.20001220703</ele>
        <time>2020-05-31T08:41:28.000Z</time>
      </trkpt>
      <trkpt lat="47.87496" lon="7.12713">
        <ele>828.59997558594</ele>
        <time>2020-05-31T08:41:29.000Z</time>
      </trkpt>
      <trkpt lat="47.8749" lon="7.12709">
        <ele>829</ele>
        <time>2020-05-31T08:41:32.000Z</time>
      </trkpt>
      <trkpt lat="47.87488" lon="7.12707">
        <ele>829.59997558594</ele>
        <time>2020-05-31T08:41:33.000Z</time>
      </trkpt>
      <trkpt lat="47.87485" lon="7.12706">
        <ele>830</ele>
        <time>2020-05-31T08:41:34.000Z</time>
      </trkpt>
      <trkpt lat="47.87483" lon="7.12705">
        <ele>830.40002441406</ele>
        <time>2020-05-31T08:41:35.000Z</time>
      </trkpt>
      <trkpt lat="47.87481" lon="7.12704">
        <ele>831</ele>
        <time>2020-05-31T08:41:36.000Z</time>
      </trkpt>
      <trkpt lat="47.87473" lon="7.12699">
        <ele>831.40002441406</ele>
        <time>2020-05-31T08:41:39.000Z</time>
      </trkpt>
      <trkpt lat="47.87471" lon="7.12698">
        <ele>831.79998779297</ele>
        <time>2020-05-31T08:41:40.000Z</time>
      </trkpt>
      <trkpt lat="47.87469" lon="7.12696">
        <ele>832.20001220703</ele>
        <time>2020-05-31T08:41:41.000Z</time>
      </trkpt>
      <trkpt lat="47.87466" lon="7.12695">
        <ele>832.59997558594</ele>
        <time>2020-05-31T08:41:42.000Z</time>
      </trkpt>
      <trkpt lat="47.87464" lon="7.12694">
        <ele>833</ele>
        <time>2020-05-31T08:41:43.000Z</time>
      </trkpt>
      <trkpt lat="47.87457" lon="7.12691">
        <ele>833.59997558594</ele>
        <time>2020-05-31T08:41:46.000Z</time>
      </trkpt>
      <trkpt lat="47.87455" lon="7.12689">
        <ele>834</ele>
        <time>2020-05-31T08:41:47.000Z</time>
      </trkpt>
      <trkpt lat="47.87453" lon="7.12688">
        <ele>834.40002441406</ele>
        <time>2020-05-31T08:41:48.000Z</time>
      </trkpt>
      <trkpt lat="47.8745" lon="7.12687">
        <ele>834.79998779297</ele>
        <time>2020-05-31T08:41:49.000Z</time>
      </trkpt>
      <trkpt lat="47.87448" lon="7.12686">
        <ele>835.20001220703</ele>
        <time>2020-05-31T08:41:50.000Z</time>
      </trkpt>
      <trkpt lat="47.87446" lon="7.12686">
        <ele>835.20001220703</ele>
        <time>2020-05-31T08:41:51.000Z</time>
      </trkpt>
      <trkpt lat="47.87444" lon="7.12685">
        <ele>835.59997558594</ele>
        <time>2020-05-31T08:41:52.000Z</time>
      </trkpt>
      <trkpt lat="47.87441" lon="7.12683">
        <ele>836.20001220703</ele>
        <time>2020-05-31T08:41:53.000Z</time>
      </trkpt>
      <trkpt lat="47.87438" lon="7.12682">
        <ele>836.59997558594</ele>
        <time>2020-05-31T08:41:54.000Z</time>
      </trkpt>
      <trkpt lat="47.87435" lon="7.12681">
        <ele>837</ele>
        <time>2020-05-31T08:41:55.000Z</time>
      </trkpt>
      <trkpt lat="47.87433" lon="7.1268">
        <ele>837.59997558594</ele>
        <time>2020-05-31T08:41:56.000Z</time>
      </trkpt>
      <trkpt lat="47.87431" lon="7.12679">
        <ele>837.59997558594</ele>
        <time>2020-05-31T08:41:57.000Z</time>
      </trkpt>
      <trkpt lat="47.87428" lon="7.12678">
        <ele>838</ele>
        <time>2020-05-31T08:41:58.000Z</time>
      </trkpt>
      <trkpt lat="47.87425" lon="7.12678">
        <ele>838.40002441406</ele>
        <time>2020-05-31T08:41:59.000Z</time>
      </trkpt>
      <trkpt lat="47.87422" lon="7.12677">
        <ele>838.79998779297</ele>
        <time>2020-05-31T08:42:00.000Z</time>
      </trkpt>
      <trkpt lat="47.8742" lon="7.12676">
        <ele>839.20001220703</ele>
        <time>2020-05-31T08:42:01.000Z</time>
      </trkpt>
      <trkpt lat="47.87417" lon="7.12675">
        <ele>839.59997558594</ele>
        <time>2020-05-31T08:42:02.000Z</time>
      </trkpt>
      <trkpt lat="47.87415" lon="7.12675">
        <ele>839.59997558594</ele>
        <time>2020-05-31T08:42:03.000Z</time>
      </trkpt>
      <trkpt lat="47.87407" lon="7.12672">
        <ele>840</ele>
        <time>2020-05-31T08:42:06.000Z</time>
      </trkpt>
      <trkpt lat="47.87404" lon="7.12671">
        <ele>840.40002441406</ele>
        <time>2020-05-31T08:42:07.000Z</time>
      </trkpt>
      <trkpt lat="47.87402" lon="7.12669">
        <ele>840.79998779297</ele>
        <time>2020-05-31T08:42:08.000Z</time>
      </trkpt>
      <trkpt lat="47.87399" lon="7.12667">
        <ele>841.40002441406</ele>
        <time>2020-05-31T08:42:09.000Z</time>
      </trkpt>
      <trkpt lat="47.87397" lon="7.12665">
        <ele>841.79998779297</ele>
        <time>2020-05-31T08:42:10.000Z</time>
      </trkpt>
      <trkpt lat="47.87386" lon="7.12656">
        <ele>842.59997558594</ele>
        <time>2020-05-31T08:42:15.000Z</time>
      </trkpt>
      <trkpt lat="47.87383" lon="7.12654">
        <ele>843</ele>
        <time>2020-05-31T08:42:16.000Z</time>
      </trkpt>
      <trkpt lat="47.87381" lon="7.12652">
        <ele>843.40002441406</ele>
        <time>2020-05-31T08:42:17.000Z</time>
      </trkpt>
      <trkpt lat="47.87378" lon="7.1265">
        <ele>843.79998779297</ele>
        <time>2020-05-31T08:42:18.000Z</time>
      </trkpt>
      <trkpt lat="47.87374" lon="7.12647">
        <ele>843.79998779297</ele>
        <time>2020-05-31T08:42:20.000Z</time>
      </trkpt>
      <trkpt lat="47.87355" lon="7.12642">
        <ele>843.79998779297</ele>
        <time>2020-05-31T08:42:27.000Z</time>
      </trkpt>
      <trkpt lat="47.87352" lon="7.12642">
        <ele>844.20001220703</ele>
        <time>2020-05-31T08:42:28.000Z</time>
      </trkpt>
      <trkpt lat="47.87349" lon="7.12643">
        <ele>844.59997558594</ele>
        <time>2020-05-31T08:42:29.000Z</time>
      </trkpt>
      <trkpt lat="47.87345" lon="7.12644">
        <ele>845</ele>
        <time>2020-05-31T08:42:30.000Z</time>
      </trkpt>
      <trkpt lat="47.87342" lon="7.12645">
        <ele>845.40002441406</ele>
        <time>2020-05-31T08:42:31.000Z</time>
      </trkpt>
      <trkpt lat="47.8734" lon="7.12645">
        <ele>845.79998779297</ele>
        <time>2020-05-31T08:42:32.000Z</time>
      </trkpt>
      <trkpt lat="47.87337" lon="7.12646">
        <ele>845.79998779297</ele>
        <time>2020-05-31T08:42:33.000Z</time>
      </trkpt>
      <trkpt lat="47.87329" lon="7.12651">
        <ele>846.20001220703</ele>
        <time>2020-05-31T08:42:36.000Z</time>
      </trkpt>
      <trkpt lat="47.87326" lon="7.12653">
        <ele>846.59997558594</ele>
        <time>2020-05-31T08:42:37.000Z</time>
      </trkpt>
      <trkpt lat="47.87324" lon="7.12656">
        <ele>847</ele>
        <time>2020-05-31T08:42:38.000Z</time>
      </trkpt>
      <trkpt lat="47.87322" lon="7.12659">
        <ele>847.40002441406</ele>
        <time>2020-05-31T08:42:39.000Z</time>
      </trkpt>
      <trkpt lat="47.8732" lon="7.12662">
        <ele>848</ele>
        <time>2020-05-31T08:42:40.000Z</time>
      </trkpt>
      <trkpt lat="47.87319" lon="7.12666">
        <ele>848.79998779297</ele>
        <time>2020-05-31T08:42:41.000Z</time>
      </trkpt>
      <trkpt lat="47.87318" lon="7.12669">
        <ele>849.40002441406</ele>
        <time>2020-05-31T08:42:42.000Z</time>
      </trkpt>
      <trkpt lat="47.87318" lon="7.12673">
        <ele>849.79998779297</ele>
        <time>2020-05-31T08:42:43.000Z</time>
      </trkpt>
      <trkpt lat="47.87317" lon="7.12683">
        <ele>850.20001220703</ele>
        <time>2020-05-31T08:42:46.000Z</time>
      </trkpt>
      <trkpt lat="47.87317" lon="7.12686">
        <ele>850.79998779297</ele>
        <time>2020-05-31T08:42:47.000Z</time>
      </trkpt>
      <trkpt lat="47.87316" lon="7.1269">
        <ele>851.20001220703</ele>
        <time>2020-05-31T08:42:48.000Z</time>
      </trkpt>
      <trkpt lat="47.87316" lon="7.12695">
        <ele>851.59997558594</ele>
        <time>2020-05-31T08:42:49.000Z</time>
      </trkpt>
      <trkpt lat="47.87316" lon="7.12699">
        <ele>852</ele>
        <time>2020-05-31T08:42:50.000Z</time>
      </trkpt>
      <trkpt lat="47.87316" lon="7.12706">
        <ele>852</ele>
        <time>2020-05-31T08:42:52.000Z</time>
      </trkpt>
      <trkpt lat="47.87317" lon="7.12725">
        <ele>852.40002441406</ele>
        <time>2020-05-31T08:42:57.000Z</time>
      </trkpt>
      <trkpt lat="47.87317" lon="7.12729">
        <ele>853</ele>
        <time>2020-05-31T08:42:58.000Z</time>
      </trkpt>
      <trkpt lat="47.87317" lon="7.12733">
        <ele>853.40002441406</ele>
        <time>2020-05-31T08:42:59.000Z</time>
      </trkpt>
      <trkpt lat="47.87317" lon="7.12737">
        <ele>854</ele>
        <time>2020-05-31T08:43:00.000Z</time>
      </trkpt>
      <trkpt lat="47.87317" lon="7.12741">
        <ele>854.40002441406</ele>
        <time>2020-05-31T08:43:01.000Z</time>
      </trkpt>
      <trkpt lat="47.87316" lon="7.12756">
        <ele>855.20001220703</ele>
        <time>2020-05-31T08:43:05.000Z</time>
      </trkpt>
      <trkpt lat="47.87316" lon="7.12759">
        <ele>855.59997558594</ele>
        <time>2020-05-31T08:43:06.000Z</time>
      </trkpt>
      <trkpt lat="47.87315" lon="7.12762">
        <ele>856.20001220703</ele>
        <time>2020-05-31T08:43:07.000Z</time>
      </trkpt>
      <trkpt lat="47.87314" lon="7.12765">
        <ele>856.59997558594</ele>
        <time>2020-05-31T08:43:08.000Z</time>
      </trkpt>
      <trkpt lat="47.87309" lon="7.12776">
        <ele>857</ele>
        <time>2020-05-31T08:43:13.000Z</time>
      </trkpt>
      <trkpt lat="47.87307" lon="7.12778">
        <ele>857.40002441406</ele>
        <time>2020-05-31T08:43:14.000Z</time>
      </trkpt>
      <trkpt lat="47.87307" lon="7.12779">
        <ele>857.79998779297</ele>
        <time>2020-05-31T08:43:15.000Z</time>
      </trkpt>
      <trkpt lat="47.87306" lon="7.12779">
        <ele>858.20001220703</ele>
        <time>2020-05-31T08:43:16.000Z</time>
      </trkpt>
      <trkpt lat="47.87305" lon="7.1278">
        <ele>858.59997558594</ele>
        <time>2020-05-31T08:43:17.000Z</time>
      </trkpt>
      <trkpt lat="47.87304" lon="7.12781">
        <ele>858.59997558594</ele>
        <time>2020-05-31T08:43:18.000Z</time>
      </trkpt>
      <trkpt lat="47.87304" lon="7.12784">
        <ele>858.59997558594</ele>
        <time>2020-05-31T08:43:20.000Z</time>
      </trkpt>
      <trkpt lat="47.87308" lon="7.12789">
        <ele>858.59997558594</ele>
        <time>2020-05-31T08:43:26.000Z</time>
      </trkpt>
      <trkpt lat="47.87309" lon="7.12782">
        <ele>858.59997558594</ele>
        <time>2020-05-31T08:43:30.000Z</time>
      </trkpt>
      <trkpt lat="47.87303" lon="7.12772">
        <ele>858.59997558594</ele>
        <time>2020-05-31T08:43:35.000Z</time>
      </trkpt>
      <trkpt lat="47.87297" lon="7.1277">
        <ele>858.59997558594</ele>
        <time>2020-05-31T08:43:39.000Z</time>
      </trkpt>
      <trkpt lat="47.87298" lon="7.12777">
        <ele>858.59997558594</ele>
        <time>2020-05-31T08:43:43.000Z</time>
      </trkpt>
      <trkpt lat="47.87304" lon="7.12781">
        <ele>858.59997558594</ele>
        <time>2020-05-31T08:43:48.000Z</time>
      </trkpt>
      <trkpt lat="47.87303" lon="7.12787">
        <ele>858.59997558594</ele>
        <time>2020-05-31T08:43:53.000Z</time>
      </trkpt>
      <trkpt lat="47.87297" lon="7.12796">
        <ele>860.59997558594</ele>
        <time>2020-05-31T08:45:09.000Z</time>
      </trkpt>
      <trkpt lat="47.87293" lon="7.12804">
        <ele>860.59997558594</ele>
        <time>2020-05-31T08:45:12.000Z</time>
      </trkpt>
      <trkpt lat="47.87289" lon="7.12811">
        <ele>860.59997558594</ele>
        <time>2020-05-31T08:45:15.000Z</time>
      </trkpt>
      <trkpt lat="47.87285" lon="7.12812">
        <ele>860.59997558594</ele>
        <time>2020-05-31T08:45:17.000Z</time>
      </trkpt>
      <trkpt lat="47.87278" lon="7.12813">
        <ele>861</ele>
        <time>2020-05-31T08:45:21.000Z</time>
      </trkpt>
      <trkpt lat="47.87276" lon="7.12814">
        <ele>861.59997558594</ele>
        <time>2020-05-31T08:45:22.000Z</time>
      </trkpt>
      <trkpt lat="47.87273" lon="7.12814">
        <ele>862</ele>
        <time>2020-05-31T08:45:23.000Z</time>
      </trkpt>
      <trkpt lat="47.8727" lon="7.12815">
        <ele>862.59997558594</ele>
        <time>2020-05-31T08:45:24.000Z</time>
      </trkpt>
      <trkpt lat="47.87268" lon="7.12816">
        <ele>863.20001220703</ele>
        <time>2020-05-31T08:45:25.000Z</time>
      </trkpt>
      <trkpt lat="47.87266" lon="7.12817">
        <ele>863.79998779297</ele>
        <time>2020-05-31T08:45:26.000Z</time>
      </trkpt>
      <trkpt lat="47.87265" lon="7.12817">
        <ele>864.40002441406</ele>
        <time>2020-05-31T08:45:27.000Z</time>
      </trkpt>
      <trkpt lat="47.87263" lon="7.12818">
        <ele>865</ele>
        <time>2020-05-31T08:45:28.000Z</time>
      </trkpt>
      <trkpt lat="47.87262" lon="7.12818">
        <ele>865.59997558594</ele>
        <time>2020-05-31T08:45:29.000Z</time>
      </trkpt>
      <trkpt lat="47.8726" lon="7.12819">
        <ele>866.20001220703</ele>
        <time>2020-05-31T08:45:30.000Z</time>
      </trkpt>
      <trkpt lat="47.87259" lon="7.1282">
        <ele>866.79998779297</ele>
        <time>2020-05-31T08:45:31.000Z</time>
      </trkpt>
      <trkpt lat="47.87257" lon="7.12821">
        <ele>867.59997558594</ele>
        <time>2020-05-31T08:45:32.000Z</time>
      </trkpt>
      <trkpt lat="47.87256" lon="7.12821">
        <ele>868.20001220703</ele>
        <time>2020-05-31T08:45:33.000Z</time>
      </trkpt>
      <trkpt lat="47.87254" lon="7.12821">
        <ele>868.79998779297</ele>
        <time>2020-05-31T08:45:34.000Z</time>
      </trkpt>
      <trkpt lat="47.87253" lon="7.12821">
        <ele>870</ele>
        <time>2020-05-31T08:45:35.000Z</time>
      </trkpt>
      <trkpt lat="47.87233" lon="7.12843">
        <ele>878.79998779297</ele>
        <time>2020-05-31T08:49:44.000Z</time>
      </trkpt>
      <trkpt lat="47.87231" lon="7.12841">
        <ele>878.79998779297</ele>
        <time>2020-05-31T08:49:45.000Z</time>
      </trkpt>
      <trkpt lat="47.87224" lon="7.12833">
        <ele>879.20001220703</ele>
        <time>2020-05-31T08:49:49.000Z</time>
      </trkpt>
      <trkpt lat="47.87222" lon="7.12832">
        <ele>879.59997558594</ele>
        <time>2020-05-31T08:49:50.000Z</time>
      </trkpt>
      <trkpt lat="47.8722" lon="7.12831">
        <ele>880</ele>
        <time>2020-05-31T08:49:51.000Z</time>
      </trkpt>
      <trkpt lat="47.87219" lon="7.12829">
        <ele>880.59997558594</ele>
        <time>2020-05-31T08:49:52.000Z</time>
      </trkpt>
      <trkpt lat="47.87219" lon="7.12827">
        <ele>881</ele>
        <time>2020-05-31T08:49:53.000Z</time>
      </trkpt>
      <trkpt lat="47.87219" lon="7.12825">
        <ele>881</ele>
        <time>2020-05-31T08:49:54.000Z</time>
      </trkpt>
      <trkpt lat="47.87217" lon="7.12822">
        <ele>881.40002441406</ele>
        <time>2020-05-31T08:49:56.000Z</time>
      </trkpt>
      <trkpt lat="47.87216" lon="7.12821">
        <ele>881.79998779297</ele>
        <time>2020-05-31T08:49:57.000Z</time>
      </trkpt>
      <trkpt lat="47.87215" lon="7.12819">
        <ele>882.20001220703</ele>
        <time>2020-05-31T08:49:58.000Z</time>
      </trkpt>
      <trkpt lat="47.87214" lon="7.12818">
        <ele>882.59997558594</ele>
        <time>2020-05-31T08:49:59.000Z</time>
      </trkpt>
      <trkpt lat="47.87214" lon="7.12817">
        <ele>883</ele>
        <time>2020-05-31T08:50:00.000Z</time>
      </trkpt>
      <trkpt lat="47.87212" lon="7.12813">
        <ele>883</ele>
        <time>2020-05-31T08:50:08.000Z</time>
      </trkpt>
      <trkpt lat="47.87208" lon="7.12804">
        <ele>883</ele>
        <time>2020-05-31T08:50:10.000Z</time>
      </trkpt>
      <trkpt lat="47.87204" lon="7.12796">
        <ele>882.59997558594</ele>
        <time>2020-05-31T08:50:12.000Z</time>
      </trkpt>
      <trkpt lat="47.87202" lon="7.12793">
        <ele>882</ele>
        <time>2020-05-31T08:50:13.000Z</time>
      </trkpt>
      <trkpt lat="47.87199" lon="7.1279">
        <ele>881.59997558594</ele>
        <time>2020-05-31T08:50:14.000Z</time>
      </trkpt>
      <trkpt lat="47.87195" lon="7.12787">
        <ele>881.20001220703</ele>
        <time>2020-05-31T08:50:15.000Z</time>
      </trkpt>
      <trkpt lat="47.87192" lon="7.12784">
        <ele>880.40002441406</ele>
        <time>2020-05-31T08:50:16.000Z</time>
      </trkpt>
      <trkpt lat="47.87187" lon="7.12781">
        <ele>879.79998779297</ele>
        <time>2020-05-31T08:50:17.000Z</time>
      </trkpt>
      <trkpt lat="47.87183" lon="7.12777">
        <ele>878.79998779297</ele>
        <time>2020-05-31T08:50:18.000Z</time>
      </trkpt>
      <trkpt lat="47.87177" lon="7.12773">
        <ele>877.79998779297</ele>
        <time>2020-05-31T08:50:19.000Z</time>
      </trkpt>
      <trkpt lat="47.87173" lon="7.1277">
        <ele>876.59997558594</ele>
        <time>2020-05-31T08:50:20.000Z</time>
      </trkpt>
      <trkpt lat="47.87169" lon="7.12767">
        <ele>875.40002441406</ele>
        <time>2020-05-31T08:50:21.000Z</time>
      </trkpt>
      <trkpt lat="47.87166" lon="7.12764">
        <ele>874.20001220703</ele>
        <time>2020-05-31T08:50:22.000Z</time>
      </trkpt>
      <trkpt lat="47.87165" lon="7.12763">
        <ele>873</ele>
        <time>2020-05-31T08:50:23.000Z</time>
      </trkpt>
      <trkpt lat="47.87163" lon="7.12761">
        <ele>871.79998779297</ele>
        <time>2020-05-31T08:50:24.000Z</time>
      </trkpt>
      <trkpt lat="47.87161" lon="7.12758">
        <ele>870.79998779297</ele>
        <time>2020-05-31T08:50:25.000Z</time>
      </trkpt>
      <trkpt lat="47.8716" lon="7.12754">
        <ele>869.59997558594</ele>
        <time>2020-05-31T08:50:26.000Z</time>
      </trkpt>
      <trkpt lat="47.87159" lon="7.12748">
        <ele>869</ele>
        <time>2020-05-31T08:50:27.000Z</time>
      </trkpt>
      <trkpt lat="47.87158" lon="7.12742">
        <ele>868.40002441406</ele>
        <time>2020-05-31T08:50:28.000Z</time>
      </trkpt>
      <trkpt lat="47.87157" lon="7.12736">
        <ele>868</ele>
        <time>2020-05-31T08:50:29.000Z</time>
      </trkpt>
      <trkpt lat="47.87155" lon="7.1273">
        <ele>867.40002441406</ele>
        <time>2020-05-31T08:50:30.000Z</time>
      </trkpt>
      <trkpt lat="47.87153" lon="7.12724">
        <ele>867</ele>
        <time>2020-05-31T08:50:31.000Z</time>
      </trkpt>
      <trkpt lat="47.8715" lon="7.12719">
        <ele>867</ele>
        <time>2020-05-31T08:50:32.000Z</time>
      </trkpt>
      <trkpt lat="47.87144" lon="7.1271">
        <ele>866.40002441406</ele>
        <time>2020-05-31T08:50:34.000Z</time>
      </trkpt>
      <trkpt lat="47.8714" lon="7.12705">
        <ele>866</ele>
        <time>2020-05-31T08:50:35.000Z</time>
      </trkpt>
      <trkpt lat="47.87137" lon="7.12701">
        <ele>865.59997558594</ele>
        <time>2020-05-31T08:50:36.000Z</time>
      </trkpt>
      <trkpt lat="47.87133" lon="7.12697">
        <ele>865</ele>
        <time>2020-05-31T08:50:37.000Z</time>
      </trkpt>
      <trkpt lat="47.87131" lon="7.12694">
        <ele>864.59997558594</ele>
        <time>2020-05-31T08:50:38.000Z</time>
      </trkpt>
      <trkpt lat="47.87118" lon="7.12673">
        <ele>865.20001220703</ele>
        <time>2020-05-31T08:50:44.000Z</time>
      </trkpt>
      <trkpt lat="47.87116" lon="7.1267">
        <ele>865.59997558594</ele>
        <time>2020-05-31T08:50:45.000Z</time>
      </trkpt>
      <trkpt lat="47.87113" lon="7.12666">
        <ele>866</ele>
        <time>2020-05-31T08:50:46.000Z</time>
      </trkpt>
      <trkpt lat="47.87111" lon="7.12663">
        <ele>866.59997558594</ele>
        <time>2020-05-31T08:50:47.000Z</time>
      </trkpt>
      <trkpt lat="47.87108" lon="7.1266">
        <ele>867</ele>
        <time>2020-05-31T08:50:48.000Z</time>
      </trkpt>
      <trkpt lat="47.87105" lon="7.12657">
        <ele>867</ele>
        <time>2020-05-31T08:50:49.000Z</time>
      </trkpt>
      <trkpt lat="47.87091" lon="7.12642">
        <ele>867.40002441406</ele>
        <time>2020-05-31T08:50:53.000Z</time>
      </trkpt>
      <trkpt lat="47.87087" lon="7.12639">
        <ele>867.79998779297</ele>
        <time>2020-05-31T08:50:54.000Z</time>
      </trkpt>
      <trkpt lat="47.87084" lon="7.12635">
        <ele>868.20001220703</ele>
        <time>2020-05-31T08:50:55.000Z</time>
      </trkpt>
      <trkpt lat="47.87081" lon="7.12632">
        <ele>868.59997558594</ele>
        <time>2020-05-31T08:50:56.000Z</time>
      </trkpt>
      <trkpt lat="47.87078" lon="7.12629">
        <ele>869.59997558594</ele>
        <time>2020-05-31T08:50:57.000Z</time>
      </trkpt>
      <trkpt lat="47.87074" lon="7.12626">
        <ele>870</ele>
        <time>2020-05-31T08:50:58.000Z</time>
      </trkpt>
      <trkpt lat="47.87071" lon="7.12623">
        <ele>870.40002441406</ele>
        <time>2020-05-31T08:50:59.000Z</time>
      </trkpt>
      <trkpt lat="47.87067" lon="7.12621">
        <ele>871</ele>
        <time>2020-05-31T08:51:00.000Z</time>
      </trkpt>
      <trkpt lat="47.87064" lon="7.1262">
        <ele>871.40002441406</ele>
        <time>2020-05-31T08:51:01.000Z</time>
      </trkpt>
      <trkpt lat="47.87059" lon="7.12618">
        <ele>871.79998779297</ele>
        <time>2020-05-31T08:51:04.000Z</time>
      </trkpt>
      <trkpt lat="47.87059" lon="7.12617">
        <ele>872.20001220703</ele>
        <time>2020-05-31T08:51:05.000Z</time>
      </trkpt>
      <trkpt lat="47.87058" lon="7.12616">
        <ele>873.40002441406</ele>
        <time>2020-05-31T08:51:08.000Z</time>
      </trkpt>
      <trkpt lat="47.87056" lon="7.12615">
        <ele>873.40002441406</ele>
        <time>2020-05-31T08:51:09.000Z</time>
      </trkpt>
      <trkpt lat="47.87046" lon="7.12611">
        <ele>873.40002441406</ele>
        <time>2020-05-31T08:51:14.000Z</time>
      </trkpt>
      <trkpt lat="47.87044" lon="7.12611">
        <ele>873.40002441406</ele>
        <time>2020-05-31T08:51:17.000Z</time>
      </trkpt>
      <trkpt lat="47.8704" lon="7.12613">
        <ele>873.40002441406</ele>
        <time>2020-05-31T08:51:31.000Z</time>
      </trkpt>
      <trkpt lat="47.8703" lon="7.12614">
        <ele>873.40002441406</ele>
        <time>2020-05-31T08:51:35.000Z</time>
      </trkpt>
      <trkpt lat="47.87029" lon="7.12614">
        <ele>873.40002441406</ele>
        <time>2020-05-31T08:51:38.000Z</time>
      </trkpt>
      <trkpt lat="47.87014" lon="7.12612">
        <ele>873.40002441406</ele>
        <time>2020-05-31T08:52:07.000Z</time>
      </trkpt>
      <trkpt lat="47.87012" lon="7.12612">
        <ele>873.40002441406</ele>
        <time>2020-05-31T08:52:08.000Z</time>
      </trkpt>
      <trkpt lat="47.87" lon="7.12615">
        <ele>873.40002441406</ele>
        <time>2020-05-31T08:52:12.000Z</time>
      </trkpt>
      <trkpt lat="47.86994" lon="7.12615">
        <ele>872.79998779297</ele>
        <time>2020-05-31T08:52:14.000Z</time>
      </trkpt>
      <trkpt lat="47.86992" lon="7.12615">
        <ele>872.40002441406</ele>
        <time>2020-05-31T08:52:15.000Z</time>
      </trkpt>
      <trkpt lat="47.8699" lon="7.12615">
        <ele>872</ele>
        <time>2020-05-31T08:52:16.000Z</time>
      </trkpt>
      <trkpt lat="47.86989" lon="7.12616">
        <ele>871.40002441406</ele>
        <time>2020-05-31T08:52:17.000Z</time>
      </trkpt>
      <trkpt lat="47.86987" lon="7.12617">
        <ele>871</ele>
        <time>2020-05-31T08:52:18.000Z</time>
      </trkpt>
      <trkpt lat="47.86985" lon="7.12618">
        <ele>870.59997558594</ele>
        <time>2020-05-31T08:52:19.000Z</time>
      </trkpt>
      <trkpt lat="47.86982" lon="7.12619">
        <ele>870.20001220703</ele>
        <time>2020-05-31T08:52:20.000Z</time>
      </trkpt>
      <trkpt lat="47.86979" lon="7.1262">
        <ele>869.79998779297</ele>
        <time>2020-05-31T08:52:21.000Z</time>
      </trkpt>
      <trkpt lat="47.86976" lon="7.1262">
        <ele>869</ele>
        <time>2020-05-31T08:52:22.000Z</time>
      </trkpt>
      <trkpt lat="47.86974" lon="7.12619">
        <ele>868.40002441406</ele>
        <time>2020-05-31T08:52:23.000Z</time>
      </trkpt>
      <trkpt lat="47.86972" lon="7.12618">
        <ele>867.59997558594</ele>
        <time>2020-05-31T08:52:24.000Z</time>
      </trkpt>
      <trkpt lat="47.8697" lon="7.12617">
        <ele>867</ele>
        <time>2020-05-31T08:52:25.000Z</time>
      </trkpt>
      <trkpt lat="47.86968" lon="7.12616">
        <ele>866.20001220703</ele>
        <time>2020-05-31T08:52:26.000Z</time>
      </trkpt>
      <trkpt lat="47.86966" lon="7.12615">
        <ele>865.59997558594</ele>
        <time>2020-05-31T08:52:27.000Z</time>
      </trkpt>
      <trkpt lat="47.86964" lon="7.12613">
        <ele>864.79998779297</ele>
        <time>2020-05-31T08:52:28.000Z</time>
      </trkpt>
      <trkpt lat="47.86962" lon="7.12611">
        <ele>864.20001220703</ele>
        <time>2020-05-31T08:52:29.000Z</time>
      </trkpt>
      <trkpt lat="47.86958" lon="7.12607">
        <ele>864.20001220703</ele>
        <time>2020-05-31T08:52:32.000Z</time>
      </trkpt>
      <trkpt lat="47.86951" lon="7.12598">
        <ele>864.20001220703</ele>
        <time>2020-05-31T08:52:37.000Z</time>
      </trkpt>
      <trkpt lat="47.8695" lon="7.12596">
        <ele>864.20001220703</ele>
        <time>2020-05-31T08:52:38.000Z</time>
      </trkpt>
      <trkpt lat="47.86942" lon="7.12587">
        <ele>864.20001220703</ele>
        <time>2020-05-31T08:52:42.000Z</time>
      </trkpt>
      <trkpt lat="47.86934" lon="7.12577">
        <ele>863.79998779297</ele>
        <time>2020-05-31T08:52:46.000Z</time>
      </trkpt>
      <trkpt lat="47.86932" lon="7.12575">
        <ele>863.40002441406</ele>
        <time>2020-05-31T08:52:47.000Z</time>
      </trkpt>
      <trkpt lat="47.86931" lon="7.12574">
        <ele>863</ele>
        <time>2020-05-31T08:52:48.000Z</time>
      </trkpt>
      <trkpt lat="47.86939" lon="7.12582">
        <ele>860.20001220703</ele>
        <time>2020-05-31T08:53:58.000Z</time>
      </trkpt>
      <trkpt lat="47.86941" lon="7.12586">
        <ele>860.20001220703</ele>
        <time>2020-05-31T08:53:59.000Z</time>
      </trkpt>
      <trkpt lat="47.86945" lon="7.12598">
        <ele>860.20001220703</ele>
        <time>2020-05-31T08:54:03.000Z</time>
      </trkpt>
      <trkpt lat="47.86953" lon="7.12605">
        <ele>860.20001220703</ele>
        <time>2020-05-31T08:54:09.000Z</time>
      </trkpt>
      <trkpt lat="47.86961" lon="7.12615">
        <ele>860.20001220703</ele>
        <time>2020-05-31T08:54:14.000Z</time>
      </trkpt>
      <trkpt lat="47.86962" lon="7.12617">
        <ele>861</ele>
        <time>2020-05-31T08:54:15.000Z</time>
      </trkpt>
      <trkpt lat="47.86964" lon="7.1262">
        <ele>861.40002441406</ele>
        <time>2020-05-31T08:54:16.000Z</time>
      </trkpt>
      <trkpt lat="47.86966" lon="7.12622">
        <ele>861.79998779297</ele>
        <time>2020-05-31T08:54:17.000Z</time>
      </trkpt>
      <trkpt lat="47.86969" lon="7.12623">
        <ele>862.20001220703</ele>
        <time>2020-05-31T08:54:18.000Z</time>
      </trkpt>
      <trkpt lat="47.8697" lon="7.12623">
        <ele>862.20001220703</ele>
        <time>2020-05-31T08:54:19.000Z</time>
      </trkpt>
      <trkpt lat="47.86972" lon="7.12622">
        <ele>862.59997558594</ele>
        <time>2020-05-31T08:54:20.000Z</time>
      </trkpt>
      <trkpt lat="47.86974" lon="7.12622">
        <ele>863.20001220703</ele>
        <time>2020-05-31T08:54:21.000Z</time>
      </trkpt>
      <trkpt lat="47.86975" lon="7.12622">
        <ele>863.59997558594</ele>
        <time>2020-05-31T08:54:22.000Z</time>
      </trkpt>
      <trkpt lat="47.86977" lon="7.12622">
        <ele>864.20001220703</ele>
        <time>2020-05-31T08:54:23.000Z</time>
      </trkpt>
      <trkpt lat="47.86978" lon="7.12622">
        <ele>864.59997558594</ele>
        <time>2020-05-31T08:54:24.000Z</time>
      </trkpt>
      <trkpt lat="47.86979" lon="7.12622">
        <ele>865.20001220703</ele>
        <time>2020-05-31T08:54:25.000Z</time>
      </trkpt>
      <trkpt lat="47.8698" lon="7.12621">
        <ele>865.79998779297</ele>
        <time>2020-05-31T08:54:26.000Z</time>
      </trkpt>
      <trkpt lat="47.86981" lon="7.12621">
        <ele>866.20001220703</ele>
        <time>2020-05-31T08:54:27.000Z</time>
      </trkpt>
      <trkpt lat="47.86982" lon="7.12621">
        <ele>866.79998779297</ele>
        <time>2020-05-31T08:54:28.000Z</time>
      </trkpt>
      <trkpt lat="47.86984" lon="7.12621">
        <ele>867.40002441406</ele>
        <time>2020-05-31T08:54:29.000Z</time>
      </trkpt>
      <trkpt lat="47.86985" lon="7.1262">
        <ele>867.79998779297</ele>
        <time>2020-05-31T08:54:30.000Z</time>
      </trkpt>
      <trkpt lat="47.86986" lon="7.1262">
        <ele>868.20001220703</ele>
        <time>2020-05-31T08:54:31.000Z</time>
      </trkpt>
      <trkpt lat="47.86986" lon="7.12621">
        <ele>868.59997558594</ele>
        <time>2020-05-31T08:54:32.000Z</time>
      </trkpt>
      <trkpt lat="47.86987" lon="7.12621">
        <ele>869</ele>
        <time>2020-05-31T08:54:33.000Z</time>
      </trkpt>
      <trkpt lat="47.86999" lon="7.12617">
        <ele>871.59997558594</ele>
        <time>2020-05-31T08:54:45.000Z</time>
      </trkpt>
      <trkpt lat="47.87004" lon="7.12617">
        <ele>871.59997558594</ele>
        <time>2020-05-31T08:54:48.000Z</time>
      </trkpt>
      <trkpt lat="47.87004" lon="7.12617">
        <ele>871.59997558594</ele>
        <time>2020-05-31T08:54:49.000Z</time>
      </trkpt>
      <trkpt lat="47.87013" lon="7.12624">
        <ele>873.59997558594</ele>
        <time>2020-05-31T08:55:20.000Z</time>
      </trkpt>
      <trkpt lat="47.87019" lon="7.12624">
        <ele>873.59997558594</ele>
        <time>2020-05-31T08:55:22.000Z</time>
      </trkpt>
      <trkpt lat="47.87021" lon="7.12623">
        <ele>873.20001220703</ele>
        <time>2020-05-31T08:55:23.000Z</time>
      </trkpt>
      <trkpt lat="47.87024" lon="7.12622">
        <ele>872.79998779297</ele>
        <time>2020-05-31T08:55:24.000Z</time>
      </trkpt>
      <trkpt lat="47.87027" lon="7.12621">
        <ele>872.40002441406</ele>
        <time>2020-05-31T08:55:25.000Z</time>
      </trkpt>
      <trkpt lat="47.87028" lon="7.1262">
        <ele>872</ele>
        <time>2020-05-31T08:55:26.000Z</time>
      </trkpt>
      <trkpt lat="47.8703" lon="7.12619">
        <ele>871.59997558594</ele>
        <time>2020-05-31T08:55:27.000Z</time>
      </trkpt>
      <trkpt lat="47.8703" lon="7.12618">
        <ele>871.59997558594</ele>
        <time>2020-05-31T08:55:28.000Z</time>
      </trkpt>
      <trkpt lat="47.87031" lon="7.12618">
        <ele>872</ele>
        <time>2020-05-31T08:55:29.000Z</time>
      </trkpt>
      <trkpt lat="47.87032" lon="7.12617">
        <ele>872.59997558594</ele>
        <time>2020-05-31T08:55:30.000Z</time>
      </trkpt>
      <trkpt lat="47.87033" lon="7.12617">
        <ele>873</ele>
        <time>2020-05-31T08:55:31.000Z</time>
      </trkpt>
      <trkpt lat="47.87034" lon="7.12617">
        <ele>873.40002441406</ele>
        <time>2020-05-31T08:55:32.000Z</time>
      </trkpt>
      <trkpt lat="47.87034" lon="7.12616">
        <ele>873.79998779297</ele>
        <time>2020-05-31T08:55:33.000Z</time>
      </trkpt>
      <trkpt lat="47.87035" lon="7.12616">
        <ele>873.79998779297</ele>
        <time>2020-05-31T08:55:34.000Z</time>
      </trkpt>
      <trkpt lat="47.87038" lon="7.12621">
        <ele>873.79998779297</ele>
        <time>2020-05-31T08:55:38.000Z</time>
      </trkpt>
      <trkpt lat="47.8705" lon="7.12621">
        <ele>873.79998779297</ele>
        <time>2020-05-31T08:55:43.000Z</time>
      </trkpt>
      <trkpt lat="47.87059" lon="7.12627">
        <ele>873.79998779297</ele>
        <time>2020-05-31T08:55:47.000Z</time>
      </trkpt>
      <trkpt lat="47.87067" lon="7.12631">
        <ele>873.40002441406</ele>
        <time>2020-05-31T08:55:49.000Z</time>
      </trkpt>
      <trkpt lat="47.87071" lon="7.12634">
        <ele>872.79998779297</ele>
        <time>2020-05-31T08:55:50.000Z</time>
      </trkpt>
      <trkpt lat="47.87076" lon="7.12638">
        <ele>872.40002441406</ele>
        <time>2020-05-31T08:55:51.000Z</time>
      </trkpt>
      <trkpt lat="47.87081" lon="7.12642">
        <ele>871.79998779297</ele>
        <time>2020-05-31T08:55:52.000Z</time>
      </trkpt>
      <trkpt lat="47.87087" lon="7.12647">
        <ele>870.59997558594</ele>
        <time>2020-05-31T08:55:53.000Z</time>
      </trkpt>
      <trkpt lat="47.87091" lon="7.12652">
        <ele>870</ele>
        <time>2020-05-31T08:55:54.000Z</time>
      </trkpt>
      <trkpt lat="47.87096" lon="7.12656">
        <ele>869.40002441406</ele>
        <time>2020-05-31T08:55:55.000Z</time>
      </trkpt>
      <trkpt lat="47.87101" lon="7.12661">
        <ele>868.79998779297</ele>
        <time>2020-05-31T08:55:56.000Z</time>
      </trkpt>
      <trkpt lat="47.87105" lon="7.12666">
        <ele>868</ele>
        <time>2020-05-31T08:55:57.000Z</time>
      </trkpt>
      <trkpt lat="47.87109" lon="7.12673">
        <ele>867.40002441406</ele>
        <time>2020-05-31T08:55:58.000Z</time>
      </trkpt>
      <trkpt lat="47.87114" lon="7.12681">
        <ele>866.79998779297</ele>
        <time>2020-05-31T08:55:59.000Z</time>
      </trkpt>
      <trkpt lat="47.87118" lon="7.12687">
        <ele>866.79998779297</ele>
        <time>2020-05-31T08:56:00.000Z</time>
      </trkpt>
      <trkpt lat="47.87122" lon="7.12693">
        <ele>866.20001220703</ele>
        <time>2020-05-31T08:56:01.000Z</time>
      </trkpt>
      <trkpt lat="47.87126" lon="7.12699">
        <ele>865.79998779297</ele>
        <time>2020-05-31T08:56:02.000Z</time>
      </trkpt>
      <trkpt lat="47.8713" lon="7.12705">
        <ele>865.40002441406</ele>
        <time>2020-05-31T08:56:03.000Z</time>
      </trkpt>
      <trkpt lat="47.87135" lon="7.1271">
        <ele>865</ele>
        <time>2020-05-31T08:56:04.000Z</time>
      </trkpt>
      <trkpt lat="47.87139" lon="7.12715">
        <ele>864.40002441406</ele>
        <time>2020-05-31T08:56:05.000Z</time>
      </trkpt>
      <trkpt lat="47.87141" lon="7.1272">
        <ele>864.40002441406</ele>
        <time>2020-05-31T08:56:06.000Z</time>
      </trkpt>
      <trkpt lat="47.87149" lon="7.12745">
        <ele>864.40002441406</ele>
        <time>2020-05-31T08:56:11.000Z</time>
      </trkpt>
      <trkpt lat="47.87157" lon="7.1276">
        <ele>864.40002441406</ele>
        <time>2020-05-31T08:56:15.000Z</time>
      </trkpt>
      <trkpt lat="47.87158" lon="7.12761">
        <ele>864.79998779297</ele>
        <time>2020-05-31T08:56:16.000Z</time>
      </trkpt>
      <trkpt lat="47.87161" lon="7.12763">
        <ele>865.79998779297</ele>
        <time>2020-05-31T08:56:17.000Z</time>
      </trkpt>
      <trkpt lat="47.87164" lon="7.12765">
        <ele>866.20001220703</ele>
        <time>2020-05-31T08:56:18.000Z</time>
      </trkpt>
      <trkpt lat="47.87167" lon="7.12767">
        <ele>866.79998779297</ele>
        <time>2020-05-31T08:56:19.000Z</time>
      </trkpt>
      <trkpt lat="47.8717" lon="7.12768">
        <ele>867.20001220703</ele>
        <time>2020-05-31T08:56:20.000Z</time>
      </trkpt>
      <trkpt lat="47.87173" lon="7.1277">
        <ele>867.79998779297</ele>
        <time>2020-05-31T08:56:21.000Z</time>
      </trkpt>
      <trkpt lat="47.87176" lon="7.12772">
        <ele>868.40002441406</ele>
        <time>2020-05-31T08:56:22.000Z</time>
      </trkpt>
      <trkpt lat="47.87178" lon="7.12774">
        <ele>868.79998779297</ele>
        <time>2020-05-31T08:56:23.000Z</time>
      </trkpt>
      <trkpt lat="47.87182" lon="7.12775">
        <ele>869.40002441406</ele>
        <time>2020-05-31T08:56:24.000Z</time>
      </trkpt>
      <trkpt lat="47.87184" lon="7.12777">
        <ele>870</ele>
        <time>2020-05-31T08:56:25.000Z</time>
      </trkpt>
      <trkpt lat="47.87186" lon="7.12778">
        <ele>870.40002441406</ele>
        <time>2020-05-31T08:56:26.000Z</time>
      </trkpt>
      <trkpt lat="47.87188" lon="7.12779">
        <ele>871</ele>
        <time>2020-05-31T08:56:27.000Z</time>
      </trkpt>
      <trkpt lat="47.87189" lon="7.12782">
        <ele>871.59997558594</ele>
        <time>2020-05-31T08:56:28.000Z</time>
      </trkpt>
      <trkpt lat="47.87191" lon="7.12784">
        <ele>872.20001220703</ele>
        <time>2020-05-31T08:56:29.000Z</time>
      </trkpt>
      <trkpt lat="47.87193" lon="7.12786">
        <ele>873</ele>
        <time>2020-05-31T08:56:30.000Z</time>
      </trkpt>
      <trkpt lat="47.87194" lon="7.12788">
        <ele>873.59997558594</ele>
        <time>2020-05-31T08:56:31.000Z</time>
      </trkpt>
      <trkpt lat="47.87196" lon="7.12789">
        <ele>874.20001220703</ele>
        <time>2020-05-31T08:56:32.000Z</time>
      </trkpt>
      <trkpt lat="47.87198" lon="7.1279">
        <ele>875</ele>
        <time>2020-05-31T08:56:33.000Z</time>
      </trkpt>
      <trkpt lat="47.87199" lon="7.12791">
        <ele>875.59997558594</ele>
        <time>2020-05-31T08:56:34.000Z</time>
      </trkpt>
      <trkpt lat="47.87201" lon="7.12793">
        <ele>876.20001220703</ele>
        <time>2020-05-31T08:56:35.000Z</time>
      </trkpt>
      <trkpt lat="47.87202" lon="7.12794">
        <ele>876.79998779297</ele>
        <time>2020-05-31T08:56:36.000Z</time>
      </trkpt>
      <trkpt lat="47.87203" lon="7.12797">
        <ele>877.40002441406</ele>
        <time>2020-05-31T08:56:37.000Z</time>
      </trkpt>
      <trkpt lat="47.87205" lon="7.128">
        <ele>877.79998779297</ele>
        <time>2020-05-31T08:56:38.000Z</time>
      </trkpt>
      <trkpt lat="47.87206" lon="7.12803">
        <ele>878.40002441406</ele>
        <time>2020-05-31T08:56:39.000Z</time>
      </trkpt>
      <trkpt lat="47.87207" lon="7.12805">
        <ele>878.79998779297</ele>
        <time>2020-05-31T08:56:40.000Z</time>
      </trkpt>
      <trkpt lat="47.87209" lon="7.12808">
        <ele>879.59997558594</ele>
        <time>2020-05-31T08:56:41.000Z</time>
      </trkpt>
      <trkpt lat="47.8721" lon="7.12811">
        <ele>880</ele>
        <time>2020-05-31T08:56:42.000Z</time>
      </trkpt>
      <trkpt lat="47.87211" lon="7.12814">
        <ele>880.59997558594</ele>
        <time>2020-05-31T08:56:43.000Z</time>
      </trkpt>
      <trkpt lat="47.87211" lon="7.12816">
        <ele>881</ele>
        <time>2020-05-31T08:56:44.000Z</time>
      </trkpt>
      <trkpt lat="47.87213" lon="7.12819">
        <ele>881.59997558594</ele>
        <time>2020-05-31T08:56:45.000Z</time>
      </trkpt>
      <trkpt lat="47.87214" lon="7.12822">
        <ele>882</ele>
        <time>2020-05-31T08:56:46.000Z</time>
      </trkpt>
      <trkpt lat="47.87221" lon="7.12836">
        <ele>882</ele>
        <time>2020-05-31T08:56:51.000Z</time>
      </trkpt>
      <trkpt lat="47.87227" lon="7.12845">
        <ele>881.59997558594</ele>
        <time>2020-05-31T08:56:53.000Z</time>
      </trkpt>
      <trkpt lat="47.8723" lon="7.12849">
        <ele>881.20001220703</ele>
        <time>2020-05-31T08:56:54.000Z</time>
      </trkpt>
      <trkpt lat="47.87232" lon="7.12854">
        <ele>880.59997558594</ele>
        <time>2020-05-31T08:56:55.000Z</time>
      </trkpt>
      <trkpt lat="47.87233" lon="7.12862">
        <ele>880</ele>
        <time>2020-05-31T08:56:56.000Z</time>
      </trkpt>
      <trkpt lat="47.87234" lon="7.12869">
        <ele>879.20001220703</ele>
        <time>2020-05-31T08:56:57.000Z</time>
      </trkpt>
      <trkpt lat="47.87235" lon="7.12877">
        <ele>878.40002441406</ele>
        <time>2020-05-31T08:56:58.000Z</time>
      </trkpt>
      <trkpt lat="47.87236" lon="7.12884">
        <ele>877.59997558594</ele>
        <time>2020-05-31T08:56:59.000Z</time>
      </trkpt>
      <trkpt lat="47.87236" lon="7.1289">
        <ele>876.79998779297</ele>
        <time>2020-05-31T08:57:00.000Z</time>
      </trkpt>
      <trkpt lat="47.87235" lon="7.12897">
        <ele>876</ele>
        <time>2020-05-31T08:57:01.000Z</time>
      </trkpt>
      <trkpt lat="47.87235" lon="7.12904">
        <ele>875</ele>
        <time>2020-05-31T08:57:02.000Z</time>
      </trkpt>
      <trkpt lat="47.87235" lon="7.1291">
        <ele>874.20001220703</ele>
        <time>2020-05-31T08:57:03.000Z</time>
      </trkpt>
      <trkpt lat="47.87235" lon="7.12916">
        <ele>873.40002441406</ele>
        <time>2020-05-31T08:57:04.000Z</time>
      </trkpt>
      <trkpt lat="47.87235" lon="7.12923">
        <ele>872.59997558594</ele>
        <time>2020-05-31T08:57:05.000Z</time>
      </trkpt>
      <trkpt lat="47.87234" lon="7.12929">
        <ele>871.20001220703</ele>
        <time>2020-05-31T08:57:06.000Z</time>
      </trkpt>
      <trkpt lat="47.87233" lon="7.12934">
        <ele>870.40002441406</ele>
        <time>2020-05-31T08:57:07.000Z</time>
      </trkpt>
      <trkpt lat="47.87231" lon="7.1294">
        <ele>869.40002441406</ele>
        <time>2020-05-31T08:57:08.000Z</time>
      </trkpt>
      <trkpt lat="47.87228" lon="7.12947">
        <ele>868.59997558594</ele>
        <time>2020-05-31T08:57:09.000Z</time>
      </trkpt>
      <trkpt lat="47.87226" lon="7.12955">
        <ele>867.59997558594</ele>
        <time>2020-05-31T08:57:10.000Z</time>
      </trkpt>
      <trkpt lat="47.87225" lon="7.12964">
        <ele>866.59997558594</ele>
        <time>2020-05-31T08:57:11.000Z</time>
      </trkpt>
      <trkpt lat="47.87224" lon="7.12972">
        <ele>865.79998779297</ele>
        <time>2020-05-31T08:57:12.000Z</time>
      </trkpt>
      <trkpt lat="47.87223" lon="7.12977">
        <ele>864.79998779297</ele>
        <time>2020-05-31T08:57:13.000Z</time>
      </trkpt>
      <trkpt lat="47.87223" lon="7.12981">
        <ele>863.79998779297</ele>
        <time>2020-05-31T08:57:14.000Z</time>
      </trkpt>
      <trkpt lat="47.87222" lon="7.12983">
        <ele>863</ele>
        <time>2020-05-31T08:57:15.000Z</time>
      </trkpt>
      <trkpt lat="47.87222" lon="7.12985">
        <ele>863</ele>
        <time>2020-05-31T08:57:16.000Z</time>
      </trkpt>
      <trkpt lat="47.87222" lon="7.12992">
        <ele>863.40002441406</ele>
        <time>2020-05-31T08:57:18.000Z</time>
      </trkpt>
      <trkpt lat="47.87221" lon="7.12996">
        <ele>863.79998779297</ele>
        <time>2020-05-31T08:57:19.000Z</time>
      </trkpt>
      <trkpt lat="47.8722" lon="7.13001">
        <ele>864.20001220703</ele>
        <time>2020-05-31T08:57:20.000Z</time>
      </trkpt>
      <trkpt lat="47.8722" lon="7.13005">
        <ele>864.59997558594</ele>
        <time>2020-05-31T08:57:21.000Z</time>
      </trkpt>
      <trkpt lat="47.8722" lon="7.13009">
        <ele>865</ele>
        <time>2020-05-31T08:57:22.000Z</time>
      </trkpt>
      <trkpt lat="47.87219" lon="7.13022">
        <ele>865</ele>
        <time>2020-05-31T08:57:25.000Z</time>
      </trkpt>
      <trkpt lat="47.8722" lon="7.13026">
        <ele>865.40002441406</ele>
        <time>2020-05-31T08:57:26.000Z</time>
      </trkpt>
      <trkpt lat="47.8722" lon="7.1303">
        <ele>865.79998779297</ele>
        <time>2020-05-31T08:57:27.000Z</time>
      </trkpt>
      <trkpt lat="47.87221" lon="7.13034">
        <ele>866.20001220703</ele>
        <time>2020-05-31T08:57:28.000Z</time>
      </trkpt>
      <trkpt lat="47.87221" lon="7.13037">
        <ele>866.59997558594</ele>
        <time>2020-05-31T08:57:29.000Z</time>
      </trkpt>
      <trkpt lat="47.87221" lon="7.1304">
        <ele>867</ele>
        <time>2020-05-31T08:57:30.000Z</time>
      </trkpt>
      <trkpt lat="47.87219" lon="7.13059">
        <ele>867</ele>
        <time>2020-05-31T08:57:35.000Z</time>
      </trkpt>
      <trkpt lat="47.87218" lon="7.13066">
        <ele>867</ele>
        <time>2020-05-31T08:57:36.000Z</time>
      </trkpt>
      <trkpt lat="47.87212" lon="7.1308">
        <ele>867</ele>
        <time>2020-05-31T08:57:39.000Z</time>
      </trkpt>
      <trkpt lat="47.87211" lon="7.13084">
        <ele>867</ele>
        <time>2020-05-31T08:57:40.000Z</time>
      </trkpt>
      <trkpt lat="47.87204" lon="7.13098">
        <ele>867</ele>
        <time>2020-05-31T08:57:43.000Z</time>
      </trkpt>
      <trkpt lat="47.87201" lon="7.13102">
        <ele>867</ele>
        <time>2020-05-31T08:57:44.000Z</time>
      </trkpt>
      <trkpt lat="47.87194" lon="7.1311">
        <ele>867</ele>
        <time>2020-05-31T08:57:47.000Z</time>
      </trkpt>
      <trkpt lat="47.87194" lon="7.13113">
        <ele>867</ele>
        <time>2020-05-31T08:57:48.000Z</time>
      </trkpt>
      <trkpt lat="47.87193" lon="7.13125">
        <ele>866.59997558594</ele>
        <time>2020-05-31T08:57:52.000Z</time>
      </trkpt>
      <trkpt lat="47.87192" lon="7.13129">
        <ele>866.20001220703</ele>
        <time>2020-05-31T08:57:53.000Z</time>
      </trkpt>
      <trkpt lat="47.87192" lon="7.13132">
        <ele>865.59997558594</ele>
        <time>2020-05-31T08:57:54.000Z</time>
      </trkpt>
      <trkpt lat="47.87192" lon="7.13136">
        <ele>865.20001220703</ele>
        <time>2020-05-31T08:57:55.000Z</time>
      </trkpt>
      <trkpt lat="47.87192" lon="7.1314">
        <ele>864.40002441406</ele>
        <time>2020-05-31T08:57:56.000Z</time>
      </trkpt>
      <trkpt lat="47.87191" lon="7.13144">
        <ele>864</ele>
        <time>2020-05-31T08:57:57.000Z</time>
      </trkpt>
      <trkpt lat="47.87191" lon="7.13147">
        <ele>863.40002441406</ele>
        <time>2020-05-31T08:57:58.000Z</time>
      </trkpt>
      <trkpt lat="47.8719" lon="7.1315">
        <ele>863</ele>
        <time>2020-05-31T08:57:59.000Z</time>
      </trkpt>
      <trkpt lat="47.87189" lon="7.13153">
        <ele>862.59997558594</ele>
        <time>2020-05-31T08:58:00.000Z</time>
      </trkpt>
      <trkpt lat="47.87188" lon="7.13161">
        <ele>862.59997558594</ele>
        <time>2020-05-31T08:58:03.000Z</time>
      </trkpt>
      <trkpt lat="47.87187" lon="7.13162">
        <ele>862.59997558594</ele>
        <time>2020-05-31T08:58:04.000Z</time>
      </trkpt>
      <trkpt lat="47.87187" lon="7.13165">
        <ele>860.59997558594</ele>
        <time>2020-05-31T08:58:27.000Z</time>
      </trkpt>
      <trkpt lat="47.87189" lon="7.1317">
        <ele>860.59997558594</ele>
        <time>2020-05-31T08:58:29.000Z</time>
      </trkpt>
      <trkpt lat="47.87189" lon="7.1318">
        <ele>860.59997558594</ele>
        <time>2020-05-31T08:58:33.000Z</time>
      </trkpt>
      <trkpt lat="47.87194" lon="7.13191">
        <ele>860.59997558594</ele>
        <time>2020-05-31T08:59:02.000Z</time>
      </trkpt>
      <trkpt lat="47.87195" lon="7.13202">
        <ele>860.59997558594</ele>
        <time>2020-05-31T08:59:07.000Z</time>
      </trkpt>
      <trkpt lat="47.87195" lon="7.13205">
        <ele>860.20001220703</ele>
        <time>2020-05-31T08:59:09.000Z</time>
      </trkpt>
      <trkpt lat="47.87195" lon="7.13206">
        <ele>859.59997558594</ele>
        <time>2020-05-31T08:59:10.000Z</time>
      </trkpt>
      <trkpt lat="47.87196" lon="7.13207">
        <ele>859.20001220703</ele>
        <time>2020-05-31T08:59:11.000Z</time>
      </trkpt>
      <trkpt lat="47.87197" lon="7.13215">
        <ele>858.40002441406</ele>
        <time>2020-05-31T08:59:26.000Z</time>
      </trkpt>
      <trkpt lat="47.87197" lon="7.13216">
        <ele>858.40002441406</ele>
        <time>2020-05-31T08:59:27.000Z</time>
      </trkpt>
      <trkpt lat="47.87197" lon="7.13217">
        <ele>858.40002441406</ele>
        <time>2020-05-31T08:59:28.000Z</time>
      </trkpt>
      <trkpt lat="47.8719" lon="7.1316">
        <ele>860.59997558594</ele>
        <time>2020-05-31T09:01:01.000Z</time>
      </trkpt>
      <trkpt lat="47.87191" lon="7.13157">
        <ele>860.59997558594</ele>
        <time>2020-05-31T09:01:03.000Z</time>
      </trkpt>
      <trkpt lat="47.87192" lon="7.13153">
        <ele>860.59997558594</ele>
        <time>2020-05-31T09:01:05.000Z</time>
      </trkpt>
      <trkpt lat="47.87192" lon="7.13144">
        <ele>860.59997558594</ele>
        <time>2020-05-31T09:01:08.000Z</time>
      </trkpt>
      <trkpt lat="47.87193" lon="7.13138">
        <ele>860.59997558594</ele>
        <time>2020-05-31T09:01:10.000Z</time>
      </trkpt>
      <trkpt lat="47.87193" lon="7.13136">
        <ele>861</ele>
        <time>2020-05-31T09:01:11.000Z</time>
      </trkpt>
      <trkpt lat="47.87194" lon="7.13134">
        <ele>861.79998779297</ele>
        <time>2020-05-31T09:01:12.000Z</time>
      </trkpt>
      <trkpt lat="47.87194" lon="7.13131">
        <ele>862.40002441406</ele>
        <time>2020-05-31T09:01:13.000Z</time>
      </trkpt>
      <trkpt lat="47.87195" lon="7.13128">
        <ele>862.79998779297</ele>
        <time>2020-05-31T09:01:14.000Z</time>
      </trkpt>
      <trkpt lat="47.87196" lon="7.13118">
        <ele>863.20001220703</ele>
        <time>2020-05-31T09:01:18.000Z</time>
      </trkpt>
      <trkpt lat="47.87196" lon="7.13117">
        <ele>863.59997558594</ele>
        <time>2020-05-31T09:01:19.000Z</time>
      </trkpt>
      <trkpt lat="47.87193" lon="7.13112">
        <ele>864.79998779297</ele>
        <time>2020-05-31T09:01:51.000Z</time>
      </trkpt>
      <trkpt lat="47.87181" lon="7.13103">
        <ele>864.79998779297</ele>
        <time>2020-05-31T09:01:55.000Z</time>
      </trkpt>
      <trkpt lat="47.87177" lon="7.13104">
        <ele>864.40002441406</ele>
        <time>2020-05-31T09:01:56.000Z</time>
      </trkpt>
      <trkpt lat="47.87173" lon="7.13106">
        <ele>863.79998779297</ele>
        <time>2020-05-31T09:01:57.000Z</time>
      </trkpt>
      <trkpt lat="47.8717" lon="7.13108">
        <ele>862.40002441406</ele>
        <time>2020-05-31T09:01:58.000Z</time>
      </trkpt>
      <trkpt lat="47.87166" lon="7.13111">
        <ele>860.79998779297</ele>
        <time>2020-05-31T09:02:00.000Z</time>
      </trkpt>
      <trkpt lat="47.87163" lon="7.13113">
        <ele>860.20001220703</ele>
        <time>2020-05-31T09:02:01.000Z</time>
      </trkpt>
      <trkpt lat="47.87162" lon="7.13116">
        <ele>859.59997558594</ele>
        <time>2020-05-31T09:02:02.000Z</time>
      </trkpt>
      <trkpt lat="47.8716" lon="7.13122">
        <ele>859.20001220703</ele>
        <time>2020-05-31T09:02:03.000Z</time>
      </trkpt>
      <trkpt lat="47.87159" lon="7.13132">
        <ele>858.20001220703</ele>
        <time>2020-05-31T09:02:04.000Z</time>
      </trkpt>
      <trkpt lat="47.87157" lon="7.13141">
        <ele>857.40002441406</ele>
        <time>2020-05-31T09:02:05.000Z</time>
      </trkpt>
      <trkpt lat="47.87157" lon="7.1315">
        <ele>856.40002441406</ele>
        <time>2020-05-31T09:02:06.000Z</time>
      </trkpt>
      <trkpt lat="47.87155" lon="7.1316">
        <ele>855.40002441406</ele>
        <time>2020-05-31T09:02:07.000Z</time>
      </trkpt>
      <trkpt lat="47.87155" lon="7.13167">
        <ele>854.40002441406</ele>
        <time>2020-05-31T09:02:08.000Z</time>
      </trkpt>
      <trkpt lat="47.87155" lon="7.13174">
        <ele>853.59997558594</ele>
        <time>2020-05-31T09:02:09.000Z</time>
      </trkpt>
      <trkpt lat="47.87155" lon="7.13181">
        <ele>852.79998779297</ele>
        <time>2020-05-31T09:02:10.000Z</time>
      </trkpt>
      <trkpt lat="47.87155" lon="7.13187">
        <ele>852</ele>
        <time>2020-05-31T09:02:11.000Z</time>
      </trkpt>
      <trkpt lat="47.87155" lon="7.13192">
        <ele>851.20001220703</ele>
        <time>2020-05-31T09:02:12.000Z</time>
      </trkpt>
      <trkpt lat="47.87155" lon="7.13195">
        <ele>850.20001220703</ele>
        <time>2020-05-31T09:02:13.000Z</time>
      </trkpt>
      <trkpt lat="47.87156" lon="7.13199">
        <ele>849.40002441406</ele>
        <time>2020-05-31T09:02:14.000Z</time>
      </trkpt>
      <trkpt lat="47.87156" lon="7.13202">
        <ele>848.59997558594</ele>
        <time>2020-05-31T09:02:15.000Z</time>
      </trkpt>
      <trkpt lat="47.87157" lon="7.13204">
        <ele>847.59997558594</ele>
        <time>2020-05-31T09:02:16.000Z</time>
      </trkpt>
      <trkpt lat="47.87158" lon="7.13207">
        <ele>847.59997558594</ele>
        <time>2020-05-31T09:02:18.000Z</time>
      </trkpt>
      <trkpt lat="47.87159" lon="7.13213">
        <ele>847.20001220703</ele>
        <time>2020-05-31T09:02:22.000Z</time>
      </trkpt>
      <trkpt lat="47.8716" lon="7.13216">
        <ele>846.79998779297</ele>
        <time>2020-05-31T09:02:23.000Z</time>
      </trkpt>
      <trkpt lat="47.87161" lon="7.1322">
        <ele>846.40002441406</ele>
        <time>2020-05-31T09:02:24.000Z</time>
      </trkpt>
      <trkpt lat="47.87163" lon="7.13222">
        <ele>845.40002441406</ele>
        <time>2020-05-31T09:02:25.000Z</time>
      </trkpt>
      <trkpt lat="47.87166" lon="7.13229">
        <ele>845.40002441406</ele>
        <time>2020-05-31T09:02:29.000Z</time>
      </trkpt>
      <trkpt lat="47.8717" lon="7.13245">
        <ele>845.40002441406</ele>
        <time>2020-05-31T09:02:36.000Z</time>
      </trkpt>
      <trkpt lat="47.87169" lon="7.1325">
        <ele>845.40002441406</ele>
        <time>2020-05-31T09:02:39.000Z</time>
      </trkpt>
      <trkpt lat="47.87169" lon="7.13258">
        <ele>845.40002441406</ele>
        <time>2020-05-31T09:02:41.000Z</time>
      </trkpt>
      <trkpt lat="47.87174" lon="7.13276">
        <ele>845.40002441406</ele>
        <time>2020-05-31T09:02:46.000Z</time>
      </trkpt>
      <trkpt lat="47.87175" lon="7.13279">
        <ele>845.40002441406</ele>
        <time>2020-05-31T09:02:47.000Z</time>
      </trkpt>
      <trkpt lat="47.87178" lon="7.13291">
        <ele>845.40002441406</ele>
        <time>2020-05-31T09:02:52.000Z</time>
      </trkpt>
      <trkpt lat="47.8718" lon="7.13295">
        <ele>845.40002441406</ele>
        <time>2020-05-31T09:02:54.000Z</time>
      </trkpt>
      <trkpt lat="47.87182" lon="7.13302">
        <ele>845</ele>
        <time>2020-05-31T09:02:57.000Z</time>
      </trkpt>
      <trkpt lat="47.87183" lon="7.13305">
        <ele>844.59997558594</ele>
        <time>2020-05-31T09:02:58.000Z</time>
      </trkpt>
      <trkpt lat="47.87184" lon="7.13308">
        <ele>844.20001220703</ele>
        <time>2020-05-31T09:02:59.000Z</time>
      </trkpt>
      <trkpt lat="47.87184" lon="7.1331">
        <ele>843.79998779297</ele>
        <time>2020-05-31T09:03:00.000Z</time>
      </trkpt>
      <trkpt lat="47.87185" lon="7.13313">
        <ele>843.40002441406</ele>
        <time>2020-05-31T09:03:01.000Z</time>
      </trkpt>
      <trkpt lat="47.87186" lon="7.13318">
        <ele>843.40002441406</ele>
        <time>2020-05-31T09:03:04.000Z</time>
      </trkpt>
      <trkpt lat="47.87187" lon="7.1332">
        <ele>843</ele>
        <time>2020-05-31T09:03:05.000Z</time>
      </trkpt>
      <trkpt lat="47.87188" lon="7.13322">
        <ele>842.59997558594</ele>
        <time>2020-05-31T09:03:06.000Z</time>
      </trkpt>
      <trkpt lat="47.87188" lon="7.13323">
        <ele>842.20001220703</ele>
        <time>2020-05-31T09:03:07.000Z</time>
      </trkpt>
      <trkpt lat="47.87189" lon="7.13324">
        <ele>841.79998779297</ele>
        <time>2020-05-31T09:03:08.000Z</time>
      </trkpt>
      <trkpt lat="47.8719" lon="7.13324">
        <ele>841.40002441406</ele>
        <time>2020-05-31T09:03:09.000Z</time>
      </trkpt>
      <trkpt lat="47.87195" lon="7.13329">
        <ele>841.40002441406</ele>
        <time>2020-05-31T09:03:14.000Z</time>
      </trkpt>
      <trkpt lat="47.87196" lon="7.13333">
        <ele>841.40002441406</ele>
        <time>2020-05-31T09:03:17.000Z</time>
      </trkpt>
      <trkpt lat="47.87195" lon="7.13336">
        <ele>840.79998779297</ele>
        <time>2020-05-31T09:03:18.000Z</time>
      </trkpt>
      <trkpt lat="47.87194" lon="7.13338">
        <ele>840.40002441406</ele>
        <time>2020-05-31T09:03:19.000Z</time>
      </trkpt>
      <trkpt lat="47.87193" lon="7.1334">
        <ele>840</ele>
        <time>2020-05-31T09:03:20.000Z</time>
      </trkpt>
      <trkpt lat="47.87192" lon="7.13342">
        <ele>839.59997558594</ele>
        <time>2020-05-31T09:03:21.000Z</time>
      </trkpt>
      <trkpt lat="47.87191" lon="7.13345">
        <ele>839</ele>
        <time>2020-05-31T09:03:22.000Z</time>
      </trkpt>
      <trkpt lat="47.87191" lon="7.13347">
        <ele>838.40002441406</ele>
        <time>2020-05-31T09:03:23.000Z</time>
      </trkpt>
      <trkpt lat="47.87191" lon="7.1335">
        <ele>837.79998779297</ele>
        <time>2020-05-31T09:03:24.000Z</time>
      </trkpt>
      <trkpt lat="47.87192" lon="7.13353">
        <ele>837.20001220703</ele>
        <time>2020-05-31T09:03:25.000Z</time>
      </trkpt>
      <trkpt lat="47.87193" lon="7.13357">
        <ele>836.59997558594</ele>
        <time>2020-05-31T09:03:26.000Z</time>
      </trkpt>
      <trkpt lat="47.87194" lon="7.13365">
        <ele>836</ele>
        <time>2020-05-31T09:03:27.000Z</time>
      </trkpt>
      <trkpt lat="47.87195" lon="7.13374">
        <ele>835.20001220703</ele>
        <time>2020-05-31T09:03:28.000Z</time>
      </trkpt>
      <trkpt lat="47.87195" lon="7.13383">
        <ele>834.20001220703</ele>
        <time>2020-05-31T09:03:29.000Z</time>
      </trkpt>
      <trkpt lat="47.87195" lon="7.13392">
        <ele>833</ele>
        <time>2020-05-31T09:03:30.000Z</time>
      </trkpt>
      <trkpt lat="47.87197" lon="7.134">
        <ele>831.59997558594</ele>
        <time>2020-05-31T09:03:31.000Z</time>
      </trkpt>
      <trkpt lat="47.87198" lon="7.13406">
        <ele>830.40002441406</ele>
        <time>2020-05-31T09:03:32.000Z</time>
      </trkpt>
      <trkpt lat="47.87201" lon="7.1341">
        <ele>829</ele>
        <time>2020-05-31T09:03:33.000Z</time>
      </trkpt>
      <trkpt lat="47.87203" lon="7.13413">
        <ele>827.59997558594</ele>
        <time>2020-05-31T09:03:34.000Z</time>
      </trkpt>
      <trkpt lat="47.87205" lon="7.13417">
        <ele>826.59997558594</ele>
        <time>2020-05-31T09:03:35.000Z</time>
      </trkpt>
      <trkpt lat="47.87208" lon="7.13422">
        <ele>825.40002441406</ele>
        <time>2020-05-31T09:03:36.000Z</time>
      </trkpt>
      <trkpt lat="47.87209" lon="7.13428">
        <ele>824.40002441406</ele>
        <time>2020-05-31T09:03:37.000Z</time>
      </trkpt>
      <trkpt lat="47.87211" lon="7.13435">
        <ele>823.40002441406</ele>
        <time>2020-05-31T09:03:38.000Z</time>
      </trkpt>
      <trkpt lat="47.87212" lon="7.13442">
        <ele>821.40002441406</ele>
        <time>2020-05-31T09:03:39.000Z</time>
      </trkpt>
      <trkpt lat="47.87213" lon="7.13448">
        <ele>820.40002441406</ele>
        <time>2020-05-31T09:03:40.000Z</time>
      </trkpt>
      <trkpt lat="47.87213" lon="7.13452">
        <ele>819.40002441406</ele>
        <time>2020-05-31T09:03:41.000Z</time>
      </trkpt>
      <trkpt lat="47.87212" lon="7.13454">
        <ele>818.40002441406</ele>
        <time>2020-05-31T09:03:42.000Z</time>
      </trkpt>
      <trkpt lat="47.87211" lon="7.13457">
        <ele>817.40002441406</ele>
        <time>2020-05-31T09:03:43.000Z</time>
      </trkpt>
      <trkpt lat="47.87212" lon="7.13458">
        <ele>816.40002441406</ele>
        <time>2020-05-31T09:03:44.000Z</time>
      </trkpt>
      <trkpt lat="47.87212" lon="7.13459">
        <ele>816.40002441406</ele>
        <time>2020-05-31T09:03:45.000Z</time>
      </trkpt>
      <trkpt lat="47.87212" lon="7.13463">
        <ele>814.40002441406</ele>
        <time>2020-05-31T09:03:56.000Z</time>
      </trkpt>
      <trkpt lat="47.87213" lon="7.13467">
        <ele>814.40002441406</ele>
        <time>2020-05-31T09:03:57.000Z</time>
      </trkpt>
      <trkpt lat="47.87213" lon="7.1348">
        <ele>813.79998779297</ele>
        <time>2020-05-31T09:03:59.000Z</time>
      </trkpt>
      <trkpt lat="47.87214" lon="7.13491">
        <ele>813.40002441406</ele>
        <time>2020-05-31T09:04:00.000Z</time>
      </trkpt>
      <trkpt lat="47.87215" lon="7.13503">
        <ele>812.59997558594</ele>
        <time>2020-05-31T09:04:01.000Z</time>
      </trkpt>
      <trkpt lat="47.87216" lon="7.13513">
        <ele>811.79998779297</ele>
        <time>2020-05-31T09:04:02.000Z</time>
      </trkpt>
      <trkpt lat="47.87219" lon="7.13524">
        <ele>810.79998779297</ele>
        <time>2020-05-31T09:04:03.000Z</time>
      </trkpt>
      <trkpt lat="47.87222" lon="7.13535">
        <ele>809</ele>
        <time>2020-05-31T09:04:04.000Z</time>
      </trkpt>
      <trkpt lat="47.87225" lon="7.13545">
        <ele>808.20001220703</ele>
        <time>2020-05-31T09:04:05.000Z</time>
      </trkpt>
      <trkpt lat="47.87229" lon="7.13556">
        <ele>807.20001220703</ele>
        <time>2020-05-31T09:04:06.000Z</time>
      </trkpt>
      <trkpt lat="47.87232" lon="7.13568">
        <ele>806.20001220703</ele>
        <time>2020-05-31T09:04:07.000Z</time>
      </trkpt>
      <trkpt lat="47.87236" lon="7.1358">
        <ele>805.20001220703</ele>
        <time>2020-05-31T09:04:08.000Z</time>
      </trkpt>
      <trkpt lat="47.87239" lon="7.13593">
        <ele>804</ele>
        <time>2020-05-31T09:04:09.000Z</time>
      </trkpt>
      <trkpt lat="47.87243" lon="7.13607">
        <ele>802.79998779297</ele>
        <time>2020-05-31T09:04:10.000Z</time>
      </trkpt>
      <trkpt lat="47.87247" lon="7.1362">
        <ele>801.59997558594</ele>
        <time>2020-05-31T09:04:11.000Z</time>
      </trkpt>
      <trkpt lat="47.87251" lon="7.13633">
        <ele>800.59997558594</ele>
        <time>2020-05-31T09:04:12.000Z</time>
      </trkpt>
      <trkpt lat="47.87254" lon="7.13644">
        <ele>799.59997558594</ele>
        <time>2020-05-31T09:04:13.000Z</time>
      </trkpt>
      <trkpt lat="47.87256" lon="7.13654">
        <ele>798.59997558594</ele>
        <time>2020-05-31T09:04:14.000Z</time>
      </trkpt>
      <trkpt lat="47.87258" lon="7.13663">
        <ele>797.79998779297</ele>
        <time>2020-05-31T09:04:15.000Z</time>
      </trkpt>
      <trkpt lat="47.87258" lon="7.13667">
        <ele>796.79998779297</ele>
        <time>2020-05-31T09:04:16.000Z</time>
      </trkpt>
      <trkpt lat="47.87259" lon="7.1367">
        <ele>796.79998779297</ele>
        <time>2020-05-31T09:04:17.000Z</time>
      </trkpt>
      <trkpt lat="47.87253" lon="7.13675">
        <ele>796.79998779297</ele>
        <time>2020-05-31T09:04:21.000Z</time>
      </trkpt>
      <trkpt lat="47.87246" lon="7.13685">
        <ele>796.79998779297</ele>
        <time>2020-05-31T09:04:24.000Z</time>
      </trkpt>
      <trkpt lat="47.87245" lon="7.13689">
        <ele>796.40002441406</ele>
        <time>2020-05-31T09:04:25.000Z</time>
      </trkpt>
      <trkpt lat="47.87241" lon="7.13691">
        <ele>795.79998779297</ele>
        <time>2020-05-31T09:04:26.000Z</time>
      </trkpt>
      <trkpt lat="47.87236" lon="7.13691">
        <ele>795.40002441406</ele>
        <time>2020-05-31T09:04:27.000Z</time>
      </trkpt>
      <trkpt lat="47.87232" lon="7.13693">
        <ele>793.79998779297</ele>
        <time>2020-05-31T09:04:28.000Z</time>
      </trkpt>
      <trkpt lat="47.8723" lon="7.13697">
        <ele>792.79998779297</ele>
        <time>2020-05-31T09:04:29.000Z</time>
      </trkpt>
      <trkpt lat="47.87228" lon="7.13702">
        <ele>792</ele>
        <time>2020-05-31T09:04:30.000Z</time>
      </trkpt>
      <trkpt lat="47.87226" lon="7.13707">
        <ele>791</ele>
        <time>2020-05-31T09:04:31.000Z</time>
      </trkpt>
      <trkpt lat="47.87225" lon="7.13713">
        <ele>790.20001220703</ele>
        <time>2020-05-31T09:04:32.000Z</time>
      </trkpt>
      <trkpt lat="47.87224" lon="7.1372">
        <ele>789.40002441406</ele>
        <time>2020-05-31T09:04:33.000Z</time>
      </trkpt>
      <trkpt lat="47.87222" lon="7.13728">
        <ele>788.20001220703</ele>
        <time>2020-05-31T09:04:34.000Z</time>
      </trkpt>
      <trkpt lat="47.87222" lon="7.13737">
        <ele>787.20001220703</ele>
        <time>2020-05-31T09:04:35.000Z</time>
      </trkpt>
      <trkpt lat="47.87222" lon="7.13746">
        <ele>786</ele>
        <time>2020-05-31T09:04:36.000Z</time>
      </trkpt>
      <trkpt lat="47.87223" lon="7.13754">
        <ele>784.79998779297</ele>
        <time>2020-05-31T09:04:37.000Z</time>
      </trkpt>
      <trkpt lat="47.87224" lon="7.13762">
        <ele>783.59997558594</ele>
        <time>2020-05-31T09:04:38.000Z</time>
      </trkpt>
      <trkpt lat="47.87223" lon="7.13767">
        <ele>782.40002441406</ele>
        <time>2020-05-31T09:04:39.000Z</time>
      </trkpt>
      <trkpt lat="47.87223" lon="7.13771">
        <ele>781.20001220703</ele>
        <time>2020-05-31T09:04:40.000Z</time>
      </trkpt>
      <trkpt lat="47.87222" lon="7.13775">
        <ele>780.20001220703</ele>
        <time>2020-05-31T09:04:41.000Z</time>
      </trkpt>
      <trkpt lat="47.87221" lon="7.13777">
        <ele>779</ele>
        <time>2020-05-31T09:04:42.000Z</time>
      </trkpt>
      <trkpt lat="47.87221" lon="7.13778">
        <ele>778.40002441406</ele>
        <time>2020-05-31T09:04:43.000Z</time>
      </trkpt>
      <trkpt lat="47.87221" lon="7.13779">
        <ele>778</ele>
        <time>2020-05-31T09:04:44.000Z</time>
      </trkpt>
      <trkpt lat="47.87219" lon="7.1379">
        <ele>776.59997558594</ele>
        <time>2020-05-31T09:05:02.000Z</time>
      </trkpt>
      <trkpt lat="47.87218" lon="7.13795">
        <ele>776.20001220703</ele>
        <time>2020-05-31T09:05:03.000Z</time>
      </trkpt>
      <trkpt lat="47.87217" lon="7.13801">
        <ele>775.79998779297</ele>
        <time>2020-05-31T09:05:04.000Z</time>
      </trkpt>
      <trkpt lat="47.87216" lon="7.13806">
        <ele>775</ele>
        <time>2020-05-31T09:05:05.000Z</time>
      </trkpt>
      <trkpt lat="47.87215" lon="7.1381">
        <ele>774.40002441406</ele>
        <time>2020-05-31T09:05:06.000Z</time>
      </trkpt>
      <trkpt lat="47.87215" lon="7.13817">
        <ele>773.40002441406</ele>
        <time>2020-05-31T09:05:07.000Z</time>
      </trkpt>
      <trkpt lat="47.87214" lon="7.13821">
        <ele>772.40002441406</ele>
        <time>2020-05-31T09:05:08.000Z</time>
      </trkpt>
      <trkpt lat="47.87213" lon="7.13824">
        <ele>771.40002441406</ele>
        <time>2020-05-31T09:05:09.000Z</time>
      </trkpt>
      <trkpt lat="47.87211" lon="7.13826">
        <ele>770.59997558594</ele>
        <time>2020-05-31T09:05:10.000Z</time>
      </trkpt>
      <trkpt lat="47.87209" lon="7.13824">
        <ele>769.79998779297</ele>
        <time>2020-05-31T09:05:11.000Z</time>
      </trkpt>
      <trkpt lat="47.87206" lon="7.13821">
        <ele>769</ele>
        <time>2020-05-31T09:05:12.000Z</time>
      </trkpt>
      <trkpt lat="47.87203" lon="7.13818">
        <ele>768.20001220703</ele>
        <time>2020-05-31T09:05:13.000Z</time>
      </trkpt>
      <trkpt lat="47.87199" lon="7.13815">
        <ele>767.40002441406</ele>
        <time>2020-05-31T09:05:14.000Z</time>
      </trkpt>
      <trkpt lat="47.87196" lon="7.13811">
        <ele>766.79998779297</ele>
        <time>2020-05-31T09:05:15.000Z</time>
      </trkpt>
      <trkpt lat="47.87193" lon="7.13808">
        <ele>766</ele>
        <time>2020-05-31T09:05:16.000Z</time>
      </trkpt>
      <trkpt lat="47.87191" lon="7.13804">
        <ele>765.20001220703</ele>
        <time>2020-05-31T09:05:17.000Z</time>
      </trkpt>
      <trkpt lat="47.8719" lon="7.13803">
        <ele>763.59997558594</ele>
        <time>2020-05-31T09:05:18.000Z</time>
      </trkpt>
      <trkpt lat="47.8719" lon="7.13803">
        <ele>762.79998779297</ele>
        <time>2020-05-31T09:05:19.000Z</time>
      </trkpt>
      <trkpt lat="47.87189" lon="7.13804">
        <ele>762</ele>
        <time>2020-05-31T09:05:20.000Z</time>
      </trkpt>
      <trkpt lat="47.87188" lon="7.13806">
        <ele>761.59997558594</ele>
        <time>2020-05-31T09:05:21.000Z</time>
      </trkpt>
      <trkpt lat="47.87187" lon="7.13808">
        <ele>761</ele>
        <time>2020-05-31T09:05:22.000Z</time>
      </trkpt>
      <trkpt lat="47.87186" lon="7.13809">
        <ele>760.59997558594</ele>
        <time>2020-05-31T09:05:23.000Z</time>
      </trkpt>
      <trkpt lat="47.87186" lon="7.13811">
        <ele>760</ele>
        <time>2020-05-31T09:05:24.000Z</time>
      </trkpt>
      <trkpt lat="47.87185" lon="7.13813">
        <ele>759.59997558594</ele>
        <time>2020-05-31T09:05:25.000Z</time>
      </trkpt>
      <trkpt lat="47.87185" lon="7.13815">
        <ele>759.59997558594</ele>
        <time>2020-05-31T09:05:26.000Z</time>
      </trkpt>
      <trkpt lat="47.87185" lon="7.13817">
        <ele>759.20001220703</ele>
        <time>2020-05-31T09:05:27.000Z</time>
      </trkpt>
      <trkpt lat="47.87185" lon="7.13818">
        <ele>758.59997558594</ele>
        <time>2020-05-31T09:05:28.000Z</time>
      </trkpt>
      <trkpt lat="47.87184" lon="7.13818">
        <ele>758.20001220703</ele>
        <time>2020-05-31T09:05:29.000Z</time>
      </trkpt>
      <trkpt lat="47.87183" lon="7.13822">
        <ele>757.40002441406</ele>
        <time>2020-05-31T09:05:44.000Z</time>
      </trkpt>
      <trkpt lat="47.87183" lon="7.13824">
        <ele>757.40002441406</ele>
        <time>2020-05-31T09:05:45.000Z</time>
      </trkpt>
      <trkpt lat="47.87185" lon="7.13837">
        <ele>757</ele>
        <time>2020-05-31T09:05:48.000Z</time>
      </trkpt>
      <trkpt lat="47.87187" lon="7.13843">
        <ele>756.59997558594</ele>
        <time>2020-05-31T09:05:49.000Z</time>
      </trkpt>
      <trkpt lat="47.87188" lon="7.13847">
        <ele>756.20001220703</ele>
        <time>2020-05-31T09:05:50.000Z</time>
      </trkpt>
      <trkpt lat="47.87188" lon="7.13851">
        <ele>755.79998779297</ele>
        <time>2020-05-31T09:05:51.000Z</time>
      </trkpt>
      <trkpt lat="47.87188" lon="7.13855">
        <ele>755.20001220703</ele>
        <time>2020-05-31T09:05:52.000Z</time>
      </trkpt>
      <trkpt lat="47.87189" lon="7.13859">
        <ele>754.79998779297</ele>
        <time>2020-05-31T09:05:53.000Z</time>
      </trkpt>
      <trkpt lat="47.8719" lon="7.13862">
        <ele>754.20001220703</ele>
        <time>2020-05-31T09:05:54.000Z</time>
      </trkpt>
      <trkpt lat="47.87191" lon="7.13865">
        <ele>753.79998779297</ele>
        <time>2020-05-31T09:05:55.000Z</time>
      </trkpt>
      <trkpt lat="47.87191" lon="7.13867">
        <ele>753.20001220703</ele>
        <time>2020-05-31T09:05:56.000Z</time>
      </trkpt>
      <trkpt lat="47.87192" lon="7.13872">
        <ele>753.20001220703</ele>
        <time>2020-05-31T09:05:59.000Z</time>
      </trkpt>
      <trkpt lat="47.87192" lon="7.13872">
        <ele>752.79998779297</ele>
        <time>2020-05-31T09:06:00.000Z</time>
      </trkpt>
      <trkpt lat="47.87193" lon="7.13874">
        <ele>752.40002441406</ele>
        <time>2020-05-31T09:06:01.000Z</time>
      </trkpt>
      <trkpt lat="47.87194" lon="7.13876">
        <ele>752</ele>
        <time>2020-05-31T09:06:02.000Z</time>
      </trkpt>
      <trkpt lat="47.87195" lon="7.13878">
        <ele>751.59997558594</ele>
        <time>2020-05-31T09:06:03.000Z</time>
      </trkpt>
      <trkpt lat="47.87197" lon="7.1388">
        <ele>751.20001220703</ele>
        <time>2020-05-31T09:06:04.000Z</time>
      </trkpt>
      <trkpt lat="47.872" lon="7.1389">
        <ele>750.79998779297</ele>
        <time>2020-05-31T09:06:07.000Z</time>
      </trkpt>
      <trkpt lat="47.872" lon="7.13892">
        <ele>750.20001220703</ele>
        <time>2020-05-31T09:06:08.000Z</time>
      </trkpt>
      <trkpt lat="47.87199" lon="7.13894">
        <ele>749.79998779297</ele>
        <time>2020-05-31T09:06:09.000Z</time>
      </trkpt>
      <trkpt lat="47.87197" lon="7.13895">
        <ele>749.40002441406</ele>
        <time>2020-05-31T09:06:10.000Z</time>
      </trkpt>
      <trkpt lat="47.87195" lon="7.13895">
        <ele>749</ele>
        <time>2020-05-31T09:06:11.000Z</time>
      </trkpt>
      <trkpt lat="47.87187" lon="7.13894">
        <ele>748.40002441406</ele>
        <time>2020-05-31T09:06:14.000Z</time>
      </trkpt>
      <trkpt lat="47.87183" lon="7.13891">
        <ele>748</ele>
        <time>2020-05-31T09:06:15.000Z</time>
      </trkpt>
      <trkpt lat="47.8718" lon="7.13887">
        <ele>747.40002441406</ele>
        <time>2020-05-31T09:06:16.000Z</time>
      </trkpt>
      <trkpt lat="47.87176" lon="7.13884">
        <ele>746.59997558594</ele>
        <time>2020-05-31T09:06:17.000Z</time>
      </trkpt>
      <trkpt lat="47.87175" lon="7.13882">
        <ele>746</ele>
        <time>2020-05-31T09:06:18.000Z</time>
      </trkpt>
      <trkpt lat="47.87173" lon="7.13882">
        <ele>745.20001220703</ele>
        <time>2020-05-31T09:06:19.000Z</time>
      </trkpt>
      <trkpt lat="47.87172" lon="7.13887">
        <ele>744.59997558594</ele>
        <time>2020-05-31T09:06:20.000Z</time>
      </trkpt>
      <trkpt lat="47.8717" lon="7.13893">
        <ele>743.79998779297</ele>
        <time>2020-05-31T09:06:21.000Z</time>
      </trkpt>
      <trkpt lat="47.87167" lon="7.139">
        <ele>742.79998779297</ele>
        <time>2020-05-31T09:06:22.000Z</time>
      </trkpt>
      <trkpt lat="47.87167" lon="7.13907">
        <ele>741.79998779297</ele>
        <time>2020-05-31T09:06:23.000Z</time>
      </trkpt>
      <trkpt lat="47.87166" lon="7.13913">
        <ele>740.79998779297</ele>
        <time>2020-05-31T09:06:24.000Z</time>
      </trkpt>
      <trkpt lat="47.87164" lon="7.13919">
        <ele>739.59997558594</ele>
        <time>2020-05-31T09:06:25.000Z</time>
      </trkpt>
      <trkpt lat="47.87163" lon="7.13925">
        <ele>738.40002441406</ele>
        <time>2020-05-31T09:06:26.000Z</time>
      </trkpt>
      <trkpt lat="47.87161" lon="7.1393">
        <ele>737.20001220703</ele>
        <time>2020-05-31T09:06:27.000Z</time>
      </trkpt>
      <trkpt lat="47.8716" lon="7.13939">
        <ele>735.79998779297</ele>
        <time>2020-05-31T09:06:28.000Z</time>
      </trkpt>
      <trkpt lat="47.87159" lon="7.13947">
        <ele>734.40002441406</ele>
        <time>2020-05-31T09:06:29.000Z</time>
      </trkpt>
      <trkpt lat="47.87157" lon="7.13954">
        <ele>732.79998779297</ele>
        <time>2020-05-31T09:06:30.000Z</time>
      </trkpt>
      <trkpt lat="47.87154" lon="7.1396">
        <ele>731.20001220703</ele>
        <time>2020-05-31T09:06:31.000Z</time>
      </trkpt>
      <trkpt lat="47.8715" lon="7.13967">
        <ele>728.40002441406</ele>
        <time>2020-05-31T09:06:32.000Z</time>
      </trkpt>
      <trkpt lat="47.87147" lon="7.13975">
        <ele>727</ele>
        <time>2020-05-31T09:06:33.000Z</time>
      </trkpt>
      <trkpt lat="47.87146" lon="7.13985">
        <ele>725.79998779297</ele>
        <time>2020-05-31T09:06:34.000Z</time>
      </trkpt>
      <trkpt lat="47.87145" lon="7.13994">
        <ele>724.40002441406</ele>
        <time>2020-05-31T09:06:35.000Z</time>
      </trkpt>
      <trkpt lat="47.87144" lon="7.14003">
        <ele>723.40002441406</ele>
        <time>2020-05-31T09:06:36.000Z</time>
      </trkpt>
      <trkpt lat="47.87144" lon="7.14011">
        <ele>722.40002441406</ele>
        <time>2020-05-31T09:06:37.000Z</time>
      </trkpt>
      <trkpt lat="47.87145" lon="7.14017">
        <ele>721.40002441406</ele>
        <time>2020-05-31T09:06:38.000Z</time>
      </trkpt>
      <trkpt lat="47.87145" lon="7.1402">
        <ele>720.40002441406</ele>
        <time>2020-05-31T09:06:39.000Z</time>
      </trkpt>
      <trkpt lat="47.87145" lon="7.14021">
        <ele>719.40002441406</ele>
        <time>2020-05-31T09:06:40.000Z</time>
      </trkpt>
      <trkpt lat="47.87145" lon="7.14023">
        <ele>719.40002441406</ele>
        <time>2020-05-31T09:06:42.000Z</time>
      </trkpt>
      <trkpt lat="47.87144" lon="7.1403">
        <ele>719.40002441406</ele>
        <time>2020-05-31T09:08:07.000Z</time>
      </trkpt>
      <trkpt lat="47.87147" lon="7.14049">
        <ele>719.40002441406</ele>
        <time>2020-05-31T09:08:10.000Z</time>
      </trkpt>
      <trkpt lat="47.8715" lon="7.14061">
        <ele>718.79998779297</ele>
        <time>2020-05-31T09:08:11.000Z</time>
      </trkpt>
      <trkpt lat="47.87153" lon="7.14072">
        <ele>718.20001220703</ele>
        <time>2020-05-31T09:08:12.000Z</time>
      </trkpt>
      <trkpt lat="47.87157" lon="7.14083">
        <ele>717.20001220703</ele>
        <time>2020-05-31T09:08:13.000Z</time>
      </trkpt>
      <trkpt lat="47.87161" lon="7.14093">
        <ele>716.40002441406</ele>
        <time>2020-05-31T09:08:14.000Z</time>
      </trkpt>
      <trkpt lat="47.87165" lon="7.14102">
        <ele>715.40002441406</ele>
        <time>2020-05-31T09:08:15.000Z</time>
      </trkpt>
      <trkpt lat="47.87168" lon="7.14109">
        <ele>714.59997558594</ele>
        <time>2020-05-31T09:08:16.000Z</time>
      </trkpt>
      <trkpt lat="47.87171" lon="7.14117">
        <ele>713.59997558594</ele>
        <time>2020-05-31T09:08:17.000Z</time>
      </trkpt>
      <trkpt lat="47.8719" lon="7.14154">
        <ele>713.59997558594</ele>
        <time>2020-05-31T09:08:23.000Z</time>
      </trkpt>
      <trkpt lat="47.87192" lon="7.14155">
        <ele>713.59997558594</ele>
        <time>2020-05-31T09:08:24.000Z</time>
      </trkpt>
      <trkpt lat="47.87196" lon="7.14156">
        <ele>713.59997558594</ele>
        <time>2020-05-31T09:08:26.000Z</time>
      </trkpt>
      <trkpt lat="47.87196" lon="7.14156">
        <ele>714</ele>
        <time>2020-05-31T09:08:27.000Z</time>
      </trkpt>
      <trkpt lat="47.87196" lon="7.14157">
        <ele>714.40002441406</ele>
        <time>2020-05-31T09:08:28.000Z</time>
      </trkpt>
      <trkpt lat="47.87202" lon="7.14167">
        <ele>715.79998779297</ele>
        <time>2020-05-31T09:08:34.000Z</time>
      </trkpt>
      <trkpt lat="47.87204" lon="7.1417">
        <ele>715.79998779297</ele>
        <time>2020-05-31T09:08:35.000Z</time>
      </trkpt>
      <trkpt lat="47.87209" lon="7.14194">
        <ele>715.79998779297</ele>
        <time>2020-05-31T09:08:42.000Z</time>
      </trkpt>
      <trkpt lat="47.8721" lon="7.14226">
        <ele>715.79998779297</ele>
        <time>2020-05-31T09:08:49.000Z</time>
      </trkpt>
      <trkpt lat="47.8721" lon="7.14261">
        <ele>715.79998779297</ele>
        <time>2020-05-31T09:08:56.000Z</time>
      </trkpt>
      <trkpt lat="47.87207" lon="7.14301">
        <ele>715.79998779297</ele>
        <time>2020-05-31T09:09:02.000Z</time>
      </trkpt>
      <trkpt lat="47.8721" lon="7.14335">
        <ele>715.79998779297</ele>
        <time>2020-05-31T09:09:06.000Z</time>
      </trkpt>
      <trkpt lat="47.87213" lon="7.14353">
        <ele>715.79998779297</ele>
        <time>2020-05-31T09:09:08.000Z</time>
      </trkpt>
      <trkpt lat="47.8722" lon="7.14386">
        <ele>715.79998779297</ele>
        <time>2020-05-31T09:09:13.000Z</time>
      </trkpt>
      <trkpt lat="47.87228" lon="7.14412">
        <ele>716.20001220703</ele>
        <time>2020-05-31T09:09:18.000Z</time>
      </trkpt>
      <trkpt lat="47.87229" lon="7.14416">
        <ele>716.59997558594</ele>
        <time>2020-05-31T09:09:19.000Z</time>
      </trkpt>
      <trkpt lat="47.87231" lon="7.14421">
        <ele>717.20001220703</ele>
        <time>2020-05-31T09:09:20.000Z</time>
      </trkpt>
      <trkpt lat="47.87233" lon="7.14425">
        <ele>717.59997558594</ele>
        <time>2020-05-31T09:09:21.000Z</time>
      </trkpt>
      <trkpt lat="47.87235" lon="7.14427">
        <ele>718.20001220703</ele>
        <time>2020-05-31T09:09:22.000Z</time>
      </trkpt>
      <trkpt lat="47.87237" lon="7.14428">
        <ele>718.79998779297</ele>
        <time>2020-05-31T09:09:23.000Z</time>
      </trkpt>
      <trkpt lat="47.87239" lon="7.1443">
        <ele>719.40002441406</ele>
        <time>2020-05-31T09:09:24.000Z</time>
      </trkpt>
      <trkpt lat="47.8724" lon="7.14432">
        <ele>720.59997558594</ele>
        <time>2020-05-31T09:09:25.000Z</time>
      </trkpt>
      <trkpt lat="47.87242" lon="7.14434">
        <ele>721.20001220703</ele>
        <time>2020-05-31T09:09:26.000Z</time>
      </trkpt>
      <trkpt lat="47.87243" lon="7.14436">
        <ele>721.59997558594</ele>
        <time>2020-05-31T09:09:27.000Z</time>
      </trkpt>
      <trkpt lat="47.87244" lon="7.14438">
        <ele>722.20001220703</ele>
        <time>2020-05-31T09:09:28.000Z</time>
      </trkpt>
      <trkpt lat="47.87245" lon="7.14441">
        <ele>722.79998779297</ele>
        <time>2020-05-31T09:09:29.000Z</time>
      </trkpt>
      <trkpt lat="47.87245" lon="7.14444">
        <ele>723.20001220703</ele>
        <time>2020-05-31T09:09:30.000Z</time>
      </trkpt>
      <trkpt lat="47.87246" lon="7.14445">
        <ele>723.59997558594</ele>
        <time>2020-05-31T09:09:31.000Z</time>
      </trkpt>
      <trkpt lat="47.87247" lon="7.14446">
        <ele>724</ele>
        <time>2020-05-31T09:09:32.000Z</time>
      </trkpt>
      <trkpt lat="47.87248" lon="7.14447">
        <ele>724.40002441406</ele>
        <time>2020-05-31T09:09:33.000Z</time>
      </trkpt>
      <trkpt lat="47.87249" lon="7.14448">
        <ele>724.79998779297</ele>
        <time>2020-05-31T09:09:34.000Z</time>
      </trkpt>
      <trkpt lat="47.87252" lon="7.14454">
        <ele>724.79998779297</ele>
        <time>2020-05-31T09:10:10.000Z</time>
      </trkpt>
      <trkpt lat="47.87253" lon="7.14459">
        <ele>724.79998779297</ele>
        <time>2020-05-31T09:10:12.000Z</time>
      </trkpt>
      <trkpt lat="47.87255" lon="7.14477">
        <ele>724.79998779297</ele>
        <time>2020-05-31T09:10:18.000Z</time>
      </trkpt>
      <trkpt lat="47.87256" lon="7.1448">
        <ele>725.20001220703</ele>
        <time>2020-05-31T09:10:19.000Z</time>
      </trkpt>
      <trkpt lat="47.87256" lon="7.14482">
        <ele>725.59997558594</ele>
        <time>2020-05-31T09:10:20.000Z</time>
      </trkpt>
      <trkpt lat="47.87256" lon="7.14485">
        <ele>726</ele>
        <time>2020-05-31T09:10:21.000Z</time>
      </trkpt>
      <trkpt lat="47.87256" lon="7.14487">
        <ele>726.40002441406</ele>
        <time>2020-05-31T09:10:22.000Z</time>
      </trkpt>
      <trkpt lat="47.87257" lon="7.14488">
        <ele>726.79998779297</ele>
        <time>2020-05-31T09:10:23.000Z</time>
      </trkpt>
      <trkpt lat="47.87257" lon="7.14492">
        <ele>726.79998779297</ele>
        <time>2020-05-31T09:10:25.000Z</time>
      </trkpt>
      <trkpt lat="47.87258" lon="7.14495">
        <ele>726.79998779297</ele>
        <time>2020-05-31T09:10:27.000Z</time>
      </trkpt>
      <trkpt lat="47.87261" lon="7.14487">
        <ele>729</ele>
        <time>2020-05-31T09:11:01.000Z</time>
      </trkpt>
      <trkpt lat="47.87262" lon="7.14483">
        <ele>729</ele>
        <time>2020-05-31T09:11:02.000Z</time>
      </trkpt>
      <trkpt lat="47.87264" lon="7.14473">
        <ele>728.59997558594</ele>
        <time>2020-05-31T09:11:04.000Z</time>
      </trkpt>
      <trkpt lat="47.87265" lon="7.14469">
        <ele>727.79998779297</ele>
        <time>2020-05-31T09:11:05.000Z</time>
      </trkpt>
      <trkpt lat="47.87266" lon="7.14465">
        <ele>727.40002441406</ele>
        <time>2020-05-31T09:11:06.000Z</time>
      </trkpt>
      <trkpt lat="47.87265" lon="7.14462">
        <ele>727</ele>
        <time>2020-05-31T09:11:07.000Z</time>
      </trkpt>
      <trkpt lat="47.87262" lon="7.14459">
        <ele>727</ele>
        <time>2020-05-31T09:11:10.000Z</time>
      </trkpt>
      <trkpt lat="47.87262" lon="7.14463">
        <ele>724.40002441406</ele>
        <time>2020-05-31T09:13:04.000Z</time>
      </trkpt>
      <trkpt lat="47.87262" lon="7.14474">
        <ele>724.40002441406</ele>
        <time>2020-05-31T09:13:07.000Z</time>
      </trkpt>
      <trkpt lat="47.87262" lon="7.14482">
        <ele>724.79998779297</ele>
        <time>2020-05-31T09:13:10.000Z</time>
      </trkpt>
      <trkpt lat="47.87262" lon="7.14484">
        <ele>725.40002441406</ele>
        <time>2020-05-31T09:13:11.000Z</time>
      </trkpt>
      <trkpt lat="47.87263" lon="7.14487">
        <ele>725.79998779297</ele>
        <time>2020-05-31T09:13:12.000Z</time>
      </trkpt>
      <trkpt lat="47.87263" lon="7.14492">
        <ele>726.20001220703</ele>
        <time>2020-05-31T09:13:13.000Z</time>
      </trkpt>
      <trkpt lat="47.87263" lon="7.14496">
        <ele>726.59997558594</ele>
        <time>2020-05-31T09:13:14.000Z</time>
      </trkpt>
      <trkpt lat="47.87263" lon="7.1451">
        <ele>726.59997558594</ele>
        <time>2020-05-31T09:13:17.000Z</time>
      </trkpt>
      <trkpt lat="47.87261" lon="7.1454">
        <ele>726.59997558594</ele>
        <time>2020-05-31T09:13:23.000Z</time>
      </trkpt>
      <trkpt lat="47.87258" lon="7.14545">
        <ele>726.59997558594</ele>
        <time>2020-05-31T09:13:25.000Z</time>
      </trkpt>
      <trkpt lat="47.87253" lon="7.14551">
        <ele>726.59997558594</ele>
        <time>2020-05-31T09:13:28.000Z</time>
      </trkpt>
      <trkpt lat="47.87246" lon="7.14557">
        <ele>726.59997558594</ele>
        <time>2020-05-31T09:13:32.000Z</time>
      </trkpt>
      <trkpt lat="47.87244" lon="7.14557">
        <ele>727.59997558594</ele>
        <time>2020-05-31T09:13:34.000Z</time>
      </trkpt>
      <trkpt lat="47.87243" lon="7.14557">
        <ele>728</ele>
        <time>2020-05-31T09:13:35.000Z</time>
      </trkpt>
      <trkpt lat="47.87242" lon="7.14556">
        <ele>728.40002441406</ele>
        <time>2020-05-31T09:13:36.000Z</time>
      </trkpt>
      <trkpt lat="47.87242" lon="7.14557">
        <ele>728.79998779297</ele>
        <time>2020-05-31T09:13:37.000Z</time>
      </trkpt>
      <trkpt lat="47.87241" lon="7.14557">
        <ele>728.79998779297</ele>
        <time>2020-05-31T09:13:38.000Z</time>
      </trkpt>
      <trkpt lat="47.87232" lon="7.14573">
        <ele>728.79998779297</ele>
        <time>2020-05-31T09:13:52.000Z</time>
      </trkpt>
      <trkpt lat="47.87232" lon="7.1458">
        <ele>728.79998779297</ele>
        <time>2020-05-31T09:13:54.000Z</time>
      </trkpt>
      <trkpt lat="47.87232" lon="7.14595">
        <ele>728.79998779297</ele>
        <time>2020-05-31T09:13:59.000Z</time>
      </trkpt>
      <trkpt lat="47.8723" lon="7.14601">
        <ele>728.79998779297</ele>
        <time>2020-05-31T09:14:01.000Z</time>
      </trkpt>
      <trkpt lat="47.87228" lon="7.14611">
        <ele>728.79998779297</ele>
        <time>2020-05-31T09:14:04.000Z</time>
      </trkpt>
      <trkpt lat="47.87222" lon="7.14628">
        <ele>728.79998779297</ele>
        <time>2020-05-31T09:14:09.000Z</time>
      </trkpt>
      <trkpt lat="47.87221" lon="7.1463">
        <ele>728.79998779297</ele>
        <time>2020-05-31T09:14:12.000Z</time>
      </trkpt>
      <trkpt lat="47.87221" lon="7.14631">
        <ele>728.79998779297</ele>
        <time>2020-05-31T09:14:14.000Z</time>
      </trkpt>
      <trkpt lat="47.87222" lon="7.14629">
        <ele>728.79998779297</ele>
        <time>2020-05-31T09:14:53.000Z</time>
      </trkpt>
      <trkpt lat="47.87222" lon="7.1463">
        <ele>728.79998779297</ele>
        <time>2020-05-31T09:14:54.000Z</time>
      </trkpt>
      <trkpt lat="47.87226" lon="7.14619">
        <ele>726.79998779297</ele>
        <time>2020-05-31T09:15:13.000Z</time>
      </trkpt>
      <trkpt lat="47.87229" lon="7.14603">
        <ele>726.79998779297</ele>
        <time>2020-05-31T09:15:18.000Z</time>
      </trkpt>
      <trkpt lat="47.87233" lon="7.14592">
        <ele>726.79998779297</ele>
        <time>2020-05-31T09:15:23.000Z</time>
      </trkpt>
      <trkpt lat="47.87234" lon="7.14586">
        <ele>727.20001220703</ele>
        <time>2020-05-31T09:15:25.000Z</time>
      </trkpt>
      <trkpt lat="47.87233" lon="7.14582">
        <ele>727.59997558594</ele>
        <time>2020-05-31T09:15:26.000Z</time>
      </trkpt>
      <trkpt lat="47.87233" lon="7.14577">
        <ele>728</ele>
        <time>2020-05-31T09:15:27.000Z</time>
      </trkpt>
      <trkpt lat="47.87233" lon="7.14573">
        <ele>728.40002441406</ele>
        <time>2020-05-31T09:15:28.000Z</time>
      </trkpt>
      <trkpt lat="47.87233" lon="7.1457">
        <ele>728.79998779297</ele>
        <time>2020-05-31T09:15:29.000Z</time>
      </trkpt>
      <trkpt lat="47.87234" lon="7.14565">
        <ele>728.79998779297</ele>
        <time>2020-05-31T09:15:31.000Z</time>
      </trkpt>
      <trkpt lat="47.87235" lon="7.14563">
        <ele>728.79998779297</ele>
        <time>2020-05-31T09:15:32.000Z</time>
      </trkpt>
      <trkpt lat="47.8724" lon="7.14561">
        <ele>728.79998779297</ele>
        <time>2020-05-31T09:15:37.000Z</time>
      </trkpt>
      <trkpt lat="47.87241" lon="7.14561">
        <ele>728.79998779297</ele>
        <time>2020-05-31T09:15:38.000Z</time>
      </trkpt>
      <trkpt lat="47.87247" lon="7.14563">
        <ele>728.79998779297</ele>
        <time>2020-05-31T09:15:43.000Z</time>
      </trkpt>
      <trkpt lat="47.87254" lon="7.14555">
        <ele>728.79998779297</ele>
        <time>2020-05-31T09:15:48.000Z</time>
      </trkpt>
      <trkpt lat="47.87257" lon="7.1455">
        <ele>728.79998779297</ele>
        <time>2020-05-31T09:15:51.000Z</time>
      </trkpt>
      <trkpt lat="47.87258" lon="7.14548">
        <ele>728.40002441406</ele>
        <time>2020-05-31T09:15:52.000Z</time>
      </trkpt>
      <trkpt lat="47.87258" lon="7.14545">
        <ele>728</ele>
        <time>2020-05-31T09:15:53.000Z</time>
      </trkpt>
      <trkpt lat="47.87259" lon="7.14542">
        <ele>727.59997558594</ele>
        <time>2020-05-31T09:15:54.000Z</time>
      </trkpt>
      <trkpt lat="47.8726" lon="7.14537">
        <ele>727.20001220703</ele>
        <time>2020-05-31T09:15:55.000Z</time>
      </trkpt>
      <trkpt lat="47.87259" lon="7.14533">
        <ele>726.79998779297</ele>
        <time>2020-05-31T09:15:56.000Z</time>
      </trkpt>
      <trkpt lat="47.87259" lon="7.14525">
        <ele>726.79998779297</ele>
        <time>2020-05-31T09:15:58.000Z</time>
      </trkpt>
      <trkpt lat="47.87261" lon="7.14495">
        <ele>726.79998779297</ele>
        <time>2020-05-31T09:16:05.000Z</time>
      </trkpt>
      <trkpt lat="47.87263" lon="7.14468">
        <ele>726.79998779297</ele>
        <time>2020-05-31T09:16:09.000Z</time>
      </trkpt>
      <trkpt lat="47.87261" lon="7.14461">
        <ele>726.79998779297</ele>
        <time>2020-05-31T09:16:12.000Z</time>
      </trkpt>
      <trkpt lat="47.8726" lon="7.14461">
        <ele>726.79998779297</ele>
        <time>2020-05-31T09:16:13.000Z</time>
      </trkpt>
      <trkpt lat="47.87259" lon="7.1446">
        <ele>726.40002441406</ele>
        <time>2020-05-31T09:16:14.000Z</time>
      </trkpt>
      <trkpt lat="47.87256" lon="7.14459">
        <ele>726</ele>
        <time>2020-05-31T09:16:15.000Z</time>
      </trkpt>
      <trkpt lat="47.87254" lon="7.14457">
        <ele>725.40002441406</ele>
        <time>2020-05-31T09:16:16.000Z</time>
      </trkpt>
      <trkpt lat="47.87253" lon="7.14455">
        <ele>725</ele>
        <time>2020-05-31T09:16:17.000Z</time>
      </trkpt>
      <trkpt lat="47.87252" lon="7.14453">
        <ele>724.59997558594</ele>
        <time>2020-05-31T09:16:18.000Z</time>
      </trkpt>
      <trkpt lat="47.87249" lon="7.14451">
        <ele>724.20001220703</ele>
        <time>2020-05-31T09:16:20.000Z</time>
      </trkpt>
      <trkpt lat="47.87247" lon="7.1445">
        <ele>723.79998779297</ele>
        <time>2020-05-31T09:16:21.000Z</time>
      </trkpt>
      <trkpt lat="47.87245" lon="7.14446">
        <ele>723.20001220703</ele>
        <time>2020-05-31T09:16:22.000Z</time>
      </trkpt>
      <trkpt lat="47.87243" lon="7.14441">
        <ele>722.40002441406</ele>
        <time>2020-05-31T09:16:23.000Z</time>
      </trkpt>
      <trkpt lat="47.87242" lon="7.14435">
        <ele>721.59997558594</ele>
        <time>2020-05-31T09:16:24.000Z</time>
      </trkpt>
      <trkpt lat="47.8724" lon="7.14429">
        <ele>720.59997558594</ele>
        <time>2020-05-31T09:16:25.000Z</time>
      </trkpt>
      <trkpt lat="47.87238" lon="7.14423">
        <ele>719.59997558594</ele>
        <time>2020-05-31T09:16:26.000Z</time>
      </trkpt>
      <trkpt lat="47.87235" lon="7.14416">
        <ele>717.79998779297</ele>
        <time>2020-05-31T09:16:27.000Z</time>
      </trkpt>
      <trkpt lat="47.87231" lon="7.14402">
        <ele>717</ele>
        <time>2020-05-31T09:16:28.000Z</time>
      </trkpt>
      <trkpt lat="47.87229" lon="7.14395">
        <ele>716</ele>
        <time>2020-05-31T09:16:29.000Z</time>
      </trkpt>
      <trkpt lat="47.87227" lon="7.14386">
        <ele>715.20001220703</ele>
        <time>2020-05-31T09:16:30.000Z</time>
      </trkpt>
      <trkpt lat="47.87225" lon="7.14378">
        <ele>714.40002441406</ele>
        <time>2020-05-31T09:16:31.000Z</time>
      </trkpt>
      <trkpt lat="47.8722" lon="7.14355">
        <ele>714.40002441406</ele>
        <time>2020-05-31T09:16:34.000Z</time>
      </trkpt>
      <trkpt lat="47.87214" lon="7.1432">
        <ele>714.40002441406</ele>
        <time>2020-05-31T09:16:39.000Z</time>
      </trkpt>
      <trkpt lat="47.87214" lon="7.14316">
        <ele>714.79998779297</ele>
        <time>2020-05-31T09:16:40.000Z</time>
      </trkpt>
      <trkpt lat="47.87213" lon="7.14311">
        <ele>715.40002441406</ele>
        <time>2020-05-31T09:16:41.000Z</time>
      </trkpt>
      <trkpt lat="47.87212" lon="7.14306">
        <ele>715.79998779297</ele>
        <time>2020-05-31T09:16:42.000Z</time>
      </trkpt>
      <trkpt lat="47.87212" lon="7.14301">
        <ele>716.20001220703</ele>
        <time>2020-05-31T09:16:43.000Z</time>
      </trkpt>
      <trkpt lat="47.87212" lon="7.14296">
        <ele>716.59997558594</ele>
        <time>2020-05-31T09:16:44.000Z</time>
      </trkpt>
      <trkpt lat="47.87214" lon="7.14268">
        <ele>716.59997558594</ele>
        <time>2020-05-31T09:16:50.000Z</time>
      </trkpt>
      <trkpt lat="47.87213" lon="7.14235">
        <ele>716.59997558594</ele>
        <time>2020-05-31T09:16:56.000Z</time>
      </trkpt>
      <trkpt lat="47.87206" lon="7.14207">
        <ele>716.59997558594</ele>
        <time>2020-05-31T09:17:01.000Z</time>
      </trkpt>
      <trkpt lat="47.87204" lon="7.142">
        <ele>716.59997558594</ele>
        <time>2020-05-31T09:17:02.000Z</time>
      </trkpt>
      <trkpt lat="47.87198" lon="7.1418">
        <ele>716.59997558594</ele>
        <time>2020-05-31T09:17:06.000Z</time>
      </trkpt>
      <trkpt lat="47.87199" lon="7.14176">
        <ele>716.59997558594</ele>
        <time>2020-05-31T09:17:08.000Z</time>
      </trkpt>
      <trkpt lat="47.87198" lon="7.14179">
        <ele>716.20001220703</ele>
        <time>2020-05-31T09:17:30.000Z</time>
      </trkpt>
      <trkpt lat="47.87195" lon="7.14178">
        <ele>715.59997558594</ele>
        <time>2020-05-31T09:17:31.000Z</time>
      </trkpt>
      <trkpt lat="47.87192" lon="7.14175">
        <ele>715.20001220703</ele>
        <time>2020-05-31T09:17:32.000Z</time>
      </trkpt>
      <trkpt lat="47.87189" lon="7.14173">
        <ele>714.59997558594</ele>
        <time>2020-05-31T09:17:33.000Z</time>
      </trkpt>
      <trkpt lat="47.87186" lon="7.14172">
        <ele>714</ele>
        <time>2020-05-31T09:17:34.000Z</time>
      </trkpt>
      <trkpt lat="47.87185" lon="7.14171">
        <ele>713.40002441406</ele>
        <time>2020-05-31T09:17:35.000Z</time>
      </trkpt>
      <trkpt lat="47.87183" lon="7.14171">
        <ele>712.79998779297</ele>
        <time>2020-05-31T09:17:36.000Z</time>
      </trkpt>
      <trkpt lat="47.87175" lon="7.14167">
        <ele>710</ele>
        <time>2020-05-31T09:17:54.000Z</time>
      </trkpt>
      <trkpt lat="47.87172" lon="7.14165">
        <ele>709.59997558594</ele>
        <time>2020-05-31T09:17:55.000Z</time>
      </trkpt>
      <trkpt lat="47.87168" lon="7.14163">
        <ele>709.20001220703</ele>
        <time>2020-05-31T09:17:56.000Z</time>
      </trkpt>
      <trkpt lat="47.87162" lon="7.14161">
        <ele>708.79998779297</ele>
        <time>2020-05-31T09:17:57.000Z</time>
      </trkpt>
      <trkpt lat="47.87156" lon="7.1416">
        <ele>708.20001220703</ele>
        <time>2020-05-31T09:17:58.000Z</time>
      </trkpt>
      <trkpt lat="47.87146" lon="7.1416">
        <ele>707.59997558594</ele>
        <time>2020-05-31T09:17:59.000Z</time>
      </trkpt>
      <trkpt lat="47.87141" lon="7.1416">
        <ele>707</ele>
        <time>2020-05-31T09:18:00.000Z</time>
      </trkpt>
      <trkpt lat="47.87137" lon="7.1416">
        <ele>706.20001220703</ele>
        <time>2020-05-31T09:18:01.000Z</time>
      </trkpt>
      <trkpt lat="47.87132" lon="7.14163">
        <ele>705.59997558594</ele>
        <time>2020-05-31T09:18:02.000Z</time>
      </trkpt>
      <trkpt lat="47.87129" lon="7.14168">
        <ele>704.79998779297</ele>
        <time>2020-05-31T09:18:03.000Z</time>
      </trkpt>
      <trkpt lat="47.87127" lon="7.14177">
        <ele>704.20001220703</ele>
        <time>2020-05-31T09:18:04.000Z</time>
      </trkpt>
      <trkpt lat="47.87126" lon="7.14182">
        <ele>703.40002441406</ele>
        <time>2020-05-31T09:18:05.000Z</time>
      </trkpt>
      <trkpt lat="47.87124" lon="7.14188">
        <ele>702.40002441406</ele>
        <time>2020-05-31T09:18:06.000Z</time>
      </trkpt>
      <trkpt lat="47.87123" lon="7.14195">
        <ele>702</ele>
        <time>2020-05-31T09:18:07.000Z</time>
      </trkpt>
      <trkpt lat="47.87123" lon="7.142">
        <ele>701.40002441406</ele>
        <time>2020-05-31T09:18:08.000Z</time>
      </trkpt>
      <trkpt lat="47.87123" lon="7.14204">
        <ele>700.59997558594</ele>
        <time>2020-05-31T09:18:09.000Z</time>
      </trkpt>
      <trkpt lat="47.87124" lon="7.14207">
        <ele>700</ele>
        <time>2020-05-31T09:18:10.000Z</time>
      </trkpt>
      <trkpt lat="47.87125" lon="7.14212">
        <ele>699.40002441406</ele>
        <time>2020-05-31T09:18:11.000Z</time>
      </trkpt>
      <trkpt lat="47.87125" lon="7.14216">
        <ele>698.59997558594</ele>
        <time>2020-05-31T09:18:12.000Z</time>
      </trkpt>
      <trkpt lat="47.87126" lon="7.14229">
        <ele>698.20001220703</ele>
        <time>2020-05-31T09:18:14.000Z</time>
      </trkpt>
      <trkpt lat="47.87125" lon="7.14235">
        <ele>697.79998779297</ele>
        <time>2020-05-31T09:18:15.000Z</time>
      </trkpt>
      <trkpt lat="47.87125" lon="7.14243">
        <ele>697.40002441406</ele>
        <time>2020-05-31T09:18:16.000Z</time>
      </trkpt>
      <trkpt lat="47.87126" lon="7.14248">
        <ele>696.79998779297</ele>
        <time>2020-05-31T09:18:17.000Z</time>
      </trkpt>
      <trkpt lat="47.87126" lon="7.14255">
        <ele>696.40002441406</ele>
        <time>2020-05-31T09:18:18.000Z</time>
      </trkpt>
      <trkpt lat="47.87126" lon="7.14264">
        <ele>695.79998779297</ele>
        <time>2020-05-31T09:18:19.000Z</time>
      </trkpt>
      <trkpt lat="47.87127" lon="7.14271">
        <ele>695.40002441406</ele>
        <time>2020-05-31T09:18:20.000Z</time>
      </trkpt>
      <trkpt lat="47.87128" lon="7.14276">
        <ele>694.79998779297</ele>
        <time>2020-05-31T09:18:21.000Z</time>
      </trkpt>
      <trkpt lat="47.87128" lon="7.14284">
        <ele>694.20001220703</ele>
        <time>2020-05-31T09:18:22.000Z</time>
      </trkpt>
      <trkpt lat="47.87129" lon="7.14288">
        <ele>694.20001220703</ele>
        <time>2020-05-31T09:18:23.000Z</time>
      </trkpt>
      <trkpt lat="47.8713" lon="7.14293">
        <ele>693.79998779297</ele>
        <time>2020-05-31T09:18:25.000Z</time>
      </trkpt>
      <trkpt lat="47.8713" lon="7.14296">
        <ele>693.40002441406</ele>
        <time>2020-05-31T09:18:26.000Z</time>
      </trkpt>
      <trkpt lat="47.8713" lon="7.14297">
        <ele>692.79998779297</ele>
        <time>2020-05-31T09:18:27.000Z</time>
      </trkpt>
      <trkpt lat="47.87131" lon="7.14299">
        <ele>692.40002441406</ele>
        <time>2020-05-31T09:18:28.000Z</time>
      </trkpt>
      <trkpt lat="47.8714" lon="7.14328">
        <ele>689.40002441406</ele>
        <time>2020-05-31T09:19:02.000Z</time>
      </trkpt>
      <trkpt lat="47.87141" lon="7.14348">
        <ele>689.40002441406</ele>
        <time>2020-05-31T09:19:07.000Z</time>
      </trkpt>
      <trkpt lat="47.8714" lon="7.14354">
        <ele>688.79998779297</ele>
        <time>2020-05-31T09:19:08.000Z</time>
      </trkpt>
      <trkpt lat="47.87139" lon="7.1436">
        <ele>688.40002441406</ele>
        <time>2020-05-31T09:19:09.000Z</time>
      </trkpt>
      <trkpt lat="47.87139" lon="7.14366">
        <ele>687.79998779297</ele>
        <time>2020-05-31T09:19:10.000Z</time>
      </trkpt>
      <trkpt lat="47.87138" lon="7.14371">
        <ele>687</ele>
        <time>2020-05-31T09:19:11.000Z</time>
      </trkpt>
      <trkpt lat="47.87137" lon="7.14377">
        <ele>686.40002441406</ele>
        <time>2020-05-31T09:19:12.000Z</time>
      </trkpt>
      <trkpt lat="47.87136" lon="7.14383">
        <ele>685.59997558594</ele>
        <time>2020-05-31T09:19:13.000Z</time>
      </trkpt>
      <trkpt lat="47.87134" lon="7.14389">
        <ele>684.79998779297</ele>
        <time>2020-05-31T09:19:14.000Z</time>
      </trkpt>
      <trkpt lat="47.87132" lon="7.14395">
        <ele>684.20001220703</ele>
        <time>2020-05-31T09:19:15.000Z</time>
      </trkpt>
      <trkpt lat="47.87129" lon="7.14402">
        <ele>683.40002441406</ele>
        <time>2020-05-31T09:19:16.000Z</time>
      </trkpt>
      <trkpt lat="47.87127" lon="7.14409">
        <ele>682.59997558594</ele>
        <time>2020-05-31T09:19:17.000Z</time>
      </trkpt>
      <trkpt lat="47.87124" lon="7.14417">
        <ele>682</ele>
        <time>2020-05-31T09:19:18.000Z</time>
      </trkpt>
      <trkpt lat="47.87121" lon="7.14425">
        <ele>680.79998779297</ele>
        <time>2020-05-31T09:19:19.000Z</time>
      </trkpt>
      <trkpt lat="47.87118" lon="7.1443">
        <ele>680.20001220703</ele>
        <time>2020-05-31T09:19:20.000Z</time>
      </trkpt>
      <trkpt lat="47.87114" lon="7.14439">
        <ele>679.59997558594</ele>
        <time>2020-05-31T09:19:21.000Z</time>
      </trkpt>
      <trkpt lat="47.87109" lon="7.1445">
        <ele>678.79998779297</ele>
        <time>2020-05-31T09:19:22.000Z</time>
      </trkpt>
      <trkpt lat="47.87105" lon="7.14458">
        <ele>678.20001220703</ele>
        <time>2020-05-31T09:19:23.000Z</time>
      </trkpt>
      <trkpt lat="47.87102" lon="7.14466">
        <ele>677.59997558594</ele>
        <time>2020-05-31T09:19:24.000Z</time>
      </trkpt>
      <trkpt lat="47.871" lon="7.14474">
        <ele>676.79998779297</ele>
        <time>2020-05-31T09:19:25.000Z</time>
      </trkpt>
      <trkpt lat="47.87097" lon="7.14483">
        <ele>676.40002441406</ele>
        <time>2020-05-31T09:19:26.000Z</time>
      </trkpt>
      <trkpt lat="47.87096" lon="7.1449">
        <ele>676</ele>
        <time>2020-05-31T09:19:27.000Z</time>
      </trkpt>
      <trkpt lat="47.87095" lon="7.14498">
        <ele>675.59997558594</ele>
        <time>2020-05-31T09:19:28.000Z</time>
      </trkpt>
      <trkpt lat="47.87094" lon="7.14507">
        <ele>675.20001220703</ele>
        <time>2020-05-31T09:19:29.000Z</time>
      </trkpt>
      <trkpt lat="47.87092" lon="7.14514">
        <ele>674.79998779297</ele>
        <time>2020-05-31T09:19:30.000Z</time>
      </trkpt>
      <trkpt lat="47.87093" lon="7.14535">
        <ele>674.79998779297</ele>
        <time>2020-05-31T09:19:33.000Z</time>
      </trkpt>
      <trkpt lat="47.87094" lon="7.14542">
        <ele>674.40002441406</ele>
        <time>2020-05-31T09:19:34.000Z</time>
      </trkpt>
      <trkpt lat="47.87095" lon="7.14549">
        <ele>673.79998779297</ele>
        <time>2020-05-31T09:19:35.000Z</time>
      </trkpt>
      <trkpt lat="47.87097" lon="7.14555">
        <ele>673.40002441406</ele>
        <time>2020-05-31T09:19:36.000Z</time>
      </trkpt>
      <trkpt lat="47.87098" lon="7.14561">
        <ele>673</ele>
        <time>2020-05-31T09:19:37.000Z</time>
      </trkpt>
      <trkpt lat="47.87099" lon="7.14566">
        <ele>672.59997558594</ele>
        <time>2020-05-31T09:19:38.000Z</time>
      </trkpt>
      <trkpt lat="47.87107" lon="7.14597">
        <ele>672.59997558594</ele>
        <time>2020-05-31T09:19:44.000Z</time>
      </trkpt>
      <trkpt lat="47.87111" lon="7.14623">
        <ele>672.59997558594</ele>
        <time>2020-05-31T09:19:49.000Z</time>
      </trkpt>
      <trkpt lat="47.87114" lon="7.1465">
        <ele>672.59997558594</ele>
        <time>2020-05-31T09:19:54.000Z</time>
      </trkpt>
      <trkpt lat="47.87114" lon="7.14667">
        <ele>672.59997558594</ele>
        <time>2020-05-31T09:19:58.000Z</time>
      </trkpt>
      <trkpt lat="47.87114" lon="7.14671">
        <ele>672</ele>
        <time>2020-05-31T09:19:59.000Z</time>
      </trkpt>
      <trkpt lat="47.87113" lon="7.14675">
        <ele>671.59997558594</ele>
        <time>2020-05-31T09:20:00.000Z</time>
      </trkpt>
      <trkpt lat="47.87113" lon="7.14678">
        <ele>671.20001220703</ele>
        <time>2020-05-31T09:20:01.000Z</time>
      </trkpt>
      <trkpt lat="47.87114" lon="7.1468">
        <ele>670.79998779297</ele>
        <time>2020-05-31T09:20:02.000Z</time>
      </trkpt>
      <trkpt lat="47.87114" lon="7.14682">
        <ele>670.40002441406</ele>
        <time>2020-05-31T09:20:03.000Z</time>
      </trkpt>
      <trkpt lat="47.87118" lon="7.14698">
        <ele>670.40002441406</ele>
        <time>2020-05-31T09:20:07.000Z</time>
      </trkpt>
      <trkpt lat="47.8712" lon="7.14706">
        <ele>670.40002441406</ele>
        <time>2020-05-31T09:20:09.000Z</time>
      </trkpt>
      <trkpt lat="47.87121" lon="7.14715">
        <ele>670.40002441406</ele>
        <time>2020-05-31T09:20:11.000Z</time>
      </trkpt>
      <trkpt lat="47.87123" lon="7.14726">
        <ele>670.40002441406</ele>
        <time>2020-05-31T09:20:13.000Z</time>
      </trkpt>
      <trkpt lat="47.87124" lon="7.14731">
        <ele>670.40002441406</ele>
        <time>2020-05-31T09:20:14.000Z</time>
      </trkpt>
      <trkpt lat="47.87124" lon="7.14736">
        <ele>670.40002441406</ele>
        <time>2020-05-31T09:20:15.000Z</time>
      </trkpt>
      <trkpt lat="47.87126" lon="7.14754">
        <ele>669.79998779297</ele>
        <time>2020-05-31T09:20:18.000Z</time>
      </trkpt>
      <trkpt lat="47.87127" lon="7.14763">
        <ele>669.40002441406</ele>
        <time>2020-05-31T09:20:19.000Z</time>
      </trkpt>
      <trkpt lat="47.87128" lon="7.1477">
        <ele>669</ele>
        <time>2020-05-31T09:20:20.000Z</time>
      </trkpt>
      <trkpt lat="47.87129" lon="7.14775">
        <ele>668.40002441406</ele>
        <time>2020-05-31T09:20:21.000Z</time>
      </trkpt>
      <trkpt lat="47.87129" lon="7.14777">
        <ele>668</ele>
        <time>2020-05-31T09:20:22.000Z</time>
      </trkpt>
      <trkpt lat="47.87129" lon="7.14778">
        <ele>668</ele>
        <time>2020-05-31T09:20:23.000Z</time>
      </trkpt>
      <trkpt lat="47.8713" lon="7.14782">
        <ele>668</ele>
        <time>2020-05-31T09:20:55.000Z</time>
      </trkpt>
      <trkpt lat="47.87129" lon="7.1479">
        <ele>668</ele>
        <time>2020-05-31T09:20:57.000Z</time>
      </trkpt>
      <trkpt lat="47.8713" lon="7.14795">
        <ele>667.40002441406</ele>
        <time>2020-05-31T09:20:58.000Z</time>
      </trkpt>
      <trkpt lat="47.87131" lon="7.14801">
        <ele>666.40002441406</ele>
        <time>2020-05-31T09:20:59.000Z</time>
      </trkpt>
      <trkpt lat="47.87131" lon="7.14807">
        <ele>665.79998779297</ele>
        <time>2020-05-31T09:21:00.000Z</time>
      </trkpt>
      <trkpt lat="47.87132" lon="7.14812">
        <ele>665.20001220703</ele>
        <time>2020-05-31T09:21:01.000Z</time>
      </trkpt>
      <trkpt lat="47.87132" lon="7.14819">
        <ele>664.59997558594</ele>
        <time>2020-05-31T09:21:02.000Z</time>
      </trkpt>
      <trkpt lat="47.87132" lon="7.14826">
        <ele>664.20001220703</ele>
        <time>2020-05-31T09:21:03.000Z</time>
      </trkpt>
      <trkpt lat="47.87133" lon="7.14834">
        <ele>663.40002441406</ele>
        <time>2020-05-31T09:21:04.000Z</time>
      </trkpt>
      <trkpt lat="47.87133" lon="7.14843">
        <ele>662.79998779297</ele>
        <time>2020-05-31T09:21:05.000Z</time>
      </trkpt>
      <trkpt lat="47.87134" lon="7.14851">
        <ele>662.20001220703</ele>
        <time>2020-05-31T09:21:06.000Z</time>
      </trkpt>
      <trkpt lat="47.87135" lon="7.14856">
        <ele>661.59997558594</ele>
        <time>2020-05-31T09:21:07.000Z</time>
      </trkpt>
      <trkpt lat="47.87136" lon="7.1486">
        <ele>661</ele>
        <time>2020-05-31T09:21:08.000Z</time>
      </trkpt>
      <trkpt lat="47.87136" lon="7.14863">
        <ele>661</ele>
        <time>2020-05-31T09:21:09.000Z</time>
      </trkpt>
      <trkpt lat="47.87136" lon="7.14864">
        <ele>661</ele>
        <time>2020-05-31T09:21:10.000Z</time>
      </trkpt>
      <trkpt lat="47.87137" lon="7.14878">
        <ele>663.20001220703</ele>
        <time>2020-05-31T09:21:26.000Z</time>
      </trkpt>
      <trkpt lat="47.87137" lon="7.14882">
        <ele>663.20001220703</ele>
        <time>2020-05-31T09:21:27.000Z</time>
      </trkpt>
      <trkpt lat="47.87134" lon="7.149">
        <ele>663.20001220703</ele>
        <time>2020-05-31T09:21:31.000Z</time>
      </trkpt>
      <trkpt lat="47.87134" lon="7.14914">
        <ele>662.59997558594</ele>
        <time>2020-05-31T09:21:34.000Z</time>
      </trkpt>
      <trkpt lat="47.87134" lon="7.1492">
        <ele>662</ele>
        <time>2020-05-31T09:21:35.000Z</time>
      </trkpt>
      <trkpt lat="47.87134" lon="7.14927">
        <ele>661.20001220703</ele>
        <time>2020-05-31T09:21:36.000Z</time>
      </trkpt>
      <trkpt lat="47.87135" lon="7.14934">
        <ele>660.59997558594</ele>
        <time>2020-05-31T09:21:37.000Z</time>
      </trkpt>
      <trkpt lat="47.87135" lon="7.1494">
        <ele>659.59997558594</ele>
        <time>2020-05-31T09:21:38.000Z</time>
      </trkpt>
      <trkpt lat="47.87134" lon="7.14945">
        <ele>658.79998779297</ele>
        <time>2020-05-31T09:21:39.000Z</time>
      </trkpt>
      <trkpt lat="47.87134" lon="7.14951">
        <ele>658</ele>
        <time>2020-05-31T09:21:40.000Z</time>
      </trkpt>
      <trkpt lat="47.87133" lon="7.14955">
        <ele>657.20001220703</ele>
        <time>2020-05-31T09:21:41.000Z</time>
      </trkpt>
      <trkpt lat="47.87132" lon="7.14958">
        <ele>656.40002441406</ele>
        <time>2020-05-31T09:21:42.000Z</time>
      </trkpt>
      <trkpt lat="47.87131" lon="7.1496">
        <ele>655.59997558594</ele>
        <time>2020-05-31T09:21:43.000Z</time>
      </trkpt>
      <trkpt lat="47.8713" lon="7.14963">
        <ele>654.79998779297</ele>
        <time>2020-05-31T09:21:44.000Z</time>
      </trkpt>
      <trkpt lat="47.8713" lon="7.14967">
        <ele>654</ele>
        <time>2020-05-31T09:21:45.000Z</time>
      </trkpt>
      <trkpt lat="47.87129" lon="7.14975">
        <ele>653.59997558594</ele>
        <time>2020-05-31T09:21:47.000Z</time>
      </trkpt>
      <trkpt lat="47.87129" lon="7.14979">
        <ele>653</ele>
        <time>2020-05-31T09:21:48.000Z</time>
      </trkpt>
      <trkpt lat="47.87129" lon="7.14982">
        <ele>652</ele>
        <time>2020-05-31T09:21:49.000Z</time>
      </trkpt>
      <trkpt lat="47.87128" lon="7.14985">
        <ele>651.40002441406</ele>
        <time>2020-05-31T09:21:50.000Z</time>
      </trkpt>
      <trkpt lat="47.87126" lon="7.14988">
        <ele>650.79998779297</ele>
        <time>2020-05-31T09:21:51.000Z</time>
      </trkpt>
      <trkpt lat="47.87124" lon="7.14991">
        <ele>650</ele>
        <time>2020-05-31T09:21:52.000Z</time>
      </trkpt>
      <trkpt lat="47.87123" lon="7.14995">
        <ele>649.40002441406</ele>
        <time>2020-05-31T09:21:53.000Z</time>
      </trkpt>
      <trkpt lat="47.87122" lon="7.15001">
        <ele>648.79998779297</ele>
        <time>2020-05-31T09:21:54.000Z</time>
      </trkpt>
      <trkpt lat="47.87121" lon="7.15005">
        <ele>648</ele>
        <time>2020-05-31T09:21:55.000Z</time>
      </trkpt>
      <trkpt lat="47.87121" lon="7.15009">
        <ele>647.40002441406</ele>
        <time>2020-05-31T09:21:56.000Z</time>
      </trkpt>
      <trkpt lat="47.8712" lon="7.15012">
        <ele>646.79998779297</ele>
        <time>2020-05-31T09:21:57.000Z</time>
      </trkpt>
      <trkpt lat="47.8712" lon="7.15016">
        <ele>646.20001220703</ele>
        <time>2020-05-31T09:21:58.000Z</time>
      </trkpt>
      <trkpt lat="47.87119" lon="7.15019">
        <ele>645.59997558594</ele>
        <time>2020-05-31T09:21:59.000Z</time>
      </trkpt>
      <trkpt lat="47.87117" lon="7.15022">
        <ele>644.79998779297</ele>
        <time>2020-05-31T09:22:00.000Z</time>
      </trkpt>
      <trkpt lat="47.87116" lon="7.15025">
        <ele>644.20001220703</ele>
        <time>2020-05-31T09:22:01.000Z</time>
      </trkpt>
      <trkpt lat="47.87115" lon="7.15029">
        <ele>643.40002441406</ele>
        <time>2020-05-31T09:22:02.000Z</time>
      </trkpt>
      <trkpt lat="47.87113" lon="7.15032">
        <ele>642.59997558594</ele>
        <time>2020-05-31T09:22:03.000Z</time>
      </trkpt>
      <trkpt lat="47.87112" lon="7.15036">
        <ele>642</ele>
        <time>2020-05-31T09:22:04.000Z</time>
      </trkpt>
      <trkpt lat="47.87111" lon="7.1504">
        <ele>641.20001220703</ele>
        <time>2020-05-31T09:22:05.000Z</time>
      </trkpt>
      <trkpt lat="47.87111" lon="7.15044">
        <ele>640.59997558594</ele>
        <time>2020-05-31T09:22:06.000Z</time>
      </trkpt>
      <trkpt lat="47.87112" lon="7.15049">
        <ele>639.79998779297</ele>
        <time>2020-05-31T09:22:07.000Z</time>
      </trkpt>
      <trkpt lat="47.87112" lon="7.15054">
        <ele>639</ele>
        <time>2020-05-31T09:22:08.000Z</time>
      </trkpt>
      <trkpt lat="47.87113" lon="7.15058">
        <ele>638.20001220703</ele>
        <time>2020-05-31T09:22:09.000Z</time>
      </trkpt>
      <trkpt lat="47.87113" lon="7.15062">
        <ele>637.40002441406</ele>
        <time>2020-05-31T09:22:10.000Z</time>
      </trkpt>
      <trkpt lat="47.87113" lon="7.15067">
        <ele>636.59997558594</ele>
        <time>2020-05-31T09:22:11.000Z</time>
      </trkpt>
      <trkpt lat="47.87114" lon="7.15071">
        <ele>635.79998779297</ele>
        <time>2020-05-31T09:22:12.000Z</time>
      </trkpt>
      <trkpt lat="47.87114" lon="7.15074">
        <ele>634.79998779297</ele>
        <time>2020-05-31T09:22:13.000Z</time>
      </trkpt>
      <trkpt lat="47.87114" lon="7.15077">
        <ele>633.20001220703</ele>
        <time>2020-05-31T09:22:14.000Z</time>
      </trkpt>
      <trkpt lat="47.87114" lon="7.1508">
        <ele>632.40002441406</ele>
        <time>2020-05-31T09:22:15.000Z</time>
      </trkpt>
      <trkpt lat="47.87114" lon="7.15085">
        <ele>631.79998779297</ele>
        <time>2020-05-31T09:22:16.000Z</time>
      </trkpt>
      <trkpt lat="47.87115" lon="7.15091">
        <ele>631.20001220703</ele>
        <time>2020-05-31T09:22:17.000Z</time>
      </trkpt>
      <trkpt lat="47.87115" lon="7.15098">
        <ele>630.40002441406</ele>
        <time>2020-05-31T09:22:18.000Z</time>
      </trkpt>
      <trkpt lat="47.87114" lon="7.15104">
        <ele>629.59997558594</ele>
        <time>2020-05-31T09:22:19.000Z</time>
      </trkpt>
      <trkpt lat="47.87114" lon="7.1511">
        <ele>628.79998779297</ele>
        <time>2020-05-31T09:22:20.000Z</time>
      </trkpt>
      <trkpt lat="47.87113" lon="7.15115">
        <ele>627.79998779297</ele>
        <time>2020-05-31T09:22:21.000Z</time>
      </trkpt>
      <trkpt lat="47.87112" lon="7.1512">
        <ele>627</ele>
        <time>2020-05-31T09:22:22.000Z</time>
      </trkpt>
      <trkpt lat="47.87111" lon="7.15125">
        <ele>626.20001220703</ele>
        <time>2020-05-31T09:22:23.000Z</time>
      </trkpt>
      <trkpt lat="47.87112" lon="7.15131">
        <ele>625.40002441406</ele>
        <time>2020-05-31T09:22:24.000Z</time>
      </trkpt>
      <trkpt lat="47.87112" lon="7.15138">
        <ele>624.79998779297</ele>
        <time>2020-05-31T09:22:25.000Z</time>
      </trkpt>
      <trkpt lat="47.87112" lon="7.15146">
        <ele>624</ele>
        <time>2020-05-31T09:22:26.000Z</time>
      </trkpt>
      <trkpt lat="47.87114" lon="7.15153">
        <ele>623.40002441406</ele>
        <time>2020-05-31T09:22:27.000Z</time>
      </trkpt>
      <trkpt lat="47.87115" lon="7.15161">
        <ele>622.59997558594</ele>
        <time>2020-05-31T09:22:28.000Z</time>
      </trkpt>
      <trkpt lat="47.87116" lon="7.15168">
        <ele>621.79998779297</ele>
        <time>2020-05-31T09:22:29.000Z</time>
      </trkpt>
      <trkpt lat="47.87118" lon="7.15173">
        <ele>620.79998779297</ele>
        <time>2020-05-31T09:22:30.000Z</time>
      </trkpt>
      <trkpt lat="47.87119" lon="7.15176">
        <ele>620.20001220703</ele>
        <time>2020-05-31T09:22:31.000Z</time>
      </trkpt>
      <trkpt lat="47.8712" lon="7.15177">
        <ele>619.40002441406</ele>
        <time>2020-05-31T09:22:32.000Z</time>
      </trkpt>
      <trkpt lat="47.8712" lon="7.15186">
        <ele>617</ele>
        <time>2020-05-31T09:22:44.000Z</time>
      </trkpt>
      <trkpt lat="47.87121" lon="7.15191">
        <ele>616.59997558594</ele>
        <time>2020-05-31T09:22:47.000Z</time>
      </trkpt>
      <trkpt lat="47.8712" lon="7.15191">
        <ele>616.20001220703</ele>
        <time>2020-05-31T09:22:48.000Z</time>
      </trkpt>
      <trkpt lat="47.87119" lon="7.15192">
        <ele>615.59997558594</ele>
        <time>2020-05-31T09:22:49.000Z</time>
      </trkpt>
      <trkpt lat="47.87119" lon="7.15191">
        <ele>615.20001220703</ele>
        <time>2020-05-31T09:22:50.000Z</time>
      </trkpt>
      <trkpt lat="47.87118" lon="7.15191">
        <ele>614.79998779297</ele>
        <time>2020-05-31T09:22:51.000Z</time>
      </trkpt>
      <trkpt lat="47.87116" lon="7.1519">
        <ele>614.79998779297</ele>
        <time>2020-05-31T09:22:53.000Z</time>
      </trkpt>
      <trkpt lat="47.8711" lon="7.15188">
        <ele>614.79998779297</ele>
        <time>2020-05-31T09:22:58.000Z</time>
      </trkpt>
      <trkpt lat="47.8711" lon="7.15188">
        <ele>614.40002441406</ele>
        <time>2020-05-31T09:22:59.000Z</time>
      </trkpt>
      <trkpt lat="47.87109" lon="7.15188">
        <ele>614</ele>
        <time>2020-05-31T09:23:00.000Z</time>
      </trkpt>
      <trkpt lat="47.87109" lon="7.1519">
        <ele>612.79998779297</ele>
        <time>2020-05-31T09:23:14.000Z</time>
      </trkpt>
      <trkpt lat="47.8711" lon="7.15192">
        <ele>612.79998779297</ele>
        <time>2020-05-31T09:23:15.000Z</time>
      </trkpt>
      <trkpt lat="47.87111" lon="7.15195">
        <ele>612.40002441406</ele>
        <time>2020-05-31T09:23:17.000Z</time>
      </trkpt>
      <trkpt lat="47.87112" lon="7.15198">
        <ele>611.79998779297</ele>
        <time>2020-05-31T09:23:18.000Z</time>
      </trkpt>
      <trkpt lat="47.87114" lon="7.15201">
        <ele>611.40002441406</ele>
        <time>2020-05-31T09:23:19.000Z</time>
      </trkpt>
      <trkpt lat="47.87116" lon="7.15204">
        <ele>611</ele>
        <time>2020-05-31T09:23:20.000Z</time>
      </trkpt>
      <trkpt lat="47.87118" lon="7.15207">
        <ele>610.40002441406</ele>
        <time>2020-05-31T09:23:21.000Z</time>
      </trkpt>
      <trkpt lat="47.8712" lon="7.15214">
        <ele>610</ele>
        <time>2020-05-31T09:23:23.000Z</time>
      </trkpt>
      <trkpt lat="47.8712" lon="7.15218">
        <ele>609.40002441406</ele>
        <time>2020-05-31T09:23:24.000Z</time>
      </trkpt>
      <trkpt lat="47.87121" lon="7.15222">
        <ele>609</ele>
        <time>2020-05-31T09:23:25.000Z</time>
      </trkpt>
      <trkpt lat="47.87122" lon="7.15225">
        <ele>608.40002441406</ele>
        <time>2020-05-31T09:23:26.000Z</time>
      </trkpt>
      <trkpt lat="47.87122" lon="7.15228">
        <ele>607.79998779297</ele>
        <time>2020-05-31T09:23:27.000Z</time>
      </trkpt>
      <trkpt lat="47.87122" lon="7.1523">
        <ele>606.40002441406</ele>
        <time>2020-05-31T09:23:28.000Z</time>
      </trkpt>
      <trkpt lat="47.87122" lon="7.15234">
        <ele>605.59997558594</ele>
        <time>2020-05-31T09:23:29.000Z</time>
      </trkpt>
      <trkpt lat="47.87123" lon="7.15239">
        <ele>604.79998779297</ele>
        <time>2020-05-31T09:23:30.000Z</time>
      </trkpt>
      <trkpt lat="47.87125" lon="7.15244">
        <ele>604</ele>
        <time>2020-05-31T09:23:31.000Z</time>
      </trkpt>
      <trkpt lat="47.87126" lon="7.15249">
        <ele>603.20001220703</ele>
        <time>2020-05-31T09:23:32.000Z</time>
      </trkpt>
      <trkpt lat="47.87127" lon="7.15253">
        <ele>602.40002441406</ele>
        <time>2020-05-31T09:23:33.000Z</time>
      </trkpt>
      <trkpt lat="47.87127" lon="7.15257">
        <ele>601.59997558594</ele>
        <time>2020-05-31T09:23:34.000Z</time>
      </trkpt>
      <trkpt lat="47.87128" lon="7.15261">
        <ele>600.59997558594</ele>
        <time>2020-05-31T09:23:35.000Z</time>
      </trkpt>
      <trkpt lat="47.8713" lon="7.15263">
        <ele>599.79998779297</ele>
        <time>2020-05-31T09:23:36.000Z</time>
      </trkpt>
      <trkpt lat="47.87131" lon="7.15263">
        <ele>599</ele>
        <time>2020-05-31T09:23:37.000Z</time>
      </trkpt>
      <trkpt lat="47.87133" lon="7.15262">
        <ele>598.20001220703</ele>
        <time>2020-05-31T09:23:38.000Z</time>
      </trkpt>
      <trkpt lat="47.87136" lon="7.15259">
        <ele>597.40002441406</ele>
        <time>2020-05-31T09:23:39.000Z</time>
      </trkpt>
      <trkpt lat="47.87139" lon="7.15257">
        <ele>596.59997558594</ele>
        <time>2020-05-31T09:23:40.000Z</time>
      </trkpt>
      <trkpt lat="47.87143" lon="7.15255">
        <ele>595.79998779297</ele>
        <time>2020-05-31T09:23:41.000Z</time>
      </trkpt>
      <trkpt lat="47.8715" lon="7.15251">
        <ele>595.40002441406</ele>
        <time>2020-05-31T09:23:43.000Z</time>
      </trkpt>
      <trkpt lat="47.87153" lon="7.15248">
        <ele>595</ele>
        <time>2020-05-31T09:23:44.000Z</time>
      </trkpt>
      <trkpt lat="47.87157" lon="7.15245">
        <ele>594.40002441406</ele>
        <time>2020-05-31T09:23:45.000Z</time>
      </trkpt>
      <trkpt lat="47.8716" lon="7.15242">
        <ele>593.79998779297</ele>
        <time>2020-05-31T09:23:46.000Z</time>
      </trkpt>
      <trkpt lat="47.87162" lon="7.15241">
        <ele>593.20001220703</ele>
        <time>2020-05-31T09:23:47.000Z</time>
      </trkpt>
      <trkpt lat="47.87164" lon="7.1524">
        <ele>592.59997558594</ele>
        <time>2020-05-31T09:23:48.000Z</time>
      </trkpt>
      <trkpt lat="47.87165" lon="7.1524">
        <ele>592</ele>
        <time>2020-05-31T09:23:49.000Z</time>
      </trkpt>
      <trkpt lat="47.87166" lon="7.1524">
        <ele>591.40002441406</ele>
        <time>2020-05-31T09:23:50.000Z</time>
      </trkpt>
      <trkpt lat="47.87167" lon="7.1524">
        <ele>590.79998779297</ele>
        <time>2020-05-31T09:23:51.000Z</time>
      </trkpt>
      <trkpt lat="47.87167" lon="7.15239">
        <ele>590.40002441406</ele>
        <time>2020-05-31T09:23:52.000Z</time>
      </trkpt>
      <trkpt lat="47.8717" lon="7.15242">
        <ele>587.40002441406</ele>
        <time>2020-05-31T09:24:01.000Z</time>
      </trkpt>
      <trkpt lat="47.87172" lon="7.15243">
        <ele>587</ele>
        <time>2020-05-31T09:24:02.000Z</time>
      </trkpt>
      <trkpt lat="47.87174" lon="7.15244">
        <ele>586.40002441406</ele>
        <time>2020-05-31T09:24:03.000Z</time>
      </trkpt>
      <trkpt lat="47.87176" lon="7.15246">
        <ele>586</ele>
        <time>2020-05-31T09:24:04.000Z</time>
      </trkpt>
      <trkpt lat="47.87178" lon="7.15247">
        <ele>585.20001220703</ele>
        <time>2020-05-31T09:24:05.000Z</time>
      </trkpt>
      <trkpt lat="47.8718" lon="7.15247">
        <ele>584.59997558594</ele>
        <time>2020-05-31T09:24:06.000Z</time>
      </trkpt>
      <trkpt lat="47.87181" lon="7.15246">
        <ele>583.79998779297</ele>
        <time>2020-05-31T09:24:07.000Z</time>
      </trkpt>
      <trkpt lat="47.87184" lon="7.15245">
        <ele>583</ele>
        <time>2020-05-31T09:24:08.000Z</time>
      </trkpt>
      <trkpt lat="47.87186" lon="7.15244">
        <ele>582.40002441406</ele>
        <time>2020-05-31T09:24:09.000Z</time>
      </trkpt>
      <trkpt lat="47.87188" lon="7.15243">
        <ele>581.59997558594</ele>
        <time>2020-05-31T09:24:10.000Z</time>
      </trkpt>
      <trkpt lat="47.87191" lon="7.15242">
        <ele>580.79998779297</ele>
        <time>2020-05-31T09:24:11.000Z</time>
      </trkpt>
      <trkpt lat="47.87192" lon="7.15243">
        <ele>580</ele>
        <time>2020-05-31T09:24:12.000Z</time>
      </trkpt>
      <trkpt lat="47.87194" lon="7.15245">
        <ele>579.59997558594</ele>
        <time>2020-05-31T09:24:13.000Z</time>
      </trkpt>
      <trkpt lat="47.87195" lon="7.15247">
        <ele>579.20001220703</ele>
        <time>2020-05-31T09:24:14.000Z</time>
      </trkpt>
      <trkpt lat="47.87196" lon="7.15249">
        <ele>578.59997558594</ele>
        <time>2020-05-31T09:24:15.000Z</time>
      </trkpt>
      <trkpt lat="47.87197" lon="7.15252">
        <ele>578.20001220703</ele>
        <time>2020-05-31T09:24:16.000Z</time>
      </trkpt>
      <trkpt lat="47.87198" lon="7.15257">
        <ele>577.59997558594</ele>
        <time>2020-05-31T09:24:17.000Z</time>
      </trkpt>
      <trkpt lat="47.87199" lon="7.15264">
        <ele>576.40002441406</ele>
        <time>2020-05-31T09:24:18.000Z</time>
      </trkpt>
      <trkpt lat="47.87199" lon="7.1527">
        <ele>575.59997558594</ele>
        <time>2020-05-31T09:24:19.000Z</time>
      </trkpt>
      <trkpt lat="47.87199" lon="7.15276">
        <ele>575</ele>
        <time>2020-05-31T09:24:20.000Z</time>
      </trkpt>
      <trkpt lat="47.87199" lon="7.1528">
        <ele>574.20001220703</ele>
        <time>2020-05-31T09:24:21.000Z</time>
      </trkpt>
      <trkpt lat="47.87199" lon="7.15285">
        <ele>573.40002441406</ele>
        <time>2020-05-31T09:24:22.000Z</time>
      </trkpt>
      <trkpt lat="47.872" lon="7.15291">
        <ele>572.59997558594</ele>
        <time>2020-05-31T09:24:23.000Z</time>
      </trkpt>
      <trkpt lat="47.872" lon="7.15302">
        <ele>572.20001220703</ele>
        <time>2020-05-31T09:24:25.000Z</time>
      </trkpt>
      <trkpt lat="47.87199" lon="7.15308">
        <ele>571.79998779297</ele>
        <time>2020-05-31T09:24:26.000Z</time>
      </trkpt>
      <trkpt lat="47.87198" lon="7.15313">
        <ele>571.40002441406</ele>
        <time>2020-05-31T09:24:27.000Z</time>
      </trkpt>
      <trkpt lat="47.87197" lon="7.1532">
        <ele>570.59997558594</ele>
        <time>2020-05-31T09:24:28.000Z</time>
      </trkpt>
      <trkpt lat="47.87196" lon="7.15326">
        <ele>570</ele>
        <time>2020-05-31T09:24:29.000Z</time>
      </trkpt>
      <trkpt lat="47.87196" lon="7.15333">
        <ele>569.40002441406</ele>
        <time>2020-05-31T09:24:30.000Z</time>
      </trkpt>
      <trkpt lat="47.87195" lon="7.1534">
        <ele>568.59997558594</ele>
        <time>2020-05-31T09:24:31.000Z</time>
      </trkpt>
      <trkpt lat="47.87195" lon="7.15349">
        <ele>568.20001220703</ele>
        <time>2020-05-31T09:24:32.000Z</time>
      </trkpt>
      <trkpt lat="47.87195" lon="7.1536">
        <ele>567.59997558594</ele>
        <time>2020-05-31T09:24:33.000Z</time>
      </trkpt>
      <trkpt lat="47.87196" lon="7.15369">
        <ele>567</ele>
        <time>2020-05-31T09:24:34.000Z</time>
      </trkpt>
      <trkpt lat="47.87197" lon="7.15378">
        <ele>566.20001220703</ele>
        <time>2020-05-31T09:24:35.000Z</time>
      </trkpt>
      <trkpt lat="47.87197" lon="7.15386">
        <ele>565.40002441406</ele>
        <time>2020-05-31T09:24:36.000Z</time>
      </trkpt>
      <trkpt lat="47.87197" lon="7.15392">
        <ele>564.59997558594</ele>
        <time>2020-05-31T09:24:37.000Z</time>
      </trkpt>
      <trkpt lat="47.87198" lon="7.154">
        <ele>563.79998779297</ele>
        <time>2020-05-31T09:24:38.000Z</time>
      </trkpt>
      <trkpt lat="47.87199" lon="7.15408">
        <ele>563</ele>
        <time>2020-05-31T09:24:39.000Z</time>
      </trkpt>
      <trkpt lat="47.872" lon="7.15416">
        <ele>562.20001220703</ele>
        <time>2020-05-31T09:24:40.000Z</time>
      </trkpt>
      <trkpt lat="47.87202" lon="7.15425">
        <ele>561.20001220703</ele>
        <time>2020-05-31T09:24:41.000Z</time>
      </trkpt>
      <trkpt lat="47.87203" lon="7.15433">
        <ele>559.40002441406</ele>
        <time>2020-05-31T09:24:42.000Z</time>
      </trkpt>
      <trkpt lat="47.87204" lon="7.15442">
        <ele>558.59997558594</ele>
        <time>2020-05-31T09:24:43.000Z</time>
      </trkpt>
      <trkpt lat="47.87205" lon="7.15453">
        <ele>557.59997558594</ele>
        <time>2020-05-31T09:24:44.000Z</time>
      </trkpt>
      <trkpt lat="47.87207" lon="7.15465">
        <ele>556.40002441406</ele>
        <time>2020-05-31T09:24:45.000Z</time>
      </trkpt>
      <trkpt lat="47.87208" lon="7.15476">
        <ele>555.20001220703</ele>
        <time>2020-05-31T09:24:46.000Z</time>
      </trkpt>
      <trkpt lat="47.87209" lon="7.15486">
        <ele>554</ele>
        <time>2020-05-31T09:24:47.000Z</time>
      </trkpt>
      <trkpt lat="47.87209" lon="7.15495">
        <ele>552.59997558594</ele>
        <time>2020-05-31T09:24:48.000Z</time>
      </trkpt>
      <trkpt lat="47.8721" lon="7.15504">
        <ele>551.79998779297</ele>
        <time>2020-05-31T09:24:49.000Z</time>
      </trkpt>
      <trkpt lat="47.87211" lon="7.15513">
        <ele>550.79998779297</ele>
        <time>2020-05-31T09:24:50.000Z</time>
      </trkpt>
      <trkpt lat="47.87212" lon="7.15521">
        <ele>549.59997558594</ele>
        <time>2020-05-31T09:24:51.000Z</time>
      </trkpt>
      <trkpt lat="47.87212" lon="7.15525">
        <ele>548.59997558594</ele>
        <time>2020-05-31T09:24:52.000Z</time>
      </trkpt>
      <trkpt lat="47.87221" lon="7.15536">
        <ele>545.40002441406</ele>
        <time>2020-05-31T09:27:42.000Z</time>
      </trkpt>
      <trkpt lat="47.87224" lon="7.15546">
        <ele>544.79998779297</ele>
        <time>2020-05-31T09:27:45.000Z</time>
      </trkpt>
      <trkpt lat="47.87225" lon="7.15551">
        <ele>544.40002441406</ele>
        <time>2020-05-31T09:27:46.000Z</time>
      </trkpt>
      <trkpt lat="47.87225" lon="7.15556">
        <ele>544</ele>
        <time>2020-05-31T09:27:47.000Z</time>
      </trkpt>
      <trkpt lat="47.87226" lon="7.15562">
        <ele>543.20001220703</ele>
        <time>2020-05-31T09:27:48.000Z</time>
      </trkpt>
      <trkpt lat="47.87228" lon="7.15568">
        <ele>542.59997558594</ele>
        <time>2020-05-31T09:27:49.000Z</time>
      </trkpt>
      <trkpt lat="47.87229" lon="7.15573">
        <ele>541.59997558594</ele>
        <time>2020-05-31T09:27:50.000Z</time>
      </trkpt>
      <trkpt lat="47.8723" lon="7.15578">
        <ele>540.59997558594</ele>
        <time>2020-05-31T09:27:51.000Z</time>
      </trkpt>
      <trkpt lat="47.8723" lon="7.15583">
        <ele>539.79998779297</ele>
        <time>2020-05-31T09:27:52.000Z</time>
      </trkpt>
      <trkpt lat="47.8723" lon="7.15587">
        <ele>538.79998779297</ele>
        <time>2020-05-31T09:27:53.000Z</time>
      </trkpt>
      <trkpt lat="47.87229" lon="7.1559">
        <ele>537.79998779297</ele>
        <time>2020-05-31T09:27:54.000Z</time>
      </trkpt>
      <trkpt lat="47.87227" lon="7.15591">
        <ele>536.79998779297</ele>
        <time>2020-05-31T09:27:55.000Z</time>
      </trkpt>
      <trkpt lat="47.87226" lon="7.15592">
        <ele>536</ele>
        <time>2020-05-31T09:27:56.000Z</time>
      </trkpt>
      <trkpt lat="47.87224" lon="7.15592">
        <ele>535</ele>
        <time>2020-05-31T09:27:57.000Z</time>
      </trkpt>
      <trkpt lat="47.87224" lon="7.15593">
        <ele>534.20001220703</ele>
        <time>2020-05-31T09:27:58.000Z</time>
      </trkpt>
      <trkpt lat="47.8723" lon="7.15602">
        <ele>531.20001220703</ele>
        <time>2020-05-31T09:31:33.000Z</time>
      </trkpt>
      <trkpt lat="47.87233" lon="7.15615">
        <ele>530.79998779297</ele>
        <time>2020-05-31T09:31:37.000Z</time>
      </trkpt>
      <trkpt lat="47.87236" lon="7.1562">
        <ele>530.20001220703</ele>
        <time>2020-05-31T09:31:38.000Z</time>
      </trkpt>
      <trkpt lat="47.87238" lon="7.15624">
        <ele>529.59997558594</ele>
        <time>2020-05-31T09:31:39.000Z</time>
      </trkpt>
      <trkpt lat="47.87241" lon="7.15628">
        <ele>528.79998779297</ele>
        <time>2020-05-31T09:31:40.000Z</time>
      </trkpt>
      <trkpt lat="47.87243" lon="7.1563">
        <ele>528</ele>
        <time>2020-05-31T09:31:41.000Z</time>
      </trkpt>
      <trkpt lat="47.87245" lon="7.15631">
        <ele>527</ele>
        <time>2020-05-31T09:31:42.000Z</time>
      </trkpt>
      <trkpt lat="47.87248" lon="7.15632">
        <ele>525.20001220703</ele>
        <time>2020-05-31T09:31:43.000Z</time>
      </trkpt>
      <trkpt lat="47.87251" lon="7.15633">
        <ele>524.20001220703</ele>
        <time>2020-05-31T09:31:44.000Z</time>
      </trkpt>
      <trkpt lat="47.87253" lon="7.15633">
        <ele>523.20001220703</ele>
        <time>2020-05-31T09:31:45.000Z</time>
      </trkpt>
      <trkpt lat="47.87255" lon="7.15633">
        <ele>522.59997558594</ele>
        <time>2020-05-31T09:31:46.000Z</time>
      </trkpt>
      <trkpt lat="47.87256" lon="7.15632">
        <ele>522</ele>
        <time>2020-05-31T09:31:47.000Z</time>
      </trkpt>
      <trkpt lat="47.87257" lon="7.15634">
        <ele>521.40002441406</ele>
        <time>2020-05-31T09:31:48.000Z</time>
      </trkpt>
      <trkpt lat="47.87259" lon="7.15637">
        <ele>520.79998779297</ele>
        <time>2020-05-31T09:31:49.000Z</time>
      </trkpt>
      <trkpt lat="47.87261" lon="7.15641">
        <ele>520.20001220703</ele>
        <time>2020-05-31T09:31:50.000Z</time>
      </trkpt>
      <trkpt lat="47.87262" lon="7.15644">
        <ele>519.79998779297</ele>
        <time>2020-05-31T09:31:51.000Z</time>
      </trkpt>
      <trkpt lat="47.87264" lon="7.15647">
        <ele>519.40002441406</ele>
        <time>2020-05-31T09:31:52.000Z</time>
      </trkpt>
      <trkpt lat="47.87267" lon="7.15651">
        <ele>519</ele>
        <time>2020-05-31T09:31:53.000Z</time>
      </trkpt>
      <trkpt lat="47.87269" lon="7.15655">
        <ele>518.40002441406</ele>
        <time>2020-05-31T09:31:54.000Z</time>
      </trkpt>
      <trkpt lat="47.87273" lon="7.15659">
        <ele>517.79998779297</ele>
        <time>2020-05-31T09:31:55.000Z</time>
      </trkpt>
      <trkpt lat="47.87276" lon="7.15664">
        <ele>517</ele>
        <time>2020-05-31T09:31:56.000Z</time>
      </trkpt>
      <trkpt lat="47.87277" lon="7.1567">
        <ele>516.40002441406</ele>
        <time>2020-05-31T09:31:57.000Z</time>
      </trkpt>
      <trkpt lat="47.87278" lon="7.15676">
        <ele>515.59997558594</ele>
        <time>2020-05-31T09:31:58.000Z</time>
      </trkpt>
      <trkpt lat="47.87279" lon="7.15684">
        <ele>514.79998779297</ele>
        <time>2020-05-31T09:31:59.000Z</time>
      </trkpt>
      <trkpt lat="47.8728" lon="7.15691">
        <ele>513.79998779297</ele>
        <time>2020-05-31T09:32:00.000Z</time>
      </trkpt>
      <trkpt lat="47.87282" lon="7.15697">
        <ele>512.79998779297</ele>
        <time>2020-05-31T09:32:01.000Z</time>
      </trkpt>
      <trkpt lat="47.87284" lon="7.15701">
        <ele>511.79998779297</ele>
        <time>2020-05-31T09:32:02.000Z</time>
      </trkpt>
      <trkpt lat="47.87287" lon="7.15708">
        <ele>510.79998779297</ele>
        <time>2020-05-31T09:32:03.000Z</time>
      </trkpt>
      <trkpt lat="47.87291" lon="7.15712">
        <ele>509.79998779297</ele>
        <time>2020-05-31T09:32:04.000Z</time>
      </trkpt>
      <trkpt lat="47.87293" lon="7.15717">
        <ele>509</ele>
        <time>2020-05-31T09:32:05.000Z</time>
      </trkpt>
      <trkpt lat="47.87295" lon="7.15722">
        <ele>508</ele>
        <time>2020-05-31T09:32:06.000Z</time>
      </trkpt>
      <trkpt lat="47.87297" lon="7.15726">
        <ele>507</ele>
        <time>2020-05-31T09:32:07.000Z</time>
      </trkpt>
      <trkpt lat="47.873" lon="7.15729">
        <ele>505</ele>
        <time>2020-05-31T09:32:08.000Z</time>
      </trkpt>
      <trkpt lat="47.87302" lon="7.15731">
        <ele>504.20001220703</ele>
        <time>2020-05-31T09:32:09.000Z</time>
      </trkpt>
      <trkpt lat="47.87305" lon="7.15732">
        <ele>503.39999389648</ele>
        <time>2020-05-31T09:32:10.000Z</time>
      </trkpt>
      <trkpt lat="47.87308" lon="7.15732">
        <ele>502.60000610352</ele>
        <time>2020-05-31T09:32:11.000Z</time>
      </trkpt>
      <trkpt lat="47.87311" lon="7.15731">
        <ele>501.79998779297</ele>
        <time>2020-05-31T09:32:12.000Z</time>
      </trkpt>
      <trkpt lat="47.87315" lon="7.1573">
        <ele>501</ele>
        <time>2020-05-31T09:32:13.000Z</time>
      </trkpt>
      <trkpt lat="47.87318" lon="7.15729">
        <ele>500.20001220703</ele>
        <time>2020-05-31T09:32:14.000Z</time>
      </trkpt>
      <trkpt lat="47.8732" lon="7.15729">
        <ele>499.39999389648</ele>
        <time>2020-05-31T09:32:15.000Z</time>
      </trkpt>
      <trkpt lat="47.87323" lon="7.15728">
        <ele>498.39999389648</ele>
        <time>2020-05-31T09:32:16.000Z</time>
      </trkpt>
      <trkpt lat="47.87325" lon="7.15726">
        <ele>497.39999389648</ele>
        <time>2020-05-31T09:32:17.000Z</time>
      </trkpt>
      <trkpt lat="47.87326" lon="7.15724">
        <ele>496.39999389648</ele>
        <time>2020-05-31T09:32:18.000Z</time>
      </trkpt>
      <trkpt lat="47.87328" lon="7.15722">
        <ele>495.39999389648</ele>
        <time>2020-05-31T09:32:19.000Z</time>
      </trkpt>
      <trkpt lat="47.87329" lon="7.1572">
        <ele>494.39999389648</ele>
        <time>2020-05-31T09:32:20.000Z</time>
      </trkpt>
      <trkpt lat="47.87331" lon="7.15718">
        <ele>493.60000610352</ele>
        <time>2020-05-31T09:32:21.000Z</time>
      </trkpt>
      <trkpt lat="47.87332" lon="7.15715">
        <ele>492.60000610352</ele>
        <time>2020-05-31T09:32:22.000Z</time>
      </trkpt>
      <trkpt lat="47.87333" lon="7.15714">
        <ele>491.79998779297</ele>
        <time>2020-05-31T09:32:23.000Z</time>
      </trkpt>
      <trkpt lat="47.87334" lon="7.15713">
        <ele>491</ele>
        <time>2020-05-31T09:32:24.000Z</time>
      </trkpt>
      <trkpt lat="47.87335" lon="7.15713">
        <ele>490.20001220703</ele>
        <time>2020-05-31T09:32:25.000Z</time>
      </trkpt>
      <trkpt lat="47.87336" lon="7.15713">
        <ele>489.39999389648</ele>
        <time>2020-05-31T09:32:26.000Z</time>
      </trkpt>
      <trkpt lat="47.87338" lon="7.15714">
        <ele>488.39999389648</ele>
        <time>2020-05-31T09:32:27.000Z</time>
      </trkpt>
      <trkpt lat="47.87341" lon="7.15713">
        <ele>487.39999389648</ele>
        <time>2020-05-31T09:32:28.000Z</time>
      </trkpt>
      <trkpt lat="47.87342" lon="7.15712">
        <ele>486.39999389648</ele>
        <time>2020-05-31T09:32:29.000Z</time>
      </trkpt>
      <trkpt lat="47.87343" lon="7.15712">
        <ele>485.39999389648</ele>
        <time>2020-05-31T09:32:30.000Z</time>
      </trkpt>
      <trkpt lat="47.87344" lon="7.15713">
        <ele>484.39999389648</ele>
        <time>2020-05-31T09:32:31.000Z</time>
      </trkpt>
      <trkpt lat="47.87345" lon="7.15714">
        <ele>483.39999389648</ele>
        <time>2020-05-31T09:32:32.000Z</time>
      </trkpt>
      <trkpt lat="47.87346" lon="7.15716">
        <ele>482</ele>
        <time>2020-05-31T09:32:33.000Z</time>
      </trkpt>
      <trkpt lat="47.87348" lon="7.15718">
        <ele>481</ele>
        <time>2020-05-31T09:32:34.000Z</time>
      </trkpt>
      <trkpt lat="47.87349" lon="7.15721">
        <ele>480</ele>
        <time>2020-05-31T09:32:35.000Z</time>
      </trkpt>
      <trkpt lat="47.87354" lon="7.15726">
        <ele>479</ele>
        <time>2020-05-31T09:32:36.000Z</time>
      </trkpt>
      <trkpt lat="47.87357" lon="7.15732">
        <ele>478</ele>
        <time>2020-05-31T09:32:37.000Z</time>
      </trkpt>
      <trkpt lat="47.87361" lon="7.15738">
        <ele>477</ele>
        <time>2020-05-31T09:32:38.000Z</time>
      </trkpt>
      <trkpt lat="47.87366" lon="7.15743">
        <ele>476</ele>
        <time>2020-05-31T09:32:39.000Z</time>
      </trkpt>
      <trkpt lat="47.87369" lon="7.15746">
        <ele>475</ele>
        <time>2020-05-31T09:32:40.000Z</time>
      </trkpt>
      <trkpt lat="47.8737" lon="7.15764">
        <ele>474.60000610352</ele>
        <time>2020-05-31T09:32:46.000Z</time>
      </trkpt>
      <trkpt lat="47.87369" lon="7.15766">
        <ele>474.20001220703</ele>
        <time>2020-05-31T09:32:47.000Z</time>
      </trkpt>
      <trkpt lat="47.87368" lon="7.15768">
        <ele>473.79998779297</ele>
        <time>2020-05-31T09:32:48.000Z</time>
      </trkpt>
      <trkpt lat="47.87367" lon="7.15769">
        <ele>473.39999389648</ele>
        <time>2020-05-31T09:32:49.000Z</time>
      </trkpt>
      <trkpt lat="47.87367" lon="7.1577">
        <ele>473</ele>
        <time>2020-05-31T09:32:50.000Z</time>
      </trkpt>
      <trkpt lat="47.87366" lon="7.15772">
        <ele>473</ele>
        <time>2020-05-31T09:32:51.000Z</time>
      </trkpt>
      <trkpt lat="47.87359" lon="7.1579">
        <ele>473</ele>
        <time>2020-05-31T09:32:57.000Z</time>
      </trkpt>
      <trkpt lat="47.87355" lon="7.15809">
        <ele>472.60000610352</ele>
        <time>2020-05-31T09:33:00.000Z</time>
      </trkpt>
      <trkpt lat="47.87355" lon="7.15816">
        <ele>472.20001220703</ele>
        <time>2020-05-31T09:33:01.000Z</time>
      </trkpt>
      <trkpt lat="47.87354" lon="7.15822">
        <ele>471.79998779297</ele>
        <time>2020-05-31T09:33:02.000Z</time>
      </trkpt>
      <trkpt lat="47.87354" lon="7.15828">
        <ele>471.39999389648</ele>
        <time>2020-05-31T09:33:03.000Z</time>
      </trkpt>
      <trkpt lat="47.87353" lon="7.15833">
        <ele>471</ele>
        <time>2020-05-31T09:33:04.000Z</time>
      </trkpt>
      <trkpt lat="47.8735" lon="7.15835">
        <ele>471</ele>
        <time>2020-05-31T09:33:05.000Z</time>
      </trkpt>
      <trkpt lat="47.87339" lon="7.15833">
        <ele>471</ele>
        <time>2020-05-31T09:33:09.000Z</time>
      </trkpt>
      <trkpt lat="47.87325" lon="7.15819">
        <ele>471</ele>
        <time>2020-05-31T09:33:15.000Z</time>
      </trkpt>
      <trkpt lat="47.87308" lon="7.15802">
        <ele>471</ele>
        <time>2020-05-31T09:33:22.000Z</time>
      </trkpt>
      <trkpt lat="47.87294" lon="7.15791">
        <ele>471</ele>
        <time>2020-05-31T09:33:27.000Z</time>
      </trkpt>
      <trkpt lat="47.87291" lon="7.15789">
        <ele>471.39999389648</ele>
        <time>2020-05-31T09:33:28.000Z</time>
      </trkpt>
      <trkpt lat="47.87288" lon="7.15787">
        <ele>471.79998779297</ele>
        <time>2020-05-31T09:33:29.000Z</time>
      </trkpt>
      <trkpt lat="47.87284" lon="7.15785">
        <ele>472.20001220703</ele>
        <time>2020-05-31T09:33:30.000Z</time>
      </trkpt>
      <trkpt lat="47.87281" lon="7.15783">
        <ele>472.79998779297</ele>
        <time>2020-05-31T09:33:31.000Z</time>
      </trkpt>
      <trkpt lat="47.87278" lon="7.15781">
        <ele>473.20001220703</ele>
        <time>2020-05-31T09:33:32.000Z</time>
      </trkpt>
      <trkpt lat="47.87272" lon="7.15777">
        <ele>473.60000610352</ele>
        <time>2020-05-31T09:33:34.000Z</time>
      </trkpt>
      <trkpt lat="47.87269" lon="7.15775">
        <ele>474</ele>
        <time>2020-05-31T09:33:35.000Z</time>
      </trkpt>
      <trkpt lat="47.87267" lon="7.15774">
        <ele>474.39999389648</ele>
        <time>2020-05-31T09:33:36.000Z</time>
      </trkpt>
      <trkpt lat="47.87265" lon="7.15773">
        <ele>474.79998779297</ele>
        <time>2020-05-31T09:33:37.000Z</time>
      </trkpt>
      <trkpt lat="47.87262" lon="7.15772">
        <ele>475.20001220703</ele>
        <time>2020-05-31T09:33:38.000Z</time>
      </trkpt>
      <trkpt lat="47.87259" lon="7.1577">
        <ele>475.20001220703</ele>
        <time>2020-05-31T09:33:39.000Z</time>
      </trkpt>
      <trkpt lat="47.87247" lon="7.15761">
        <ele>475.60000610352</ele>
        <time>2020-05-31T09:33:43.000Z</time>
      </trkpt>
      <trkpt lat="47.87244" lon="7.15759">
        <ele>476</ele>
        <time>2020-05-31T09:33:44.000Z</time>
      </trkpt>
      <trkpt lat="47.87241" lon="7.15757">
        <ele>476.39999389648</ele>
        <time>2020-05-31T09:33:45.000Z</time>
      </trkpt>
      <trkpt lat="47.87238" lon="7.15755">
        <ele>476.79998779297</ele>
        <time>2020-05-31T09:33:46.000Z</time>
      </trkpt>
      <trkpt lat="47.87235" lon="7.15753">
        <ele>477.20001220703</ele>
        <time>2020-05-31T09:33:47.000Z</time>
      </trkpt>
      <trkpt lat="47.87221" lon="7.15744">
        <ele>477.79998779297</ele>
        <time>2020-05-31T09:33:51.000Z</time>
      </trkpt>
      <trkpt lat="47.87217" lon="7.15741">
        <ele>478.20001220703</ele>
        <time>2020-05-31T09:33:52.000Z</time>
      </trkpt>
      <trkpt lat="47.87214" lon="7.15738">
        <ele>478.60000610352</ele>
        <time>2020-05-31T09:33:53.000Z</time>
      </trkpt>
      <trkpt lat="47.87211" lon="7.15735">
        <ele>479</ele>
        <time>2020-05-31T09:33:54.000Z</time>
      </trkpt>
      <trkpt lat="47.87208" lon="7.15733">
        <ele>479.39999389648</ele>
        <time>2020-05-31T09:33:55.000Z</time>
      </trkpt>
      <trkpt lat="47.87205" lon="7.1573">
        <ele>479.39999389648</ele>
        <time>2020-05-31T09:33:56.000Z</time>
      </trkpt>
      <trkpt lat="47.87194" lon="7.15718">
        <ele>479.79998779297</ele>
        <time>2020-05-31T09:34:00.000Z</time>
      </trkpt>
      <trkpt lat="47.87191" lon="7.15715">
        <ele>480.20001220703</ele>
        <time>2020-05-31T09:34:01.000Z</time>
      </trkpt>
      <trkpt lat="47.87188" lon="7.15713">
        <ele>480.60000610352</ele>
        <time>2020-05-31T09:34:02.000Z</time>
      </trkpt>
      <trkpt lat="47.87186" lon="7.1571">
        <ele>481.20001220703</ele>
        <time>2020-05-31T09:34:03.000Z</time>
      </trkpt>
      <trkpt lat="47.87184" lon="7.15707">
        <ele>481.60000610352</ele>
        <time>2020-05-31T09:34:04.000Z</time>
      </trkpt>
      <trkpt lat="47.8717" lon="7.15689">
        <ele>482</ele>
        <time>2020-05-31T09:34:09.000Z</time>
      </trkpt>
      <trkpt lat="47.87168" lon="7.15687">
        <ele>482.39999389648</ele>
        <time>2020-05-31T09:34:10.000Z</time>
      </trkpt>
      <trkpt lat="47.87165" lon="7.15684">
        <ele>483.39999389648</ele>
        <time>2020-05-31T09:34:11.000Z</time>
      </trkpt>
      <trkpt lat="47.87163" lon="7.15681">
        <ele>483.79998779297</ele>
        <time>2020-05-31T09:34:12.000Z</time>
      </trkpt>
      <trkpt lat="47.87156" lon="7.15668">
        <ele>484.20001220703</ele>
        <time>2020-05-31T09:34:16.000Z</time>
      </trkpt>
      <trkpt lat="47.87154" lon="7.15664">
        <ele>484.60000610352</ele>
        <time>2020-05-31T09:34:17.000Z</time>
      </trkpt>
      <trkpt lat="47.87152" lon="7.15661">
        <ele>485</ele>
        <time>2020-05-31T09:34:18.000Z</time>
      </trkpt>
      <trkpt lat="47.8715" lon="7.15658">
        <ele>485.60000610352</ele>
        <time>2020-05-31T09:34:19.000Z</time>
      </trkpt>
      <trkpt lat="47.87148" lon="7.15656">
        <ele>486</ele>
        <time>2020-05-31T09:34:20.000Z</time>
      </trkpt>
      <trkpt lat="47.87143" lon="7.1565">
        <ele>486</ele>
        <time>2020-05-31T09:34:22.000Z</time>
      </trkpt>
      <trkpt lat="47.87139" lon="7.15644">
        <ele>486.39999389648</ele>
        <time>2020-05-31T09:34:24.000Z</time>
      </trkpt>
      <trkpt lat="47.87137" lon="7.15641">
        <ele>486.79998779297</ele>
        <time>2020-05-31T09:34:25.000Z</time>
      </trkpt>
      <trkpt lat="47.87135" lon="7.15638">
        <ele>487.20001220703</ele>
        <time>2020-05-31T09:34:26.000Z</time>
      </trkpt>
      <trkpt lat="47.87133" lon="7.15635">
        <ele>487.60000610352</ele>
        <time>2020-05-31T09:34:27.000Z</time>
      </trkpt>
      <trkpt lat="47.8713" lon="7.15633">
        <ele>488</ele>
        <time>2020-05-31T09:34:28.000Z</time>
      </trkpt>
      <trkpt lat="47.87119" lon="7.15619">
        <ele>488.39999389648</ele>
        <time>2020-05-31T09:34:33.000Z</time>
      </trkpt>
      <trkpt lat="47.87117" lon="7.15615">
        <ele>488.79998779297</ele>
        <time>2020-05-31T09:34:34.000Z</time>
      </trkpt>
      <trkpt lat="47.87116" lon="7.15611">
        <ele>489.60000610352</ele>
        <time>2020-05-31T09:34:35.000Z</time>
      </trkpt>
      <trkpt lat="47.87113" lon="7.15607">
        <ele>490</ele>
        <time>2020-05-31T09:34:36.000Z</time>
      </trkpt>
      <trkpt lat="47.87104" lon="7.15592">
        <ele>490.39999389648</ele>
        <time>2020-05-31T09:34:41.000Z</time>
      </trkpt>
      <trkpt lat="47.87103" lon="7.15589">
        <ele>490.79998779297</ele>
        <time>2020-05-31T09:34:42.000Z</time>
      </trkpt>
      <trkpt lat="47.87101" lon="7.15586">
        <ele>491.20001220703</ele>
        <time>2020-05-31T09:34:43.000Z</time>
      </trkpt>
      <trkpt lat="47.87098" lon="7.15583">
        <ele>491.60000610352</ele>
        <time>2020-05-31T09:34:44.000Z</time>
      </trkpt>
      <trkpt lat="47.87097" lon="7.15579">
        <ele>492</ele>
        <time>2020-05-31T09:34:45.000Z</time>
      </trkpt>
      <trkpt lat="47.87094" lon="7.15572">
        <ele>492</ele>
        <time>2020-05-31T09:34:47.000Z</time>
      </trkpt>
      <trkpt lat="47.8709" lon="7.15562">
        <ele>492.60000610352</ele>
        <time>2020-05-31T09:34:50.000Z</time>
      </trkpt>
      <trkpt lat="47.87089" lon="7.15558">
        <ele>493</ele>
        <time>2020-05-31T09:34:51.000Z</time>
      </trkpt>
      <trkpt lat="47.87087" lon="7.15555">
        <ele>493.39999389648</ele>
        <time>2020-05-31T09:34:52.000Z</time>
      </trkpt>
      <trkpt lat="47.87085" lon="7.15552">
        <ele>493.79998779297</ele>
        <time>2020-05-31T09:34:53.000Z</time>
      </trkpt>
      <trkpt lat="47.87084" lon="7.15549">
        <ele>494.20001220703</ele>
        <time>2020-05-31T09:34:54.000Z</time>
      </trkpt>
      <trkpt lat="47.8708" lon="7.1554">
        <ele>494.20001220703</ele>
        <time>2020-05-31T09:34:57.000Z</time>
      </trkpt>
      <trkpt lat="47.8708" lon="7.15535">
        <ele>494.20001220703</ele>
        <time>2020-05-31T09:34:59.000Z</time>
      </trkpt>
      <trkpt lat="47.87079" lon="7.15534">
        <ele>495.20001220703</ele>
        <time>2020-05-31T09:35:00.000Z</time>
      </trkpt>
      <trkpt lat="47.87079" lon="7.15533">
        <ele>495.60000610352</ele>
        <time>2020-05-31T09:35:01.000Z</time>
      </trkpt>
      <trkpt lat="47.87079" lon="7.15531">
        <ele>496</ele>
        <time>2020-05-31T09:35:02.000Z</time>
      </trkpt>
      <trkpt lat="47.87079" lon="7.1553">
        <ele>496.39999389648</ele>
        <time>2020-05-31T09:35:03.000Z</time>
      </trkpt>
      <trkpt lat="47.87079" lon="7.15522">
        <ele>496.39999389648</ele>
        <time>2020-05-31T09:35:09.000Z</time>
      </trkpt>
      <trkpt lat="47.87082" lon="7.15522">
        <ele>497</ele>
        <time>2020-05-31T09:35:14.000Z</time>
      </trkpt>
      <trkpt lat="47.87083" lon="7.15521">
        <ele>497.39999389648</ele>
        <time>2020-05-31T09:35:15.000Z</time>
      </trkpt>
      <trkpt lat="47.87084" lon="7.15521">
        <ele>497.79998779297</ele>
        <time>2020-05-31T09:35:16.000Z</time>
      </trkpt>
      <trkpt lat="47.87085" lon="7.1552">
        <ele>498.20001220703</ele>
        <time>2020-05-31T09:35:17.000Z</time>
      </trkpt>
      <trkpt lat="47.87086" lon="7.15519">
        <ele>498.79998779297</ele>
        <time>2020-05-31T09:35:18.000Z</time>
      </trkpt>
      <trkpt lat="47.87089" lon="7.15516">
        <ele>499.39999389648</ele>
        <time>2020-05-31T09:35:19.000Z</time>
      </trkpt>
      <trkpt lat="47.87091" lon="7.15514">
        <ele>499.79998779297</ele>
        <time>2020-05-31T09:35:20.000Z</time>
      </trkpt>
      <trkpt lat="47.87093" lon="7.15512">
        <ele>500.39999389648</ele>
        <time>2020-05-31T09:35:21.000Z</time>
      </trkpt>
      <trkpt lat="47.87095" lon="7.1551">
        <ele>501</ele>
        <time>2020-05-31T09:35:22.000Z</time>
      </trkpt>
      <trkpt lat="47.87096" lon="7.15509">
        <ele>501.39999389648</ele>
        <time>2020-05-31T09:35:23.000Z</time>
      </trkpt>
      <trkpt lat="47.87098" lon="7.15509">
        <ele>502.39999389648</ele>
        <time>2020-05-31T09:35:24.000Z</time>
      </trkpt>
      <trkpt lat="47.871" lon="7.15508">
        <ele>503</ele>
        <time>2020-05-31T09:35:25.000Z</time>
      </trkpt>
      <trkpt lat="47.87106" lon="7.15506">
        <ele>503.39999389648</ele>
        <time>2020-05-31T09:35:28.000Z</time>
      </trkpt>
      <trkpt lat="47.87108" lon="7.15506">
        <ele>504</ele>
        <time>2020-05-31T09:35:29.000Z</time>
      </trkpt>
      <trkpt lat="47.87109" lon="7.15507">
        <ele>504.39999389648</ele>
        <time>2020-05-31T09:35:30.000Z</time>
      </trkpt>
      <trkpt lat="47.87111" lon="7.15508">
        <ele>504.79998779297</ele>
        <time>2020-05-31T09:35:31.000Z</time>
      </trkpt>
      <trkpt lat="47.87112" lon="7.1551">
        <ele>505.39999389648</ele>
        <time>2020-05-31T09:35:32.000Z</time>
      </trkpt>
      <trkpt lat="47.87112" lon="7.15512">
        <ele>505.39999389648</ele>
        <time>2020-05-31T09:35:33.000Z</time>
      </trkpt>
      <trkpt lat="47.87113" lon="7.15514">
        <ele>505.79998779297</ele>
        <time>2020-05-31T09:35:34.000Z</time>
      </trkpt>
      <trkpt lat="47.87114" lon="7.15516">
        <ele>506.20001220703</ele>
        <time>2020-05-31T09:35:35.000Z</time>
      </trkpt>
      <trkpt lat="47.87116" lon="7.15519">
        <ele>506.60000610352</ele>
        <time>2020-05-31T09:35:36.000Z</time>
      </trkpt>
      <trkpt lat="47.87118" lon="7.15523">
        <ele>507.20001220703</ele>
        <time>2020-05-31T09:35:37.000Z</time>
      </trkpt>
      <trkpt lat="47.8712" lon="7.15525">
        <ele>507.60000610352</ele>
        <time>2020-05-31T09:35:38.000Z</time>
      </trkpt>
      <trkpt lat="47.87122" lon="7.15527">
        <ele>508</ele>
        <time>2020-05-31T09:35:39.000Z</time>
      </trkpt>
      <trkpt lat="47.87124" lon="7.15528">
        <ele>508.39999389648</ele>
        <time>2020-05-31T09:35:40.000Z</time>
      </trkpt>
      <trkpt lat="47.87125" lon="7.15528">
        <ele>508.79998779297</ele>
        <time>2020-05-31T09:35:41.000Z</time>
      </trkpt>
      <trkpt lat="47.87127" lon="7.15528">
        <ele>509.20001220703</ele>
        <time>2020-05-31T09:35:42.000Z</time>
      </trkpt>
      <trkpt lat="47.87129" lon="7.1553">
        <ele>509.60000610352</ele>
        <time>2020-05-31T09:35:43.000Z</time>
      </trkpt>
      <trkpt lat="47.87141" lon="7.15539">
        <ele>510.20001220703</ele>
        <time>2020-05-31T09:35:47.000Z</time>
      </trkpt>
      <trkpt lat="47.87144" lon="7.15541">
        <ele>510.60000610352</ele>
        <time>2020-05-31T09:35:48.000Z</time>
      </trkpt>
      <trkpt lat="47.87147" lon="7.15543">
        <ele>511.60000610352</ele>
        <time>2020-05-31T09:35:49.000Z</time>
      </trkpt>
      <trkpt lat="47.87149" lon="7.15544">
        <ele>512</ele>
        <time>2020-05-31T09:35:50.000Z</time>
      </trkpt>
      <trkpt lat="47.87157" lon="7.15551">
        <ele>512.40002441406</ele>
        <time>2020-05-31T09:35:54.000Z</time>
      </trkpt>
      <trkpt lat="47.87158" lon="7.15552">
        <ele>513</ele>
        <time>2020-05-31T09:35:55.000Z</time>
      </trkpt>
      <trkpt lat="47.87159" lon="7.15555">
        <ele>513.40002441406</ele>
        <time>2020-05-31T09:35:56.000Z</time>
      </trkpt>
      <trkpt lat="47.87161" lon="7.15557">
        <ele>513.79998779297</ele>
        <time>2020-05-31T09:35:57.000Z</time>
      </trkpt>
      <trkpt lat="47.87163" lon="7.15559">
        <ele>514.20001220703</ele>
        <time>2020-05-31T09:35:58.000Z</time>
      </trkpt>
      <trkpt lat="47.87165" lon="7.15561">
        <ele>514.79998779297</ele>
        <time>2020-05-31T09:35:59.000Z</time>
      </trkpt>
      <trkpt lat="47.87167" lon="7.15563">
        <ele>515.20001220703</ele>
        <time>2020-05-31T09:36:00.000Z</time>
      </trkpt>
      <trkpt lat="47.87169" lon="7.15564">
        <ele>515.59997558594</ele>
        <time>2020-05-31T09:36:01.000Z</time>
      </trkpt>
      <trkpt lat="47.87171" lon="7.15565">
        <ele>516</ele>
        <time>2020-05-31T09:36:02.000Z</time>
      </trkpt>
      <trkpt lat="47.87172" lon="7.15567">
        <ele>516.40002441406</ele>
        <time>2020-05-31T09:36:03.000Z</time>
      </trkpt>
      <trkpt lat="47.87174" lon="7.15569">
        <ele>517</ele>
        <time>2020-05-31T09:36:04.000Z</time>
      </trkpt>
      <trkpt lat="47.87177" lon="7.15571">
        <ele>517.40002441406</ele>
        <time>2020-05-31T09:36:05.000Z</time>
      </trkpt>
      <trkpt lat="47.87179" lon="7.15574">
        <ele>518</ele>
        <time>2020-05-31T09:36:06.000Z</time>
      </trkpt>
      <trkpt lat="47.87182" lon="7.15575">
        <ele>518.40002441406</ele>
        <time>2020-05-31T09:36:07.000Z</time>
      </trkpt>
      <trkpt lat="47.87184" lon="7.15577">
        <ele>518.79998779297</ele>
        <time>2020-05-31T09:36:09.000Z</time>
      </trkpt>
      <trkpt lat="47.87185" lon="7.15579">
        <ele>519.40002441406</ele>
        <time>2020-05-31T09:36:10.000Z</time>
      </trkpt>
      <trkpt lat="47.87187" lon="7.1558">
        <ele>519.79998779297</ele>
        <time>2020-05-31T09:36:11.000Z</time>
      </trkpt>
      <trkpt lat="47.87189" lon="7.15582">
        <ele>520.40002441406</ele>
        <time>2020-05-31T09:36:12.000Z</time>
      </trkpt>
      <trkpt lat="47.87191" lon="7.15584">
        <ele>520.79998779297</ele>
        <time>2020-05-31T09:36:13.000Z</time>
      </trkpt>
      <trkpt lat="47.87193" lon="7.15586">
        <ele>521.40002441406</ele>
        <time>2020-05-31T09:36:14.000Z</time>
      </trkpt>
      <trkpt lat="47.87194" lon="7.15587">
        <ele>522.20001220703</ele>
        <time>2020-05-31T09:36:15.000Z</time>
      </trkpt>
      <trkpt lat="47.87195" lon="7.15589">
        <ele>522.59997558594</ele>
        <time>2020-05-31T09:36:16.000Z</time>
      </trkpt>
      <trkpt lat="47.87198" lon="7.1559">
        <ele>523.20001220703</ele>
        <time>2020-05-31T09:36:17.000Z</time>
      </trkpt>
      <trkpt lat="47.872" lon="7.15592">
        <ele>523.79998779297</ele>
        <time>2020-05-31T09:36:18.000Z</time>
      </trkpt>
      <trkpt lat="47.87202" lon="7.15593">
        <ele>524.40002441406</ele>
        <time>2020-05-31T09:36:19.000Z</time>
      </trkpt>
      <trkpt lat="47.87204" lon="7.15594">
        <ele>525</ele>
        <time>2020-05-31T09:36:20.000Z</time>
      </trkpt>
      <trkpt lat="47.87206" lon="7.15596">
        <ele>525.40002441406</ele>
        <time>2020-05-31T09:36:21.000Z</time>
      </trkpt>
      <trkpt lat="47.87209" lon="7.15597">
        <ele>526</ele>
        <time>2020-05-31T09:36:22.000Z</time>
      </trkpt>
      <trkpt lat="47.8721" lon="7.15599">
        <ele>526.59997558594</ele>
        <time>2020-05-31T09:36:23.000Z</time>
      </trkpt>
      <trkpt lat="47.87212" lon="7.15599">
        <ele>527</ele>
        <time>2020-05-31T09:36:24.000Z</time>
      </trkpt>
      <trkpt lat="47.87214" lon="7.15599">
        <ele>527.59997558594</ele>
        <time>2020-05-31T09:36:25.000Z</time>
      </trkpt>
      <trkpt lat="47.87218" lon="7.15598">
        <ele>528</ele>
        <time>2020-05-31T09:36:27.000Z</time>
      </trkpt>
      <trkpt lat="47.8722" lon="7.15597">
        <ele>528.40002441406</ele>
        <time>2020-05-31T09:36:28.000Z</time>
      </trkpt>
      <trkpt lat="47.87221" lon="7.15595">
        <ele>528.79998779297</ele>
        <time>2020-05-31T09:36:29.000Z</time>
      </trkpt>
      <trkpt lat="47.87223" lon="7.15594">
        <ele>529.20001220703</ele>
        <time>2020-05-31T09:36:30.000Z</time>
      </trkpt>
      <trkpt lat="47.87224" lon="7.15593">
        <ele>529.79998779297</ele>
        <time>2020-05-31T09:36:31.000Z</time>
      </trkpt>
      <trkpt lat="47.87224" lon="7.15591">
        <ele>530.20001220703</ele>
        <time>2020-05-31T09:36:32.000Z</time>
      </trkpt>
      <trkpt lat="47.87225" lon="7.1559">
        <ele>530.59997558594</ele>
        <time>2020-05-31T09:36:33.000Z</time>
      </trkpt>
      <trkpt lat="47.87225" lon="7.15587">
        <ele>531.20001220703</ele>
        <time>2020-05-31T09:36:34.000Z</time>
      </trkpt>
      <trkpt lat="47.87225" lon="7.15585">
        <ele>531.59997558594</ele>
        <time>2020-05-31T09:36:35.000Z</time>
      </trkpt>
      <trkpt lat="47.87225" lon="7.15582">
        <ele>532</ele>
        <time>2020-05-31T09:36:36.000Z</time>
      </trkpt>
      <trkpt lat="47.87225" lon="7.1558">
        <ele>532.59997558594</ele>
        <time>2020-05-31T09:36:37.000Z</time>
      </trkpt>
      <trkpt lat="47.87224" lon="7.15578">
        <ele>533</ele>
        <time>2020-05-31T09:36:38.000Z</time>
      </trkpt>
      <trkpt lat="47.87223" lon="7.15576">
        <ele>533.79998779297</ele>
        <time>2020-05-31T09:36:39.000Z</time>
      </trkpt>
      <trkpt lat="47.87222" lon="7.15574">
        <ele>534.40002441406</ele>
        <time>2020-05-31T09:36:40.000Z</time>
      </trkpt>
      <trkpt lat="47.87222" lon="7.15571">
        <ele>534.79998779297</ele>
        <time>2020-05-31T09:36:41.000Z</time>
      </trkpt>
      <trkpt lat="47.87222" lon="7.15568">
        <ele>535.20001220703</ele>
        <time>2020-05-31T09:36:42.000Z</time>
      </trkpt>
      <trkpt lat="47.87222" lon="7.15566">
        <ele>535.79998779297</ele>
        <time>2020-05-31T09:36:43.000Z</time>
      </trkpt>
      <trkpt lat="47.87221" lon="7.15562">
        <ele>536.20001220703</ele>
        <time>2020-05-31T09:36:44.000Z</time>
      </trkpt>
      <trkpt lat="47.87221" lon="7.1556">
        <ele>536.59997558594</ele>
        <time>2020-05-31T09:36:45.000Z</time>
      </trkpt>
      <trkpt lat="47.87221" lon="7.15557">
        <ele>537</ele>
        <time>2020-05-31T09:36:46.000Z</time>
      </trkpt>
      <trkpt lat="47.87221" lon="7.15554">
        <ele>537.40002441406</ele>
        <time>2020-05-31T09:36:47.000Z</time>
      </trkpt>
      <trkpt lat="47.87221" lon="7.1555">
        <ele>537.79998779297</ele>
        <time>2020-05-31T09:36:48.000Z</time>
      </trkpt>
      <trkpt lat="47.87222" lon="7.15547">
        <ele>538.20001220703</ele>
        <time>2020-05-31T09:36:49.000Z</time>
      </trkpt>
      <trkpt lat="47.87222" lon="7.15544">
        <ele>538.79998779297</ele>
        <time>2020-05-31T09:36:50.000Z</time>
      </trkpt>
      <trkpt lat="47.87222" lon="7.15542">
        <ele>539.40002441406</ele>
        <time>2020-05-31T09:36:51.000Z</time>
      </trkpt>
      <trkpt lat="47.87221" lon="7.1554">
        <ele>540</ele>
        <time>2020-05-31T09:36:52.000Z</time>
      </trkpt>
      <trkpt lat="47.87221" lon="7.15538">
        <ele>540.40002441406</ele>
        <time>2020-05-31T09:36:53.000Z</time>
      </trkpt>
      <trkpt lat="47.8722" lon="7.15537">
        <ele>541</ele>
        <time>2020-05-31T09:36:54.000Z</time>
      </trkpt>
      <trkpt lat="47.8722" lon="7.15536">
        <ele>541.59997558594</ele>
        <time>2020-05-31T09:36:55.000Z</time>
      </trkpt>
      <trkpt lat="47.8722" lon="7.15535">
        <ele>542</ele>
        <time>2020-05-31T09:36:56.000Z</time>
      </trkpt>
      <trkpt lat="47.8722" lon="7.15535">
        <ele>542.59997558594</ele>
        <time>2020-05-31T09:36:57.000Z</time>
      </trkpt>
      <trkpt lat="47.87221" lon="7.15533">
        <ele>543</ele>
        <time>2020-05-31T09:36:58.000Z</time>
      </trkpt>
      <trkpt lat="47.87223" lon="7.15532">
        <ele>543.59997558594</ele>
        <time>2020-05-31T09:36:59.000Z</time>
      </trkpt>
      <trkpt lat="47.87229" lon="7.15531">
        <ele>543.59997558594</ele>
        <time>2020-05-31T09:37:03.000Z</time>
      </trkpt>
      <trkpt lat="47.87229" lon="7.15531">
        <ele>543.59997558594</ele>
        <time>2020-05-31T09:37:04.000Z</time>
      </trkpt>
      <trkpt lat="47.87232" lon="7.15532">
        <ele>543.59997558594</ele>
        <time>2020-05-31T09:37:50.000Z</time>
      </trkpt>
      <trkpt lat="47.87237" lon="7.15535">
        <ele>543.59997558594</ele>
        <time>2020-05-31T09:37:52.000Z</time>
      </trkpt>
      <trkpt lat="47.87241" lon="7.1555">
        <ele>543.59997558594</ele>
        <time>2020-05-31T09:37:55.000Z</time>
      </trkpt>
      <trkpt lat="47.87241" lon="7.15554">
        <ele>543</ele>
        <time>2020-05-31T09:37:56.000Z</time>
      </trkpt>
      <trkpt lat="47.87241" lon="7.15559">
        <ele>542.40002441406</ele>
        <time>2020-05-31T09:37:57.000Z</time>
      </trkpt>
      <trkpt lat="47.87241" lon="7.15562">
        <ele>541.79998779297</ele>
        <time>2020-05-31T09:37:58.000Z</time>
      </trkpt>
      <trkpt lat="47.8724" lon="7.15566">
        <ele>541</ele>
        <time>2020-05-31T09:37:59.000Z</time>
      </trkpt>
      <trkpt lat="47.8724" lon="7.15571">
        <ele>540</ele>
        <time>2020-05-31T09:38:00.000Z</time>
      </trkpt>
      <trkpt lat="47.8724" lon="7.15575">
        <ele>539.20001220703</ele>
        <time>2020-05-31T09:38:01.000Z</time>
      </trkpt>
      <trkpt lat="47.8724" lon="7.1558">
        <ele>538.40002441406</ele>
        <time>2020-05-31T09:38:02.000Z</time>
      </trkpt>
      <trkpt lat="47.8724" lon="7.15586">
        <ele>537.40002441406</ele>
        <time>2020-05-31T09:38:03.000Z</time>
      </trkpt>
      <trkpt lat="47.8724" lon="7.15592">
        <ele>536.59997558594</ele>
        <time>2020-05-31T09:38:04.000Z</time>
      </trkpt>
      <trkpt lat="47.87238" lon="7.15598">
        <ele>535.59997558594</ele>
        <time>2020-05-31T09:38:05.000Z</time>
      </trkpt>
      <trkpt lat="47.87237" lon="7.15603">
        <ele>534.59997558594</ele>
        <time>2020-05-31T09:38:06.000Z</time>
      </trkpt>
      <trkpt lat="47.87238" lon="7.15609">
        <ele>533.40002441406</ele>
        <time>2020-05-31T09:38:07.000Z</time>
      </trkpt>
      <trkpt lat="47.8724" lon="7.15612">
        <ele>532.40002441406</ele>
        <time>2020-05-31T09:38:08.000Z</time>
      </trkpt>
      <trkpt lat="47.87242" lon="7.15616">
        <ele>531.20001220703</ele>
        <time>2020-05-31T09:38:09.000Z</time>
      </trkpt>
      <trkpt lat="47.87246" lon="7.15621">
        <ele>530</ele>
        <time>2020-05-31T09:38:10.000Z</time>
      </trkpt>
      <trkpt lat="47.87248" lon="7.15627">
        <ele>528.79998779297</ele>
        <time>2020-05-31T09:38:11.000Z</time>
      </trkpt>
      <trkpt lat="47.8725" lon="7.15629">
        <ele>527.59997558594</ele>
        <time>2020-05-31T09:38:12.000Z</time>
      </trkpt>
      <trkpt lat="47.87252" lon="7.1563">
        <ele>526.40002441406</ele>
        <time>2020-05-31T09:38:13.000Z</time>
      </trkpt>
      <trkpt lat="47.87253" lon="7.15632">
        <ele>525.20001220703</ele>
        <time>2020-05-31T09:38:14.000Z</time>
      </trkpt>
      <trkpt lat="47.87256" lon="7.15633">
        <ele>524</ele>
        <time>2020-05-31T09:38:15.000Z</time>
      </trkpt>
      <trkpt lat="47.87258" lon="7.15634">
        <ele>522.79998779297</ele>
        <time>2020-05-31T09:38:16.000Z</time>
      </trkpt>
      <trkpt lat="47.87258" lon="7.15635">
        <ele>521.79998779297</ele>
        <time>2020-05-31T09:38:17.000Z</time>
      </trkpt>
      <trkpt lat="47.8726" lon="7.15637">
        <ele>519.40002441406</ele>
        <time>2020-05-31T09:38:18.000Z</time>
      </trkpt>
      <trkpt lat="47.87263" lon="7.15641">
        <ele>518.79998779297</ele>
        <time>2020-05-31T09:38:19.000Z</time>
      </trkpt>
      <trkpt lat="47.87264" lon="7.15645">
        <ele>518.20001220703</ele>
        <time>2020-05-31T09:38:20.000Z</time>
      </trkpt>
      <trkpt lat="47.87267" lon="7.1565">
        <ele>517.79998779297</ele>
        <time>2020-05-31T09:38:21.000Z</time>
      </trkpt>
      <trkpt lat="47.8727" lon="7.15654">
        <ele>517</ele>
        <time>2020-05-31T09:38:22.000Z</time>
      </trkpt>
      <trkpt lat="47.87274" lon="7.15658">
        <ele>516.20001220703</ele>
        <time>2020-05-31T09:38:23.000Z</time>
      </trkpt>
      <trkpt lat="47.87278" lon="7.15663">
        <ele>515.59997558594</ele>
        <time>2020-05-31T09:38:24.000Z</time>
      </trkpt>
      <trkpt lat="47.87281" lon="7.15668">
        <ele>514.59997558594</ele>
        <time>2020-05-31T09:38:25.000Z</time>
      </trkpt>
      <trkpt lat="47.87285" lon="7.15675">
        <ele>513.79998779297</ele>
        <time>2020-05-31T09:38:26.000Z</time>
      </trkpt>
      <trkpt lat="47.87288" lon="7.15681">
        <ele>512.79998779297</ele>
        <time>2020-05-31T09:38:27.000Z</time>
      </trkpt>
      <trkpt lat="47.8729" lon="7.15687">
        <ele>511.60000610352</ele>
        <time>2020-05-31T09:38:28.000Z</time>
      </trkpt>
      <trkpt lat="47.87292" lon="7.15692">
        <ele>510.60000610352</ele>
        <time>2020-05-31T09:38:29.000Z</time>
      </trkpt>
      <trkpt lat="47.87295" lon="7.15696">
        <ele>509.60000610352</ele>
        <time>2020-05-31T09:38:30.000Z</time>
      </trkpt>
      <trkpt lat="47.87297" lon="7.15701">
        <ele>508.60000610352</ele>
        <time>2020-05-31T09:38:31.000Z</time>
      </trkpt>
      <trkpt lat="47.87299" lon="7.15706">
        <ele>507.39999389648</ele>
        <time>2020-05-31T09:38:32.000Z</time>
      </trkpt>
      <trkpt lat="47.87301" lon="7.15711">
        <ele>506.20001220703</ele>
        <time>2020-05-31T09:38:33.000Z</time>
      </trkpt>
      <trkpt lat="47.87303" lon="7.15715">
        <ele>505</ele>
        <time>2020-05-31T09:38:34.000Z</time>
      </trkpt>
      <trkpt lat="47.87305" lon="7.15719">
        <ele>503.79998779297</ele>
        <time>2020-05-31T09:38:35.000Z</time>
      </trkpt>
      <trkpt lat="47.87309" lon="7.15722">
        <ele>502.60000610352</ele>
        <time>2020-05-31T09:38:36.000Z</time>
      </trkpt>
      <trkpt lat="47.87312" lon="7.15724">
        <ele>501.39999389648</ele>
        <time>2020-05-31T09:38:37.000Z</time>
      </trkpt>
      <trkpt lat="47.87314" lon="7.15726">
        <ele>500.79998779297</ele>
        <time>2020-05-31T09:38:38.000Z</time>
      </trkpt>
      <trkpt lat="47.87317" lon="7.15727">
        <ele>500</ele>
        <time>2020-05-31T09:38:39.000Z</time>
      </trkpt>
      <trkpt lat="47.87321" lon="7.15727">
        <ele>499.39999389648</ele>
        <time>2020-05-31T09:38:40.000Z</time>
      </trkpt>
      <trkpt lat="47.87324" lon="7.15727">
        <ele>498.60000610352</ele>
        <time>2020-05-31T09:38:41.000Z</time>
      </trkpt>
      <trkpt lat="47.87327" lon="7.15726">
        <ele>498</ele>
        <time>2020-05-31T09:38:42.000Z</time>
      </trkpt>
      <trkpt lat="47.87329" lon="7.15725">
        <ele>496.60000610352</ele>
        <time>2020-05-31T09:38:43.000Z</time>
      </trkpt>
      <trkpt lat="47.87332" lon="7.15725">
        <ele>495.79998779297</ele>
        <time>2020-05-31T09:38:44.000Z</time>
      </trkpt>
      <trkpt lat="47.87334" lon="7.15724">
        <ele>495</ele>
        <time>2020-05-31T09:38:45.000Z</time>
      </trkpt>
      <trkpt lat="47.87336" lon="7.15722">
        <ele>494</ele>
        <time>2020-05-31T09:38:46.000Z</time>
      </trkpt>
      <trkpt lat="47.87339" lon="7.15721">
        <ele>493</ele>
        <time>2020-05-31T09:38:47.000Z</time>
      </trkpt>
      <trkpt lat="47.87341" lon="7.15719">
        <ele>492</ele>
        <time>2020-05-31T09:38:48.000Z</time>
      </trkpt>
      <trkpt lat="47.87344" lon="7.15718">
        <ele>491</ele>
        <time>2020-05-31T09:38:49.000Z</time>
      </trkpt>
      <trkpt lat="47.87346" lon="7.15717">
        <ele>489.79998779297</ele>
        <time>2020-05-31T09:38:50.000Z</time>
      </trkpt>
      <trkpt lat="47.87348" lon="7.15716">
        <ele>488.79998779297</ele>
        <time>2020-05-31T09:38:51.000Z</time>
      </trkpt>
      <trkpt lat="47.8735" lon="7.15717">
        <ele>487.79998779297</ele>
        <time>2020-05-31T09:38:52.000Z</time>
      </trkpt>
      <trkpt lat="47.87352" lon="7.15717">
        <ele>486.79998779297</ele>
        <time>2020-05-31T09:38:53.000Z</time>
      </trkpt>
      <trkpt lat="47.87354" lon="7.15716">
        <ele>485.60000610352</ele>
        <time>2020-05-31T09:38:54.000Z</time>
      </trkpt>
      <trkpt lat="47.87357" lon="7.15716">
        <ele>484.39999389648</ele>
        <time>2020-05-31T09:38:55.000Z</time>
      </trkpt>
      <trkpt lat="47.87359" lon="7.15716">
        <ele>483.39999389648</ele>
        <time>2020-05-31T09:38:56.000Z</time>
      </trkpt>
      <trkpt lat="47.87362" lon="7.15717">
        <ele>482.60000610352</ele>
        <time>2020-05-31T09:38:57.000Z</time>
      </trkpt>
      <trkpt lat="47.87368" lon="7.15722">
        <ele>481.60000610352</ele>
        <time>2020-05-31T09:38:58.000Z</time>
      </trkpt>
      <trkpt lat="47.87373" lon="7.15726">
        <ele>480.60000610352</ele>
        <time>2020-05-31T09:38:59.000Z</time>
      </trkpt>
      <trkpt lat="47.8738" lon="7.15731">
        <ele>479.60000610352</ele>
        <time>2020-05-31T09:39:00.000Z</time>
      </trkpt>
      <trkpt lat="47.87385" lon="7.15736">
        <ele>478.39999389648</ele>
        <time>2020-05-31T09:39:01.000Z</time>
      </trkpt>
      <trkpt lat="47.87388" lon="7.1574">
        <ele>477.20001220703</ele>
        <time>2020-05-31T09:39:02.000Z</time>
      </trkpt>
      <trkpt lat="47.8739" lon="7.15744">
        <ele>476</ele>
        <time>2020-05-31T09:39:03.000Z</time>
      </trkpt>
      <trkpt lat="47.8739" lon="7.15748">
        <ele>474.60000610352</ele>
        <time>2020-05-31T09:39:04.000Z</time>
      </trkpt>
      <trkpt lat="47.8739" lon="7.1575">
        <ele>473.39999389648</ele>
        <time>2020-05-31T09:39:05.000Z</time>
      </trkpt>
      <trkpt lat="47.8739" lon="7.15753">
        <ele>473.39999389648</ele>
        <time>2020-05-31T09:39:06.000Z</time>
      </trkpt>
      <trkpt lat="47.87389" lon="7.15755">
        <ele>473.39999389648</ele>
        <time>2020-05-31T09:39:07.000Z</time>
      </trkpt>
      <trkpt lat="47.87386" lon="7.15761">
        <ele>473.39999389648</ele>
        <time>2020-05-31T09:39:12.000Z</time>
      </trkpt>
      <trkpt lat="47.8739" lon="7.15765">
        <ele>473.39999389648</ele>
        <time>2020-05-31T09:40:09.000Z</time>
      </trkpt>
      <trkpt lat="47.87397" lon="7.15765">
        <ele>473.39999389648</ele>
        <time>2020-05-31T09:40:12.000Z</time>
      </trkpt>
      <trkpt lat="47.87407" lon="7.1577">
        <ele>473.39999389648</ele>
        <time>2020-05-31T09:40:17.000Z</time>
      </trkpt>
      <trkpt lat="47.87422" lon="7.15786">
        <ele>474</ele>
        <time>2020-05-31T09:40:24.000Z</time>
      </trkpt>
      <trkpt lat="47.87424" lon="7.15789">
        <ele>474.39999389648</ele>
        <time>2020-05-31T09:40:25.000Z</time>
      </trkpt>
      <trkpt lat="47.87426" lon="7.15792">
        <ele>474.79998779297</ele>
        <time>2020-05-31T09:40:26.000Z</time>
      </trkpt>
      <trkpt lat="47.87427" lon="7.15796">
        <ele>475.39999389648</ele>
        <time>2020-05-31T09:40:27.000Z</time>
      </trkpt>
      <trkpt lat="47.87428" lon="7.158">
        <ele>475.79998779297</ele>
        <time>2020-05-31T09:40:28.000Z</time>
      </trkpt>
      <trkpt lat="47.87429" lon="7.15808">
        <ele>475.79998779297</ele>
        <time>2020-05-31T09:40:30.000Z</time>
      </trkpt>
      <trkpt lat="47.87434" lon="7.15823">
        <ele>476.20001220703</ele>
        <time>2020-05-31T09:40:34.000Z</time>
      </trkpt>
      <trkpt lat="47.87434" lon="7.15827">
        <ele>476.60000610352</ele>
        <time>2020-05-31T09:40:35.000Z</time>
      </trkpt>
      <trkpt lat="47.87434" lon="7.15832">
        <ele>477</ele>
        <time>2020-05-31T09:40:36.000Z</time>
      </trkpt>
      <trkpt lat="47.87435" lon="7.15835">
        <ele>477.39999389648</ele>
        <time>2020-05-31T09:40:37.000Z</time>
      </trkpt>
      <trkpt lat="47.87436" lon="7.15839">
        <ele>477.79998779297</ele>
        <time>2020-05-31T09:40:38.000Z</time>
      </trkpt>
      <trkpt lat="47.87434" lon="7.15857">
        <ele>477.79998779297</ele>
        <time>2020-05-31T09:40:42.000Z</time>
      </trkpt>
      <trkpt lat="47.87435" lon="7.15879">
        <ele>478.79998779297</ele>
        <time>2020-05-31T09:40:47.000Z</time>
      </trkpt>
      <trkpt lat="47.87435" lon="7.15884">
        <ele>479.20001220703</ele>
        <time>2020-05-31T09:40:48.000Z</time>
      </trkpt>
      <trkpt lat="47.87436" lon="7.15888">
        <ele>479.60000610352</ele>
        <time>2020-05-31T09:40:49.000Z</time>
      </trkpt>
      <trkpt lat="47.87436" lon="7.15892">
        <ele>480</ele>
        <time>2020-05-31T09:40:50.000Z</time>
      </trkpt>
      <trkpt lat="47.87441" lon="7.15905">
        <ele>480</ele>
        <time>2020-05-31T09:40:54.000Z</time>
      </trkpt>
      <trkpt lat="47.87442" lon="7.1591">
        <ele>480.60000610352</ele>
        <time>2020-05-31T09:40:56.000Z</time>
      </trkpt>
      <trkpt lat="47.87443" lon="7.15912">
        <ele>481</ele>
        <time>2020-05-31T09:40:57.000Z</time>
      </trkpt>
      <trkpt lat="47.87444" lon="7.15913">
        <ele>481.39999389648</ele>
        <time>2020-05-31T09:40:58.000Z</time>
      </trkpt>
      <trkpt lat="47.87446" lon="7.15914">
        <ele>481.79998779297</ele>
        <time>2020-05-31T09:40:59.000Z</time>
      </trkpt>
      <trkpt lat="47.87449" lon="7.15915">
        <ele>482.20001220703</ele>
        <time>2020-05-31T09:41:00.000Z</time>
      </trkpt>
      <trkpt lat="47.87467" lon="7.15915">
        <ele>482.20001220703</ele>
        <time>2020-05-31T09:41:06.000Z</time>
      </trkpt>
      <trkpt lat="47.87473" lon="7.15915">
        <ele>482.60000610352</ele>
        <time>2020-05-31T09:41:08.000Z</time>
      </trkpt>
      <trkpt lat="47.87476" lon="7.15916">
        <ele>483.20001220703</ele>
        <time>2020-05-31T09:41:09.000Z</time>
      </trkpt>
      <trkpt lat="47.87479" lon="7.15916">
        <ele>483.60000610352</ele>
        <time>2020-05-31T09:41:10.000Z</time>
      </trkpt>
      <trkpt lat="47.87482" lon="7.15916">
        <ele>484</ele>
        <time>2020-05-31T09:41:11.000Z</time>
      </trkpt>
      <trkpt lat="47.87484" lon="7.15917">
        <ele>484.39999389648</ele>
        <time>2020-05-31T09:41:12.000Z</time>
      </trkpt>
      <trkpt lat="47.87493" lon="7.15925">
        <ele>484.79998779297</ele>
        <time>2020-05-31T09:41:15.000Z</time>
      </trkpt>
      <trkpt lat="47.87496" lon="7.15928">
        <ele>485.39999389648</ele>
        <time>2020-05-31T09:41:16.000Z</time>
      </trkpt>
      <trkpt lat="47.87499" lon="7.15931">
        <ele>485.79998779297</ele>
        <time>2020-05-31T09:41:17.000Z</time>
      </trkpt>
      <trkpt lat="47.87502" lon="7.15935">
        <ele>486.20001220703</ele>
        <time>2020-05-31T09:41:18.000Z</time>
      </trkpt>
      <trkpt lat="47.87504" lon="7.15938">
        <ele>486.60000610352</ele>
        <time>2020-05-31T09:41:19.000Z</time>
      </trkpt>
      <trkpt lat="47.87509" lon="7.15951">
        <ele>486.60000610352</ele>
        <time>2020-05-31T09:41:22.000Z</time>
      </trkpt>
      <trkpt lat="47.8751" lon="7.1597">
        <ele>486.60000610352</ele>
        <time>2020-05-31T09:41:26.000Z</time>
      </trkpt>
      <trkpt lat="47.8751" lon="7.15979">
        <ele>487</ele>
        <time>2020-05-31T09:41:28.000Z</time>
      </trkpt>
      <trkpt lat="47.87509" lon="7.15984">
        <ele>487.39999389648</ele>
        <time>2020-05-31T09:41:29.000Z</time>
      </trkpt>
      <trkpt lat="47.8751" lon="7.15989">
        <ele>487.79998779297</ele>
        <time>2020-05-31T09:41:30.000Z</time>
      </trkpt>
      <trkpt lat="47.8751" lon="7.15993">
        <ele>488.39999389648</ele>
        <time>2020-05-31T09:41:31.000Z</time>
      </trkpt>
      <trkpt lat="47.8751" lon="7.15997">
        <ele>488.79998779297</ele>
        <time>2020-05-31T09:41:32.000Z</time>
      </trkpt>
      <trkpt lat="47.8751" lon="7.16001">
        <ele>488.79998779297</ele>
        <time>2020-05-31T09:41:33.000Z</time>
      </trkpt>
      <trkpt lat="47.87511" lon="7.16008">
        <ele>489.20001220703</ele>
        <time>2020-05-31T09:41:35.000Z</time>
      </trkpt>
      <trkpt lat="47.87509" lon="7.16013">
        <ele>490</ele>
        <time>2020-05-31T09:41:36.000Z</time>
      </trkpt>
      <trkpt lat="47.87508" lon="7.16018">
        <ele>490.39999389648</ele>
        <time>2020-05-31T09:41:37.000Z</time>
      </trkpt>
      <trkpt lat="47.87508" lon="7.16022">
        <ele>490.79998779297</ele>
        <time>2020-05-31T09:41:38.000Z</time>
      </trkpt>
      <trkpt lat="47.87508" lon="7.1605">
        <ele>491.20001220703</ele>
        <time>2020-05-31T09:41:44.000Z</time>
      </trkpt>
      <trkpt lat="47.87509" lon="7.16055">
        <ele>491.60000610352</ele>
        <time>2020-05-31T09:41:45.000Z</time>
      </trkpt>
      <trkpt lat="47.8751" lon="7.1606">
        <ele>492</ele>
        <time>2020-05-31T09:41:46.000Z</time>
      </trkpt>
      <trkpt lat="47.87512" lon="7.16064">
        <ele>492.39999389648</ele>
        <time>2020-05-31T09:41:47.000Z</time>
      </trkpt>
      <trkpt lat="47.87514" lon="7.16069">
        <ele>492.79998779297</ele>
        <time>2020-05-31T09:41:48.000Z</time>
      </trkpt>
      <trkpt lat="47.87517" lon="7.16077">
        <ele>492.79998779297</ele>
        <time>2020-05-31T09:41:50.000Z</time>
      </trkpt>
      <trkpt lat="47.87527" lon="7.16098">
        <ele>493.20001220703</ele>
        <time>2020-05-31T09:41:55.000Z</time>
      </trkpt>
      <trkpt lat="47.87529" lon="7.16102">
        <ele>493.60000610352</ele>
        <time>2020-05-31T09:41:56.000Z</time>
      </trkpt>
      <trkpt lat="47.87531" lon="7.16106">
        <ele>494</ele>
        <time>2020-05-31T09:41:57.000Z</time>
      </trkpt>
      <trkpt lat="47.87533" lon="7.16111">
        <ele>494.39999389648</ele>
        <time>2020-05-31T09:41:58.000Z</time>
      </trkpt>
      <trkpt lat="47.87534" lon="7.16114">
        <ele>494.79998779297</ele>
        <time>2020-05-31T09:41:59.000Z</time>
      </trkpt>
      <trkpt lat="47.87536" lon="7.16122">
        <ele>494.79998779297</ele>
        <time>2020-05-31T09:42:01.000Z</time>
      </trkpt>
      <trkpt lat="47.87545" lon="7.16139">
        <ele>494.79998779297</ele>
        <time>2020-05-31T09:42:07.000Z</time>
      </trkpt>
      <trkpt lat="47.87548" lon="7.16141">
        <ele>495.39999389648</ele>
        <time>2020-05-31T09:42:08.000Z</time>
      </trkpt>
      <trkpt lat="47.8755" lon="7.16144">
        <ele>495.79998779297</ele>
        <time>2020-05-31T09:42:09.000Z</time>
      </trkpt>
      <trkpt lat="47.87551" lon="7.16147">
        <ele>496.20001220703</ele>
        <time>2020-05-31T09:42:10.000Z</time>
      </trkpt>
      <trkpt lat="47.87551" lon="7.1615">
        <ele>496.60000610352</ele>
        <time>2020-05-31T09:42:11.000Z</time>
      </trkpt>
      <trkpt lat="47.87552" lon="7.16153">
        <ele>497</ele>
        <time>2020-05-31T09:42:12.000Z</time>
      </trkpt>
      <trkpt lat="47.87544" lon="7.16175">
        <ele>497</ele>
        <time>2020-05-31T09:42:16.000Z</time>
      </trkpt>
      <trkpt lat="47.87526" lon="7.16199">
        <ele>497.39999389648</ele>
        <time>2020-05-31T09:42:19.000Z</time>
      </trkpt>
      <trkpt lat="47.87524" lon="7.16205">
        <ele>497.79998779297</ele>
        <time>2020-05-31T09:42:20.000Z</time>
      </trkpt>
      <trkpt lat="47.87521" lon="7.16211">
        <ele>498.20001220703</ele>
        <time>2020-05-31T09:42:21.000Z</time>
      </trkpt>
      <trkpt lat="47.87519" lon="7.16215">
        <ele>498.60000610352</ele>
        <time>2020-05-31T09:42:22.000Z</time>
      </trkpt>
      <trkpt lat="47.87511" lon="7.16221">
        <ele>499</ele>
        <time>2020-05-31T09:42:23.000Z</time>
      </trkpt>
      <trkpt lat="47.87507" lon="7.16231">
        <ele>499.39999389648</ele>
        <time>2020-05-31T09:42:25.000Z</time>
      </trkpt>
      <trkpt lat="47.87504" lon="7.16237">
        <ele>500.20001220703</ele>
        <time>2020-05-31T09:42:26.000Z</time>
      </trkpt>
      <trkpt lat="47.87501" lon="7.16242">
        <ele>500.60000610352</ele>
        <time>2020-05-31T09:42:27.000Z</time>
      </trkpt>
      <trkpt lat="47.87494" lon="7.16249">
        <ele>501</ele>
        <time>2020-05-31T09:42:28.000Z</time>
      </trkpt>
      <trkpt lat="47.87478" lon="7.1628">
        <ele>501</ele>
        <time>2020-05-31T09:42:33.000Z</time>
      </trkpt>
      <trkpt lat="47.87479" lon="7.16289">
        <ele>501.39999389648</ele>
        <time>2020-05-31T09:42:35.000Z</time>
      </trkpt>
      <trkpt lat="47.8748" lon="7.16292">
        <ele>502</ele>
        <time>2020-05-31T09:42:36.000Z</time>
      </trkpt>
      <trkpt lat="47.87482" lon="7.16295">
        <ele>502.39999389648</ele>
        <time>2020-05-31T09:42:37.000Z</time>
      </trkpt>
      <trkpt lat="47.87484" lon="7.16297">
        <ele>502.79998779297</ele>
        <time>2020-05-31T09:42:38.000Z</time>
      </trkpt>
      <trkpt lat="47.87485" lon="7.16299">
        <ele>503.39999389648</ele>
        <time>2020-05-31T09:42:39.000Z</time>
      </trkpt>
      <trkpt lat="47.87492" lon="7.16301">
        <ele>503.39999389648</ele>
        <time>2020-05-31T09:42:41.000Z</time>
      </trkpt>
      <trkpt lat="47.87497" lon="7.163">
        <ele>503.39999389648</ele>
        <time>2020-05-31T09:42:43.000Z</time>
      </trkpt>
      <trkpt lat="47.87517" lon="7.16303">
        <ele>503.39999389648</ele>
        <time>2020-05-31T09:42:49.000Z</time>
      </trkpt>
      <trkpt lat="47.87528" lon="7.16306">
        <ele>503.39999389648</ele>
        <time>2020-05-31T09:42:52.000Z</time>
      </trkpt>
      <trkpt lat="47.87542" lon="7.16313">
        <ele>503.39999389648</ele>
        <time>2020-05-31T09:42:57.000Z</time>
      </trkpt>
      <trkpt lat="47.87561" lon="7.16323">
        <ele>503.79998779297</ele>
        <time>2020-05-31T09:43:03.000Z</time>
      </trkpt>
      <trkpt lat="47.87563" lon="7.16325">
        <ele>504.20001220703</ele>
        <time>2020-05-31T09:43:04.000Z</time>
      </trkpt>
      <trkpt lat="47.87565" lon="7.16326">
        <ele>504.60000610352</ele>
        <time>2020-05-31T09:43:05.000Z</time>
      </trkpt>
      <trkpt lat="47.87567" lon="7.16327">
        <ele>505</ele>
        <time>2020-05-31T09:43:06.000Z</time>
      </trkpt>
      <trkpt lat="47.87569" lon="7.16329">
        <ele>505.39999389648</ele>
        <time>2020-05-31T09:43:07.000Z</time>
      </trkpt>
      <trkpt lat="47.87576" lon="7.16333">
        <ele>505.39999389648</ele>
        <time>2020-05-31T09:43:09.000Z</time>
      </trkpt>
      <trkpt lat="47.87595" lon="7.16335">
        <ele>505.39999389648</ele>
        <time>2020-05-31T09:43:14.000Z</time>
      </trkpt>
      <trkpt lat="47.87599" lon="7.16335">
        <ele>505.79998779297</ele>
        <time>2020-05-31T09:43:15.000Z</time>
      </trkpt>
      <trkpt lat="47.87602" lon="7.16334">
        <ele>506.79998779297</ele>
        <time>2020-05-31T09:43:16.000Z</time>
      </trkpt>
      <trkpt lat="47.87604" lon="7.16334">
        <ele>507.20001220703</ele>
        <time>2020-05-31T09:43:17.000Z</time>
      </trkpt>
      <trkpt lat="47.87608" lon="7.16335">
        <ele>507.60000610352</ele>
        <time>2020-05-31T09:43:18.000Z</time>
      </trkpt>
      <trkpt lat="47.87609" lon="7.16337">
        <ele>507.60000610352</ele>
        <time>2020-05-31T09:43:19.000Z</time>
      </trkpt>
      <trkpt lat="47.87615" lon="7.16339">
        <ele>508.20001220703</ele>
        <time>2020-05-31T09:43:22.000Z</time>
      </trkpt>
      <trkpt lat="47.87617" lon="7.16339">
        <ele>508.60000610352</ele>
        <time>2020-05-31T09:43:23.000Z</time>
      </trkpt>
      <trkpt lat="47.87618" lon="7.16339">
        <ele>509.20001220703</ele>
        <time>2020-05-31T09:43:24.000Z</time>
      </trkpt>
      <trkpt lat="47.8762" lon="7.16338">
        <ele>509.60000610352</ele>
        <time>2020-05-31T09:43:25.000Z</time>
      </trkpt>
      <trkpt lat="47.87621" lon="7.16338">
        <ele>510.20001220703</ele>
        <time>2020-05-31T09:43:26.000Z</time>
      </trkpt>
      <trkpt lat="47.87622" lon="7.16338">
        <ele>510.60000610352</ele>
        <time>2020-05-31T09:43:27.000Z</time>
      </trkpt>
      <trkpt lat="47.87623" lon="7.16338">
        <ele>511</ele>
        <time>2020-05-31T09:43:28.000Z</time>
      </trkpt>
      <trkpt lat="47.87624" lon="7.16338">
        <ele>511.39999389648</ele>
        <time>2020-05-31T09:43:29.000Z</time>
      </trkpt>
      <trkpt lat="47.87625" lon="7.16339">
        <ele>511.79998779297</ele>
        <time>2020-05-31T09:43:30.000Z</time>
      </trkpt>
      <trkpt lat="47.87626" lon="7.1634">
        <ele>512.40002441406</ele>
        <time>2020-05-31T09:43:31.000Z</time>
      </trkpt>
      <trkpt lat="47.87627" lon="7.16342">
        <ele>512.79998779297</ele>
        <time>2020-05-31T09:43:32.000Z</time>
      </trkpt>
      <trkpt lat="47.87628" lon="7.16343">
        <ele>513.20001220703</ele>
        <time>2020-05-31T09:43:33.000Z</time>
      </trkpt>
      <trkpt lat="47.8763" lon="7.16346">
        <ele>513.79998779297</ele>
        <time>2020-05-31T09:43:34.000Z</time>
      </trkpt>
      <trkpt lat="47.87629" lon="7.16346">
        <ele>514.20001220703</ele>
        <time>2020-05-31T09:43:35.000Z</time>
      </trkpt>
      <trkpt lat="47.87629" lon="7.16348">
        <ele>514.59997558594</ele>
        <time>2020-05-31T09:43:36.000Z</time>
      </trkpt>
      <trkpt lat="47.8763" lon="7.16357">
        <ele>515.59997558594</ele>
        <time>2020-05-31T09:43:40.000Z</time>
      </trkpt>
      <trkpt lat="47.8763" lon="7.16359">
        <ele>516</ele>
        <time>2020-05-31T09:43:41.000Z</time>
      </trkpt>
      <trkpt lat="47.8763" lon="7.16363">
        <ele>516.59997558594</ele>
        <time>2020-05-31T09:43:42.000Z</time>
      </trkpt>
      <trkpt lat="47.8763" lon="7.16366">
        <ele>517</ele>
        <time>2020-05-31T09:43:43.000Z</time>
      </trkpt>
      <trkpt lat="47.8763" lon="7.16369">
        <ele>517.40002441406</ele>
        <time>2020-05-31T09:43:44.000Z</time>
      </trkpt>
      <trkpt lat="47.87628" lon="7.16373">
        <ele>518</ele>
        <time>2020-05-31T09:43:45.000Z</time>
      </trkpt>
      <trkpt lat="47.87627" lon="7.16377">
        <ele>518.40002441406</ele>
        <time>2020-05-31T09:43:46.000Z</time>
      </trkpt>
      <trkpt lat="47.87626" lon="7.1638">
        <ele>518.79998779297</ele>
        <time>2020-05-31T09:43:47.000Z</time>
      </trkpt>
      <trkpt lat="47.87624" lon="7.16383">
        <ele>519.40002441406</ele>
        <time>2020-05-31T09:43:48.000Z</time>
      </trkpt>
      <trkpt lat="47.87623" lon="7.16386">
        <ele>519.79998779297</ele>
        <time>2020-05-31T09:43:49.000Z</time>
      </trkpt>
      <trkpt lat="47.87622" lon="7.16388">
        <ele>520.20001220703</ele>
        <time>2020-05-31T09:43:50.000Z</time>
      </trkpt>
      <trkpt lat="47.87622" lon="7.16391">
        <ele>520.59997558594</ele>
        <time>2020-05-31T09:43:51.000Z</time>
      </trkpt>
      <trkpt lat="47.87622" lon="7.16394">
        <ele>521</ele>
        <time>2020-05-31T09:43:52.000Z</time>
      </trkpt>
      <trkpt lat="47.87621" lon="7.16398">
        <ele>521.40002441406</ele>
        <time>2020-05-31T09:43:53.000Z</time>
      </trkpt>
      <trkpt lat="47.87621" lon="7.16402">
        <ele>522</ele>
        <time>2020-05-31T09:43:54.000Z</time>
      </trkpt>
      <trkpt lat="47.87622" lon="7.16405">
        <ele>522.40002441406</ele>
        <time>2020-05-31T09:43:55.000Z</time>
      </trkpt>
      <trkpt lat="47.87622" lon="7.16407">
        <ele>523</ele>
        <time>2020-05-31T09:43:56.000Z</time>
      </trkpt>
      <trkpt lat="47.87623" lon="7.16409">
        <ele>523.40002441406</ele>
        <time>2020-05-31T09:43:57.000Z</time>
      </trkpt>
      <trkpt lat="47.87623" lon="7.16412">
        <ele>523.79998779297</ele>
        <time>2020-05-31T09:43:58.000Z</time>
      </trkpt>
      <trkpt lat="47.87622" lon="7.16415">
        <ele>524.40002441406</ele>
        <time>2020-05-31T09:43:59.000Z</time>
      </trkpt>
      <trkpt lat="47.87623" lon="7.16418">
        <ele>524.79998779297</ele>
        <time>2020-05-31T09:44:00.000Z</time>
      </trkpt>
      <trkpt lat="47.87623" lon="7.16421">
        <ele>525.40002441406</ele>
        <time>2020-05-31T09:44:01.000Z</time>
      </trkpt>
      <trkpt lat="47.87622" lon="7.16423">
        <ele>525.79998779297</ele>
        <time>2020-05-31T09:44:02.000Z</time>
      </trkpt>
      <trkpt lat="47.87622" lon="7.16425">
        <ele>526.40002441406</ele>
        <time>2020-05-31T09:44:03.000Z</time>
      </trkpt>
      <trkpt lat="47.87621" lon="7.16428">
        <ele>526.79998779297</ele>
        <time>2020-05-31T09:44:04.000Z</time>
      </trkpt>
      <trkpt lat="47.87621" lon="7.1643">
        <ele>527.59997558594</ele>
        <time>2020-05-31T09:44:05.000Z</time>
      </trkpt>
      <trkpt lat="47.87621" lon="7.16433">
        <ele>528</ele>
        <time>2020-05-31T09:44:06.000Z</time>
      </trkpt>
      <trkpt lat="47.8762" lon="7.16435">
        <ele>528.59997558594</ele>
        <time>2020-05-31T09:44:07.000Z</time>
      </trkpt>
      <trkpt lat="47.87619" lon="7.16439">
        <ele>529</ele>
        <time>2020-05-31T09:44:08.000Z</time>
      </trkpt>
      <trkpt lat="47.87617" lon="7.16441">
        <ele>529.40002441406</ele>
        <time>2020-05-31T09:44:09.000Z</time>
      </trkpt>
      <trkpt lat="47.87616" lon="7.16444">
        <ele>529.79998779297</ele>
        <time>2020-05-31T09:44:10.000Z</time>
      </trkpt>
      <trkpt lat="47.87615" lon="7.16447">
        <ele>530.20001220703</ele>
        <time>2020-05-31T09:44:11.000Z</time>
      </trkpt>
      <trkpt lat="47.87614" lon="7.16449">
        <ele>530.59997558594</ele>
        <time>2020-05-31T09:44:12.000Z</time>
      </trkpt>
      <trkpt lat="47.87611" lon="7.16457">
        <ele>531</ele>
        <time>2020-05-31T09:44:14.000Z</time>
      </trkpt>
      <trkpt lat="47.87609" lon="7.16461">
        <ele>531.59997558594</ele>
        <time>2020-05-31T09:44:15.000Z</time>
      </trkpt>
      <trkpt lat="47.87607" lon="7.16465">
        <ele>532</ele>
        <time>2020-05-31T09:44:16.000Z</time>
      </trkpt>
      <trkpt lat="47.87605" lon="7.16469">
        <ele>532.40002441406</ele>
        <time>2020-05-31T09:44:17.000Z</time>
      </trkpt>
      <trkpt lat="47.87603" lon="7.16472">
        <ele>532.79998779297</ele>
        <time>2020-05-31T09:44:18.000Z</time>
      </trkpt>
      <trkpt lat="47.87601" lon="7.16475">
        <ele>533.40002441406</ele>
        <time>2020-05-31T09:44:19.000Z</time>
      </trkpt>
      <trkpt lat="47.87599" lon="7.16477">
        <ele>533.79998779297</ele>
        <time>2020-05-31T09:44:20.000Z</time>
      </trkpt>
      <trkpt lat="47.87598" lon="7.16479">
        <ele>534.20001220703</ele>
        <time>2020-05-31T09:44:21.000Z</time>
      </trkpt>
      <trkpt lat="47.87596" lon="7.16481">
        <ele>534.79998779297</ele>
        <time>2020-05-31T09:44:22.000Z</time>
      </trkpt>
      <trkpt lat="47.87596" lon="7.16484">
        <ele>535.20001220703</ele>
        <time>2020-05-31T09:44:23.000Z</time>
      </trkpt>
      <trkpt lat="47.87594" lon="7.1649">
        <ele>535.59997558594</ele>
        <time>2020-05-31T09:44:25.000Z</time>
      </trkpt>
      <trkpt lat="47.87593" lon="7.16493">
        <ele>536.20001220703</ele>
        <time>2020-05-31T09:44:26.000Z</time>
      </trkpt>
      <trkpt lat="47.87592" lon="7.16496">
        <ele>536.59997558594</ele>
        <time>2020-05-31T09:44:27.000Z</time>
      </trkpt>
      <trkpt lat="47.87592" lon="7.16499">
        <ele>537</ele>
        <time>2020-05-31T09:44:28.000Z</time>
      </trkpt>
      <trkpt lat="47.87591" lon="7.16503">
        <ele>537.59997558594</ele>
        <time>2020-05-31T09:44:29.000Z</time>
      </trkpt>
      <trkpt lat="47.8759" lon="7.16506">
        <ele>538.40002441406</ele>
        <time>2020-05-31T09:44:30.000Z</time>
      </trkpt>
      <trkpt lat="47.87589" lon="7.1651">
        <ele>539</ele>
        <time>2020-05-31T09:44:31.000Z</time>
      </trkpt>
      <trkpt lat="47.87587" lon="7.16513">
        <ele>539.40002441406</ele>
        <time>2020-05-31T09:44:32.000Z</time>
      </trkpt>
      <trkpt lat="47.87585" lon="7.16516">
        <ele>539.79998779297</ele>
        <time>2020-05-31T09:44:33.000Z</time>
      </trkpt>
      <trkpt lat="47.87584" lon="7.16519">
        <ele>540.20001220703</ele>
        <time>2020-05-31T09:44:34.000Z</time>
      </trkpt>
      <trkpt lat="47.87582" lon="7.16523">
        <ele>540.59997558594</ele>
        <time>2020-05-31T09:44:35.000Z</time>
      </trkpt>
      <trkpt lat="47.87581" lon="7.16527">
        <ele>541.20001220703</ele>
        <time>2020-05-31T09:44:36.000Z</time>
      </trkpt>
      <trkpt lat="47.8758" lon="7.16529">
        <ele>541.59997558594</ele>
        <time>2020-05-31T09:44:37.000Z</time>
      </trkpt>
      <trkpt lat="47.87579" lon="7.16532">
        <ele>542</ele>
        <time>2020-05-31T09:44:38.000Z</time>
      </trkpt>
      <trkpt lat="47.87577" lon="7.16534">
        <ele>542.40002441406</ele>
        <time>2020-05-31T09:44:39.000Z</time>
      </trkpt>
      <trkpt lat="47.87576" lon="7.16536">
        <ele>542.79998779297</ele>
        <time>2020-05-31T09:44:40.000Z</time>
      </trkpt>
      <trkpt lat="47.87575" lon="7.1654">
        <ele>543.40002441406</ele>
        <time>2020-05-31T09:44:41.000Z</time>
      </trkpt>
      <trkpt lat="47.87574" lon="7.16544">
        <ele>543.79998779297</ele>
        <time>2020-05-31T09:44:42.000Z</time>
      </trkpt>
      <trkpt lat="47.87574" lon="7.16547">
        <ele>544.20001220703</ele>
        <time>2020-05-31T09:44:43.000Z</time>
      </trkpt>
      <trkpt lat="47.87571" lon="7.16554">
        <ele>544.20001220703</ele>
        <time>2020-05-31T09:44:45.000Z</time>
      </trkpt>
      <trkpt lat="47.87567" lon="7.16561">
        <ele>544.20001220703</ele>
        <time>2020-05-31T09:44:47.000Z</time>
      </trkpt>
      <trkpt lat="47.87567" lon="7.16564">
        <ele>544.59997558594</ele>
        <time>2020-05-31T09:44:48.000Z</time>
      </trkpt>
      <trkpt lat="47.87566" lon="7.16567">
        <ele>545</ele>
        <time>2020-05-31T09:44:49.000Z</time>
      </trkpt>
      <trkpt lat="47.87566" lon="7.16569">
        <ele>545.40002441406</ele>
        <time>2020-05-31T09:44:50.000Z</time>
      </trkpt>
      <trkpt lat="47.87565" lon="7.16572">
        <ele>546</ele>
        <time>2020-05-31T09:44:51.000Z</time>
      </trkpt>
      <trkpt lat="47.87565" lon="7.16576">
        <ele>546.59997558594</ele>
        <time>2020-05-31T09:44:52.000Z</time>
      </trkpt>
      <trkpt lat="47.87564" lon="7.1658">
        <ele>547.20001220703</ele>
        <time>2020-05-31T09:44:53.000Z</time>
      </trkpt>
      <trkpt lat="47.87564" lon="7.16584">
        <ele>547.79998779297</ele>
        <time>2020-05-31T09:44:54.000Z</time>
      </trkpt>
      <trkpt lat="47.87564" lon="7.16587">
        <ele>549</ele>
        <time>2020-05-31T09:44:55.000Z</time>
      </trkpt>
      <trkpt lat="47.87565" lon="7.16593">
        <ele>549.40002441406</ele>
        <time>2020-05-31T09:44:57.000Z</time>
      </trkpt>
      <trkpt lat="47.87567" lon="7.16596">
        <ele>549.79998779297</ele>
        <time>2020-05-31T09:44:58.000Z</time>
      </trkpt>
      <trkpt lat="47.87568" lon="7.16599">
        <ele>550.20001220703</ele>
        <time>2020-05-31T09:44:59.000Z</time>
      </trkpt>
      <trkpt lat="47.8757" lon="7.16602">
        <ele>550.59997558594</ele>
        <time>2020-05-31T09:45:00.000Z</time>
      </trkpt>
      <trkpt lat="47.87572" lon="7.16605">
        <ele>551.20001220703</ele>
        <time>2020-05-31T09:45:01.000Z</time>
      </trkpt>
      <trkpt lat="47.87577" lon="7.1661">
        <ele>551.59997558594</ele>
        <time>2020-05-31T09:45:03.000Z</time>
      </trkpt>
      <trkpt lat="47.8758" lon="7.16612">
        <ele>552</ele>
        <time>2020-05-31T09:45:04.000Z</time>
      </trkpt>
      <trkpt lat="47.87582" lon="7.16614">
        <ele>552.59997558594</ele>
        <time>2020-05-31T09:45:05.000Z</time>
      </trkpt>
      <trkpt lat="47.87583" lon="7.16616">
        <ele>553</ele>
        <time>2020-05-31T09:45:06.000Z</time>
      </trkpt>
      <trkpt lat="47.87584" lon="7.16618">
        <ele>553.40002441406</ele>
        <time>2020-05-31T09:45:07.000Z</time>
      </trkpt>
      <trkpt lat="47.87586" lon="7.1662">
        <ele>553.79998779297</ele>
        <time>2020-05-31T09:45:08.000Z</time>
      </trkpt>
      <trkpt lat="47.87588" lon="7.16623">
        <ele>554.20001220703</ele>
        <time>2020-05-31T09:45:09.000Z</time>
      </trkpt>
      <trkpt lat="47.87589" lon="7.16625">
        <ele>554.59997558594</ele>
        <time>2020-05-31T09:45:10.000Z</time>
      </trkpt>
      <trkpt lat="47.8759" lon="7.16627">
        <ele>555</ele>
        <time>2020-05-31T09:45:11.000Z</time>
      </trkpt>
      <trkpt lat="47.87591" lon="7.16629">
        <ele>555.40002441406</ele>
        <time>2020-05-31T09:45:12.000Z</time>
      </trkpt>
      <trkpt lat="47.87592" lon="7.1663">
        <ele>555.79998779297</ele>
        <time>2020-05-31T09:45:13.000Z</time>
      </trkpt>
      <trkpt lat="47.87593" lon="7.16631">
        <ele>556.40002441406</ele>
        <time>2020-05-31T09:45:14.000Z</time>
      </trkpt>
      <trkpt lat="47.87594" lon="7.16633">
        <ele>556.79998779297</ele>
        <time>2020-05-31T09:45:15.000Z</time>
      </trkpt>
      <trkpt lat="47.87595" lon="7.16634">
        <ele>557.20001220703</ele>
        <time>2020-05-31T09:45:16.000Z</time>
      </trkpt>
      <trkpt lat="47.87596" lon="7.16636">
        <ele>557.59997558594</ele>
        <time>2020-05-31T09:45:17.000Z</time>
      </trkpt>
      <trkpt lat="47.87599" lon="7.16641">
        <ele>558</ele>
        <time>2020-05-31T09:45:19.000Z</time>
      </trkpt>
      <trkpt lat="47.87601" lon="7.16643">
        <ele>559</ele>
        <time>2020-05-31T09:45:20.000Z</time>
      </trkpt>
      <trkpt lat="47.87602" lon="7.16645">
        <ele>559.40002441406</ele>
        <time>2020-05-31T09:45:21.000Z</time>
      </trkpt>
      <trkpt lat="47.87603" lon="7.16646">
        <ele>559.79998779297</ele>
        <time>2020-05-31T09:45:22.000Z</time>
      </trkpt>
      <trkpt lat="47.87605" lon="7.1665">
        <ele>560.40002441406</ele>
        <time>2020-05-31T09:45:24.000Z</time>
      </trkpt>
      <trkpt lat="47.87607" lon="7.16652">
        <ele>560.79998779297</ele>
        <time>2020-05-31T09:45:25.000Z</time>
      </trkpt>
      <trkpt lat="47.87608" lon="7.16656">
        <ele>561.20001220703</ele>
        <time>2020-05-31T09:45:26.000Z</time>
      </trkpt>
      <trkpt lat="47.87611" lon="7.16659">
        <ele>561.79998779297</ele>
        <time>2020-05-31T09:45:27.000Z</time>
      </trkpt>
      <trkpt lat="47.87613" lon="7.16663">
        <ele>562.20001220703</ele>
        <time>2020-05-31T09:45:28.000Z</time>
      </trkpt>
      <trkpt lat="47.87617" lon="7.16675">
        <ele>562.20001220703</ele>
        <time>2020-05-31T09:45:31.000Z</time>
      </trkpt>
      <trkpt lat="47.87621" lon="7.16694">
        <ele>562.20001220703</ele>
        <time>2020-05-31T09:45:36.000Z</time>
      </trkpt>
      <trkpt lat="47.87626" lon="7.16726">
        <ele>562.20001220703</ele>
        <time>2020-05-31T09:45:43.000Z</time>
      </trkpt>
      <trkpt lat="47.87637" lon="7.16758">
        <ele>562.20001220703</ele>
        <time>2020-05-31T09:45:49.000Z</time>
      </trkpt>
      <trkpt lat="47.87647" lon="7.16784">
        <ele>562.20001220703</ele>
        <time>2020-05-31T09:45:54.000Z</time>
      </trkpt>
      <trkpt lat="47.8765" lon="7.16797">
        <ele>562.20001220703</ele>
        <time>2020-05-31T09:45:56.000Z</time>
      </trkpt>
      <trkpt lat="47.87655" lon="7.16819">
        <ele>562.20001220703</ele>
        <time>2020-05-31T09:45:59.000Z</time>
      </trkpt>
      <trkpt lat="47.87663" lon="7.16852">
        <ele>562.20001220703</ele>
        <time>2020-05-31T09:46:05.000Z</time>
      </trkpt>
      <trkpt lat="47.87672" lon="7.16882">
        <ele>562.20001220703</ele>
        <time>2020-05-31T09:46:11.000Z</time>
      </trkpt>
      <trkpt lat="47.87683" lon="7.16913">
        <ele>562.20001220703</ele>
        <time>2020-05-31T09:46:17.000Z</time>
      </trkpt>
      <trkpt lat="47.87698" lon="7.16943">
        <ele>562.20001220703</ele>
        <time>2020-05-31T09:46:24.000Z</time>
      </trkpt>
      <trkpt lat="47.87707" lon="7.16954">
        <ele>562.59997558594</ele>
        <time>2020-05-31T09:46:27.000Z</time>
      </trkpt>
      <trkpt lat="47.8771" lon="7.16957">
        <ele>563</ele>
        <time>2020-05-31T09:46:28.000Z</time>
      </trkpt>
      <trkpt lat="47.87712" lon="7.16959">
        <ele>563.59997558594</ele>
        <time>2020-05-31T09:46:29.000Z</time>
      </trkpt>
      <trkpt lat="47.87714" lon="7.16962">
        <ele>564</ele>
        <time>2020-05-31T09:46:30.000Z</time>
      </trkpt>
      <trkpt lat="47.87715" lon="7.16965">
        <ele>564.40002441406</ele>
        <time>2020-05-31T09:46:31.000Z</time>
      </trkpt>
      <trkpt lat="47.87721" lon="7.1697">
        <ele>565.20001220703</ele>
        <time>2020-05-31T09:46:34.000Z</time>
      </trkpt>
      <trkpt lat="47.87724" lon="7.16972">
        <ele>565.79998779297</ele>
        <time>2020-05-31T09:46:35.000Z</time>
      </trkpt>
      <trkpt lat="47.87727" lon="7.16974">
        <ele>566.20001220703</ele>
        <time>2020-05-31T09:46:36.000Z</time>
      </trkpt>
      <trkpt lat="47.8773" lon="7.16976">
        <ele>566.59997558594</ele>
        <time>2020-05-31T09:46:37.000Z</time>
      </trkpt>
      <trkpt lat="47.87733" lon="7.16978">
        <ele>567.20001220703</ele>
        <time>2020-05-31T09:46:38.000Z</time>
      </trkpt>
      <trkpt lat="47.87737" lon="7.16981">
        <ele>567.59997558594</ele>
        <time>2020-05-31T09:46:39.000Z</time>
      </trkpt>
      <trkpt lat="47.8774" lon="7.16984">
        <ele>568</ele>
        <time>2020-05-31T09:46:40.000Z</time>
      </trkpt>
      <trkpt lat="47.87744" lon="7.16985">
        <ele>568.59997558594</ele>
        <time>2020-05-31T09:46:41.000Z</time>
      </trkpt>
      <trkpt lat="47.87746" lon="7.16987">
        <ele>569.20001220703</ele>
        <time>2020-05-31T09:46:42.000Z</time>
      </trkpt>
      <trkpt lat="47.87749" lon="7.16989">
        <ele>569.79998779297</ele>
        <time>2020-05-31T09:46:43.000Z</time>
      </trkpt>
      <trkpt lat="47.8775" lon="7.1699">
        <ele>570.20001220703</ele>
        <time>2020-05-31T09:46:44.000Z</time>
      </trkpt>
      <trkpt lat="47.87751" lon="7.16991">
        <ele>570.79998779297</ele>
        <time>2020-05-31T09:46:45.000Z</time>
      </trkpt>
      <trkpt lat="47.87751" lon="7.16991">
        <ele>571.40002441406</ele>
        <time>2020-05-31T09:46:46.000Z</time>
      </trkpt>
      <trkpt lat="47.87752" lon="7.16992">
        <ele>571.40002441406</ele>
        <time>2020-05-31T09:46:47.000Z</time>
      </trkpt>
      <trkpt lat="47.87755" lon="7.16997">
        <ele>571.40002441406</ele>
        <time>2020-05-31T09:48:16.000Z</time>
      </trkpt>
      <trkpt lat="47.8776" lon="7.17002">
        <ele>571.40002441406</ele>
        <time>2020-05-31T09:48:18.000Z</time>
      </trkpt>
      <trkpt lat="47.87773" lon="7.17014">
        <ele>571</ele>
        <time>2020-05-31T09:48:21.000Z</time>
      </trkpt>
      <trkpt lat="47.87778" lon="7.1702">
        <ele>570.40002441406</ele>
        <time>2020-05-31T09:48:22.000Z</time>
      </trkpt>
      <trkpt lat="47.87784" lon="7.17025">
        <ele>570</ele>
        <time>2020-05-31T09:48:23.000Z</time>
      </trkpt>
      <trkpt lat="47.87791" lon="7.17031">
        <ele>569.20001220703</ele>
        <time>2020-05-31T09:48:24.000Z</time>
      </trkpt>
      <trkpt lat="47.87799" lon="7.17037">
        <ele>568.59997558594</ele>
        <time>2020-05-31T09:48:25.000Z</time>
      </trkpt>
      <trkpt lat="47.87811" lon="7.17051">
        <ele>567</ele>
        <time>2020-05-31T09:48:26.000Z</time>
      </trkpt>
      <trkpt lat="47.87815" lon="7.17061">
        <ele>566.20001220703</ele>
        <time>2020-05-31T09:48:28.000Z</time>
      </trkpt>
      <trkpt lat="47.87819" lon="7.17072">
        <ele>565.40002441406</ele>
        <time>2020-05-31T09:48:29.000Z</time>
      </trkpt>
      <trkpt lat="47.87823" lon="7.17083">
        <ele>564.59997558594</ele>
        <time>2020-05-31T09:48:30.000Z</time>
      </trkpt>
      <trkpt lat="47.87827" lon="7.17095">
        <ele>563.79998779297</ele>
        <time>2020-05-31T09:48:31.000Z</time>
      </trkpt>
      <trkpt lat="47.87831" lon="7.17107">
        <ele>562.59997558594</ele>
        <time>2020-05-31T09:48:32.000Z</time>
      </trkpt>
      <trkpt lat="47.87835" lon="7.17122">
        <ele>561.59997558594</ele>
        <time>2020-05-31T09:48:33.000Z</time>
      </trkpt>
      <trkpt lat="47.87839" lon="7.17139">
        <ele>560.40002441406</ele>
        <time>2020-05-31T09:48:34.000Z</time>
      </trkpt>
      <trkpt lat="47.87842" lon="7.17155">
        <ele>559.20001220703</ele>
        <time>2020-05-31T09:48:35.000Z</time>
      </trkpt>
      <trkpt lat="47.87844" lon="7.1717">
        <ele>556.59997558594</ele>
        <time>2020-05-31T09:48:36.000Z</time>
      </trkpt>
      <trkpt lat="47.87846" lon="7.17183">
        <ele>555.20001220703</ele>
        <time>2020-05-31T09:48:37.000Z</time>
      </trkpt>
      <trkpt lat="47.87847" lon="7.17194">
        <ele>553.79998779297</ele>
        <time>2020-05-31T09:48:38.000Z</time>
      </trkpt>
      <trkpt lat="47.87848" lon="7.17204">
        <ele>552.79998779297</ele>
        <time>2020-05-31T09:48:39.000Z</time>
      </trkpt>
      <trkpt lat="47.87848" lon="7.17211">
        <ele>551.79998779297</ele>
        <time>2020-05-31T09:48:40.000Z</time>
      </trkpt>
      <trkpt lat="47.87849" lon="7.17216">
        <ele>550.79998779297</ele>
        <time>2020-05-31T09:48:41.000Z</time>
      </trkpt>
      <trkpt lat="47.8785" lon="7.17222">
        <ele>549.79998779297</ele>
        <time>2020-05-31T09:48:42.000Z</time>
      </trkpt>
      <trkpt lat="47.87849" lon="7.1723">
        <ele>548.79998779297</ele>
        <time>2020-05-31T09:48:43.000Z</time>
      </trkpt>
      <trkpt lat="47.87847" lon="7.1724">
        <ele>548.20001220703</ele>
        <time>2020-05-31T09:48:44.000Z</time>
      </trkpt>
      <trkpt lat="47.87846" lon="7.1725">
        <ele>547.79998779297</ele>
        <time>2020-05-31T09:48:45.000Z</time>
      </trkpt>
      <trkpt lat="47.87846" lon="7.17261">
        <ele>547</ele>
        <time>2020-05-31T09:48:46.000Z</time>
      </trkpt>
      <trkpt lat="47.87847" lon="7.17273">
        <ele>546</ele>
        <time>2020-05-31T09:48:47.000Z</time>
      </trkpt>
      <trkpt lat="47.87848" lon="7.17286">
        <ele>545.20001220703</ele>
        <time>2020-05-31T09:48:48.000Z</time>
      </trkpt>
      <trkpt lat="47.87849" lon="7.17298">
        <ele>544.20001220703</ele>
        <time>2020-05-31T09:48:49.000Z</time>
      </trkpt>
      <trkpt lat="47.8785" lon="7.17309">
        <ele>543.20001220703</ele>
        <time>2020-05-31T09:48:50.000Z</time>
      </trkpt>
      <trkpt lat="47.8785" lon="7.1732">
        <ele>542.20001220703</ele>
        <time>2020-05-31T09:48:51.000Z</time>
      </trkpt>
      <trkpt lat="47.87849" lon="7.17329">
        <ele>541.20001220703</ele>
        <time>2020-05-31T09:48:52.000Z</time>
      </trkpt>
      <trkpt lat="47.87848" lon="7.17338">
        <ele>540.20001220703</ele>
        <time>2020-05-31T09:48:53.000Z</time>
      </trkpt>
      <trkpt lat="47.87846" lon="7.17344">
        <ele>539.40002441406</ele>
        <time>2020-05-31T09:48:54.000Z</time>
      </trkpt>
      <trkpt lat="47.87844" lon="7.17346">
        <ele>538.79998779297</ele>
        <time>2020-05-31T09:48:55.000Z</time>
      </trkpt>
      <trkpt lat="47.87842" lon="7.17347">
        <ele>538</ele>
        <time>2020-05-31T09:48:56.000Z</time>
      </trkpt>
      <trkpt lat="47.87841" lon="7.17347">
        <ele>537.40002441406</ele>
        <time>2020-05-31T09:48:57.000Z</time>
      </trkpt>
      <trkpt lat="47.8784" lon="7.17347">
        <ele>536.59997558594</ele>
        <time>2020-05-31T09:48:58.000Z</time>
      </trkpt>
      <trkpt lat="47.87839" lon="7.17347">
        <ele>536.59997558594</ele>
        <time>2020-05-31T09:48:59.000Z</time>
      </trkpt>
      <trkpt lat="47.87839" lon="7.17352">
        <ele>536.59997558594</ele>
        <time>2020-05-31T09:49:20.000Z</time>
      </trkpt>
      <trkpt lat="47.87837" lon="7.17374">
        <ele>536.20001220703</ele>
        <time>2020-05-31T09:49:23.000Z</time>
      </trkpt>
      <trkpt lat="47.87836" lon="7.17381">
        <ele>535.79998779297</ele>
        <time>2020-05-31T09:49:24.000Z</time>
      </trkpt>
      <trkpt lat="47.87833" lon="7.17386">
        <ele>534.79998779297</ele>
        <time>2020-05-31T09:49:25.000Z</time>
      </trkpt>
      <trkpt lat="47.8783" lon="7.17392">
        <ele>533.20001220703</ele>
        <time>2020-05-31T09:49:26.000Z</time>
      </trkpt>
      <trkpt lat="47.87827" lon="7.17399">
        <ele>532.40002441406</ele>
        <time>2020-05-31T09:49:27.000Z</time>
      </trkpt>
      <trkpt lat="47.87824" lon="7.17404">
        <ele>531.59997558594</ele>
        <time>2020-05-31T09:49:28.000Z</time>
      </trkpt>
      <trkpt lat="47.87823" lon="7.17406">
        <ele>531</ele>
        <time>2020-05-31T09:49:29.000Z</time>
      </trkpt>
      <trkpt lat="47.87822" lon="7.17406">
        <ele>530.20001220703</ele>
        <time>2020-05-31T09:49:30.000Z</time>
      </trkpt>
      <trkpt lat="47.87822" lon="7.17406">
        <ele>529.40002441406</ele>
        <time>2020-05-31T09:49:31.000Z</time>
      </trkpt>
      <trkpt lat="47.87817" lon="7.1741">
        <ele>529.40002441406</ele>
        <time>2020-05-31T09:49:36.000Z</time>
      </trkpt>
      <trkpt lat="47.87808" lon="7.17416">
        <ele>529.40002441406</ele>
        <time>2020-05-31T09:49:41.000Z</time>
      </trkpt>
      <trkpt lat="47.87803" lon="7.17436">
        <ele>529.40002441406</ele>
        <time>2020-05-31T09:49:45.000Z</time>
      </trkpt>
      <trkpt lat="47.87805" lon="7.17441">
        <ele>529</ele>
        <time>2020-05-31T09:49:46.000Z</time>
      </trkpt>
      <trkpt lat="47.87806" lon="7.17448">
        <ele>528.40002441406</ele>
        <time>2020-05-31T09:49:47.000Z</time>
      </trkpt>
      <trkpt lat="47.87809" lon="7.17456">
        <ele>528</ele>
        <time>2020-05-31T09:49:48.000Z</time>
      </trkpt>
      <trkpt lat="47.87811" lon="7.17463">
        <ele>527.40002441406</ele>
        <time>2020-05-31T09:49:49.000Z</time>
      </trkpt>
      <trkpt lat="47.87813" lon="7.17471">
        <ele>526.79998779297</ele>
        <time>2020-05-31T09:49:50.000Z</time>
      </trkpt>
      <trkpt lat="47.87816" lon="7.17479">
        <ele>525.40002441406</ele>
        <time>2020-05-31T09:49:51.000Z</time>
      </trkpt>
      <trkpt lat="47.87817" lon="7.17489">
        <ele>524.79998779297</ele>
        <time>2020-05-31T09:49:52.000Z</time>
      </trkpt>
      <trkpt lat="47.87819" lon="7.17498">
        <ele>524.40002441406</ele>
        <time>2020-05-31T09:49:53.000Z</time>
      </trkpt>
      <trkpt lat="47.8782" lon="7.17507">
        <ele>524</ele>
        <time>2020-05-31T09:49:54.000Z</time>
      </trkpt>
      <trkpt lat="47.87821" lon="7.17516">
        <ele>523.59997558594</ele>
        <time>2020-05-31T09:49:55.000Z</time>
      </trkpt>
      <trkpt lat="47.87822" lon="7.17525">
        <ele>523.20001220703</ele>
        <time>2020-05-31T09:49:56.000Z</time>
      </trkpt>
      <trkpt lat="47.87824" lon="7.17534">
        <ele>522.79998779297</ele>
        <time>2020-05-31T09:49:57.000Z</time>
      </trkpt>
      <trkpt lat="47.87826" lon="7.1754">
        <ele>522.79998779297</ele>
        <time>2020-05-31T09:49:58.000Z</time>
      </trkpt>
      <trkpt lat="47.87827" lon="7.17543">
        <ele>522.79998779297</ele>
        <time>2020-05-31T09:49:59.000Z</time>
      </trkpt>
      <trkpt lat="47.87823" lon="7.17549">
        <ele>522.79998779297</ele>
        <time>2020-05-31T09:50:02.000Z</time>
      </trkpt>
      <trkpt lat="47.87816" lon="7.17549">
        <ele>522.40002441406</ele>
        <time>2020-05-31T09:50:05.000Z</time>
      </trkpt>
      <trkpt lat="47.87814" lon="7.17552">
        <ele>522</ele>
        <time>2020-05-31T09:50:06.000Z</time>
      </trkpt>
      <trkpt lat="47.87812" lon="7.17556">
        <ele>521.59997558594</ele>
        <time>2020-05-31T09:50:07.000Z</time>
      </trkpt>
      <trkpt lat="47.8781" lon="7.17564">
        <ele>520.79998779297</ele>
        <time>2020-05-31T09:50:08.000Z</time>
      </trkpt>
      <trkpt lat="47.8781" lon="7.17569">
        <ele>520.20001220703</ele>
        <time>2020-05-31T09:50:09.000Z</time>
      </trkpt>
      <trkpt lat="47.87811" lon="7.17573">
        <ele>519.59997558594</ele>
        <time>2020-05-31T09:50:10.000Z</time>
      </trkpt>
      <trkpt lat="47.87813" lon="7.17578">
        <ele>519</ele>
        <time>2020-05-31T09:50:11.000Z</time>
      </trkpt>
      <trkpt lat="47.87814" lon="7.17585">
        <ele>518.40002441406</ele>
        <time>2020-05-31T09:50:12.000Z</time>
      </trkpt>
      <trkpt lat="47.87819" lon="7.17593">
        <ele>518.40002441406</ele>
        <time>2020-05-31T09:50:14.000Z</time>
      </trkpt>
      <trkpt lat="47.87819" lon="7.17602">
        <ele>518.40002441406</ele>
        <time>2020-05-31T09:50:16.000Z</time>
      </trkpt>
      <trkpt lat="47.87816" lon="7.17621">
        <ele>518.40002441406</ele>
        <time>2020-05-31T09:50:19.000Z</time>
      </trkpt>
      <trkpt lat="47.87817" lon="7.17628">
        <ele>518.40002441406</ele>
        <time>2020-05-31T09:50:20.000Z</time>
      </trkpt>
      <trkpt lat="47.87818" lon="7.17634">
        <ele>518</ele>
        <time>2020-05-31T09:50:21.000Z</time>
      </trkpt>
      <trkpt lat="47.87818" lon="7.17641">
        <ele>517.59997558594</ele>
        <time>2020-05-31T09:50:22.000Z</time>
      </trkpt>
      <trkpt lat="47.87818" lon="7.17649">
        <ele>517.20001220703</ele>
        <time>2020-05-31T09:50:23.000Z</time>
      </trkpt>
      <trkpt lat="47.87819" lon="7.17655">
        <ele>516.79998779297</ele>
        <time>2020-05-31T09:50:24.000Z</time>
      </trkpt>
      <trkpt lat="47.87822" lon="7.1766">
        <ele>516.40002441406</ele>
        <time>2020-05-31T09:50:25.000Z</time>
      </trkpt>
      <trkpt lat="47.87824" lon="7.17667">
        <ele>515.79998779297</ele>
        <time>2020-05-31T09:50:26.000Z</time>
      </trkpt>
      <trkpt lat="47.87826" lon="7.17675">
        <ele>515.20001220703</ele>
        <time>2020-05-31T09:50:27.000Z</time>
      </trkpt>
      <trkpt lat="47.87827" lon="7.17683">
        <ele>514.59997558594</ele>
        <time>2020-05-31T09:50:28.000Z</time>
      </trkpt>
      <trkpt lat="47.87827" lon="7.17687">
        <ele>514.20001220703</ele>
        <time>2020-05-31T09:50:29.000Z</time>
      </trkpt>
      <trkpt lat="47.87826" lon="7.17689">
        <ele>513.59997558594</ele>
        <time>2020-05-31T09:50:30.000Z</time>
      </trkpt>
      <trkpt lat="47.87825" lon="7.1769">
        <ele>513.20001220703</ele>
        <time>2020-05-31T09:50:31.000Z</time>
      </trkpt>
      <trkpt lat="47.87822" lon="7.17689">
        <ele>512.79998779297</ele>
        <time>2020-05-31T09:50:32.000Z</time>
      </trkpt>
      <trkpt lat="47.87819" lon="7.17687">
        <ele>512.40002441406</ele>
        <time>2020-05-31T09:50:33.000Z</time>
      </trkpt>
      <trkpt lat="47.87817" lon="7.17683">
        <ele>511.60000610352</ele>
        <time>2020-05-31T09:50:34.000Z</time>
      </trkpt>
      <trkpt lat="47.87814" lon="7.1768">
        <ele>511</ele>
        <time>2020-05-31T09:50:35.000Z</time>
      </trkpt>
      <trkpt lat="47.87812" lon="7.1768">
        <ele>510.39999389648</ele>
        <time>2020-05-31T09:50:36.000Z</time>
      </trkpt>
      <trkpt lat="47.87809" lon="7.17682">
        <ele>509.60000610352</ele>
        <time>2020-05-31T09:50:37.000Z</time>
      </trkpt>
      <trkpt lat="47.87806" lon="7.17684">
        <ele>509</ele>
        <time>2020-05-31T09:50:38.000Z</time>
      </trkpt>
      <trkpt lat="47.87804" lon="7.17687">
        <ele>508.39999389648</ele>
        <time>2020-05-31T09:50:39.000Z</time>
      </trkpt>
      <trkpt lat="47.87802" lon="7.17691">
        <ele>507.60000610352</ele>
        <time>2020-05-31T09:50:40.000Z</time>
      </trkpt>
      <trkpt lat="47.87798" lon="7.17696">
        <ele>506.20001220703</ele>
        <time>2020-05-31T09:50:41.000Z</time>
      </trkpt>
      <trkpt lat="47.87795" lon="7.17702">
        <ele>505.39999389648</ele>
        <time>2020-05-31T09:50:42.000Z</time>
      </trkpt>
      <trkpt lat="47.87793" lon="7.17708">
        <ele>504.60000610352</ele>
        <time>2020-05-31T09:50:43.000Z</time>
      </trkpt>
      <trkpt lat="47.87789" lon="7.17714">
        <ele>503.79998779297</ele>
        <time>2020-05-31T09:50:44.000Z</time>
      </trkpt>
      <trkpt lat="47.87787" lon="7.17721">
        <ele>503</ele>
        <time>2020-05-31T09:50:45.000Z</time>
      </trkpt>
      <trkpt lat="47.87787" lon="7.17728">
        <ele>502.20001220703</ele>
        <time>2020-05-31T09:50:46.000Z</time>
      </trkpt>
      <trkpt lat="47.87788" lon="7.17739">
        <ele>502.20001220703</ele>
        <time>2020-05-31T09:50:47.000Z</time>
      </trkpt>
      <trkpt lat="47.87791" lon="7.17749">
        <ele>501.79998779297</ele>
        <time>2020-05-31T09:50:48.000Z</time>
      </trkpt>
      <trkpt lat="47.87794" lon="7.17761">
        <ele>501.39999389648</ele>
        <time>2020-05-31T09:50:49.000Z</time>
      </trkpt>
      <trkpt lat="47.87795" lon="7.17769">
        <ele>501</ele>
        <time>2020-05-31T09:50:50.000Z</time>
      </trkpt>
      <trkpt lat="47.87798" lon="7.17779">
        <ele>500.60000610352</ele>
        <time>2020-05-31T09:50:51.000Z</time>
      </trkpt>
      <trkpt lat="47.878" lon="7.17789">
        <ele>500</ele>
        <time>2020-05-31T09:50:52.000Z</time>
      </trkpt>
      <trkpt lat="47.87801" lon="7.17796">
        <ele>499.60000610352</ele>
        <time>2020-05-31T09:50:53.000Z</time>
      </trkpt>
      <trkpt lat="47.87802" lon="7.17802">
        <ele>499</ele>
        <time>2020-05-31T09:50:54.000Z</time>
      </trkpt>
      <trkpt lat="47.87803" lon="7.17809">
        <ele>498.20001220703</ele>
        <time>2020-05-31T09:50:55.000Z</time>
      </trkpt>
      <trkpt lat="47.87804" lon="7.17816">
        <ele>497.39999389648</ele>
        <time>2020-05-31T09:50:56.000Z</time>
      </trkpt>
      <trkpt lat="47.87805" lon="7.17823">
        <ele>496.79998779297</ele>
        <time>2020-05-31T09:50:57.000Z</time>
      </trkpt>
      <trkpt lat="47.87806" lon="7.17833">
        <ele>496</ele>
        <time>2020-05-31T09:50:58.000Z</time>
      </trkpt>
      <trkpt lat="47.87809" lon="7.17843">
        <ele>495.20001220703</ele>
        <time>2020-05-31T09:50:59.000Z</time>
      </trkpt>
      <trkpt lat="47.87813" lon="7.17855">
        <ele>494.79998779297</ele>
        <time>2020-05-31T09:51:00.000Z</time>
      </trkpt>
      <trkpt lat="47.87816" lon="7.17865">
        <ele>494.20001220703</ele>
        <time>2020-05-31T09:51:01.000Z</time>
      </trkpt>
      <trkpt lat="47.87817" lon="7.17877">
        <ele>493.79998779297</ele>
        <time>2020-05-31T09:51:02.000Z</time>
      </trkpt>
      <trkpt lat="47.87818" lon="7.17887">
        <ele>493.20001220703</ele>
        <time>2020-05-31T09:51:03.000Z</time>
      </trkpt>
      <trkpt lat="47.87819" lon="7.17897">
        <ele>492.60000610352</ele>
        <time>2020-05-31T09:51:04.000Z</time>
      </trkpt>
      <trkpt lat="47.87819" lon="7.17905">
        <ele>492</ele>
        <time>2020-05-31T09:51:05.000Z</time>
      </trkpt>
      <trkpt lat="47.87819" lon="7.17911">
        <ele>490.79998779297</ele>
        <time>2020-05-31T09:51:06.000Z</time>
      </trkpt>
      <trkpt lat="47.87818" lon="7.17915">
        <ele>490.79998779297</ele>
        <time>2020-05-31T09:51:07.000Z</time>
      </trkpt>
      <trkpt lat="47.87817" lon="7.17921">
        <ele>490.39999389648</ele>
        <time>2020-05-31T09:51:08.000Z</time>
      </trkpt>
      <trkpt lat="47.87814" lon="7.17924">
        <ele>490</ele>
        <time>2020-05-31T09:51:09.000Z</time>
      </trkpt>
      <trkpt lat="47.8781" lon="7.17929">
        <ele>489.60000610352</ele>
        <time>2020-05-31T09:51:10.000Z</time>
      </trkpt>
      <trkpt lat="47.87806" lon="7.17933">
        <ele>489.20001220703</ele>
        <time>2020-05-31T09:51:11.000Z</time>
      </trkpt>
      <trkpt lat="47.87803" lon="7.17937">
        <ele>488.60000610352</ele>
        <time>2020-05-31T09:51:12.000Z</time>
      </trkpt>
      <trkpt lat="47.87802" lon="7.17945">
        <ele>488.20001220703</ele>
        <time>2020-05-31T09:51:13.000Z</time>
      </trkpt>
      <trkpt lat="47.87801" lon="7.17953">
        <ele>487.79998779297</ele>
        <time>2020-05-31T09:51:14.000Z</time>
      </trkpt>
      <trkpt lat="47.878" lon="7.17961">
        <ele>487</ele>
        <time>2020-05-31T09:51:15.000Z</time>
      </trkpt>
      <trkpt lat="47.87799" lon="7.17968">
        <ele>486.20001220703</ele>
        <time>2020-05-31T09:51:16.000Z</time>
      </trkpt>
      <trkpt lat="47.87802" lon="7.17974">
        <ele>485.39999389648</ele>
        <time>2020-05-31T09:51:17.000Z</time>
      </trkpt>
      <trkpt lat="47.87803" lon="7.17981">
        <ele>484.60000610352</ele>
        <time>2020-05-31T09:51:18.000Z</time>
      </trkpt>
      <trkpt lat="47.87804" lon="7.17988">
        <ele>483.79998779297</ele>
        <time>2020-05-31T09:51:19.000Z</time>
      </trkpt>
      <trkpt lat="47.87806" lon="7.17995">
        <ele>483.39999389648</ele>
        <time>2020-05-31T09:51:20.000Z</time>
      </trkpt>
      <trkpt lat="47.87808" lon="7.18004">
        <ele>483</ele>
        <time>2020-05-31T09:51:21.000Z</time>
      </trkpt>
      <trkpt lat="47.87811" lon="7.18011">
        <ele>482.60000610352</ele>
        <time>2020-05-31T09:51:22.000Z</time>
      </trkpt>
      <trkpt lat="47.87814" lon="7.18017">
        <ele>482</ele>
        <time>2020-05-31T09:51:23.000Z</time>
      </trkpt>
      <trkpt lat="47.87815" lon="7.18024">
        <ele>481.60000610352</ele>
        <time>2020-05-31T09:51:24.000Z</time>
      </trkpt>
      <trkpt lat="47.87815" lon="7.1803">
        <ele>481.20001220703</ele>
        <time>2020-05-31T09:51:25.000Z</time>
      </trkpt>
      <trkpt lat="47.87813" lon="7.18035">
        <ele>480.79998779297</ele>
        <time>2020-05-31T09:51:26.000Z</time>
      </trkpt>
      <trkpt lat="47.87811" lon="7.18041">
        <ele>480.39999389648</ele>
        <time>2020-05-31T09:51:27.000Z</time>
      </trkpt>
      <trkpt lat="47.8781" lon="7.18046">
        <ele>480</ele>
        <time>2020-05-31T09:51:28.000Z</time>
      </trkpt>
      <trkpt lat="47.87813" lon="7.18051">
        <ele>479.60000610352</ele>
        <time>2020-05-31T09:51:29.000Z</time>
      </trkpt>
      <trkpt lat="47.87816" lon="7.18056">
        <ele>478.60000610352</ele>
        <time>2020-05-31T09:51:30.000Z</time>
      </trkpt>
      <trkpt lat="47.87818" lon="7.18061">
        <ele>478.20001220703</ele>
        <time>2020-05-31T09:51:31.000Z</time>
      </trkpt>
      <trkpt lat="47.87819" lon="7.18067">
        <ele>477.60000610352</ele>
        <time>2020-05-31T09:51:32.000Z</time>
      </trkpt>
      <trkpt lat="47.8782" lon="7.18074">
        <ele>477.20001220703</ele>
        <time>2020-05-31T09:51:33.000Z</time>
      </trkpt>
      <trkpt lat="47.8782" lon="7.18091">
        <ele>477.20001220703</ele>
        <time>2020-05-31T09:51:35.000Z</time>
      </trkpt>
      <trkpt lat="47.87819" lon="7.18099">
        <ele>476.79998779297</ele>
        <time>2020-05-31T09:51:36.000Z</time>
      </trkpt>
      <trkpt lat="47.87817" lon="7.18108">
        <ele>476.39999389648</ele>
        <time>2020-05-31T09:51:37.000Z</time>
      </trkpt>
      <trkpt lat="47.87815" lon="7.18114">
        <ele>476</ele>
        <time>2020-05-31T09:51:38.000Z</time>
      </trkpt>
      <trkpt lat="47.87813" lon="7.18118">
        <ele>475.60000610352</ele>
        <time>2020-05-31T09:51:39.000Z</time>
      </trkpt>
      <trkpt lat="47.87812" lon="7.18119">
        <ele>475.20001220703</ele>
        <time>2020-05-31T09:51:40.000Z</time>
      </trkpt>
      <trkpt lat="47.8781" lon="7.18121">
        <ele>475.20001220703</ele>
        <time>2020-05-31T09:51:41.000Z</time>
      </trkpt>
      <trkpt lat="47.8781" lon="7.18122">
        <ele>475.20001220703</ele>
        <time>2020-05-31T09:51:42.000Z</time>
      </trkpt>
      <trkpt lat="47.87807" lon="7.18126">
        <ele>475.20001220703</ele>
        <time>2020-05-31T09:51:47.000Z</time>
      </trkpt>
      <trkpt lat="47.87805" lon="7.18127">
        <ele>474.79998779297</ele>
        <time>2020-05-31T09:51:48.000Z</time>
      </trkpt>
      <trkpt lat="47.87804" lon="7.18131">
        <ele>474.39999389648</ele>
        <time>2020-05-31T09:51:49.000Z</time>
      </trkpt>
      <trkpt lat="47.87803" lon="7.18135">
        <ele>473.79998779297</ele>
        <time>2020-05-31T09:51:50.000Z</time>
      </trkpt>
      <trkpt lat="47.87802" lon="7.18138">
        <ele>473.39999389648</ele>
        <time>2020-05-31T09:51:51.000Z</time>
      </trkpt>
      <trkpt lat="47.87801" lon="7.18142">
        <ele>473</ele>
        <time>2020-05-31T09:51:52.000Z</time>
      </trkpt>
      <trkpt lat="47.87802" lon="7.1815">
        <ele>473</ele>
        <time>2020-05-31T09:51:56.000Z</time>
      </trkpt>
      <trkpt lat="47.87801" lon="7.18172">
        <ele>473</ele>
        <time>2020-05-31T09:52:02.000Z</time>
      </trkpt>
      <trkpt lat="47.87805" lon="7.18197">
        <ele>473</ele>
        <time>2020-05-31T09:52:07.000Z</time>
      </trkpt>
      <trkpt lat="47.87812" lon="7.18226">
        <ele>473</ele>
        <time>2020-05-31T09:52:12.000Z</time>
      </trkpt>
      <trkpt lat="47.87819" lon="7.18245">
        <ele>473</ele>
        <time>2020-05-31T09:52:16.000Z</time>
      </trkpt>
      <trkpt lat="47.87818" lon="7.18254">
        <ele>472.60000610352</ele>
        <time>2020-05-31T09:52:18.000Z</time>
      </trkpt>
      <trkpt lat="47.87816" lon="7.18256">
        <ele>472.20001220703</ele>
        <time>2020-05-31T09:52:19.000Z</time>
      </trkpt>
      <trkpt lat="47.87815" lon="7.18258">
        <ele>471.39999389648</ele>
        <time>2020-05-31T09:52:20.000Z</time>
      </trkpt>
      <trkpt lat="47.87813" lon="7.1826">
        <ele>471</ele>
        <time>2020-05-31T09:52:21.000Z</time>
      </trkpt>
      <trkpt lat="47.87807" lon="7.1827">
        <ele>471.39999389648</ele>
        <time>2020-05-31T09:52:25.000Z</time>
      </trkpt>
      <trkpt lat="47.87805" lon="7.18272">
        <ele>472</ele>
        <time>2020-05-31T09:52:26.000Z</time>
      </trkpt>
      <trkpt lat="47.87803" lon="7.18276">
        <ele>472.39999389648</ele>
        <time>2020-05-31T09:52:27.000Z</time>
      </trkpt>
      <trkpt lat="47.87801" lon="7.18281">
        <ele>473</ele>
        <time>2020-05-31T09:52:28.000Z</time>
      </trkpt>
      <trkpt lat="47.87801" lon="7.18284">
        <ele>473.39999389648</ele>
        <time>2020-05-31T09:52:29.000Z</time>
      </trkpt>
      <trkpt lat="47.87798" lon="7.18299">
        <ele>473.39999389648</ele>
        <time>2020-05-31T09:52:32.000Z</time>
      </trkpt>
      <trkpt lat="47.87796" lon="7.18308">
        <ele>473.79998779297</ele>
        <time>2020-05-31T09:52:34.000Z</time>
      </trkpt>
      <trkpt lat="47.87795" lon="7.18312">
        <ele>474.20001220703</ele>
        <time>2020-05-31T09:52:35.000Z</time>
      </trkpt>
      <trkpt lat="47.87794" lon="7.18317">
        <ele>474.60000610352</ele>
        <time>2020-05-31T09:52:36.000Z</time>
      </trkpt>
      <trkpt lat="47.87794" lon="7.18321">
        <ele>475.20001220703</ele>
        <time>2020-05-31T09:52:37.000Z</time>
      </trkpt>
      <trkpt lat="47.87793" lon="7.18326">
        <ele>475.60000610352</ele>
        <time>2020-05-31T09:52:38.000Z</time>
      </trkpt>
      <trkpt lat="47.8779" lon="7.18343">
        <ele>475.60000610352</ele>
        <time>2020-05-31T09:52:40.000Z</time>
      </trkpt>
      <trkpt lat="47.87788" lon="7.18347">
        <ele>475.60000610352</ele>
        <time>2020-05-31T09:52:41.000Z</time>
      </trkpt>
      <trkpt lat="47.87782" lon="7.18346">
        <ele>475.60000610352</ele>
        <time>2020-05-31T09:52:43.000Z</time>
      </trkpt>
      <trkpt lat="47.8778" lon="7.18345">
        <ele>475</ele>
        <time>2020-05-31T09:52:44.000Z</time>
      </trkpt>
      <trkpt lat="47.87777" lon="7.18349">
        <ele>474.20001220703</ele>
        <time>2020-05-31T09:52:45.000Z</time>
      </trkpt>
      <trkpt lat="47.87775" lon="7.18355">
        <ele>473.60000610352</ele>
        <time>2020-05-31T09:52:46.000Z</time>
      </trkpt>
      <trkpt lat="47.87773" lon="7.18365">
        <ele>473.20001220703</ele>
        <time>2020-05-31T09:52:47.000Z</time>
      </trkpt>
      <trkpt lat="47.87772" lon="7.18372">
        <ele>472.60000610352</ele>
        <time>2020-05-31T09:52:48.000Z</time>
      </trkpt>
      <trkpt lat="47.87771" lon="7.18379">
        <ele>472</ele>
        <time>2020-05-31T09:52:49.000Z</time>
      </trkpt>
      <trkpt lat="47.87769" lon="7.18381">
        <ele>471.39999389648</ele>
        <time>2020-05-31T09:52:50.000Z</time>
      </trkpt>
      <trkpt lat="47.87767" lon="7.18382">
        <ele>471</ele>
        <time>2020-05-31T09:52:51.000Z</time>
      </trkpt>
      <trkpt lat="47.87764" lon="7.18383">
        <ele>470.39999389648</ele>
        <time>2020-05-31T09:52:52.000Z</time>
      </trkpt>
      <trkpt lat="47.8776" lon="7.18387">
        <ele>469.79998779297</ele>
        <time>2020-05-31T09:52:53.000Z</time>
      </trkpt>
      <trkpt lat="47.87757" lon="7.18393">
        <ele>469.20001220703</ele>
        <time>2020-05-31T09:52:54.000Z</time>
      </trkpt>
      <trkpt lat="47.87754" lon="7.184">
        <ele>468.60000610352</ele>
        <time>2020-05-31T09:52:55.000Z</time>
      </trkpt>
      <trkpt lat="47.87752" lon="7.18407">
        <ele>468</ele>
        <time>2020-05-31T09:52:56.000Z</time>
      </trkpt>
      <trkpt lat="47.8775" lon="7.18413">
        <ele>467.39999389648</ele>
        <time>2020-05-31T09:52:57.000Z</time>
      </trkpt>
      <trkpt lat="47.87751" lon="7.1842">
        <ele>466.79998779297</ele>
        <time>2020-05-31T09:52:58.000Z</time>
      </trkpt>
      <trkpt lat="47.87751" lon="7.18423">
        <ele>466</ele>
        <time>2020-05-31T09:52:59.000Z</time>
      </trkpt>
      <trkpt lat="47.8775" lon="7.18425">
        <ele>465.20001220703</ele>
        <time>2020-05-31T09:53:00.000Z</time>
      </trkpt>
      <trkpt lat="47.87747" lon="7.18427">
        <ele>464.39999389648</ele>
        <time>2020-05-31T09:53:01.000Z</time>
      </trkpt>
      <trkpt lat="47.87744" lon="7.18431">
        <ele>463.79998779297</ele>
        <time>2020-05-31T09:53:02.000Z</time>
      </trkpt>
      <trkpt lat="47.87744" lon="7.18434">
        <ele>463</ele>
        <time>2020-05-31T09:53:03.000Z</time>
      </trkpt>
      <trkpt lat="47.87743" lon="7.18438">
        <ele>462</ele>
        <time>2020-05-31T09:53:04.000Z</time>
      </trkpt>
      <trkpt lat="47.87741" lon="7.18445">
        <ele>461.20001220703</ele>
        <time>2020-05-31T09:53:05.000Z</time>
      </trkpt>
      <trkpt lat="47.87741" lon="7.18451">
        <ele>460.39999389648</ele>
        <time>2020-05-31T09:53:06.000Z</time>
      </trkpt>
      <trkpt lat="47.87739" lon="7.18457">
        <ele>459.60000610352</ele>
        <time>2020-05-31T09:53:07.000Z</time>
      </trkpt>
      <trkpt lat="47.87737" lon="7.18462">
        <ele>458.79998779297</ele>
        <time>2020-05-31T09:53:08.000Z</time>
      </trkpt>
      <trkpt lat="47.87734" lon="7.18464">
        <ele>457.20001220703</ele>
        <time>2020-05-31T09:53:09.000Z</time>
      </trkpt>
      <trkpt lat="47.8773" lon="7.18465">
        <ele>456.39999389648</ele>
        <time>2020-05-31T09:53:10.000Z</time>
      </trkpt>
      <trkpt lat="47.87727" lon="7.18467">
        <ele>456</ele>
        <time>2020-05-31T09:53:11.000Z</time>
      </trkpt>
      <trkpt lat="47.87723" lon="7.1847">
        <ele>455.60000610352</ele>
        <time>2020-05-31T09:53:12.000Z</time>
      </trkpt>
      <trkpt lat="47.87719" lon="7.18475">
        <ele>455.20001220703</ele>
        <time>2020-05-31T09:53:13.000Z</time>
      </trkpt>
      <trkpt lat="47.87716" lon="7.1848">
        <ele>454.79998779297</ele>
        <time>2020-05-31T09:53:14.000Z</time>
      </trkpt>
      <trkpt lat="47.87713" lon="7.18487">
        <ele>454.39999389648</ele>
        <time>2020-05-31T09:53:15.000Z</time>
      </trkpt>
      <trkpt lat="47.87709" lon="7.18501">
        <ele>454.39999389648</ele>
        <time>2020-05-31T09:53:17.000Z</time>
      </trkpt>
      <trkpt lat="47.87708" lon="7.18514">
        <ele>454.39999389648</ele>
        <time>2020-05-31T09:53:19.000Z</time>
      </trkpt>
      <trkpt lat="47.87708" lon="7.18522">
        <ele>454</ele>
        <time>2020-05-31T09:53:20.000Z</time>
      </trkpt>
      <trkpt lat="47.87709" lon="7.18529">
        <ele>453.39999389648</ele>
        <time>2020-05-31T09:53:21.000Z</time>
      </trkpt>
      <trkpt lat="47.87707" lon="7.18536">
        <ele>453</ele>
        <time>2020-05-31T09:53:22.000Z</time>
      </trkpt>
      <trkpt lat="47.87705" lon="7.1854">
        <ele>452.39999389648</ele>
        <time>2020-05-31T09:53:23.000Z</time>
      </trkpt>
      <trkpt lat="47.87702" lon="7.18543">
        <ele>451.79998779297</ele>
        <time>2020-05-31T09:53:24.000Z</time>
      </trkpt>
      <trkpt lat="47.87698" lon="7.18546">
        <ele>451.39999389648</ele>
        <time>2020-05-31T09:53:25.000Z</time>
      </trkpt>
      <trkpt lat="47.87696" lon="7.1855">
        <ele>450.79998779297</ele>
        <time>2020-05-31T09:53:26.000Z</time>
      </trkpt>
      <trkpt lat="47.87694" lon="7.18556">
        <ele>450</ele>
        <time>2020-05-31T09:53:27.000Z</time>
      </trkpt>
      <trkpt lat="47.87691" lon="7.18561">
        <ele>449.20001220703</ele>
        <time>2020-05-31T09:53:28.000Z</time>
      </trkpt>
      <trkpt lat="47.87688" lon="7.18566">
        <ele>448.39999389648</ele>
        <time>2020-05-31T09:53:29.000Z</time>
      </trkpt>
      <trkpt lat="47.87684" lon="7.18567">
        <ele>447.60000610352</ele>
        <time>2020-05-31T09:53:30.000Z</time>
      </trkpt>
      <trkpt lat="47.8768" lon="7.18566">
        <ele>446.79998779297</ele>
        <time>2020-05-31T09:53:31.000Z</time>
      </trkpt>
      <trkpt lat="47.87677" lon="7.18565">
        <ele>446</ele>
        <time>2020-05-31T09:53:32.000Z</time>
      </trkpt>
      <trkpt lat="47.87674" lon="7.18565">
        <ele>445.20001220703</ele>
        <time>2020-05-31T09:53:33.000Z</time>
      </trkpt>
      <trkpt lat="47.87671" lon="7.18562">
        <ele>444.39999389648</ele>
        <time>2020-05-31T09:53:34.000Z</time>
      </trkpt>
      <trkpt lat="47.87666" lon="7.18556">
        <ele>444</ele>
        <time>2020-05-31T09:53:36.000Z</time>
      </trkpt>
      <trkpt lat="47.87664" lon="7.18555">
        <ele>443.60000610352</ele>
        <time>2020-05-31T09:53:37.000Z</time>
      </trkpt>
      <trkpt lat="47.87662" lon="7.18556">
        <ele>443.20001220703</ele>
        <time>2020-05-31T09:53:38.000Z</time>
      </trkpt>
      <trkpt lat="47.87659" lon="7.18562">
        <ele>442.39999389648</ele>
        <time>2020-05-31T09:53:39.000Z</time>
      </trkpt>
      <trkpt lat="47.87657" lon="7.18566">
        <ele>441.79998779297</ele>
        <time>2020-05-31T09:53:40.000Z</time>
      </trkpt>
      <trkpt lat="47.87657" lon="7.18571">
        <ele>441</ele>
        <time>2020-05-31T09:53:41.000Z</time>
      </trkpt>
      <trkpt lat="47.87657" lon="7.18578">
        <ele>440.39999389648</ele>
        <time>2020-05-31T09:53:42.000Z</time>
      </trkpt>
      <trkpt lat="47.87657" lon="7.18586">
        <ele>439.79998779297</ele>
        <time>2020-05-31T09:53:43.000Z</time>
      </trkpt>
      <trkpt lat="47.87657" lon="7.18594">
        <ele>439</ele>
        <time>2020-05-31T09:53:44.000Z</time>
      </trkpt>
      <trkpt lat="47.87657" lon="7.18601">
        <ele>438.20001220703</ele>
        <time>2020-05-31T09:53:45.000Z</time>
      </trkpt>
      <trkpt lat="47.87659" lon="7.18611">
        <ele>437.20001220703</ele>
        <time>2020-05-31T09:53:46.000Z</time>
      </trkpt>
      <trkpt lat="47.87659" lon="7.18621">
        <ele>436.39999389648</ele>
        <time>2020-05-31T09:53:47.000Z</time>
      </trkpt>
      <trkpt lat="47.8766" lon="7.18627">
        <ele>435.60000610352</ele>
        <time>2020-05-31T09:53:48.000Z</time>
      </trkpt>
      <trkpt lat="47.87659" lon="7.1863">
        <ele>434.60000610352</ele>
        <time>2020-05-31T09:53:49.000Z</time>
      </trkpt>
      <trkpt lat="47.87659" lon="7.18628">
        <ele>433.79998779297</ele>
        <time>2020-05-31T09:53:50.000Z</time>
      </trkpt>
      <trkpt lat="47.87659" lon="7.18629">
        <ele>433</ele>
        <time>2020-05-31T09:53:51.000Z</time>
      </trkpt>
      <trkpt lat="47.8766" lon="7.18635">
        <ele>430.60000610352</ele>
        <time>2020-05-31T09:53:56.000Z</time>
      </trkpt>
      <trkpt lat="47.87664" lon="7.18641">
        <ele>430</ele>
        <time>2020-05-31T09:53:57.000Z</time>
      </trkpt>
      <trkpt lat="47.87667" lon="7.18649">
        <ele>429.39999389648</ele>
        <time>2020-05-31T09:53:58.000Z</time>
      </trkpt>
      <trkpt lat="47.8767" lon="7.18656">
        <ele>428.20001220703</ele>
        <time>2020-05-31T09:53:59.000Z</time>
      </trkpt>
      <trkpt lat="47.87671" lon="7.18663">
        <ele>427.39999389648</ele>
        <time>2020-05-31T09:54:00.000Z</time>
      </trkpt>
      <trkpt lat="47.87671" lon="7.18669">
        <ele>426.60000610352</ele>
        <time>2020-05-31T09:54:01.000Z</time>
      </trkpt>
      <trkpt lat="47.87672" lon="7.18671">
        <ele>425.79998779297</ele>
        <time>2020-05-31T09:54:02.000Z</time>
      </trkpt>
      <trkpt lat="47.87674" lon="7.18674">
        <ele>425.20001220703</ele>
        <time>2020-05-31T09:54:03.000Z</time>
      </trkpt>
      <trkpt lat="47.87674" lon="7.1868">
        <ele>424.60000610352</ele>
        <time>2020-05-31T09:54:04.000Z</time>
      </trkpt>
      <trkpt lat="47.87674" lon="7.18687">
        <ele>424</ele>
        <time>2020-05-31T09:54:05.000Z</time>
      </trkpt>
      <trkpt lat="47.87674" lon="7.18696">
        <ele>423.39999389648</ele>
        <time>2020-05-31T09:54:06.000Z</time>
      </trkpt>
      <trkpt lat="47.87674" lon="7.18704">
        <ele>422.60000610352</ele>
        <time>2020-05-31T09:54:07.000Z</time>
      </trkpt>
      <trkpt lat="47.87676" lon="7.18711">
        <ele>422</ele>
        <time>2020-05-31T09:54:08.000Z</time>
      </trkpt>
      <trkpt lat="47.87679" lon="7.18715">
        <ele>421.20001220703</ele>
        <time>2020-05-31T09:54:09.000Z</time>
      </trkpt>
      <trkpt lat="47.87682" lon="7.1872">
        <ele>420.60000610352</ele>
        <time>2020-05-31T09:54:10.000Z</time>
      </trkpt>
      <trkpt lat="47.87687" lon="7.18725">
        <ele>419.79998779297</ele>
        <time>2020-05-31T09:54:11.000Z</time>
      </trkpt>
      <trkpt lat="47.87691" lon="7.18731">
        <ele>419</ele>
        <time>2020-05-31T09:54:12.000Z</time>
      </trkpt>
      <trkpt lat="47.87693" lon="7.18736">
        <ele>418.20001220703</ele>
        <time>2020-05-31T09:54:13.000Z</time>
      </trkpt>
      <trkpt lat="47.87694" lon="7.18741">
        <ele>417.60000610352</ele>
        <time>2020-05-31T09:54:14.000Z</time>
      </trkpt>
      <trkpt lat="47.87693" lon="7.18746">
        <ele>416.79998779297</ele>
        <time>2020-05-31T09:54:15.000Z</time>
      </trkpt>
      <trkpt lat="47.87692" lon="7.1875">
        <ele>416</ele>
        <time>2020-05-31T09:54:16.000Z</time>
      </trkpt>
      <trkpt lat="47.87689" lon="7.18753">
        <ele>415.20001220703</ele>
        <time>2020-05-31T09:54:17.000Z</time>
      </trkpt>
      <trkpt lat="47.87689" lon="7.18755">
        <ele>415.20001220703</ele>
        <time>2020-05-31T09:54:18.000Z</time>
      </trkpt>
      <trkpt lat="47.87687" lon="7.18756">
        <ele>415.20001220703</ele>
        <time>2020-05-31T09:54:19.000Z</time>
      </trkpt>
      <trkpt lat="47.87685" lon="7.18759">
        <ele>415.20001220703</ele>
        <time>2020-05-31T09:54:21.000Z</time>
      </trkpt>
      <trkpt lat="47.87678" lon="7.18761">
        <ele>415.20001220703</ele>
        <time>2020-05-31T09:54:28.000Z</time>
      </trkpt>
      <trkpt lat="47.87682" lon="7.1877">
        <ele>414.60000610352</ele>
        <time>2020-05-31T09:54:48.000Z</time>
      </trkpt>
      <trkpt lat="47.87684" lon="7.1877">
        <ele>414.20001220703</ele>
        <time>2020-05-31T09:54:49.000Z</time>
      </trkpt>
      <trkpt lat="47.87686" lon="7.1877">
        <ele>413.79998779297</ele>
        <time>2020-05-31T09:54:50.000Z</time>
      </trkpt>
      <trkpt lat="47.87688" lon="7.18775">
        <ele>413.39999389648</ele>
        <time>2020-05-31T09:54:51.000Z</time>
      </trkpt>
      <trkpt lat="47.87689" lon="7.18778">
        <ele>413</ele>
        <time>2020-05-31T09:54:52.000Z</time>
      </trkpt>
      <trkpt lat="47.87693" lon="7.18788">
        <ele>413</ele>
        <time>2020-05-31T09:54:55.000Z</time>
      </trkpt>
      <trkpt lat="47.87694" lon="7.18791">
        <ele>412.39999389648</ele>
        <time>2020-05-31T09:54:56.000Z</time>
      </trkpt>
      <trkpt lat="47.87696" lon="7.18796">
        <ele>412</ele>
        <time>2020-05-31T09:54:57.000Z</time>
      </trkpt>
      <trkpt lat="47.877" lon="7.18803">
        <ele>411.39999389648</ele>
        <time>2020-05-31T09:54:58.000Z</time>
      </trkpt>
      <trkpt lat="47.87702" lon="7.18812">
        <ele>410.79998779297</ele>
        <time>2020-05-31T09:54:59.000Z</time>
      </trkpt>
      <trkpt lat="47.87704" lon="7.18821">
        <ele>410.20001220703</ele>
        <time>2020-05-31T09:55:00.000Z</time>
      </trkpt>
      <trkpt lat="47.87705" lon="7.18831">
        <ele>409.60000610352</ele>
        <time>2020-05-31T09:55:01.000Z</time>
      </trkpt>
      <trkpt lat="47.87706" lon="7.1884">
        <ele>409</ele>
        <time>2020-05-31T09:55:02.000Z</time>
      </trkpt>
      <trkpt lat="47.87707" lon="7.18847">
        <ele>408.39999389648</ele>
        <time>2020-05-31T09:55:03.000Z</time>
      </trkpt>
      <trkpt lat="47.87708" lon="7.18851">
        <ele>407.79998779297</ele>
        <time>2020-05-31T09:55:04.000Z</time>
      </trkpt>
      <trkpt lat="47.87709" lon="7.18854">
        <ele>407.20001220703</ele>
        <time>2020-05-31T09:55:05.000Z</time>
      </trkpt>
      <trkpt lat="47.87712" lon="7.18855">
        <ele>406.60000610352</ele>
        <time>2020-05-31T09:55:06.000Z</time>
      </trkpt>
      <trkpt lat="47.87715" lon="7.18855">
        <ele>406</ele>
        <time>2020-05-31T09:55:07.000Z</time>
      </trkpt>
      <trkpt lat="47.8772" lon="7.1886">
        <ele>405.60000610352</ele>
        <time>2020-05-31T09:55:09.000Z</time>
      </trkpt>
      <trkpt lat="47.87722" lon="7.18862">
        <ele>405</ele>
        <time>2020-05-31T09:55:10.000Z</time>
      </trkpt>
      <trkpt lat="47.87724" lon="7.18867">
        <ele>404.60000610352</ele>
        <time>2020-05-31T09:55:11.000Z</time>
      </trkpt>
      <trkpt lat="47.87726" lon="7.1887">
        <ele>404.20001220703</ele>
        <time>2020-05-31T09:55:12.000Z</time>
      </trkpt>
      <trkpt lat="47.87728" lon="7.18874">
        <ele>403.20001220703</ele>
        <time>2020-05-31T09:55:13.000Z</time>
      </trkpt>
      <trkpt lat="47.87731" lon="7.18878">
        <ele>402.79998779297</ele>
        <time>2020-05-31T09:55:14.000Z</time>
      </trkpt>
      <trkpt lat="47.87732" lon="7.18882">
        <ele>402.20001220703</ele>
        <time>2020-05-31T09:55:15.000Z</time>
      </trkpt>
      <trkpt lat="47.87734" lon="7.18887">
        <ele>401.79998779297</ele>
        <time>2020-05-31T09:55:16.000Z</time>
      </trkpt>
      <trkpt lat="47.87734" lon="7.18893">
        <ele>401.39999389648</ele>
        <time>2020-05-31T09:55:17.000Z</time>
      </trkpt>
      <trkpt lat="47.87736" lon="7.18899">
        <ele>401</ele>
        <time>2020-05-31T09:55:18.000Z</time>
      </trkpt>
      <trkpt lat="47.87737" lon="7.18905">
        <ele>400.60000610352</ele>
        <time>2020-05-31T09:55:19.000Z</time>
      </trkpt>
      <trkpt lat="47.8774" lon="7.18911">
        <ele>400.20001220703</ele>
        <time>2020-05-31T09:55:20.000Z</time>
      </trkpt>
      <trkpt lat="47.87741" lon="7.18914">
        <ele>399.79998779297</ele>
        <time>2020-05-31T09:55:21.000Z</time>
      </trkpt>
      <trkpt lat="47.87742" lon="7.18916">
        <ele>399.20001220703</ele>
        <time>2020-05-31T09:55:22.000Z</time>
      </trkpt>
      <trkpt lat="47.87743" lon="7.18916">
        <ele>399.20001220703</ele>
        <time>2020-05-31T09:55:23.000Z</time>
      </trkpt>
      <trkpt lat="47.87745" lon="7.18913">
        <ele>399.20001220703</ele>
        <time>2020-05-31T09:55:29.000Z</time>
      </trkpt>
      <trkpt lat="47.87745" lon="7.18911">
        <ele>399.20001220703</ele>
        <time>2020-05-31T09:55:30.000Z</time>
      </trkpt>
      <trkpt lat="47.87749" lon="7.18908">
        <ele>399.20001220703</ele>
        <time>2020-05-31T09:55:35.000Z</time>
      </trkpt>
      <trkpt lat="47.87751" lon="7.18909">
        <ele>398.79998779297</ele>
        <time>2020-05-31T09:55:36.000Z</time>
      </trkpt>
      <trkpt lat="47.87753" lon="7.18908">
        <ele>398.39999389648</ele>
        <time>2020-05-31T09:55:37.000Z</time>
      </trkpt>
      <trkpt lat="47.87753" lon="7.18906">
        <ele>397.60000610352</ele>
        <time>2020-05-31T09:55:38.000Z</time>
      </trkpt>
      <trkpt lat="47.87755" lon="7.18902">
        <ele>397.20001220703</ele>
        <time>2020-05-31T09:55:39.000Z</time>
      </trkpt>
      <trkpt lat="47.87758" lon="7.18897">
        <ele>396.79998779297</ele>
        <time>2020-05-31T09:55:41.000Z</time>
      </trkpt>
      <trkpt lat="47.87761" lon="7.18897">
        <ele>396.39999389648</ele>
        <time>2020-05-31T09:55:42.000Z</time>
      </trkpt>
      <trkpt lat="47.87764" lon="7.18898">
        <ele>396</ele>
        <time>2020-05-31T09:55:43.000Z</time>
      </trkpt>
      <trkpt lat="47.87766" lon="7.189">
        <ele>395.60000610352</ele>
        <time>2020-05-31T09:55:44.000Z</time>
      </trkpt>
      <trkpt lat="47.87768" lon="7.18903">
        <ele>395</ele>
        <time>2020-05-31T09:55:45.000Z</time>
      </trkpt>
      <trkpt lat="47.8777" lon="7.18903">
        <ele>394.60000610352</ele>
        <time>2020-05-31T09:55:46.000Z</time>
      </trkpt>
      <trkpt lat="47.87772" lon="7.18902">
        <ele>394</ele>
        <time>2020-05-31T09:55:47.000Z</time>
      </trkpt>
      <trkpt lat="47.87774" lon="7.18902">
        <ele>393.39999389648</ele>
        <time>2020-05-31T09:55:48.000Z</time>
      </trkpt>
      <trkpt lat="47.87775" lon="7.189">
        <ele>393</ele>
        <time>2020-05-31T09:55:49.000Z</time>
      </trkpt>
      <trkpt lat="47.87776" lon="7.18899">
        <ele>393</ele>
        <time>2020-05-31T09:55:50.000Z</time>
      </trkpt>
      <trkpt lat="47.87778" lon="7.18899">
        <ele>393</ele>
        <time>2020-05-31T09:55:51.000Z</time>
      </trkpt>
      <trkpt lat="47.87779" lon="7.18899">
        <ele>392.39999389648</ele>
        <time>2020-05-31T09:55:52.000Z</time>
      </trkpt>
      <trkpt lat="47.87781" lon="7.189">
        <ele>392</ele>
        <time>2020-05-31T09:55:53.000Z</time>
      </trkpt>
      <trkpt lat="47.87783" lon="7.189">
        <ele>391.60000610352</ele>
        <time>2020-05-31T09:55:54.000Z</time>
      </trkpt>
      <trkpt lat="47.87785" lon="7.18898">
        <ele>391</ele>
        <time>2020-05-31T09:55:55.000Z</time>
      </trkpt>
      <trkpt lat="47.87787" lon="7.18895">
        <ele>390.39999389648</ele>
        <time>2020-05-31T09:55:56.000Z</time>
      </trkpt>
      <trkpt lat="47.87789" lon="7.18893">
        <ele>389.79998779297</ele>
        <time>2020-05-31T09:55:57.000Z</time>
      </trkpt>
      <trkpt lat="47.87792" lon="7.1889">
        <ele>389.39999389648</ele>
        <time>2020-05-31T09:55:58.000Z</time>
      </trkpt>
      <trkpt lat="47.87794" lon="7.18887">
        <ele>388.79998779297</ele>
        <time>2020-05-31T09:55:59.000Z</time>
      </trkpt>
      <trkpt lat="47.87795" lon="7.18885">
        <ele>388.20001220703</ele>
        <time>2020-05-31T09:56:00.000Z</time>
      </trkpt>
      <trkpt lat="47.87797" lon="7.18885">
        <ele>387</ele>
        <time>2020-05-31T09:56:01.000Z</time>
      </trkpt>
      <trkpt lat="47.878" lon="7.18887">
        <ele>386.39999389648</ele>
        <time>2020-05-31T09:56:02.000Z</time>
      </trkpt>
      <trkpt lat="47.87801" lon="7.18889">
        <ele>385.79998779297</ele>
        <time>2020-05-31T09:56:03.000Z</time>
      </trkpt>
      <trkpt lat="47.87801" lon="7.18891">
        <ele>385.39999389648</ele>
        <time>2020-05-31T09:56:05.000Z</time>
      </trkpt>
      <trkpt lat="47.87801" lon="7.18892">
        <ele>385</ele>
        <time>2020-05-31T09:56:06.000Z</time>
      </trkpt>
      <trkpt lat="47.87802" lon="7.18891">
        <ele>384.60000610352</ele>
        <time>2020-05-31T09:56:07.000Z</time>
      </trkpt>
      <trkpt lat="47.87799" lon="7.18889">
        <ele>384</ele>
        <time>2020-05-31T09:56:08.000Z</time>
      </trkpt>
      <trkpt lat="47.87798" lon="7.18895">
        <ele>383.60000610352</ele>
        <time>2020-05-31T09:56:16.000Z</time>
      </trkpt>
      <trkpt lat="47.87795" lon="7.189">
        <ele>383.60000610352</ele>
        <time>2020-05-31T09:56:19.000Z</time>
      </trkpt>
      <trkpt lat="47.87793" lon="7.18903">
        <ele>383.60000610352</ele>
        <time>2020-05-31T09:56:20.000Z</time>
      </trkpt>
      <trkpt lat="47.8779" lon="7.18914">
        <ele>383.60000610352</ele>
        <time>2020-05-31T09:56:23.000Z</time>
      </trkpt>
      <trkpt lat="47.87789" lon="7.18916">
        <ele>383.60000610352</ele>
        <time>2020-05-31T09:56:24.000Z</time>
      </trkpt>
      <trkpt lat="47.87788" lon="7.18921">
        <ele>383.60000610352</ele>
        <time>2020-05-31T09:56:26.000Z</time>
      </trkpt>
      <trkpt lat="47.87788" lon="7.18923">
        <ele>384.20001220703</ele>
        <time>2020-05-31T09:56:27.000Z</time>
      </trkpt>
      <trkpt lat="47.87788" lon="7.18928">
        <ele>384.60000610352</ele>
        <time>2020-05-31T09:56:28.000Z</time>
      </trkpt>
      <trkpt lat="47.87788" lon="7.18932">
        <ele>385</ele>
        <time>2020-05-31T09:56:29.000Z</time>
      </trkpt>
      <trkpt lat="47.87787" lon="7.18937">
        <ele>385.39999389648</ele>
        <time>2020-05-31T09:56:30.000Z</time>
      </trkpt>
      <trkpt lat="47.87786" lon="7.18941">
        <ele>385.79998779297</ele>
        <time>2020-05-31T09:56:31.000Z</time>
      </trkpt>
      <trkpt lat="47.87788" lon="7.18956">
        <ele>386.20001220703</ele>
        <time>2020-05-31T09:56:35.000Z</time>
      </trkpt>
      <trkpt lat="47.87788" lon="7.1896">
        <ele>386.60000610352</ele>
        <time>2020-05-31T09:56:36.000Z</time>
      </trkpt>
      <trkpt lat="47.87787" lon="7.18966">
        <ele>387.20001220703</ele>
        <time>2020-05-31T09:56:37.000Z</time>
      </trkpt>
      <trkpt lat="47.87787" lon="7.18972">
        <ele>387.60000610352</ele>
        <time>2020-05-31T09:56:38.000Z</time>
      </trkpt>
      <trkpt lat="47.87788" lon="7.18978">
        <ele>388</ele>
        <time>2020-05-31T09:56:39.000Z</time>
      </trkpt>
      <trkpt lat="47.87788" lon="7.18984">
        <ele>388</ele>
        <time>2020-05-31T09:56:40.000Z</time>
      </trkpt>
      <trkpt lat="47.87788" lon="7.18999">
        <ele>388.39999389648</ele>
        <time>2020-05-31T09:56:43.000Z</time>
      </trkpt>
      <trkpt lat="47.87788" lon="7.19003">
        <ele>389</ele>
        <time>2020-05-31T09:56:44.000Z</time>
      </trkpt>
      <trkpt lat="47.87787" lon="7.19007">
        <ele>389.39999389648</ele>
        <time>2020-05-31T09:56:45.000Z</time>
      </trkpt>
      <trkpt lat="47.87787" lon="7.19011">
        <ele>389.79998779297</ele>
        <time>2020-05-31T09:56:46.000Z</time>
      </trkpt>
      <trkpt lat="47.87785" lon="7.19017">
        <ele>390.20001220703</ele>
        <time>2020-05-31T09:56:47.000Z</time>
      </trkpt>
      <trkpt lat="47.87783" lon="7.19023">
        <ele>390.20001220703</ele>
        <time>2020-05-31T09:56:48.000Z</time>
      </trkpt>
      <trkpt lat="47.8778" lon="7.19032">
        <ele>390.60000610352</ele>
        <time>2020-05-31T09:56:50.000Z</time>
      </trkpt>
      <trkpt lat="47.87778" lon="7.19036">
        <ele>391.39999389648</ele>
        <time>2020-05-31T09:56:51.000Z</time>
      </trkpt>
      <trkpt lat="47.87775" lon="7.19042">
        <ele>392.20001220703</ele>
        <time>2020-05-31T09:56:53.000Z</time>
      </trkpt>
      <trkpt lat="47.87773" lon="7.19046">
        <ele>392.20001220703</ele>
        <time>2020-05-31T09:56:54.000Z</time>
      </trkpt>
      <trkpt lat="47.87769" lon="7.19052">
        <ele>392.60000610352</ele>
        <time>2020-05-31T09:56:55.000Z</time>
      </trkpt>
      <trkpt lat="47.87767" lon="7.19056">
        <ele>393</ele>
        <time>2020-05-31T09:56:56.000Z</time>
      </trkpt>
      <trkpt lat="47.87764" lon="7.19059">
        <ele>393.60000610352</ele>
        <time>2020-05-31T09:56:57.000Z</time>
      </trkpt>
      <trkpt lat="47.87761" lon="7.19062">
        <ele>394</ele>
        <time>2020-05-31T09:56:58.000Z</time>
      </trkpt>
      <trkpt lat="47.8776" lon="7.19065">
        <ele>394.39999389648</ele>
        <time>2020-05-31T09:56:59.000Z</time>
      </trkpt>
      <trkpt lat="47.87756" lon="7.19067">
        <ele>394.39999389648</ele>
        <time>2020-05-31T09:57:00.000Z</time>
      </trkpt>
      <trkpt lat="47.87745" lon="7.1908">
        <ele>394.79998779297</ele>
        <time>2020-05-31T09:57:04.000Z</time>
      </trkpt>
      <trkpt lat="47.87742" lon="7.19084">
        <ele>395.20001220703</ele>
        <time>2020-05-31T09:57:05.000Z</time>
      </trkpt>
      <trkpt lat="47.8774" lon="7.19085">
        <ele>395.60000610352</ele>
        <time>2020-05-31T09:57:06.000Z</time>
      </trkpt>
      <trkpt lat="47.87737" lon="7.19088">
        <ele>396.20001220703</ele>
        <time>2020-05-31T09:57:07.000Z</time>
      </trkpt>
      <trkpt lat="47.87735" lon="7.19089">
        <ele>396.60000610352</ele>
        <time>2020-05-31T09:57:08.000Z</time>
      </trkpt>
      <trkpt lat="47.87718" lon="7.19102">
        <ele>396.60000610352</ele>
        <time>2020-05-31T09:57:13.000Z</time>
      </trkpt>
      <trkpt lat="47.87694" lon="7.19117">
        <ele>396.60000610352</ele>
        <time>2020-05-31T09:57:20.000Z</time>
      </trkpt>
      <trkpt lat="47.87668" lon="7.19131">
        <ele>396.60000610352</ele>
        <time>2020-05-31T09:57:26.000Z</time>
      </trkpt>
      <trkpt lat="47.87648" lon="7.1914">
        <ele>396.60000610352</ele>
        <time>2020-05-31T09:57:30.000Z</time>
      </trkpt>
      <trkpt lat="47.87643" lon="7.19142">
        <ele>396.60000610352</ele>
        <time>2020-05-31T09:57:31.000Z</time>
      </trkpt>
      <trkpt lat="47.87628" lon="7.19149">
        <ele>396.20001220703</ele>
        <time>2020-05-31T09:57:34.000Z</time>
      </trkpt>
      <trkpt lat="47.87623" lon="7.1915">
        <ele>395.60000610352</ele>
        <time>2020-05-31T09:57:35.000Z</time>
      </trkpt>
      <trkpt lat="47.87618" lon="7.19152">
        <ele>395.20001220703</ele>
        <time>2020-05-31T09:57:36.000Z</time>
      </trkpt>
      <trkpt lat="47.87614" lon="7.19153">
        <ele>394.79998779297</ele>
        <time>2020-05-31T09:57:37.000Z</time>
      </trkpt>
      <trkpt lat="47.8761" lon="7.19154">
        <ele>394.39999389648</ele>
        <time>2020-05-31T09:57:38.000Z</time>
      </trkpt>
      <trkpt lat="47.87596" lon="7.19155">
        <ele>394.39999389648</ele>
        <time>2020-05-31T09:57:42.000Z</time>
      </trkpt>
      <trkpt lat="47.87587" lon="7.19157">
        <ele>394.39999389648</ele>
        <time>2020-05-31T09:57:47.000Z</time>
      </trkpt>
      <trkpt lat="47.87579" lon="7.19159">
        <ele>394.39999389648</ele>
        <time>2020-05-31T09:57:51.000Z</time>
      </trkpt>
      <trkpt lat="47.87576" lon="7.19161">
        <ele>394.39999389648</ele>
        <time>2020-05-31T09:57:53.000Z</time>
      </trkpt>
      <trkpt lat="47.87575" lon="7.19165">
        <ele>394.39999389648</ele>
        <time>2020-05-31T09:57:56.000Z</time>
      </trkpt>
    </trkseg>
  </trk>
</gpx>